<?xml version="1.0" encoding="UTF-8" standalone="no" ?>
<gpx xmlns="http://www.topografix.com/GPX/1/1" xmlns:xsi="http://www.w3.org/2001/XMLSchema-instance" xsi:schemaLocation="http://www.topografix.com/GPX/1/1 http://www.topografix.com/GPX/1/1/gpx.xsd" version="1.1" creator="VisuGPX - https://www.visugpx.com">
  <metadata>
    <name>75L40/26 Paris par Christian L IBP 47</name>
    <desc><![CDATA[[img]https://blogger.googleusercontent.com/img/b/R29vZ2xl/AVvXsEgtxJOGU48crAHxM9XYTfJGVDofllJPoKWzKNFy1wpVypHy4YmHDpPH9xwotriO_Hys3IbzmX5bRrEhK_soXYVgpCI1b1FTXKfj24mCXbUaW4NFqiP5foC7Yv_Er2OgPF222X9Ku5GiqWFoGHTkfXRj5NjHgajEKI-QnEJXNqXH2Pkuc1XIg3_MG2NiRhjG/w400-h266/Blanc%20avec%20Pastel%20Rayures%20Bordure%20Badge%20(4).jpg[/img] 


[img]https://blogger.googleusercontent.com/img/b/R29vZ2xl/AVvXsEhyvuHuSjCnJfzIoSGZR2uCGIVkETMBEY4tFocprqxvjqS91HNZcaXlRpQzvJTLXcG69GcyqERVukDYAYUlZ4i4PZMq9Nrf_b5owv9W_8xhBuQOUsL64U_sh9zV80VVq4ZDnpcr5oWwLTn4oQbyd4nNY26KvX4TT9epzNKumAL2kIdi3BiTugT3H0aE-aLv/s100/Sans%20titre%20(100%20x%20100%20px).jpg[/img]   [b]Rando Club Yerrois[/b]

[img]https://blogger.googleusercontent.com/img/b/R29vZ2xl/AVvXsEisi-VCznprvDLvJTlGk5ZHUUj5yKrsElOgMzt8ZYerzNaNt4s6I63SEOjiyhOhZ79ZCPxjkCWOeBZVT0IfKD9x5cefBKGtWs0HffsRVNBZ_GzPYFVErrhJ-zni0IwzT6lZB9LelozK_h3Vxf6ZGan-fO04zJXTJPzvOFFMGQuZ7ozZxAYlTT7U7G062SCB/s320/Animateur%20%282%29.jpg[/img] [b]Dimanche 19 Juillet 2026 [/b]
[img]https://blogger.googleusercontent.com/img/b/R29vZ2xl/AVvXsEgLiyi8DByeS3i7Ou4F9krchrsaam-BzjGlHuK7eNSe_7AJuLd5jUWTQdCggn9odJ9fmjqMOcucBLci-qUgj1g1NM2wK2aLvYXOnm5phdzMlYBBt9xKSrCUORYm5b1pQyRO8GdcDjNbzq7w_zn3stIXah3Zbr1uuDsp1qCuGszvlALy0GSl-R6VNyb297QF/s320/Animateur%20%285%29.jpg[/img] Christian L
[img]https://blogger.googleusercontent.com/img/b/R29vZ2xl/AVvXsEgFqA__k0dEq3JY-oznl3CprwE9o8zv7MAf5L8hc080yDG3kiv1D5FW-w06fRognG7kP0fdaGHobn_7-vKxwfvoxhwcqfGchPXaAEWfgWBcDKe6xRMWTNRkL596gfBSxFIJO-7t1BSkByGALZv5QZsPR94pLR2Gixc-2pFqXQeknAzgonGgv-FUlZC1J3PM/s320/Animateur%20%284%29.jpg[/img] 9
[img]https://blogger.googleusercontent.com/img/b/R29vZ2xl/AVvXsEiXyNFSKONmIWva9q1OH5UrSlMDxrajCo4dLvQm5jbx-Wk-TheBAsAlZzBIggtXvQD4URVcl_BcGknoH3rsQ1es5f4PGTS0SH_1J2X9smZxjZVQ2JF4I1HHYQOKhcYGEgPUjnAJ55BKZqaTvPA7QJWC_lBmyjkZlIZOUuWkK-LFZ3bbYrc7ENwf-G9FSZjz/s320/Animateur%20%283%29.jpg[/img] Ras



[b]Avertissement[/b] Toutes les randonnées répertoriées dans la randothèque du [b]R[/b]ando [b]C[/b]lub [b]Y[/b]errois ont été tracées par l'un de nos animateurs, puis reconnues et enfin effectuées avec un groupe. Pour votre sécurité, regardez toujours la date à laquelle la sortie a été effectuée - Nous tachons de mentionner des conditions météos particulières ou les difficultés éventuelles. N'oubliez jamais les consignes supplémentaires de sécurité]]></desc>
  </metadata>
  <trk>
    <name><![CDATA[Enregistré le 19 juil. 2026 09:17:26]]></name>
    <trkseg>
      <trkpt lat="48.82687" lon="2.36636">
        <ele>49.07743</ele>
        <time>2026-07-19T07:17:26.201Z</time>
      </trkpt>
      <trkpt lat="48.8269" lon="2.36633">
        <ele>49.15741</ele>
        <time>2026-07-19T07:17:28.366Z</time>
      </trkpt>
      <trkpt lat="48.82691" lon="2.3663">
        <ele>49.24641</ele>
        <time>2026-07-19T07:17:30.363Z</time>
      </trkpt>
      <trkpt lat="48.82689" lon="2.36632">
        <ele>49.91986</ele>
        <time>2026-07-19T07:17:38.370Z</time>
      </trkpt>
      <trkpt lat="48.8269" lon="2.36635">
        <ele>50.6504</ele>
        <time>2026-07-19T07:17:43.301Z</time>
      </trkpt>
      <trkpt lat="48.82692" lon="2.36638">
        <ele>51.75565</ele>
        <time>2026-07-19T07:17:52.301Z</time>
      </trkpt>
      <trkpt lat="48.82693" lon="2.36642">
        <ele>52.02931</ele>
        <time>2026-07-19T07:17:55.301Z</time>
      </trkpt>
      <trkpt lat="48.82693" lon="2.36645">
        <ele>52.23186</ele>
        <time>2026-07-19T07:18:16.301Z</time>
      </trkpt>
      <trkpt lat="48.82691" lon="2.36644">
        <ele>51.2017</ele>
        <time>2026-07-19T07:19:12.303Z</time>
      </trkpt>
      <trkpt lat="48.82688" lon="2.36644">
        <ele>51.19828</ele>
        <time>2026-07-19T07:19:18.303Z</time>
      </trkpt>
      <trkpt lat="48.82686" lon="2.36646">
        <ele>51.20232</ele>
        <time>2026-07-19T07:19:21.302Z</time>
      </trkpt>
      <trkpt lat="48.82683" lon="2.36647">
        <ele>51.20128</ele>
        <time>2026-07-19T07:19:24.303Z</time>
      </trkpt>
      <trkpt lat="48.82681" lon="2.36648">
        <ele>51.18549</ele>
        <time>2026-07-19T07:19:27.303Z</time>
      </trkpt>
      <trkpt lat="48.82679" lon="2.36649">
        <ele>51.14467</ele>
        <time>2026-07-19T07:19:31.303Z</time>
      </trkpt>
      <trkpt lat="48.82676" lon="2.36649">
        <ele>51.10759</ele>
        <time>2026-07-19T07:19:33.303Z</time>
      </trkpt>
      <trkpt lat="48.82673" lon="2.36651">
        <ele>51.02576</ele>
        <time>2026-07-19T07:19:36.304Z</time>
      </trkpt>
      <trkpt lat="48.8267" lon="2.36651">
        <ele>50.93147</ele>
        <time>2026-07-19T07:19:39.304Z</time>
      </trkpt>
      <trkpt lat="48.82668" lon="2.36652">
        <ele>50.82529</ele>
        <time>2026-07-19T07:19:42.303Z</time>
      </trkpt>
      <trkpt lat="48.82665" lon="2.36654">
        <ele>50.69316</ele>
        <time>2026-07-19T07:19:45.304Z</time>
      </trkpt>
      <trkpt lat="48.82663" lon="2.36655">
        <ele>50.60913</ele>
        <time>2026-07-19T07:19:47.303Z</time>
      </trkpt>
      <trkpt lat="48.8266" lon="2.36657">
        <ele>50.52921</ele>
        <time>2026-07-19T07:19:50.303Z</time>
      </trkpt>
      <trkpt lat="48.82658" lon="2.36659">
        <ele>50.45293</ele>
        <time>2026-07-19T07:19:53.304Z</time>
      </trkpt>
      <trkpt lat="48.82655" lon="2.3666">
        <ele>50.32791</ele>
        <time>2026-07-19T07:19:57.304Z</time>
      </trkpt>
      <trkpt lat="48.82652" lon="2.36661">
        <ele>50.22933</ele>
        <time>2026-07-19T07:20:00.304Z</time>
      </trkpt>
      <trkpt lat="48.8265" lon="2.36663">
        <ele>50.11316</ele>
        <time>2026-07-19T07:20:03.305Z</time>
      </trkpt>
      <trkpt lat="48.82647" lon="2.36664">
        <ele>49.99317</ele>
        <time>2026-07-19T07:20:06.305Z</time>
      </trkpt>
      <trkpt lat="48.82645" lon="2.36667">
        <ele>49.91579</ele>
        <time>2026-07-19T07:20:08.304Z</time>
      </trkpt>
      <trkpt lat="48.82642" lon="2.36668">
        <ele>49.83346</ele>
        <time>2026-07-19T07:20:10.305Z</time>
      </trkpt>
      <trkpt lat="48.82639" lon="2.36667">
        <ele>49.69985</ele>
        <time>2026-07-19T07:20:13.304Z</time>
      </trkpt>
      <trkpt lat="48.82635" lon="2.36667">
        <ele>49.61856</ele>
        <time>2026-07-19T07:20:15.303Z</time>
      </trkpt>
      <trkpt lat="48.82633" lon="2.36668">
        <ele>49.55615</ele>
        <time>2026-07-19T07:20:17.305Z</time>
      </trkpt>
      <trkpt lat="48.82631" lon="2.36669">
        <ele>49.51504</ele>
        <time>2026-07-19T07:20:19.304Z</time>
      </trkpt>
      <trkpt lat="48.82628" lon="2.36671">
        <ele>49.47181</ele>
        <time>2026-07-19T07:20:22.305Z</time>
      </trkpt>
      <trkpt lat="48.82625" lon="2.36673">
        <ele>49.44527</ele>
        <time>2026-07-19T07:20:24.304Z</time>
      </trkpt>
      <trkpt lat="48.82624" lon="2.36675">
        <ele>49.43166</ele>
        <time>2026-07-19T07:20:26.304Z</time>
      </trkpt>
      <trkpt lat="48.8262" lon="2.36677">
        <ele>49.41466</ele>
        <time>2026-07-19T07:20:29.305Z</time>
      </trkpt>
      <trkpt lat="48.82617" lon="2.36679">
        <ele>49.38965</ele>
        <time>2026-07-19T07:20:32.304Z</time>
      </trkpt>
      <trkpt lat="48.82615" lon="2.36681">
        <ele>49.37957</ele>
        <time>2026-07-19T07:20:34.305Z</time>
      </trkpt>
      <trkpt lat="48.82612" lon="2.36684">
        <ele>49.36768</ele>
        <time>2026-07-19T07:20:37.305Z</time>
      </trkpt>
      <trkpt lat="48.8261" lon="2.36685">
        <ele>49.33093</ele>
        <time>2026-07-19T07:20:41.304Z</time>
      </trkpt>
      <trkpt lat="48.82607" lon="2.36686">
        <ele>49.27404</ele>
        <time>2026-07-19T07:20:45.305Z</time>
      </trkpt>
      <trkpt lat="48.82604" lon="2.36688">
        <ele>49.25382</ele>
        <time>2026-07-19T07:20:47.304Z</time>
      </trkpt>
      <trkpt lat="48.82602" lon="2.3669">
        <ele>49.23687</ele>
        <time>2026-07-19T07:20:49.305Z</time>
      </trkpt>
      <trkpt lat="48.82599" lon="2.36691">
        <ele>49.2217</ele>
        <time>2026-07-19T07:20:51.305Z</time>
      </trkpt>
      <trkpt lat="48.82597" lon="2.36692">
        <ele>49.19787</ele>
        <time>2026-07-19T07:20:54.305Z</time>
      </trkpt>
      <trkpt lat="48.82594" lon="2.36693">
        <ele>49.16972</ele>
        <time>2026-07-19T07:20:57.305Z</time>
      </trkpt>
      <trkpt lat="48.82591" lon="2.36695">
        <ele>49.1385</ele>
        <time>2026-07-19T07:21:00.305Z</time>
      </trkpt>
      <trkpt lat="48.82589" lon="2.36697">
        <ele>49.12122</ele>
        <time>2026-07-19T07:21:02.305Z</time>
      </trkpt>
      <trkpt lat="48.82586" lon="2.36698">
        <ele>49.10738</ele>
        <time>2026-07-19T07:21:04.305Z</time>
      </trkpt>
      <trkpt lat="48.82583" lon="2.36699">
        <ele>49.09004</ele>
        <time>2026-07-19T07:21:07.305Z</time>
      </trkpt>
      <trkpt lat="48.8258" lon="2.36699">
        <ele>49.08411</ele>
        <time>2026-07-19T07:21:09.305Z</time>
      </trkpt>
      <trkpt lat="48.82577" lon="2.367">
        <ele>49.0815</ele>
        <time>2026-07-19T07:21:11.305Z</time>
      </trkpt>
      <trkpt lat="48.82571" lon="2.36699">
        <ele>49.08366</ele>
        <time>2026-07-19T07:21:13.305Z</time>
      </trkpt>
      <trkpt lat="48.8257" lon="2.36702">
        <ele>49.09076</ele>
        <time>2026-07-19T07:21:14.305Z</time>
      </trkpt>
      <trkpt lat="48.82567" lon="2.36706">
        <ele>49.10789</ele>
        <time>2026-07-19T07:21:16.305Z</time>
      </trkpt>
      <trkpt lat="48.82565" lon="2.36708">
        <ele>49.16733</ele>
        <time>2026-07-19T07:21:18.306Z</time>
      </trkpt>
      <trkpt lat="48.82564" lon="2.36703">
        <ele>49.37125</ele>
        <time>2026-07-19T07:21:21.305Z</time>
      </trkpt>
      <trkpt lat="48.82565" lon="2.367">
        <ele>49.77596</ele>
        <time>2026-07-19T07:21:24.305Z</time>
      </trkpt>
      <trkpt lat="48.82565" lon="2.36696">
        <ele>50.41002</ele>
        <time>2026-07-19T07:21:27.305Z</time>
      </trkpt>
      <trkpt lat="48.82566" lon="2.36692">
        <ele>51.30388</ele>
        <time>2026-07-19T07:21:30.306Z</time>
      </trkpt>
      <trkpt lat="48.82567" lon="2.36688">
        <ele>52.09427</ele>
        <time>2026-07-19T07:21:32.306Z</time>
      </trkpt>
      <trkpt lat="48.82568" lon="2.36684">
        <ele>52.916</ele>
        <time>2026-07-19T07:21:34.306Z</time>
      </trkpt>
      <trkpt lat="48.82568" lon="2.3668">
        <ele>53.68155</ele>
        <time>2026-07-19T07:21:36.305Z</time>
      </trkpt>
      <trkpt lat="48.82568" lon="2.36676">
        <ele>54.56456</ele>
        <time>2026-07-19T07:21:39.306Z</time>
      </trkpt>
      <trkpt lat="48.82567" lon="2.36672">
        <ele>55.19971</ele>
        <time>2026-07-19T07:21:42.306Z</time>
      </trkpt>
      <trkpt lat="48.82565" lon="2.36668">
        <ele>56.16928</ele>
        <time>2026-07-19T07:21:49.306Z</time>
      </trkpt>
      <trkpt lat="48.82563" lon="2.36669">
        <ele>56.60161</ele>
        <time>2026-07-19T07:21:53.306Z</time>
      </trkpt>
      <trkpt lat="48.8256" lon="2.36671">
        <ele>57.10731</ele>
        <time>2026-07-19T07:21:59.329Z</time>
      </trkpt>
      <trkpt lat="48.82558" lon="2.36672">
        <ele>57.36091</ele>
        <time>2026-07-19T07:22:01.306Z</time>
      </trkpt>
      <trkpt lat="48.82556" lon="2.36673">
        <ele>57.74478</ele>
        <time>2026-07-19T07:22:05.307Z</time>
      </trkpt>
      <trkpt lat="48.82553" lon="2.36674">
        <ele>58.24001</ele>
        <time>2026-07-19T07:22:10.574Z</time>
      </trkpt>
      <trkpt lat="48.82551" lon="2.36671">
        <ele>58.66211</ele>
        <time>2026-07-19T07:22:13.307Z</time>
      </trkpt>
      <trkpt lat="48.82549" lon="2.36668">
        <ele>58.93629</ele>
        <time>2026-07-19T07:22:16.307Z</time>
      </trkpt>
      <trkpt lat="48.82547" lon="2.36665">
        <ele>59.21318</ele>
        <time>2026-07-19T07:22:19.307Z</time>
      </trkpt>
      <trkpt lat="48.82546" lon="2.36662">
        <ele>59.36444</ele>
        <time>2026-07-19T07:22:21.306Z</time>
      </trkpt>
      <trkpt lat="48.82546" lon="2.36658">
        <ele>59.48231</ele>
        <time>2026-07-19T07:22:23.307Z</time>
      </trkpt>
      <trkpt lat="48.82545" lon="2.36654">
        <ele>59.57431</ele>
        <time>2026-07-19T07:22:25.307Z</time>
      </trkpt>
      <trkpt lat="48.82544" lon="2.36651">
        <ele>59.66198</ele>
        <time>2026-07-19T07:22:27.307Z</time>
      </trkpt>
      <trkpt lat="48.82544" lon="2.36647">
        <ele>59.79419</ele>
        <time>2026-07-19T07:22:31.306Z</time>
      </trkpt>
      <trkpt lat="48.82543" lon="2.36643">
        <ele>59.87392</ele>
        <time>2026-07-19T07:22:34.307Z</time>
      </trkpt>
      <trkpt lat="48.82543" lon="2.3664">
        <ele>59.91773</ele>
        <time>2026-07-19T07:22:37.307Z</time>
      </trkpt>
      <trkpt lat="48.82542" lon="2.36636">
        <ele>59.93044</ele>
        <time>2026-07-19T07:22:39.307Z</time>
      </trkpt>
      <trkpt lat="48.82541" lon="2.36632">
        <ele>59.9558</ele>
        <time>2026-07-19T07:22:43.431Z</time>
      </trkpt>
      <trkpt lat="48.8254" lon="2.36628">
        <ele>59.97115</ele>
        <time>2026-07-19T07:22:45.307Z</time>
      </trkpt>
      <trkpt lat="48.82538" lon="2.36625">
        <ele>59.99487</ele>
        <time>2026-07-19T07:22:48.307Z</time>
      </trkpt>
      <trkpt lat="48.82536" lon="2.36622">
        <ele>60.03431</ele>
        <time>2026-07-19T07:22:51.307Z</time>
      </trkpt>
      <trkpt lat="48.82534" lon="2.36619">
        <ele>60.05582</ele>
        <time>2026-07-19T07:22:53.307Z</time>
      </trkpt>
      <trkpt lat="48.82532" lon="2.36616">
        <ele>60.0753</ele>
        <time>2026-07-19T07:22:55.307Z</time>
      </trkpt>
      <trkpt lat="48.82529" lon="2.36612">
        <ele>60.11268</ele>
        <time>2026-07-19T07:22:58.307Z</time>
      </trkpt>
      <trkpt lat="48.82527" lon="2.36611">
        <ele>60.15625</ele>
        <time>2026-07-19T07:23:01.307Z</time>
      </trkpt>
      <trkpt lat="48.82524" lon="2.36608">
        <ele>60.19941</ele>
        <time>2026-07-19T07:23:04.307Z</time>
      </trkpt>
      <trkpt lat="48.82522" lon="2.36604">
        <ele>60.23658</ele>
        <time>2026-07-19T07:23:07.308Z</time>
      </trkpt>
      <trkpt lat="48.8252" lon="2.36602">
        <ele>60.2794</ele>
        <time>2026-07-19T07:23:10.307Z</time>
      </trkpt>
      <trkpt lat="48.82517" lon="2.366">
        <ele>60.31161</ele>
        <time>2026-07-19T07:23:12.308Z</time>
      </trkpt>
      <trkpt lat="48.82514" lon="2.36599">
        <ele>60.36021</ele>
        <time>2026-07-19T07:23:15.308Z</time>
      </trkpt>
      <trkpt lat="48.82511" lon="2.36599">
        <ele>60.43026</ele>
        <time>2026-07-19T07:23:19.308Z</time>
      </trkpt>
      <trkpt lat="48.82508" lon="2.36598">
        <ele>60.46306</ele>
        <time>2026-07-19T07:23:22.307Z</time>
      </trkpt>
      <trkpt lat="48.82505" lon="2.36597">
        <ele>60.48771</ele>
        <time>2026-07-19T07:23:24.308Z</time>
      </trkpt>
      <trkpt lat="48.82502" lon="2.36595">
        <ele>60.52268</ele>
        <time>2026-07-19T07:23:27.307Z</time>
      </trkpt>
      <trkpt lat="48.825" lon="2.36593">
        <ele>60.56225</ele>
        <time>2026-07-19T07:23:30.308Z</time>
      </trkpt>
      <trkpt lat="48.82498" lon="2.36591">
        <ele>60.59849</ele>
        <time>2026-07-19T07:23:33.308Z</time>
      </trkpt>
      <trkpt lat="48.82497" lon="2.36587">
        <ele>60.65183</ele>
        <time>2026-07-19T07:23:36.308Z</time>
      </trkpt>
      <trkpt lat="48.82496" lon="2.36583">
        <ele>60.71734</ele>
        <time>2026-07-19T07:23:39.308Z</time>
      </trkpt>
      <trkpt lat="48.82495" lon="2.36578">
        <ele>60.75066</ele>
        <time>2026-07-19T07:23:42.308Z</time>
      </trkpt>
      <trkpt lat="48.82494" lon="2.36574">
        <ele>60.78687</ele>
        <time>2026-07-19T07:23:45.308Z</time>
      </trkpt>
      <trkpt lat="48.82494" lon="2.36571">
        <ele>60.80795</ele>
        <time>2026-07-19T07:23:47.308Z</time>
      </trkpt>
      <trkpt lat="48.82493" lon="2.36566">
        <ele>60.84058</ele>
        <time>2026-07-19T07:23:50.308Z</time>
      </trkpt>
      <trkpt lat="48.82492" lon="2.36562">
        <ele>60.87508</ele>
        <time>2026-07-19T07:23:53.309Z</time>
      </trkpt>
      <trkpt lat="48.8249" lon="2.36557">
        <ele>60.90445</ele>
        <time>2026-07-19T07:23:56.309Z</time>
      </trkpt>
      <trkpt lat="48.82488" lon="2.36554">
        <ele>60.92945</ele>
        <time>2026-07-19T07:23:59.309Z</time>
      </trkpt>
      <trkpt lat="48.82487" lon="2.36548">
        <ele>60.95567</ele>
        <time>2026-07-19T07:24:02.308Z</time>
      </trkpt>
      <trkpt lat="48.82485" lon="2.36546">
        <ele>60.98907</ele>
        <time>2026-07-19T07:24:05.309Z</time>
      </trkpt>
      <trkpt lat="48.82484" lon="2.36543">
        <ele>61.02706</ele>
        <time>2026-07-19T07:24:08.309Z</time>
      </trkpt>
      <trkpt lat="48.82484" lon="2.36539">
        <ele>61.06702</ele>
        <time>2026-07-19T07:24:11.308Z</time>
      </trkpt>
      <trkpt lat="48.82482" lon="2.36534">
        <ele>61.11483</ele>
        <time>2026-07-19T07:24:14.309Z</time>
      </trkpt>
      <trkpt lat="48.82481" lon="2.36531">
        <ele>61.15071</ele>
        <time>2026-07-19T07:24:16.308Z</time>
      </trkpt>
      <trkpt lat="48.8248" lon="2.36526">
        <ele>61.21908</ele>
        <time>2026-07-19T07:24:19.309Z</time>
      </trkpt>
      <trkpt lat="48.82481" lon="2.36522">
        <ele>61.3613</ele>
        <time>2026-07-19T07:24:24.309Z</time>
      </trkpt>
      <trkpt lat="48.82482" lon="2.36518">
        <ele>61.44667</ele>
        <time>2026-07-19T07:24:27.309Z</time>
      </trkpt>
      <trkpt lat="48.82482" lon="2.36514">
        <ele>61.58832</ele>
        <time>2026-07-19T07:24:33.309Z</time>
      </trkpt>
      <trkpt lat="48.8248" lon="2.36511">
        <ele>61.61375</ele>
        <time>2026-07-19T07:24:35.309Z</time>
      </trkpt>
      <trkpt lat="48.82478" lon="2.36508">
        <ele>61.61934</ele>
        <time>2026-07-19T07:24:37.309Z</time>
      </trkpt>
      <trkpt lat="48.82477" lon="2.36504">
        <ele>61.61879</ele>
        <time>2026-07-19T07:24:40.309Z</time>
      </trkpt>
      <trkpt lat="48.82476" lon="2.36501">
        <ele>61.61413</ele>
        <time>2026-07-19T07:24:42.309Z</time>
      </trkpt>
      <trkpt lat="48.82475" lon="2.36497">
        <ele>61.61228</ele>
        <time>2026-07-19T07:24:45.309Z</time>
      </trkpt>
      <trkpt lat="48.82428" lon="2.36421">
        <ele>61.7007</ele>
        <time>2026-07-19T07:29:48.316Z</time>
      </trkpt>
      <trkpt lat="48.82433" lon="2.36428">
        <ele>61.70047</ele>
        <time>2026-07-19T07:29:53.316Z</time>
      </trkpt>
      <trkpt lat="48.82435" lon="2.3643">
        <ele>61.714</ele>
        <time>2026-07-19T07:29:55.316Z</time>
      </trkpt>
      <trkpt lat="48.82437" lon="2.36432">
        <ele>61.72719</ele>
        <time>2026-07-19T07:29:57.316Z</time>
      </trkpt>
      <trkpt lat="48.8244" lon="2.36437">
        <ele>61.77056</ele>
        <time>2026-07-19T07:30:02.317Z</time>
      </trkpt>
      <trkpt lat="48.82442" lon="2.36441">
        <ele>61.78867</ele>
        <time>2026-07-19T07:30:03.316Z</time>
      </trkpt>
      <trkpt lat="48.82444" lon="2.36444">
        <ele>61.8093</ele>
        <time>2026-07-19T07:30:04.316Z</time>
      </trkpt>
      <trkpt lat="48.82446" lon="2.36446">
        <ele>61.85081</ele>
        <time>2026-07-19T07:30:06.316Z</time>
      </trkpt>
      <trkpt lat="48.82449" lon="2.36452">
        <ele>61.88524</ele>
        <time>2026-07-19T07:30:08.316Z</time>
      </trkpt>
      <trkpt lat="48.8245" lon="2.36455">
        <ele>61.89929</ele>
        <time>2026-07-19T07:30:09.317Z</time>
      </trkpt>
      <trkpt lat="48.82453" lon="2.3646">
        <ele>61.92071</ele>
        <time>2026-07-19T07:30:10.317Z</time>
      </trkpt>
      <trkpt lat="48.82455" lon="2.36463">
        <ele>61.9504</ele>
        <time>2026-07-19T07:30:11.317Z</time>
      </trkpt>
      <trkpt lat="48.82459" lon="2.3647">
        <ele>62.23175</ele>
        <time>2026-07-19T07:30:16.317Z</time>
      </trkpt>
      <trkpt lat="48.82463" lon="2.36474">
        <ele>62.40023</ele>
        <time>2026-07-19T07:30:18.316Z</time>
      </trkpt>
      <trkpt lat="48.82466" lon="2.36479">
        <ele>62.94487</ele>
        <time>2026-07-19T07:30:24.316Z</time>
      </trkpt>
      <trkpt lat="48.82467" lon="2.36483">
        <ele>63.08288</ele>
        <time>2026-07-19T07:30:26.317Z</time>
      </trkpt>
      <trkpt lat="48.82469" lon="2.36485">
        <ele>63.47321</ele>
        <time>2026-07-19T07:30:40.317Z</time>
      </trkpt>
      <trkpt lat="48.82469" lon="2.36489">
        <ele>63.4326</ele>
        <time>2026-07-19T07:31:29.318Z</time>
      </trkpt>
      <trkpt lat="48.82471" lon="2.36488">
        <ele>63.39592</ele>
        <time>2026-07-19T07:31:46.319Z</time>
      </trkpt>
      <trkpt lat="48.8247" lon="2.36483">
        <ele>64.57377</ele>
        <time>2026-07-19T07:34:02.322Z</time>
      </trkpt>
      <trkpt lat="48.8247" lon="2.36479">
        <ele>64.72676</ele>
        <time>2026-07-19T07:34:08.322Z</time>
      </trkpt>
      <trkpt lat="48.82468" lon="2.36476">
        <ele>64.78998</ele>
        <time>2026-07-19T07:34:11.322Z</time>
      </trkpt>
      <trkpt lat="48.82468" lon="2.36471">
        <ele>64.83279</ele>
        <time>2026-07-19T07:34:13.321Z</time>
      </trkpt>
      <trkpt lat="48.82467" lon="2.36467">
        <ele>64.89027</ele>
        <time>2026-07-19T07:34:15.322Z</time>
      </trkpt>
      <trkpt lat="48.82467" lon="2.36463">
        <ele>64.9515</ele>
        <time>2026-07-19T07:34:17.322Z</time>
      </trkpt>
      <trkpt lat="48.82465" lon="2.36459">
        <ele>65.0686</ele>
        <time>2026-07-19T07:34:21.322Z</time>
      </trkpt>
      <trkpt lat="48.82463" lon="2.36456">
        <ele>65.14692</ele>
        <time>2026-07-19T07:34:24.321Z</time>
      </trkpt>
      <trkpt lat="48.82462" lon="2.36453">
        <ele>65.21099</ele>
        <time>2026-07-19T07:34:27.322Z</time>
      </trkpt>
      <trkpt lat="48.82461" lon="2.36449">
        <ele>65.25677</ele>
        <time>2026-07-19T07:34:30.321Z</time>
      </trkpt>
      <trkpt lat="48.8246" lon="2.36445">
        <ele>65.29085</ele>
        <time>2026-07-19T07:34:34.322Z</time>
      </trkpt>
      <trkpt lat="48.82449" lon="2.36423">
        <ele>65.26452</ele>
        <time>2026-07-19T07:34:44.322Z</time>
      </trkpt>
      <trkpt lat="48.8245" lon="2.36415">
        <ele>65.2546</ele>
        <time>2026-07-19T07:34:47.322Z</time>
      </trkpt>
      <trkpt lat="48.82443" lon="2.36419">
        <ele>65.25775</ele>
        <time>2026-07-19T07:34:49.322Z</time>
      </trkpt>
      <trkpt lat="48.82441" lon="2.36417">
        <ele>65.25929</ele>
        <time>2026-07-19T07:34:50.322Z</time>
      </trkpt>
      <trkpt lat="48.82439" lon="2.36415">
        <ele>65.26893</ele>
        <time>2026-07-19T07:34:51.323Z</time>
      </trkpt>
      <trkpt lat="48.82439" lon="2.36412">
        <ele>65.30621</ele>
        <time>2026-07-19T07:34:54.322Z</time>
      </trkpt>
      <trkpt lat="48.8244" lon="2.36408">
        <ele>65.31604</ele>
        <time>2026-07-19T07:35:02.323Z</time>
      </trkpt>
      <trkpt lat="48.82438" lon="2.36405">
        <ele>65.26513</ele>
        <time>2026-07-19T07:35:10.323Z</time>
      </trkpt>
      <trkpt lat="48.82436" lon="2.36403">
        <ele>64.80955</ele>
        <time>2026-07-19T07:35:18.323Z</time>
      </trkpt>
      <trkpt lat="48.82433" lon="2.36401">
        <ele>63.92489</ele>
        <time>2026-07-19T07:35:23.322Z</time>
      </trkpt>
      <trkpt lat="48.82431" lon="2.36399">
        <ele>63.30167</ele>
        <time>2026-07-19T07:35:25.322Z</time>
      </trkpt>
      <trkpt lat="48.82429" lon="2.36398">
        <ele>56.28229</ele>
        <time>2026-07-19T07:35:48.323Z</time>
      </trkpt>
      <trkpt lat="48.82427" lon="2.364">
        <ele>56.002</ele>
        <time>2026-07-19T07:35:51.323Z</time>
      </trkpt>
      <trkpt lat="48.82425" lon="2.36403">
        <ele>55.74537</ele>
        <time>2026-07-19T07:35:54.323Z</time>
      </trkpt>
      <trkpt lat="48.82423" lon="2.36406">
        <ele>55.54927</ele>
        <time>2026-07-19T07:35:57.323Z</time>
      </trkpt>
      <trkpt lat="48.82422" lon="2.36409">
        <ele>55.45629</ele>
        <time>2026-07-19T07:35:59.324Z</time>
      </trkpt>
      <trkpt lat="48.8242" lon="2.36412">
        <ele>55.39203</ele>
        <time>2026-07-19T07:36:01.324Z</time>
      </trkpt>
      <trkpt lat="48.82418" lon="2.36417">
        <ele>55.31137</ele>
        <time>2026-07-19T07:36:04.324Z</time>
      </trkpt>
      <trkpt lat="48.82417" lon="2.3642">
        <ele>55.23711</ele>
        <time>2026-07-19T07:36:08.324Z</time>
      </trkpt>
      <trkpt lat="48.82415" lon="2.36423">
        <ele>55.19458</ele>
        <time>2026-07-19T07:36:11.324Z</time>
      </trkpt>
      <trkpt lat="48.82414" lon="2.36426">
        <ele>55.15803</ele>
        <time>2026-07-19T07:36:13.324Z</time>
      </trkpt>
      <trkpt lat="48.82411" lon="2.36431">
        <ele>55.0931</ele>
        <time>2026-07-19T07:36:16.324Z</time>
      </trkpt>
      <trkpt lat="48.8241" lon="2.36434">
        <ele>55.05101</ele>
        <time>2026-07-19T07:36:18.323Z</time>
      </trkpt>
      <trkpt lat="48.82408" lon="2.36437">
        <ele>55.03173</ele>
        <time>2026-07-19T07:36:21.324Z</time>
      </trkpt>
      <trkpt lat="48.82406" lon="2.36441">
        <ele>55.00775</ele>
        <time>2026-07-19T07:36:24.324Z</time>
      </trkpt>
      <trkpt lat="48.82403" lon="2.36444">
        <ele>55.01311</ele>
        <time>2026-07-19T07:36:27.324Z</time>
      </trkpt>
      <trkpt lat="48.82401" lon="2.36447">
        <ele>55.03237</ele>
        <time>2026-07-19T07:36:29.324Z</time>
      </trkpt>
      <trkpt lat="48.82399" lon="2.3645">
        <ele>55.06367</ele>
        <time>2026-07-19T07:36:32.324Z</time>
      </trkpt>
      <trkpt lat="48.82397" lon="2.36454">
        <ele>55.11131</ele>
        <time>2026-07-19T07:36:35.325Z</time>
      </trkpt>
      <trkpt lat="48.82396" lon="2.36457">
        <ele>55.1543</ele>
        <time>2026-07-19T07:36:38.324Z</time>
      </trkpt>
      <trkpt lat="48.82394" lon="2.36459">
        <ele>55.17861</ele>
        <time>2026-07-19T07:36:40.324Z</time>
      </trkpt>
      <trkpt lat="48.82392" lon="2.36463">
        <ele>55.21699</ele>
        <time>2026-07-19T07:36:43.324Z</time>
      </trkpt>
      <trkpt lat="48.82391" lon="2.36466">
        <ele>55.27186</ele>
        <time>2026-07-19T07:36:46.324Z</time>
      </trkpt>
      <trkpt lat="48.82389" lon="2.36469">
        <ele>55.33285</ele>
        <time>2026-07-19T07:36:49.324Z</time>
      </trkpt>
      <trkpt lat="48.82387" lon="2.36473">
        <ele>55.39913</ele>
        <time>2026-07-19T07:36:52.325Z</time>
      </trkpt>
      <trkpt lat="48.82385" lon="2.36475">
        <ele>55.48443</ele>
        <time>2026-07-19T07:36:56.325Z</time>
      </trkpt>
      <trkpt lat="48.82384" lon="2.36478">
        <ele>55.54905</ele>
        <time>2026-07-19T07:36:59.326Z</time>
      </trkpt>
      <trkpt lat="48.82381" lon="2.36481">
        <ele>55.59308</ele>
        <time>2026-07-19T07:37:02.324Z</time>
      </trkpt>
      <trkpt lat="48.8238" lon="2.36484">
        <ele>55.62114</ele>
        <time>2026-07-19T07:37:05.325Z</time>
      </trkpt>
      <trkpt lat="48.82378" lon="2.36488">
        <ele>55.66767</ele>
        <time>2026-07-19T07:37:09.325Z</time>
      </trkpt>
      <trkpt lat="48.82375" lon="2.3649">
        <ele>55.71063</ele>
        <time>2026-07-19T07:37:13.325Z</time>
      </trkpt>
      <trkpt lat="48.82373" lon="2.36492">
        <ele>55.73361</ele>
        <time>2026-07-19T07:37:15.607Z</time>
      </trkpt>
      <trkpt lat="48.82372" lon="2.36498">
        <ele>55.75169</ele>
        <time>2026-07-19T07:37:17.325Z</time>
      </trkpt>
      <trkpt lat="48.8237" lon="2.36504">
        <ele>55.77772</ele>
        <time>2026-07-19T07:37:19.326Z</time>
      </trkpt>
      <trkpt lat="48.82368" lon="2.36508">
        <ele>55.80957</ele>
        <time>2026-07-19T07:37:21.326Z</time>
      </trkpt>
      <trkpt lat="48.82367" lon="2.36511">
        <ele>55.84921</ele>
        <time>2026-07-19T07:37:23.325Z</time>
      </trkpt>
      <trkpt lat="48.82365" lon="2.36514">
        <ele>55.90947</ele>
        <time>2026-07-19T07:37:25.325Z</time>
      </trkpt>
      <trkpt lat="48.82364" lon="2.36518">
        <ele>56.02247</ele>
        <time>2026-07-19T07:37:28.326Z</time>
      </trkpt>
      <trkpt lat="48.82362" lon="2.36521">
        <ele>56.11919</ele>
        <time>2026-07-19T07:37:30.325Z</time>
      </trkpt>
      <trkpt lat="48.82361" lon="2.36525">
        <ele>56.22751</ele>
        <time>2026-07-19T07:37:32.325Z</time>
      </trkpt>
      <trkpt lat="48.8236" lon="2.36528">
        <ele>56.3466</ele>
        <time>2026-07-19T07:37:34.325Z</time>
      </trkpt>
      <trkpt lat="48.82359" lon="2.36531">
        <ele>56.49572</ele>
        <time>2026-07-19T07:37:36.325Z</time>
      </trkpt>
      <trkpt lat="48.82357" lon="2.36536">
        <ele>56.80243</ele>
        <time>2026-07-19T07:37:39.326Z</time>
      </trkpt>
      <trkpt lat="48.82355" lon="2.36539">
        <ele>57.15652</ele>
        <time>2026-07-19T07:37:42.325Z</time>
      </trkpt>
      <trkpt lat="48.82354" lon="2.36543">
        <ele>57.55033</ele>
        <time>2026-07-19T07:37:45.326Z</time>
      </trkpt>
      <trkpt lat="48.82352" lon="2.36547">
        <ele>57.89638</ele>
        <time>2026-07-19T07:37:48.326Z</time>
      </trkpt>
      <trkpt lat="48.8235" lon="2.3655">
        <ele>58.11975</ele>
        <time>2026-07-19T07:37:51.325Z</time>
      </trkpt>
      <trkpt lat="48.82349" lon="2.36553">
        <ele>58.28871</ele>
        <time>2026-07-19T07:37:54.326Z</time>
      </trkpt>
      <trkpt lat="48.82346" lon="2.36555">
        <ele>58.45808</ele>
        <time>2026-07-19T07:37:58.326Z</time>
      </trkpt>
      <trkpt lat="48.82343" lon="2.36556">
        <ele>58.54405</ele>
        <time>2026-07-19T07:38:02.326Z</time>
      </trkpt>
      <trkpt lat="48.82341" lon="2.36557">
        <ele>58.5972</ele>
        <time>2026-07-19T07:38:06.326Z</time>
      </trkpt>
      <trkpt lat="48.8234" lon="2.36552">
        <ele>58.68211</ele>
        <time>2026-07-19T07:38:14.327Z</time>
      </trkpt>
      <trkpt lat="48.82338" lon="2.36554">
        <ele>58.88887</ele>
        <time>2026-07-19T07:38:23.326Z</time>
      </trkpt>
      <trkpt lat="48.82339" lon="2.36557">
        <ele>58.98381</ele>
        <time>2026-07-19T07:38:29.327Z</time>
      </trkpt>
      <trkpt lat="48.82341" lon="2.36559">
        <ele>59.00753</ele>
        <time>2026-07-19T07:38:31.326Z</time>
      </trkpt>
      <trkpt lat="48.82339" lon="2.36556">
        <ele>59.11851</ele>
        <time>2026-07-19T07:38:40.326Z</time>
      </trkpt>
      <trkpt lat="48.82338" lon="2.36554">
        <ele>59.14271</ele>
        <time>2026-07-19T07:38:42.327Z</time>
      </trkpt>
      <trkpt lat="48.82334" lon="2.36553">
        <ele>59.16449</ele>
        <time>2026-07-19T07:38:44.327Z</time>
      </trkpt>
      <trkpt lat="48.82331" lon="2.3655">
        <ele>59.18956</ele>
        <time>2026-07-19T07:38:46.327Z</time>
      </trkpt>
      <trkpt lat="48.8233" lon="2.36547">
        <ele>59.21419</ele>
        <time>2026-07-19T07:38:48.328Z</time>
      </trkpt>
      <trkpt lat="48.82328" lon="2.36545">
        <ele>59.27763</ele>
        <time>2026-07-19T07:38:54.327Z</time>
      </trkpt>
      <trkpt lat="48.82327" lon="2.36542">
        <ele>59.28767</ele>
        <time>2026-07-19T07:38:58.327Z</time>
      </trkpt>
      <trkpt lat="48.82324" lon="2.3654">
        <ele>59.28094</ele>
        <time>2026-07-19T07:39:01.327Z</time>
      </trkpt>
      <trkpt lat="48.82321" lon="2.36538">
        <ele>59.27188</ele>
        <time>2026-07-19T07:39:03.327Z</time>
      </trkpt>
      <trkpt lat="48.82319" lon="2.36534">
        <ele>59.25195</ele>
        <time>2026-07-19T07:39:06.327Z</time>
      </trkpt>
      <trkpt lat="48.82316" lon="2.36532">
        <ele>59.23146</ele>
        <time>2026-07-19T07:39:09.490Z</time>
      </trkpt>
      <trkpt lat="48.82314" lon="2.36529">
        <ele>59.22238</ele>
        <time>2026-07-19T07:39:11.327Z</time>
      </trkpt>
      <trkpt lat="48.82312" lon="2.36526">
        <ele>59.21146</ele>
        <time>2026-07-19T07:39:13.328Z</time>
      </trkpt>
      <trkpt lat="48.8231" lon="2.36523">
        <ele>59.18792</ele>
        <time>2026-07-19T07:39:16.328Z</time>
      </trkpt>
      <trkpt lat="48.82308" lon="2.3652">
        <ele>59.16933</ele>
        <time>2026-07-19T07:39:18.327Z</time>
      </trkpt>
      <trkpt lat="48.82306" lon="2.36517">
        <ele>59.13775</ele>
        <time>2026-07-19T07:39:21.327Z</time>
      </trkpt>
      <trkpt lat="48.82304" lon="2.36514">
        <ele>59.10172</ele>
        <time>2026-07-19T07:39:24.327Z</time>
      </trkpt>
      <trkpt lat="48.82302" lon="2.36511">
        <ele>59.08107</ele>
        <time>2026-07-19T07:39:26.328Z</time>
      </trkpt>
      <trkpt lat="48.823" lon="2.36507">
        <ele>59.04355</ele>
        <time>2026-07-19T07:39:29.328Z</time>
      </trkpt>
      <trkpt lat="48.82299" lon="2.36505">
        <ele>59.0135</ele>
        <time>2026-07-19T07:39:31.328Z</time>
      </trkpt>
      <trkpt lat="48.82297" lon="2.36502">
        <ele>58.97203</ele>
        <time>2026-07-19T07:39:33.328Z</time>
      </trkpt>
      <trkpt lat="48.82295" lon="2.36498">
        <ele>58.90288</ele>
        <time>2026-07-19T07:39:36.328Z</time>
      </trkpt>
      <trkpt lat="48.82294" lon="2.36496">
        <ele>58.84272</ele>
        <time>2026-07-19T07:39:38.328Z</time>
      </trkpt>
      <trkpt lat="48.82293" lon="2.36492">
        <ele>58.76764</ele>
        <time>2026-07-19T07:39:40.328Z</time>
      </trkpt>
      <trkpt lat="48.82291" lon="2.3649">
        <ele>58.66923</ele>
        <time>2026-07-19T07:39:42.328Z</time>
      </trkpt>
      <trkpt lat="48.82289" lon="2.36486">
        <ele>58.51825</ele>
        <time>2026-07-19T07:39:45.328Z</time>
      </trkpt>
      <trkpt lat="48.82288" lon="2.36483">
        <ele>58.40717</ele>
        <time>2026-07-19T07:39:47.328Z</time>
      </trkpt>
      <trkpt lat="48.82287" lon="2.36479">
        <ele>58.30144</ele>
        <time>2026-07-19T07:39:49.329Z</time>
      </trkpt>
      <trkpt lat="48.82286" lon="2.36476">
        <ele>58.19112</ele>
        <time>2026-07-19T07:39:51.328Z</time>
      </trkpt>
      <trkpt lat="48.82284" lon="2.36473">
        <ele>58.07381</ele>
        <time>2026-07-19T07:39:53.328Z</time>
      </trkpt>
      <trkpt lat="48.82283" lon="2.3647">
        <ele>57.96871</ele>
        <time>2026-07-19T07:39:55.328Z</time>
      </trkpt>
      <trkpt lat="48.82283" lon="2.36466">
        <ele>57.83585</ele>
        <time>2026-07-19T07:39:58.329Z</time>
      </trkpt>
      <trkpt lat="48.82285" lon="2.36464">
        <ele>57.71462</ele>
        <time>2026-07-19T07:40:01.329Z</time>
      </trkpt>
      <trkpt lat="48.82288" lon="2.36462">
        <ele>57.60645</ele>
        <time>2026-07-19T07:40:04.329Z</time>
      </trkpt>
      <trkpt lat="48.82289" lon="2.36459">
        <ele>57.44529</ele>
        <time>2026-07-19T07:40:07.329Z</time>
      </trkpt>
      <trkpt lat="48.82291" lon="2.36456">
        <ele>57.35299</ele>
        <time>2026-07-19T07:40:09.329Z</time>
      </trkpt>
      <trkpt lat="48.82293" lon="2.36454">
        <ele>57.28171</ele>
        <time>2026-07-19T07:40:11.328Z</time>
      </trkpt>
      <trkpt lat="48.82296" lon="2.36451">
        <ele>57.20837</ele>
        <time>2026-07-19T07:40:14.329Z</time>
      </trkpt>
      <trkpt lat="48.82299" lon="2.36449">
        <ele>57.14006</ele>
        <time>2026-07-19T07:40:17.329Z</time>
      </trkpt>
      <trkpt lat="48.82301" lon="2.36447">
        <ele>57.15326</ele>
        <time>2026-07-19T07:40:20.329Z</time>
      </trkpt>
      <trkpt lat="48.82303" lon="2.36445">
        <ele>57.18723</ele>
        <time>2026-07-19T07:40:23.329Z</time>
      </trkpt>
      <trkpt lat="48.82306" lon="2.36444">
        <ele>57.19992</ele>
        <time>2026-07-19T07:40:26.329Z</time>
      </trkpt>
      <trkpt lat="48.82307" lon="2.36442">
        <ele>57.18945</ele>
        <time>2026-07-19T07:40:29.329Z</time>
      </trkpt>
      <trkpt lat="48.82309" lon="2.36439">
        <ele>57.16307</ele>
        <time>2026-07-19T07:40:32.329Z</time>
      </trkpt>
      <trkpt lat="48.8231" lon="2.36436">
        <ele>57.1474</ele>
        <time>2026-07-19T07:40:34.329Z</time>
      </trkpt>
      <trkpt lat="48.82311" lon="2.36432">
        <ele>57.11962</ele>
        <time>2026-07-19T07:40:37.329Z</time>
      </trkpt>
      <trkpt lat="48.82313" lon="2.36428">
        <ele>57.09309</ele>
        <time>2026-07-19T07:40:40.329Z</time>
      </trkpt>
      <trkpt lat="48.82315" lon="2.36425">
        <ele>57.08109</ele>
        <time>2026-07-19T07:40:42.329Z</time>
      </trkpt>
      <trkpt lat="48.82318" lon="2.36424">
        <ele>57.06173</ele>
        <time>2026-07-19T07:40:46.329Z</time>
      </trkpt>
      <trkpt lat="48.82321" lon="2.36425">
        <ele>57.02621</ele>
        <time>2026-07-19T07:40:51.329Z</time>
      </trkpt>
      <trkpt lat="48.82323" lon="2.36424">
        <ele>56.97676</ele>
        <time>2026-07-19T07:40:54.330Z</time>
      </trkpt>
      <trkpt lat="48.82325" lon="2.36423">
        <ele>56.91763</ele>
        <time>2026-07-19T07:40:57.329Z</time>
      </trkpt>
      <trkpt lat="48.82328" lon="2.36422">
        <ele>56.85027</ele>
        <time>2026-07-19T07:41:00.330Z</time>
      </trkpt>
      <trkpt lat="48.8233" lon="2.36421">
        <ele>56.79707</ele>
        <time>2026-07-19T07:41:02.330Z</time>
      </trkpt>
      <trkpt lat="48.82333" lon="2.3642">
        <ele>56.71522</ele>
        <time>2026-07-19T07:41:05.329Z</time>
      </trkpt>
      <trkpt lat="48.82335" lon="2.36419">
        <ele>56.66181</ele>
        <time>2026-07-19T07:41:07.330Z</time>
      </trkpt>
      <trkpt lat="48.82338" lon="2.36419">
        <ele>56.55314</ele>
        <time>2026-07-19T07:41:10.330Z</time>
      </trkpt>
      <trkpt lat="48.8234" lon="2.36418">
        <ele>56.45362</ele>
        <time>2026-07-19T07:41:12.330Z</time>
      </trkpt>
      <trkpt lat="48.82343" lon="2.36417">
        <ele>56.30718</ele>
        <time>2026-07-19T07:41:15.329Z</time>
      </trkpt>
      <trkpt lat="48.82345" lon="2.36415">
        <ele>56.22796</ele>
        <time>2026-07-19T07:41:17.330Z</time>
      </trkpt>
      <trkpt lat="48.82348" lon="2.36413">
        <ele>56.10814</ele>
        <time>2026-07-19T07:41:21.330Z</time>
      </trkpt>
      <trkpt lat="48.82351" lon="2.36413">
        <ele>56.04652</ele>
        <time>2026-07-19T07:41:24.330Z</time>
      </trkpt>
      <trkpt lat="48.82353" lon="2.36415">
        <ele>56.00861</ele>
        <time>2026-07-19T07:41:27.330Z</time>
      </trkpt>
      <trkpt lat="48.82353" lon="2.3642">
        <ele>55.95292</ele>
        <time>2026-07-19T07:41:30.330Z</time>
      </trkpt>
      <trkpt lat="48.82354" lon="2.36425">
        <ele>55.88405</ele>
        <time>2026-07-19T07:41:33.811Z</time>
      </trkpt>
      <trkpt lat="48.82355" lon="2.36429">
        <ele>55.83098</ele>
        <time>2026-07-19T07:41:36.330Z</time>
      </trkpt>
      <trkpt lat="48.82357" lon="2.36433">
        <ele>55.79301</ele>
        <time>2026-07-19T07:41:39.330Z</time>
      </trkpt>
      <trkpt lat="48.82358" lon="2.36436">
        <ele>55.77243</ele>
        <time>2026-07-19T07:41:41.331Z</time>
      </trkpt>
      <trkpt lat="48.8236" lon="2.3644">
        <ele>55.73884</ele>
        <time>2026-07-19T07:41:44.330Z</time>
      </trkpt>
      <trkpt lat="48.8236" lon="2.36443">
        <ele>55.72038</ele>
        <time>2026-07-19T07:41:47.331Z</time>
      </trkpt>
      <trkpt lat="48.82361" lon="2.36448">
        <ele>55.71818</ele>
        <time>2026-07-19T07:41:50.331Z</time>
      </trkpt>
      <trkpt lat="48.82363" lon="2.36452">
        <ele>55.72373</ele>
        <time>2026-07-19T07:41:54.331Z</time>
      </trkpt>
      <trkpt lat="48.82364" lon="2.36456">
        <ele>55.72442</ele>
        <time>2026-07-19T07:41:56.330Z</time>
      </trkpt>
      <trkpt lat="48.82366" lon="2.3646">
        <ele>55.72559</ele>
        <time>2026-07-19T07:41:59.330Z</time>
      </trkpt>
      <trkpt lat="48.82367" lon="2.36465">
        <ele>55.72764</ele>
        <time>2026-07-19T07:42:02.330Z</time>
      </trkpt>
      <trkpt lat="48.82366" lon="2.36468">
        <ele>55.72573</ele>
        <time>2026-07-19T07:42:04.331Z</time>
      </trkpt>
      <trkpt lat="48.82366" lon="2.36472">
        <ele>55.72563</ele>
        <time>2026-07-19T07:42:06.331Z</time>
      </trkpt>
      <trkpt lat="48.82365" lon="2.36477">
        <ele>55.72457</ele>
        <time>2026-07-19T07:42:10.331Z</time>
      </trkpt>
      <trkpt lat="48.82364" lon="2.3648">
        <ele>55.71744</ele>
        <time>2026-07-19T07:42:12.330Z</time>
      </trkpt>
      <trkpt lat="48.82363" lon="2.36484">
        <ele>55.70749</ele>
        <time>2026-07-19T07:42:14.331Z</time>
      </trkpt>
      <trkpt lat="48.82362" lon="2.36487">
        <ele>55.69923</ele>
        <time>2026-07-19T07:42:16.331Z</time>
      </trkpt>
      <trkpt lat="48.8236" lon="2.3649">
        <ele>55.68872</ele>
        <time>2026-07-19T07:42:19.331Z</time>
      </trkpt>
      <trkpt lat="48.82359" lon="2.36494">
        <ele>55.68172</ele>
        <time>2026-07-19T07:42:22.331Z</time>
      </trkpt>
      <trkpt lat="48.82357" lon="2.36498">
        <ele>55.67539</ele>
        <time>2026-07-19T07:42:25.331Z</time>
      </trkpt>
      <trkpt lat="48.82355" lon="2.36502">
        <ele>55.66227</ele>
        <time>2026-07-19T07:42:28.331Z</time>
      </trkpt>
      <trkpt lat="48.82353" lon="2.36506">
        <ele>55.65494</ele>
        <time>2026-07-19T07:42:31.331Z</time>
      </trkpt>
      <trkpt lat="48.82352" lon="2.36511">
        <ele>55.65353</ele>
        <time>2026-07-19T07:42:34.331Z</time>
      </trkpt>
      <trkpt lat="48.82351" lon="2.36514">
        <ele>55.65436</ele>
        <time>2026-07-19T07:42:36.331Z</time>
      </trkpt>
      <trkpt lat="48.82349" lon="2.36518">
        <ele>55.65428</ele>
        <time>2026-07-19T07:42:38.331Z</time>
      </trkpt>
      <trkpt lat="48.82348" lon="2.36521">
        <ele>55.65347</ele>
        <time>2026-07-19T07:42:40.331Z</time>
      </trkpt>
      <trkpt lat="48.82346" lon="2.36524">
        <ele>55.65253</ele>
        <time>2026-07-19T07:42:43.331Z</time>
      </trkpt>
      <trkpt lat="48.82344" lon="2.36528">
        <ele>55.65212</ele>
        <time>2026-07-19T07:42:46.331Z</time>
      </trkpt>
      <trkpt lat="48.82342" lon="2.36532">
        <ele>55.65338</ele>
        <time>2026-07-19T07:42:49.332Z</time>
      </trkpt>
      <trkpt lat="48.82341" lon="2.36535">
        <ele>55.65472</ele>
        <time>2026-07-19T07:42:51.332Z</time>
      </trkpt>
      <trkpt lat="48.8234" lon="2.36539">
        <ele>55.65658</ele>
        <time>2026-07-19T07:42:53.331Z</time>
      </trkpt>
      <trkpt lat="48.82339" lon="2.36542">
        <ele>55.66011</ele>
        <time>2026-07-19T07:42:55.332Z</time>
      </trkpt>
      <trkpt lat="48.82338" lon="2.36546">
        <ele>55.66827</ele>
        <time>2026-07-19T07:42:58.331Z</time>
      </trkpt>
      <trkpt lat="48.82336" lon="2.3655">
        <ele>55.68381</ele>
        <time>2026-07-19T07:43:01.332Z</time>
      </trkpt>
      <trkpt lat="48.82333" lon="2.36553">
        <ele>55.70537</ele>
        <time>2026-07-19T07:43:04.332Z</time>
      </trkpt>
      <trkpt lat="48.82329" lon="2.36554">
        <ele>55.71907</ele>
        <time>2026-07-19T07:43:06.331Z</time>
      </trkpt>
      <trkpt lat="48.82326" lon="2.36553">
        <ele>55.73636</ele>
        <time>2026-07-19T07:43:09.331Z</time>
      </trkpt>
      <trkpt lat="48.82325" lon="2.36549">
        <ele>55.75057</ele>
        <time>2026-07-19T07:43:12.332Z</time>
      </trkpt>
      <trkpt lat="48.82323" lon="2.36545">
        <ele>55.76486</ele>
        <time>2026-07-19T07:43:15.332Z</time>
      </trkpt>
      <trkpt lat="48.82321" lon="2.36542">
        <ele>55.77432</ele>
        <time>2026-07-19T07:43:17.332Z</time>
      </trkpt>
      <trkpt lat="48.8232" lon="2.3654">
        <ele>55.78732</ele>
        <time>2026-07-19T07:43:19.332Z</time>
      </trkpt>
      <trkpt lat="48.82318" lon="2.36538">
        <ele>55.8003</ele>
        <time>2026-07-19T07:43:21.333Z</time>
      </trkpt>
      <trkpt lat="48.82316" lon="2.36535">
        <ele>55.81229</ele>
        <time>2026-07-19T07:43:23.332Z</time>
      </trkpt>
      <trkpt lat="48.82314" lon="2.36531">
        <ele>55.82614</ele>
        <time>2026-07-19T07:43:26.333Z</time>
      </trkpt>
      <trkpt lat="48.82312" lon="2.36529">
        <ele>55.82725</ele>
        <time>2026-07-19T07:43:28.333Z</time>
      </trkpt>
      <trkpt lat="48.82311" lon="2.36526">
        <ele>55.82882</ele>
        <time>2026-07-19T07:43:30.332Z</time>
      </trkpt>
      <trkpt lat="48.8231" lon="2.36523">
        <ele>55.82821</ele>
        <time>2026-07-19T07:43:32.333Z</time>
      </trkpt>
      <trkpt lat="48.82308" lon="2.36519">
        <ele>55.82685</ele>
        <time>2026-07-19T07:43:34.333Z</time>
      </trkpt>
      <trkpt lat="48.82307" lon="2.36516">
        <ele>55.82527</ele>
        <time>2026-07-19T07:43:36.332Z</time>
      </trkpt>
      <trkpt lat="48.82305" lon="2.36513">
        <ele>55.82399</ele>
        <time>2026-07-19T07:43:38.333Z</time>
      </trkpt>
      <trkpt lat="48.82304" lon="2.36509">
        <ele>55.81716</ele>
        <time>2026-07-19T07:43:41.333Z</time>
      </trkpt>
      <trkpt lat="48.82302" lon="2.36507">
        <ele>55.81247</ele>
        <time>2026-07-19T07:43:43.332Z</time>
      </trkpt>
      <trkpt lat="48.823" lon="2.36504">
        <ele>55.8082</ele>
        <time>2026-07-19T07:43:45.333Z</time>
      </trkpt>
      <trkpt lat="48.82298" lon="2.36501">
        <ele>55.80404</ele>
        <time>2026-07-19T07:43:47.333Z</time>
      </trkpt>
      <trkpt lat="48.82297" lon="2.36497">
        <ele>55.7975</ele>
        <time>2026-07-19T07:43:50.333Z</time>
      </trkpt>
      <trkpt lat="48.82296" lon="2.36494">
        <ele>55.79547</ele>
        <time>2026-07-19T07:43:52.333Z</time>
      </trkpt>
      <trkpt lat="48.82294" lon="2.3649">
        <ele>55.7941</ele>
        <time>2026-07-19T07:43:55.333Z</time>
      </trkpt>
      <trkpt lat="48.82293" lon="2.36487">
        <ele>55.79402</ele>
        <time>2026-07-19T07:43:57.333Z</time>
      </trkpt>
      <trkpt lat="48.82292" lon="2.36483">
        <ele>55.79426</ele>
        <time>2026-07-19T07:43:59.333Z</time>
      </trkpt>
      <trkpt lat="48.8229" lon="2.3648">
        <ele>55.79514</ele>
        <time>2026-07-19T07:44:01.333Z</time>
      </trkpt>
      <trkpt lat="48.82287" lon="2.36479">
        <ele>55.79812</ele>
        <time>2026-07-19T07:44:05.333Z</time>
      </trkpt>
      <trkpt lat="48.82284" lon="2.3648">
        <ele>55.80019</ele>
        <time>2026-07-19T07:44:08.334Z</time>
      </trkpt>
      <trkpt lat="48.82281" lon="2.3648">
        <ele>55.79927</ele>
        <time>2026-07-19T07:44:11.333Z</time>
      </trkpt>
      <trkpt lat="48.82279" lon="2.36481">
        <ele>55.79808</ele>
        <time>2026-07-19T07:44:13.333Z</time>
      </trkpt>
      <trkpt lat="48.82277" lon="2.36481">
        <ele>55.79649</ele>
        <time>2026-07-19T07:44:15.333Z</time>
      </trkpt>
      <trkpt lat="48.82274" lon="2.36482">
        <ele>55.79435</ele>
        <time>2026-07-19T07:44:18.334Z</time>
      </trkpt>
      <trkpt lat="48.82271" lon="2.36482">
        <ele>55.79058</ele>
        <time>2026-07-19T07:44:21.333Z</time>
      </trkpt>
      <trkpt lat="48.82268" lon="2.36482">
        <ele>55.7867</ele>
        <time>2026-07-19T07:44:24.334Z</time>
      </trkpt>
      <trkpt lat="48.82265" lon="2.36483">
        <ele>55.78109</ele>
        <time>2026-07-19T07:44:28.334Z</time>
      </trkpt>
      <trkpt lat="48.82262" lon="2.36484">
        <ele>55.77758</ele>
        <time>2026-07-19T07:44:31.333Z</time>
      </trkpt>
      <trkpt lat="48.82259" lon="2.36485">
        <ele>55.77156</ele>
        <time>2026-07-19T07:44:34.333Z</time>
      </trkpt>
      <trkpt lat="48.82255" lon="2.36486">
        <ele>55.76804</ele>
        <time>2026-07-19T07:44:36.335Z</time>
      </trkpt>
      <trkpt lat="48.82253" lon="2.36487">
        <ele>55.76354</ele>
        <time>2026-07-19T07:44:38.333Z</time>
      </trkpt>
      <trkpt lat="48.82251" lon="2.36488">
        <ele>55.7562</ele>
        <time>2026-07-19T07:44:41.333Z</time>
      </trkpt>
      <trkpt lat="48.82247" lon="2.36487">
        <ele>55.74777</ele>
        <time>2026-07-19T07:44:45.335Z</time>
      </trkpt>
      <trkpt lat="48.82244" lon="2.36487">
        <ele>55.74216</ele>
        <time>2026-07-19T07:44:48.334Z</time>
      </trkpt>
      <trkpt lat="48.82242" lon="2.36488">
        <ele>55.73932</ele>
        <time>2026-07-19T07:44:52.334Z</time>
      </trkpt>
      <trkpt lat="48.8224" lon="2.36491">
        <ele>55.73955</ele>
        <time>2026-07-19T07:44:56.334Z</time>
      </trkpt>
      <trkpt lat="48.82237" lon="2.36495">
        <ele>55.74106</ele>
        <time>2026-07-19T07:44:59.334Z</time>
      </trkpt>
      <trkpt lat="48.82234" lon="2.36498">
        <ele>55.74213</ele>
        <time>2026-07-19T07:45:01.334Z</time>
      </trkpt>
      <trkpt lat="48.82231" lon="2.365">
        <ele>55.74293</ele>
        <time>2026-07-19T07:45:03.334Z</time>
      </trkpt>
      <trkpt lat="48.82228" lon="2.36502">
        <ele>55.74323</ele>
        <time>2026-07-19T07:45:06.334Z</time>
      </trkpt>
      <trkpt lat="48.82226" lon="2.36503">
        <ele>55.76383</ele>
        <time>2026-07-19T07:45:11.576Z</time>
      </trkpt>
      <trkpt lat="48.82224" lon="2.36505">
        <ele>55.80817</ele>
        <time>2026-07-19T07:45:12.334Z</time>
      </trkpt>
      <trkpt lat="48.82222" lon="2.36504">
        <ele>55.91727</ele>
        <time>2026-07-19T07:45:19.357Z</time>
      </trkpt>
      <trkpt lat="48.8222" lon="2.36501">
        <ele>55.99163</ele>
        <time>2026-07-19T07:45:20.334Z</time>
      </trkpt>
      <trkpt lat="48.82218" lon="2.36497">
        <ele>56.0536</ele>
        <time>2026-07-19T07:45:24.334Z</time>
      </trkpt>
      <trkpt lat="48.82217" lon="2.36493">
        <ele>56.12476</ele>
        <time>2026-07-19T07:45:27.334Z</time>
      </trkpt>
      <trkpt lat="48.82216" lon="2.36489">
        <ele>56.21383</ele>
        <time>2026-07-19T07:45:30.335Z</time>
      </trkpt>
      <trkpt lat="48.82214" lon="2.36485">
        <ele>56.31335</ele>
        <time>2026-07-19T07:45:33.335Z</time>
      </trkpt>
      <trkpt lat="48.82214" lon="2.3648">
        <ele>56.4138</ele>
        <time>2026-07-19T07:45:36.337Z</time>
      </trkpt>
      <trkpt lat="48.82212" lon="2.36476">
        <ele>56.51678</ele>
        <time>2026-07-19T07:45:40.335Z</time>
      </trkpt>
      <trkpt lat="48.82212" lon="2.36472">
        <ele>56.56726</ele>
        <time>2026-07-19T07:45:43.335Z</time>
      </trkpt>
      <trkpt lat="48.82212" lon="2.36469">
        <ele>56.66407</ele>
        <time>2026-07-19T07:45:50.335Z</time>
      </trkpt>
      <trkpt lat="48.82211" lon="2.36464">
        <ele>56.72023</ele>
        <time>2026-07-19T07:45:58.336Z</time>
      </trkpt>
      <trkpt lat="48.82211" lon="2.3646">
        <ele>56.72795</ele>
        <time>2026-07-19T07:46:01.335Z</time>
      </trkpt>
      <trkpt lat="48.82211" lon="2.36455">
        <ele>56.75102</ele>
        <time>2026-07-19T07:46:04.336Z</time>
      </trkpt>
      <trkpt lat="48.82211" lon="2.36451">
        <ele>56.78007</ele>
        <time>2026-07-19T07:46:07.336Z</time>
      </trkpt>
      <trkpt lat="48.8221" lon="2.36447">
        <ele>56.80123</ele>
        <time>2026-07-19T07:46:09.336Z</time>
      </trkpt>
      <trkpt lat="48.82209" lon="2.36443">
        <ele>56.81728</ele>
        <time>2026-07-19T07:46:12.335Z</time>
      </trkpt>
      <trkpt lat="48.82209" lon="2.3644">
        <ele>56.82206</ele>
        <time>2026-07-19T07:46:14.336Z</time>
      </trkpt>
      <trkpt lat="48.82209" lon="2.36435">
        <ele>56.82812</ele>
        <time>2026-07-19T07:46:17.336Z</time>
      </trkpt>
      <trkpt lat="48.82207" lon="2.36432">
        <ele>56.82556</ele>
        <time>2026-07-19T07:46:19.336Z</time>
      </trkpt>
      <trkpt lat="48.82206" lon="2.36428">
        <ele>56.81952</ele>
        <time>2026-07-19T07:46:22.335Z</time>
      </trkpt>
      <trkpt lat="48.82206" lon="2.36423">
        <ele>56.80939</ele>
        <time>2026-07-19T07:46:25.336Z</time>
      </trkpt>
      <trkpt lat="48.82206" lon="2.36418">
        <ele>56.79844</ele>
        <time>2026-07-19T07:46:28.336Z</time>
      </trkpt>
      <trkpt lat="48.82205" lon="2.36413">
        <ele>56.78763</ele>
        <time>2026-07-19T07:46:31.336Z</time>
      </trkpt>
      <trkpt lat="48.82204" lon="2.36408">
        <ele>56.78606</ele>
        <time>2026-07-19T07:46:33.336Z</time>
      </trkpt>
      <trkpt lat="48.82203" lon="2.36404">
        <ele>56.79155</ele>
        <time>2026-07-19T07:46:35.336Z</time>
      </trkpt>
      <trkpt lat="48.82202" lon="2.364">
        <ele>56.80031</ele>
        <time>2026-07-19T07:46:37.336Z</time>
      </trkpt>
      <trkpt lat="48.82203" lon="2.36397">
        <ele>56.81309</ele>
        <time>2026-07-19T07:46:40.336Z</time>
      </trkpt>
      <trkpt lat="48.82204" lon="2.36393">
        <ele>56.82178</ele>
        <time>2026-07-19T07:46:43.336Z</time>
      </trkpt>
      <trkpt lat="48.82205" lon="2.36388">
        <ele>56.85213</ele>
        <time>2026-07-19T07:46:47.336Z</time>
      </trkpt>
      <trkpt lat="48.82206" lon="2.36384">
        <ele>56.87945</ele>
        <time>2026-07-19T07:46:50.337Z</time>
      </trkpt>
      <trkpt lat="48.82204" lon="2.36381">
        <ele>56.92191</ele>
        <time>2026-07-19T07:46:53.454Z</time>
      </trkpt>
      <trkpt lat="48.82203" lon="2.36377">
        <ele>56.96053</ele>
        <time>2026-07-19T07:46:55.337Z</time>
      </trkpt>
      <trkpt lat="48.82203" lon="2.36372">
        <ele>57.05013</ele>
        <time>2026-07-19T07:46:58.337Z</time>
      </trkpt>
      <trkpt lat="48.82202" lon="2.36369">
        <ele>57.18299</ele>
        <time>2026-07-19T07:47:01.336Z</time>
      </trkpt>
      <trkpt lat="48.82201" lon="2.36364">
        <ele>57.37979</ele>
        <time>2026-07-19T07:47:04.337Z</time>
      </trkpt>
      <trkpt lat="48.822" lon="2.3636">
        <ele>57.52327</ele>
        <time>2026-07-19T07:47:06.337Z</time>
      </trkpt>
      <trkpt lat="48.82199" lon="2.36356">
        <ele>57.74554</ele>
        <time>2026-07-19T07:47:09.337Z</time>
      </trkpt>
      <trkpt lat="48.82199" lon="2.36351">
        <ele>57.89484</ele>
        <time>2026-07-19T07:47:11.337Z</time>
      </trkpt>
      <trkpt lat="48.82199" lon="2.36347">
        <ele>58.05062</ele>
        <time>2026-07-19T07:47:13.337Z</time>
      </trkpt>
      <trkpt lat="48.82198" lon="2.36343">
        <ele>58.20549</ele>
        <time>2026-07-19T07:47:16.337Z</time>
      </trkpt>
      <trkpt lat="48.82197" lon="2.36339">
        <ele>58.38966</ele>
        <time>2026-07-19T07:47:19.337Z</time>
      </trkpt>
      <trkpt lat="48.82197" lon="2.36336">
        <ele>58.53282</ele>
        <time>2026-07-19T07:47:24.337Z</time>
      </trkpt>
      <trkpt lat="48.82198" lon="2.36333">
        <ele>58.56451</ele>
        <time>2026-07-19T07:48:17.338Z</time>
      </trkpt>
      <trkpt lat="48.82199" lon="2.36329">
        <ele>58.51275</ele>
        <time>2026-07-19T07:48:20.338Z</time>
      </trkpt>
      <trkpt lat="48.82201" lon="2.36326">
        <ele>56.61468</ele>
        <time>2026-07-19T07:49:05.340Z</time>
      </trkpt>
      <trkpt lat="48.822" lon="2.36323">
        <ele>56.58104</ele>
        <time>2026-07-19T07:49:07.339Z</time>
      </trkpt>
      <trkpt lat="48.822" lon="2.36318">
        <ele>56.54738</ele>
        <time>2026-07-19T07:49:09.340Z</time>
      </trkpt>
      <trkpt lat="48.822" lon="2.36315">
        <ele>56.52572</ele>
        <time>2026-07-19T07:49:11.339Z</time>
      </trkpt>
      <trkpt lat="48.82201" lon="2.36311">
        <ele>56.50352</ele>
        <time>2026-07-19T07:49:13.340Z</time>
      </trkpt>
      <trkpt lat="48.82201" lon="2.36308">
        <ele>56.47508</ele>
        <time>2026-07-19T07:49:16.340Z</time>
      </trkpt>
      <trkpt lat="48.82204" lon="2.36305">
        <ele>56.42722</ele>
        <time>2026-07-19T07:49:19.340Z</time>
      </trkpt>
      <trkpt lat="48.82206" lon="2.36303">
        <ele>56.33677</ele>
        <time>2026-07-19T07:49:22.340Z</time>
      </trkpt>
      <trkpt lat="48.82208" lon="2.36301">
        <ele>56.20789</ele>
        <time>2026-07-19T07:49:25.340Z</time>
      </trkpt>
      <trkpt lat="48.8221" lon="2.36297">
        <ele>56.03542</ele>
        <time>2026-07-19T07:49:28.340Z</time>
      </trkpt>
      <trkpt lat="48.82212" lon="2.36294">
        <ele>55.88212</ele>
        <time>2026-07-19T07:49:30.341Z</time>
      </trkpt>
      <trkpt lat="48.82215" lon="2.36293">
        <ele>55.53396</ele>
        <time>2026-07-19T07:49:34.340Z</time>
      </trkpt>
      <trkpt lat="48.82217" lon="2.3629">
        <ele>55.29462</ele>
        <time>2026-07-19T07:49:37.340Z</time>
      </trkpt>
      <trkpt lat="48.8222" lon="2.36288">
        <ele>55.1283</ele>
        <time>2026-07-19T07:49:39.339Z</time>
      </trkpt>
      <trkpt lat="48.82223" lon="2.36287">
        <ele>54.96849</ele>
        <time>2026-07-19T07:49:41.340Z</time>
      </trkpt>
      <trkpt lat="48.82226" lon="2.36284">
        <ele>54.73278</ele>
        <time>2026-07-19T07:49:44.340Z</time>
      </trkpt>
      <trkpt lat="48.82229" lon="2.36285">
        <ele>54.50724</ele>
        <time>2026-07-19T07:49:48.341Z</time>
      </trkpt>
      <trkpt lat="48.82231" lon="2.36283">
        <ele>54.34487</ele>
        <time>2026-07-19T07:49:51.341Z</time>
      </trkpt>
      <trkpt lat="48.82234" lon="2.36283">
        <ele>54.25915</ele>
        <time>2026-07-19T07:49:53.341Z</time>
      </trkpt>
      <trkpt lat="48.82237" lon="2.36282">
        <ele>54.17087</ele>
        <time>2026-07-19T07:49:55.341Z</time>
      </trkpt>
      <trkpt lat="48.8224" lon="2.36283">
        <ele>54.09548</ele>
        <time>2026-07-19T07:49:57.340Z</time>
      </trkpt>
      <trkpt lat="48.82243" lon="2.36282">
        <ele>54.00767</ele>
        <time>2026-07-19T07:50:00.341Z</time>
      </trkpt>
      <trkpt lat="48.82245" lon="2.3628">
        <ele>53.94446</ele>
        <time>2026-07-19T07:50:03.340Z</time>
      </trkpt>
      <trkpt lat="48.82247" lon="2.36276">
        <ele>53.88977</ele>
        <time>2026-07-19T07:50:06.340Z</time>
      </trkpt>
      <trkpt lat="48.82249" lon="2.36274">
        <ele>53.83289</ele>
        <time>2026-07-19T07:50:09.342Z</time>
      </trkpt>
      <trkpt lat="48.82251" lon="2.36271">
        <ele>53.75091</ele>
        <time>2026-07-19T07:50:12.341Z</time>
      </trkpt>
      <trkpt lat="48.82252" lon="2.36268">
        <ele>53.67186</ele>
        <time>2026-07-19T07:50:15.341Z</time>
      </trkpt>
      <trkpt lat="48.82254" lon="2.36263">
        <ele>53.59446</ele>
        <time>2026-07-19T07:50:18.341Z</time>
      </trkpt>
      <trkpt lat="48.82253" lon="2.36259">
        <ele>53.53123</ele>
        <time>2026-07-19T07:50:21.341Z</time>
      </trkpt>
      <trkpt lat="48.82252" lon="2.36255">
        <ele>53.4772</ele>
        <time>2026-07-19T07:50:24.342Z</time>
      </trkpt>
      <trkpt lat="48.82251" lon="2.36251">
        <ele>53.43447</ele>
        <time>2026-07-19T07:50:27.341Z</time>
      </trkpt>
      <trkpt lat="48.8225" lon="2.36246">
        <ele>53.40259</ele>
        <time>2026-07-19T07:50:30.342Z</time>
      </trkpt>
      <trkpt lat="48.82247" lon="2.36243">
        <ele>53.39094</ele>
        <time>2026-07-19T07:50:33.341Z</time>
      </trkpt>
      <trkpt lat="48.82247" lon="2.36238">
        <ele>53.37787</ele>
        <time>2026-07-19T07:50:36.341Z</time>
      </trkpt>
      <trkpt lat="48.82245" lon="2.36235">
        <ele>53.38113</ele>
        <time>2026-07-19T07:50:38.342Z</time>
      </trkpt>
      <trkpt lat="48.82244" lon="2.36231">
        <ele>53.38982</ele>
        <time>2026-07-19T07:50:40.341Z</time>
      </trkpt>
      <trkpt lat="48.82243" lon="2.36229">
        <ele>53.46405</ele>
        <time>2026-07-19T07:50:50.341Z</time>
      </trkpt>
      <trkpt lat="48.82241" lon="2.36225">
        <ele>53.51715</ele>
        <time>2026-07-19T07:50:54.342Z</time>
      </trkpt>
      <trkpt lat="48.82245" lon="2.36222">
        <ele>53.61527</ele>
        <time>2026-07-19T07:50:58.342Z</time>
      </trkpt>
      <trkpt lat="48.82248" lon="2.36221">
        <ele>53.72075</ele>
        <time>2026-07-19T07:51:01.342Z</time>
      </trkpt>
      <trkpt lat="48.82251" lon="2.36218">
        <ele>53.81503</ele>
        <time>2026-07-19T07:51:03.342Z</time>
      </trkpt>
      <trkpt lat="48.82253" lon="2.36217">
        <ele>54.41938</ele>
        <time>2026-07-19T07:51:12.341Z</time>
      </trkpt>
      <trkpt lat="48.82256" lon="2.36216">
        <ele>54.69577</ele>
        <time>2026-07-19T07:51:16.342Z</time>
      </trkpt>
      <trkpt lat="48.82254" lon="2.36215">
        <ele>54.83551</ele>
        <time>2026-07-19T07:51:20.342Z</time>
      </trkpt>
      <trkpt lat="48.82251" lon="2.36214">
        <ele>54.96792</ele>
        <time>2026-07-19T07:51:25.342Z</time>
      </trkpt>
      <trkpt lat="48.82249" lon="2.36217">
        <ele>55.03655</ele>
        <time>2026-07-19T07:51:29.342Z</time>
      </trkpt>
      <trkpt lat="48.82247" lon="2.36216">
        <ele>55.0797</ele>
        <time>2026-07-19T07:51:33.342Z</time>
      </trkpt>
      <trkpt lat="48.82246" lon="2.36213">
        <ele>55.0927</ele>
        <time>2026-07-19T07:51:35.342Z</time>
      </trkpt>
      <trkpt lat="48.82244" lon="2.36209">
        <ele>55.1121</ele>
        <time>2026-07-19T07:51:37.342Z</time>
      </trkpt>
      <trkpt lat="48.82243" lon="2.36206">
        <ele>55.1451</ele>
        <time>2026-07-19T07:51:40.343Z</time>
      </trkpt>
      <trkpt lat="48.82242" lon="2.36202">
        <ele>55.17216</ele>
        <time>2026-07-19T07:51:43.343Z</time>
      </trkpt>
      <trkpt lat="48.82241" lon="2.36198">
        <ele>55.18759</ele>
        <time>2026-07-19T07:51:45.343Z</time>
      </trkpt>
      <trkpt lat="48.8224" lon="2.36195">
        <ele>55.20715</ele>
        <time>2026-07-19T07:51:48.343Z</time>
      </trkpt>
      <trkpt lat="48.82238" lon="2.36191">
        <ele>55.23677</ele>
        <time>2026-07-19T07:51:52.342Z</time>
      </trkpt>
      <trkpt lat="48.82237" lon="2.36187">
        <ele>55.24756</ele>
        <time>2026-07-19T07:51:54.343Z</time>
      </trkpt>
      <trkpt lat="48.82235" lon="2.36184">
        <ele>55.25973</ele>
        <time>2026-07-19T07:51:56.343Z</time>
      </trkpt>
      <trkpt lat="48.82235" lon="2.3618">
        <ele>55.28057</ele>
        <time>2026-07-19T07:51:59.343Z</time>
      </trkpt>
      <trkpt lat="48.82233" lon="2.36176">
        <ele>55.30866</ele>
        <time>2026-07-19T07:52:03.344Z</time>
      </trkpt>
      <trkpt lat="48.82233" lon="2.36171">
        <ele>55.33193</ele>
        <time>2026-07-19T07:52:06.343Z</time>
      </trkpt>
      <trkpt lat="48.82233" lon="2.36168">
        <ele>55.3483</ele>
        <time>2026-07-19T07:52:08.344Z</time>
      </trkpt>
      <trkpt lat="48.82232" lon="2.36163">
        <ele>55.37139</ele>
        <time>2026-07-19T07:52:11.344Z</time>
      </trkpt>
      <trkpt lat="48.8223" lon="2.36159">
        <ele>55.38773</ele>
        <time>2026-07-19T07:52:13.343Z</time>
      </trkpt>
      <trkpt lat="48.8223" lon="2.36155">
        <ele>55.40466</ele>
        <time>2026-07-19T07:52:15.344Z</time>
      </trkpt>
      <trkpt lat="48.82229" lon="2.3615">
        <ele>55.42321</ele>
        <time>2026-07-19T07:52:17.344Z</time>
      </trkpt>
      <trkpt lat="48.82229" lon="2.36144">
        <ele>55.44034</ele>
        <time>2026-07-19T07:52:19.344Z</time>
      </trkpt>
      <trkpt lat="48.82228" lon="2.36139">
        <ele>55.46071</ele>
        <time>2026-07-19T07:52:21.344Z</time>
      </trkpt>
      <trkpt lat="48.82227" lon="2.36135">
        <ele>55.49462</ele>
        <time>2026-07-19T07:52:24.344Z</time>
      </trkpt>
      <trkpt lat="48.82226" lon="2.36132">
        <ele>55.52535</ele>
        <time>2026-07-19T07:52:27.344Z</time>
      </trkpt>
      <trkpt lat="48.82224" lon="2.36129">
        <ele>55.56377</ele>
        <time>2026-07-19T07:52:32.343Z</time>
      </trkpt>
      <trkpt lat="48.82222" lon="2.36126">
        <ele>55.57815</ele>
        <time>2026-07-19T07:52:36.343Z</time>
      </trkpt>
      <trkpt lat="48.82219" lon="2.36122">
        <ele>55.5867</ele>
        <time>2026-07-19T07:52:38.344Z</time>
      </trkpt>
      <trkpt lat="48.82217" lon="2.36119">
        <ele>55.59349</ele>
        <time>2026-07-19T07:52:40.343Z</time>
      </trkpt>
      <trkpt lat="48.82214" lon="2.36118">
        <ele>55.59604</ele>
        <time>2026-07-19T07:52:42.344Z</time>
      </trkpt>
      <trkpt lat="48.82211" lon="2.36114">
        <ele>55.60055</ele>
        <time>2026-07-19T07:52:45.344Z</time>
      </trkpt>
      <trkpt lat="48.82211" lon="2.36111">
        <ele>55.60287</ele>
        <time>2026-07-19T07:52:47.344Z</time>
      </trkpt>
      <trkpt lat="48.8221" lon="2.36108">
        <ele>55.60741</ele>
        <time>2026-07-19T07:52:50.344Z</time>
      </trkpt>
      <trkpt lat="48.82209" lon="2.36102">
        <ele>55.61081</ele>
        <time>2026-07-19T07:52:52.345Z</time>
      </trkpt>
      <trkpt lat="48.82209" lon="2.36098">
        <ele>55.61283</ele>
        <time>2026-07-19T07:52:54.344Z</time>
      </trkpt>
      <trkpt lat="48.82209" lon="2.36094">
        <ele>55.61516</ele>
        <time>2026-07-19T07:52:56.344Z</time>
      </trkpt>
      <trkpt lat="48.8221" lon="2.36089">
        <ele>55.61738</ele>
        <time>2026-07-19T07:52:59.344Z</time>
      </trkpt>
      <trkpt lat="48.8221" lon="2.36085">
        <ele>55.61891</ele>
        <time>2026-07-19T07:53:01.344Z</time>
      </trkpt>
      <trkpt lat="48.82209" lon="2.36082">
        <ele>55.62324</ele>
        <time>2026-07-19T07:53:04.345Z</time>
      </trkpt>
      <trkpt lat="48.8221" lon="2.36076">
        <ele>55.62715</ele>
        <time>2026-07-19T07:53:06.345Z</time>
      </trkpt>
      <trkpt lat="48.8221" lon="2.36072">
        <ele>55.63122</ele>
        <time>2026-07-19T07:53:07.345Z</time>
      </trkpt>
      <trkpt lat="48.82212" lon="2.36066">
        <ele>55.64303</ele>
        <time>2026-07-19T07:53:09.344Z</time>
      </trkpt>
      <trkpt lat="48.82213" lon="2.36062">
        <ele>55.66087</ele>
        <time>2026-07-19T07:53:11.562Z</time>
      </trkpt>
      <trkpt lat="48.82215" lon="2.3606">
        <ele>55.79871</ele>
        <time>2026-07-19T07:53:18.345Z</time>
      </trkpt>
      <trkpt lat="48.82217" lon="2.36058">
        <ele>55.96977</ele>
        <time>2026-07-19T07:53:23.345Z</time>
      </trkpt>
      <trkpt lat="48.8222" lon="2.36059">
        <ele>56.1684</ele>
        <time>2026-07-19T07:53:27.345Z</time>
      </trkpt>
      <trkpt lat="48.82223" lon="2.36059">
        <ele>56.51572</ele>
        <time>2026-07-19T07:53:33.345Z</time>
      </trkpt>
      <trkpt lat="48.82226" lon="2.36057">
        <ele>56.71887</ele>
        <time>2026-07-19T07:53:37.345Z</time>
      </trkpt>
      <trkpt lat="48.82229" lon="2.36055">
        <ele>56.75435</ele>
        <time>2026-07-19T07:53:38.345Z</time>
      </trkpt>
      <trkpt lat="48.82231" lon="2.36054">
        <ele>56.84089</ele>
        <time>2026-07-19T07:53:41.346Z</time>
      </trkpt>
      <trkpt lat="48.82233" lon="2.36053">
        <ele>56.89212</ele>
        <time>2026-07-19T07:53:43.345Z</time>
      </trkpt>
      <trkpt lat="48.82237" lon="2.36052">
        <ele>56.94612</ele>
        <time>2026-07-19T07:53:45.346Z</time>
      </trkpt>
      <trkpt lat="48.82239" lon="2.36049">
        <ele>57.02764</ele>
        <time>2026-07-19T07:53:48.346Z</time>
      </trkpt>
      <trkpt lat="48.82242" lon="2.36048">
        <ele>57.06715</ele>
        <time>2026-07-19T07:53:52.346Z</time>
      </trkpt>
      <trkpt lat="48.82243" lon="2.36045">
        <ele>57.05677</ele>
        <time>2026-07-19T07:53:56.346Z</time>
      </trkpt>
      <trkpt lat="48.82243" lon="2.36042">
        <ele>57.02862</ele>
        <time>2026-07-19T07:54:00.346Z</time>
      </trkpt>
      <trkpt lat="48.82244" lon="2.36038">
        <ele>56.99451</ele>
        <time>2026-07-19T07:54:04.346Z</time>
      </trkpt>
      <trkpt lat="48.82244" lon="2.36034">
        <ele>56.93812</ele>
        <time>2026-07-19T07:54:08.346Z</time>
      </trkpt>
      <trkpt lat="48.82243" lon="2.3603">
        <ele>56.85932</ele>
        <time>2026-07-19T07:54:12.346Z</time>
      </trkpt>
      <trkpt lat="48.82243" lon="2.36026">
        <ele>56.74703</ele>
        <time>2026-07-19T07:54:16.346Z</time>
      </trkpt>
      <trkpt lat="48.82245" lon="2.36023">
        <ele>56.67896</ele>
        <time>2026-07-19T07:54:18.347Z</time>
      </trkpt>
      <trkpt lat="48.82247" lon="2.36018">
        <ele>56.56423</ele>
        <time>2026-07-19T07:54:21.347Z</time>
      </trkpt>
      <trkpt lat="48.82247" lon="2.36013">
        <ele>56.46907</ele>
        <time>2026-07-19T07:54:23.346Z</time>
      </trkpt>
      <trkpt lat="48.82248" lon="2.36008">
        <ele>56.36407</ele>
        <time>2026-07-19T07:54:25.346Z</time>
      </trkpt>
      <trkpt lat="48.82247" lon="2.36004">
        <ele>56.26679</ele>
        <time>2026-07-19T07:54:27.346Z</time>
      </trkpt>
      <trkpt lat="48.82245" lon="2.36002">
        <ele>56.14342</ele>
        <time>2026-07-19T07:54:29.347Z</time>
      </trkpt>
      <trkpt lat="48.82244" lon="2.35998">
        <ele>55.92563</ele>
        <time>2026-07-19T07:54:32.347Z</time>
      </trkpt>
      <trkpt lat="48.82243" lon="2.35995">
        <ele>55.76326</ele>
        <time>2026-07-19T07:54:34.346Z</time>
      </trkpt>
      <trkpt lat="48.82241" lon="2.35991">
        <ele>55.60519</ele>
        <time>2026-07-19T07:54:36.346Z</time>
      </trkpt>
      <trkpt lat="48.82241" lon="2.35987">
        <ele>55.4017</ele>
        <time>2026-07-19T07:54:39.346Z</time>
      </trkpt>
      <trkpt lat="48.8224" lon="2.35983">
        <ele>55.22823</ele>
        <time>2026-07-19T07:54:42.347Z</time>
      </trkpt>
      <trkpt lat="48.82238" lon="2.35978">
        <ele>55.13486</ele>
        <time>2026-07-19T07:54:44.346Z</time>
      </trkpt>
      <trkpt lat="48.82238" lon="2.35975">
        <ele>55.06338</ele>
        <time>2026-07-19T07:54:46.347Z</time>
      </trkpt>
      <trkpt lat="48.82238" lon="2.3597">
        <ele>54.96902</ele>
        <time>2026-07-19T07:54:49.347Z</time>
      </trkpt>
      <trkpt lat="48.82238" lon="2.35966">
        <ele>54.90172</ele>
        <time>2026-07-19T07:54:51.348Z</time>
      </trkpt>
      <trkpt lat="48.82239" lon="2.35962">
        <ele>54.85175</ele>
        <time>2026-07-19T07:54:53.347Z</time>
      </trkpt>
      <trkpt lat="48.82238" lon="2.35957">
        <ele>54.76926</ele>
        <time>2026-07-19T07:54:56.346Z</time>
      </trkpt>
      <trkpt lat="48.82236" lon="2.35956">
        <ele>54.72984</ele>
        <time>2026-07-19T07:54:58.347Z</time>
      </trkpt>
      <trkpt lat="48.82234" lon="2.35953">
        <ele>54.69875</ele>
        <time>2026-07-19T07:55:00.347Z</time>
      </trkpt>
      <trkpt lat="48.82232" lon="2.3595">
        <ele>54.65807</ele>
        <time>2026-07-19T07:55:03.347Z</time>
      </trkpt>
      <trkpt lat="48.82232" lon="2.35946">
        <ele>54.61538</ele>
        <time>2026-07-19T07:55:06.348Z</time>
      </trkpt>
      <trkpt lat="48.8223" lon="2.35942">
        <ele>54.56943</ele>
        <time>2026-07-19T07:55:09.347Z</time>
      </trkpt>
      <trkpt lat="48.82228" lon="2.35939">
        <ele>54.53356</ele>
        <time>2026-07-19T07:55:11.347Z</time>
      </trkpt>
      <trkpt lat="48.82225" lon="2.35936">
        <ele>54.49603</ele>
        <time>2026-07-19T07:55:13.347Z</time>
      </trkpt>
      <trkpt lat="48.82224" lon="2.35932">
        <ele>54.47738</ele>
        <time>2026-07-19T07:55:14.347Z</time>
      </trkpt>
      <trkpt lat="48.82222" lon="2.35927">
        <ele>54.44074</ele>
        <time>2026-07-19T07:55:16.347Z</time>
      </trkpt>
      <trkpt lat="48.82221" lon="2.35922">
        <ele>54.41305</ele>
        <time>2026-07-19T07:55:18.347Z</time>
      </trkpt>
      <trkpt lat="48.82219" lon="2.35917">
        <ele>54.41514</ele>
        <time>2026-07-19T07:55:20.348Z</time>
      </trkpt>
      <trkpt lat="48.82217" lon="2.35914">
        <ele>54.42402</ele>
        <time>2026-07-19T07:55:22.347Z</time>
      </trkpt>
      <trkpt lat="48.82218" lon="2.35909">
        <ele>54.43855</ele>
        <time>2026-07-19T07:55:25.348Z</time>
      </trkpt>
      <trkpt lat="48.82219" lon="2.35906">
        <ele>54.44802</ele>
        <time>2026-07-19T07:55:27.348Z</time>
      </trkpt>
      <trkpt lat="48.8222" lon="2.35902">
        <ele>54.45625</ele>
        <time>2026-07-19T07:55:29.347Z</time>
      </trkpt>
      <trkpt lat="48.82221" lon="2.35898">
        <ele>54.46598</ele>
        <time>2026-07-19T07:55:31.348Z</time>
      </trkpt>
      <trkpt lat="48.82221" lon="2.35894">
        <ele>54.48189</ele>
        <time>2026-07-19T07:55:34.348Z</time>
      </trkpt>
      <trkpt lat="48.82222" lon="2.3589">
        <ele>54.49551</ele>
        <time>2026-07-19T07:55:37.347Z</time>
      </trkpt>
      <trkpt lat="48.82221" lon="2.35887">
        <ele>54.508</ele>
        <time>2026-07-19T07:55:40.348Z</time>
      </trkpt>
      <trkpt lat="48.82219" lon="2.35884">
        <ele>54.51822</ele>
        <time>2026-07-19T07:55:43.348Z</time>
      </trkpt>
      <trkpt lat="48.82219" lon="2.35879">
        <ele>54.52531</ele>
        <time>2026-07-19T07:55:46.348Z</time>
      </trkpt>
      <trkpt lat="48.82217" lon="2.35876">
        <ele>54.53235</ele>
        <time>2026-07-19T07:55:49.348Z</time>
      </trkpt>
      <trkpt lat="48.82215" lon="2.35874">
        <ele>54.5271</ele>
        <time>2026-07-19T07:55:54.348Z</time>
      </trkpt>
      <trkpt lat="48.82212" lon="2.35873">
        <ele>54.51781</ele>
        <time>2026-07-19T07:55:57.348Z</time>
      </trkpt>
      <trkpt lat="48.8221" lon="2.35869">
        <ele>54.50672</ele>
        <time>2026-07-19T07:56:00.348Z</time>
      </trkpt>
      <trkpt lat="48.8221" lon="2.35865">
        <ele>54.49625</ele>
        <time>2026-07-19T07:56:04.349Z</time>
      </trkpt>
      <trkpt lat="48.82211" lon="2.35861">
        <ele>54.48532</ele>
        <time>2026-07-19T07:56:08.348Z</time>
      </trkpt>
      <trkpt lat="48.8221" lon="2.35856">
        <ele>54.47209</ele>
        <time>2026-07-19T07:56:11.349Z</time>
      </trkpt>
      <trkpt lat="48.82209" lon="2.35853">
        <ele>54.45892</ele>
        <time>2026-07-19T07:56:13.349Z</time>
      </trkpt>
      <trkpt lat="48.82208" lon="2.35849">
        <ele>54.42013</ele>
        <time>2026-07-19T07:56:16.349Z</time>
      </trkpt>
      <trkpt lat="48.82206" lon="2.35845">
        <ele>54.35909</ele>
        <time>2026-07-19T07:56:19.349Z</time>
      </trkpt>
      <trkpt lat="48.82205" lon="2.35842">
        <ele>54.27169</ele>
        <time>2026-07-19T07:56:28.349Z</time>
      </trkpt>
      <trkpt lat="48.82203" lon="2.35839">
        <ele>54.2477</ele>
        <time>2026-07-19T07:56:32.349Z</time>
      </trkpt>
      <trkpt lat="48.822" lon="2.3584">
        <ele>54.2035</ele>
        <time>2026-07-19T07:56:44.350Z</time>
      </trkpt>
      <trkpt lat="48.822" lon="2.35836">
        <ele>54.18352</ele>
        <time>2026-07-19T07:56:51.349Z</time>
      </trkpt>
      <trkpt lat="48.82201" lon="2.35833">
        <ele>54.17191</ele>
        <time>2026-07-19T07:56:56.350Z</time>
      </trkpt>
      <trkpt lat="48.82203" lon="2.3583">
        <ele>53.69707</ele>
        <time>2026-07-19T07:57:56.351Z</time>
      </trkpt>
      <trkpt lat="48.82201" lon="2.3583">
        <ele>54.53865</ele>
        <time>2026-07-19T08:00:31.355Z</time>
      </trkpt>
      <trkpt lat="48.82198" lon="2.35831">
        <ele>54.55432</ele>
        <time>2026-07-19T08:00:35.355Z</time>
      </trkpt>
      <trkpt lat="48.82195" lon="2.35832">
        <ele>54.55831</ele>
        <time>2026-07-19T08:00:37.355Z</time>
      </trkpt>
      <trkpt lat="48.82193" lon="2.35833">
        <ele>54.56085</ele>
        <time>2026-07-19T08:00:39.355Z</time>
      </trkpt>
      <trkpt lat="48.82191" lon="2.35835">
        <ele>54.56302</ele>
        <time>2026-07-19T08:00:42.355Z</time>
      </trkpt>
      <trkpt lat="48.82188" lon="2.35836">
        <ele>54.56215</ele>
        <time>2026-07-19T08:00:44.355Z</time>
      </trkpt>
      <trkpt lat="48.82185" lon="2.35836">
        <ele>54.56025</ele>
        <time>2026-07-19T08:00:46.355Z</time>
      </trkpt>
      <trkpt lat="48.82182" lon="2.35837">
        <ele>54.55995</ele>
        <time>2026-07-19T08:00:49.355Z</time>
      </trkpt>
      <trkpt lat="48.82179" lon="2.35838">
        <ele>54.56431</ele>
        <time>2026-07-19T08:00:51.355Z</time>
      </trkpt>
      <trkpt lat="48.82176" lon="2.35837">
        <ele>54.57784</ele>
        <time>2026-07-19T08:00:54.355Z</time>
      </trkpt>
      <trkpt lat="48.82173" lon="2.35838">
        <ele>54.58744</ele>
        <time>2026-07-19T08:00:57.355Z</time>
      </trkpt>
      <trkpt lat="48.82171" lon="2.35839">
        <ele>54.6013</ele>
        <time>2026-07-19T08:01:01.355Z</time>
      </trkpt>
      <trkpt lat="48.82167" lon="2.35841">
        <ele>54.61073</ele>
        <time>2026-07-19T08:01:04.355Z</time>
      </trkpt>
      <trkpt lat="48.82165" lon="2.35842">
        <ele>54.61574</ele>
        <time>2026-07-19T08:01:06.355Z</time>
      </trkpt>
      <trkpt lat="48.82162" lon="2.35843">
        <ele>54.62176</ele>
        <time>2026-07-19T08:01:08.355Z</time>
      </trkpt>
      <trkpt lat="48.82159" lon="2.35844">
        <ele>54.62826</ele>
        <time>2026-07-19T08:01:11.355Z</time>
      </trkpt>
      <trkpt lat="48.82156" lon="2.35846">
        <ele>54.63095</ele>
        <time>2026-07-19T08:01:13.355Z</time>
      </trkpt>
      <trkpt lat="48.82154" lon="2.35847">
        <ele>54.63839</ele>
        <time>2026-07-19T08:01:16.356Z</time>
      </trkpt>
      <trkpt lat="48.82151" lon="2.35849">
        <ele>54.64935</ele>
        <time>2026-07-19T08:01:19.355Z</time>
      </trkpt>
      <trkpt lat="48.82147" lon="2.3585">
        <ele>54.6628</ele>
        <time>2026-07-19T08:01:22.355Z</time>
      </trkpt>
      <trkpt lat="48.82145" lon="2.3585">
        <ele>54.67441</ele>
        <time>2026-07-19T08:01:25.356Z</time>
      </trkpt>
      <trkpt lat="48.82142" lon="2.3585">
        <ele>54.68839</ele>
        <time>2026-07-19T08:01:28.356Z</time>
      </trkpt>
      <trkpt lat="48.8214" lon="2.35848">
        <ele>54.70488</ele>
        <time>2026-07-19T08:01:32.356Z</time>
      </trkpt>
      <trkpt lat="48.8214" lon="2.35844">
        <ele>54.71</ele>
        <time>2026-07-19T08:01:35.356Z</time>
      </trkpt>
      <trkpt lat="48.8214" lon="2.3584">
        <ele>54.70545</ele>
        <time>2026-07-19T08:01:38.356Z</time>
      </trkpt>
      <trkpt lat="48.82141" lon="2.35837">
        <ele>54.70275</ele>
        <time>2026-07-19T08:01:40.356Z</time>
      </trkpt>
      <trkpt lat="48.8214" lon="2.35833">
        <ele>54.69843</ele>
        <time>2026-07-19T08:01:43.356Z</time>
      </trkpt>
      <trkpt lat="48.82141" lon="2.35829">
        <ele>54.69327</ele>
        <time>2026-07-19T08:01:47.356Z</time>
      </trkpt>
      <trkpt lat="48.82141" lon="2.35824">
        <ele>54.69254</ele>
        <time>2026-07-19T08:01:50.356Z</time>
      </trkpt>
      <trkpt lat="48.82141" lon="2.35819">
        <ele>54.69018</ele>
        <time>2026-07-19T08:01:52.356Z</time>
      </trkpt>
      <trkpt lat="48.82141" lon="2.35814">
        <ele>54.68726</ele>
        <time>2026-07-19T08:01:54.356Z</time>
      </trkpt>
      <trkpt lat="48.82141" lon="2.35809">
        <ele>54.6824</ele>
        <time>2026-07-19T08:01:58.357Z</time>
      </trkpt>
      <trkpt lat="48.8214" lon="2.35805">
        <ele>54.6794</ele>
        <time>2026-07-19T08:02:01.356Z</time>
      </trkpt>
      <trkpt lat="48.8214" lon="2.35801">
        <ele>54.6778</ele>
        <time>2026-07-19T08:02:03.356Z</time>
      </trkpt>
      <trkpt lat="48.8214" lon="2.35796">
        <ele>54.67629</ele>
        <time>2026-07-19T08:02:05.356Z</time>
      </trkpt>
      <trkpt lat="48.8214" lon="2.35791">
        <ele>54.67475</ele>
        <time>2026-07-19T08:02:08.357Z</time>
      </trkpt>
      <trkpt lat="48.8214" lon="2.35788">
        <ele>54.67232</ele>
        <time>2026-07-19T08:02:10.356Z</time>
      </trkpt>
      <trkpt lat="48.8214" lon="2.35784">
        <ele>54.66527</ele>
        <time>2026-07-19T08:02:12.357Z</time>
      </trkpt>
      <trkpt lat="48.8214" lon="2.35779">
        <ele>54.63578</ele>
        <time>2026-07-19T08:02:15.357Z</time>
      </trkpt>
      <trkpt lat="48.82139" lon="2.35775">
        <ele>54.5773</ele>
        <time>2026-07-19T08:02:18.357Z</time>
      </trkpt>
      <trkpt lat="48.82139" lon="2.35771">
        <ele>54.52974</ele>
        <time>2026-07-19T08:02:20.356Z</time>
      </trkpt>
      <trkpt lat="48.8214" lon="2.35768">
        <ele>54.44323</ele>
        <time>2026-07-19T08:02:23.357Z</time>
      </trkpt>
      <trkpt lat="48.8214" lon="2.35763">
        <ele>54.34914</ele>
        <time>2026-07-19T08:02:26.357Z</time>
      </trkpt>
      <trkpt lat="48.8214" lon="2.35758">
        <ele>54.26907</ele>
        <time>2026-07-19T08:02:29.358Z</time>
      </trkpt>
      <trkpt lat="48.8214" lon="2.35755">
        <ele>54.22738</ele>
        <time>2026-07-19T08:02:31.357Z</time>
      </trkpt>
      <trkpt lat="48.8214" lon="2.3575">
        <ele>54.17605</ele>
        <time>2026-07-19T08:02:34.357Z</time>
      </trkpt>
      <trkpt lat="48.8214" lon="2.35746">
        <ele>54.13628</ele>
        <time>2026-07-19T08:02:37.357Z</time>
      </trkpt>
      <trkpt lat="48.8214" lon="2.35742">
        <ele>54.12555</ele>
        <time>2026-07-19T08:02:40.357Z</time>
      </trkpt>
      <trkpt lat="48.82139" lon="2.35737">
        <ele>54.10646</ele>
        <time>2026-07-19T08:02:42.357Z</time>
      </trkpt>
      <trkpt lat="48.8214" lon="2.35733">
        <ele>54.06794</ele>
        <time>2026-07-19T08:02:45.357Z</time>
      </trkpt>
      <trkpt lat="48.82139" lon="2.35729">
        <ele>54.03289</ele>
        <time>2026-07-19T08:02:47.357Z</time>
      </trkpt>
      <trkpt lat="48.8214" lon="2.35725">
        <ele>53.99359</ele>
        <time>2026-07-19T08:02:49.358Z</time>
      </trkpt>
      <trkpt lat="48.8214" lon="2.3572">
        <ele>53.93937</ele>
        <time>2026-07-19T08:02:52.357Z</time>
      </trkpt>
      <trkpt lat="48.82139" lon="2.35717">
        <ele>53.89053</ele>
        <time>2026-07-19T08:02:54.357Z</time>
      </trkpt>
      <trkpt lat="48.8214" lon="2.35712">
        <ele>53.82192</ele>
        <time>2026-07-19T08:02:58.357Z</time>
      </trkpt>
      <trkpt lat="48.8214" lon="2.35708">
        <ele>53.7533</ele>
        <time>2026-07-19T08:03:01.358Z</time>
      </trkpt>
      <trkpt lat="48.8214" lon="2.35704">
        <ele>53.71441</ele>
        <time>2026-07-19T08:03:03.358Z</time>
      </trkpt>
      <trkpt lat="48.82141" lon="2.357">
        <ele>53.68147</ele>
        <time>2026-07-19T08:03:06.358Z</time>
      </trkpt>
      <trkpt lat="48.82141" lon="2.35695">
        <ele>53.67295</ele>
        <time>2026-07-19T08:03:08.359Z</time>
      </trkpt>
      <trkpt lat="48.8214" lon="2.35691">
        <ele>53.67045</ele>
        <time>2026-07-19T08:03:10.358Z</time>
      </trkpt>
      <trkpt lat="48.8214" lon="2.35688">
        <ele>53.67144</ele>
        <time>2026-07-19T08:03:13.358Z</time>
      </trkpt>
      <trkpt lat="48.8214" lon="2.35684">
        <ele>53.6706</ele>
        <time>2026-07-19T08:03:16.358Z</time>
      </trkpt>
      <trkpt lat="48.82141" lon="2.3568">
        <ele>53.67235</ele>
        <time>2026-07-19T08:03:19.358Z</time>
      </trkpt>
      <trkpt lat="48.82141" lon="2.35676">
        <ele>53.66589</ele>
        <time>2026-07-19T08:03:22.358Z</time>
      </trkpt>
      <trkpt lat="48.82142" lon="2.35673">
        <ele>53.65321</ele>
        <time>2026-07-19T08:03:24.358Z</time>
      </trkpt>
      <trkpt lat="48.8214" lon="2.3567">
        <ele>53.62935</ele>
        <time>2026-07-19T08:03:27.358Z</time>
      </trkpt>
      <trkpt lat="48.8214" lon="2.35665">
        <ele>53.59438</ele>
        <time>2026-07-19T08:03:30.358Z</time>
      </trkpt>
      <trkpt lat="48.8214" lon="2.35661">
        <ele>53.56712</ele>
        <time>2026-07-19T08:03:32.360Z</time>
      </trkpt>
      <trkpt lat="48.82139" lon="2.35658">
        <ele>53.5436</ele>
        <time>2026-07-19T08:03:34.358Z</time>
      </trkpt>
      <trkpt lat="48.82137" lon="2.35657">
        <ele>53.52196</ele>
        <time>2026-07-19T08:03:37.359Z</time>
      </trkpt>
      <trkpt lat="48.82134" lon="2.35654">
        <ele>53.51716</ele>
        <time>2026-07-19T08:03:41.359Z</time>
      </trkpt>
      <trkpt lat="48.82131" lon="2.35653">
        <ele>53.51979</ele>
        <time>2026-07-19T08:03:44.358Z</time>
      </trkpt>
      <trkpt lat="48.82128" lon="2.35651">
        <ele>53.51723</ele>
        <time>2026-07-19T08:03:48.360Z</time>
      </trkpt>
      <trkpt lat="48.82126" lon="2.35651">
        <ele>53.51231</ele>
        <time>2026-07-19T08:03:51.359Z</time>
      </trkpt>
      <trkpt lat="48.82122" lon="2.3565">
        <ele>53.5022</ele>
        <time>2026-07-19T08:03:54.359Z</time>
      </trkpt>
      <trkpt lat="48.8212" lon="2.35649">
        <ele>53.49487</ele>
        <time>2026-07-19T08:03:56.358Z</time>
      </trkpt>
      <trkpt lat="48.82117" lon="2.35648">
        <ele>53.49152</ele>
        <time>2026-07-19T08:03:58.360Z</time>
      </trkpt>
      <trkpt lat="48.82115" lon="2.35647">
        <ele>53.48822</ele>
        <time>2026-07-19T08:04:00.359Z</time>
      </trkpt>
      <trkpt lat="48.82112" lon="2.35649">
        <ele>53.4948</ele>
        <time>2026-07-19T08:04:03.359Z</time>
      </trkpt>
      <trkpt lat="48.8211" lon="2.35649">
        <ele>53.5057</ele>
        <time>2026-07-19T08:04:07.359Z</time>
      </trkpt>
      <trkpt lat="48.82107" lon="2.3565">
        <ele>53.51122</ele>
        <time>2026-07-19T08:04:09.359Z</time>
      </trkpt>
      <trkpt lat="48.82104" lon="2.35652">
        <ele>53.51561</ele>
        <time>2026-07-19T08:04:11.359Z</time>
      </trkpt>
      <trkpt lat="48.82101" lon="2.35652">
        <ele>53.52407</ele>
        <time>2026-07-19T08:04:14.359Z</time>
      </trkpt>
      <trkpt lat="48.821" lon="2.35648">
        <ele>53.52721</ele>
        <time>2026-07-19T08:04:21.359Z</time>
      </trkpt>
      <trkpt lat="48.82098" lon="2.35646">
        <ele>53.53339</ele>
        <time>2026-07-19T08:04:25.359Z</time>
      </trkpt>
      <trkpt lat="48.82096" lon="2.35646">
        <ele>53.62242</ele>
        <time>2026-07-19T08:04:37.359Z</time>
      </trkpt>
      <trkpt lat="48.82093" lon="2.35646">
        <ele>53.63922</ele>
        <time>2026-07-19T08:04:40.360Z</time>
      </trkpt>
      <trkpt lat="48.8209" lon="2.35646">
        <ele>53.66068</ele>
        <time>2026-07-19T08:04:43.360Z</time>
      </trkpt>
      <trkpt lat="48.82087" lon="2.35645">
        <ele>53.66592</ele>
        <time>2026-07-19T08:04:46.360Z</time>
      </trkpt>
      <trkpt lat="48.82085" lon="2.35645">
        <ele>53.65783</ele>
        <time>2026-07-19T08:04:49.360Z</time>
      </trkpt>
      <trkpt lat="48.82082" lon="2.35644">
        <ele>53.63459</ele>
        <time>2026-07-19T08:04:52.360Z</time>
      </trkpt>
      <trkpt lat="48.8208" lon="2.35643">
        <ele>53.62104</ele>
        <time>2026-07-19T08:04:55.359Z</time>
      </trkpt>
      <trkpt lat="48.82077" lon="2.35641">
        <ele>53.57681</ele>
        <time>2026-07-19T08:05:01.360Z</time>
      </trkpt>
      <trkpt lat="48.82075" lon="2.35639">
        <ele>53.54054</ele>
        <time>2026-07-19T08:05:04.360Z</time>
      </trkpt>
      <trkpt lat="48.82072" lon="2.35637">
        <ele>53.50158</ele>
        <time>2026-07-19T08:05:07.360Z</time>
      </trkpt>
      <trkpt lat="48.8207" lon="2.35635">
        <ele>53.46435</ele>
        <time>2026-07-19T08:05:10.360Z</time>
      </trkpt>
      <trkpt lat="48.82068" lon="2.35633">
        <ele>53.42624</ele>
        <time>2026-07-19T08:05:13.360Z</time>
      </trkpt>
      <trkpt lat="48.82067" lon="2.35631">
        <ele>53.38451</ele>
        <time>2026-07-19T08:05:16.360Z</time>
      </trkpt>
      <trkpt lat="48.82065" lon="2.35628">
        <ele>53.33193</ele>
        <time>2026-07-19T08:05:20.360Z</time>
      </trkpt>
      <trkpt lat="48.82063" lon="2.35625">
        <ele>53.28279</ele>
        <time>2026-07-19T08:05:23.361Z</time>
      </trkpt>
      <trkpt lat="48.82062" lon="2.35621">
        <ele>53.18571</ele>
        <time>2026-07-19T08:05:28.360Z</time>
      </trkpt>
      <trkpt lat="48.82063" lon="2.35617">
        <ele>53.11595</ele>
        <time>2026-07-19T08:05:31.360Z</time>
      </trkpt>
      <trkpt lat="48.82062" lon="2.35613">
        <ele>52.99761</ele>
        <time>2026-07-19T08:05:35.361Z</time>
      </trkpt>
      <trkpt lat="48.82064" lon="2.3561">
        <ele>52.70719</ele>
        <time>2026-07-19T08:05:43.361Z</time>
      </trkpt>
      <trkpt lat="48.82067" lon="2.35607">
        <ele>52.52731</ele>
        <time>2026-07-19T08:05:46.360Z</time>
      </trkpt>
      <trkpt lat="48.82069" lon="2.35604">
        <ele>52.32376</ele>
        <time>2026-07-19T08:05:49.361Z</time>
      </trkpt>
      <trkpt lat="48.82071" lon="2.35602">
        <ele>52.14666</ele>
        <time>2026-07-19T08:05:52.361Z</time>
      </trkpt>
      <trkpt lat="48.82073" lon="2.35599">
        <ele>51.27954</ele>
        <time>2026-07-19T08:06:19.361Z</time>
      </trkpt>
      <trkpt lat="48.82076" lon="2.35596">
        <ele>51.15815</ele>
        <time>2026-07-19T08:06:22.362Z</time>
      </trkpt>
      <trkpt lat="48.82079" lon="2.35592">
        <ele>51.07399</ele>
        <time>2026-07-19T08:06:24.362Z</time>
      </trkpt>
      <trkpt lat="48.8208" lon="2.35589">
        <ele>50.94569</ele>
        <time>2026-07-19T08:06:27.362Z</time>
      </trkpt>
      <trkpt lat="48.82083" lon="2.35587">
        <ele>50.78757</ele>
        <time>2026-07-19T08:06:30.362Z</time>
      </trkpt>
      <trkpt lat="48.82084" lon="2.35583">
        <ele>50.61572</ele>
        <time>2026-07-19T08:06:33.362Z</time>
      </trkpt>
      <trkpt lat="48.82086" lon="2.3558">
        <ele>50.40551</ele>
        <time>2026-07-19T08:06:36.362Z</time>
      </trkpt>
      <trkpt lat="48.82088" lon="2.35576">
        <ele>50.1579</ele>
        <time>2026-07-19T08:06:39.362Z</time>
      </trkpt>
      <trkpt lat="48.82089" lon="2.35572">
        <ele>49.88501</ele>
        <time>2026-07-19T08:06:42.363Z</time>
      </trkpt>
      <trkpt lat="48.82089" lon="2.35568">
        <ele>49.58036</ele>
        <time>2026-07-19T08:06:45.363Z</time>
      </trkpt>
      <trkpt lat="48.82091" lon="2.35564">
        <ele>49.27286</ele>
        <time>2026-07-19T08:06:48.362Z</time>
      </trkpt>
      <trkpt lat="48.82092" lon="2.3556">
        <ele>48.9544</ele>
        <time>2026-07-19T08:06:51.362Z</time>
      </trkpt>
      <trkpt lat="48.82093" lon="2.35556">
        <ele>48.67967</ele>
        <time>2026-07-19T08:06:54.362Z</time>
      </trkpt>
      <trkpt lat="48.82094" lon="2.35552">
        <ele>48.45283</ele>
        <time>2026-07-19T08:06:57.362Z</time>
      </trkpt>
      <trkpt lat="48.82096" lon="2.35548">
        <ele>48.27801</ele>
        <time>2026-07-19T08:07:00.363Z</time>
      </trkpt>
      <trkpt lat="48.82097" lon="2.35544">
        <ele>48.16585</ele>
        <time>2026-07-19T08:07:03.363Z</time>
      </trkpt>
      <trkpt lat="48.82098" lon="2.3554">
        <ele>48.09281</ele>
        <time>2026-07-19T08:07:06.362Z</time>
      </trkpt>
      <trkpt lat="48.82099" lon="2.35536">
        <ele>48.02491</ele>
        <time>2026-07-19T08:07:09.363Z</time>
      </trkpt>
      <trkpt lat="48.82101" lon="2.35533">
        <ele>47.97193</ele>
        <time>2026-07-19T08:07:12.363Z</time>
      </trkpt>
      <trkpt lat="48.82102" lon="2.3553">
        <ele>47.9624</ele>
        <time>2026-07-19T08:07:14.363Z</time>
      </trkpt>
      <trkpt lat="48.82104" lon="2.35527">
        <ele>47.99429</ele>
        <time>2026-07-19T08:07:18.363Z</time>
      </trkpt>
      <trkpt lat="48.82106" lon="2.35526">
        <ele>48.0342</ele>
        <time>2026-07-19T08:07:20.363Z</time>
      </trkpt>
      <trkpt lat="48.82108" lon="2.35523">
        <ele>48.10331</ele>
        <time>2026-07-19T08:07:23.363Z</time>
      </trkpt>
      <trkpt lat="48.8211" lon="2.35519">
        <ele>48.18246</ele>
        <time>2026-07-19T08:07:26.364Z</time>
      </trkpt>
      <trkpt lat="48.82111" lon="2.35516">
        <ele>48.38119</ele>
        <time>2026-07-19T08:07:33.364Z</time>
      </trkpt>
      <trkpt lat="48.82114" lon="2.35514">
        <ele>48.47102</ele>
        <time>2026-07-19T08:07:37.364Z</time>
      </trkpt>
      <trkpt lat="48.82116" lon="2.35511">
        <ele>48.51774</ele>
        <time>2026-07-19T08:07:40.363Z</time>
      </trkpt>
      <trkpt lat="48.82117" lon="2.35508">
        <ele>48.56717</ele>
        <time>2026-07-19T08:07:42.363Z</time>
      </trkpt>
      <trkpt lat="48.82118" lon="2.35505">
        <ele>48.69699</ele>
        <time>2026-07-19T08:07:49.363Z</time>
      </trkpt>
      <trkpt lat="48.82119" lon="2.35502">
        <ele>48.69715</ele>
        <time>2026-07-19T08:07:54.364Z</time>
      </trkpt>
      <trkpt lat="48.82121" lon="2.35499">
        <ele>48.65146</ele>
        <time>2026-07-19T08:07:59.365Z</time>
      </trkpt>
      <trkpt lat="48.82122" lon="2.35496">
        <ele>48.58364</ele>
        <time>2026-07-19T08:08:04.363Z</time>
      </trkpt>
      <trkpt lat="48.82125" lon="2.35493">
        <ele>48.54252</ele>
        <time>2026-07-19T08:08:08.364Z</time>
      </trkpt>
      <trkpt lat="48.82126" lon="2.3549">
        <ele>48.48702</ele>
        <time>2026-07-19T08:08:11.364Z</time>
      </trkpt>
      <trkpt lat="48.82127" lon="2.35486">
        <ele>48.41783</ele>
        <time>2026-07-19T08:08:14.364Z</time>
      </trkpt>
      <trkpt lat="48.82126" lon="2.35479">
        <ele>48.36085</ele>
        <time>2026-07-19T08:08:16.364Z</time>
      </trkpt>
      <trkpt lat="48.82125" lon="2.35475">
        <ele>48.27373</ele>
        <time>2026-07-19T08:08:19.364Z</time>
      </trkpt>
      <trkpt lat="48.82124" lon="2.35471">
        <ele>48.1783</ele>
        <time>2026-07-19T08:08:22.364Z</time>
      </trkpt>
      <trkpt lat="48.82124" lon="2.35467">
        <ele>48.09731</ele>
        <time>2026-07-19T08:08:24.364Z</time>
      </trkpt>
      <trkpt lat="48.82124" lon="2.35462">
        <ele>47.98135</ele>
        <time>2026-07-19T08:08:26.364Z</time>
      </trkpt>
      <trkpt lat="48.82124" lon="2.35458">
        <ele>47.81902</ele>
        <time>2026-07-19T08:08:28.364Z</time>
      </trkpt>
      <trkpt lat="48.82124" lon="2.35454">
        <ele>47.64639</ele>
        <time>2026-07-19T08:08:30.365Z</time>
      </trkpt>
      <trkpt lat="48.82126" lon="2.3545">
        <ele>47.33976</ele>
        <time>2026-07-19T08:08:33.364Z</time>
      </trkpt>
      <trkpt lat="48.82128" lon="2.35447">
        <ele>47.11551</ele>
        <time>2026-07-19T08:08:35.364Z</time>
      </trkpt>
      <trkpt lat="48.8213" lon="2.35446">
        <ele>46.8751</ele>
        <time>2026-07-19T08:08:37.365Z</time>
      </trkpt>
      <trkpt lat="48.82132" lon="2.35444">
        <ele>46.57826</ele>
        <time>2026-07-19T08:08:39.364Z</time>
      </trkpt>
      <trkpt lat="48.82134" lon="2.35441">
        <ele>46.04446</ele>
        <time>2026-07-19T08:08:42.365Z</time>
      </trkpt>
      <trkpt lat="48.82136" lon="2.35439">
        <ele>45.52939</ele>
        <time>2026-07-19T08:08:45.365Z</time>
      </trkpt>
      <trkpt lat="48.82137" lon="2.35436">
        <ele>44.89168</ele>
        <time>2026-07-19T08:08:49.365Z</time>
      </trkpt>
      <trkpt lat="48.82137" lon="2.35431">
        <ele>44.62653</ele>
        <time>2026-07-19T08:08:52.365Z</time>
      </trkpt>
      <trkpt lat="48.82137" lon="2.35427">
        <ele>44.45414</ele>
        <time>2026-07-19T08:08:56.365Z</time>
      </trkpt>
      <trkpt lat="48.82137" lon="2.35423">
        <ele>44.34475</ele>
        <time>2026-07-19T08:08:59.365Z</time>
      </trkpt>
      <trkpt lat="48.82137" lon="2.35418">
        <ele>44.26313</ele>
        <time>2026-07-19T08:09:02.365Z</time>
      </trkpt>
      <trkpt lat="48.82137" lon="2.35413">
        <ele>44.20102</ele>
        <time>2026-07-19T08:09:05.365Z</time>
      </trkpt>
      <trkpt lat="48.82138" lon="2.35409">
        <ele>44.17765</ele>
        <time>2026-07-19T08:09:07.365Z</time>
      </trkpt>
      <trkpt lat="48.82137" lon="2.35405">
        <ele>44.15894</ele>
        <time>2026-07-19T08:09:09.365Z</time>
      </trkpt>
      <trkpt lat="48.82137" lon="2.35402">
        <ele>44.01385</ele>
        <time>2026-07-19T08:09:20.366Z</time>
      </trkpt>
      <trkpt lat="48.82138" lon="2.35398">
        <ele>43.95461</ele>
        <time>2026-07-19T08:09:24.365Z</time>
      </trkpt>
      <trkpt lat="48.82138" lon="2.35394">
        <ele>43.89064</ele>
        <time>2026-07-19T08:09:29.365Z</time>
      </trkpt>
      <trkpt lat="48.82138" lon="2.35389">
        <ele>43.84124</ele>
        <time>2026-07-19T08:09:34.366Z</time>
      </trkpt>
      <trkpt lat="48.82138" lon="2.35385">
        <ele>43.81803</ele>
        <time>2026-07-19T08:09:36.366Z</time>
      </trkpt>
      <trkpt lat="48.82138" lon="2.35382">
        <ele>43.79549</ele>
        <time>2026-07-19T08:09:38.366Z</time>
      </trkpt>
      <trkpt lat="48.82138" lon="2.35377">
        <ele>43.75018</ele>
        <time>2026-07-19T08:09:41.365Z</time>
      </trkpt>
      <trkpt lat="48.82138" lon="2.35373">
        <ele>43.69662</ele>
        <time>2026-07-19T08:09:44.365Z</time>
      </trkpt>
      <trkpt lat="48.82138" lon="2.35367">
        <ele>43.65421</ele>
        <time>2026-07-19T08:09:46.366Z</time>
      </trkpt>
      <trkpt lat="48.82138" lon="2.35363">
        <ele>43.60987</ele>
        <time>2026-07-19T08:09:48.366Z</time>
      </trkpt>
      <trkpt lat="48.82137" lon="2.35359">
        <ele>43.56669</ele>
        <time>2026-07-19T08:09:50.366Z</time>
      </trkpt>
      <trkpt lat="48.82137" lon="2.35356">
        <ele>43.50415</ele>
        <time>2026-07-19T08:09:53.366Z</time>
      </trkpt>
      <trkpt lat="48.82138" lon="2.3535">
        <ele>43.1713</ele>
        <time>2026-07-19T08:10:05.366Z</time>
      </trkpt>
      <trkpt lat="48.82138" lon="2.35346">
        <ele>43.13125</ele>
        <time>2026-07-19T08:10:07.366Z</time>
      </trkpt>
      <trkpt lat="48.82138" lon="2.35343">
        <ele>43.09874</ele>
        <time>2026-07-19T08:10:09.366Z</time>
      </trkpt>
      <trkpt lat="48.82138" lon="2.35339">
        <ele>43.07362</ele>
        <time>2026-07-19T08:10:11.367Z</time>
      </trkpt>
      <trkpt lat="48.82138" lon="2.35335">
        <ele>43.06208</ele>
        <time>2026-07-19T08:10:13.367Z</time>
      </trkpt>
      <trkpt lat="48.82138" lon="2.35331">
        <ele>43.05787</ele>
        <time>2026-07-19T08:10:16.367Z</time>
      </trkpt>
      <trkpt lat="48.82137" lon="2.35326">
        <ele>43.05302</ele>
        <time>2026-07-19T08:10:19.366Z</time>
      </trkpt>
      <trkpt lat="48.82137" lon="2.35322">
        <ele>43.04284</ele>
        <time>2026-07-19T08:10:21.366Z</time>
      </trkpt>
      <trkpt lat="48.82138" lon="2.35319">
        <ele>43.03186</ele>
        <time>2026-07-19T08:10:23.367Z</time>
      </trkpt>
      <trkpt lat="48.82138" lon="2.35314">
        <ele>43.01046</ele>
        <time>2026-07-19T08:10:26.366Z</time>
      </trkpt>
      <trkpt lat="48.82138" lon="2.35311">
        <ele>42.99138</ele>
        <time>2026-07-19T08:10:28.367Z</time>
      </trkpt>
      <trkpt lat="48.82138" lon="2.35307">
        <ele>42.96545</ele>
        <time>2026-07-19T08:10:30.367Z</time>
      </trkpt>
      <trkpt lat="48.82138" lon="2.35304">
        <ele>42.93817</ele>
        <time>2026-07-19T08:10:32.367Z</time>
      </trkpt>
      <trkpt lat="48.82138" lon="2.353">
        <ele>42.90948</ele>
        <time>2026-07-19T08:10:34.367Z</time>
      </trkpt>
      <trkpt lat="48.82137" lon="2.35296">
        <ele>42.87006</ele>
        <time>2026-07-19T08:10:37.367Z</time>
      </trkpt>
      <trkpt lat="48.82137" lon="2.35292">
        <ele>42.83236</ele>
        <time>2026-07-19T08:10:40.367Z</time>
      </trkpt>
      <trkpt lat="48.82137" lon="2.35288">
        <ele>42.81648</ele>
        <time>2026-07-19T08:10:42.367Z</time>
      </trkpt>
      <trkpt lat="48.82137" lon="2.35284">
        <ele>42.79799</ele>
        <time>2026-07-19T08:10:45.367Z</time>
      </trkpt>
      <trkpt lat="48.82137" lon="2.3528">
        <ele>42.78612</ele>
        <time>2026-07-19T08:10:47.367Z</time>
      </trkpt>
      <trkpt lat="48.82138" lon="2.35277">
        <ele>42.77261</ele>
        <time>2026-07-19T08:10:49.368Z</time>
      </trkpt>
      <trkpt lat="48.82138" lon="2.35273">
        <ele>42.7557</ele>
        <time>2026-07-19T08:10:51.367Z</time>
      </trkpt>
      <trkpt lat="48.82138" lon="2.35269">
        <ele>42.73929</ele>
        <time>2026-07-19T08:10:53.368Z</time>
      </trkpt>
      <trkpt lat="48.82138" lon="2.35265">
        <ele>42.71735</ele>
        <time>2026-07-19T08:10:55.368Z</time>
      </trkpt>
      <trkpt lat="48.82138" lon="2.35262">
        <ele>42.69083</ele>
        <time>2026-07-19T08:10:57.368Z</time>
      </trkpt>
      <trkpt lat="48.82137" lon="2.35257">
        <ele>42.66718</ele>
        <time>2026-07-19T08:10:59.367Z</time>
      </trkpt>
      <trkpt lat="48.82137" lon="2.35253">
        <ele>42.64042</ele>
        <time>2026-07-19T08:11:02.368Z</time>
      </trkpt>
      <trkpt lat="48.82137" lon="2.35248">
        <ele>42.63177</ele>
        <time>2026-07-19T08:11:05.368Z</time>
      </trkpt>
      <trkpt lat="48.82137" lon="2.35243">
        <ele>42.63339</ele>
        <time>2026-07-19T08:11:07.368Z</time>
      </trkpt>
      <trkpt lat="48.82137" lon="2.35239">
        <ele>42.63376</ele>
        <time>2026-07-19T08:11:10.367Z</time>
      </trkpt>
      <trkpt lat="48.82137" lon="2.35234">
        <ele>42.63216</ele>
        <time>2026-07-19T08:11:13.367Z</time>
      </trkpt>
      <trkpt lat="48.82138" lon="2.3523">
        <ele>42.63244</ele>
        <time>2026-07-19T08:11:15.367Z</time>
      </trkpt>
      <trkpt lat="48.82138" lon="2.35227">
        <ele>42.63446</ele>
        <time>2026-07-19T08:11:17.628Z</time>
      </trkpt>
      <trkpt lat="48.82138" lon="2.35222">
        <ele>42.64272</ele>
        <time>2026-07-19T08:11:20.368Z</time>
      </trkpt>
      <trkpt lat="48.82138" lon="2.35217">
        <ele>42.65917</ele>
        <time>2026-07-19T08:11:23.367Z</time>
      </trkpt>
      <trkpt lat="48.82138" lon="2.35212">
        <ele>42.69173</ele>
        <time>2026-07-19T08:11:26.368Z</time>
      </trkpt>
      <trkpt lat="48.82138" lon="2.35207">
        <ele>42.73089</ele>
        <time>2026-07-19T08:11:29.368Z</time>
      </trkpt>
      <trkpt lat="48.82138" lon="2.35203">
        <ele>42.77319</ele>
        <time>2026-07-19T08:11:32.368Z</time>
      </trkpt>
      <trkpt lat="48.82137" lon="2.35198">
        <ele>42.81827</ele>
        <time>2026-07-19T08:11:35.368Z</time>
      </trkpt>
      <trkpt lat="48.82137" lon="2.35194">
        <ele>42.84807</ele>
        <time>2026-07-19T08:11:37.368Z</time>
      </trkpt>
      <trkpt lat="48.82137" lon="2.3519">
        <ele>42.8792</ele>
        <time>2026-07-19T08:11:39.368Z</time>
      </trkpt>
      <trkpt lat="48.82137" lon="2.35186">
        <ele>42.9086</ele>
        <time>2026-07-19T08:11:41.368Z</time>
      </trkpt>
      <trkpt lat="48.82137" lon="2.35182">
        <ele>42.93851</ele>
        <time>2026-07-19T08:11:43.369Z</time>
      </trkpt>
      <trkpt lat="48.82137" lon="2.35178">
        <ele>42.97274</ele>
        <time>2026-07-19T08:11:45.369Z</time>
      </trkpt>
      <trkpt lat="48.82137" lon="2.35175">
        <ele>43.00362</ele>
        <time>2026-07-19T08:11:47.368Z</time>
      </trkpt>
      <trkpt lat="48.82136" lon="2.35171">
        <ele>43.0402</ele>
        <time>2026-07-19T08:11:49.369Z</time>
      </trkpt>
      <trkpt lat="48.82136" lon="2.35167">
        <ele>43.072</ele>
        <time>2026-07-19T08:11:51.368Z</time>
      </trkpt>
      <trkpt lat="48.82138" lon="2.35165">
        <ele>43.09583</ele>
        <time>2026-07-19T08:11:53.368Z</time>
      </trkpt>
      <trkpt lat="48.82139" lon="2.35161">
        <ele>43.12317</ele>
        <time>2026-07-19T08:11:55.369Z</time>
      </trkpt>
      <trkpt lat="48.82139" lon="2.35157">
        <ele>43.15132</ele>
        <time>2026-07-19T08:11:57.368Z</time>
      </trkpt>
      <trkpt lat="48.82139" lon="2.35154">
        <ele>43.17289</ele>
        <time>2026-07-19T08:11:59.369Z</time>
      </trkpt>
      <trkpt lat="48.8214" lon="2.35149">
        <ele>43.20491</ele>
        <time>2026-07-19T08:12:02.369Z</time>
      </trkpt>
      <trkpt lat="48.82141" lon="2.35145">
        <ele>43.245</ele>
        <time>2026-07-19T08:12:05.369Z</time>
      </trkpt>
      <trkpt lat="48.82142" lon="2.35141">
        <ele>43.26955</ele>
        <time>2026-07-19T08:12:08.369Z</time>
      </trkpt>
      <trkpt lat="48.82141" lon="2.35136">
        <ele>43.28987</ele>
        <time>2026-07-19T08:12:10.369Z</time>
      </trkpt>
      <trkpt lat="48.8214" lon="2.35132">
        <ele>43.29855</ele>
        <time>2026-07-19T08:12:12.369Z</time>
      </trkpt>
      <trkpt lat="48.8214" lon="2.35128">
        <ele>43.29799</ele>
        <time>2026-07-19T08:12:14.369Z</time>
      </trkpt>
      <trkpt lat="48.8214" lon="2.35124">
        <ele>43.30155</ele>
        <time>2026-07-19T08:12:16.368Z</time>
      </trkpt>
      <trkpt lat="48.8214" lon="2.3512">
        <ele>43.31733</ele>
        <time>2026-07-19T08:12:18.369Z</time>
      </trkpt>
      <trkpt lat="48.8214" lon="2.35116">
        <ele>43.34696</ele>
        <time>2026-07-19T08:12:21.369Z</time>
      </trkpt>
      <trkpt lat="48.8214" lon="2.35112">
        <ele>43.36396</ele>
        <time>2026-07-19T08:12:23.369Z</time>
      </trkpt>
      <trkpt lat="48.8214" lon="2.35107">
        <ele>43.41266</ele>
        <time>2026-07-19T08:12:25.369Z</time>
      </trkpt>
      <trkpt lat="48.8214" lon="2.35103">
        <ele>43.51397</ele>
        <time>2026-07-19T08:12:27.369Z</time>
      </trkpt>
      <trkpt lat="48.8214" lon="2.35099">
        <ele>43.74098</ele>
        <time>2026-07-19T08:12:30.370Z</time>
      </trkpt>
      <trkpt lat="48.8214" lon="2.35094">
        <ele>43.97384</ele>
        <time>2026-07-19T08:12:33.369Z</time>
      </trkpt>
      <trkpt lat="48.8214" lon="2.35089">
        <ele>44.13791</ele>
        <time>2026-07-19T08:12:36.369Z</time>
      </trkpt>
      <trkpt lat="48.82139" lon="2.35086">
        <ele>44.19989</ele>
        <time>2026-07-19T08:12:38.369Z</time>
      </trkpt>
      <trkpt lat="48.82139" lon="2.35082">
        <ele>44.23909</ele>
        <time>2026-07-19T08:12:40.370Z</time>
      </trkpt>
      <trkpt lat="48.82138" lon="2.35078">
        <ele>44.26455</ele>
        <time>2026-07-19T08:12:42.369Z</time>
      </trkpt>
      <trkpt lat="48.82138" lon="2.35073">
        <ele>44.27788</ele>
        <time>2026-07-19T08:12:45.370Z</time>
      </trkpt>
      <trkpt lat="48.82138" lon="2.35069">
        <ele>44.27418</ele>
        <time>2026-07-19T08:12:47.369Z</time>
      </trkpt>
      <trkpt lat="48.82138" lon="2.35065">
        <ele>44.25875</ele>
        <time>2026-07-19T08:12:49.370Z</time>
      </trkpt>
      <trkpt lat="48.82138" lon="2.35061">
        <ele>44.23451</ele>
        <time>2026-07-19T08:12:52.370Z</time>
      </trkpt>
      <trkpt lat="48.82138" lon="2.35056">
        <ele>44.21054</ele>
        <time>2026-07-19T08:12:55.370Z</time>
      </trkpt>
      <trkpt lat="48.82139" lon="2.35052">
        <ele>44.19541</ele>
        <time>2026-07-19T08:12:58.369Z</time>
      </trkpt>
      <trkpt lat="48.82139" lon="2.35048">
        <ele>44.19394</ele>
        <time>2026-07-19T08:13:00.370Z</time>
      </trkpt>
      <trkpt lat="48.82141" lon="2.35047">
        <ele>44.17572</ele>
        <time>2026-07-19T08:13:04.370Z</time>
      </trkpt>
      <trkpt lat="48.82144" lon="2.35048">
        <ele>44.16816</ele>
        <time>2026-07-19T08:13:06.370Z</time>
      </trkpt>
      <trkpt lat="48.82147" lon="2.35049">
        <ele>44.16435</ele>
        <time>2026-07-19T08:13:09.370Z</time>
      </trkpt>
      <trkpt lat="48.82149" lon="2.35047">
        <ele>44.16428</ele>
        <time>2026-07-19T08:13:13.370Z</time>
      </trkpt>
      <trkpt lat="48.82151" lon="2.35044">
        <ele>44.16572</ele>
        <time>2026-07-19T08:13:16.370Z</time>
      </trkpt>
      <trkpt lat="48.82152" lon="2.3504">
        <ele>44.17363</ele>
        <time>2026-07-19T08:13:19.370Z</time>
      </trkpt>
      <trkpt lat="48.82153" lon="2.35035">
        <ele>44.17525</ele>
        <time>2026-07-19T08:13:21.371Z</time>
      </trkpt>
      <trkpt lat="48.82154" lon="2.35031">
        <ele>44.17467</ele>
        <time>2026-07-19T08:13:23.370Z</time>
      </trkpt>
      <trkpt lat="48.82155" lon="2.35027">
        <ele>44.17444</ele>
        <time>2026-07-19T08:13:24.370Z</time>
      </trkpt>
      <trkpt lat="48.82153" lon="2.35024">
        <ele>44.17968</ele>
        <time>2026-07-19T08:13:26.370Z</time>
      </trkpt>
      <trkpt lat="48.82154" lon="2.35019">
        <ele>44.18949</ele>
        <time>2026-07-19T08:13:28.370Z</time>
      </trkpt>
      <trkpt lat="48.82154" lon="2.35015">
        <ele>44.21682</ele>
        <time>2026-07-19T08:13:31.371Z</time>
      </trkpt>
      <trkpt lat="48.82153" lon="2.35011">
        <ele>44.25483</ele>
        <time>2026-07-19T08:13:35.371Z</time>
      </trkpt>
      <trkpt lat="48.82151" lon="2.35008">
        <ele>44.32807</ele>
        <time>2026-07-19T08:13:38.370Z</time>
      </trkpt>
      <trkpt lat="48.8215" lon="2.35004">
        <ele>44.40505</ele>
        <time>2026-07-19T08:13:40.371Z</time>
      </trkpt>
      <trkpt lat="48.82151" lon="2.35001">
        <ele>44.53205</ele>
        <time>2026-07-19T08:13:42.371Z</time>
      </trkpt>
      <trkpt lat="48.82152" lon="2.34997">
        <ele>44.777</ele>
        <time>2026-07-19T08:13:45.371Z</time>
      </trkpt>
      <trkpt lat="48.82151" lon="2.34992">
        <ele>44.99166</ele>
        <time>2026-07-19T08:13:48.371Z</time>
      </trkpt>
      <trkpt lat="48.82151" lon="2.34989">
        <ele>45.19348</ele>
        <time>2026-07-19T08:13:51.371Z</time>
      </trkpt>
      <trkpt lat="48.8215" lon="2.34983">
        <ele>45.30105</ele>
        <time>2026-07-19T08:13:54.371Z</time>
      </trkpt>
      <trkpt lat="48.8215" lon="2.3498">
        <ele>45.33943</ele>
        <time>2026-07-19T08:13:55.372Z</time>
      </trkpt>
      <trkpt lat="48.8215" lon="2.34974">
        <ele>45.3831</ele>
        <time>2026-07-19T08:13:57.371Z</time>
      </trkpt>
      <trkpt lat="48.8215" lon="2.34969">
        <ele>45.398</ele>
        <time>2026-07-19T08:13:59.371Z</time>
      </trkpt>
      <trkpt lat="48.8215" lon="2.34965">
        <ele>45.40985</ele>
        <time>2026-07-19T08:14:01.372Z</time>
      </trkpt>
      <trkpt lat="48.8215" lon="2.34961">
        <ele>45.42308</ele>
        <time>2026-07-19T08:14:03.371Z</time>
      </trkpt>
      <trkpt lat="48.8215" lon="2.34957">
        <ele>45.43765</ele>
        <time>2026-07-19T08:14:06.371Z</time>
      </trkpt>
      <trkpt lat="48.8215" lon="2.34953">
        <ele>45.42751</ele>
        <time>2026-07-19T08:14:09.372Z</time>
      </trkpt>
      <trkpt lat="48.82149" lon="2.34948">
        <ele>45.42925</ele>
        <time>2026-07-19T08:14:12.372Z</time>
      </trkpt>
      <trkpt lat="48.82149" lon="2.34944">
        <ele>45.42912</ele>
        <time>2026-07-19T08:14:15.371Z</time>
      </trkpt>
      <trkpt lat="48.82149" lon="2.3494">
        <ele>45.43486</ele>
        <time>2026-07-19T08:14:18.371Z</time>
      </trkpt>
      <trkpt lat="48.8215" lon="2.34935">
        <ele>45.43714</ele>
        <time>2026-07-19T08:14:21.372Z</time>
      </trkpt>
      <trkpt lat="48.8215" lon="2.3493">
        <ele>45.44636</ele>
        <time>2026-07-19T08:14:24.372Z</time>
      </trkpt>
      <trkpt lat="48.8215" lon="2.34926">
        <ele>45.45596</ele>
        <time>2026-07-19T08:14:26.371Z</time>
      </trkpt>
      <trkpt lat="48.8215" lon="2.34922">
        <ele>45.4733</ele>
        <time>2026-07-19T08:14:29.372Z</time>
      </trkpt>
      <trkpt lat="48.8215" lon="2.34917">
        <ele>45.48627</ele>
        <time>2026-07-19T08:14:31.372Z</time>
      </trkpt>
      <trkpt lat="48.8215" lon="2.34914">
        <ele>45.50785</ele>
        <time>2026-07-19T08:14:34.372Z</time>
      </trkpt>
      <trkpt lat="48.8215" lon="2.3491">
        <ele>45.53529</ele>
        <time>2026-07-19T08:14:37.371Z</time>
      </trkpt>
      <trkpt lat="48.8215" lon="2.34906">
        <ele>45.56011</ele>
        <time>2026-07-19T08:14:40.372Z</time>
      </trkpt>
      <trkpt lat="48.8215" lon="2.34901">
        <ele>45.58012</ele>
        <time>2026-07-19T08:14:43.373Z</time>
      </trkpt>
      <trkpt lat="48.8215" lon="2.34897">
        <ele>45.59612</ele>
        <time>2026-07-19T08:14:46.372Z</time>
      </trkpt>
      <trkpt lat="48.8215" lon="2.34892">
        <ele>45.60602</ele>
        <time>2026-07-19T08:14:50.372Z</time>
      </trkpt>
      <trkpt lat="48.8215" lon="2.34888">
        <ele>45.60964</ele>
        <time>2026-07-19T08:14:54.372Z</time>
      </trkpt>
      <trkpt lat="48.8215" lon="2.34885">
        <ele>45.60883</ele>
        <time>2026-07-19T08:14:57.373Z</time>
      </trkpt>
      <trkpt lat="48.8215" lon="2.34881">
        <ele>45.60819</ele>
        <time>2026-07-19T08:14:59.373Z</time>
      </trkpt>
      <trkpt lat="48.8215" lon="2.34877">
        <ele>45.60712</ele>
        <time>2026-07-19T08:15:01.372Z</time>
      </trkpt>
      <trkpt lat="48.82151" lon="2.34873">
        <ele>45.6124</ele>
        <time>2026-07-19T08:15:03.372Z</time>
      </trkpt>
      <trkpt lat="48.82152" lon="2.3487">
        <ele>45.63346</ele>
        <time>2026-07-19T08:15:05.372Z</time>
      </trkpt>
      <trkpt lat="48.82151" lon="2.34866">
        <ele>45.68414</ele>
        <time>2026-07-19T08:15:07.372Z</time>
      </trkpt>
      <trkpt lat="48.82151" lon="2.34861">
        <ele>45.84946</ele>
        <time>2026-07-19T08:15:10.373Z</time>
      </trkpt>
      <trkpt lat="48.82151" lon="2.34858">
        <ele>46.04284</ele>
        <time>2026-07-19T08:15:12.372Z</time>
      </trkpt>
      <trkpt lat="48.82151" lon="2.34853">
        <ele>46.44552</ele>
        <time>2026-07-19T08:15:15.373Z</time>
      </trkpt>
      <trkpt lat="48.8215" lon="2.34849">
        <ele>46.78503</ele>
        <time>2026-07-19T08:15:17.372Z</time>
      </trkpt>
      <trkpt lat="48.8215" lon="2.34846">
        <ele>47.16474</ele>
        <time>2026-07-19T08:15:19.373Z</time>
      </trkpt>
      <trkpt lat="48.8215" lon="2.34841">
        <ele>47.7539</ele>
        <time>2026-07-19T08:15:22.372Z</time>
      </trkpt>
      <trkpt lat="48.8215" lon="2.34837">
        <ele>48.39803</ele>
        <time>2026-07-19T08:15:25.373Z</time>
      </trkpt>
      <trkpt lat="48.8215" lon="2.34832">
        <ele>48.99187</ele>
        <time>2026-07-19T08:15:28.373Z</time>
      </trkpt>
      <trkpt lat="48.8215" lon="2.34827">
        <ele>49.60981</ele>
        <time>2026-07-19T08:15:32.373Z</time>
      </trkpt>
      <trkpt lat="48.82149" lon="2.34823">
        <ele>49.94582</ele>
        <time>2026-07-19T08:15:35.373Z</time>
      </trkpt>
      <trkpt lat="48.82148" lon="2.3482">
        <ele>50.23485</ele>
        <time>2026-07-19T08:15:38.372Z</time>
      </trkpt>
      <trkpt lat="48.82145" lon="2.34818">
        <ele>50.41455</ele>
        <time>2026-07-19T08:15:41.373Z</time>
      </trkpt>
      <trkpt lat="48.82143" lon="2.34818">
        <ele>50.52614</ele>
        <time>2026-07-19T08:15:44.373Z</time>
      </trkpt>
      <trkpt lat="48.8214" lon="2.34818">
        <ele>50.57719</ele>
        <time>2026-07-19T08:15:47.373Z</time>
      </trkpt>
      <trkpt lat="48.82137" lon="2.34817">
        <ele>50.63509</ele>
        <time>2026-07-19T08:15:50.373Z</time>
      </trkpt>
      <trkpt lat="48.82134" lon="2.34817">
        <ele>50.72274</ele>
        <time>2026-07-19T08:15:54.373Z</time>
      </trkpt>
      <trkpt lat="48.82132" lon="2.34817">
        <ele>50.78027</ele>
        <time>2026-07-19T08:15:56.375Z</time>
      </trkpt>
      <trkpt lat="48.82129" lon="2.34816">
        <ele>50.85732</ele>
        <time>2026-07-19T08:15:58.374Z</time>
      </trkpt>
      <trkpt lat="48.82129" lon="2.34812">
        <ele>50.97108</ele>
        <time>2026-07-19T08:16:02.374Z</time>
      </trkpt>
      <trkpt lat="48.8213" lon="2.34807">
        <ele>50.98523</ele>
        <time>2026-07-19T08:16:05.374Z</time>
      </trkpt>
      <trkpt lat="48.82129" lon="2.34803">
        <ele>50.97917</ele>
        <time>2026-07-19T08:16:08.375Z</time>
      </trkpt>
      <trkpt lat="48.82129" lon="2.34799">
        <ele>50.9581</ele>
        <time>2026-07-19T08:16:11.373Z</time>
      </trkpt>
      <trkpt lat="48.82129" lon="2.34795">
        <ele>50.94659</ele>
        <time>2026-07-19T08:16:13.375Z</time>
      </trkpt>
      <trkpt lat="48.82129" lon="2.34791">
        <ele>50.9259</ele>
        <time>2026-07-19T08:16:16.373Z</time>
      </trkpt>
      <trkpt lat="48.82129" lon="2.34787">
        <ele>50.89989</ele>
        <time>2026-07-19T08:16:19.374Z</time>
      </trkpt>
      <trkpt lat="48.82129" lon="2.34783">
        <ele>50.86716</ele>
        <time>2026-07-19T08:16:23.375Z</time>
      </trkpt>
      <trkpt lat="48.82129" lon="2.34779">
        <ele>50.83676</ele>
        <time>2026-07-19T08:16:26.375Z</time>
      </trkpt>
      <trkpt lat="48.82129" lon="2.34774">
        <ele>50.80347</ele>
        <time>2026-07-19T08:16:29.374Z</time>
      </trkpt>
      <trkpt lat="48.82129" lon="2.34769">
        <ele>50.77414</ele>
        <time>2026-07-19T08:16:32.374Z</time>
      </trkpt>
      <trkpt lat="48.82128" lon="2.34765">
        <ele>50.74413</ele>
        <time>2026-07-19T08:16:35.375Z</time>
      </trkpt>
      <trkpt lat="48.82128" lon="2.34761">
        <ele>50.72038</ele>
        <time>2026-07-19T08:16:37.374Z</time>
      </trkpt>
      <trkpt lat="48.82128" lon="2.34756">
        <ele>50.69304</ele>
        <time>2026-07-19T08:16:39.374Z</time>
      </trkpt>
      <trkpt lat="48.82128" lon="2.34752">
        <ele>50.66471</ele>
        <time>2026-07-19T08:16:41.376Z</time>
      </trkpt>
      <trkpt lat="48.82128" lon="2.34747">
        <ele>50.62642</ele>
        <time>2026-07-19T08:16:44.375Z</time>
      </trkpt>
      <trkpt lat="48.82128" lon="2.34743">
        <ele>50.5997</ele>
        <time>2026-07-19T08:16:46.375Z</time>
      </trkpt>
      <trkpt lat="48.82128" lon="2.34739">
        <ele>50.58084</ele>
        <time>2026-07-19T08:16:48.375Z</time>
      </trkpt>
      <trkpt lat="48.82129" lon="2.34736">
        <ele>50.56313</ele>
        <time>2026-07-19T08:16:51.375Z</time>
      </trkpt>
      <trkpt lat="48.82128" lon="2.34731">
        <ele>50.5463</ele>
        <time>2026-07-19T08:16:54.375Z</time>
      </trkpt>
      <trkpt lat="48.82128" lon="2.34727">
        <ele>50.53837</ele>
        <time>2026-07-19T08:16:56.374Z</time>
      </trkpt>
      <trkpt lat="48.82128" lon="2.34723">
        <ele>50.5335</ele>
        <time>2026-07-19T08:16:59.375Z</time>
      </trkpt>
      <trkpt lat="48.82128" lon="2.34719">
        <ele>50.53098</ele>
        <time>2026-07-19T08:17:01.375Z</time>
      </trkpt>
      <trkpt lat="48.82128" lon="2.34715">
        <ele>50.53297</ele>
        <time>2026-07-19T08:17:03.375Z</time>
      </trkpt>
      <trkpt lat="48.82127" lon="2.34712">
        <ele>50.5346</ele>
        <time>2026-07-19T08:17:05.375Z</time>
      </trkpt>
      <trkpt lat="48.82127" lon="2.34707">
        <ele>50.53729</ele>
        <time>2026-07-19T08:17:07.376Z</time>
      </trkpt>
      <trkpt lat="48.82127" lon="2.34702">
        <ele>50.5413</ele>
        <time>2026-07-19T08:17:10.375Z</time>
      </trkpt>
      <trkpt lat="48.82127" lon="2.34699">
        <ele>50.54026</ele>
        <time>2026-07-19T08:17:13.375Z</time>
      </trkpt>
      <trkpt lat="48.82127" lon="2.34694">
        <ele>50.53598</ele>
        <time>2026-07-19T08:17:16.375Z</time>
      </trkpt>
      <trkpt lat="48.82126" lon="2.34689">
        <ele>50.53142</ele>
        <time>2026-07-19T08:17:19.376Z</time>
      </trkpt>
      <trkpt lat="48.82126" lon="2.34685">
        <ele>50.52603</ele>
        <time>2026-07-19T08:17:22.375Z</time>
      </trkpt>
      <trkpt lat="48.82126" lon="2.34679">
        <ele>50.52255</ele>
        <time>2026-07-19T08:17:25.375Z</time>
      </trkpt>
      <trkpt lat="48.82126" lon="2.34675">
        <ele>50.52306</ele>
        <time>2026-07-19T08:17:28.375Z</time>
      </trkpt>
      <trkpt lat="48.82127" lon="2.34671">
        <ele>50.52328</ele>
        <time>2026-07-19T08:17:31.375Z</time>
      </trkpt>
      <trkpt lat="48.82127" lon="2.34666">
        <ele>50.52359</ele>
        <time>2026-07-19T08:17:34.376Z</time>
      </trkpt>
      <trkpt lat="48.82127" lon="2.34661">
        <ele>50.52636</ele>
        <time>2026-07-19T08:17:37.541Z</time>
      </trkpt>
      <trkpt lat="48.82126" lon="2.34657">
        <ele>50.53044</ele>
        <time>2026-07-19T08:17:40.376Z</time>
      </trkpt>
      <trkpt lat="48.82125" lon="2.34654">
        <ele>50.53388</ele>
        <time>2026-07-19T08:17:43.375Z</time>
      </trkpt>
      <trkpt lat="48.82123" lon="2.34651">
        <ele>50.53372</ele>
        <time>2026-07-19T08:17:46.376Z</time>
      </trkpt>
      <trkpt lat="48.8212" lon="2.34651">
        <ele>50.53186</ele>
        <time>2026-07-19T08:17:50.376Z</time>
      </trkpt>
      <trkpt lat="48.82118" lon="2.3465">
        <ele>50.5312</ele>
        <time>2026-07-19T08:17:52.375Z</time>
      </trkpt>
      <trkpt lat="48.82115" lon="2.3465">
        <ele>50.53053</ele>
        <time>2026-07-19T08:17:54.376Z</time>
      </trkpt>
      <trkpt lat="48.82112" lon="2.34649">
        <ele>50.52976</ele>
        <time>2026-07-19T08:17:56.375Z</time>
      </trkpt>
      <trkpt lat="48.8211" lon="2.34649">
        <ele>50.52719</ele>
        <time>2026-07-19T08:17:59.377Z</time>
      </trkpt>
      <trkpt lat="48.82107" lon="2.34648">
        <ele>50.52447</ele>
        <time>2026-07-19T08:18:02.378Z</time>
      </trkpt>
      <trkpt lat="48.82105" lon="2.34649">
        <ele>50.52294</ele>
        <time>2026-07-19T08:18:09.377Z</time>
      </trkpt>
      <trkpt lat="48.82103" lon="2.34648">
        <ele>50.52492</ele>
        <time>2026-07-19T08:18:14.377Z</time>
      </trkpt>
      <trkpt lat="48.82101" lon="2.34644">
        <ele>50.52723</ele>
        <time>2026-07-19T08:18:17.376Z</time>
      </trkpt>
      <trkpt lat="48.821" lon="2.34641">
        <ele>50.52878</ele>
        <time>2026-07-19T08:18:19.377Z</time>
      </trkpt>
      <trkpt lat="48.82096" lon="2.3464">
        <ele>50.53339</ele>
        <time>2026-07-19T08:18:21.376Z</time>
      </trkpt>
      <trkpt lat="48.82093" lon="2.34641">
        <ele>50.53545</ele>
        <time>2026-07-19T08:18:23.376Z</time>
      </trkpt>
      <trkpt lat="48.8209" lon="2.34639">
        <ele>50.53981</ele>
        <time>2026-07-19T08:18:26.377Z</time>
      </trkpt>
      <trkpt lat="48.82087" lon="2.34642">
        <ele>50.54741</ele>
        <time>2026-07-19T08:18:29.376Z</time>
      </trkpt>
      <trkpt lat="48.82085" lon="2.34642">
        <ele>50.55898</ele>
        <time>2026-07-19T08:18:31.377Z</time>
      </trkpt>
      <trkpt lat="48.82082" lon="2.34642">
        <ele>50.57132</ele>
        <time>2026-07-19T08:18:33.376Z</time>
      </trkpt>
      <trkpt lat="48.8208" lon="2.34641">
        <ele>50.58954</ele>
        <time>2026-07-19T08:18:35.378Z</time>
      </trkpt>
      <trkpt lat="48.82077" lon="2.34641">
        <ele>50.63179</ele>
        <time>2026-07-19T08:18:40.377Z</time>
      </trkpt>
      <trkpt lat="48.82075" lon="2.34637">
        <ele>50.64948</ele>
        <time>2026-07-19T08:18:42.377Z</time>
      </trkpt>
      <trkpt lat="48.82073" lon="2.34638">
        <ele>50.66452</ele>
        <time>2026-07-19T08:18:44.377Z</time>
      </trkpt>
      <trkpt lat="48.8207" lon="2.34639">
        <ele>50.6822</ele>
        <time>2026-07-19T08:18:46.377Z</time>
      </trkpt>
      <trkpt lat="48.82067" lon="2.3464">
        <ele>50.70353</ele>
        <time>2026-07-19T08:18:48.377Z</time>
      </trkpt>
      <trkpt lat="48.82065" lon="2.3464">
        <ele>50.71887</ele>
        <time>2026-07-19T08:18:50.377Z</time>
      </trkpt>
      <trkpt lat="48.82062" lon="2.34637">
        <ele>50.74133</ele>
        <time>2026-07-19T08:18:52.378Z</time>
      </trkpt>
      <trkpt lat="48.82061" lon="2.34635">
        <ele>50.76625</ele>
        <time>2026-07-19T08:18:55.377Z</time>
      </trkpt>
      <trkpt lat="48.82059" lon="2.34632">
        <ele>50.78414</ele>
        <time>2026-07-19T08:18:57.377Z</time>
      </trkpt>
      <trkpt lat="48.82057" lon="2.34634">
        <ele>50.80464</ele>
        <time>2026-07-19T08:19:00.377Z</time>
      </trkpt>
      <trkpt lat="48.82055" lon="2.34631">
        <ele>50.82378</ele>
        <time>2026-07-19T08:19:02.378Z</time>
      </trkpt>
      <trkpt lat="48.82052" lon="2.34629">
        <ele>50.84083</ele>
        <time>2026-07-19T08:19:06.377Z</time>
      </trkpt>
      <trkpt lat="48.8205" lon="2.34627">
        <ele>50.86039</ele>
        <time>2026-07-19T08:19:08.377Z</time>
      </trkpt>
      <trkpt lat="48.82048" lon="2.34627">
        <ele>50.87138</ele>
        <time>2026-07-19T08:19:09.377Z</time>
      </trkpt>
      <trkpt lat="48.82045" lon="2.34626">
        <ele>50.89666</ele>
        <time>2026-07-19T08:19:12.378Z</time>
      </trkpt>
      <trkpt lat="48.82042" lon="2.34625">
        <ele>50.92504</ele>
        <time>2026-07-19T08:19:14.378Z</time>
      </trkpt>
      <trkpt lat="48.82039" lon="2.34626">
        <ele>50.97986</ele>
        <time>2026-07-19T08:19:17.378Z</time>
      </trkpt>
      <trkpt lat="48.82038" lon="2.34622">
        <ele>50.99731</ele>
        <time>2026-07-19T08:19:18.378Z</time>
      </trkpt>
      <trkpt lat="48.82035" lon="2.34625">
        <ele>51.04485</ele>
        <time>2026-07-19T08:19:20.378Z</time>
      </trkpt>
      <trkpt lat="48.82033" lon="2.34627">
        <ele>51.09518</ele>
        <time>2026-07-19T08:19:22.377Z</time>
      </trkpt>
      <trkpt lat="48.8203" lon="2.34627">
        <ele>51.15492</ele>
        <time>2026-07-19T08:19:25.379Z</time>
      </trkpt>
      <trkpt lat="48.82028" lon="2.34629">
        <ele>51.23095</ele>
        <time>2026-07-19T08:19:28.379Z</time>
      </trkpt>
      <trkpt lat="48.82025" lon="2.34627">
        <ele>51.30332</ele>
        <time>2026-07-19T08:19:31.378Z</time>
      </trkpt>
      <trkpt lat="48.82022" lon="2.34625">
        <ele>51.3552</ele>
        <time>2026-07-19T08:19:33.378Z</time>
      </trkpt>
      <trkpt lat="48.8202" lon="2.34625">
        <ele>51.41318</ele>
        <time>2026-07-19T08:19:36.378Z</time>
      </trkpt>
      <trkpt lat="48.82017" lon="2.34624">
        <ele>51.47341</ele>
        <time>2026-07-19T08:19:38.378Z</time>
      </trkpt>
      <trkpt lat="48.82014" lon="2.34623">
        <ele>51.55851</ele>
        <time>2026-07-19T08:19:41.378Z</time>
      </trkpt>
      <trkpt lat="48.82012" lon="2.34623">
        <ele>51.63207</ele>
        <time>2026-07-19T08:19:43.378Z</time>
      </trkpt>
      <trkpt lat="48.82009" lon="2.34623">
        <ele>51.7481</ele>
        <time>2026-07-19T08:19:46.379Z</time>
      </trkpt>
      <trkpt lat="48.82007" lon="2.34621">
        <ele>51.82929</ele>
        <time>2026-07-19T08:19:48.378Z</time>
      </trkpt>
      <trkpt lat="48.82005" lon="2.3462">
        <ele>51.9615</ele>
        <time>2026-07-19T08:19:51.379Z</time>
      </trkpt>
      <trkpt lat="48.82001" lon="2.34622">
        <ele>52.11274</ele>
        <time>2026-07-19T08:19:54.378Z</time>
      </trkpt>
      <trkpt lat="48.81998" lon="2.34623">
        <ele>52.25974</ele>
        <time>2026-07-19T08:19:57.378Z</time>
      </trkpt>
      <trkpt lat="48.81995" lon="2.34622">
        <ele>52.36283</ele>
        <time>2026-07-19T08:19:59.378Z</time>
      </trkpt>
      <trkpt lat="48.81993" lon="2.34619">
        <ele>52.48737</ele>
        <time>2026-07-19T08:20:02.378Z</time>
      </trkpt>
      <trkpt lat="48.8199" lon="2.34616">
        <ele>52.55554</ele>
        <time>2026-07-19T08:20:04.378Z</time>
      </trkpt>
      <trkpt lat="48.81987" lon="2.34614">
        <ele>52.61628</ele>
        <time>2026-07-19T08:20:06.379Z</time>
      </trkpt>
      <trkpt lat="48.81985" lon="2.34611">
        <ele>52.78606</ele>
        <time>2026-07-19T08:20:10.379Z</time>
      </trkpt>
      <trkpt lat="48.81983" lon="2.34609">
        <ele>52.87993</ele>
        <time>2026-07-19T08:20:12.379Z</time>
      </trkpt>
      <trkpt lat="48.81982" lon="2.34605">
        <ele>53.01899</ele>
        <time>2026-07-19T08:20:15.379Z</time>
      </trkpt>
      <trkpt lat="48.8198" lon="2.34601">
        <ele>53.18786</ele>
        <time>2026-07-19T08:20:18.379Z</time>
      </trkpt>
      <trkpt lat="48.81979" lon="2.34597">
        <ele>53.33427</ele>
        <time>2026-07-19T08:20:20.379Z</time>
      </trkpt>
      <trkpt lat="48.81978" lon="2.34593">
        <ele>53.63766</ele>
        <time>2026-07-19T08:20:23.379Z</time>
      </trkpt>
      <trkpt lat="48.81978" lon="2.34589">
        <ele>54.00339</ele>
        <time>2026-07-19T08:20:26.380Z</time>
      </trkpt>
      <trkpt lat="48.81977" lon="2.34584">
        <ele>54.38868</ele>
        <time>2026-07-19T08:20:29.380Z</time>
      </trkpt>
      <trkpt lat="48.81976" lon="2.34581">
        <ele>54.78245</ele>
        <time>2026-07-19T08:20:32.380Z</time>
      </trkpt>
      <trkpt lat="48.81975" lon="2.34578">
        <ele>55.15873</ele>
        <time>2026-07-19T08:20:35.380Z</time>
      </trkpt>
      <trkpt lat="48.81973" lon="2.34574">
        <ele>55.54146</ele>
        <time>2026-07-19T08:20:38.379Z</time>
      </trkpt>
      <trkpt lat="48.81972" lon="2.3457">
        <ele>55.78168</ele>
        <time>2026-07-19T08:20:40.379Z</time>
      </trkpt>
      <trkpt lat="48.81971" lon="2.34565">
        <ele>55.99085</ele>
        <time>2026-07-19T08:20:42.380Z</time>
      </trkpt>
      <trkpt lat="48.8197" lon="2.34562">
        <ele>56.29305</ele>
        <time>2026-07-19T08:20:45.380Z</time>
      </trkpt>
      <trkpt lat="48.81968" lon="2.34558">
        <ele>56.53885</ele>
        <time>2026-07-19T08:20:48.380Z</time>
      </trkpt>
      <trkpt lat="48.81968" lon="2.34554">
        <ele>56.8029</ele>
        <time>2026-07-19T08:20:52.379Z</time>
      </trkpt>
      <trkpt lat="48.81968" lon="2.3455">
        <ele>57.08609</ele>
        <time>2026-07-19T08:20:56.380Z</time>
      </trkpt>
      <trkpt lat="48.81967" lon="2.34547">
        <ele>57.41858</ele>
        <time>2026-07-19T08:21:01.381Z</time>
      </trkpt>
      <trkpt lat="48.81965" lon="2.34543">
        <ele>57.54875</ele>
        <time>2026-07-19T08:21:06.380Z</time>
      </trkpt>
      <trkpt lat="48.81965" lon="2.34539">
        <ele>57.60394</ele>
        <time>2026-07-19T08:21:09.381Z</time>
      </trkpt>
      <trkpt lat="48.81963" lon="2.34536">
        <ele>57.68277</ele>
        <time>2026-07-19T08:21:15.381Z</time>
      </trkpt>
      <trkpt lat="48.81964" lon="2.34532">
        <ele>57.72188</ele>
        <time>2026-07-19T08:21:20.380Z</time>
      </trkpt>
      <trkpt lat="48.81963" lon="2.34528">
        <ele>57.73477</ele>
        <time>2026-07-19T08:21:22.381Z</time>
      </trkpt>
      <trkpt lat="48.81962" lon="2.34526">
        <ele>57.77141</ele>
        <time>2026-07-19T08:21:26.380Z</time>
      </trkpt>
      <trkpt lat="48.81961" lon="2.34522">
        <ele>57.80333</ele>
        <time>2026-07-19T08:21:33.381Z</time>
      </trkpt>
      <trkpt lat="48.8196" lon="2.34518">
        <ele>57.82249</ele>
        <time>2026-07-19T08:22:04.381Z</time>
      </trkpt>
      <trkpt lat="48.8196" lon="2.34514">
        <ele>57.82158</ele>
        <time>2026-07-19T08:22:06.381Z</time>
      </trkpt>
      <trkpt lat="48.8196" lon="2.3451">
        <ele>57.81609</ele>
        <time>2026-07-19T08:22:10.381Z</time>
      </trkpt>
      <trkpt lat="48.81961" lon="2.34505">
        <ele>57.80651</ele>
        <time>2026-07-19T08:22:13.382Z</time>
      </trkpt>
      <trkpt lat="48.8196" lon="2.34501">
        <ele>57.79953</ele>
        <time>2026-07-19T08:22:15.381Z</time>
      </trkpt>
      <trkpt lat="48.8196" lon="2.34496">
        <ele>57.79203</ele>
        <time>2026-07-19T08:22:17.381Z</time>
      </trkpt>
      <trkpt lat="48.8196" lon="2.34492">
        <ele>57.78697</ele>
        <time>2026-07-19T08:22:19.381Z</time>
      </trkpt>
      <trkpt lat="48.8196" lon="2.34487">
        <ele>57.77955</ele>
        <time>2026-07-19T08:22:22.381Z</time>
      </trkpt>
      <trkpt lat="48.81959" lon="2.34483">
        <ele>57.77545</ele>
        <time>2026-07-19T08:22:24.381Z</time>
      </trkpt>
      <trkpt lat="48.81957" lon="2.34481">
        <ele>57.77127</ele>
        <time>2026-07-19T08:22:28.381Z</time>
      </trkpt>
      <trkpt lat="48.81955" lon="2.34481">
        <ele>57.76788</ele>
        <time>2026-07-19T08:22:30.382Z</time>
      </trkpt>
      <trkpt lat="48.81953" lon="2.3448">
        <ele>57.76341</ele>
        <time>2026-07-19T08:22:32.381Z</time>
      </trkpt>
      <trkpt lat="48.81949" lon="2.3448">
        <ele>57.75609</ele>
        <time>2026-07-19T08:22:35.382Z</time>
      </trkpt>
      <trkpt lat="48.81946" lon="2.34479">
        <ele>57.74914</ele>
        <time>2026-07-19T08:22:38.382Z</time>
      </trkpt>
      <trkpt lat="48.81944" lon="2.34479">
        <ele>57.74147</ele>
        <time>2026-07-19T08:22:41.382Z</time>
      </trkpt>
      <trkpt lat="48.81941" lon="2.34479">
        <ele>57.73647</ele>
        <time>2026-07-19T08:22:43.382Z</time>
      </trkpt>
      <trkpt lat="48.81939" lon="2.34479">
        <ele>57.73134</ele>
        <time>2026-07-19T08:22:45.381Z</time>
      </trkpt>
      <trkpt lat="48.81936" lon="2.34479">
        <ele>57.72271</ele>
        <time>2026-07-19T08:22:48.382Z</time>
      </trkpt>
      <trkpt lat="48.81934" lon="2.34478">
        <ele>57.71537</ele>
        <time>2026-07-19T08:22:50.382Z</time>
      </trkpt>
      <trkpt lat="48.81931" lon="2.34478">
        <ele>57.70716</ele>
        <time>2026-07-19T08:22:52.382Z</time>
      </trkpt>
      <trkpt lat="48.81929" lon="2.34475">
        <ele>57.69395</ele>
        <time>2026-07-19T08:22:55.382Z</time>
      </trkpt>
      <trkpt lat="48.81927" lon="2.34474">
        <ele>57.67026</ele>
        <time>2026-07-19T08:22:58.382Z</time>
      </trkpt>
      <trkpt lat="48.81925" lon="2.34473">
        <ele>57.6327</ele>
        <time>2026-07-19T08:23:01.382Z</time>
      </trkpt>
      <trkpt lat="48.81923" lon="2.34471">
        <ele>57.56908</ele>
        <time>2026-07-19T08:23:04.383Z</time>
      </trkpt>
      <trkpt lat="48.81921" lon="2.34469">
        <ele>57.30707</ele>
        <time>2026-07-19T08:23:11.383Z</time>
      </trkpt>
      <trkpt lat="48.81921" lon="2.34465">
        <ele>56.38061</ele>
        <time>2026-07-19T08:24:09.383Z</time>
      </trkpt>
      <trkpt lat="48.81921" lon="2.34461">
        <ele>56.37541</ele>
        <time>2026-07-19T08:24:11.384Z</time>
      </trkpt>
      <trkpt lat="48.81922" lon="2.34457">
        <ele>56.37123</ele>
        <time>2026-07-19T08:24:12.384Z</time>
      </trkpt>
      <trkpt lat="48.81922" lon="2.34453">
        <ele>56.36071</ele>
        <time>2026-07-19T08:24:14.384Z</time>
      </trkpt>
      <trkpt lat="48.81922" lon="2.34449">
        <ele>56.35162</ele>
        <time>2026-07-19T08:24:16.383Z</time>
      </trkpt>
      <trkpt lat="48.81923" lon="2.34445">
        <ele>56.34248</ele>
        <time>2026-07-19T08:24:18.384Z</time>
      </trkpt>
      <trkpt lat="48.81923" lon="2.34441">
        <ele>56.33429</ele>
        <time>2026-07-19T08:24:20.384Z</time>
      </trkpt>
      <trkpt lat="48.81921" lon="2.34437">
        <ele>56.33117</ele>
        <time>2026-07-19T08:24:23.384Z</time>
      </trkpt>
      <trkpt lat="48.81918" lon="2.34434">
        <ele>56.33822</ele>
        <time>2026-07-19T08:24:26.384Z</time>
      </trkpt>
      <trkpt lat="48.81916" lon="2.34432">
        <ele>56.34457</ele>
        <time>2026-07-19T08:24:28.385Z</time>
      </trkpt>
      <trkpt lat="48.81913" lon="2.34432">
        <ele>56.36852</ele>
        <time>2026-07-19T08:24:32.385Z</time>
      </trkpt>
      <trkpt lat="48.8191" lon="2.34431">
        <ele>56.38035</ele>
        <time>2026-07-19T08:24:35.384Z</time>
      </trkpt>
      <trkpt lat="48.81907" lon="2.3443">
        <ele>56.39902</ele>
        <time>2026-07-19T08:24:41.385Z</time>
      </trkpt>
      <trkpt lat="48.81904" lon="2.3443">
        <ele>56.4003</ele>
        <time>2026-07-19T08:24:43.385Z</time>
      </trkpt>
      <trkpt lat="48.81902" lon="2.3443">
        <ele>56.39978</ele>
        <time>2026-07-19T08:24:45.385Z</time>
      </trkpt>
      <trkpt lat="48.819" lon="2.34427">
        <ele>56.60144</ele>
        <time>2026-07-19T08:25:11.385Z</time>
      </trkpt>
      <trkpt lat="48.819" lon="2.34424">
        <ele>57.0479</ele>
        <time>2026-07-19T08:25:37.386Z</time>
      </trkpt>
      <trkpt lat="48.81901" lon="2.3442">
        <ele>58.64786</ele>
        <time>2026-07-19T08:26:12.386Z</time>
      </trkpt>
      <trkpt lat="48.81901" lon="2.34417">
        <ele>59.59585</ele>
        <time>2026-07-19T08:26:56.388Z</time>
      </trkpt>
      <trkpt lat="48.81899" lon="2.34414">
        <ele>59.62655</ele>
        <time>2026-07-19T08:28:34.390Z</time>
      </trkpt>
      <trkpt lat="48.81899" lon="2.34419">
        <ele>59.61503</ele>
        <time>2026-07-19T08:29:03.390Z</time>
      </trkpt>
      <trkpt lat="48.81901" lon="2.34424">
        <ele>59.40273</ele>
        <time>2026-07-19T08:29:24.391Z</time>
      </trkpt>
      <trkpt lat="48.819" lon="2.34427">
        <ele>57.94317</ele>
        <time>2026-07-19T08:30:25.392Z</time>
      </trkpt>
      <trkpt lat="48.81902" lon="2.3443">
        <ele>59.00059</ele>
        <time>2026-07-19T08:33:41.396Z</time>
      </trkpt>
      <trkpt lat="48.81906" lon="2.34431">
        <ele>59.01077</ele>
        <time>2026-07-19T08:33:44.397Z</time>
      </trkpt>
      <trkpt lat="48.81908" lon="2.34431">
        <ele>59.00648</ele>
        <time>2026-07-19T08:33:46.397Z</time>
      </trkpt>
      <trkpt lat="48.81911" lon="2.34431">
        <ele>58.99621</ele>
        <time>2026-07-19T08:33:48.397Z</time>
      </trkpt>
      <trkpt lat="48.81913" lon="2.3443">
        <ele>58.98664</ele>
        <time>2026-07-19T08:33:50.396Z</time>
      </trkpt>
      <trkpt lat="48.81916" lon="2.34429">
        <ele>58.97916</ele>
        <time>2026-07-19T08:33:52.397Z</time>
      </trkpt>
      <trkpt lat="48.81918" lon="2.34428">
        <ele>58.97291</ele>
        <time>2026-07-19T08:33:54.397Z</time>
      </trkpt>
      <trkpt lat="48.8192" lon="2.34425">
        <ele>58.96596</ele>
        <time>2026-07-19T08:33:56.397Z</time>
      </trkpt>
      <trkpt lat="48.81922" lon="2.34424">
        <ele>58.95873</ele>
        <time>2026-07-19T08:33:58.397Z</time>
      </trkpt>
      <trkpt lat="48.81924" lon="2.34421">
        <ele>58.94694</ele>
        <time>2026-07-19T08:34:00.397Z</time>
      </trkpt>
      <trkpt lat="48.81926" lon="2.34419">
        <ele>58.9328</ele>
        <time>2026-07-19T08:34:02.397Z</time>
      </trkpt>
      <trkpt lat="48.81928" lon="2.34416">
        <ele>58.90558</ele>
        <time>2026-07-19T08:34:05.397Z</time>
      </trkpt>
      <trkpt lat="48.8193" lon="2.34412">
        <ele>58.85361</ele>
        <time>2026-07-19T08:34:08.397Z</time>
      </trkpt>
      <trkpt lat="48.81931" lon="2.34408">
        <ele>58.80548</ele>
        <time>2026-07-19T08:34:11.397Z</time>
      </trkpt>
      <trkpt lat="48.81932" lon="2.34405">
        <ele>58.73158</ele>
        <time>2026-07-19T08:34:14.397Z</time>
      </trkpt>
      <trkpt lat="48.81932" lon="2.34401">
        <ele>58.65367</ele>
        <time>2026-07-19T08:34:17.398Z</time>
      </trkpt>
      <trkpt lat="48.81932" lon="2.34397">
        <ele>58.60541</ele>
        <time>2026-07-19T08:34:19.398Z</time>
      </trkpt>
      <trkpt lat="48.81932" lon="2.34393">
        <ele>58.56592</ele>
        <time>2026-07-19T08:34:21.397Z</time>
      </trkpt>
      <trkpt lat="48.81932" lon="2.34389">
        <ele>58.53549</ele>
        <time>2026-07-19T08:34:23.398Z</time>
      </trkpt>
      <trkpt lat="48.81932" lon="2.34385">
        <ele>58.50916</ele>
        <time>2026-07-19T08:34:26.397Z</time>
      </trkpt>
      <trkpt lat="48.81931" lon="2.34381">
        <ele>58.49251</ele>
        <time>2026-07-19T08:34:29.397Z</time>
      </trkpt>
      <trkpt lat="48.81932" lon="2.34377">
        <ele>58.46745</ele>
        <time>2026-07-19T08:34:32.397Z</time>
      </trkpt>
      <trkpt lat="48.81931" lon="2.34372">
        <ele>58.43005</ele>
        <time>2026-07-19T08:34:35.398Z</time>
      </trkpt>
      <trkpt lat="48.81932" lon="2.34367">
        <ele>58.40091</ele>
        <time>2026-07-19T08:34:38.398Z</time>
      </trkpt>
      <trkpt lat="48.81932" lon="2.34364">
        <ele>58.38287</ele>
        <time>2026-07-19T08:34:40.397Z</time>
      </trkpt>
      <trkpt lat="48.81932" lon="2.34359">
        <ele>58.37348</ele>
        <time>2026-07-19T08:34:42.397Z</time>
      </trkpt>
      <trkpt lat="48.81933" lon="2.34354">
        <ele>58.36884</ele>
        <time>2026-07-19T08:34:45.398Z</time>
      </trkpt>
      <trkpt lat="48.81933" lon="2.34351">
        <ele>58.36833</ele>
        <time>2026-07-19T08:34:47.399Z</time>
      </trkpt>
      <trkpt lat="48.81933" lon="2.34347">
        <ele>58.3694</ele>
        <time>2026-07-19T08:34:49.398Z</time>
      </trkpt>
      <trkpt lat="48.81934" lon="2.34342">
        <ele>58.37828</ele>
        <time>2026-07-19T08:34:52.398Z</time>
      </trkpt>
      <trkpt lat="48.81935" lon="2.34338">
        <ele>58.3926</ele>
        <time>2026-07-19T08:34:56.399Z</time>
      </trkpt>
      <trkpt lat="48.81935" lon="2.34334">
        <ele>58.40619</ele>
        <time>2026-07-19T08:34:59.398Z</time>
      </trkpt>
      <trkpt lat="48.81936" lon="2.34331">
        <ele>58.41673</ele>
        <time>2026-07-19T08:35:01.399Z</time>
      </trkpt>
      <trkpt lat="48.81937" lon="2.34327">
        <ele>58.4335</ele>
        <time>2026-07-19T08:35:04.398Z</time>
      </trkpt>
      <trkpt lat="48.81938" lon="2.34323">
        <ele>58.44101</ele>
        <time>2026-07-19T08:35:06.399Z</time>
      </trkpt>
      <trkpt lat="48.81939" lon="2.34318">
        <ele>58.45113</ele>
        <time>2026-07-19T08:35:09.400Z</time>
      </trkpt>
      <trkpt lat="48.81939" lon="2.34314">
        <ele>58.45839</ele>
        <time>2026-07-19T08:35:11.398Z</time>
      </trkpt>
      <trkpt lat="48.81939" lon="2.34309">
        <ele>58.46458</ele>
        <time>2026-07-19T08:35:14.399Z</time>
      </trkpt>
      <trkpt lat="48.8194" lon="2.34305">
        <ele>58.47089</ele>
        <time>2026-07-19T08:35:17.399Z</time>
      </trkpt>
      <trkpt lat="48.8194" lon="2.34301">
        <ele>58.47742</ele>
        <time>2026-07-19T08:35:19.399Z</time>
      </trkpt>
      <trkpt lat="48.81941" lon="2.34298">
        <ele>58.487</ele>
        <time>2026-07-19T08:35:21.400Z</time>
      </trkpt>
      <trkpt lat="48.81942" lon="2.34294">
        <ele>58.4982</ele>
        <time>2026-07-19T08:35:23.399Z</time>
      </trkpt>
      <trkpt lat="48.81942" lon="2.34289">
        <ele>58.51668</ele>
        <time>2026-07-19T08:35:26.399Z</time>
      </trkpt>
      <trkpt lat="48.81942" lon="2.34286">
        <ele>58.53374</ele>
        <time>2026-07-19T08:35:28.399Z</time>
      </trkpt>
      <trkpt lat="48.81942" lon="2.34281">
        <ele>58.56915</ele>
        <time>2026-07-19T08:35:31.399Z</time>
      </trkpt>
      <trkpt lat="48.81942" lon="2.34277">
        <ele>58.61017</ele>
        <time>2026-07-19T08:35:34.399Z</time>
      </trkpt>
      <trkpt lat="48.81943" lon="2.34273">
        <ele>58.63952</ele>
        <time>2026-07-19T08:35:37.399Z</time>
      </trkpt>
      <trkpt lat="48.81944" lon="2.34269">
        <ele>58.65822</ele>
        <time>2026-07-19T08:35:39.399Z</time>
      </trkpt>
      <trkpt lat="48.81945" lon="2.34265">
        <ele>58.67943</ele>
        <time>2026-07-19T08:35:41.399Z</time>
      </trkpt>
      <trkpt lat="48.81946" lon="2.3426">
        <ele>58.71693</ele>
        <time>2026-07-19T08:35:44.400Z</time>
      </trkpt>
      <trkpt lat="48.81946" lon="2.34257">
        <ele>58.74609</ele>
        <time>2026-07-19T08:35:46.399Z</time>
      </trkpt>
      <trkpt lat="48.81947" lon="2.34252">
        <ele>58.78606</ele>
        <time>2026-07-19T08:35:49.399Z</time>
      </trkpt>
      <trkpt lat="48.81947" lon="2.34249">
        <ele>58.81244</ele>
        <time>2026-07-19T08:35:51.399Z</time>
      </trkpt>
      <trkpt lat="48.81947" lon="2.34245">
        <ele>58.84057</ele>
        <time>2026-07-19T08:35:53.400Z</time>
      </trkpt>
      <trkpt lat="48.81947" lon="2.34241">
        <ele>58.89194</ele>
        <time>2026-07-19T08:35:56.400Z</time>
      </trkpt>
      <trkpt lat="48.81947" lon="2.34237">
        <ele>58.95151</ele>
        <time>2026-07-19T08:35:59.399Z</time>
      </trkpt>
      <trkpt lat="48.81948" lon="2.34232">
        <ele>59.00523</ele>
        <time>2026-07-19T08:36:02.399Z</time>
      </trkpt>
      <trkpt lat="48.81948" lon="2.34229">
        <ele>59.04044</ele>
        <time>2026-07-19T08:36:04.400Z</time>
      </trkpt>
      <trkpt lat="48.81949" lon="2.34225">
        <ele>59.10003</ele>
        <time>2026-07-19T08:36:07.400Z</time>
      </trkpt>
      <trkpt lat="48.81949" lon="2.3422">
        <ele>59.15252</ele>
        <time>2026-07-19T08:36:10.400Z</time>
      </trkpt>
      <trkpt lat="48.8195" lon="2.34216">
        <ele>59.20555</ele>
        <time>2026-07-19T08:36:13.400Z</time>
      </trkpt>
      <trkpt lat="48.81951" lon="2.34212">
        <ele>59.25103</ele>
        <time>2026-07-19T08:36:16.401Z</time>
      </trkpt>
      <trkpt lat="48.81952" lon="2.34209">
        <ele>59.28155</ele>
        <time>2026-07-19T08:36:18.400Z</time>
      </trkpt>
      <trkpt lat="48.81953" lon="2.34205">
        <ele>59.31098</ele>
        <time>2026-07-19T08:36:20.401Z</time>
      </trkpt>
      <trkpt lat="48.81953" lon="2.34201">
        <ele>59.34304</ele>
        <time>2026-07-19T08:36:22.400Z</time>
      </trkpt>
      <trkpt lat="48.81953" lon="2.34196">
        <ele>59.39991</ele>
        <time>2026-07-19T08:36:25.400Z</time>
      </trkpt>
      <trkpt lat="48.81953" lon="2.34192">
        <ele>59.45005</ele>
        <time>2026-07-19T08:36:28.400Z</time>
      </trkpt>
      <trkpt lat="48.81953" lon="2.34188">
        <ele>59.47924</ele>
        <time>2026-07-19T08:36:30.400Z</time>
      </trkpt>
      <trkpt lat="48.81953" lon="2.34184">
        <ele>59.54031</ele>
        <time>2026-07-19T08:36:33.401Z</time>
      </trkpt>
      <trkpt lat="48.81951" lon="2.34182">
        <ele>59.81422</ele>
        <time>2026-07-19T08:36:43.401Z</time>
      </trkpt>
      <trkpt lat="48.81948" lon="2.34179">
        <ele>59.89952</ele>
        <time>2026-07-19T08:36:46.401Z</time>
      </trkpt>
      <trkpt lat="48.81946" lon="2.34177">
        <ele>59.94011</ele>
        <time>2026-07-19T08:36:48.401Z</time>
      </trkpt>
      <trkpt lat="48.81944" lon="2.34174">
        <ele>59.97333</ele>
        <time>2026-07-19T08:36:50.400Z</time>
      </trkpt>
      <trkpt lat="48.81943" lon="2.3417">
        <ele>60.01216</ele>
        <time>2026-07-19T08:36:53.400Z</time>
      </trkpt>
      <trkpt lat="48.81941" lon="2.34167">
        <ele>60.02891</ele>
        <time>2026-07-19T08:36:55.400Z</time>
      </trkpt>
      <trkpt lat="48.81939" lon="2.34164">
        <ele>60.05005</ele>
        <time>2026-07-19T08:36:58.401Z</time>
      </trkpt>
      <trkpt lat="48.81938" lon="2.34159">
        <ele>60.06562</ele>
        <time>2026-07-19T08:37:01.401Z</time>
      </trkpt>
      <trkpt lat="48.81937" lon="2.34156">
        <ele>60.09092</ele>
        <time>2026-07-19T08:37:03.401Z</time>
      </trkpt>
      <trkpt lat="48.81936" lon="2.34153">
        <ele>60.14795</ele>
        <time>2026-07-19T08:37:07.401Z</time>
      </trkpt>
      <trkpt lat="48.81934" lon="2.3415">
        <ele>60.37346</ele>
        <time>2026-07-19T08:37:20.401Z</time>
      </trkpt>
      <trkpt lat="48.81932" lon="2.34147">
        <ele>60.6278</ele>
        <time>2026-07-19T08:37:34.401Z</time>
      </trkpt>
      <trkpt lat="48.8193" lon="2.34144">
        <ele>60.67816</ele>
        <time>2026-07-19T08:37:37.401Z</time>
      </trkpt>
      <trkpt lat="48.81928" lon="2.34141">
        <ele>60.72379</ele>
        <time>2026-07-19T08:37:40.401Z</time>
      </trkpt>
      <trkpt lat="48.81927" lon="2.34138">
        <ele>60.77434</ele>
        <time>2026-07-19T08:37:43.402Z</time>
      </trkpt>
      <trkpt lat="48.81924" lon="2.34135">
        <ele>60.82235</ele>
        <time>2026-07-19T08:37:46.402Z</time>
      </trkpt>
      <trkpt lat="48.81922" lon="2.34133">
        <ele>60.86622</ele>
        <time>2026-07-19T08:37:49.402Z</time>
      </trkpt>
      <trkpt lat="48.81919" lon="2.3413">
        <ele>60.88949</ele>
        <time>2026-07-19T08:37:51.402Z</time>
      </trkpt>
      <trkpt lat="48.81917" lon="2.34128">
        <ele>60.90713</ele>
        <time>2026-07-19T08:37:53.402Z</time>
      </trkpt>
      <trkpt lat="48.81914" lon="2.34124">
        <ele>60.95373</ele>
        <time>2026-07-19T08:37:56.402Z</time>
      </trkpt>
      <trkpt lat="48.81912" lon="2.34121">
        <ele>61.04355</ele>
        <time>2026-07-19T08:37:59.402Z</time>
      </trkpt>
      <trkpt lat="48.81911" lon="2.34118">
        <ele>61.1289</ele>
        <time>2026-07-19T08:38:02.402Z</time>
      </trkpt>
      <trkpt lat="48.8191" lon="2.34114">
        <ele>61.19585</ele>
        <time>2026-07-19T08:38:05.403Z</time>
      </trkpt>
      <trkpt lat="48.81909" lon="2.3411">
        <ele>61.23377</ele>
        <time>2026-07-19T08:38:08.402Z</time>
      </trkpt>
      <trkpt lat="48.81909" lon="2.34106">
        <ele>61.25611</ele>
        <time>2026-07-19T08:38:11.402Z</time>
      </trkpt>
      <trkpt lat="48.8191" lon="2.34102">
        <ele>61.26791</ele>
        <time>2026-07-19T08:38:13.402Z</time>
      </trkpt>
      <trkpt lat="48.81912" lon="2.34098">
        <ele>61.27988</ele>
        <time>2026-07-19T08:38:15.402Z</time>
      </trkpt>
      <trkpt lat="48.81913" lon="2.34094">
        <ele>61.31247</ele>
        <time>2026-07-19T08:38:18.402Z</time>
      </trkpt>
      <trkpt lat="48.81914" lon="2.34089">
        <ele>61.35014</ele>
        <time>2026-07-19T08:38:21.402Z</time>
      </trkpt>
      <trkpt lat="48.81914" lon="2.34085">
        <ele>61.37722</ele>
        <time>2026-07-19T08:38:23.403Z</time>
      </trkpt>
      <trkpt lat="48.81915" lon="2.34081">
        <ele>61.41819</ele>
        <time>2026-07-19T08:38:26.403Z</time>
      </trkpt>
      <trkpt lat="48.81916" lon="2.34076">
        <ele>61.46041</ele>
        <time>2026-07-19T08:38:29.403Z</time>
      </trkpt>
      <trkpt lat="48.81917" lon="2.34072">
        <ele>61.495</ele>
        <time>2026-07-19T08:38:31.403Z</time>
      </trkpt>
      <trkpt lat="48.81918" lon="2.34067">
        <ele>61.54437</ele>
        <time>2026-07-19T08:38:34.403Z</time>
      </trkpt>
      <trkpt lat="48.81919" lon="2.34064">
        <ele>61.59516</ele>
        <time>2026-07-19T08:38:37.403Z</time>
      </trkpt>
      <trkpt lat="48.81921" lon="2.3406">
        <ele>61.6681</ele>
        <time>2026-07-19T08:38:41.403Z</time>
      </trkpt>
      <trkpt lat="48.81922" lon="2.34057">
        <ele>61.71561</ele>
        <time>2026-07-19T08:38:43.404Z</time>
      </trkpt>
      <trkpt lat="48.81923" lon="2.34052">
        <ele>61.81542</ele>
        <time>2026-07-19T08:38:46.403Z</time>
      </trkpt>
      <trkpt lat="48.81924" lon="2.34049">
        <ele>61.89618</ele>
        <time>2026-07-19T08:38:48.403Z</time>
      </trkpt>
      <trkpt lat="48.81925" lon="2.34046">
        <ele>62.00497</ele>
        <time>2026-07-19T08:38:51.403Z</time>
      </trkpt>
      <trkpt lat="48.81927" lon="2.34042">
        <ele>62.13456</ele>
        <time>2026-07-19T08:38:54.403Z</time>
      </trkpt>
      <trkpt lat="48.81928" lon="2.34037">
        <ele>62.27362</ele>
        <time>2026-07-19T08:38:57.403Z</time>
      </trkpt>
      <trkpt lat="48.8193" lon="2.34033">
        <ele>62.42149</ele>
        <time>2026-07-19T08:39:00.404Z</time>
      </trkpt>
      <trkpt lat="48.81931" lon="2.34029">
        <ele>62.5802</ele>
        <time>2026-07-19T08:39:03.404Z</time>
      </trkpt>
      <trkpt lat="48.81932" lon="2.34024">
        <ele>62.74034</ele>
        <time>2026-07-19T08:39:06.404Z</time>
      </trkpt>
      <trkpt lat="48.81933" lon="2.3402">
        <ele>62.91776</ele>
        <time>2026-07-19T08:39:09.404Z</time>
      </trkpt>
      <trkpt lat="48.81933" lon="2.34015">
        <ele>63.08823</ele>
        <time>2026-07-19T08:39:12.404Z</time>
      </trkpt>
      <trkpt lat="48.81933" lon="2.34011">
        <ele>63.25695</ele>
        <time>2026-07-19T08:39:15.404Z</time>
      </trkpt>
      <trkpt lat="48.81935" lon="2.34007">
        <ele>63.41146</ele>
        <time>2026-07-19T08:39:18.404Z</time>
      </trkpt>
      <trkpt lat="48.81936" lon="2.34001">
        <ele>63.51924</ele>
        <time>2026-07-19T08:39:21.404Z</time>
      </trkpt>
      <trkpt lat="48.81937" lon="2.33997">
        <ele>63.61711</ele>
        <time>2026-07-19T08:39:24.404Z</time>
      </trkpt>
      <trkpt lat="48.81937" lon="2.33993">
        <ele>63.6762</ele>
        <time>2026-07-19T08:39:26.404Z</time>
      </trkpt>
      <trkpt lat="48.81938" lon="2.33989">
        <ele>63.76575</ele>
        <time>2026-07-19T08:39:29.406Z</time>
      </trkpt>
      <trkpt lat="48.81939" lon="2.33985">
        <ele>63.86172</ele>
        <time>2026-07-19T08:39:32.404Z</time>
      </trkpt>
      <trkpt lat="48.8194" lon="2.33982">
        <ele>63.92401</ele>
        <time>2026-07-19T08:39:34.404Z</time>
      </trkpt>
      <trkpt lat="48.81941" lon="2.33978">
        <ele>64.01657</ele>
        <time>2026-07-19T08:39:37.405Z</time>
      </trkpt>
      <trkpt lat="48.81941" lon="2.33973">
        <ele>64.11386</ele>
        <time>2026-07-19T08:39:40.406Z</time>
      </trkpt>
      <trkpt lat="48.81941" lon="2.33968">
        <ele>64.19962</ele>
        <time>2026-07-19T08:39:43.404Z</time>
      </trkpt>
      <trkpt lat="48.81942" lon="2.33964">
        <ele>64.24486</ele>
        <time>2026-07-19T08:39:45.405Z</time>
      </trkpt>
      <trkpt lat="48.81944" lon="2.33962">
        <ele>64.28665</ele>
        <time>2026-07-19T08:39:47.405Z</time>
      </trkpt>
      <trkpt lat="48.81945" lon="2.33957">
        <ele>64.33098</ele>
        <time>2026-07-19T08:39:49.406Z</time>
      </trkpt>
      <trkpt lat="48.81946" lon="2.33954">
        <ele>64.37215</ele>
        <time>2026-07-19T08:39:51.405Z</time>
      </trkpt>
      <trkpt lat="48.81947" lon="2.3395">
        <ele>64.45296</ele>
        <time>2026-07-19T08:39:55.404Z</time>
      </trkpt>
      <trkpt lat="48.81948" lon="2.33945">
        <ele>64.51786</ele>
        <time>2026-07-19T08:39:58.405Z</time>
      </trkpt>
      <trkpt lat="48.81948" lon="2.33941">
        <ele>64.5705</ele>
        <time>2026-07-19T08:40:01.405Z</time>
      </trkpt>
      <trkpt lat="48.81949" lon="2.33937">
        <ele>64.60125</ele>
        <time>2026-07-19T08:40:03.405Z</time>
      </trkpt>
      <trkpt lat="48.8195" lon="2.33933">
        <ele>64.63028</ele>
        <time>2026-07-19T08:40:05.405Z</time>
      </trkpt>
      <trkpt lat="48.81951" lon="2.3393">
        <ele>64.65865</ele>
        <time>2026-07-19T08:40:07.405Z</time>
      </trkpt>
      <trkpt lat="48.81952" lon="2.33926">
        <ele>64.70155</ele>
        <time>2026-07-19T08:40:10.405Z</time>
      </trkpt>
      <trkpt lat="48.81953" lon="2.33922">
        <ele>64.74212</ele>
        <time>2026-07-19T08:40:13.405Z</time>
      </trkpt>
      <trkpt lat="48.81955" lon="2.33918">
        <ele>64.78964</ele>
        <time>2026-07-19T08:40:16.406Z</time>
      </trkpt>
      <trkpt lat="48.81956" lon="2.33914">
        <ele>64.86956</ele>
        <time>2026-07-19T08:40:20.405Z</time>
      </trkpt>
      <trkpt lat="48.81956" lon="2.3391">
        <ele>64.91796</ele>
        <time>2026-07-19T08:40:22.406Z</time>
      </trkpt>
      <trkpt lat="48.81957" lon="2.33905">
        <ele>64.99038</ele>
        <time>2026-07-19T08:40:25.406Z</time>
      </trkpt>
      <trkpt lat="48.81958" lon="2.33901">
        <ele>65.06948</ele>
        <time>2026-07-19T08:40:28.405Z</time>
      </trkpt>
      <trkpt lat="48.81959" lon="2.33897">
        <ele>65.14906</ele>
        <time>2026-07-19T08:40:31.406Z</time>
      </trkpt>
      <trkpt lat="48.81959" lon="2.33892">
        <ele>65.24383</ele>
        <time>2026-07-19T08:40:34.406Z</time>
      </trkpt>
      <trkpt lat="48.8196" lon="2.33888">
        <ele>65.31657</ele>
        <time>2026-07-19T08:40:36.406Z</time>
      </trkpt>
      <trkpt lat="48.8196" lon="2.33885">
        <ele>65.45227</ele>
        <time>2026-07-19T08:40:39.405Z</time>
      </trkpt>
      <trkpt lat="48.81961" lon="2.3388">
        <ele>65.61836</ele>
        <time>2026-07-19T08:40:42.406Z</time>
      </trkpt>
      <trkpt lat="48.81962" lon="2.33875">
        <ele>65.77801</ele>
        <time>2026-07-19T08:40:46.405Z</time>
      </trkpt>
      <trkpt lat="48.81964" lon="2.33873">
        <ele>65.93686</ele>
        <time>2026-07-19T08:40:50.406Z</time>
      </trkpt>
      <trkpt lat="48.81965" lon="2.3387">
        <ele>67.00807</ele>
        <time>2026-07-19T08:41:00.407Z</time>
      </trkpt>
      <trkpt lat="48.81968" lon="2.33869">
        <ele>68.3431</ele>
        <time>2026-07-19T08:41:10.406Z</time>
      </trkpt>
      <trkpt lat="48.81969" lon="2.33867">
        <ele>68.64309</ele>
        <time>2026-07-19T08:41:13.407Z</time>
      </trkpt>
      <trkpt lat="48.81971" lon="2.33863">
        <ele>68.77827</ele>
        <time>2026-07-19T08:41:15.407Z</time>
      </trkpt>
      <trkpt lat="48.81972" lon="2.33859">
        <ele>68.86942</ele>
        <time>2026-07-19T08:41:17.406Z</time>
      </trkpt>
      <trkpt lat="48.81973" lon="2.33855">
        <ele>68.94977</ele>
        <time>2026-07-19T08:41:19.407Z</time>
      </trkpt>
      <trkpt lat="48.81973" lon="2.3385">
        <ele>69.12068</ele>
        <time>2026-07-19T08:41:22.407Z</time>
      </trkpt>
      <trkpt lat="48.81974" lon="2.33847">
        <ele>69.36497</ele>
        <time>2026-07-19T08:41:25.407Z</time>
      </trkpt>
      <trkpt lat="48.81975" lon="2.33844">
        <ele>69.99265</ele>
        <time>2026-07-19T08:41:33.407Z</time>
      </trkpt>
      <trkpt lat="48.81973" lon="2.33845">
        <ele>70.86585</ele>
        <time>2026-07-19T08:41:45.407Z</time>
      </trkpt>
      <trkpt lat="48.81971" lon="2.33847">
        <ele>70.97108</ele>
        <time>2026-07-19T08:41:48.407Z</time>
      </trkpt>
      <trkpt lat="48.81974" lon="2.33847">
        <ele>71.2921</ele>
        <time>2026-07-19T08:42:09.408Z</time>
      </trkpt>
      <trkpt lat="48.81976" lon="2.33846">
        <ele>71.32479</ele>
        <time>2026-07-19T08:42:12.408Z</time>
      </trkpt>
      <trkpt lat="48.81979" lon="2.33846">
        <ele>71.36012</ele>
        <time>2026-07-19T08:42:17.407Z</time>
      </trkpt>
      <trkpt lat="48.81981" lon="2.33843">
        <ele>72.08878</ele>
        <time>2026-07-19T08:42:53.409Z</time>
      </trkpt>
      <trkpt lat="48.81981" lon="2.33839">
        <ele>72.09905</ele>
        <time>2026-07-19T08:42:56.409Z</time>
      </trkpt>
      <trkpt lat="48.81981" lon="2.33835">
        <ele>72.11969</ele>
        <time>2026-07-19T08:43:00.409Z</time>
      </trkpt>
      <trkpt lat="48.81981" lon="2.33832">
        <ele>72.17921</ele>
        <time>2026-07-19T08:43:16.409Z</time>
      </trkpt>
      <trkpt lat="48.81982" lon="2.33827">
        <ele>72.18351</ele>
        <time>2026-07-19T08:43:20.409Z</time>
      </trkpt>
      <trkpt lat="48.81982" lon="2.33823">
        <ele>72.18222</ele>
        <time>2026-07-19T08:43:23.409Z</time>
      </trkpt>
      <trkpt lat="48.8198" lon="2.33819">
        <ele>72.17877</ele>
        <time>2026-07-19T08:43:26.409Z</time>
      </trkpt>
      <trkpt lat="48.81978" lon="2.33815">
        <ele>72.17564</ele>
        <time>2026-07-19T08:43:29.409Z</time>
      </trkpt>
      <trkpt lat="48.81978" lon="2.33811">
        <ele>72.15919</ele>
        <time>2026-07-19T08:43:35.410Z</time>
      </trkpt>
      <trkpt lat="48.81977" lon="2.33807">
        <ele>72.15184</ele>
        <time>2026-07-19T08:43:37.409Z</time>
      </trkpt>
      <trkpt lat="48.81978" lon="2.33804">
        <ele>72.1451</ele>
        <time>2026-07-19T08:43:39.410Z</time>
      </trkpt>
      <trkpt lat="48.81978" lon="2.33799">
        <ele>72.1315</ele>
        <time>2026-07-19T08:43:42.411Z</time>
      </trkpt>
      <trkpt lat="48.81979" lon="2.33795">
        <ele>72.11934</ele>
        <time>2026-07-19T08:43:44.410Z</time>
      </trkpt>
      <trkpt lat="48.8198" lon="2.33791">
        <ele>72.09173</ele>
        <time>2026-07-19T08:43:47.410Z</time>
      </trkpt>
      <trkpt lat="48.81981" lon="2.33787">
        <ele>72.06519</ele>
        <time>2026-07-19T08:43:49.410Z</time>
      </trkpt>
      <trkpt lat="48.81981" lon="2.33784">
        <ele>72.03385</ele>
        <time>2026-07-19T08:43:51.411Z</time>
      </trkpt>
      <trkpt lat="48.81982" lon="2.33787">
        <ele>71.99792</ele>
        <time>2026-07-19T08:43:54.410Z</time>
      </trkpt>
      <trkpt lat="48.81983" lon="2.33783">
        <ele>71.68327</ele>
        <time>2026-07-19T08:44:05.410Z</time>
      </trkpt>
      <trkpt lat="48.81984" lon="2.33779">
        <ele>71.55973</ele>
        <time>2026-07-19T08:44:07.410Z</time>
      </trkpt>
      <trkpt lat="48.81984" lon="2.33774">
        <ele>71.43334</ele>
        <time>2026-07-19T08:44:09.410Z</time>
      </trkpt>
      <trkpt lat="48.81985" lon="2.33769">
        <ele>71.31085</ele>
        <time>2026-07-19T08:44:11.410Z</time>
      </trkpt>
      <trkpt lat="48.81985" lon="2.33765">
        <ele>71.19261</ele>
        <time>2026-07-19T08:44:13.410Z</time>
      </trkpt>
      <trkpt lat="48.81986" lon="2.3376">
        <ele>71.06912</ele>
        <time>2026-07-19T08:44:15.410Z</time>
      </trkpt>
      <trkpt lat="48.81988" lon="2.33757">
        <ele>70.8377</ele>
        <time>2026-07-19T08:44:18.410Z</time>
      </trkpt>
      <trkpt lat="48.81989" lon="2.33753">
        <ele>70.6477</ele>
        <time>2026-07-19T08:44:21.410Z</time>
      </trkpt>
      <trkpt lat="48.8199" lon="2.3375">
        <ele>70.46769</ele>
        <time>2026-07-19T08:44:25.411Z</time>
      </trkpt>
      <trkpt lat="48.81991" lon="2.33745">
        <ele>70.37158</ele>
        <time>2026-07-19T08:44:28.410Z</time>
      </trkpt>
      <trkpt lat="48.81993" lon="2.33741">
        <ele>70.3049</ele>
        <time>2026-07-19T08:44:31.410Z</time>
      </trkpt>
      <trkpt lat="48.81994" lon="2.33737">
        <ele>70.27045</ele>
        <time>2026-07-19T08:44:34.411Z</time>
      </trkpt>
      <trkpt lat="48.81994" lon="2.33733">
        <ele>70.2523</ele>
        <time>2026-07-19T08:44:36.410Z</time>
      </trkpt>
      <trkpt lat="48.81994" lon="2.3373">
        <ele>70.22867</ele>
        <time>2026-07-19T08:44:38.411Z</time>
      </trkpt>
      <trkpt lat="48.81995" lon="2.33725">
        <ele>70.20384</ele>
        <time>2026-07-19T08:44:40.411Z</time>
      </trkpt>
      <trkpt lat="48.81996" lon="2.33722">
        <ele>70.18801</ele>
        <time>2026-07-19T08:44:42.411Z</time>
      </trkpt>
      <trkpt lat="48.81995" lon="2.33718">
        <ele>70.16152</ele>
        <time>2026-07-19T08:44:45.411Z</time>
      </trkpt>
      <trkpt lat="48.81994" lon="2.33714">
        <ele>70.14764</ele>
        <time>2026-07-19T08:44:48.410Z</time>
      </trkpt>
      <trkpt lat="48.81992" lon="2.33712">
        <ele>70.14391</ele>
        <time>2026-07-19T08:44:51.411Z</time>
      </trkpt>
      <trkpt lat="48.8199" lon="2.3371">
        <ele>70.14247</ele>
        <time>2026-07-19T08:44:54.411Z</time>
      </trkpt>
      <trkpt lat="48.81988" lon="2.33709">
        <ele>70.14164</ele>
        <time>2026-07-19T08:44:57.411Z</time>
      </trkpt>
      <trkpt lat="48.81985" lon="2.33708">
        <ele>70.1456</ele>
        <time>2026-07-19T08:45:00.411Z</time>
      </trkpt>
      <trkpt lat="48.81983" lon="2.33706">
        <ele>70.15091</ele>
        <time>2026-07-19T08:45:03.411Z</time>
      </trkpt>
      <trkpt lat="48.8198" lon="2.33704">
        <ele>70.1547</ele>
        <time>2026-07-19T08:45:06.411Z</time>
      </trkpt>
      <trkpt lat="48.81976" lon="2.33703">
        <ele>70.15987</ele>
        <time>2026-07-19T08:45:09.412Z</time>
      </trkpt>
      <trkpt lat="48.81974" lon="2.33702">
        <ele>70.1705</ele>
        <time>2026-07-19T08:45:12.411Z</time>
      </trkpt>
      <trkpt lat="48.81971" lon="2.337">
        <ele>70.18591</ele>
        <time>2026-07-19T08:45:15.411Z</time>
      </trkpt>
      <trkpt lat="48.81968" lon="2.337">
        <ele>70.19679</ele>
        <time>2026-07-19T08:45:17.411Z</time>
      </trkpt>
      <trkpt lat="48.81965" lon="2.33698">
        <ele>70.21882</ele>
        <time>2026-07-19T08:45:20.411Z</time>
      </trkpt>
      <trkpt lat="48.81963" lon="2.33697">
        <ele>70.23659</ele>
        <time>2026-07-19T08:45:22.411Z</time>
      </trkpt>
      <trkpt lat="48.8196" lon="2.33695">
        <ele>70.26535</ele>
        <time>2026-07-19T08:45:25.411Z</time>
      </trkpt>
      <trkpt lat="48.81958" lon="2.33694">
        <ele>70.28731</ele>
        <time>2026-07-19T08:45:27.412Z</time>
      </trkpt>
      <trkpt lat="48.81955" lon="2.33693">
        <ele>70.3077</ele>
        <time>2026-07-19T08:45:29.411Z</time>
      </trkpt>
      <trkpt lat="48.81953" lon="2.33692">
        <ele>70.33135</ele>
        <time>2026-07-19T08:45:31.412Z</time>
      </trkpt>
      <trkpt lat="48.8195" lon="2.33691">
        <ele>70.36819</ele>
        <time>2026-07-19T08:45:34.412Z</time>
      </trkpt>
      <trkpt lat="48.81947" lon="2.3369">
        <ele>70.39493</ele>
        <time>2026-07-19T08:45:36.412Z</time>
      </trkpt>
      <trkpt lat="48.81945" lon="2.33689">
        <ele>70.42594</ele>
        <time>2026-07-19T08:45:38.412Z</time>
      </trkpt>
      <trkpt lat="48.81943" lon="2.33687">
        <ele>70.47795</ele>
        <time>2026-07-19T08:45:41.412Z</time>
      </trkpt>
      <trkpt lat="48.8194" lon="2.33686">
        <ele>70.52163</ele>
        <time>2026-07-19T08:45:44.412Z</time>
      </trkpt>
      <trkpt lat="48.81937" lon="2.33684">
        <ele>70.56268</ele>
        <time>2026-07-19T08:45:47.412Z</time>
      </trkpt>
      <trkpt lat="48.81934" lon="2.33682">
        <ele>70.61139</ele>
        <time>2026-07-19T08:45:51.412Z</time>
      </trkpt>
      <trkpt lat="48.81932" lon="2.33682">
        <ele>70.64296</ele>
        <time>2026-07-19T08:45:54.413Z</time>
      </trkpt>
      <trkpt lat="48.81929" lon="2.3368">
        <ele>70.66925</ele>
        <time>2026-07-19T08:45:57.412Z</time>
      </trkpt>
      <trkpt lat="48.81926" lon="2.33679">
        <ele>70.69535</ele>
        <time>2026-07-19T08:46:00.413Z</time>
      </trkpt>
      <trkpt lat="48.81924" lon="2.33677">
        <ele>70.71532</ele>
        <time>2026-07-19T08:46:03.412Z</time>
      </trkpt>
      <trkpt lat="48.81921" lon="2.33674">
        <ele>70.73628</ele>
        <time>2026-07-19T08:46:07.412Z</time>
      </trkpt>
      <trkpt lat="48.81918" lon="2.33668">
        <ele>70.74891</ele>
        <time>2026-07-19T08:46:10.413Z</time>
      </trkpt>
      <trkpt lat="48.81917" lon="2.33663">
        <ele>70.75678</ele>
        <time>2026-07-19T08:46:12.412Z</time>
      </trkpt>
      <trkpt lat="48.81916" lon="2.33659">
        <ele>70.76503</ele>
        <time>2026-07-19T08:46:15.412Z</time>
      </trkpt>
      <trkpt lat="48.81915" lon="2.33654">
        <ele>70.77117</ele>
        <time>2026-07-19T08:46:18.412Z</time>
      </trkpt>
      <trkpt lat="48.81915" lon="2.33651">
        <ele>70.78091</ele>
        <time>2026-07-19T08:46:23.413Z</time>
      </trkpt>
      <trkpt lat="48.81916" lon="2.33647">
        <ele>70.79699</ele>
        <time>2026-07-19T08:46:31.413Z</time>
      </trkpt>
      <trkpt lat="48.81916" lon="2.33642">
        <ele>70.79794</ele>
        <time>2026-07-19T08:46:33.413Z</time>
      </trkpt>
      <trkpt lat="48.81916" lon="2.33638">
        <ele>70.79669</ele>
        <time>2026-07-19T08:46:35.413Z</time>
      </trkpt>
      <trkpt lat="48.81917" lon="2.33634">
        <ele>70.79553</ele>
        <time>2026-07-19T08:46:37.413Z</time>
      </trkpt>
      <trkpt lat="48.81918" lon="2.3363">
        <ele>70.79463</ele>
        <time>2026-07-19T08:46:39.413Z</time>
      </trkpt>
      <trkpt lat="48.81919" lon="2.33626">
        <ele>70.7925</ele>
        <time>2026-07-19T08:46:42.413Z</time>
      </trkpt>
      <trkpt lat="48.8192" lon="2.33622">
        <ele>70.79117</ele>
        <time>2026-07-19T08:46:44.413Z</time>
      </trkpt>
      <trkpt lat="48.81921" lon="2.33617">
        <ele>70.78851</ele>
        <time>2026-07-19T08:46:47.413Z</time>
      </trkpt>
      <trkpt lat="48.81921" lon="2.33613">
        <ele>70.78766</ele>
        <time>2026-07-19T08:46:49.413Z</time>
      </trkpt>
      <trkpt lat="48.81921" lon="2.33609">
        <ele>70.78635</ele>
        <time>2026-07-19T08:46:51.413Z</time>
      </trkpt>
      <trkpt lat="48.81922" lon="2.33606">
        <ele>70.78626</ele>
        <time>2026-07-19T08:46:53.413Z</time>
      </trkpt>
      <trkpt lat="48.81924" lon="2.33602">
        <ele>70.78806</ele>
        <time>2026-07-19T08:46:56.413Z</time>
      </trkpt>
      <trkpt lat="48.81925" lon="2.33599">
        <ele>70.78923</ele>
        <time>2026-07-19T08:46:59.413Z</time>
      </trkpt>
      <trkpt lat="48.81925" lon="2.33595">
        <ele>70.78981</ele>
        <time>2026-07-19T08:47:01.414Z</time>
      </trkpt>
      <trkpt lat="48.81927" lon="2.33592">
        <ele>70.79366</ele>
        <time>2026-07-19T08:47:06.414Z</time>
      </trkpt>
      <trkpt lat="48.81926" lon="2.33586">
        <ele>70.79886</ele>
        <time>2026-07-19T08:47:09.414Z</time>
      </trkpt>
      <trkpt lat="48.81927" lon="2.33581">
        <ele>70.8071</ele>
        <time>2026-07-19T08:47:11.413Z</time>
      </trkpt>
      <trkpt lat="48.81928" lon="2.33577">
        <ele>70.81938</ele>
        <time>2026-07-19T08:47:13.414Z</time>
      </trkpt>
      <trkpt lat="48.81929" lon="2.33573">
        <ele>70.83502</ele>
        <time>2026-07-19T08:47:15.414Z</time>
      </trkpt>
      <trkpt lat="48.8193" lon="2.3357">
        <ele>70.85296</ele>
        <time>2026-07-19T08:47:17.414Z</time>
      </trkpt>
      <trkpt lat="48.81931" lon="2.33566">
        <ele>70.87449</ele>
        <time>2026-07-19T08:47:19.414Z</time>
      </trkpt>
      <trkpt lat="48.8193" lon="2.3356">
        <ele>70.90271</ele>
        <time>2026-07-19T08:47:21.413Z</time>
      </trkpt>
      <trkpt lat="48.8193" lon="2.33555">
        <ele>70.95356</ele>
        <time>2026-07-19T08:47:23.414Z</time>
      </trkpt>
      <trkpt lat="48.8193" lon="2.3355">
        <ele>71.01677</ele>
        <time>2026-07-19T08:47:25.415Z</time>
      </trkpt>
      <trkpt lat="48.8193" lon="2.33545">
        <ele>71.12774</ele>
        <time>2026-07-19T08:47:27.415Z</time>
      </trkpt>
      <trkpt lat="48.81931" lon="2.33542">
        <ele>71.30231</ele>
        <time>2026-07-19T08:47:29.414Z</time>
      </trkpt>
      <trkpt lat="48.81932" lon="2.33538">
        <ele>71.68152</ele>
        <time>2026-07-19T08:47:32.414Z</time>
      </trkpt>
      <trkpt lat="48.81933" lon="2.33533">
        <ele>72.23055</ele>
        <time>2026-07-19T08:47:35.414Z</time>
      </trkpt>
      <trkpt lat="48.81933" lon="2.33529">
        <ele>72.95532</ele>
        <time>2026-07-19T08:47:38.414Z</time>
      </trkpt>
      <trkpt lat="48.81934" lon="2.33525">
        <ele>73.82502</ele>
        <time>2026-07-19T08:47:41.415Z</time>
      </trkpt>
      <trkpt lat="48.81935" lon="2.33522">
        <ele>74.72513</ele>
        <time>2026-07-19T08:47:44.414Z</time>
      </trkpt>
      <trkpt lat="48.81936" lon="2.33518">
        <ele>75.60233</ele>
        <time>2026-07-19T08:47:47.414Z</time>
      </trkpt>
      <trkpt lat="48.81937" lon="2.33515">
        <ele>76.38839</ele>
        <time>2026-07-19T08:47:50.414Z</time>
      </trkpt>
      <trkpt lat="48.8194" lon="2.33516">
        <ele>77.93361</ele>
        <time>2026-07-19T08:48:02.414Z</time>
      </trkpt>
      <trkpt lat="48.81942" lon="2.33516">
        <ele>78.1843</ele>
        <time>2026-07-19T08:48:10.415Z</time>
      </trkpt>
      <trkpt lat="48.81942" lon="2.33513">
        <ele>77.95115</ele>
        <time>2026-07-19T08:48:22.415Z</time>
      </trkpt>
      <trkpt lat="48.81941" lon="2.33509">
        <ele>77.87324</ele>
        <time>2026-07-19T08:48:26.415Z</time>
      </trkpt>
      <trkpt lat="48.81941" lon="2.33505">
        <ele>77.84404</ele>
        <time>2026-07-19T08:48:29.416Z</time>
      </trkpt>
      <trkpt lat="48.81942" lon="2.33501">
        <ele>77.825</ele>
        <time>2026-07-19T08:48:32.415Z</time>
      </trkpt>
      <trkpt lat="48.81943" lon="2.33498">
        <ele>77.81246</ele>
        <time>2026-07-19T08:48:35.416Z</time>
      </trkpt>
      <trkpt lat="48.81943" lon="2.33493">
        <ele>77.8037</ele>
        <time>2026-07-19T08:48:38.416Z</time>
      </trkpt>
      <trkpt lat="48.81943" lon="2.3349">
        <ele>77.79502</ele>
        <time>2026-07-19T08:48:40.416Z</time>
      </trkpt>
      <trkpt lat="48.81944" lon="2.33485">
        <ele>77.78064</ele>
        <time>2026-07-19T08:48:43.416Z</time>
      </trkpt>
      <trkpt lat="48.81945" lon="2.33482">
        <ele>77.77355</ele>
        <time>2026-07-19T08:48:45.416Z</time>
      </trkpt>
      <trkpt lat="48.81946" lon="2.33478">
        <ele>77.77622</ele>
        <time>2026-07-19T08:48:48.416Z</time>
      </trkpt>
      <trkpt lat="48.81947" lon="2.33475">
        <ele>77.78226</ele>
        <time>2026-07-19T08:48:50.415Z</time>
      </trkpt>
      <trkpt lat="48.81948" lon="2.33471">
        <ele>77.79255</ele>
        <time>2026-07-19T08:48:52.417Z</time>
      </trkpt>
      <trkpt lat="48.81948" lon="2.33468">
        <ele>77.80231</ele>
        <time>2026-07-19T08:48:54.415Z</time>
      </trkpt>
      <trkpt lat="48.81949" lon="2.33464">
        <ele>77.82001</ele>
        <time>2026-07-19T08:48:57.416Z</time>
      </trkpt>
      <trkpt lat="48.8195" lon="2.33459">
        <ele>77.84112</ele>
        <time>2026-07-19T08:49:00.416Z</time>
      </trkpt>
      <trkpt lat="48.81951" lon="2.33455">
        <ele>77.86841</ele>
        <time>2026-07-19T08:49:03.417Z</time>
      </trkpt>
      <trkpt lat="48.81952" lon="2.33452">
        <ele>77.88669</ele>
        <time>2026-07-19T08:49:05.416Z</time>
      </trkpt>
      <trkpt lat="48.81954" lon="2.33447">
        <ele>77.94338</ele>
        <time>2026-07-19T08:49:09.416Z</time>
      </trkpt>
      <trkpt lat="48.81956" lon="2.33444">
        <ele>77.97676</ele>
        <time>2026-07-19T08:49:11.417Z</time>
      </trkpt>
      <trkpt lat="48.81957" lon="2.33441">
        <ele>78.01277</ele>
        <time>2026-07-19T08:49:13.416Z</time>
      </trkpt>
      <trkpt lat="48.81958" lon="2.33437">
        <ele>78.06978</ele>
        <time>2026-07-19T08:49:16.417Z</time>
      </trkpt>
      <trkpt lat="48.81959" lon="2.33433">
        <ele>78.14743</ele>
        <time>2026-07-19T08:49:20.416Z</time>
      </trkpt>
      <trkpt lat="48.81961" lon="2.33428">
        <ele>78.22031</ele>
        <time>2026-07-19T08:49:23.416Z</time>
      </trkpt>
      <trkpt lat="48.81962" lon="2.33425">
        <ele>78.29338</ele>
        <time>2026-07-19T08:49:26.417Z</time>
      </trkpt>
      <trkpt lat="48.81963" lon="2.3342">
        <ele>78.35593</ele>
        <time>2026-07-19T08:49:29.417Z</time>
      </trkpt>
      <trkpt lat="48.81965" lon="2.33417">
        <ele>78.42417</ele>
        <time>2026-07-19T08:49:33.416Z</time>
      </trkpt>
      <trkpt lat="48.81967" lon="2.33414">
        <ele>78.46761</ele>
        <time>2026-07-19T08:49:36.417Z</time>
      </trkpt>
      <trkpt lat="48.81969" lon="2.33411">
        <ele>78.50023</ele>
        <time>2026-07-19T08:49:39.417Z</time>
      </trkpt>
      <trkpt lat="48.81972" lon="2.3341">
        <ele>78.52671</ele>
        <time>2026-07-19T08:49:43.418Z</time>
      </trkpt>
      <trkpt lat="48.81974" lon="2.33412">
        <ele>78.53275</ele>
        <time>2026-07-19T08:49:45.418Z</time>
      </trkpt>
      <trkpt lat="48.81976" lon="2.33413">
        <ele>78.52797</ele>
        <time>2026-07-19T08:49:48.417Z</time>
      </trkpt>
      <trkpt lat="48.81979" lon="2.33413">
        <ele>78.52227</ele>
        <time>2026-07-19T08:49:50.417Z</time>
      </trkpt>
      <trkpt lat="48.81981" lon="2.33414">
        <ele>78.50626</ele>
        <time>2026-07-19T08:49:53.418Z</time>
      </trkpt>
      <trkpt lat="48.81984" lon="2.33416">
        <ele>78.48598</ele>
        <time>2026-07-19T08:49:56.418Z</time>
      </trkpt>
      <trkpt lat="48.81987" lon="2.33416">
        <ele>78.46934</ele>
        <time>2026-07-19T08:49:58.417Z</time>
      </trkpt>
      <trkpt lat="48.81989" lon="2.33416">
        <ele>78.4434</ele>
        <time>2026-07-19T08:50:01.418Z</time>
      </trkpt>
      <trkpt lat="48.81992" lon="2.33416">
        <ele>78.42124</ele>
        <time>2026-07-19T08:50:03.417Z</time>
      </trkpt>
      <trkpt lat="48.81995" lon="2.33416">
        <ele>78.39891</ele>
        <time>2026-07-19T08:50:05.418Z</time>
      </trkpt>
      <trkpt lat="48.81997" lon="2.33412">
        <ele>78.35916</ele>
        <time>2026-07-19T08:50:08.417Z</time>
      </trkpt>
      <trkpt lat="48.81999" lon="2.3341">
        <ele>78.32859</ele>
        <time>2026-07-19T08:50:10.418Z</time>
      </trkpt>
      <trkpt lat="48.82001" lon="2.33406">
        <ele>78.29399</ele>
        <time>2026-07-19T08:50:12.417Z</time>
      </trkpt>
      <trkpt lat="48.82003" lon="2.33403">
        <ele>78.23739</ele>
        <time>2026-07-19T08:50:15.417Z</time>
      </trkpt>
      <trkpt lat="48.82004" lon="2.334">
        <ele>78.19939</ele>
        <time>2026-07-19T08:50:17.417Z</time>
      </trkpt>
      <trkpt lat="48.82006" lon="2.33396">
        <ele>78.12804</ele>
        <time>2026-07-19T08:50:20.418Z</time>
      </trkpt>
      <trkpt lat="48.82008" lon="2.33394">
        <ele>78.0519</ele>
        <time>2026-07-19T08:50:23.418Z</time>
      </trkpt>
      <trkpt lat="48.8201" lon="2.33391">
        <ele>77.99623</ele>
        <time>2026-07-19T08:50:26.418Z</time>
      </trkpt>
      <trkpt lat="48.82011" lon="2.33388">
        <ele>77.90929</ele>
        <time>2026-07-19T08:50:34.418Z</time>
      </trkpt>
      <trkpt lat="48.82012" lon="2.33384">
        <ele>77.88463</ele>
        <time>2026-07-19T08:50:37.418Z</time>
      </trkpt>
      <trkpt lat="48.82012" lon="2.33379">
        <ele>77.84279</ele>
        <time>2026-07-19T08:50:41.419Z</time>
      </trkpt>
      <trkpt lat="48.82012" lon="2.33374">
        <ele>77.78051</ele>
        <time>2026-07-19T08:50:45.418Z</time>
      </trkpt>
      <trkpt lat="48.82012" lon="2.33371">
        <ele>77.73029</ele>
        <time>2026-07-19T08:50:48.418Z</time>
      </trkpt>
      <trkpt lat="48.82013" lon="2.33367">
        <ele>77.65573</ele>
        <time>2026-07-19T08:50:52.419Z</time>
      </trkpt>
      <trkpt lat="48.82013" lon="2.33363">
        <ele>77.61318</ele>
        <time>2026-07-19T08:50:55.419Z</time>
      </trkpt>
      <trkpt lat="48.82014" lon="2.33357">
        <ele>77.59475</ele>
        <time>2026-07-19T08:50:57.419Z</time>
      </trkpt>
      <trkpt lat="48.82015" lon="2.33354">
        <ele>77.589</ele>
        <time>2026-07-19T08:50:58.419Z</time>
      </trkpt>
      <trkpt lat="48.82015" lon="2.33349">
        <ele>77.58641</ele>
        <time>2026-07-19T08:51:00.419Z</time>
      </trkpt>
      <trkpt lat="48.82016" lon="2.33344">
        <ele>77.59483</ele>
        <time>2026-07-19T08:51:04.419Z</time>
      </trkpt>
      <trkpt lat="48.82017" lon="2.33341">
        <ele>77.60065</ele>
        <time>2026-07-19T08:51:07.420Z</time>
      </trkpt>
      <trkpt lat="48.82018" lon="2.33337">
        <ele>77.60136</ele>
        <time>2026-07-19T08:51:10.419Z</time>
      </trkpt>
      <trkpt lat="48.82018" lon="2.33332">
        <ele>77.60146</ele>
        <time>2026-07-19T08:51:14.419Z</time>
      </trkpt>
      <trkpt lat="48.82017" lon="2.33327">
        <ele>77.60041</ele>
        <time>2026-07-19T08:51:17.419Z</time>
      </trkpt>
      <trkpt lat="48.82017" lon="2.33322">
        <ele>77.6001</ele>
        <time>2026-07-19T08:51:19.419Z</time>
      </trkpt>
      <trkpt lat="48.82018" lon="2.33318">
        <ele>77.60219</ele>
        <time>2026-07-19T08:51:22.420Z</time>
      </trkpt>
      <trkpt lat="48.82019" lon="2.33314">
        <ele>77.60553</ele>
        <time>2026-07-19T08:51:25.419Z</time>
      </trkpt>
      <trkpt lat="48.8202" lon="2.33311">
        <ele>77.61284</ele>
        <time>2026-07-19T08:51:30.420Z</time>
      </trkpt>
      <trkpt lat="48.8202" lon="2.33307">
        <ele>77.6152</ele>
        <time>2026-07-19T08:51:35.420Z</time>
      </trkpt>
      <trkpt lat="48.82022" lon="2.33304">
        <ele>77.61483</ele>
        <time>2026-07-19T08:51:38.420Z</time>
      </trkpt>
      <trkpt lat="48.82024" lon="2.33301">
        <ele>77.6141</ele>
        <time>2026-07-19T08:51:40.420Z</time>
      </trkpt>
      <trkpt lat="48.82025" lon="2.33297">
        <ele>77.61314</ele>
        <time>2026-07-19T08:51:42.420Z</time>
      </trkpt>
      <trkpt lat="48.82026" lon="2.33294">
        <ele>77.61272</ele>
        <time>2026-07-19T08:51:44.419Z</time>
      </trkpt>
      <trkpt lat="48.82028" lon="2.3329">
        <ele>77.61341</ele>
        <time>2026-07-19T08:51:46.420Z</time>
      </trkpt>
      <trkpt lat="48.82028" lon="2.33286">
        <ele>77.61382</ele>
        <time>2026-07-19T08:51:49.420Z</time>
      </trkpt>
      <trkpt lat="48.82029" lon="2.33281">
        <ele>77.61514</ele>
        <time>2026-07-19T08:51:52.420Z</time>
      </trkpt>
      <trkpt lat="48.8203" lon="2.33277">
        <ele>77.61725</ele>
        <time>2026-07-19T08:51:54.420Z</time>
      </trkpt>
      <trkpt lat="48.82031" lon="2.33273">
        <ele>77.6203</ele>
        <time>2026-07-19T08:51:56.419Z</time>
      </trkpt>
      <trkpt lat="48.82033" lon="2.33269">
        <ele>77.62451</ele>
        <time>2026-07-19T08:51:59.420Z</time>
      </trkpt>
      <trkpt lat="48.82035" lon="2.33267">
        <ele>77.62783</ele>
        <time>2026-07-19T08:52:03.420Z</time>
      </trkpt>
      <trkpt lat="48.82035" lon="2.33263">
        <ele>77.60658</ele>
        <time>2026-07-19T08:52:10.420Z</time>
      </trkpt>
      <trkpt lat="48.82036" lon="2.33259">
        <ele>77.60373</ele>
        <time>2026-07-19T08:52:13.420Z</time>
      </trkpt>
      <trkpt lat="48.82037" lon="2.33256">
        <ele>77.60205</ele>
        <time>2026-07-19T08:52:15.420Z</time>
      </trkpt>
      <trkpt lat="48.82038" lon="2.3325">
        <ele>77.5988</ele>
        <time>2026-07-19T08:52:18.420Z</time>
      </trkpt>
      <trkpt lat="48.82038" lon="2.33246">
        <ele>77.59762</ele>
        <time>2026-07-19T08:52:21.421Z</time>
      </trkpt>
      <trkpt lat="48.82038" lon="2.33241">
        <ele>77.59722</ele>
        <time>2026-07-19T08:52:23.421Z</time>
      </trkpt>
      <trkpt lat="48.82038" lon="2.33236">
        <ele>77.59816</ele>
        <time>2026-07-19T08:52:26.421Z</time>
      </trkpt>
      <trkpt lat="48.82037" lon="2.33233">
        <ele>77.59731</ele>
        <time>2026-07-19T08:52:29.421Z</time>
      </trkpt>
      <trkpt lat="48.82036" lon="2.3323">
        <ele>77.59956</ele>
        <time>2026-07-19T08:52:32.421Z</time>
      </trkpt>
      <trkpt lat="48.82034" lon="2.33226">
        <ele>77.59921</ele>
        <time>2026-07-19T08:52:42.421Z</time>
      </trkpt>
      <trkpt lat="48.82034" lon="2.33221">
        <ele>77.59662</ele>
        <time>2026-07-19T08:52:45.421Z</time>
      </trkpt>
      <trkpt lat="48.82033" lon="2.33217">
        <ele>77.59407</ele>
        <time>2026-07-19T08:52:47.421Z</time>
      </trkpt>
      <trkpt lat="48.82032" lon="2.33214">
        <ele>77.58606</ele>
        <time>2026-07-19T08:52:51.421Z</time>
      </trkpt>
      <trkpt lat="48.8203" lon="2.33211">
        <ele>77.57162</ele>
        <time>2026-07-19T08:52:56.421Z</time>
      </trkpt>
      <trkpt lat="48.82029" lon="2.33206">
        <ele>77.55992</ele>
        <time>2026-07-19T08:52:59.421Z</time>
      </trkpt>
      <trkpt lat="48.82027" lon="2.33202">
        <ele>77.54605</ele>
        <time>2026-07-19T08:53:02.421Z</time>
      </trkpt>
      <trkpt lat="48.82026" lon="2.33197">
        <ele>77.53386</ele>
        <time>2026-07-19T08:53:05.422Z</time>
      </trkpt>
      <trkpt lat="48.82026" lon="2.33193">
        <ele>77.52629</ele>
        <time>2026-07-19T08:53:07.421Z</time>
      </trkpt>
      <trkpt lat="48.82026" lon="2.33187">
        <ele>77.51646</ele>
        <time>2026-07-19T08:53:10.421Z</time>
      </trkpt>
      <trkpt lat="48.82025" lon="2.33183">
        <ele>77.50295</ele>
        <time>2026-07-19T08:53:15.422Z</time>
      </trkpt>
      <trkpt lat="48.82026" lon="2.33179">
        <ele>77.49328</ele>
        <time>2026-07-19T08:53:18.423Z</time>
      </trkpt>
      <trkpt lat="48.82025" lon="2.33175">
        <ele>77.48643</ele>
        <time>2026-07-19T08:53:20.422Z</time>
      </trkpt>
      <trkpt lat="48.82025" lon="2.33171">
        <ele>77.47887</ele>
        <time>2026-07-19T08:53:22.422Z</time>
      </trkpt>
      <trkpt lat="48.82026" lon="2.33168">
        <ele>77.47167</ele>
        <time>2026-07-19T08:53:24.422Z</time>
      </trkpt>
      <trkpt lat="48.82027" lon="2.33164">
        <ele>77.46391</ele>
        <time>2026-07-19T08:53:26.422Z</time>
      </trkpt>
      <trkpt lat="48.82028" lon="2.3316">
        <ele>77.4466</ele>
        <time>2026-07-19T08:53:29.422Z</time>
      </trkpt>
      <trkpt lat="48.8203" lon="2.33157">
        <ele>77.41069</ele>
        <time>2026-07-19T08:53:32.422Z</time>
      </trkpt>
      <trkpt lat="48.82028" lon="2.33157">
        <ele>76.98442</ele>
        <time>2026-07-19T08:53:48.422Z</time>
      </trkpt>
      <trkpt lat="48.82026" lon="2.3316">
        <ele>74.99423</ele>
        <time>2026-07-19T09:01:53.433Z</time>
      </trkpt>
      <trkpt lat="48.82027" lon="2.33157">
        <ele>74.93515</ele>
        <time>2026-07-19T09:02:50.434Z</time>
      </trkpt>
      <trkpt lat="48.82028" lon="2.33153">
        <ele>77.95538</ele>
        <time>2026-07-19T09:05:33.438Z</time>
      </trkpt>
      <trkpt lat="48.82029" lon="2.33149">
        <ele>77.97312</ele>
        <time>2026-07-19T09:05:38.438Z</time>
      </trkpt>
      <trkpt lat="48.8203" lon="2.33145">
        <ele>77.96008</ele>
        <time>2026-07-19T09:05:44.438Z</time>
      </trkpt>
      <trkpt lat="48.82031" lon="2.33141">
        <ele>77.94882</ele>
        <time>2026-07-19T09:05:48.438Z</time>
      </trkpt>
      <trkpt lat="48.82031" lon="2.33137">
        <ele>77.94466</ele>
        <time>2026-07-19T09:05:50.438Z</time>
      </trkpt>
      <trkpt lat="48.82031" lon="2.33133">
        <ele>77.94403</ele>
        <time>2026-07-19T09:05:52.438Z</time>
      </trkpt>
      <trkpt lat="48.82032" lon="2.3313">
        <ele>77.94979</ele>
        <time>2026-07-19T09:05:56.439Z</time>
      </trkpt>
      <trkpt lat="48.82033" lon="2.33127">
        <ele>77.94984</ele>
        <time>2026-07-19T09:06:00.439Z</time>
      </trkpt>
      <trkpt lat="48.82034" lon="2.33123">
        <ele>77.94372</ele>
        <time>2026-07-19T09:06:05.438Z</time>
      </trkpt>
      <trkpt lat="48.82035" lon="2.3312">
        <ele>77.944</ele>
        <time>2026-07-19T09:06:09.439Z</time>
      </trkpt>
      <trkpt lat="48.82036" lon="2.33116">
        <ele>77.94557</ele>
        <time>2026-07-19T09:06:12.439Z</time>
      </trkpt>
      <trkpt lat="48.82037" lon="2.33113">
        <ele>77.94639</ele>
        <time>2026-07-19T09:06:15.439Z</time>
      </trkpt>
      <trkpt lat="48.82038" lon="2.33109">
        <ele>77.94979</ele>
        <time>2026-07-19T09:06:18.439Z</time>
      </trkpt>
      <trkpt lat="48.82039" lon="2.33104">
        <ele>77.94968</ele>
        <time>2026-07-19T09:06:21.438Z</time>
      </trkpt>
      <trkpt lat="48.8204" lon="2.331">
        <ele>77.95147</ele>
        <time>2026-07-19T09:06:24.439Z</time>
      </trkpt>
      <trkpt lat="48.8204" lon="2.33097">
        <ele>77.95267</ele>
        <time>2026-07-19T09:06:27.439Z</time>
      </trkpt>
      <trkpt lat="48.8204" lon="2.33093">
        <ele>77.95356</ele>
        <time>2026-07-19T09:06:30.439Z</time>
      </trkpt>
      <trkpt lat="48.82041" lon="2.3309">
        <ele>77.95335</ele>
        <time>2026-07-19T09:06:33.439Z</time>
      </trkpt>
      <trkpt lat="48.82042" lon="2.33086">
        <ele>77.9522</ele>
        <time>2026-07-19T09:06:36.439Z</time>
      </trkpt>
      <trkpt lat="48.82043" lon="2.33082">
        <ele>77.95078</ele>
        <time>2026-07-19T09:06:39.439Z</time>
      </trkpt>
      <trkpt lat="48.82044" lon="2.33077">
        <ele>77.94961</ele>
        <time>2026-07-19T09:06:42.439Z</time>
      </trkpt>
      <trkpt lat="48.82045" lon="2.33072">
        <ele>77.94773</ele>
        <time>2026-07-19T09:06:45.439Z</time>
      </trkpt>
      <trkpt lat="48.82046" lon="2.33068">
        <ele>77.94449</ele>
        <time>2026-07-19T09:06:48.439Z</time>
      </trkpt>
      <trkpt lat="48.82047" lon="2.33063">
        <ele>77.93754</ele>
        <time>2026-07-19T09:06:51.440Z</time>
      </trkpt>
      <trkpt lat="48.82048" lon="2.3306">
        <ele>77.92201</ele>
        <time>2026-07-19T09:06:54.439Z</time>
      </trkpt>
      <trkpt lat="48.82049" lon="2.33057">
        <ele>77.9014</ele>
        <time>2026-07-19T09:06:56.440Z</time>
      </trkpt>
      <trkpt lat="48.82049" lon="2.33053">
        <ele>77.87893</ele>
        <time>2026-07-19T09:06:58.440Z</time>
      </trkpt>
      <trkpt lat="48.8205" lon="2.3305">
        <ele>77.85743</ele>
        <time>2026-07-19T09:07:00.440Z</time>
      </trkpt>
      <trkpt lat="48.82051" lon="2.33045">
        <ele>77.81816</ele>
        <time>2026-07-19T09:07:03.440Z</time>
      </trkpt>
      <trkpt lat="48.82052" lon="2.3304">
        <ele>77.78255</ele>
        <time>2026-07-19T09:07:06.439Z</time>
      </trkpt>
      <trkpt lat="48.82054" lon="2.33039">
        <ele>77.73339</ele>
        <time>2026-07-19T09:07:08.440Z</time>
      </trkpt>
      <trkpt lat="48.82057" lon="2.3304">
        <ele>77.61896</ele>
        <time>2026-07-19T09:07:11.439Z</time>
      </trkpt>
      <trkpt lat="48.8206" lon="2.33041">
        <ele>77.49345</ele>
        <time>2026-07-19T09:07:14.440Z</time>
      </trkpt>
      <trkpt lat="48.82063" lon="2.33042">
        <ele>77.35602</ele>
        <time>2026-07-19T09:07:17.440Z</time>
      </trkpt>
      <trkpt lat="48.82065" lon="2.33043">
        <ele>77.26077</ele>
        <time>2026-07-19T09:07:19.440Z</time>
      </trkpt>
      <trkpt lat="48.82068" lon="2.33044">
        <ele>77.1266</ele>
        <time>2026-07-19T09:07:22.440Z</time>
      </trkpt>
      <trkpt lat="48.82072" lon="2.33045">
        <ele>77.01903</ele>
        <time>2026-07-19T09:07:25.440Z</time>
      </trkpt>
      <trkpt lat="48.82074" lon="2.33046">
        <ele>76.96927</ele>
        <time>2026-07-19T09:07:27.441Z</time>
      </trkpt>
      <trkpt lat="48.82077" lon="2.33045">
        <ele>76.90749</ele>
        <time>2026-07-19T09:07:31.441Z</time>
      </trkpt>
      <trkpt lat="48.82079" lon="2.33043">
        <ele>76.88192</ele>
        <time>2026-07-19T09:07:34.441Z</time>
      </trkpt>
      <trkpt lat="48.82081" lon="2.3304">
        <ele>76.85924</ele>
        <time>2026-07-19T09:07:37.440Z</time>
      </trkpt>
      <trkpt lat="48.82082" lon="2.33037">
        <ele>76.84253</ele>
        <time>2026-07-19T09:07:40.440Z</time>
      </trkpt>
      <trkpt lat="48.82084" lon="2.33034">
        <ele>76.84028</ele>
        <time>2026-07-19T09:07:43.441Z</time>
      </trkpt>
      <trkpt lat="48.82085" lon="2.3303">
        <ele>76.84325</ele>
        <time>2026-07-19T09:07:45.440Z</time>
      </trkpt>
      <trkpt lat="48.82087" lon="2.33026">
        <ele>76.8476</ele>
        <time>2026-07-19T09:07:48.441Z</time>
      </trkpt>
      <trkpt lat="48.82089" lon="2.33024">
        <ele>76.84624</ele>
        <time>2026-07-19T09:07:50.441Z</time>
      </trkpt>
      <trkpt lat="48.8209" lon="2.3302">
        <ele>76.8374</ele>
        <time>2026-07-19T09:07:53.442Z</time>
      </trkpt>
      <trkpt lat="48.8209" lon="2.33017">
        <ele>76.83764</ele>
        <time>2026-07-19T09:07:56.441Z</time>
      </trkpt>
      <trkpt lat="48.82092" lon="2.33013">
        <ele>76.84068</ele>
        <time>2026-07-19T09:07:59.442Z</time>
      </trkpt>
      <trkpt lat="48.82092" lon="2.33009">
        <ele>76.84738</ele>
        <time>2026-07-19T09:08:02.441Z</time>
      </trkpt>
      <trkpt lat="48.82093" lon="2.33006">
        <ele>76.89507</ele>
        <time>2026-07-19T09:08:10.442Z</time>
      </trkpt>
      <trkpt lat="48.82096" lon="2.33006">
        <ele>76.93144</ele>
        <time>2026-07-19T09:08:13.441Z</time>
      </trkpt>
      <trkpt lat="48.82099" lon="2.33005">
        <ele>76.96385</ele>
        <time>2026-07-19T09:08:16.442Z</time>
      </trkpt>
      <trkpt lat="48.82102" lon="2.33007">
        <ele>76.99028</ele>
        <time>2026-07-19T09:08:19.441Z</time>
      </trkpt>
      <trkpt lat="48.82104" lon="2.33008">
        <ele>77.00841</ele>
        <time>2026-07-19T09:08:22.441Z</time>
      </trkpt>
      <trkpt lat="48.82106" lon="2.33011">
        <ele>77.01177</ele>
        <time>2026-07-19T09:08:25.441Z</time>
      </trkpt>
      <trkpt lat="48.82108" lon="2.33013">
        <ele>77.01639</ele>
        <time>2026-07-19T09:08:28.442Z</time>
      </trkpt>
      <trkpt lat="48.82112" lon="2.33015">
        <ele>77.01301</ele>
        <time>2026-07-19T09:08:30.441Z</time>
      </trkpt>
      <trkpt lat="48.82115" lon="2.33015">
        <ele>77.01026</ele>
        <time>2026-07-19T09:08:32.441Z</time>
      </trkpt>
      <trkpt lat="48.82118" lon="2.33016">
        <ele>77.01034</ele>
        <time>2026-07-19T09:08:35.442Z</time>
      </trkpt>
      <trkpt lat="48.82121" lon="2.33017">
        <ele>77.00674</ele>
        <time>2026-07-19T09:08:37.442Z</time>
      </trkpt>
      <trkpt lat="48.82125" lon="2.33017">
        <ele>76.99848</ele>
        <time>2026-07-19T09:08:39.441Z</time>
      </trkpt>
      <trkpt lat="48.82127" lon="2.33017">
        <ele>76.9878</ele>
        <time>2026-07-19T09:08:41.442Z</time>
      </trkpt>
      <trkpt lat="48.8213" lon="2.33017">
        <ele>76.97362</ele>
        <time>2026-07-19T09:08:44.442Z</time>
      </trkpt>
      <trkpt lat="48.82133" lon="2.33019">
        <ele>76.96047</ele>
        <time>2026-07-19T09:08:47.442Z</time>
      </trkpt>
      <trkpt lat="48.82135" lon="2.33022">
        <ele>76.93529</ele>
        <time>2026-07-19T09:08:52.442Z</time>
      </trkpt>
      <trkpt lat="48.82137" lon="2.33024">
        <ele>76.91747</ele>
        <time>2026-07-19T09:08:54.442Z</time>
      </trkpt>
      <trkpt lat="48.8214" lon="2.33024">
        <ele>76.89274</ele>
        <time>2026-07-19T09:08:56.442Z</time>
      </trkpt>
      <trkpt lat="48.82143" lon="2.33025">
        <ele>76.81744</ele>
        <time>2026-07-19T09:08:59.443Z</time>
      </trkpt>
      <trkpt lat="48.82145" lon="2.33025">
        <ele>76.71317</ele>
        <time>2026-07-19T09:09:01.442Z</time>
      </trkpt>
      <trkpt lat="48.82148" lon="2.33025">
        <ele>76.57132</ele>
        <time>2026-07-19T09:09:03.443Z</time>
      </trkpt>
      <trkpt lat="48.8215" lon="2.33026">
        <ele>76.36264</ele>
        <time>2026-07-19T09:09:05.443Z</time>
      </trkpt>
      <trkpt lat="48.82153" lon="2.33027">
        <ele>76.11568</ele>
        <time>2026-07-19T09:09:07.442Z</time>
      </trkpt>
      <trkpt lat="48.82156" lon="2.33028">
        <ele>75.74316</ele>
        <time>2026-07-19T09:09:10.442Z</time>
      </trkpt>
      <trkpt lat="48.82158" lon="2.3303">
        <ele>75.3645</ele>
        <time>2026-07-19T09:09:13.443Z</time>
      </trkpt>
      <trkpt lat="48.82161" lon="2.33031">
        <ele>75.14329</ele>
        <time>2026-07-19T09:09:15.443Z</time>
      </trkpt>
      <trkpt lat="48.82164" lon="2.33032">
        <ele>74.89417</ele>
        <time>2026-07-19T09:09:18.443Z</time>
      </trkpt>
      <trkpt lat="48.82166" lon="2.33033">
        <ele>74.76455</ele>
        <time>2026-07-19T09:09:20.443Z</time>
      </trkpt>
      <trkpt lat="48.82169" lon="2.33034">
        <ele>74.61909</ele>
        <time>2026-07-19T09:09:23.443Z</time>
      </trkpt>
      <trkpt lat="48.82171" lon="2.33034">
        <ele>74.50075</ele>
        <time>2026-07-19T09:09:25.443Z</time>
      </trkpt>
      <trkpt lat="48.82174" lon="2.33035">
        <ele>74.33594</ele>
        <time>2026-07-19T09:09:28.443Z</time>
      </trkpt>
      <trkpt lat="48.82177" lon="2.33036">
        <ele>74.26141</ele>
        <time>2026-07-19T09:09:30.443Z</time>
      </trkpt>
      <trkpt lat="48.82179" lon="2.33038">
        <ele>74.15916</ele>
        <time>2026-07-19T09:09:33.443Z</time>
      </trkpt>
      <trkpt lat="48.8218" lon="2.3304">
        <ele>74.02865</ele>
        <time>2026-07-19T09:09:38.444Z</time>
      </trkpt>
      <trkpt lat="48.82183" lon="2.3304">
        <ele>73.99775</ele>
        <time>2026-07-19T09:09:40.444Z</time>
      </trkpt>
      <trkpt lat="48.82186" lon="2.3304">
        <ele>73.97633</ele>
        <time>2026-07-19T09:09:42.444Z</time>
      </trkpt>
      <trkpt lat="48.82189" lon="2.3304">
        <ele>73.95427</ele>
        <time>2026-07-19T09:09:44.444Z</time>
      </trkpt>
      <trkpt lat="48.82192" lon="2.33041">
        <ele>73.94648</ele>
        <time>2026-07-19T09:09:46.445Z</time>
      </trkpt>
      <trkpt lat="48.82194" lon="2.33045">
        <ele>73.94871</ele>
        <time>2026-07-19T09:09:48.444Z</time>
      </trkpt>
      <trkpt lat="48.82196" lon="2.33049">
        <ele>73.96466</ele>
        <time>2026-07-19T09:09:51.444Z</time>
      </trkpt>
      <trkpt lat="48.82198" lon="2.33053">
        <ele>73.96648</ele>
        <time>2026-07-19T09:09:55.445Z</time>
      </trkpt>
      <trkpt lat="48.822" lon="2.33056">
        <ele>73.95864</ele>
        <time>2026-07-19T09:09:59.444Z</time>
      </trkpt>
      <trkpt lat="48.82202" lon="2.33056">
        <ele>73.94635</ele>
        <time>2026-07-19T09:10:03.443Z</time>
      </trkpt>
      <trkpt lat="48.82205" lon="2.33057">
        <ele>73.88543</ele>
        <time>2026-07-19T09:10:29.445Z</time>
      </trkpt>
      <trkpt lat="48.82207" lon="2.33058">
        <ele>73.86856</ele>
        <time>2026-07-19T09:10:32.444Z</time>
      </trkpt>
      <trkpt lat="48.82209" lon="2.3306">
        <ele>73.85799</ele>
        <time>2026-07-19T09:10:34.444Z</time>
      </trkpt>
      <trkpt lat="48.82212" lon="2.33061">
        <ele>73.8495</ele>
        <time>2026-07-19T09:10:36.445Z</time>
      </trkpt>
      <trkpt lat="48.82215" lon="2.33062">
        <ele>73.84017</ele>
        <time>2026-07-19T09:10:39.444Z</time>
      </trkpt>
      <trkpt lat="48.82218" lon="2.33063">
        <ele>73.82736</ele>
        <time>2026-07-19T09:10:43.445Z</time>
      </trkpt>
      <trkpt lat="48.8222" lon="2.33065">
        <ele>73.82117</ele>
        <time>2026-07-19T09:10:45.445Z</time>
      </trkpt>
      <trkpt lat="48.82222" lon="2.33066">
        <ele>73.80952</ele>
        <time>2026-07-19T09:10:48.445Z</time>
      </trkpt>
      <trkpt lat="48.82225" lon="2.33067">
        <ele>73.7891</ele>
        <time>2026-07-19T09:10:52.446Z</time>
      </trkpt>
      <trkpt lat="48.82228" lon="2.33067">
        <ele>73.75674</ele>
        <time>2026-07-19T09:10:56.445Z</time>
      </trkpt>
      <trkpt lat="48.8223" lon="2.33067">
        <ele>73.72973</ele>
        <time>2026-07-19T09:11:00.445Z</time>
      </trkpt>
      <trkpt lat="48.82232" lon="2.33066">
        <ele>73.71526</ele>
        <time>2026-07-19T09:11:02.445Z</time>
      </trkpt>
      <trkpt lat="48.82235" lon="2.33065">
        <ele>73.69848</ele>
        <time>2026-07-19T09:11:04.445Z</time>
      </trkpt>
      <trkpt lat="48.82239" lon="2.33063">
        <ele>73.67307</ele>
        <time>2026-07-19T09:11:07.445Z</time>
      </trkpt>
      <trkpt lat="48.82242" lon="2.33064">
        <ele>73.65018</ele>
        <time>2026-07-19T09:11:10.445Z</time>
      </trkpt>
      <trkpt lat="48.82244" lon="2.33065">
        <ele>73.6123</ele>
        <time>2026-07-19T09:11:15.446Z</time>
      </trkpt>
      <trkpt lat="48.82245" lon="2.33068">
        <ele>73.572</ele>
        <time>2026-07-19T09:11:21.445Z</time>
      </trkpt>
      <trkpt lat="48.82247" lon="2.33071">
        <ele>73.56237</ele>
        <time>2026-07-19T09:11:23.445Z</time>
      </trkpt>
      <trkpt lat="48.8225" lon="2.33073">
        <ele>73.56011</ele>
        <time>2026-07-19T09:11:24.446Z</time>
      </trkpt>
      <trkpt lat="48.82254" lon="2.33074">
        <ele>73.55738</ele>
        <time>2026-07-19T09:11:25.690Z</time>
      </trkpt>
      <trkpt lat="48.82256" lon="2.33075">
        <ele>73.55416</ele>
        <time>2026-07-19T09:11:26.446Z</time>
      </trkpt>
      <trkpt lat="48.8226" lon="2.33076">
        <ele>73.54887</ele>
        <time>2026-07-19T09:11:28.446Z</time>
      </trkpt>
      <trkpt lat="48.82263" lon="2.33076">
        <ele>73.54642</ele>
        <time>2026-07-19T09:11:30.446Z</time>
      </trkpt>
      <trkpt lat="48.82266" lon="2.33076">
        <ele>73.54613</ele>
        <time>2026-07-19T09:11:32.446Z</time>
      </trkpt>
      <trkpt lat="48.82269" lon="2.33076">
        <ele>73.54639</ele>
        <time>2026-07-19T09:11:34.446Z</time>
      </trkpt>
      <trkpt lat="48.82272" lon="2.33076">
        <ele>73.54751</ele>
        <time>2026-07-19T09:11:37.446Z</time>
      </trkpt>
      <trkpt lat="48.82274" lon="2.33076">
        <ele>73.55088</ele>
        <time>2026-07-19T09:11:40.446Z</time>
      </trkpt>
      <trkpt lat="48.82277" lon="2.33076">
        <ele>73.55525</ele>
        <time>2026-07-19T09:11:42.446Z</time>
      </trkpt>
      <trkpt lat="48.82279" lon="2.33076">
        <ele>73.55911</ele>
        <time>2026-07-19T09:11:44.445Z</time>
      </trkpt>
      <trkpt lat="48.82281" lon="2.33075">
        <ele>73.56218</ele>
        <time>2026-07-19T09:11:46.446Z</time>
      </trkpt>
      <trkpt lat="48.82284" lon="2.33076">
        <ele>73.5665</ele>
        <time>2026-07-19T09:11:49.446Z</time>
      </trkpt>
      <trkpt lat="48.82286" lon="2.33078">
        <ele>73.56906</ele>
        <time>2026-07-19T09:11:52.446Z</time>
      </trkpt>
      <trkpt lat="48.82289" lon="2.33081">
        <ele>73.57234</ele>
        <time>2026-07-19T09:11:55.446Z</time>
      </trkpt>
      <trkpt lat="48.82291" lon="2.33081">
        <ele>73.57482</ele>
        <time>2026-07-19T09:11:59.446Z</time>
      </trkpt>
      <trkpt lat="48.82293" lon="2.33083">
        <ele>73.57548</ele>
        <time>2026-07-19T09:12:06.447Z</time>
      </trkpt>
      <trkpt lat="48.82296" lon="2.33084">
        <ele>73.57577</ele>
        <time>2026-07-19T09:12:08.447Z</time>
      </trkpt>
      <trkpt lat="48.82301" lon="2.33085">
        <ele>73.57618</ele>
        <time>2026-07-19T09:12:11.447Z</time>
      </trkpt>
      <trkpt lat="48.82306" lon="2.33085">
        <ele>73.57683</ele>
        <time>2026-07-19T09:12:14.447Z</time>
      </trkpt>
      <trkpt lat="48.82308" lon="2.33086">
        <ele>73.57806</ele>
        <time>2026-07-19T09:12:16.448Z</time>
      </trkpt>
      <trkpt lat="48.82311" lon="2.33086">
        <ele>73.5802</ele>
        <time>2026-07-19T09:12:19.447Z</time>
      </trkpt>
      <trkpt lat="48.82314" lon="2.33089">
        <ele>73.58125</ele>
        <time>2026-07-19T09:12:20.447Z</time>
      </trkpt>
      <trkpt lat="48.82319" lon="2.3309">
        <ele>73.58443</ele>
        <time>2026-07-19T09:12:22.448Z</time>
      </trkpt>
      <trkpt lat="48.82323" lon="2.33092">
        <ele>73.58688</ele>
        <time>2026-07-19T09:12:24.447Z</time>
      </trkpt>
      <trkpt lat="48.82325" lon="2.33092">
        <ele>73.59131</ele>
        <time>2026-07-19T09:12:26.447Z</time>
      </trkpt>
      <trkpt lat="48.82329" lon="2.33091">
        <ele>73.602</ele>
        <time>2026-07-19T09:12:29.448Z</time>
      </trkpt>
      <trkpt lat="48.82332" lon="2.33091">
        <ele>73.61303</ele>
        <time>2026-07-19T09:12:31.447Z</time>
      </trkpt>
      <trkpt lat="48.82332" lon="2.33095">
        <ele>73.63162</ele>
        <time>2026-07-19T09:12:35.447Z</time>
      </trkpt>
      <trkpt lat="48.82335" lon="2.33098">
        <ele>73.63112</ele>
        <time>2026-07-19T09:12:39.447Z</time>
      </trkpt>
      <trkpt lat="48.82338" lon="2.33099">
        <ele>73.62844</ele>
        <time>2026-07-19T09:12:42.447Z</time>
      </trkpt>
      <trkpt lat="48.8234" lon="2.331">
        <ele>73.62851</ele>
        <time>2026-07-19T09:12:44.447Z</time>
      </trkpt>
      <trkpt lat="48.82343" lon="2.331">
        <ele>73.62926</ele>
        <time>2026-07-19T09:12:46.633Z</time>
      </trkpt>
      <trkpt lat="48.82346" lon="2.331">
        <ele>73.6299</ele>
        <time>2026-07-19T09:12:49.448Z</time>
      </trkpt>
      <trkpt lat="48.82348" lon="2.33101">
        <ele>73.63044</ele>
        <time>2026-07-19T09:12:51.447Z</time>
      </trkpt>
      <trkpt lat="48.82351" lon="2.33101">
        <ele>73.6309</ele>
        <time>2026-07-19T09:12:54.447Z</time>
      </trkpt>
      <trkpt lat="48.82354" lon="2.331">
        <ele>73.63038</ele>
        <time>2026-07-19T09:12:57.448Z</time>
      </trkpt>
      <trkpt lat="48.82355" lon="2.33097">
        <ele>73.62584</ele>
        <time>2026-07-19T09:13:13.447Z</time>
      </trkpt>
      <trkpt lat="48.82356" lon="2.33093">
        <ele>73.62363</ele>
        <time>2026-07-19T09:13:16.448Z</time>
      </trkpt>
      <trkpt lat="48.82356" lon="2.33089">
        <ele>73.62258</ele>
        <time>2026-07-19T09:13:19.448Z</time>
      </trkpt>
      <trkpt lat="48.82355" lon="2.33084">
        <ele>73.62191</ele>
        <time>2026-07-19T09:13:22.448Z</time>
      </trkpt>
      <trkpt lat="48.82355" lon="2.3308">
        <ele>73.62157</ele>
        <time>2026-07-19T09:13:24.448Z</time>
      </trkpt>
      <trkpt lat="48.82354" lon="2.33077">
        <ele>73.6212</ele>
        <time>2026-07-19T09:13:26.448Z</time>
      </trkpt>
      <trkpt lat="48.82354" lon="2.33073">
        <ele>73.62032</ele>
        <time>2026-07-19T09:13:29.448Z</time>
      </trkpt>
      <trkpt lat="48.82354" lon="2.33069">
        <ele>73.61602</ele>
        <time>2026-07-19T09:13:32.449Z</time>
      </trkpt>
      <trkpt lat="48.82355" lon="2.33066">
        <ele>73.60829</ele>
        <time>2026-07-19T09:13:35.449Z</time>
      </trkpt>
      <trkpt lat="48.82356" lon="2.33062">
        <ele>73.59933</ele>
        <time>2026-07-19T09:13:37.449Z</time>
      </trkpt>
      <trkpt lat="48.82356" lon="2.33058">
        <ele>73.57966</ele>
        <time>2026-07-19T09:13:40.449Z</time>
      </trkpt>
      <trkpt lat="48.82355" lon="2.33054">
        <ele>73.55636</ele>
        <time>2026-07-19T09:13:43.448Z</time>
      </trkpt>
      <trkpt lat="48.82355" lon="2.3305">
        <ele>73.53514</ele>
        <time>2026-07-19T09:13:45.448Z</time>
      </trkpt>
      <trkpt lat="48.82355" lon="2.33046">
        <ele>73.48818</ele>
        <time>2026-07-19T09:13:48.449Z</time>
      </trkpt>
      <trkpt lat="48.82355" lon="2.33043">
        <ele>73.44929</ele>
        <time>2026-07-19T09:13:50.448Z</time>
      </trkpt>
      <trkpt lat="48.82355" lon="2.33038">
        <ele>73.39376</ele>
        <time>2026-07-19T09:13:53.449Z</time>
      </trkpt>
      <trkpt lat="48.82356" lon="2.33035">
        <ele>73.34537</ele>
        <time>2026-07-19T09:13:56.449Z</time>
      </trkpt>
      <trkpt lat="48.82358" lon="2.3303">
        <ele>73.2929</ele>
        <time>2026-07-19T09:13:59.449Z</time>
      </trkpt>
      <trkpt lat="48.82359" lon="2.33027">
        <ele>73.23407</ele>
        <time>2026-07-19T09:14:02.449Z</time>
      </trkpt>
      <trkpt lat="48.8236" lon="2.33023">
        <ele>73.17552</ele>
        <time>2026-07-19T09:14:05.449Z</time>
      </trkpt>
      <trkpt lat="48.82362" lon="2.3302">
        <ele>73.13909</ele>
        <time>2026-07-19T09:14:07.450Z</time>
      </trkpt>
      <trkpt lat="48.82363" lon="2.33016">
        <ele>73.10456</ele>
        <time>2026-07-19T09:14:10.450Z</time>
      </trkpt>
      <trkpt lat="48.82365" lon="2.33012">
        <ele>73.06965</ele>
        <time>2026-07-19T09:14:13.450Z</time>
      </trkpt>
      <trkpt lat="48.82365" lon="2.33007">
        <ele>73.03965</ele>
        <time>2026-07-19T09:14:16.450Z</time>
      </trkpt>
      <trkpt lat="48.82366" lon="2.33003">
        <ele>73.02039</ele>
        <time>2026-07-19T09:14:18.449Z</time>
      </trkpt>
      <trkpt lat="48.82367" lon="2.33">
        <ele>73.00121</ele>
        <time>2026-07-19T09:14:21.449Z</time>
      </trkpt>
      <trkpt lat="48.82367" lon="2.32996">
        <ele>72.98532</ele>
        <time>2026-07-19T09:14:24.450Z</time>
      </trkpt>
      <trkpt lat="48.82368" lon="2.32992">
        <ele>72.9797</ele>
        <time>2026-07-19T09:14:26.450Z</time>
      </trkpt>
      <trkpt lat="48.82369" lon="2.32989">
        <ele>72.97868</ele>
        <time>2026-07-19T09:14:28.449Z</time>
      </trkpt>
      <trkpt lat="48.82369" lon="2.32985">
        <ele>72.97681</ele>
        <time>2026-07-19T09:14:31.450Z</time>
      </trkpt>
      <trkpt lat="48.82371" lon="2.32982">
        <ele>72.97434</ele>
        <time>2026-07-19T09:14:34.450Z</time>
      </trkpt>
      <trkpt lat="48.82372" lon="2.32979">
        <ele>72.97307</ele>
        <time>2026-07-19T09:14:36.450Z</time>
      </trkpt>
      <trkpt lat="48.82374" lon="2.32975">
        <ele>72.97205</ele>
        <time>2026-07-19T09:14:39.450Z</time>
      </trkpt>
      <trkpt lat="48.82374" lon="2.32972">
        <ele>72.97079</ele>
        <time>2026-07-19T09:14:42.450Z</time>
      </trkpt>
      <trkpt lat="48.82376" lon="2.32967">
        <ele>72.96884</ele>
        <time>2026-07-19T09:14:45.450Z</time>
      </trkpt>
      <trkpt lat="48.82376" lon="2.32963">
        <ele>72.96598</ele>
        <time>2026-07-19T09:14:48.450Z</time>
      </trkpt>
      <trkpt lat="48.82377" lon="2.32958">
        <ele>72.96324</ele>
        <time>2026-07-19T09:14:51.450Z</time>
      </trkpt>
      <trkpt lat="48.82377" lon="2.32953">
        <ele>72.95898</ele>
        <time>2026-07-19T09:14:54.450Z</time>
      </trkpt>
      <trkpt lat="48.82379" lon="2.32949">
        <ele>72.95611</ele>
        <time>2026-07-19T09:14:57.450Z</time>
      </trkpt>
      <trkpt lat="48.8238" lon="2.32946">
        <ele>72.9551</ele>
        <time>2026-07-19T09:14:59.450Z</time>
      </trkpt>
      <trkpt lat="48.82381" lon="2.32942">
        <ele>72.95536</ele>
        <time>2026-07-19T09:15:02.450Z</time>
      </trkpt>
      <trkpt lat="48.82383" lon="2.32939">
        <ele>72.95491</ele>
        <time>2026-07-19T09:15:04.451Z</time>
      </trkpt>
      <trkpt lat="48.82384" lon="2.32935">
        <ele>72.95399</ele>
        <time>2026-07-19T09:15:06.451Z</time>
      </trkpt>
      <trkpt lat="48.82386" lon="2.32932">
        <ele>72.9536</ele>
        <time>2026-07-19T09:15:08.451Z</time>
      </trkpt>
      <trkpt lat="48.82387" lon="2.32928">
        <ele>72.95354</ele>
        <time>2026-07-19T09:15:11.450Z</time>
      </trkpt>
      <trkpt lat="48.82388" lon="2.32924">
        <ele>72.95295</ele>
        <time>2026-07-19T09:15:14.450Z</time>
      </trkpt>
      <trkpt lat="48.8239" lon="2.3292">
        <ele>72.94993</ele>
        <time>2026-07-19T09:15:18.451Z</time>
      </trkpt>
      <trkpt lat="48.82391" lon="2.32917">
        <ele>72.94425</ele>
        <time>2026-07-19T09:15:22.451Z</time>
      </trkpt>
      <trkpt lat="48.8239" lon="2.32913">
        <ele>72.9334</ele>
        <time>2026-07-19T09:15:25.451Z</time>
      </trkpt>
      <trkpt lat="48.8239" lon="2.32908">
        <ele>72.91848</ele>
        <time>2026-07-19T09:15:28.452Z</time>
      </trkpt>
      <trkpt lat="48.82392" lon="2.32905">
        <ele>72.87513</ele>
        <time>2026-07-19T09:15:32.451Z</time>
      </trkpt>
      <trkpt lat="48.82392" lon="2.32901">
        <ele>72.8194</ele>
        <time>2026-07-19T09:15:35.451Z</time>
      </trkpt>
      <trkpt lat="48.82394" lon="2.32898">
        <ele>72.7518</ele>
        <time>2026-07-19T09:15:38.452Z</time>
      </trkpt>
      <trkpt lat="48.82395" lon="2.32894">
        <ele>72.69519</ele>
        <time>2026-07-19T09:15:40.451Z</time>
      </trkpt>
      <trkpt lat="48.82395" lon="2.32891">
        <ele>72.62595</ele>
        <time>2026-07-19T09:15:42.452Z</time>
      </trkpt>
      <trkpt lat="48.82396" lon="2.32888">
        <ele>72.56489</ele>
        <time>2026-07-19T09:15:44.451Z</time>
      </trkpt>
      <trkpt lat="48.82396" lon="2.32882">
        <ele>72.46987</ele>
        <time>2026-07-19T09:15:47.451Z</time>
      </trkpt>
      <trkpt lat="48.82396" lon="2.32878">
        <ele>72.39655</ele>
        <time>2026-07-19T09:15:49.452Z</time>
      </trkpt>
      <trkpt lat="48.82396" lon="2.32873">
        <ele>72.31095</ele>
        <time>2026-07-19T09:15:51.452Z</time>
      </trkpt>
      <trkpt lat="48.82398" lon="2.3287">
        <ele>72.21066</ele>
        <time>2026-07-19T09:15:53.452Z</time>
      </trkpt>
      <trkpt lat="48.82397" lon="2.32866">
        <ele>72.05412</ele>
        <time>2026-07-19T09:15:56.453Z</time>
      </trkpt>
      <trkpt lat="48.82398" lon="2.32863">
        <ele>71.93309</ele>
        <time>2026-07-19T09:15:58.451Z</time>
      </trkpt>
      <trkpt lat="48.82397" lon="2.32859">
        <ele>71.79432</ele>
        <time>2026-07-19T09:16:00.452Z</time>
      </trkpt>
      <trkpt lat="48.82399" lon="2.32856">
        <ele>71.53377</ele>
        <time>2026-07-19T09:16:03.451Z</time>
      </trkpt>
      <trkpt lat="48.82399" lon="2.32853">
        <ele>71.35537</ele>
        <time>2026-07-19T09:16:05.452Z</time>
      </trkpt>
      <trkpt lat="48.824" lon="2.3285">
        <ele>71.16686</ele>
        <time>2026-07-19T09:16:07.452Z</time>
      </trkpt>
      <trkpt lat="48.82399" lon="2.32846">
        <ele>70.98299</ele>
        <time>2026-07-19T09:16:09.452Z</time>
      </trkpt>
      <trkpt lat="48.82402" lon="2.32841">
        <ele>70.81268</ele>
        <time>2026-07-19T09:16:11.452Z</time>
      </trkpt>
      <trkpt lat="48.82402" lon="2.32837">
        <ele>70.56268</ele>
        <time>2026-07-19T09:16:14.452Z</time>
      </trkpt>
      <trkpt lat="48.82403" lon="2.32834">
        <ele>70.32181</ele>
        <time>2026-07-19T09:16:17.451Z</time>
      </trkpt>
      <trkpt lat="48.82405" lon="2.32831">
        <ele>70.1741</ele>
        <time>2026-07-19T09:16:19.452Z</time>
      </trkpt>
      <trkpt lat="48.82406" lon="2.32828">
        <ele>70.0253</ele>
        <time>2026-07-19T09:16:21.453Z</time>
      </trkpt>
      <trkpt lat="48.82407" lon="2.32823">
        <ele>69.83654</ele>
        <time>2026-07-19T09:16:24.452Z</time>
      </trkpt>
      <trkpt lat="48.82407" lon="2.32819">
        <ele>69.74186</ele>
        <time>2026-07-19T09:16:26.452Z</time>
      </trkpt>
      <trkpt lat="48.82408" lon="2.32815">
        <ele>69.68314</ele>
        <time>2026-07-19T09:16:28.452Z</time>
      </trkpt>
      <trkpt lat="48.82408" lon="2.32811">
        <ele>69.64341</ele>
        <time>2026-07-19T09:16:30.453Z</time>
      </trkpt>
      <trkpt lat="48.82406" lon="2.32806">
        <ele>69.56966</ele>
        <time>2026-07-19T09:16:33.453Z</time>
      </trkpt>
      <trkpt lat="48.82406" lon="2.32802">
        <ele>69.50397</ele>
        <time>2026-07-19T09:16:36.453Z</time>
      </trkpt>
      <trkpt lat="48.82407" lon="2.32799">
        <ele>69.46825</ele>
        <time>2026-07-19T09:16:38.452Z</time>
      </trkpt>
      <trkpt lat="48.82406" lon="2.32795">
        <ele>69.41474</ele>
        <time>2026-07-19T09:16:41.453Z</time>
      </trkpt>
      <trkpt lat="48.82406" lon="2.32791">
        <ele>69.38217</ele>
        <time>2026-07-19T09:16:43.453Z</time>
      </trkpt>
      <trkpt lat="48.82405" lon="2.32787">
        <ele>69.34685</ele>
        <time>2026-07-19T09:16:45.453Z</time>
      </trkpt>
      <trkpt lat="48.82406" lon="2.32783">
        <ele>69.29438</ele>
        <time>2026-07-19T09:16:48.453Z</time>
      </trkpt>
      <trkpt lat="48.82406" lon="2.32778">
        <ele>69.21561</ele>
        <time>2026-07-19T09:16:51.453Z</time>
      </trkpt>
      <trkpt lat="48.82405" lon="2.32774">
        <ele>69.07705</ele>
        <time>2026-07-19T09:16:55.453Z</time>
      </trkpt>
      <trkpt lat="48.82405" lon="2.3277">
        <ele>69.01634</ele>
        <time>2026-07-19T09:16:57.453Z</time>
      </trkpt>
      <trkpt lat="48.82405" lon="2.32766">
        <ele>68.94157</ele>
        <time>2026-07-19T09:17:00.453Z</time>
      </trkpt>
      <trkpt lat="48.82406" lon="2.32762">
        <ele>68.88584</ele>
        <time>2026-07-19T09:17:03.454Z</time>
      </trkpt>
      <trkpt lat="48.82407" lon="2.32758">
        <ele>68.85345</ele>
        <time>2026-07-19T09:17:05.453Z</time>
      </trkpt>
      <trkpt lat="48.82407" lon="2.32754">
        <ele>68.82127</ele>
        <time>2026-07-19T09:17:07.454Z</time>
      </trkpt>
      <trkpt lat="48.82408" lon="2.3275">
        <ele>68.79359</ele>
        <time>2026-07-19T09:17:09.453Z</time>
      </trkpt>
      <trkpt lat="48.82409" lon="2.32747">
        <ele>68.76579</ele>
        <time>2026-07-19T09:17:11.453Z</time>
      </trkpt>
      <trkpt lat="48.82411" lon="2.32743">
        <ele>68.74355</ele>
        <time>2026-07-19T09:17:13.453Z</time>
      </trkpt>
      <trkpt lat="48.82413" lon="2.32739">
        <ele>68.70418</ele>
        <time>2026-07-19T09:17:16.453Z</time>
      </trkpt>
      <trkpt lat="48.82414" lon="2.32737">
        <ele>68.55894</ele>
        <time>2026-07-19T09:17:24.454Z</time>
      </trkpt>
      <trkpt lat="48.82414" lon="2.32732">
        <ele>68.4766</ele>
        <time>2026-07-19T09:17:27.453Z</time>
      </trkpt>
      <trkpt lat="48.82415" lon="2.32727">
        <ele>68.42055</ele>
        <time>2026-07-19T09:17:29.453Z</time>
      </trkpt>
      <trkpt lat="48.82416" lon="2.32722">
        <ele>68.31864</ele>
        <time>2026-07-19T09:17:32.453Z</time>
      </trkpt>
      <trkpt lat="48.82418" lon="2.32718">
        <ele>68.20075</ele>
        <time>2026-07-19T09:17:35.454Z</time>
      </trkpt>
      <trkpt lat="48.82419" lon="2.32714">
        <ele>68.11807</ele>
        <time>2026-07-19T09:17:37.454Z</time>
      </trkpt>
      <trkpt lat="48.82421" lon="2.32711">
        <ele>68.0363</ele>
        <time>2026-07-19T09:17:39.454Z</time>
      </trkpt>
      <trkpt lat="48.82422" lon="2.32707">
        <ele>67.95945</ele>
        <time>2026-07-19T09:17:41.454Z</time>
      </trkpt>
      <trkpt lat="48.82424" lon="2.32704">
        <ele>67.84591</ele>
        <time>2026-07-19T09:17:44.455Z</time>
      </trkpt>
      <trkpt lat="48.82424" lon="2.32699">
        <ele>67.72215</ele>
        <time>2026-07-19T09:17:47.454Z</time>
      </trkpt>
      <trkpt lat="48.82426" lon="2.32694">
        <ele>67.60714</ele>
        <time>2026-07-19T09:17:50.455Z</time>
      </trkpt>
      <trkpt lat="48.82427" lon="2.3269">
        <ele>67.5364</ele>
        <time>2026-07-19T09:17:52.454Z</time>
      </trkpt>
      <trkpt lat="48.82428" lon="2.32687">
        <ele>67.46851</ele>
        <time>2026-07-19T09:17:54.454Z</time>
      </trkpt>
      <trkpt lat="48.82428" lon="2.32682">
        <ele>67.34667</ele>
        <time>2026-07-19T09:17:58.455Z</time>
      </trkpt>
      <trkpt lat="48.82426" lon="2.32679">
        <ele>67.2179</ele>
        <time>2026-07-19T09:18:02.454Z</time>
      </trkpt>
      <trkpt lat="48.82426" lon="2.32674">
        <ele>67.13661</ele>
        <time>2026-07-19T09:18:05.455Z</time>
      </trkpt>
      <trkpt lat="48.82428" lon="2.32671">
        <ele>67.07879</ele>
        <time>2026-07-19T09:18:07.455Z</time>
      </trkpt>
      <trkpt lat="48.8243" lon="2.32666">
        <ele>67.01741</ele>
        <time>2026-07-19T09:18:09.455Z</time>
      </trkpt>
      <trkpt lat="48.82429" lon="2.32661">
        <ele>66.96684</ele>
        <time>2026-07-19T09:18:11.454Z</time>
      </trkpt>
      <trkpt lat="48.8243" lon="2.32656">
        <ele>66.93114</ele>
        <time>2026-07-19T09:18:13.455Z</time>
      </trkpt>
      <trkpt lat="48.82431" lon="2.32652">
        <ele>66.89234</ele>
        <time>2026-07-19T09:18:15.455Z</time>
      </trkpt>
      <trkpt lat="48.82433" lon="2.32648">
        <ele>66.84122</ele>
        <time>2026-07-19T09:18:18.454Z</time>
      </trkpt>
      <trkpt lat="48.82434" lon="2.32645">
        <ele>66.80734</ele>
        <time>2026-07-19T09:18:20.454Z</time>
      </trkpt>
      <trkpt lat="48.82434" lon="2.32641">
        <ele>66.771</ele>
        <time>2026-07-19T09:18:22.455Z</time>
      </trkpt>
      <trkpt lat="48.82436" lon="2.32638">
        <ele>66.7225</ele>
        <time>2026-07-19T09:18:25.455Z</time>
      </trkpt>
      <trkpt lat="48.82438" lon="2.32635">
        <ele>66.68015</ele>
        <time>2026-07-19T09:18:28.455Z</time>
      </trkpt>
      <trkpt lat="48.82439" lon="2.32632">
        <ele>66.63552</ele>
        <time>2026-07-19T09:18:32.455Z</time>
      </trkpt>
      <trkpt lat="48.82439" lon="2.32628">
        <ele>66.6038</ele>
        <time>2026-07-19T09:18:35.455Z</time>
      </trkpt>
      <trkpt lat="48.8244" lon="2.32624">
        <ele>66.57796</ele>
        <time>2026-07-19T09:18:37.455Z</time>
      </trkpt>
      <trkpt lat="48.82439" lon="2.3262">
        <ele>66.54969</ele>
        <time>2026-07-19T09:18:40.456Z</time>
      </trkpt>
      <trkpt lat="48.8244" lon="2.32616">
        <ele>66.52326</ele>
        <time>2026-07-19T09:18:43.456Z</time>
      </trkpt>
      <trkpt lat="48.82441" lon="2.32612">
        <ele>66.50057</ele>
        <time>2026-07-19T09:18:46.456Z</time>
      </trkpt>
      <trkpt lat="48.82443" lon="2.32608">
        <ele>66.48084</ele>
        <time>2026-07-19T09:18:49.455Z</time>
      </trkpt>
      <trkpt lat="48.82445" lon="2.32606">
        <ele>66.46158</ele>
        <time>2026-07-19T09:18:51.455Z</time>
      </trkpt>
      <trkpt lat="48.82448" lon="2.32605">
        <ele>66.42585</ele>
        <time>2026-07-19T09:18:55.456Z</time>
      </trkpt>
      <trkpt lat="48.8245" lon="2.32604">
        <ele>66.38682</ele>
        <time>2026-07-19T09:18:58.455Z</time>
      </trkpt>
      <trkpt lat="48.82453" lon="2.32603">
        <ele>66.33548</ele>
        <time>2026-07-19T09:19:01.455Z</time>
      </trkpt>
      <trkpt lat="48.82453" lon="2.32599">
        <ele>65.88614</ele>
        <time>2026-07-19T09:19:30.456Z</time>
      </trkpt>
      <trkpt lat="48.82453" lon="2.32596">
        <ele>65.86154</ele>
        <time>2026-07-19T09:19:32.456Z</time>
      </trkpt>
      <trkpt lat="48.82454" lon="2.32592">
        <ele>65.84321</ele>
        <time>2026-07-19T09:19:34.456Z</time>
      </trkpt>
      <trkpt lat="48.82455" lon="2.32587">
        <ele>65.81803</ele>
        <time>2026-07-19T09:19:37.456Z</time>
      </trkpt>
      <trkpt lat="48.82455" lon="2.32583">
        <ele>65.80783</ele>
        <time>2026-07-19T09:19:39.457Z</time>
      </trkpt>
      <trkpt lat="48.82456" lon="2.32579">
        <ele>65.78758</ele>
        <time>2026-07-19T09:19:42.456Z</time>
      </trkpt>
      <trkpt lat="48.82456" lon="2.32575">
        <ele>65.74376</ele>
        <time>2026-07-19T09:19:46.456Z</time>
      </trkpt>
      <trkpt lat="48.82455" lon="2.32572">
        <ele>65.71323</ele>
        <time>2026-07-19T09:19:49.456Z</time>
      </trkpt>
      <trkpt lat="48.82453" lon="2.3257">
        <ele>65.69509</ele>
        <time>2026-07-19T09:19:52.456Z</time>
      </trkpt>
      <trkpt lat="48.82452" lon="2.32566">
        <ele>65.68485</ele>
        <time>2026-07-19T09:19:55.456Z</time>
      </trkpt>
      <trkpt lat="48.82452" lon="2.32562">
        <ele>65.6693</ele>
        <time>2026-07-19T09:19:58.456Z</time>
      </trkpt>
      <trkpt lat="48.82453" lon="2.32558">
        <ele>65.65206</ele>
        <time>2026-07-19T09:20:02.457Z</time>
      </trkpt>
      <trkpt lat="48.82453" lon="2.32554">
        <ele>65.64059</ele>
        <time>2026-07-19T09:20:05.456Z</time>
      </trkpt>
      <trkpt lat="48.82455" lon="2.32551">
        <ele>65.63693</ele>
        <time>2026-07-19T09:20:08.457Z</time>
      </trkpt>
      <trkpt lat="48.82456" lon="2.32547">
        <ele>65.66507</ele>
        <time>2026-07-19T09:20:31.457Z</time>
      </trkpt>
      <trkpt lat="48.82457" lon="2.32543">
        <ele>65.66666</ele>
        <time>2026-07-19T09:20:33.458Z</time>
      </trkpt>
      <trkpt lat="48.82458" lon="2.3254">
        <ele>65.67018</ele>
        <time>2026-07-19T09:20:35.457Z</time>
      </trkpt>
      <trkpt lat="48.8246" lon="2.32537">
        <ele>65.68421</ele>
        <time>2026-07-19T09:20:39.458Z</time>
      </trkpt>
      <trkpt lat="48.82462" lon="2.32536">
        <ele>65.72815</ele>
        <time>2026-07-19T09:20:44.457Z</time>
      </trkpt>
      <trkpt lat="48.82462" lon="2.32533">
        <ele>65.75664</ele>
        <time>2026-07-19T09:20:52.457Z</time>
      </trkpt>
      <trkpt lat="48.82464" lon="2.3253">
        <ele>65.75783</ele>
        <time>2026-07-19T09:21:00.457Z</time>
      </trkpt>
      <trkpt lat="48.82465" lon="2.32527">
        <ele>65.74296</ele>
        <time>2026-07-19T09:21:13.458Z</time>
      </trkpt>
      <trkpt lat="48.82467" lon="2.32523">
        <ele>65.73636</ele>
        <time>2026-07-19T09:21:17.458Z</time>
      </trkpt>
      <trkpt lat="48.82466" lon="2.3252">
        <ele>64.77458</ele>
        <time>2026-07-19T09:21:57.459Z</time>
      </trkpt>
      <trkpt lat="48.82467" lon="2.32523">
        <ele>64.59354</ele>
        <time>2026-07-19T09:22:02.459Z</time>
      </trkpt>
      <trkpt lat="48.8247" lon="2.32526">
        <ele>64.48934</ele>
        <time>2026-07-19T09:22:04.459Z</time>
      </trkpt>
      <trkpt lat="48.82472" lon="2.32526">
        <ele>64.37943</ele>
        <time>2026-07-19T09:22:06.459Z</time>
      </trkpt>
      <trkpt lat="48.82474" lon="2.32523">
        <ele>64.21556</ele>
        <time>2026-07-19T09:22:09.460Z</time>
      </trkpt>
      <trkpt lat="48.82477" lon="2.3252">
        <ele>64.05543</ele>
        <time>2026-07-19T09:22:12.460Z</time>
      </trkpt>
      <trkpt lat="48.82478" lon="2.32516">
        <ele>63.89797</ele>
        <time>2026-07-19T09:22:15.459Z</time>
      </trkpt>
      <trkpt lat="48.82479" lon="2.32512">
        <ele>63.7347</ele>
        <time>2026-07-19T09:22:18.459Z</time>
      </trkpt>
      <trkpt lat="48.8248" lon="2.32508">
        <ele>63.58504</ele>
        <time>2026-07-19T09:22:21.460Z</time>
      </trkpt>
      <trkpt lat="48.8248" lon="2.32504">
        <ele>63.4457</ele>
        <time>2026-07-19T09:22:24.460Z</time>
      </trkpt>
      <trkpt lat="48.82505" lon="2.32363">
        <ele>63.33599</ele>
        <time>2026-07-19T09:24:05.462Z</time>
      </trkpt>
      <trkpt lat="48.82506" lon="2.3236">
        <ele>63.01746</ele>
        <time>2026-07-19T09:24:08.461Z</time>
      </trkpt>
      <trkpt lat="48.82507" lon="2.32356">
        <ele>62.73502</ele>
        <time>2026-07-19T09:24:10.462Z</time>
      </trkpt>
      <trkpt lat="48.82508" lon="2.32353">
        <ele>62.46536</ele>
        <time>2026-07-19T09:24:12.463Z</time>
      </trkpt>
      <trkpt lat="48.82509" lon="2.32349">
        <ele>62.20196</ele>
        <time>2026-07-19T09:24:14.462Z</time>
      </trkpt>
      <trkpt lat="48.8251" lon="2.32345">
        <ele>61.75578</ele>
        <time>2026-07-19T09:24:17.462Z</time>
      </trkpt>
      <trkpt lat="48.82511" lon="2.32341">
        <ele>61.42771</ele>
        <time>2026-07-19T09:24:19.462Z</time>
      </trkpt>
      <trkpt lat="48.82512" lon="2.32335">
        <ele>61.12775</ele>
        <time>2026-07-19T09:24:21.462Z</time>
      </trkpt>
      <trkpt lat="48.82513" lon="2.32331">
        <ele>60.87163</ele>
        <time>2026-07-19T09:24:23.462Z</time>
      </trkpt>
      <trkpt lat="48.82514" lon="2.32327">
        <ele>60.66316</ele>
        <time>2026-07-19T09:24:25.462Z</time>
      </trkpt>
      <trkpt lat="48.82515" lon="2.32324">
        <ele>60.49874</ele>
        <time>2026-07-19T09:24:27.462Z</time>
      </trkpt>
      <trkpt lat="48.82516" lon="2.3232">
        <ele>60.30726</ele>
        <time>2026-07-19T09:24:30.462Z</time>
      </trkpt>
      <trkpt lat="48.82518" lon="2.32317">
        <ele>60.14132</ele>
        <time>2026-07-19T09:24:33.462Z</time>
      </trkpt>
      <trkpt lat="48.82519" lon="2.32314">
        <ele>59.82683</ele>
        <time>2026-07-19T09:24:40.462Z</time>
      </trkpt>
      <trkpt lat="48.82521" lon="2.32311">
        <ele>59.29879</ele>
        <time>2026-07-19T09:24:49.463Z</time>
      </trkpt>
      <trkpt lat="48.8252" lon="2.32306">
        <ele>59.07383</ele>
        <time>2026-07-19T09:24:52.462Z</time>
      </trkpt>
      <trkpt lat="48.8252" lon="2.32302">
        <ele>58.83923</ele>
        <time>2026-07-19T09:24:55.462Z</time>
      </trkpt>
      <trkpt lat="48.82521" lon="2.32299">
        <ele>58.29517</ele>
        <time>2026-07-19T09:25:44.465Z</time>
      </trkpt>
      <trkpt lat="48.82522" lon="2.32294">
        <ele>58.30033</ele>
        <time>2026-07-19T09:25:46.464Z</time>
      </trkpt>
      <trkpt lat="48.82523" lon="2.32288">
        <ele>58.30387</ele>
        <time>2026-07-19T09:25:48.463Z</time>
      </trkpt>
      <trkpt lat="48.82524" lon="2.32283">
        <ele>58.30547</ele>
        <time>2026-07-19T09:25:50.464Z</time>
      </trkpt>
      <trkpt lat="48.82525" lon="2.32279">
        <ele>58.3033</ele>
        <time>2026-07-19T09:25:52.463Z</time>
      </trkpt>
      <trkpt lat="48.82525" lon="2.32274">
        <ele>58.29763</ele>
        <time>2026-07-19T09:25:54.464Z</time>
      </trkpt>
      <trkpt lat="48.82525" lon="2.3227">
        <ele>58.29155</ele>
        <time>2026-07-19T09:25:56.464Z</time>
      </trkpt>
      <trkpt lat="48.82526" lon="2.32267">
        <ele>58.28852</ele>
        <time>2026-07-19T09:25:57.464Z</time>
      </trkpt>
      <trkpt lat="48.82528" lon="2.32262">
        <ele>58.28237</ele>
        <time>2026-07-19T09:25:59.465Z</time>
      </trkpt>
      <trkpt lat="48.82529" lon="2.32259">
        <ele>58.27642</ele>
        <time>2026-07-19T09:26:01.464Z</time>
      </trkpt>
      <trkpt lat="48.8253" lon="2.32255">
        <ele>58.26927</ele>
        <time>2026-07-19T09:26:03.465Z</time>
      </trkpt>
      <trkpt lat="48.82531" lon="2.3225">
        <ele>58.26527</ele>
        <time>2026-07-19T09:26:05.464Z</time>
      </trkpt>
      <trkpt lat="48.82533" lon="2.32245">
        <ele>58.26128</ele>
        <time>2026-07-19T09:26:07.464Z</time>
      </trkpt>
      <trkpt lat="48.82533" lon="2.32241">
        <ele>58.25693</ele>
        <time>2026-07-19T09:26:09.465Z</time>
      </trkpt>
      <trkpt lat="48.82535" lon="2.32237">
        <ele>58.25154</ele>
        <time>2026-07-19T09:26:11.465Z</time>
      </trkpt>
      <trkpt lat="48.82535" lon="2.32233">
        <ele>58.2445</ele>
        <time>2026-07-19T09:26:13.465Z</time>
      </trkpt>
      <trkpt lat="48.82536" lon="2.32229">
        <ele>58.2345</ele>
        <time>2026-07-19T09:26:15.464Z</time>
      </trkpt>
      <trkpt lat="48.82538" lon="2.32226">
        <ele>58.22042</ele>
        <time>2026-07-19T09:26:17.465Z</time>
      </trkpt>
      <trkpt lat="48.82539" lon="2.32222">
        <ele>58.20164</ele>
        <time>2026-07-19T09:26:19.466Z</time>
      </trkpt>
      <trkpt lat="48.8254" lon="2.32217">
        <ele>58.17616</ele>
        <time>2026-07-19T09:26:21.464Z</time>
      </trkpt>
      <trkpt lat="48.82541" lon="2.32213">
        <ele>58.14878</ele>
        <time>2026-07-19T09:26:23.465Z</time>
      </trkpt>
      <trkpt lat="48.82542" lon="2.32208">
        <ele>58.1243</ele>
        <time>2026-07-19T09:26:25.465Z</time>
      </trkpt>
      <trkpt lat="48.82543" lon="2.32203">
        <ele>58.0983</ele>
        <time>2026-07-19T09:26:27.464Z</time>
      </trkpt>
      <trkpt lat="48.82543" lon="2.32199">
        <ele>58.07078</ele>
        <time>2026-07-19T09:26:29.465Z</time>
      </trkpt>
      <trkpt lat="48.82544" lon="2.32197">
        <ele>58.0399</ele>
        <time>2026-07-19T09:26:31.465Z</time>
      </trkpt>
      <trkpt lat="48.82546" lon="2.32193">
        <ele>58.00271</ele>
        <time>2026-07-19T09:26:33.465Z</time>
      </trkpt>
      <trkpt lat="48.82548" lon="2.32189">
        <ele>57.96724</ele>
        <time>2026-07-19T09:26:35.465Z</time>
      </trkpt>
      <trkpt lat="48.82549" lon="2.32185">
        <ele>57.93773</ele>
        <time>2026-07-19T09:26:37.465Z</time>
      </trkpt>
      <trkpt lat="48.8255" lon="2.32181">
        <ele>57.91435</ele>
        <time>2026-07-19T09:26:39.465Z</time>
      </trkpt>
      <trkpt lat="48.82551" lon="2.32177">
        <ele>57.89595</ele>
        <time>2026-07-19T09:26:41.465Z</time>
      </trkpt>
      <trkpt lat="48.82551" lon="2.32172">
        <ele>57.87483</ele>
        <time>2026-07-19T09:26:44.465Z</time>
      </trkpt>
      <trkpt lat="48.82552" lon="2.32168">
        <ele>57.86044</ele>
        <time>2026-07-19T09:26:47.465Z</time>
      </trkpt>
      <trkpt lat="48.82553" lon="2.32164">
        <ele>57.847</ele>
        <time>2026-07-19T09:26:50.465Z</time>
      </trkpt>
      <trkpt lat="48.82554" lon="2.3216">
        <ele>57.83446</ele>
        <time>2026-07-19T09:26:53.465Z</time>
      </trkpt>
      <trkpt lat="48.82558" lon="2.32157">
        <ele>57.82303</ele>
        <time>2026-07-19T09:26:56.465Z</time>
      </trkpt>
      <trkpt lat="48.82557" lon="2.32153">
        <ele>57.81661</ele>
        <time>2026-07-19T09:26:57.465Z</time>
      </trkpt>
      <trkpt lat="48.82555" lon="2.32149">
        <ele>57.8099</ele>
        <time>2026-07-19T09:26:58.465Z</time>
      </trkpt>
      <trkpt lat="48.82553" lon="2.32146">
        <ele>57.80291</ele>
        <time>2026-07-19T09:26:59.466Z</time>
      </trkpt>
      <trkpt lat="48.82554" lon="2.32141">
        <ele>57.79436</ele>
        <time>2026-07-19T09:27:00.465Z</time>
      </trkpt>
      <trkpt lat="48.82555" lon="2.32136">
        <ele>57.78652</ele>
        <time>2026-07-19T09:27:01.466Z</time>
      </trkpt>
      <trkpt lat="48.82556" lon="2.3213">
        <ele>57.77141</ele>
        <time>2026-07-19T09:27:03.466Z</time>
      </trkpt>
      <trkpt lat="48.82557" lon="2.32125">
        <ele>57.74167</ele>
        <time>2026-07-19T09:27:06.465Z</time>
      </trkpt>
      <trkpt lat="48.82559" lon="2.32121">
        <ele>57.7164</ele>
        <time>2026-07-19T09:27:08.466Z</time>
      </trkpt>
      <trkpt lat="48.8256" lon="2.32117">
        <ele>57.68822</ele>
        <time>2026-07-19T09:27:10.465Z</time>
      </trkpt>
      <trkpt lat="48.82562" lon="2.32112">
        <ele>57.65556</ele>
        <time>2026-07-19T09:27:12.466Z</time>
      </trkpt>
      <trkpt lat="48.82563" lon="2.32107">
        <ele>57.62833</ele>
        <time>2026-07-19T09:27:14.466Z</time>
      </trkpt>
      <trkpt lat="48.82565" lon="2.32101">
        <ele>57.60048</ele>
        <time>2026-07-19T09:27:16.466Z</time>
      </trkpt>
      <trkpt lat="48.82566" lon="2.32098">
        <ele>57.57237</ele>
        <time>2026-07-19T09:27:18.466Z</time>
      </trkpt>
      <trkpt lat="48.82567" lon="2.32093">
        <ele>57.5433</ele>
        <time>2026-07-19T09:27:20.466Z</time>
      </trkpt>
      <trkpt lat="48.82568" lon="2.32089">
        <ele>57.50906</ele>
        <time>2026-07-19T09:27:22.466Z</time>
      </trkpt>
      <trkpt lat="48.82569" lon="2.32085">
        <ele>57.47298</ele>
        <time>2026-07-19T09:27:24.466Z</time>
      </trkpt>
      <trkpt lat="48.8257" lon="2.32079">
        <ele>57.4407</ele>
        <time>2026-07-19T09:27:26.466Z</time>
      </trkpt>
      <trkpt lat="48.82571" lon="2.32075">
        <ele>57.41133</ele>
        <time>2026-07-19T09:27:28.466Z</time>
      </trkpt>
      <trkpt lat="48.82572" lon="2.3207">
        <ele>57.37964</ele>
        <time>2026-07-19T09:27:30.467Z</time>
      </trkpt>
      <trkpt lat="48.82573" lon="2.32065">
        <ele>57.34464</ele>
        <time>2026-07-19T09:27:32.466Z</time>
      </trkpt>
      <trkpt lat="48.82573" lon="2.32061">
        <ele>57.30342</ele>
        <time>2026-07-19T09:27:34.467Z</time>
      </trkpt>
      <trkpt lat="48.82574" lon="2.32056">
        <ele>57.26969</ele>
        <time>2026-07-19T09:27:36.469Z</time>
      </trkpt>
      <trkpt lat="48.82575" lon="2.32052">
        <ele>57.24527</ele>
        <time>2026-07-19T09:27:38.467Z</time>
      </trkpt>
      <trkpt lat="48.82576" lon="2.32048">
        <ele>57.22592</ele>
        <time>2026-07-19T09:27:40.466Z</time>
      </trkpt>
      <trkpt lat="48.82576" lon="2.32043">
        <ele>57.22021</ele>
        <time>2026-07-19T09:27:42.467Z</time>
      </trkpt>
      <trkpt lat="48.82578" lon="2.32039">
        <ele>57.22669</ele>
        <time>2026-07-19T09:27:44.466Z</time>
      </trkpt>
      <trkpt lat="48.8258" lon="2.32036">
        <ele>57.22971</ele>
        <time>2026-07-19T09:27:46.467Z</time>
      </trkpt>
      <trkpt lat="48.82582" lon="2.32032">
        <ele>57.23297</ele>
        <time>2026-07-19T09:27:48.466Z</time>
      </trkpt>
      <trkpt lat="48.82584" lon="2.32029">
        <ele>57.23304</ele>
        <time>2026-07-19T09:27:51.467Z</time>
      </trkpt>
      <trkpt lat="48.82585" lon="2.32025">
        <ele>57.23093</ele>
        <time>2026-07-19T09:27:53.466Z</time>
      </trkpt>
      <trkpt lat="48.82586" lon="2.3202">
        <ele>57.22889</ele>
        <time>2026-07-19T09:27:56.467Z</time>
      </trkpt>
      <trkpt lat="48.82587" lon="2.32017">
        <ele>57.22817</ele>
        <time>2026-07-19T09:27:58.467Z</time>
      </trkpt>
      <trkpt lat="48.82588" lon="2.32013">
        <ele>57.22808</ele>
        <time>2026-07-19T09:28:00.467Z</time>
      </trkpt>
      <trkpt lat="48.82589" lon="2.32009">
        <ele>57.22961</ele>
        <time>2026-07-19T09:28:02.467Z</time>
      </trkpt>
      <trkpt lat="48.8259" lon="2.32004">
        <ele>57.23169</ele>
        <time>2026-07-19T09:28:05.467Z</time>
      </trkpt>
      <trkpt lat="48.82591" lon="2.31999">
        <ele>57.23212</ele>
        <time>2026-07-19T09:28:08.467Z</time>
      </trkpt>
      <trkpt lat="48.82591" lon="2.31995">
        <ele>57.23351</ele>
        <time>2026-07-19T09:28:10.467Z</time>
      </trkpt>
      <trkpt lat="48.82591" lon="2.31991">
        <ele>57.23481</ele>
        <time>2026-07-19T09:28:12.467Z</time>
      </trkpt>
      <trkpt lat="48.82592" lon="2.31986">
        <ele>57.23627</ele>
        <time>2026-07-19T09:28:15.467Z</time>
      </trkpt>
      <trkpt lat="48.82592" lon="2.31983">
        <ele>57.23718</ele>
        <time>2026-07-19T09:28:18.468Z</time>
      </trkpt>
      <trkpt lat="48.82593" lon="2.31978">
        <ele>57.2383</ele>
        <time>2026-07-19T09:28:20.468Z</time>
      </trkpt>
      <trkpt lat="48.82595" lon="2.31974">
        <ele>57.24143</ele>
        <time>2026-07-19T09:28:23.467Z</time>
      </trkpt>
      <trkpt lat="48.82596" lon="2.3197">
        <ele>57.24375</ele>
        <time>2026-07-19T09:28:27.467Z</time>
      </trkpt>
      <trkpt lat="48.82597" lon="2.31967">
        <ele>57.24484</ele>
        <time>2026-07-19T09:28:29.467Z</time>
      </trkpt>
      <trkpt lat="48.82598" lon="2.31964">
        <ele>57.24677</ele>
        <time>2026-07-19T09:28:32.468Z</time>
      </trkpt>
      <trkpt lat="48.82598" lon="2.3196">
        <ele>57.2513</ele>
        <time>2026-07-19T09:28:44.469Z</time>
      </trkpt>
      <trkpt lat="48.82599" lon="2.31955">
        <ele>57.25345</ele>
        <time>2026-07-19T09:28:47.467Z</time>
      </trkpt>
      <trkpt lat="48.82599" lon="2.3195">
        <ele>57.25483</ele>
        <time>2026-07-19T09:28:49.468Z</time>
      </trkpt>
      <trkpt lat="48.826" lon="2.31947">
        <ele>57.25579</ele>
        <time>2026-07-19T09:28:51.468Z</time>
      </trkpt>
      <trkpt lat="48.82603" lon="2.31944">
        <ele>57.25589</ele>
        <time>2026-07-19T09:28:54.469Z</time>
      </trkpt>
      <trkpt lat="48.82604" lon="2.3194">
        <ele>57.2516</ele>
        <time>2026-07-19T09:28:57.468Z</time>
      </trkpt>
      <trkpt lat="48.82606" lon="2.31937">
        <ele>57.24283</ele>
        <time>2026-07-19T09:28:59.468Z</time>
      </trkpt>
      <trkpt lat="48.82606" lon="2.31933">
        <ele>57.22506</ele>
        <time>2026-07-19T09:29:01.468Z</time>
      </trkpt>
      <trkpt lat="48.82607" lon="2.31928">
        <ele>57.21746</ele>
        <time>2026-07-19T09:29:02.469Z</time>
      </trkpt>
      <trkpt lat="48.82607" lon="2.31924">
        <ele>57.20164</ele>
        <time>2026-07-19T09:29:04.468Z</time>
      </trkpt>
      <trkpt lat="48.82608" lon="2.31918">
        <ele>57.19245</ele>
        <time>2026-07-19T09:29:06.469Z</time>
      </trkpt>
      <trkpt lat="48.82609" lon="2.31914">
        <ele>57.19274</ele>
        <time>2026-07-19T09:29:07.469Z</time>
      </trkpt>
      <trkpt lat="48.82611" lon="2.3191">
        <ele>57.19806</ele>
        <time>2026-07-19T09:29:09.469Z</time>
      </trkpt>
      <trkpt lat="48.82612" lon="2.31906">
        <ele>57.20592</ele>
        <time>2026-07-19T09:29:11.469Z</time>
      </trkpt>
      <trkpt lat="48.82612" lon="2.31901">
        <ele>57.21403</ele>
        <time>2026-07-19T09:29:13.468Z</time>
      </trkpt>
      <trkpt lat="48.82614" lon="2.31898">
        <ele>57.22437</ele>
        <time>2026-07-19T09:29:15.470Z</time>
      </trkpt>
      <trkpt lat="48.82614" lon="2.31893">
        <ele>57.2391</ele>
        <time>2026-07-19T09:29:17.468Z</time>
      </trkpt>
      <trkpt lat="48.82614" lon="2.31889">
        <ele>57.25471</ele>
        <time>2026-07-19T09:29:19.469Z</time>
      </trkpt>
      <trkpt lat="48.82614" lon="2.31884">
        <ele>57.26888</ele>
        <time>2026-07-19T09:29:21.469Z</time>
      </trkpt>
      <trkpt lat="48.82614" lon="2.31881">
        <ele>57.27887</ele>
        <time>2026-07-19T09:29:23.469Z</time>
      </trkpt>
      <trkpt lat="48.82614" lon="2.31876">
        <ele>57.28728</ele>
        <time>2026-07-19T09:29:26.469Z</time>
      </trkpt>
      <trkpt lat="48.82615" lon="2.31872">
        <ele>57.29401</ele>
        <time>2026-07-19T09:29:29.468Z</time>
      </trkpt>
      <trkpt lat="48.82616" lon="2.31868">
        <ele>57.29833</ele>
        <time>2026-07-19T09:29:31.469Z</time>
      </trkpt>
      <trkpt lat="48.82616" lon="2.31864">
        <ele>57.29807</ele>
        <time>2026-07-19T09:29:34.470Z</time>
      </trkpt>
      <trkpt lat="48.82617" lon="2.31861">
        <ele>57.29426</ele>
        <time>2026-07-19T09:29:37.469Z</time>
      </trkpt>
      <trkpt lat="48.82619" lon="2.31856">
        <ele>57.28847</ele>
        <time>2026-07-19T09:29:40.469Z</time>
      </trkpt>
      <trkpt lat="48.82621" lon="2.31852">
        <ele>57.28185</ele>
        <time>2026-07-19T09:29:43.470Z</time>
      </trkpt>
      <trkpt lat="48.82622" lon="2.31848">
        <ele>57.27834</ele>
        <time>2026-07-19T09:29:45.469Z</time>
      </trkpt>
      <trkpt lat="48.82623" lon="2.31843">
        <ele>57.27181</ele>
        <time>2026-07-19T09:29:48.469Z</time>
      </trkpt>
      <trkpt lat="48.82624" lon="2.31839">
        <ele>57.26847</ele>
        <time>2026-07-19T09:29:50.469Z</time>
      </trkpt>
      <trkpt lat="48.82625" lon="2.31836">
        <ele>57.26641</ele>
        <time>2026-07-19T09:29:52.470Z</time>
      </trkpt>
      <trkpt lat="48.82625" lon="2.31832">
        <ele>57.26547</ele>
        <time>2026-07-19T09:29:54.470Z</time>
      </trkpt>
      <trkpt lat="48.82625" lon="2.31827">
        <ele>57.26222</ele>
        <time>2026-07-19T09:29:57.470Z</time>
      </trkpt>
      <trkpt lat="48.82626" lon="2.31823">
        <ele>57.25866</ele>
        <time>2026-07-19T09:30:00.470Z</time>
      </trkpt>
      <trkpt lat="48.82627" lon="2.3182">
        <ele>57.25624</ele>
        <time>2026-07-19T09:30:02.470Z</time>
      </trkpt>
      <trkpt lat="48.82628" lon="2.31817">
        <ele>57.25457</ele>
        <time>2026-07-19T09:30:04.469Z</time>
      </trkpt>
      <trkpt lat="48.82629" lon="2.31813">
        <ele>57.25427</ele>
        <time>2026-07-19T09:30:06.470Z</time>
      </trkpt>
      <trkpt lat="48.82631" lon="2.3181">
        <ele>57.25418</ele>
        <time>2026-07-19T09:30:08.469Z</time>
      </trkpt>
      <trkpt lat="48.82632" lon="2.31804">
        <ele>57.25457</ele>
        <time>2026-07-19T09:30:11.470Z</time>
      </trkpt>
      <trkpt lat="48.82634" lon="2.31801">
        <ele>57.25596</ele>
        <time>2026-07-19T09:30:14.470Z</time>
      </trkpt>
      <trkpt lat="48.82633" lon="2.31798">
        <ele>57.25724</ele>
        <time>2026-07-19T09:30:18.470Z</time>
      </trkpt>
      <trkpt lat="48.82633" lon="2.31793">
        <ele>57.25749</ele>
        <time>2026-07-19T09:30:21.470Z</time>
      </trkpt>
      <trkpt lat="48.82633" lon="2.3179">
        <ele>57.25778</ele>
        <time>2026-07-19T09:30:23.470Z</time>
      </trkpt>
      <trkpt lat="48.82635" lon="2.31787">
        <ele>57.25867</ele>
        <time>2026-07-19T09:30:25.470Z</time>
      </trkpt>
      <trkpt lat="48.82636" lon="2.31784">
        <ele>57.25959</ele>
        <time>2026-07-19T09:30:27.470Z</time>
      </trkpt>
      <trkpt lat="48.82637" lon="2.3178">
        <ele>57.25989</ele>
        <time>2026-07-19T09:30:29.470Z</time>
      </trkpt>
      <trkpt lat="48.82638" lon="2.31776">
        <ele>57.26017</ele>
        <time>2026-07-19T09:30:31.471Z</time>
      </trkpt>
      <trkpt lat="48.8264" lon="2.31772">
        <ele>57.26015</ele>
        <time>2026-07-19T09:30:33.470Z</time>
      </trkpt>
      <trkpt lat="48.82641" lon="2.31768">
        <ele>57.26044</ele>
        <time>2026-07-19T09:30:35.470Z</time>
      </trkpt>
      <trkpt lat="48.82642" lon="2.31763">
        <ele>57.26091</ele>
        <time>2026-07-19T09:30:37.471Z</time>
      </trkpt>
      <trkpt lat="48.82642" lon="2.3176">
        <ele>57.26195</ele>
        <time>2026-07-19T09:30:39.471Z</time>
      </trkpt>
      <trkpt lat="48.82643" lon="2.31756">
        <ele>57.26322</ele>
        <time>2026-07-19T09:30:41.470Z</time>
      </trkpt>
      <trkpt lat="48.82644" lon="2.31753">
        <ele>57.26413</ele>
        <time>2026-07-19T09:30:43.471Z</time>
      </trkpt>
      <trkpt lat="48.82644" lon="2.31749">
        <ele>57.26451</ele>
        <time>2026-07-19T09:30:46.470Z</time>
      </trkpt>
      <trkpt lat="48.82645" lon="2.31745">
        <ele>57.26378</ele>
        <time>2026-07-19T09:30:49.471Z</time>
      </trkpt>
      <trkpt lat="48.82645" lon="2.31741">
        <ele>57.26281</ele>
        <time>2026-07-19T09:30:51.471Z</time>
      </trkpt>
      <trkpt lat="48.82646" lon="2.31738">
        <ele>57.26182</ele>
        <time>2026-07-19T09:30:53.471Z</time>
      </trkpt>
      <trkpt lat="48.82646" lon="2.31734">
        <ele>57.26132</ele>
        <time>2026-07-19T09:30:55.471Z</time>
      </trkpt>
      <trkpt lat="48.82648" lon="2.3173">
        <ele>57.2602</ele>
        <time>2026-07-19T09:30:58.471Z</time>
      </trkpt>
      <trkpt lat="48.82649" lon="2.31726">
        <ele>57.25906</ele>
        <time>2026-07-19T09:31:01.471Z</time>
      </trkpt>
      <trkpt lat="48.82651" lon="2.31722">
        <ele>57.25725</ele>
        <time>2026-07-19T09:31:04.471Z</time>
      </trkpt>
      <trkpt lat="48.82651" lon="2.31717">
        <ele>57.25428</ele>
        <time>2026-07-19T09:31:07.471Z</time>
      </trkpt>
      <trkpt lat="48.82651" lon="2.31713">
        <ele>57.25092</ele>
        <time>2026-07-19T09:31:09.472Z</time>
      </trkpt>
      <trkpt lat="48.82652" lon="2.31709">
        <ele>57.24827</ele>
        <time>2026-07-19T09:31:11.471Z</time>
      </trkpt>
      <trkpt lat="48.82653" lon="2.31706">
        <ele>57.24135</ele>
        <time>2026-07-19T09:31:14.472Z</time>
      </trkpt>
      <trkpt lat="48.82654" lon="2.31702">
        <ele>57.23353</ele>
        <time>2026-07-19T09:31:17.472Z</time>
      </trkpt>
      <trkpt lat="48.82656" lon="2.31698">
        <ele>57.22819</ele>
        <time>2026-07-19T09:31:19.471Z</time>
      </trkpt>
      <trkpt lat="48.82656" lon="2.31693">
        <ele>57.22459</ele>
        <time>2026-07-19T09:31:21.471Z</time>
      </trkpt>
      <trkpt lat="48.82656" lon="2.3169">
        <ele>57.22303</ele>
        <time>2026-07-19T09:31:23.471Z</time>
      </trkpt>
      <trkpt lat="48.82656" lon="2.31685">
        <ele>57.22159</ele>
        <time>2026-07-19T09:31:26.472Z</time>
      </trkpt>
      <trkpt lat="48.82657" lon="2.31681">
        <ele>57.21993</ele>
        <time>2026-07-19T09:31:29.473Z</time>
      </trkpt>
      <trkpt lat="48.82658" lon="2.31678">
        <ele>57.21847</ele>
        <time>2026-07-19T09:31:31.472Z</time>
      </trkpt>
      <trkpt lat="48.82659" lon="2.31674">
        <ele>57.21711</ele>
        <time>2026-07-19T09:31:33.472Z</time>
      </trkpt>
      <trkpt lat="48.82661" lon="2.3167">
        <ele>57.21465</ele>
        <time>2026-07-19T09:31:36.473Z</time>
      </trkpt>
      <trkpt lat="48.82662" lon="2.31666">
        <ele>57.21402</ele>
        <time>2026-07-19T09:31:38.472Z</time>
      </trkpt>
      <trkpt lat="48.82663" lon="2.31663">
        <ele>57.21365</ele>
        <time>2026-07-19T09:31:41.472Z</time>
      </trkpt>
      <trkpt lat="48.82664" lon="2.31658">
        <ele>57.21386</ele>
        <time>2026-07-19T09:31:44.472Z</time>
      </trkpt>
      <trkpt lat="48.82665" lon="2.31655">
        <ele>57.21433</ele>
        <time>2026-07-19T09:31:46.472Z</time>
      </trkpt>
      <trkpt lat="48.82666" lon="2.31652">
        <ele>57.21419</ele>
        <time>2026-07-19T09:31:49.472Z</time>
      </trkpt>
      <trkpt lat="48.82667" lon="2.31648">
        <ele>57.21281</ele>
        <time>2026-07-19T09:31:53.472Z</time>
      </trkpt>
      <trkpt lat="48.82668" lon="2.31644">
        <ele>57.21124</ele>
        <time>2026-07-19T09:31:56.473Z</time>
      </trkpt>
      <trkpt lat="48.82669" lon="2.3164">
        <ele>57.20943</ele>
        <time>2026-07-19T09:31:58.473Z</time>
      </trkpt>
      <trkpt lat="48.82669" lon="2.31637">
        <ele>57.20713</ele>
        <time>2026-07-19T09:32:00.473Z</time>
      </trkpt>
      <trkpt lat="48.8267" lon="2.31633">
        <ele>57.20307</ele>
        <time>2026-07-19T09:32:02.473Z</time>
      </trkpt>
      <trkpt lat="48.82673" lon="2.3163">
        <ele>57.194</ele>
        <time>2026-07-19T09:32:05.472Z</time>
      </trkpt>
      <trkpt lat="48.82674" lon="2.31627">
        <ele>57.18157</ele>
        <time>2026-07-19T09:32:08.472Z</time>
      </trkpt>
      <trkpt lat="48.82675" lon="2.31623">
        <ele>57.17269</ele>
        <time>2026-07-19T09:32:10.473Z</time>
      </trkpt>
      <trkpt lat="48.82675" lon="2.31619">
        <ele>57.16332</ele>
        <time>2026-07-19T09:32:12.473Z</time>
      </trkpt>
      <trkpt lat="48.82676" lon="2.31614">
        <ele>57.14424</ele>
        <time>2026-07-19T09:32:15.474Z</time>
      </trkpt>
      <trkpt lat="48.82677" lon="2.31609">
        <ele>57.13489</ele>
        <time>2026-07-19T09:32:17.472Z</time>
      </trkpt>
      <trkpt lat="48.82678" lon="2.31605">
        <ele>57.12685</ele>
        <time>2026-07-19T09:32:19.473Z</time>
      </trkpt>
      <trkpt lat="48.82678" lon="2.31601">
        <ele>57.11621</ele>
        <time>2026-07-19T09:32:22.473Z</time>
      </trkpt>
      <trkpt lat="48.82678" lon="2.31597">
        <ele>57.10237</ele>
        <time>2026-07-19T09:32:25.472Z</time>
      </trkpt>
      <trkpt lat="48.8268" lon="2.31593">
        <ele>57.08993</ele>
        <time>2026-07-19T09:32:28.473Z</time>
      </trkpt>
      <trkpt lat="48.8268" lon="2.31589">
        <ele>57.08297</ele>
        <time>2026-07-19T09:32:30.473Z</time>
      </trkpt>
      <trkpt lat="48.82681" lon="2.31586">
        <ele>57.07621</ele>
        <time>2026-07-19T09:32:32.472Z</time>
      </trkpt>
      <trkpt lat="48.82681" lon="2.31582">
        <ele>57.07049</ele>
        <time>2026-07-19T09:32:34.473Z</time>
      </trkpt>
      <trkpt lat="48.82682" lon="2.31577">
        <ele>57.05954</ele>
        <time>2026-07-19T09:32:37.473Z</time>
      </trkpt>
      <trkpt lat="48.82682" lon="2.31573">
        <ele>57.05338</ele>
        <time>2026-07-19T09:32:39.473Z</time>
      </trkpt>
      <trkpt lat="48.82683" lon="2.31569">
        <ele>57.04959</ele>
        <time>2026-07-19T09:32:41.473Z</time>
      </trkpt>
      <trkpt lat="48.82685" lon="2.31565">
        <ele>57.04596</ele>
        <time>2026-07-19T09:32:44.474Z</time>
      </trkpt>
      <trkpt lat="48.82686" lon="2.31561">
        <ele>57.04316</ele>
        <time>2026-07-19T09:32:47.474Z</time>
      </trkpt>
      <trkpt lat="48.82687" lon="2.31556">
        <ele>57.0368</ele>
        <time>2026-07-19T09:32:50.473Z</time>
      </trkpt>
      <trkpt lat="48.82687" lon="2.31553">
        <ele>57.03257</ele>
        <time>2026-07-19T09:32:52.474Z</time>
      </trkpt>
      <trkpt lat="48.82688" lon="2.31549">
        <ele>57.02395</ele>
        <time>2026-07-19T09:32:55.474Z</time>
      </trkpt>
      <trkpt lat="48.82688" lon="2.31546">
        <ele>57.0168</ele>
        <time>2026-07-19T09:32:57.473Z</time>
      </trkpt>
      <trkpt lat="48.82689" lon="2.31542">
        <ele>57.01316</ele>
        <time>2026-07-19T09:32:59.473Z</time>
      </trkpt>
      <trkpt lat="48.82691" lon="2.31539">
        <ele>57.01003</ele>
        <time>2026-07-19T09:33:02.474Z</time>
      </trkpt>
      <trkpt lat="48.82692" lon="2.31535">
        <ele>57.00403</ele>
        <time>2026-07-19T09:33:05.475Z</time>
      </trkpt>
      <trkpt lat="48.82693" lon="2.31531">
        <ele>56.99525</ele>
        <time>2026-07-19T09:33:08.474Z</time>
      </trkpt>
      <trkpt lat="48.82694" lon="2.31527">
        <ele>56.9712</ele>
        <time>2026-07-19T09:33:12.474Z</time>
      </trkpt>
      <trkpt lat="48.82694" lon="2.31523">
        <ele>56.95502</ele>
        <time>2026-07-19T09:33:14.473Z</time>
      </trkpt>
      <trkpt lat="48.82695" lon="2.31519">
        <ele>56.9367</ele>
        <time>2026-07-19T09:33:16.475Z</time>
      </trkpt>
      <trkpt lat="48.82696" lon="2.31515">
        <ele>56.92021</ele>
        <time>2026-07-19T09:33:18.474Z</time>
      </trkpt>
      <trkpt lat="48.82696" lon="2.31511">
        <ele>56.90427</ele>
        <time>2026-07-19T09:33:20.474Z</time>
      </trkpt>
      <trkpt lat="48.82696" lon="2.31506">
        <ele>56.88036</ele>
        <time>2026-07-19T09:33:23.474Z</time>
      </trkpt>
      <trkpt lat="48.82697" lon="2.31502">
        <ele>56.85441</ele>
        <time>2026-07-19T09:33:26.474Z</time>
      </trkpt>
      <trkpt lat="48.82698" lon="2.31498">
        <ele>56.8404</ele>
        <time>2026-07-19T09:33:28.475Z</time>
      </trkpt>
      <trkpt lat="48.82699" lon="2.31495">
        <ele>56.82753</ele>
        <time>2026-07-19T09:33:30.474Z</time>
      </trkpt>
      <trkpt lat="48.82701" lon="2.31492">
        <ele>56.81832</ele>
        <time>2026-07-19T09:33:32.474Z</time>
      </trkpt>
      <trkpt lat="48.82702" lon="2.31489">
        <ele>56.81824</ele>
        <time>2026-07-19T09:33:34.474Z</time>
      </trkpt>
      <trkpt lat="48.82702" lon="2.31485">
        <ele>56.81906</ele>
        <time>2026-07-19T09:33:36.474Z</time>
      </trkpt>
      <trkpt lat="48.82702" lon="2.31481">
        <ele>56.82423</ele>
        <time>2026-07-19T09:33:39.474Z</time>
      </trkpt>
      <trkpt lat="48.82703" lon="2.31476">
        <ele>56.83184</ele>
        <time>2026-07-19T09:33:42.474Z</time>
      </trkpt>
      <trkpt lat="48.82704" lon="2.31472">
        <ele>56.83905</ele>
        <time>2026-07-19T09:33:45.474Z</time>
      </trkpt>
      <trkpt lat="48.82706" lon="2.31469">
        <ele>56.84405</ele>
        <time>2026-07-19T09:33:48.475Z</time>
      </trkpt>
      <trkpt lat="48.82707" lon="2.31465">
        <ele>56.84896</ele>
        <time>2026-07-19T09:33:52.475Z</time>
      </trkpt>
      <trkpt lat="48.82708" lon="2.31462">
        <ele>56.84796</ele>
        <time>2026-07-19T09:34:03.474Z</time>
      </trkpt>
      <trkpt lat="48.8271" lon="2.31458">
        <ele>56.8464</ele>
        <time>2026-07-19T09:34:06.475Z</time>
      </trkpt>
      <trkpt lat="48.82712" lon="2.31455">
        <ele>56.84528</ele>
        <time>2026-07-19T09:34:09.475Z</time>
      </trkpt>
      <trkpt lat="48.82714" lon="2.31452">
        <ele>56.84404</ele>
        <time>2026-07-19T09:34:13.475Z</time>
      </trkpt>
      <trkpt lat="48.82714" lon="2.31449">
        <ele>56.84771</ele>
        <time>2026-07-19T09:34:25.476Z</time>
      </trkpt>
      <trkpt lat="48.82713" lon="2.31446">
        <ele>56.8558</ele>
        <time>2026-07-19T09:34:30.475Z</time>
      </trkpt>
      <trkpt lat="48.82715" lon="2.31449">
        <ele>56.98972</ele>
        <time>2026-07-19T09:34:40.476Z</time>
      </trkpt>
      <trkpt lat="48.82717" lon="2.31447">
        <ele>58.08876</ele>
        <time>2026-07-19T09:34:51.476Z</time>
      </trkpt>
      <trkpt lat="48.82719" lon="2.31444">
        <ele>59.12628</ele>
        <time>2026-07-19T09:34:57.476Z</time>
      </trkpt>
      <trkpt lat="48.82719" lon="2.31441">
        <ele>59.72414</ele>
        <time>2026-07-19T09:35:01.476Z</time>
      </trkpt>
      <trkpt lat="48.8272" lon="2.31437">
        <ele>62.8726</ele>
        <time>2026-07-19T09:35:57.478Z</time>
      </trkpt>
      <trkpt lat="48.82721" lon="2.31435">
        <ele>62.86489</ele>
        <time>2026-07-19T09:36:02.478Z</time>
      </trkpt>
      <trkpt lat="48.82724" lon="2.31432">
        <ele>62.85258</ele>
        <time>2026-07-19T09:36:05.478Z</time>
      </trkpt>
      <trkpt lat="48.82726" lon="2.3143">
        <ele>62.83287</ele>
        <time>2026-07-19T09:36:08.477Z</time>
      </trkpt>
      <trkpt lat="48.82728" lon="2.31427">
        <ele>62.81247</ele>
        <time>2026-07-19T09:36:10.478Z</time>
      </trkpt>
      <trkpt lat="48.82731" lon="2.31424">
        <ele>62.78927</ele>
        <time>2026-07-19T09:36:12.477Z</time>
      </trkpt>
      <trkpt lat="48.82732" lon="2.31421">
        <ele>62.75932</ele>
        <time>2026-07-19T09:36:14.478Z</time>
      </trkpt>
      <trkpt lat="48.82733" lon="2.31417">
        <ele>62.72621</ele>
        <time>2026-07-19T09:36:16.478Z</time>
      </trkpt>
      <trkpt lat="48.82734" lon="2.31414">
        <ele>62.69702</ele>
        <time>2026-07-19T09:36:18.478Z</time>
      </trkpt>
      <trkpt lat="48.82734" lon="2.3141">
        <ele>62.67735</ele>
        <time>2026-07-19T09:36:20.478Z</time>
      </trkpt>
      <trkpt lat="48.82734" lon="2.31407">
        <ele>62.66399</ele>
        <time>2026-07-19T09:36:22.478Z</time>
      </trkpt>
      <trkpt lat="48.82734" lon="2.31403">
        <ele>62.63488</ele>
        <time>2026-07-19T09:36:25.478Z</time>
      </trkpt>
      <trkpt lat="48.82734" lon="2.31399">
        <ele>62.61149</ele>
        <time>2026-07-19T09:36:27.478Z</time>
      </trkpt>
      <trkpt lat="48.82736" lon="2.31395">
        <ele>62.59593</ele>
        <time>2026-07-19T09:36:29.479Z</time>
      </trkpt>
      <trkpt lat="48.82737" lon="2.31391">
        <ele>62.58672</ele>
        <time>2026-07-19T09:36:31.480Z</time>
      </trkpt>
      <trkpt lat="48.82738" lon="2.31388">
        <ele>62.57911</ele>
        <time>2026-07-19T09:36:33.479Z</time>
      </trkpt>
      <trkpt lat="48.8274" lon="2.31385">
        <ele>62.57205</ele>
        <time>2026-07-19T09:36:36.479Z</time>
      </trkpt>
      <trkpt lat="48.82741" lon="2.31381">
        <ele>62.56851</ele>
        <time>2026-07-19T09:36:39.479Z</time>
      </trkpt>
      <trkpt lat="48.82742" lon="2.31377">
        <ele>62.56836</ele>
        <time>2026-07-19T09:36:42.479Z</time>
      </trkpt>
      <trkpt lat="48.82743" lon="2.31374">
        <ele>62.5697</ele>
        <time>2026-07-19T09:36:44.479Z</time>
      </trkpt>
      <trkpt lat="48.82744" lon="2.31369">
        <ele>62.57007</ele>
        <time>2026-07-19T09:36:47.478Z</time>
      </trkpt>
      <trkpt lat="48.82745" lon="2.31365">
        <ele>62.56318</ele>
        <time>2026-07-19T09:36:51.478Z</time>
      </trkpt>
      <trkpt lat="48.82747" lon="2.31361">
        <ele>62.55084</ele>
        <time>2026-07-19T09:36:55.479Z</time>
      </trkpt>
      <trkpt lat="48.82748" lon="2.31358">
        <ele>62.546</ele>
        <time>2026-07-19T09:36:58.479Z</time>
      </trkpt>
      <trkpt lat="48.82748" lon="2.31354">
        <ele>62.54015</ele>
        <time>2026-07-19T09:37:01.479Z</time>
      </trkpt>
      <trkpt lat="48.82749" lon="2.3135">
        <ele>62.53662</ele>
        <time>2026-07-19T09:37:03.479Z</time>
      </trkpt>
      <trkpt lat="48.82749" lon="2.31346">
        <ele>62.53556</ele>
        <time>2026-07-19T09:37:05.479Z</time>
      </trkpt>
      <trkpt lat="48.82749" lon="2.31342">
        <ele>62.53433</ele>
        <time>2026-07-19T09:37:07.480Z</time>
      </trkpt>
      <trkpt lat="48.82751" lon="2.31338">
        <ele>62.53294</ele>
        <time>2026-07-19T09:37:09.479Z</time>
      </trkpt>
      <trkpt lat="48.82752" lon="2.31334">
        <ele>62.5315</ele>
        <time>2026-07-19T09:37:12.479Z</time>
      </trkpt>
      <trkpt lat="48.82754" lon="2.31329">
        <ele>62.53042</ele>
        <time>2026-07-19T09:37:15.480Z</time>
      </trkpt>
      <trkpt lat="48.82755" lon="2.31325">
        <ele>62.53044</ele>
        <time>2026-07-19T09:37:18.479Z</time>
      </trkpt>
      <trkpt lat="48.82756" lon="2.3132">
        <ele>62.53014</ele>
        <time>2026-07-19T09:37:21.479Z</time>
      </trkpt>
      <trkpt lat="48.82756" lon="2.31316">
        <ele>62.53055</ele>
        <time>2026-07-19T09:37:23.480Z</time>
      </trkpt>
      <trkpt lat="48.82756" lon="2.31312">
        <ele>62.53135</ele>
        <time>2026-07-19T09:37:26.480Z</time>
      </trkpt>
      <trkpt lat="48.82756" lon="2.31308">
        <ele>62.53169</ele>
        <time>2026-07-19T09:37:28.479Z</time>
      </trkpt>
      <trkpt lat="48.82756" lon="2.31305">
        <ele>62.53274</ele>
        <time>2026-07-19T09:37:30.481Z</time>
      </trkpt>
      <trkpt lat="48.82757" lon="2.313">
        <ele>62.53451</ele>
        <time>2026-07-19T09:37:33.480Z</time>
      </trkpt>
      <trkpt lat="48.82758" lon="2.31296">
        <ele>62.53593</ele>
        <time>2026-07-19T09:37:36.479Z</time>
      </trkpt>
      <trkpt lat="48.82759" lon="2.31291">
        <ele>62.53711</ele>
        <time>2026-07-19T09:37:39.480Z</time>
      </trkpt>
      <trkpt lat="48.8276" lon="2.31287">
        <ele>62.53814</ele>
        <time>2026-07-19T09:37:42.481Z</time>
      </trkpt>
      <trkpt lat="48.82762" lon="2.31283">
        <ele>62.53874</ele>
        <time>2026-07-19T09:37:45.479Z</time>
      </trkpt>
      <trkpt lat="48.82763" lon="2.31279">
        <ele>62.53855</ele>
        <time>2026-07-19T09:37:48.480Z</time>
      </trkpt>
      <trkpt lat="48.82764" lon="2.31275">
        <ele>62.53822</ele>
        <time>2026-07-19T09:37:50.480Z</time>
      </trkpt>
      <trkpt lat="48.82764" lon="2.31271">
        <ele>62.53796</ele>
        <time>2026-07-19T09:37:52.480Z</time>
      </trkpt>
      <trkpt lat="48.82765" lon="2.31267">
        <ele>62.53687</ele>
        <time>2026-07-19T09:37:55.480Z</time>
      </trkpt>
      <trkpt lat="48.82766" lon="2.31263">
        <ele>62.53504</ele>
        <time>2026-07-19T09:37:58.480Z</time>
      </trkpt>
      <trkpt lat="48.82767" lon="2.31259">
        <ele>62.53187</ele>
        <time>2026-07-19T09:38:01.480Z</time>
      </trkpt>
      <trkpt lat="48.82768" lon="2.31255">
        <ele>62.52622</ele>
        <time>2026-07-19T09:38:04.481Z</time>
      </trkpt>
      <trkpt lat="48.82769" lon="2.31251">
        <ele>62.52046</ele>
        <time>2026-07-19T09:38:06.480Z</time>
      </trkpt>
      <trkpt lat="48.8277" lon="2.31247">
        <ele>62.51422</ele>
        <time>2026-07-19T09:38:08.480Z</time>
      </trkpt>
      <trkpt lat="48.82771" lon="2.31243">
        <ele>62.50925</ele>
        <time>2026-07-19T09:38:10.480Z</time>
      </trkpt>
      <trkpt lat="48.82771" lon="2.31239">
        <ele>62.50366</ele>
        <time>2026-07-19T09:38:12.480Z</time>
      </trkpt>
      <trkpt lat="48.82772" lon="2.31235">
        <ele>62.49461</ele>
        <time>2026-07-19T09:38:15.480Z</time>
      </trkpt>
      <trkpt lat="48.82772" lon="2.31231">
        <ele>62.48868</ele>
        <time>2026-07-19T09:38:17.480Z</time>
      </trkpt>
      <trkpt lat="48.82772" lon="2.31227">
        <ele>62.48243</ele>
        <time>2026-07-19T09:38:19.481Z</time>
      </trkpt>
      <trkpt lat="48.82772" lon="2.31222">
        <ele>62.47488</ele>
        <time>2026-07-19T09:38:22.482Z</time>
      </trkpt>
      <trkpt lat="48.82773" lon="2.31218">
        <ele>62.47142</ele>
        <time>2026-07-19T09:38:24.481Z</time>
      </trkpt>
      <trkpt lat="48.82774" lon="2.31214">
        <ele>62.46982</ele>
        <time>2026-07-19T09:38:27.481Z</time>
      </trkpt>
      <trkpt lat="48.82774" lon="2.31209">
        <ele>62.47021</ele>
        <time>2026-07-19T09:38:30.481Z</time>
      </trkpt>
      <trkpt lat="48.82775" lon="2.31206">
        <ele>62.47011</ele>
        <time>2026-07-19T09:38:32.481Z</time>
      </trkpt>
      <trkpt lat="48.82775" lon="2.31202">
        <ele>62.4691</ele>
        <time>2026-07-19T09:38:35.481Z</time>
      </trkpt>
      <trkpt lat="48.82775" lon="2.31198">
        <ele>62.46952</ele>
        <time>2026-07-19T09:38:37.482Z</time>
      </trkpt>
      <trkpt lat="48.82777" lon="2.31194">
        <ele>62.47255</ele>
        <time>2026-07-19T09:38:40.481Z</time>
      </trkpt>
      <trkpt lat="48.82778" lon="2.3119">
        <ele>62.475</ele>
        <time>2026-07-19T09:38:43.482Z</time>
      </trkpt>
      <trkpt lat="48.82778" lon="2.31186">
        <ele>62.47582</ele>
        <time>2026-07-19T09:38:45.482Z</time>
      </trkpt>
      <trkpt lat="48.82779" lon="2.31182">
        <ele>62.47761</ele>
        <time>2026-07-19T09:38:48.482Z</time>
      </trkpt>
      <trkpt lat="48.8278" lon="2.31179">
        <ele>62.48341</ele>
        <time>2026-07-19T09:38:50.481Z</time>
      </trkpt>
      <trkpt lat="48.82779" lon="2.31175">
        <ele>62.50688</ele>
        <time>2026-07-19T09:38:53.482Z</time>
      </trkpt>
      <trkpt lat="48.82779" lon="2.31171">
        <ele>62.52632</ele>
        <time>2026-07-19T09:38:55.481Z</time>
      </trkpt>
      <trkpt lat="48.82779" lon="2.31167">
        <ele>62.54853</ele>
        <time>2026-07-19T09:38:57.481Z</time>
      </trkpt>
      <trkpt lat="48.82779" lon="2.31163">
        <ele>62.57839</ele>
        <time>2026-07-19T09:38:59.482Z</time>
      </trkpt>
      <trkpt lat="48.82779" lon="2.3116">
        <ele>62.61635</ele>
        <time>2026-07-19T09:39:01.481Z</time>
      </trkpt>
      <trkpt lat="48.82779" lon="2.31155">
        <ele>62.67994</ele>
        <time>2026-07-19T09:39:04.482Z</time>
      </trkpt>
      <trkpt lat="48.8278" lon="2.31151">
        <ele>62.72495</ele>
        <time>2026-07-19T09:39:06.482Z</time>
      </trkpt>
      <trkpt lat="48.8278" lon="2.31147">
        <ele>62.79951</ele>
        <time>2026-07-19T09:39:09.482Z</time>
      </trkpt>
      <trkpt lat="48.8278" lon="2.31143">
        <ele>62.83304</ele>
        <time>2026-07-19T09:39:12.481Z</time>
      </trkpt>
      <trkpt lat="48.8278" lon="2.31138">
        <ele>62.8366</ele>
        <time>2026-07-19T09:39:15.482Z</time>
      </trkpt>
      <trkpt lat="48.8278" lon="2.31134">
        <ele>62.83414</ele>
        <time>2026-07-19T09:39:19.482Z</time>
      </trkpt>
      <trkpt lat="48.82781" lon="2.31131">
        <ele>62.82712</ele>
        <time>2026-07-19T09:39:21.482Z</time>
      </trkpt>
      <trkpt lat="48.82782" lon="2.31127">
        <ele>62.82292</ele>
        <time>2026-07-19T09:39:24.482Z</time>
      </trkpt>
      <trkpt lat="48.82782" lon="2.31123">
        <ele>62.82155</ele>
        <time>2026-07-19T09:39:27.482Z</time>
      </trkpt>
      <trkpt lat="48.82784" lon="2.3112">
        <ele>62.8226</ele>
        <time>2026-07-19T09:39:30.483Z</time>
      </trkpt>
      <trkpt lat="48.82784" lon="2.31116">
        <ele>62.82454</ele>
        <time>2026-07-19T09:39:33.482Z</time>
      </trkpt>
      <trkpt lat="48.82785" lon="2.31112">
        <ele>62.8245</ele>
        <time>2026-07-19T09:39:35.483Z</time>
      </trkpt>
      <trkpt lat="48.82786" lon="2.31107">
        <ele>62.82523</ele>
        <time>2026-07-19T09:39:38.482Z</time>
      </trkpt>
      <trkpt lat="48.82786" lon="2.31102">
        <ele>62.82847</ele>
        <time>2026-07-19T09:39:41.482Z</time>
      </trkpt>
      <trkpt lat="48.82787" lon="2.31099">
        <ele>62.83244</ele>
        <time>2026-07-19T09:39:44.483Z</time>
      </trkpt>
      <trkpt lat="48.82788" lon="2.31095">
        <ele>62.83517</ele>
        <time>2026-07-19T09:39:47.483Z</time>
      </trkpt>
      <trkpt lat="48.82788" lon="2.31091">
        <ele>62.83782</ele>
        <time>2026-07-19T09:39:49.483Z</time>
      </trkpt>
      <trkpt lat="48.82788" lon="2.31086">
        <ele>62.85128</ele>
        <time>2026-07-19T09:39:52.483Z</time>
      </trkpt>
      <trkpt lat="48.82789" lon="2.31082">
        <ele>62.87485</ele>
        <time>2026-07-19T09:39:54.484Z</time>
      </trkpt>
      <trkpt lat="48.8279" lon="2.31079">
        <ele>62.90767</ele>
        <time>2026-07-19T09:39:56.483Z</time>
      </trkpt>
      <trkpt lat="48.8279" lon="2.31074">
        <ele>62.9845</ele>
        <time>2026-07-19T09:39:59.483Z</time>
      </trkpt>
      <trkpt lat="48.8279" lon="2.3107">
        <ele>63.01769</ele>
        <time>2026-07-19T09:40:01.483Z</time>
      </trkpt>
      <trkpt lat="48.8279" lon="2.31066">
        <ele>63.05353</ele>
        <time>2026-07-19T09:40:03.483Z</time>
      </trkpt>
      <trkpt lat="48.82792" lon="2.31063">
        <ele>63.09178</ele>
        <time>2026-07-19T09:40:06.483Z</time>
      </trkpt>
      <trkpt lat="48.82793" lon="2.3106">
        <ele>63.12131</ele>
        <time>2026-07-19T09:40:09.484Z</time>
      </trkpt>
      <trkpt lat="48.82795" lon="2.31057">
        <ele>63.12726</ele>
        <time>2026-07-19T09:40:11.484Z</time>
      </trkpt>
      <trkpt lat="48.82796" lon="2.31054">
        <ele>63.11545</ele>
        <time>2026-07-19T09:40:15.483Z</time>
      </trkpt>
      <trkpt lat="48.82797" lon="2.31049">
        <ele>63.12003</ele>
        <time>2026-07-19T09:40:17.484Z</time>
      </trkpt>
      <trkpt lat="48.82798" lon="2.31044">
        <ele>63.12461</ele>
        <time>2026-07-19T09:40:19.483Z</time>
      </trkpt>
      <trkpt lat="48.82799" lon="2.31041">
        <ele>63.12516</ele>
        <time>2026-07-19T09:40:21.483Z</time>
      </trkpt>
      <trkpt lat="48.82799" lon="2.31036">
        <ele>63.1212</ele>
        <time>2026-07-19T09:40:24.484Z</time>
      </trkpt>
      <trkpt lat="48.82797" lon="2.31031">
        <ele>63.11666</ele>
        <time>2026-07-19T09:40:27.483Z</time>
      </trkpt>
      <trkpt lat="48.82796" lon="2.31028">
        <ele>63.11115</ele>
        <time>2026-07-19T09:40:30.484Z</time>
      </trkpt>
      <trkpt lat="48.82795" lon="2.31024">
        <ele>63.10497</ele>
        <time>2026-07-19T09:40:33.483Z</time>
      </trkpt>
      <trkpt lat="48.82795" lon="2.3102">
        <ele>63.0966</ele>
        <time>2026-07-19T09:40:36.483Z</time>
      </trkpt>
      <trkpt lat="48.82795" lon="2.31016">
        <ele>63.08733</ele>
        <time>2026-07-19T09:40:39.484Z</time>
      </trkpt>
      <trkpt lat="48.82796" lon="2.31013">
        <ele>63.09131</ele>
        <time>2026-07-19T09:40:41.484Z</time>
      </trkpt>
      <trkpt lat="48.82797" lon="2.31009">
        <ele>63.09301</ele>
        <time>2026-07-19T09:40:43.484Z</time>
      </trkpt>
      <trkpt lat="48.82798" lon="2.31005">
        <ele>63.08984</ele>
        <time>2026-07-19T09:40:46.484Z</time>
      </trkpt>
      <trkpt lat="48.828" lon="2.31002">
        <ele>63.08657</ele>
        <time>2026-07-19T09:40:48.483Z</time>
      </trkpt>
      <trkpt lat="48.82801" lon="2.30998">
        <ele>63.08071</ele>
        <time>2026-07-19T09:40:51.484Z</time>
      </trkpt>
      <trkpt lat="48.82802" lon="2.30995">
        <ele>63.07293</ele>
        <time>2026-07-19T09:40:54.484Z</time>
      </trkpt>
      <trkpt lat="48.82801" lon="2.30991">
        <ele>63.0591</ele>
        <time>2026-07-19T09:40:57.484Z</time>
      </trkpt>
      <trkpt lat="48.82801" lon="2.30987">
        <ele>63.04269</ele>
        <time>2026-07-19T09:41:00.485Z</time>
      </trkpt>
      <trkpt lat="48.82802" lon="2.30983">
        <ele>63.02469</ele>
        <time>2026-07-19T09:41:03.485Z</time>
      </trkpt>
      <trkpt lat="48.82802" lon="2.30979">
        <ele>63.00241</ele>
        <time>2026-07-19T09:41:06.484Z</time>
      </trkpt>
      <trkpt lat="48.82804" lon="2.30975">
        <ele>62.98589</ele>
        <time>2026-07-19T09:41:09.485Z</time>
      </trkpt>
      <trkpt lat="48.82804" lon="2.30972">
        <ele>62.97567</ele>
        <time>2026-07-19T09:41:11.485Z</time>
      </trkpt>
      <trkpt lat="48.82806" lon="2.30968">
        <ele>62.96521</ele>
        <time>2026-07-19T09:41:13.485Z</time>
      </trkpt>
      <trkpt lat="48.82805" lon="2.30963">
        <ele>62.95559</ele>
        <time>2026-07-19T09:41:15.484Z</time>
      </trkpt>
      <trkpt lat="48.82805" lon="2.30959">
        <ele>62.94011</ele>
        <time>2026-07-19T09:41:18.485Z</time>
      </trkpt>
      <trkpt lat="48.82804" lon="2.30956">
        <ele>62.9209</ele>
        <time>2026-07-19T09:41:21.484Z</time>
      </trkpt>
      <trkpt lat="48.82804" lon="2.30951">
        <ele>62.90425</ele>
        <time>2026-07-19T09:41:24.485Z</time>
      </trkpt>
      <trkpt lat="48.82803" lon="2.30947">
        <ele>62.88406</ele>
        <time>2026-07-19T09:41:27.485Z</time>
      </trkpt>
      <trkpt lat="48.82804" lon="2.30943">
        <ele>62.86354</ele>
        <time>2026-07-19T09:41:30.485Z</time>
      </trkpt>
      <trkpt lat="48.82806" lon="2.30938">
        <ele>62.82676</ele>
        <time>2026-07-19T09:41:33.485Z</time>
      </trkpt>
      <trkpt lat="48.82808" lon="2.30935">
        <ele>62.79828</ele>
        <time>2026-07-19T09:41:35.485Z</time>
      </trkpt>
      <trkpt lat="48.82808" lon="2.30932">
        <ele>62.76357</ele>
        <time>2026-07-19T09:41:37.485Z</time>
      </trkpt>
      <trkpt lat="48.82809" lon="2.30928">
        <ele>62.7339</ele>
        <time>2026-07-19T09:41:39.486Z</time>
      </trkpt>
      <trkpt lat="48.82812" lon="2.30925">
        <ele>62.71248</ele>
        <time>2026-07-19T09:41:41.486Z</time>
      </trkpt>
      <trkpt lat="48.82814" lon="2.30923">
        <ele>62.69253</ele>
        <time>2026-07-19T09:41:43.486Z</time>
      </trkpt>
      <trkpt lat="48.82815" lon="2.30919">
        <ele>62.68045</ele>
        <time>2026-07-19T09:41:45.485Z</time>
      </trkpt>
      <trkpt lat="48.82817" lon="2.30916">
        <ele>62.67356</ele>
        <time>2026-07-19T09:41:48.486Z</time>
      </trkpt>
      <trkpt lat="48.8282" lon="2.30913">
        <ele>62.67751</ele>
        <time>2026-07-19T09:41:51.485Z</time>
      </trkpt>
      <trkpt lat="48.82822" lon="2.3091">
        <ele>62.68246</ele>
        <time>2026-07-19T09:41:55.486Z</time>
      </trkpt>
      <trkpt lat="48.82823" lon="2.30907">
        <ele>62.68366</ele>
        <time>2026-07-19T09:41:59.485Z</time>
      </trkpt>
      <trkpt lat="48.82826" lon="2.30905">
        <ele>62.67759</ele>
        <time>2026-07-19T09:42:03.485Z</time>
      </trkpt>
      <trkpt lat="48.82826" lon="2.30901">
        <ele>62.6694</ele>
        <time>2026-07-19T09:42:06.486Z</time>
      </trkpt>
      <trkpt lat="48.82827" lon="2.30898">
        <ele>62.66123</ele>
        <time>2026-07-19T09:42:09.486Z</time>
      </trkpt>
      <trkpt lat="48.82825" lon="2.30895">
        <ele>62.65218</ele>
        <time>2026-07-19T09:42:11.485Z</time>
      </trkpt>
      <trkpt lat="48.82826" lon="2.3089">
        <ele>62.63866</ele>
        <time>2026-07-19T09:42:14.486Z</time>
      </trkpt>
      <trkpt lat="48.82826" lon="2.30886">
        <ele>62.6301</ele>
        <time>2026-07-19T09:42:16.486Z</time>
      </trkpt>
      <trkpt lat="48.82827" lon="2.30881">
        <ele>62.60908</ele>
        <time>2026-07-19T09:42:19.486Z</time>
      </trkpt>
      <trkpt lat="48.82829" lon="2.30878">
        <ele>62.57247</ele>
        <time>2026-07-19T09:42:22.487Z</time>
      </trkpt>
      <trkpt lat="48.8283" lon="2.30874">
        <ele>62.51219</ele>
        <time>2026-07-19T09:42:25.487Z</time>
      </trkpt>
      <trkpt lat="48.82829" lon="2.3087">
        <ele>62.43068</ele>
        <time>2026-07-19T09:42:28.486Z</time>
      </trkpt>
      <trkpt lat="48.82831" lon="2.30866">
        <ele>62.36374</ele>
        <time>2026-07-19T09:42:30.486Z</time>
      </trkpt>
      <trkpt lat="48.82832" lon="2.3086">
        <ele>62.30404</ele>
        <time>2026-07-19T09:42:32.487Z</time>
      </trkpt>
      <trkpt lat="48.82832" lon="2.30855">
        <ele>62.25771</ele>
        <time>2026-07-19T09:42:34.486Z</time>
      </trkpt>
      <trkpt lat="48.82832" lon="2.30851">
        <ele>62.24398</ele>
        <time>2026-07-19T09:42:35.487Z</time>
      </trkpt>
      <trkpt lat="48.82832" lon="2.30846">
        <ele>62.23053</ele>
        <time>2026-07-19T09:42:37.487Z</time>
      </trkpt>
      <trkpt lat="48.82832" lon="2.30843">
        <ele>62.22186</ele>
        <time>2026-07-19T09:42:39.486Z</time>
      </trkpt>
      <trkpt lat="48.82833" lon="2.30838">
        <ele>62.22343</ele>
        <time>2026-07-19T09:42:41.486Z</time>
      </trkpt>
      <trkpt lat="48.82835" lon="2.30834">
        <ele>62.22117</ele>
        <time>2026-07-19T09:42:44.487Z</time>
      </trkpt>
      <trkpt lat="48.82836" lon="2.3083">
        <ele>62.21895</ele>
        <time>2026-07-19T09:42:47.487Z</time>
      </trkpt>
      <trkpt lat="48.82837" lon="2.30825">
        <ele>62.21236</ele>
        <time>2026-07-19T09:42:50.487Z</time>
      </trkpt>
      <trkpt lat="48.82837" lon="2.3082">
        <ele>62.20883</ele>
        <time>2026-07-19T09:42:53.487Z</time>
      </trkpt>
      <trkpt lat="48.82839" lon="2.30817">
        <ele>62.20863</ele>
        <time>2026-07-19T09:42:55.487Z</time>
      </trkpt>
      <trkpt lat="48.8284" lon="2.30814">
        <ele>62.20839</ele>
        <time>2026-07-19T09:42:57.487Z</time>
      </trkpt>
      <trkpt lat="48.82841" lon="2.30811">
        <ele>62.21018</ele>
        <time>2026-07-19T09:42:59.487Z</time>
      </trkpt>
      <trkpt lat="48.82841" lon="2.30807">
        <ele>62.21221</ele>
        <time>2026-07-19T09:43:00.487Z</time>
      </trkpt>
      <trkpt lat="48.82842" lon="2.30803">
        <ele>62.2143</ele>
        <time>2026-07-19T09:43:03.487Z</time>
      </trkpt>
      <trkpt lat="48.82844" lon="2.30801">
        <ele>62.21724</ele>
        <time>2026-07-19T09:43:05.487Z</time>
      </trkpt>
      <trkpt lat="48.82844" lon="2.30795">
        <ele>62.22261</ele>
        <time>2026-07-19T09:43:08.487Z</time>
      </trkpt>
      <trkpt lat="48.82845" lon="2.30791">
        <ele>62.22909</ele>
        <time>2026-07-19T09:43:11.487Z</time>
      </trkpt>
      <trkpt lat="48.82847" lon="2.30788">
        <ele>62.23487</ele>
        <time>2026-07-19T09:43:13.487Z</time>
      </trkpt>
      <trkpt lat="48.82848" lon="2.30785">
        <ele>62.24382</ele>
        <time>2026-07-19T09:43:15.487Z</time>
      </trkpt>
      <trkpt lat="48.82849" lon="2.30781">
        <ele>62.26186</ele>
        <time>2026-07-19T09:43:18.488Z</time>
      </trkpt>
      <trkpt lat="48.82851" lon="2.30776">
        <ele>62.28235</ele>
        <time>2026-07-19T09:43:22.487Z</time>
      </trkpt>
      <trkpt lat="48.82852" lon="2.30773">
        <ele>62.29522</ele>
        <time>2026-07-19T09:43:25.488Z</time>
      </trkpt>
      <trkpt lat="48.82852" lon="2.30769">
        <ele>62.30837</ele>
        <time>2026-07-19T09:43:29.488Z</time>
      </trkpt>
      <trkpt lat="48.82854" lon="2.30766">
        <ele>62.30996</ele>
        <time>2026-07-19T09:43:32.487Z</time>
      </trkpt>
      <trkpt lat="48.82855" lon="2.30762">
        <ele>62.3084</ele>
        <time>2026-07-19T09:43:34.488Z</time>
      </trkpt>
      <trkpt lat="48.82857" lon="2.30758">
        <ele>62.3087</ele>
        <time>2026-07-19T09:43:36.488Z</time>
      </trkpt>
      <trkpt lat="48.82858" lon="2.30754">
        <ele>62.31035</ele>
        <time>2026-07-19T09:43:38.488Z</time>
      </trkpt>
      <trkpt lat="48.8286" lon="2.3075">
        <ele>62.31281</ele>
        <time>2026-07-19T09:43:41.487Z</time>
      </trkpt>
      <trkpt lat="48.8286" lon="2.30746">
        <ele>62.31446</ele>
        <time>2026-07-19T09:43:43.488Z</time>
      </trkpt>
      <trkpt lat="48.8286" lon="2.30742">
        <ele>62.31516</ele>
        <time>2026-07-19T09:43:45.488Z</time>
      </trkpt>
      <trkpt lat="48.8286" lon="2.30737">
        <ele>62.31408</ele>
        <time>2026-07-19T09:43:48.488Z</time>
      </trkpt>
      <trkpt lat="48.82862" lon="2.30733">
        <ele>62.06473</ele>
        <time>2026-07-19T09:44:31.490Z</time>
      </trkpt>
      <trkpt lat="48.82864" lon="2.3073">
        <ele>62.01917</ele>
        <time>2026-07-19T09:44:34.489Z</time>
      </trkpt>
      <trkpt lat="48.82867" lon="2.30727">
        <ele>61.98889</ele>
        <time>2026-07-19T09:44:36.489Z</time>
      </trkpt>
      <trkpt lat="48.8287" lon="2.30727">
        <ele>61.96061</ele>
        <time>2026-07-19T09:44:38.489Z</time>
      </trkpt>
      <trkpt lat="48.82872" lon="2.30726">
        <ele>61.93428</ele>
        <time>2026-07-19T09:44:40.489Z</time>
      </trkpt>
      <trkpt lat="48.82874" lon="2.30727">
        <ele>61.90565</ele>
        <time>2026-07-19T09:44:42.489Z</time>
      </trkpt>
      <trkpt lat="48.82877" lon="2.30727">
        <ele>61.85687</ele>
        <time>2026-07-19T09:44:45.490Z</time>
      </trkpt>
      <trkpt lat="48.82879" lon="2.30725">
        <ele>61.80511</ele>
        <time>2026-07-19T09:44:48.489Z</time>
      </trkpt>
      <trkpt lat="48.82881" lon="2.30723">
        <ele>61.73204</ele>
        <time>2026-07-19T09:44:52.489Z</time>
      </trkpt>
      <trkpt lat="48.82879" lon="2.3072">
        <ele>61.59892</ele>
        <time>2026-07-19T09:45:01.489Z</time>
      </trkpt>
      <trkpt lat="48.82876" lon="2.30719">
        <ele>61.5565</ele>
        <time>2026-07-19T09:45:04.490Z</time>
      </trkpt>
      <trkpt lat="48.82876" lon="2.30715">
        <ele>61.52748</ele>
        <time>2026-07-19T09:45:07.489Z</time>
      </trkpt>
      <trkpt lat="48.82876" lon="2.30712">
        <ele>61.51213</ele>
        <time>2026-07-19T09:45:09.490Z</time>
      </trkpt>
      <trkpt lat="48.82874" lon="2.30708">
        <ele>61.50596</ele>
        <time>2026-07-19T09:45:12.489Z</time>
      </trkpt>
      <trkpt lat="48.82873" lon="2.30703">
        <ele>61.50527</ele>
        <time>2026-07-19T09:45:15.490Z</time>
      </trkpt>
      <trkpt lat="48.82873" lon="2.30699">
        <ele>61.50944</ele>
        <time>2026-07-19T09:45:18.489Z</time>
      </trkpt>
      <trkpt lat="48.82873" lon="2.30694">
        <ele>61.51575</ele>
        <time>2026-07-19T09:45:21.490Z</time>
      </trkpt>
      <trkpt lat="48.82874" lon="2.30691">
        <ele>61.52016</ele>
        <time>2026-07-19T09:45:24.490Z</time>
      </trkpt>
      <trkpt lat="48.82876" lon="2.30688">
        <ele>61.52706</ele>
        <time>2026-07-19T09:45:27.491Z</time>
      </trkpt>
      <trkpt lat="48.82878" lon="2.30686">
        <ele>61.53451</ele>
        <time>2026-07-19T09:45:29.490Z</time>
      </trkpt>
      <trkpt lat="48.82881" lon="2.30684">
        <ele>61.5468</ele>
        <time>2026-07-19T09:45:32.490Z</time>
      </trkpt>
      <trkpt lat="48.82883" lon="2.30685">
        <ele>61.5534</ele>
        <time>2026-07-19T09:45:34.490Z</time>
      </trkpt>
      <trkpt lat="48.82887" lon="2.30685">
        <ele>61.55963</ele>
        <time>2026-07-19T09:45:37.490Z</time>
      </trkpt>
      <trkpt lat="48.82889" lon="2.30681">
        <ele>61.5661</ele>
        <time>2026-07-19T09:45:41.492Z</time>
      </trkpt>
      <trkpt lat="48.8289" lon="2.30678">
        <ele>61.568</ele>
        <time>2026-07-19T09:45:43.491Z</time>
      </trkpt>
      <trkpt lat="48.82891" lon="2.30675">
        <ele>61.56911</ele>
        <time>2026-07-19T09:45:45.490Z</time>
      </trkpt>
      <trkpt lat="48.82892" lon="2.30671">
        <ele>61.57217</ele>
        <time>2026-07-19T09:45:47.491Z</time>
      </trkpt>
      <trkpt lat="48.82893" lon="2.30668">
        <ele>61.57637</ele>
        <time>2026-07-19T09:45:49.491Z</time>
      </trkpt>
      <trkpt lat="48.82896" lon="2.30664">
        <ele>61.58052</ele>
        <time>2026-07-19T09:45:52.491Z</time>
      </trkpt>
      <trkpt lat="48.82897" lon="2.30661">
        <ele>61.58426</ele>
        <time>2026-07-19T09:45:54.491Z</time>
      </trkpt>
      <trkpt lat="48.829" lon="2.30659">
        <ele>61.58764</ele>
        <time>2026-07-19T09:45:57.491Z</time>
      </trkpt>
      <trkpt lat="48.82902" lon="2.30657">
        <ele>61.59078</ele>
        <time>2026-07-19T09:46:01.491Z</time>
      </trkpt>
      <trkpt lat="48.82904" lon="2.30657">
        <ele>61.60276</ele>
        <time>2026-07-19T09:46:20.491Z</time>
      </trkpt>
      <trkpt lat="48.82907" lon="2.30658">
        <ele>61.60274</ele>
        <time>2026-07-19T09:46:22.491Z</time>
      </trkpt>
      <trkpt lat="48.82909" lon="2.30659">
        <ele>61.60279</ele>
        <time>2026-07-19T09:46:24.492Z</time>
      </trkpt>
      <trkpt lat="48.82913" lon="2.3066">
        <ele>61.60283</ele>
        <time>2026-07-19T09:46:27.492Z</time>
      </trkpt>
      <trkpt lat="48.82916" lon="2.30659">
        <ele>61.60376</ele>
        <time>2026-07-19T09:46:30.492Z</time>
      </trkpt>
      <trkpt lat="48.82918" lon="2.30657">
        <ele>61.60477</ele>
        <time>2026-07-19T09:46:33.492Z</time>
      </trkpt>
      <trkpt lat="48.82921" lon="2.30657">
        <ele>61.60505</ele>
        <time>2026-07-19T09:46:36.491Z</time>
      </trkpt>
      <trkpt lat="48.82922" lon="2.30653">
        <ele>61.29057</ele>
        <time>2026-07-19T09:47:23.493Z</time>
      </trkpt>
      <trkpt lat="48.82923" lon="2.30648">
        <ele>61.28106</ele>
        <time>2026-07-19T09:47:26.493Z</time>
      </trkpt>
      <trkpt lat="48.82924" lon="2.30644">
        <ele>61.28162</ele>
        <time>2026-07-19T09:47:29.493Z</time>
      </trkpt>
      <trkpt lat="48.82923" lon="2.3064">
        <ele>61.28263</ele>
        <time>2026-07-19T09:47:32.493Z</time>
      </trkpt>
      <trkpt lat="48.82921" lon="2.30638">
        <ele>61.27302</ele>
        <time>2026-07-19T09:47:36.493Z</time>
      </trkpt>
      <trkpt lat="48.82919" lon="2.30636">
        <ele>61.25991</ele>
        <time>2026-07-19T09:47:42.493Z</time>
      </trkpt>
      <trkpt lat="48.82916" lon="2.30635">
        <ele>61.25116</ele>
        <time>2026-07-19T09:47:46.493Z</time>
      </trkpt>
      <trkpt lat="48.82914" lon="2.30633">
        <ele>61.2373</ele>
        <time>2026-07-19T09:47:52.494Z</time>
      </trkpt>
      <trkpt lat="48.82912" lon="2.3063">
        <ele>61.23308</ele>
        <time>2026-07-19T09:47:55.493Z</time>
      </trkpt>
      <trkpt lat="48.82909" lon="2.30628">
        <ele>61.2326</ele>
        <time>2026-07-19T09:47:57.494Z</time>
      </trkpt>
      <trkpt lat="48.82907" lon="2.30627">
        <ele>61.2325</ele>
        <time>2026-07-19T09:47:59.495Z</time>
      </trkpt>
      <trkpt lat="48.82909" lon="2.30628">
        <ele>61.22133</ele>
        <time>2026-07-19T09:48:05.493Z</time>
      </trkpt>
      <trkpt lat="48.82912" lon="2.30629">
        <ele>61.21196</ele>
        <time>2026-07-19T09:48:07.494Z</time>
      </trkpt>
      <trkpt lat="48.82915" lon="2.30631">
        <ele>61.20297</ele>
        <time>2026-07-19T09:48:09.494Z</time>
      </trkpt>
      <trkpt lat="48.82918" lon="2.30632">
        <ele>61.17312</ele>
        <time>2026-07-19T09:48:16.494Z</time>
      </trkpt>
      <trkpt lat="48.82919" lon="2.30635">
        <ele>61.16576</ele>
        <time>2026-07-19T09:48:21.494Z</time>
      </trkpt>
      <trkpt lat="48.82921" lon="2.30637">
        <ele>61.19154</ele>
        <time>2026-07-19T09:48:26.494Z</time>
      </trkpt>
      <trkpt lat="48.82924" lon="2.3064">
        <ele>61.21457</ele>
        <time>2026-07-19T09:48:29.494Z</time>
      </trkpt>
      <trkpt lat="48.82923" lon="2.30643">
        <ele>61.27242</ele>
        <time>2026-07-19T09:48:43.497Z</time>
      </trkpt>
      <trkpt lat="48.8292" lon="2.30642">
        <ele>61.2813</ele>
        <time>2026-07-19T09:48:46.495Z</time>
      </trkpt>
      <trkpt lat="48.82917" lon="2.3064">
        <ele>61.29023</ele>
        <time>2026-07-19T09:48:49.494Z</time>
      </trkpt>
      <trkpt lat="48.82915" lon="2.30638">
        <ele>61.29509</ele>
        <time>2026-07-19T09:48:51.494Z</time>
      </trkpt>
      <trkpt lat="48.82912" lon="2.30635">
        <ele>61.29996</ele>
        <time>2026-07-19T09:48:53.494Z</time>
      </trkpt>
      <trkpt lat="48.8291" lon="2.30632">
        <ele>61.30778</ele>
        <time>2026-07-19T09:48:55.496Z</time>
      </trkpt>
      <trkpt lat="48.82908" lon="2.3063">
        <ele>61.31852</ele>
        <time>2026-07-19T09:48:57.495Z</time>
      </trkpt>
      <trkpt lat="48.82906" lon="2.30628">
        <ele>61.33136</ele>
        <time>2026-07-19T09:48:59.495Z</time>
      </trkpt>
      <trkpt lat="48.82903" lon="2.30625">
        <ele>61.35245</ele>
        <time>2026-07-19T09:49:02.495Z</time>
      </trkpt>
      <trkpt lat="48.82901" lon="2.30622">
        <ele>61.37263</ele>
        <time>2026-07-19T09:49:05.495Z</time>
      </trkpt>
      <trkpt lat="48.82898" lon="2.3062">
        <ele>61.38683</ele>
        <time>2026-07-19T09:49:07.495Z</time>
      </trkpt>
      <trkpt lat="48.82896" lon="2.30619">
        <ele>61.40134</ele>
        <time>2026-07-19T09:49:09.496Z</time>
      </trkpt>
      <trkpt lat="48.82893" lon="2.30616">
        <ele>61.42514</ele>
        <time>2026-07-19T09:49:12.496Z</time>
      </trkpt>
      <trkpt lat="48.8289" lon="2.30614">
        <ele>61.45538</ele>
        <time>2026-07-19T09:49:15.495Z</time>
      </trkpt>
      <trkpt lat="48.82889" lon="2.3061">
        <ele>61.52823</ele>
        <time>2026-07-19T09:49:20.495Z</time>
      </trkpt>
      <trkpt lat="48.8289" lon="2.30613">
        <ele>61.62842</ele>
        <time>2026-07-19T09:49:28.495Z</time>
      </trkpt>
      <trkpt lat="48.82893" lon="2.30616">
        <ele>61.65216</ele>
        <time>2026-07-19T09:49:31.496Z</time>
      </trkpt>
      <trkpt lat="48.82895" lon="2.30618">
        <ele>61.66785</ele>
        <time>2026-07-19T09:49:33.496Z</time>
      </trkpt>
      <trkpt lat="48.82897" lon="2.30621">
        <ele>61.68027</ele>
        <time>2026-07-19T09:49:35.496Z</time>
      </trkpt>
      <trkpt lat="48.829" lon="2.30623">
        <ele>61.6951</ele>
        <time>2026-07-19T09:49:37.495Z</time>
      </trkpt>
      <trkpt lat="48.82902" lon="2.30625">
        <ele>61.71113</ele>
        <time>2026-07-19T09:49:39.496Z</time>
      </trkpt>
      <trkpt lat="48.82904" lon="2.30627">
        <ele>61.72915</ele>
        <time>2026-07-19T09:49:41.496Z</time>
      </trkpt>
      <trkpt lat="48.82907" lon="2.30629">
        <ele>61.7573</ele>
        <time>2026-07-19T09:49:44.496Z</time>
      </trkpt>
      <trkpt lat="48.8291" lon="2.30632">
        <ele>61.78916</ele>
        <time>2026-07-19T09:49:47.496Z</time>
      </trkpt>
      <trkpt lat="48.82912" lon="2.30635">
        <ele>61.82951</ele>
        <time>2026-07-19T09:49:50.496Z</time>
      </trkpt>
      <trkpt lat="48.82914" lon="2.30637">
        <ele>61.85739</ele>
        <time>2026-07-19T09:49:52.496Z</time>
      </trkpt>
      <trkpt lat="48.82916" lon="2.3064">
        <ele>61.90528</ele>
        <time>2026-07-19T09:49:55.496Z</time>
      </trkpt>
      <trkpt lat="48.82919" lon="2.30643">
        <ele>61.94714</ele>
        <time>2026-07-19T09:49:58.496Z</time>
      </trkpt>
      <trkpt lat="48.82921" lon="2.30645">
        <ele>61.96887</ele>
        <time>2026-07-19T09:50:01.496Z</time>
      </trkpt>
      <trkpt lat="48.82923" lon="2.30648">
        <ele>61.98394</ele>
        <time>2026-07-19T09:50:04.496Z</time>
      </trkpt>
      <trkpt lat="48.82922" lon="2.30651">
        <ele>61.9977</ele>
        <time>2026-07-19T09:50:07.496Z</time>
      </trkpt>
      <trkpt lat="48.82921" lon="2.30656">
        <ele>61.99411</ele>
        <time>2026-07-19T09:50:10.496Z</time>
      </trkpt>
      <trkpt lat="48.82919" lon="2.30659">
        <ele>61.98805</ele>
        <time>2026-07-19T09:50:12.496Z</time>
      </trkpt>
      <trkpt lat="48.82918" lon="2.30661">
        <ele>61.98121</ele>
        <time>2026-07-19T09:50:15.497Z</time>
      </trkpt>
      <trkpt lat="48.82915" lon="2.30661">
        <ele>61.97813</ele>
        <time>2026-07-19T09:50:18.496Z</time>
      </trkpt>
      <trkpt lat="48.82912" lon="2.30659">
        <ele>61.97753</ele>
        <time>2026-07-19T09:50:21.497Z</time>
      </trkpt>
      <trkpt lat="48.8291" lon="2.30658">
        <ele>61.97742</ele>
        <time>2026-07-19T09:50:23.497Z</time>
      </trkpt>
      <trkpt lat="48.82907" lon="2.30655">
        <ele>61.9801</ele>
        <time>2026-07-19T09:50:26.497Z</time>
      </trkpt>
      <trkpt lat="48.82904" lon="2.30653">
        <ele>61.98339</ele>
        <time>2026-07-19T09:50:29.497Z</time>
      </trkpt>
      <trkpt lat="48.82901" lon="2.30651">
        <ele>61.98684</ele>
        <time>2026-07-19T09:50:32.496Z</time>
      </trkpt>
      <trkpt lat="48.82899" lon="2.30649">
        <ele>61.98869</ele>
        <time>2026-07-19T09:50:34.497Z</time>
      </trkpt>
      <trkpt lat="48.82897" lon="2.30646">
        <ele>61.99258</ele>
        <time>2026-07-19T09:50:37.496Z</time>
      </trkpt>
      <trkpt lat="48.82895" lon="2.30643">
        <ele>61.99506</ele>
        <time>2026-07-19T09:50:40.497Z</time>
      </trkpt>
      <trkpt lat="48.82893" lon="2.3064">
        <ele>61.99643</ele>
        <time>2026-07-19T09:50:42.497Z</time>
      </trkpt>
      <trkpt lat="48.82892" lon="2.30637">
        <ele>61.99892</ele>
        <time>2026-07-19T09:50:45.497Z</time>
      </trkpt>
      <trkpt lat="48.82889" lon="2.30633">
        <ele>62.00065</ele>
        <time>2026-07-19T09:50:48.497Z</time>
      </trkpt>
      <trkpt lat="48.82887" lon="2.3063">
        <ele>62.0027</ele>
        <time>2026-07-19T09:50:51.497Z</time>
      </trkpt>
      <trkpt lat="48.82884" lon="2.30626">
        <ele>62.00585</ele>
        <time>2026-07-19T09:50:54.497Z</time>
      </trkpt>
      <trkpt lat="48.82882" lon="2.30623">
        <ele>62.00884</ele>
        <time>2026-07-19T09:50:56.497Z</time>
      </trkpt>
      <trkpt lat="48.8288" lon="2.3062">
        <ele>62.01103</ele>
        <time>2026-07-19T09:50:59.498Z</time>
      </trkpt>
      <trkpt lat="48.82878" lon="2.30617">
        <ele>62.01452</ele>
        <time>2026-07-19T09:51:03.497Z</time>
      </trkpt>
      <trkpt lat="48.82875" lon="2.30615">
        <ele>62.01673</ele>
        <time>2026-07-19T09:51:06.497Z</time>
      </trkpt>
      <trkpt lat="48.82873" lon="2.30612">
        <ele>62.02156</ele>
        <time>2026-07-19T09:51:10.497Z</time>
      </trkpt>
      <trkpt lat="48.82871" lon="2.3061">
        <ele>62.02672</ele>
        <time>2026-07-19T09:51:14.498Z</time>
      </trkpt>
      <trkpt lat="48.82868" lon="2.30609">
        <ele>62.02711</ele>
        <time>2026-07-19T09:51:17.498Z</time>
      </trkpt>
      <trkpt lat="48.82866" lon="2.30608">
        <ele>62.02636</ele>
        <time>2026-07-19T09:51:20.498Z</time>
      </trkpt>
      <trkpt lat="48.82866" lon="2.30602">
        <ele>62.02376</ele>
        <time>2026-07-19T09:51:24.498Z</time>
      </trkpt>
      <trkpt lat="48.82866" lon="2.30598">
        <ele>62.02365</ele>
        <time>2026-07-19T09:51:26.497Z</time>
      </trkpt>
      <trkpt lat="48.82864" lon="2.30594">
        <ele>62.02406</ele>
        <time>2026-07-19T09:51:28.498Z</time>
      </trkpt>
      <trkpt lat="48.82863" lon="2.3059">
        <ele>62.02627</ele>
        <time>2026-07-19T09:51:30.498Z</time>
      </trkpt>
      <trkpt lat="48.82862" lon="2.30586">
        <ele>62.02938</ele>
        <time>2026-07-19T09:51:32.498Z</time>
      </trkpt>
      <trkpt lat="48.8286" lon="2.30585">
        <ele>62.03179</ele>
        <time>2026-07-19T09:51:34.498Z</time>
      </trkpt>
      <trkpt lat="48.82857" lon="2.30582">
        <ele>62.03478</ele>
        <time>2026-07-19T09:51:36.498Z</time>
      </trkpt>
      <trkpt lat="48.82854" lon="2.3058">
        <ele>62.03716</ele>
        <time>2026-07-19T09:51:39.498Z</time>
      </trkpt>
      <trkpt lat="48.82852" lon="2.30578">
        <ele>62.03824</ele>
        <time>2026-07-19T09:51:41.498Z</time>
      </trkpt>
      <trkpt lat="48.8285" lon="2.30576">
        <ele>62.04074</ele>
        <time>2026-07-19T09:51:43.498Z</time>
      </trkpt>
      <trkpt lat="48.82848" lon="2.30574">
        <ele>62.04067</ele>
        <time>2026-07-19T09:51:45.498Z</time>
      </trkpt>
      <trkpt lat="48.82846" lon="2.30572">
        <ele>62.04046</ele>
        <time>2026-07-19T09:51:47.498Z</time>
      </trkpt>
      <trkpt lat="48.82844" lon="2.3057">
        <ele>62.04164</ele>
        <time>2026-07-19T09:51:50.498Z</time>
      </trkpt>
      <trkpt lat="48.82841" lon="2.30568">
        <ele>62.0444</ele>
        <time>2026-07-19T09:51:52.498Z</time>
      </trkpt>
      <trkpt lat="48.82839" lon="2.30565">
        <ele>62.05286</ele>
        <time>2026-07-19T09:51:55.498Z</time>
      </trkpt>
      <trkpt lat="48.82836" lon="2.30563">
        <ele>62.06212</ele>
        <time>2026-07-19T09:51:58.498Z</time>
      </trkpt>
      <trkpt lat="48.82834" lon="2.3056">
        <ele>62.07137</ele>
        <time>2026-07-19T09:52:01.499Z</time>
      </trkpt>
      <trkpt lat="48.82831" lon="2.30558">
        <ele>62.07764</ele>
        <time>2026-07-19T09:52:04.498Z</time>
      </trkpt>
      <trkpt lat="48.82829" lon="2.30556">
        <ele>62.07976</ele>
        <time>2026-07-19T09:52:06.498Z</time>
      </trkpt>
      <trkpt lat="48.82826" lon="2.30553">
        <ele>62.0807</ele>
        <time>2026-07-19T09:52:09.499Z</time>
      </trkpt>
      <trkpt lat="48.82825" lon="2.3055">
        <ele>62.08214</ele>
        <time>2026-07-19T09:52:12.499Z</time>
      </trkpt>
      <trkpt lat="48.82824" lon="2.30546">
        <ele>62.08294</ele>
        <time>2026-07-19T09:52:14.498Z</time>
      </trkpt>
      <trkpt lat="48.82823" lon="2.30542">
        <ele>62.08294</ele>
        <time>2026-07-19T09:52:17.499Z</time>
      </trkpt>
      <trkpt lat="48.82821" lon="2.30539">
        <ele>62.08138</ele>
        <time>2026-07-19T09:52:20.499Z</time>
      </trkpt>
      <trkpt lat="48.82818" lon="2.30538">
        <ele>62.07746</ele>
        <time>2026-07-19T09:52:24.500Z</time>
      </trkpt>
      <trkpt lat="48.82815" lon="2.30535">
        <ele>62.07177</ele>
        <time>2026-07-19T09:52:27.499Z</time>
      </trkpt>
      <trkpt lat="48.82813" lon="2.30532">
        <ele>62.06484</ele>
        <time>2026-07-19T09:52:30.499Z</time>
      </trkpt>
      <trkpt lat="48.82811" lon="2.30529">
        <ele>62.05987</ele>
        <time>2026-07-19T09:52:32.499Z</time>
      </trkpt>
      <trkpt lat="48.8281" lon="2.30527">
        <ele>62.05351</ele>
        <time>2026-07-19T09:52:34.499Z</time>
      </trkpt>
      <trkpt lat="48.82808" lon="2.30524">
        <ele>62.04742</ele>
        <time>2026-07-19T09:52:36.499Z</time>
      </trkpt>
      <trkpt lat="48.82805" lon="2.30523">
        <ele>62.03332</ele>
        <time>2026-07-19T09:52:39.499Z</time>
      </trkpt>
      <trkpt lat="48.82804" lon="2.30519">
        <ele>62.00476</ele>
        <time>2026-07-19T09:52:42.500Z</time>
      </trkpt>
      <trkpt lat="48.82803" lon="2.30515">
        <ele>61.97066</ele>
        <time>2026-07-19T09:52:44.500Z</time>
      </trkpt>
      <trkpt lat="48.82802" lon="2.30511">
        <ele>61.93281</ele>
        <time>2026-07-19T09:52:46.499Z</time>
      </trkpt>
      <trkpt lat="48.82801" lon="2.30507">
        <ele>61.86987</ele>
        <time>2026-07-19T09:52:49.499Z</time>
      </trkpt>
      <trkpt lat="48.828" lon="2.30504">
        <ele>61.79929</ele>
        <time>2026-07-19T09:52:52.500Z</time>
      </trkpt>
      <trkpt lat="48.82798" lon="2.30501">
        <ele>61.71188</ele>
        <time>2026-07-19T09:52:55.500Z</time>
      </trkpt>
      <trkpt lat="48.82798" lon="2.30496">
        <ele>61.5111</ele>
        <time>2026-07-19T09:53:00.500Z</time>
      </trkpt>
      <trkpt lat="48.82799" lon="2.30491">
        <ele>61.37177</ele>
        <time>2026-07-19T09:53:03.500Z</time>
      </trkpt>
      <trkpt lat="48.828" lon="2.30487">
        <ele>61.17821</ele>
        <time>2026-07-19T09:53:06.500Z</time>
      </trkpt>
      <trkpt lat="48.82802" lon="2.30485">
        <ele>60.96738</ele>
        <time>2026-07-19T09:53:09.500Z</time>
      </trkpt>
      <trkpt lat="48.82804" lon="2.30481">
        <ele>60.7665</ele>
        <time>2026-07-19T09:53:12.501Z</time>
      </trkpt>
      <trkpt lat="48.82803" lon="2.30477">
        <ele>60.58196</ele>
        <time>2026-07-19T09:53:15.500Z</time>
      </trkpt>
      <trkpt lat="48.82804" lon="2.30472">
        <ele>60.49359</ele>
        <time>2026-07-19T09:53:17.501Z</time>
      </trkpt>
      <trkpt lat="48.82805" lon="2.30468">
        <ele>60.40619</ele>
        <time>2026-07-19T09:53:19.500Z</time>
      </trkpt>
      <trkpt lat="48.82806" lon="2.30464">
        <ele>60.32487</ele>
        <time>2026-07-19T09:53:21.500Z</time>
      </trkpt>
      <trkpt lat="48.82816" lon="2.30426">
        <ele>60.31467</ele>
        <time>2026-07-19T09:53:48.501Z</time>
      </trkpt>
      <trkpt lat="48.82813" lon="2.30414">
        <ele>60.28282</ele>
        <time>2026-07-19T09:53:49.501Z</time>
      </trkpt>
      <trkpt lat="48.82814" lon="2.3041">
        <ele>60.25805</ele>
        <time>2026-07-19T09:53:50.501Z</time>
      </trkpt>
      <trkpt lat="48.82814" lon="2.30405">
        <ele>60.22786</ele>
        <time>2026-07-19T09:53:51.501Z</time>
      </trkpt>
      <trkpt lat="48.82813" lon="2.304">
        <ele>60.17811</ele>
        <time>2026-07-19T09:53:53.501Z</time>
      </trkpt>
      <trkpt lat="48.82815" lon="2.30394">
        <ele>60.09443</ele>
        <time>2026-07-19T09:53:55.501Z</time>
      </trkpt>
      <trkpt lat="48.82821" lon="2.30392">
        <ele>59.99611</ele>
        <time>2026-07-19T09:53:56.501Z</time>
      </trkpt>
      <trkpt lat="48.82807" lon="2.30383">
        <ele>60.01989</ele>
        <time>2026-07-19T09:53:57.501Z</time>
      </trkpt>
      <trkpt lat="48.8281" lon="2.30384">
        <ele>60.07599</ele>
        <time>2026-07-19T09:53:59.501Z</time>
      </trkpt>
      <trkpt lat="48.82817" lon="2.30389">
        <ele>60.10783</ele>
        <time>2026-07-19T09:54:00.501Z</time>
      </trkpt>
      <trkpt lat="48.82819" lon="2.30386">
        <ele>60.24334</ele>
        <time>2026-07-19T09:54:03.501Z</time>
      </trkpt>
      <trkpt lat="48.8282" lon="2.30383">
        <ele>60.37302</ele>
        <time>2026-07-19T09:54:08.501Z</time>
      </trkpt>
      <trkpt lat="48.82822" lon="2.30379">
        <ele>60.41872</ele>
        <time>2026-07-19T09:54:11.502Z</time>
      </trkpt>
      <trkpt lat="48.82823" lon="2.30376">
        <ele>60.44021</ele>
        <time>2026-07-19T09:54:13.501Z</time>
      </trkpt>
      <trkpt lat="48.82824" lon="2.30372">
        <ele>60.46224</ele>
        <time>2026-07-19T09:54:16.502Z</time>
      </trkpt>
      <trkpt lat="48.82825" lon="2.30368">
        <ele>60.4741</ele>
        <time>2026-07-19T09:54:18.502Z</time>
      </trkpt>
      <trkpt lat="48.82826" lon="2.30364">
        <ele>60.4941</ele>
        <time>2026-07-19T09:54:21.501Z</time>
      </trkpt>
      <trkpt lat="48.82827" lon="2.3036">
        <ele>60.51832</ele>
        <time>2026-07-19T09:54:24.501Z</time>
      </trkpt>
      <trkpt lat="48.82827" lon="2.30355">
        <ele>60.53734</ele>
        <time>2026-07-19T09:54:27.502Z</time>
      </trkpt>
      <trkpt lat="48.82829" lon="2.30352">
        <ele>60.55451</ele>
        <time>2026-07-19T09:54:30.502Z</time>
      </trkpt>
      <trkpt lat="48.8283" lon="2.30348">
        <ele>60.57232</ele>
        <time>2026-07-19T09:54:33.501Z</time>
      </trkpt>
      <trkpt lat="48.8283" lon="2.30344">
        <ele>60.58224</ele>
        <time>2026-07-19T09:54:35.502Z</time>
      </trkpt>
      <trkpt lat="48.82831" lon="2.30341">
        <ele>60.59475</ele>
        <time>2026-07-19T09:54:37.502Z</time>
      </trkpt>
      <trkpt lat="48.82832" lon="2.30338">
        <ele>60.61562</ele>
        <time>2026-07-19T09:54:41.502Z</time>
      </trkpt>
      <trkpt lat="48.82833" lon="2.30335">
        <ele>60.6371</ele>
        <time>2026-07-19T09:54:44.501Z</time>
      </trkpt>
      <trkpt lat="48.82835" lon="2.30331">
        <ele>60.67122</ele>
        <time>2026-07-19T09:54:47.502Z</time>
      </trkpt>
      <trkpt lat="48.82836" lon="2.30328">
        <ele>60.74765</ele>
        <time>2026-07-19T09:54:51.503Z</time>
      </trkpt>
      <trkpt lat="48.82836" lon="2.30323">
        <ele>60.81923</ele>
        <time>2026-07-19T09:54:54.502Z</time>
      </trkpt>
      <trkpt lat="48.82836" lon="2.30319">
        <ele>60.88186</ele>
        <time>2026-07-19T09:54:56.502Z</time>
      </trkpt>
      <trkpt lat="48.82835" lon="2.30314">
        <ele>60.98584</ele>
        <time>2026-07-19T09:54:59.503Z</time>
      </trkpt>
      <trkpt lat="48.82835" lon="2.3031">
        <ele>61.05444</ele>
        <time>2026-07-19T09:55:01.502Z</time>
      </trkpt>
      <trkpt lat="48.82836" lon="2.30305">
        <ele>61.17461</ele>
        <time>2026-07-19T09:55:04.503Z</time>
      </trkpt>
      <trkpt lat="48.82837" lon="2.30303">
        <ele>61.26785</ele>
        <time>2026-07-19T09:55:06.502Z</time>
      </trkpt>
      <trkpt lat="48.82839" lon="2.30299">
        <ele>61.46292</ele>
        <time>2026-07-19T09:55:09.502Z</time>
      </trkpt>
      <trkpt lat="48.82839" lon="2.30296">
        <ele>61.65135</ele>
        <time>2026-07-19T09:55:11.502Z</time>
      </trkpt>
      <trkpt lat="48.8284" lon="2.30291">
        <ele>61.97294</ele>
        <time>2026-07-19T09:55:14.503Z</time>
      </trkpt>
      <trkpt lat="48.82842" lon="2.30287">
        <ele>62.3234</ele>
        <time>2026-07-19T09:55:17.502Z</time>
      </trkpt>
      <trkpt lat="48.82843" lon="2.30283">
        <ele>62.70594</ele>
        <time>2026-07-19T09:55:20.502Z</time>
      </trkpt>
      <trkpt lat="48.82844" lon="2.30279">
        <ele>63.18502</ele>
        <time>2026-07-19T09:55:23.502Z</time>
      </trkpt>
      <trkpt lat="48.82845" lon="2.30274">
        <ele>63.69595</ele>
        <time>2026-07-19T09:55:26.503Z</time>
      </trkpt>
      <trkpt lat="48.82846" lon="2.30269">
        <ele>64.2093</ele>
        <time>2026-07-19T09:55:29.503Z</time>
      </trkpt>
      <trkpt lat="48.82847" lon="2.30264">
        <ele>64.66989</ele>
        <time>2026-07-19T09:55:32.503Z</time>
      </trkpt>
      <trkpt lat="48.82847" lon="2.30261">
        <ele>64.94537</ele>
        <time>2026-07-19T09:55:34.503Z</time>
      </trkpt>
      <trkpt lat="48.82847" lon="2.30256">
        <ele>65.27247</ele>
        <time>2026-07-19T09:55:37.503Z</time>
      </trkpt>
      <trkpt lat="48.82848" lon="2.30253">
        <ele>65.52334</ele>
        <time>2026-07-19T09:55:40.503Z</time>
      </trkpt>
      <trkpt lat="48.82848" lon="2.30249">
        <ele>65.65241</ele>
        <time>2026-07-19T09:55:42.503Z</time>
      </trkpt>
      <trkpt lat="48.82849" lon="2.30245">
        <ele>65.76744</ele>
        <time>2026-07-19T09:55:44.504Z</time>
      </trkpt>
      <trkpt lat="48.8285" lon="2.30242">
        <ele>65.88169</ele>
        <time>2026-07-19T09:55:46.503Z</time>
      </trkpt>
      <trkpt lat="48.82851" lon="2.30238">
        <ele>65.99739</ele>
        <time>2026-07-19T09:55:48.503Z</time>
      </trkpt>
      <trkpt lat="48.82852" lon="2.30235">
        <ele>66.10021</ele>
        <time>2026-07-19T09:55:50.503Z</time>
      </trkpt>
      <trkpt lat="48.82854" lon="2.30231">
        <ele>66.21453</ele>
        <time>2026-07-19T09:55:53.503Z</time>
      </trkpt>
      <trkpt lat="48.82855" lon="2.30227">
        <ele>66.30096</ele>
        <time>2026-07-19T09:55:55.503Z</time>
      </trkpt>
      <trkpt lat="48.82857" lon="2.30223">
        <ele>66.39656</ele>
        <time>2026-07-19T09:55:58.504Z</time>
      </trkpt>
      <trkpt lat="48.82857" lon="2.30218">
        <ele>66.50742</ele>
        <time>2026-07-19T09:56:01.503Z</time>
      </trkpt>
      <trkpt lat="48.82858" lon="2.30214">
        <ele>66.60436</ele>
        <time>2026-07-19T09:56:04.503Z</time>
      </trkpt>
      <trkpt lat="48.82859" lon="2.3021">
        <ele>66.66941</ele>
        <time>2026-07-19T09:56:07.504Z</time>
      </trkpt>
      <trkpt lat="48.8286" lon="2.30205">
        <ele>66.71698</ele>
        <time>2026-07-19T09:56:10.504Z</time>
      </trkpt>
      <trkpt lat="48.82861" lon="2.302">
        <ele>66.73992</ele>
        <time>2026-07-19T09:56:13.503Z</time>
      </trkpt>
      <trkpt lat="48.82861" lon="2.30196">
        <ele>66.76468</ele>
        <time>2026-07-19T09:56:16.504Z</time>
      </trkpt>
      <trkpt lat="48.82862" lon="2.30193">
        <ele>66.78005</ele>
        <time>2026-07-19T09:56:19.504Z</time>
      </trkpt>
      <trkpt lat="48.82862" lon="2.30189">
        <ele>66.78236</ele>
        <time>2026-07-19T09:56:21.504Z</time>
      </trkpt>
      <trkpt lat="48.82863" lon="2.30186">
        <ele>66.77999</ele>
        <time>2026-07-19T09:56:24.504Z</time>
      </trkpt>
      <trkpt lat="48.82864" lon="2.30181">
        <ele>66.7791</ele>
        <time>2026-07-19T09:56:27.504Z</time>
      </trkpt>
      <trkpt lat="48.82865" lon="2.30177">
        <ele>66.77645</ele>
        <time>2026-07-19T09:56:29.504Z</time>
      </trkpt>
      <trkpt lat="48.82866" lon="2.30172">
        <ele>66.77411</ele>
        <time>2026-07-19T09:56:32.504Z</time>
      </trkpt>
      <trkpt lat="48.82867" lon="2.30167">
        <ele>66.77464</ele>
        <time>2026-07-19T09:56:35.505Z</time>
      </trkpt>
      <trkpt lat="48.82867" lon="2.30164">
        <ele>66.77567</ele>
        <time>2026-07-19T09:56:37.505Z</time>
      </trkpt>
      <trkpt lat="48.82869" lon="2.30159">
        <ele>66.77817</ele>
        <time>2026-07-19T09:56:40.504Z</time>
      </trkpt>
      <trkpt lat="48.8287" lon="2.30156">
        <ele>66.77903</ele>
        <time>2026-07-19T09:56:43.505Z</time>
      </trkpt>
      <trkpt lat="48.82872" lon="2.30153">
        <ele>66.77572</ele>
        <time>2026-07-19T09:56:46.505Z</time>
      </trkpt>
      <trkpt lat="48.82873" lon="2.30149">
        <ele>66.7684</ele>
        <time>2026-07-19T09:56:49.505Z</time>
      </trkpt>
      <trkpt lat="48.82874" lon="2.30146">
        <ele>66.76194</ele>
        <time>2026-07-19T09:56:52.505Z</time>
      </trkpt>
      <trkpt lat="48.82874" lon="2.30142">
        <ele>66.76062</ele>
        <time>2026-07-19T09:56:54.504Z</time>
      </trkpt>
      <trkpt lat="48.82874" lon="2.30137">
        <ele>66.7648</ele>
        <time>2026-07-19T09:56:57.505Z</time>
      </trkpt>
      <trkpt lat="48.82876" lon="2.30133">
        <ele>66.7692</ele>
        <time>2026-07-19T09:57:00.505Z</time>
      </trkpt>
      <trkpt lat="48.82878" lon="2.3013">
        <ele>66.76936</ele>
        <time>2026-07-19T09:57:03.505Z</time>
      </trkpt>
      <trkpt lat="48.82878" lon="2.30126">
        <ele>66.76756</ele>
        <time>2026-07-19T09:57:06.505Z</time>
      </trkpt>
      <trkpt lat="48.82879" lon="2.30123">
        <ele>66.76474</ele>
        <time>2026-07-19T09:57:08.504Z</time>
      </trkpt>
      <trkpt lat="48.8288" lon="2.30118">
        <ele>66.76018</ele>
        <time>2026-07-19T09:57:10.505Z</time>
      </trkpt>
      <trkpt lat="48.8288" lon="2.30114">
        <ele>66.75239</ele>
        <time>2026-07-19T09:57:12.505Z</time>
      </trkpt>
      <trkpt lat="48.82881" lon="2.30111">
        <ele>66.74135</ele>
        <time>2026-07-19T09:57:14.504Z</time>
      </trkpt>
      <trkpt lat="48.82882" lon="2.30108">
        <ele>66.73135</ele>
        <time>2026-07-19T09:57:16.504Z</time>
      </trkpt>
      <trkpt lat="48.82884" lon="2.30104">
        <ele>66.71772</ele>
        <time>2026-07-19T09:57:19.505Z</time>
      </trkpt>
      <trkpt lat="48.82885" lon="2.301">
        <ele>66.70636</ele>
        <time>2026-07-19T09:57:22.505Z</time>
      </trkpt>
      <trkpt lat="48.82886" lon="2.30096">
        <ele>66.70049</ele>
        <time>2026-07-19T09:57:24.505Z</time>
      </trkpt>
      <trkpt lat="48.82886" lon="2.30091">
        <ele>66.69675</ele>
        <time>2026-07-19T09:57:27.505Z</time>
      </trkpt>
      <trkpt lat="48.82887" lon="2.30086">
        <ele>66.69642</ele>
        <time>2026-07-19T09:57:30.505Z</time>
      </trkpt>
      <trkpt lat="48.82888" lon="2.30083">
        <ele>66.69732</ele>
        <time>2026-07-19T09:57:32.505Z</time>
      </trkpt>
      <trkpt lat="48.82889" lon="2.30079">
        <ele>66.69609</ele>
        <time>2026-07-19T09:57:35.505Z</time>
      </trkpt>
      <trkpt lat="48.8289" lon="2.30076">
        <ele>66.69522</ele>
        <time>2026-07-19T09:57:37.505Z</time>
      </trkpt>
      <trkpt lat="48.82891" lon="2.30072">
        <ele>66.69306</ele>
        <time>2026-07-19T09:57:40.505Z</time>
      </trkpt>
      <trkpt lat="48.8289" lon="2.30068">
        <ele>66.68535</ele>
        <time>2026-07-19T09:57:43.506Z</time>
      </trkpt>
      <trkpt lat="48.8289" lon="2.30064">
        <ele>66.67853</ele>
        <time>2026-07-19T09:57:45.506Z</time>
      </trkpt>
      <trkpt lat="48.82891" lon="2.30059">
        <ele>66.66375</ele>
        <time>2026-07-19T09:57:49.506Z</time>
      </trkpt>
      <trkpt lat="48.82892" lon="2.30055">
        <ele>66.65065</ele>
        <time>2026-07-19T09:57:53.505Z</time>
      </trkpt>
      <trkpt lat="48.82894" lon="2.3005">
        <ele>66.63818</ele>
        <time>2026-07-19T09:57:56.506Z</time>
      </trkpt>
      <trkpt lat="48.82896" lon="2.30046">
        <ele>66.6251</ele>
        <time>2026-07-19T09:57:59.506Z</time>
      </trkpt>
      <trkpt lat="48.82897" lon="2.30043">
        <ele>66.61786</ele>
        <time>2026-07-19T09:58:01.506Z</time>
      </trkpt>
      <trkpt lat="48.82898" lon="2.3004">
        <ele>66.6023</ele>
        <time>2026-07-19T09:58:05.508Z</time>
      </trkpt>
      <trkpt lat="48.82901" lon="2.30038">
        <ele>66.57941</ele>
        <time>2026-07-19T09:58:08.506Z</time>
      </trkpt>
      <trkpt lat="48.82899" lon="2.30031">
        <ele>66.56008</ele>
        <time>2026-07-19T09:58:10.506Z</time>
      </trkpt>
      <trkpt lat="48.82899" lon="2.30027">
        <ele>66.55316</ele>
        <time>2026-07-19T09:58:11.506Z</time>
      </trkpt>
      <trkpt lat="48.82902" lon="2.30025">
        <ele>66.53405</ele>
        <time>2026-07-19T09:58:13.506Z</time>
      </trkpt>
      <trkpt lat="48.82903" lon="2.30022">
        <ele>66.51573</ele>
        <time>2026-07-19T09:58:15.506Z</time>
      </trkpt>
      <trkpt lat="48.82905" lon="2.30018">
        <ele>66.49124</ele>
        <time>2026-07-19T09:58:18.506Z</time>
      </trkpt>
      <trkpt lat="48.82906" lon="2.30014">
        <ele>66.44462</ele>
        <time>2026-07-19T09:58:21.507Z</time>
      </trkpt>
      <trkpt lat="48.82907" lon="2.30011">
        <ele>66.40158</ele>
        <time>2026-07-19T09:58:23.506Z</time>
      </trkpt>
      <trkpt lat="48.82908" lon="2.30006">
        <ele>66.30796</ele>
        <time>2026-07-19T09:58:26.506Z</time>
      </trkpt>
      <trkpt lat="48.82909" lon="2.30001">
        <ele>66.18137</ele>
        <time>2026-07-19T09:58:29.507Z</time>
      </trkpt>
      <trkpt lat="48.8291" lon="2.29998">
        <ele>66.02718</ele>
        <time>2026-07-19T09:58:32.507Z</time>
      </trkpt>
      <trkpt lat="48.8291" lon="2.29993">
        <ele>65.84893</ele>
        <time>2026-07-19T09:58:35.507Z</time>
      </trkpt>
      <trkpt lat="48.82911" lon="2.29988">
        <ele>65.72335</ele>
        <time>2026-07-19T09:58:37.507Z</time>
      </trkpt>
      <trkpt lat="48.82913" lon="2.29983">
        <ele>65.60658</ele>
        <time>2026-07-19T09:58:39.507Z</time>
      </trkpt>
      <trkpt lat="48.82914" lon="2.29979">
        <ele>65.5263</ele>
        <time>2026-07-19T09:58:41.507Z</time>
      </trkpt>
      <trkpt lat="48.82916" lon="2.29976">
        <ele>65.48558</ele>
        <time>2026-07-19T09:58:43.507Z</time>
      </trkpt>
      <trkpt lat="48.82916" lon="2.29971">
        <ele>65.42171</ele>
        <time>2026-07-19T09:58:46.507Z</time>
      </trkpt>
      <trkpt lat="48.82917" lon="2.29966">
        <ele>65.35138</ele>
        <time>2026-07-19T09:58:49.508Z</time>
      </trkpt>
      <trkpt lat="48.82918" lon="2.29962">
        <ele>65.28368</ele>
        <time>2026-07-19T09:58:52.507Z</time>
      </trkpt>
      <trkpt lat="48.82918" lon="2.29958">
        <ele>65.24136</ele>
        <time>2026-07-19T09:58:54.507Z</time>
      </trkpt>
      <trkpt lat="48.82919" lon="2.29955">
        <ele>65.20682</ele>
        <time>2026-07-19T09:58:56.508Z</time>
      </trkpt>
      <trkpt lat="48.82919" lon="2.29951">
        <ele>65.17543</ele>
        <time>2026-07-19T09:58:58.507Z</time>
      </trkpt>
      <trkpt lat="48.8292" lon="2.29948">
        <ele>65.12902</ele>
        <time>2026-07-19T09:59:01.508Z</time>
      </trkpt>
      <trkpt lat="48.82922" lon="2.29944">
        <ele>65.08206</ele>
        <time>2026-07-19T09:59:04.508Z</time>
      </trkpt>
      <trkpt lat="48.82924" lon="2.2994">
        <ele>65.03353</ele>
        <time>2026-07-19T09:59:07.508Z</time>
      </trkpt>
      <trkpt lat="48.82924" lon="2.29936">
        <ele>64.98818</ele>
        <time>2026-07-19T09:59:10.507Z</time>
      </trkpt>
      <trkpt lat="48.82925" lon="2.29932">
        <ele>64.96434</ele>
        <time>2026-07-19T09:59:12.508Z</time>
      </trkpt>
      <trkpt lat="48.82925" lon="2.29927">
        <ele>64.95211</ele>
        <time>2026-07-19T09:59:14.507Z</time>
      </trkpt>
      <trkpt lat="48.82926" lon="2.29923">
        <ele>64.94947</ele>
        <time>2026-07-19T09:59:16.508Z</time>
      </trkpt>
      <trkpt lat="48.82927" lon="2.29919">
        <ele>64.94799</ele>
        <time>2026-07-19T09:59:18.508Z</time>
      </trkpt>
      <trkpt lat="48.82928" lon="2.29916">
        <ele>64.94652</ele>
        <time>2026-07-19T09:59:20.508Z</time>
      </trkpt>
      <trkpt lat="48.82929" lon="2.29913">
        <ele>64.92898</ele>
        <time>2026-07-19T09:59:23.508Z</time>
      </trkpt>
      <trkpt lat="48.82931" lon="2.29908">
        <ele>64.90529</ele>
        <time>2026-07-19T09:59:26.507Z</time>
      </trkpt>
      <trkpt lat="48.82931" lon="2.29904">
        <ele>64.87149</ele>
        <time>2026-07-19T09:59:29.508Z</time>
      </trkpt>
      <trkpt lat="48.82932" lon="2.299">
        <ele>64.84499</ele>
        <time>2026-07-19T09:59:31.510Z</time>
      </trkpt>
      <trkpt lat="48.82932" lon="2.29896">
        <ele>64.81135</ele>
        <time>2026-07-19T09:59:34.508Z</time>
      </trkpt>
      <trkpt lat="48.82933" lon="2.29892">
        <ele>64.76935</ele>
        <time>2026-07-19T09:59:37.508Z</time>
      </trkpt>
      <trkpt lat="48.82933" lon="2.29888">
        <ele>64.75249</ele>
        <time>2026-07-19T09:59:39.512Z</time>
      </trkpt>
      <trkpt lat="48.82934" lon="2.29883">
        <ele>64.70272</ele>
        <time>2026-07-19T09:59:42.508Z</time>
      </trkpt>
      <trkpt lat="48.82935" lon="2.29879">
        <ele>64.64413</ele>
        <time>2026-07-19T09:59:45.508Z</time>
      </trkpt>
      <trkpt lat="48.82936" lon="2.29875">
        <ele>64.58057</ele>
        <time>2026-07-19T09:59:48.508Z</time>
      </trkpt>
      <trkpt lat="48.82937" lon="2.29871">
        <ele>64.52777</ele>
        <time>2026-07-19T09:59:50.509Z</time>
      </trkpt>
      <trkpt lat="48.82937" lon="2.29866">
        <ele>64.44994</ele>
        <time>2026-07-19T09:59:53.508Z</time>
      </trkpt>
      <trkpt lat="48.82938" lon="2.29862">
        <ele>64.39909</ele>
        <time>2026-07-19T09:59:55.508Z</time>
      </trkpt>
      <trkpt lat="48.82938" lon="2.29858">
        <ele>64.31307</ele>
        <time>2026-07-19T09:59:58.509Z</time>
      </trkpt>
      <trkpt lat="48.82939" lon="2.29854">
        <ele>64.23952</ele>
        <time>2026-07-19T10:00:01.509Z</time>
      </trkpt>
      <trkpt lat="48.8294" lon="2.2985">
        <ele>64.21181</ele>
        <time>2026-07-19T10:00:03.508Z</time>
      </trkpt>
      <trkpt lat="48.82941" lon="2.29845">
        <ele>64.19368</ele>
        <time>2026-07-19T10:00:05.509Z</time>
      </trkpt>
      <trkpt lat="48.82943" lon="2.29841">
        <ele>64.18459</ele>
        <time>2026-07-19T10:00:07.509Z</time>
      </trkpt>
      <trkpt lat="48.82944" lon="2.29837">
        <ele>64.16813</ele>
        <time>2026-07-19T10:00:10.509Z</time>
      </trkpt>
      <trkpt lat="48.82945" lon="2.29833">
        <ele>64.14763</ele>
        <time>2026-07-19T10:00:12.509Z</time>
      </trkpt>
      <trkpt lat="48.82946" lon="2.29828">
        <ele>64.12322</ele>
        <time>2026-07-19T10:00:14.508Z</time>
      </trkpt>
      <trkpt lat="48.82947" lon="2.29824">
        <ele>64.10649</ele>
        <time>2026-07-19T10:00:16.508Z</time>
      </trkpt>
      <trkpt lat="48.82948" lon="2.2982">
        <ele>64.09533</ele>
        <time>2026-07-19T10:00:18.509Z</time>
      </trkpt>
      <trkpt lat="48.82949" lon="2.29817">
        <ele>64.09005</ele>
        <time>2026-07-19T10:00:20.509Z</time>
      </trkpt>
      <trkpt lat="48.82949" lon="2.29812">
        <ele>64.09192</ele>
        <time>2026-07-19T10:00:23.509Z</time>
      </trkpt>
      <trkpt lat="48.8295" lon="2.29808">
        <ele>64.09791</ele>
        <time>2026-07-19T10:00:26.509Z</time>
      </trkpt>
      <trkpt lat="48.82951" lon="2.29804">
        <ele>64.10695</ele>
        <time>2026-07-19T10:00:29.509Z</time>
      </trkpt>
      <trkpt lat="48.82952" lon="2.29799">
        <ele>64.11775</ele>
        <time>2026-07-19T10:00:32.509Z</time>
      </trkpt>
      <trkpt lat="48.82952" lon="2.29795">
        <ele>64.12502</ele>
        <time>2026-07-19T10:00:34.509Z</time>
      </trkpt>
      <trkpt lat="48.82954" lon="2.2979">
        <ele>64.13453</ele>
        <time>2026-07-19T10:00:37.509Z</time>
      </trkpt>
      <trkpt lat="48.82955" lon="2.29786">
        <ele>64.13976</ele>
        <time>2026-07-19T10:00:39.509Z</time>
      </trkpt>
      <trkpt lat="48.82956" lon="2.29783">
        <ele>64.1421</ele>
        <time>2026-07-19T10:00:42.509Z</time>
      </trkpt>
      <trkpt lat="48.82958" lon="2.29779">
        <ele>64.13649</ele>
        <time>2026-07-19T10:00:45.509Z</time>
      </trkpt>
      <trkpt lat="48.82961" lon="2.29777">
        <ele>64.12503</ele>
        <time>2026-07-19T10:00:48.510Z</time>
      </trkpt>
      <trkpt lat="48.82962" lon="2.29773">
        <ele>64.11679</ele>
        <time>2026-07-19T10:00:51.509Z</time>
      </trkpt>
      <trkpt lat="48.82963" lon="2.2977">
        <ele>64.11371</ele>
        <time>2026-07-19T10:00:53.509Z</time>
      </trkpt>
      <trkpt lat="48.82964" lon="2.29766">
        <ele>64.10954</ele>
        <time>2026-07-19T10:00:55.509Z</time>
      </trkpt>
      <trkpt lat="48.82965" lon="2.29762">
        <ele>64.09658</ele>
        <time>2026-07-19T10:00:58.510Z</time>
      </trkpt>
      <trkpt lat="48.82966" lon="2.29758">
        <ele>64.07819</ele>
        <time>2026-07-19T10:01:01.510Z</time>
      </trkpt>
      <trkpt lat="48.82966" lon="2.29753">
        <ele>64.05591</ele>
        <time>2026-07-19T10:01:04.510Z</time>
      </trkpt>
      <trkpt lat="48.82967" lon="2.29749">
        <ele>64.02175</ele>
        <time>2026-07-19T10:01:07.510Z</time>
      </trkpt>
      <trkpt lat="48.82968" lon="2.29745">
        <ele>63.99317</ele>
        <time>2026-07-19T10:01:09.510Z</time>
      </trkpt>
      <trkpt lat="48.82969" lon="2.29741">
        <ele>63.96138</ele>
        <time>2026-07-19T10:01:11.510Z</time>
      </trkpt>
      <trkpt lat="48.8297" lon="2.29737">
        <ele>63.90667</ele>
        <time>2026-07-19T10:01:14.510Z</time>
      </trkpt>
      <trkpt lat="48.8297" lon="2.29733">
        <ele>63.87313</ele>
        <time>2026-07-19T10:01:16.510Z</time>
      </trkpt>
      <trkpt lat="48.82971" lon="2.2973">
        <ele>63.82458</ele>
        <time>2026-07-19T10:01:19.510Z</time>
      </trkpt>
      <trkpt lat="48.82972" lon="2.29725">
        <ele>63.77107</ele>
        <time>2026-07-19T10:01:22.510Z</time>
      </trkpt>
      <trkpt lat="48.82972" lon="2.29718">
        <ele>63.75632</ele>
        <time>2026-07-19T10:01:24.510Z</time>
      </trkpt>
      <trkpt lat="48.82972" lon="2.29713">
        <ele>63.75931</ele>
        <time>2026-07-19T10:01:26.511Z</time>
      </trkpt>
      <trkpt lat="48.82973" lon="2.2971">
        <ele>63.76559</ele>
        <time>2026-07-19T10:01:28.510Z</time>
      </trkpt>
      <trkpt lat="48.82974" lon="2.29707">
        <ele>63.77083</ele>
        <time>2026-07-19T10:01:30.510Z</time>
      </trkpt>
      <trkpt lat="48.82975" lon="2.29703">
        <ele>63.77573</ele>
        <time>2026-07-19T10:01:32.510Z</time>
      </trkpt>
      <trkpt lat="48.82975" lon="2.29699">
        <ele>63.785</ele>
        <time>2026-07-19T10:01:34.511Z</time>
      </trkpt>
      <trkpt lat="48.82975" lon="2.29695">
        <ele>63.80135</ele>
        <time>2026-07-19T10:01:37.511Z</time>
      </trkpt>
      <trkpt lat="48.82975" lon="2.29691">
        <ele>63.81316</ele>
        <time>2026-07-19T10:01:40.511Z</time>
      </trkpt>
      <trkpt lat="48.82976" lon="2.29687">
        <ele>63.82188</ele>
        <time>2026-07-19T10:01:43.511Z</time>
      </trkpt>
      <trkpt lat="48.82977" lon="2.29683">
        <ele>63.82758</ele>
        <time>2026-07-19T10:01:45.511Z</time>
      </trkpt>
      <trkpt lat="48.82978" lon="2.2968">
        <ele>63.83457</ele>
        <time>2026-07-19T10:01:47.512Z</time>
      </trkpt>
      <trkpt lat="48.82979" lon="2.29676">
        <ele>63.84104</ele>
        <time>2026-07-19T10:01:49.513Z</time>
      </trkpt>
      <trkpt lat="48.82979" lon="2.29673">
        <ele>63.84612</ele>
        <time>2026-07-19T10:01:51.511Z</time>
      </trkpt>
      <trkpt lat="48.8298" lon="2.29669">
        <ele>63.84841</ele>
        <time>2026-07-19T10:01:53.511Z</time>
      </trkpt>
      <trkpt lat="48.8298" lon="2.29664">
        <ele>63.84732</ele>
        <time>2026-07-19T10:01:56.511Z</time>
      </trkpt>
      <trkpt lat="48.82981" lon="2.2966">
        <ele>63.84666</ele>
        <time>2026-07-19T10:01:58.511Z</time>
      </trkpt>
      <trkpt lat="48.82982" lon="2.29657">
        <ele>63.84576</ele>
        <time>2026-07-19T10:02:00.511Z</time>
      </trkpt>
      <trkpt lat="48.82984" lon="2.29653">
        <ele>63.84576</ele>
        <time>2026-07-19T10:02:02.511Z</time>
      </trkpt>
      <trkpt lat="48.82985" lon="2.29649">
        <ele>63.84811</ele>
        <time>2026-07-19T10:02:05.511Z</time>
      </trkpt>
      <trkpt lat="48.82986" lon="2.29645">
        <ele>63.84935</ele>
        <time>2026-07-19T10:02:08.511Z</time>
      </trkpt>
      <trkpt lat="48.82987" lon="2.29641">
        <ele>63.85014</ele>
        <time>2026-07-19T10:02:10.511Z</time>
      </trkpt>
      <trkpt lat="48.82988" lon="2.29638">
        <ele>63.85062</ele>
        <time>2026-07-19T10:02:12.512Z</time>
      </trkpt>
      <trkpt lat="48.82989" lon="2.29634">
        <ele>63.85163</ele>
        <time>2026-07-19T10:02:14.511Z</time>
      </trkpt>
      <trkpt lat="48.82989" lon="2.29631">
        <ele>63.85281</ele>
        <time>2026-07-19T10:02:16.512Z</time>
      </trkpt>
      <trkpt lat="48.8299" lon="2.29626">
        <ele>63.85529</ele>
        <time>2026-07-19T10:02:19.511Z</time>
      </trkpt>
      <trkpt lat="48.8299" lon="2.29622">
        <ele>63.85836</ele>
        <time>2026-07-19T10:02:21.512Z</time>
      </trkpt>
      <trkpt lat="48.82991" lon="2.29618">
        <ele>63.86374</ele>
        <time>2026-07-19T10:02:23.511Z</time>
      </trkpt>
      <trkpt lat="48.82991" lon="2.29614">
        <ele>63.87492</ele>
        <time>2026-07-19T10:02:25.512Z</time>
      </trkpt>
      <trkpt lat="48.82992" lon="2.29609">
        <ele>63.91362</ele>
        <time>2026-07-19T10:02:28.511Z</time>
      </trkpt>
      <trkpt lat="48.82993" lon="2.29605">
        <ele>63.99387</ele>
        <time>2026-07-19T10:02:31.512Z</time>
      </trkpt>
      <trkpt lat="48.82995" lon="2.29601">
        <ele>64.07288</ele>
        <time>2026-07-19T10:02:34.512Z</time>
      </trkpt>
      <trkpt lat="48.82996" lon="2.29597">
        <ele>64.14612</ele>
        <time>2026-07-19T10:02:38.511Z</time>
      </trkpt>
      <trkpt lat="48.82998" lon="2.29593">
        <ele>64.16787</ele>
        <time>2026-07-19T10:02:41.513Z</time>
      </trkpt>
      <trkpt lat="48.82999" lon="2.2959">
        <ele>64.16471</ele>
        <time>2026-07-19T10:02:44.512Z</time>
      </trkpt>
      <trkpt lat="48.83" lon="2.29586">
        <ele>64.15646</ele>
        <time>2026-07-19T10:02:46.512Z</time>
      </trkpt>
      <trkpt lat="48.83001" lon="2.29582">
        <ele>64.13596</ele>
        <time>2026-07-19T10:02:49.512Z</time>
      </trkpt>
      <trkpt lat="48.83002" lon="2.29577">
        <ele>64.11023</ele>
        <time>2026-07-19T10:02:52.512Z</time>
      </trkpt>
      <trkpt lat="48.83003" lon="2.29573">
        <ele>64.0823</ele>
        <time>2026-07-19T10:02:55.512Z</time>
      </trkpt>
      <trkpt lat="48.83004" lon="2.29569">
        <ele>64.04794</ele>
        <time>2026-07-19T10:02:58.512Z</time>
      </trkpt>
      <trkpt lat="48.83006" lon="2.29566">
        <ele>64.02277</ele>
        <time>2026-07-19T10:03:00.513Z</time>
      </trkpt>
      <trkpt lat="48.83007" lon="2.29563">
        <ele>63.99362</ele>
        <time>2026-07-19T10:03:02.513Z</time>
      </trkpt>
      <trkpt lat="48.83009" lon="2.2956">
        <ele>63.94808</ele>
        <time>2026-07-19T10:03:05.512Z</time>
      </trkpt>
      <trkpt lat="48.8301" lon="2.29556">
        <ele>63.89255</ele>
        <time>2026-07-19T10:03:08.512Z</time>
      </trkpt>
      <trkpt lat="48.83012" lon="2.29552">
        <ele>63.81192</ele>
        <time>2026-07-19T10:03:11.512Z</time>
      </trkpt>
      <trkpt lat="48.83013" lon="2.29548">
        <ele>63.72918</ele>
        <time>2026-07-19T10:03:14.512Z</time>
      </trkpt>
      <trkpt lat="48.83014" lon="2.29544">
        <ele>63.65689</ele>
        <time>2026-07-19T10:03:17.513Z</time>
      </trkpt>
      <trkpt lat="48.83015" lon="2.29541">
        <ele>63.58201</ele>
        <time>2026-07-19T10:03:20.513Z</time>
      </trkpt>
      <trkpt lat="48.83016" lon="2.29535">
        <ele>63.52645</ele>
        <time>2026-07-19T10:03:23.512Z</time>
      </trkpt>
      <trkpt lat="48.83017" lon="2.29531">
        <ele>63.51839</ele>
        <time>2026-07-19T10:03:25.512Z</time>
      </trkpt>
      <trkpt lat="48.83017" lon="2.29527">
        <ele>63.51822</ele>
        <time>2026-07-19T10:03:27.513Z</time>
      </trkpt>
      <trkpt lat="48.83018" lon="2.29523">
        <ele>63.52945</ele>
        <time>2026-07-19T10:03:29.513Z</time>
      </trkpt>
      <trkpt lat="48.83019" lon="2.29518">
        <ele>63.54654</ele>
        <time>2026-07-19T10:03:32.513Z</time>
      </trkpt>
      <trkpt lat="48.8302" lon="2.29515">
        <ele>63.56139</ele>
        <time>2026-07-19T10:03:34.513Z</time>
      </trkpt>
      <trkpt lat="48.83022" lon="2.29511">
        <ele>63.56771</ele>
        <time>2026-07-19T10:03:36.513Z</time>
      </trkpt>
      <trkpt lat="48.83022" lon="2.29508">
        <ele>63.56812</ele>
        <time>2026-07-19T10:03:39.513Z</time>
      </trkpt>
      <trkpt lat="48.83023" lon="2.29504">
        <ele>63.56891</ele>
        <time>2026-07-19T10:03:41.513Z</time>
      </trkpt>
      <trkpt lat="48.83025" lon="2.29502">
        <ele>63.55865</ele>
        <time>2026-07-19T10:03:44.513Z</time>
      </trkpt>
      <trkpt lat="48.83027" lon="2.29499">
        <ele>63.54955</ele>
        <time>2026-07-19T10:03:46.513Z</time>
      </trkpt>
      <trkpt lat="48.83028" lon="2.29496">
        <ele>63.53086</ele>
        <time>2026-07-19T10:03:49.513Z</time>
      </trkpt>
      <trkpt lat="48.8303" lon="2.29493">
        <ele>63.50964</ele>
        <time>2026-07-19T10:03:52.514Z</time>
      </trkpt>
      <trkpt lat="48.83031" lon="2.29489">
        <ele>63.48883</ele>
        <time>2026-07-19T10:03:55.513Z</time>
      </trkpt>
      <trkpt lat="48.83033" lon="2.29485">
        <ele>63.48048</ele>
        <time>2026-07-19T10:03:58.514Z</time>
      </trkpt>
      <trkpt lat="48.83033" lon="2.29481">
        <ele>63.47709</ele>
        <time>2026-07-19T10:04:01.514Z</time>
      </trkpt>
      <trkpt lat="48.83035" lon="2.29479">
        <ele>63.47121</ele>
        <time>2026-07-19T10:04:04.514Z</time>
      </trkpt>
      <trkpt lat="48.83036" lon="2.29476">
        <ele>63.46205</ele>
        <time>2026-07-19T10:04:07.514Z</time>
      </trkpt>
      <trkpt lat="48.83038" lon="2.29471">
        <ele>63.45535</ele>
        <time>2026-07-19T10:04:10.514Z</time>
      </trkpt>
      <trkpt lat="48.83039" lon="2.29466">
        <ele>63.45204</ele>
        <time>2026-07-19T10:04:13.513Z</time>
      </trkpt>
      <trkpt lat="48.83039" lon="2.29462">
        <ele>63.45558</ele>
        <time>2026-07-19T10:04:21.514Z</time>
      </trkpt>
      <trkpt lat="48.8304" lon="2.29458">
        <ele>63.46205</ele>
        <time>2026-07-19T10:04:23.514Z</time>
      </trkpt>
      <trkpt lat="48.83041" lon="2.29454">
        <ele>63.476</ele>
        <time>2026-07-19T10:04:26.514Z</time>
      </trkpt>
      <trkpt lat="48.83042" lon="2.29449">
        <ele>63.49076</ele>
        <time>2026-07-19T10:04:29.514Z</time>
      </trkpt>
      <trkpt lat="48.83043" lon="2.29446">
        <ele>63.50358</ele>
        <time>2026-07-19T10:04:31.514Z</time>
      </trkpt>
      <trkpt lat="48.83044" lon="2.29443">
        <ele>63.5159</ele>
        <time>2026-07-19T10:04:33.514Z</time>
      </trkpt>
      <trkpt lat="48.83046" lon="2.29439">
        <ele>63.53323</ele>
        <time>2026-07-19T10:04:36.514Z</time>
      </trkpt>
      <trkpt lat="48.83047" lon="2.29436">
        <ele>63.5398</ele>
        <time>2026-07-19T10:04:38.515Z</time>
      </trkpt>
      <trkpt lat="48.83047" lon="2.29432">
        <ele>63.54348</ele>
        <time>2026-07-19T10:04:41.514Z</time>
      </trkpt>
      <trkpt lat="48.83048" lon="2.29428">
        <ele>63.54643</ele>
        <time>2026-07-19T10:04:43.515Z</time>
      </trkpt>
      <trkpt lat="48.83048" lon="2.29424">
        <ele>63.55072</ele>
        <time>2026-07-19T10:04:46.515Z</time>
      </trkpt>
      <trkpt lat="48.83049" lon="2.2942">
        <ele>63.54901</ele>
        <time>2026-07-19T10:04:49.515Z</time>
      </trkpt>
      <trkpt lat="48.8305" lon="2.29416">
        <ele>63.5473</ele>
        <time>2026-07-19T10:04:51.515Z</time>
      </trkpt>
      <trkpt lat="48.83051" lon="2.29413">
        <ele>63.54642</ele>
        <time>2026-07-19T10:04:54.516Z</time>
      </trkpt>
      <trkpt lat="48.83052" lon="2.29409">
        <ele>63.54914</ele>
        <time>2026-07-19T10:04:57.515Z</time>
      </trkpt>
      <trkpt lat="48.83054" lon="2.29406">
        <ele>63.54978</ele>
        <time>2026-07-19T10:04:59.515Z</time>
      </trkpt>
      <trkpt lat="48.83055" lon="2.29402">
        <ele>63.54983</ele>
        <time>2026-07-19T10:05:02.515Z</time>
      </trkpt>
      <trkpt lat="48.83057" lon="2.29399">
        <ele>63.54857</ele>
        <time>2026-07-19T10:05:04.515Z</time>
      </trkpt>
      <trkpt lat="48.83058" lon="2.29395">
        <ele>63.54802</ele>
        <time>2026-07-19T10:05:06.515Z</time>
      </trkpt>
      <trkpt lat="48.8306" lon="2.29391">
        <ele>63.54723</ele>
        <time>2026-07-19T10:05:08.515Z</time>
      </trkpt>
      <trkpt lat="48.83062" lon="2.29391">
        <ele>63.53989</ele>
        <time>2026-07-19T10:05:10.515Z</time>
      </trkpt>
      <trkpt lat="48.83064" lon="2.29388">
        <ele>63.50484</ele>
        <time>2026-07-19T10:05:13.515Z</time>
      </trkpt>
      <trkpt lat="48.83065" lon="2.29385">
        <ele>63.39599</ele>
        <time>2026-07-19T10:05:16.516Z</time>
      </trkpt>
      <trkpt lat="48.83065" lon="2.29381">
        <ele>63.1694</ele>
        <time>2026-07-19T10:05:20.515Z</time>
      </trkpt>
      <trkpt lat="48.83066" lon="2.29376">
        <ele>62.9978</ele>
        <time>2026-07-19T10:05:23.515Z</time>
      </trkpt>
      <trkpt lat="48.83066" lon="2.29373">
        <ele>62.84549</ele>
        <time>2026-07-19T10:05:26.515Z</time>
      </trkpt>
      <trkpt lat="48.83067" lon="2.29368">
        <ele>62.73814</ele>
        <time>2026-07-19T10:05:29.516Z</time>
      </trkpt>
      <trkpt lat="48.83068" lon="2.29364">
        <ele>62.6892</ele>
        <time>2026-07-19T10:05:31.515Z</time>
      </trkpt>
      <trkpt lat="48.83069" lon="2.29361">
        <ele>62.65446</ele>
        <time>2026-07-19T10:05:33.516Z</time>
      </trkpt>
      <trkpt lat="48.8307" lon="2.29357">
        <ele>62.64546</ele>
        <time>2026-07-19T10:05:35.515Z</time>
      </trkpt>
      <trkpt lat="48.83071" lon="2.29354">
        <ele>62.64272</ele>
        <time>2026-07-19T10:05:37.516Z</time>
      </trkpt>
      <trkpt lat="48.83073" lon="2.2935">
        <ele>62.63049</ele>
        <time>2026-07-19T10:05:40.515Z</time>
      </trkpt>
      <trkpt lat="48.83074" lon="2.29346">
        <ele>62.62434</ele>
        <time>2026-07-19T10:05:43.516Z</time>
      </trkpt>
      <trkpt lat="48.83075" lon="2.29342">
        <ele>62.61092</ele>
        <time>2026-07-19T10:05:46.516Z</time>
      </trkpt>
      <trkpt lat="48.83077" lon="2.29339">
        <ele>62.59677</ele>
        <time>2026-07-19T10:05:48.517Z</time>
      </trkpt>
      <trkpt lat="48.83078" lon="2.29335">
        <ele>62.58415</ele>
        <time>2026-07-19T10:05:50.517Z</time>
      </trkpt>
      <trkpt lat="48.83079" lon="2.29331">
        <ele>62.56689</ele>
        <time>2026-07-19T10:05:53.516Z</time>
      </trkpt>
      <trkpt lat="48.83081" lon="2.29327">
        <ele>62.54149</ele>
        <time>2026-07-19T10:05:56.516Z</time>
      </trkpt>
      <trkpt lat="48.83083" lon="2.29323">
        <ele>62.51957</ele>
        <time>2026-07-19T10:05:59.517Z</time>
      </trkpt>
      <trkpt lat="48.83086" lon="2.29321">
        <ele>62.50271</ele>
        <time>2026-07-19T10:06:01.517Z</time>
      </trkpt>
      <trkpt lat="48.83087" lon="2.29318">
        <ele>62.48823</ele>
        <time>2026-07-19T10:06:03.517Z</time>
      </trkpt>
      <trkpt lat="48.83088" lon="2.29315">
        <ele>62.47838</ele>
        <time>2026-07-19T10:06:05.516Z</time>
      </trkpt>
      <trkpt lat="48.83088" lon="2.29311">
        <ele>62.47071</ele>
        <time>2026-07-19T10:06:07.516Z</time>
      </trkpt>
      <trkpt lat="48.83089" lon="2.29308">
        <ele>62.46477</ele>
        <time>2026-07-19T10:06:09.517Z</time>
      </trkpt>
      <trkpt lat="48.8309" lon="2.29305">
        <ele>62.45954</ele>
        <time>2026-07-19T10:06:11.516Z</time>
      </trkpt>
      <trkpt lat="48.8309" lon="2.29301">
        <ele>62.45456</ele>
        <time>2026-07-19T10:06:14.516Z</time>
      </trkpt>
      <trkpt lat="48.8309" lon="2.29297">
        <ele>62.45517</ele>
        <time>2026-07-19T10:06:16.517Z</time>
      </trkpt>
      <trkpt lat="48.83091" lon="2.29294">
        <ele>62.45494</ele>
        <time>2026-07-19T10:06:19.516Z</time>
      </trkpt>
      <trkpt lat="48.83092" lon="2.2929">
        <ele>62.45616</ele>
        <time>2026-07-19T10:06:21.517Z</time>
      </trkpt>
      <trkpt lat="48.83093" lon="2.29286">
        <ele>62.45587</ele>
        <time>2026-07-19T10:06:24.517Z</time>
      </trkpt>
      <trkpt lat="48.83094" lon="2.29282">
        <ele>62.45267</ele>
        <time>2026-07-19T10:06:27.517Z</time>
      </trkpt>
      <trkpt lat="48.83096" lon="2.29279">
        <ele>62.45157</ele>
        <time>2026-07-19T10:06:29.517Z</time>
      </trkpt>
      <trkpt lat="48.83098" lon="2.29276">
        <ele>62.44908</ele>
        <time>2026-07-19T10:06:32.518Z</time>
      </trkpt>
      <trkpt lat="48.83099" lon="2.29272">
        <ele>62.44841</ele>
        <time>2026-07-19T10:06:34.517Z</time>
      </trkpt>
      <trkpt lat="48.831" lon="2.29268">
        <ele>62.44638</ele>
        <time>2026-07-19T10:06:37.517Z</time>
      </trkpt>
      <trkpt lat="48.83102" lon="2.29264">
        <ele>62.43675</ele>
        <time>2026-07-19T10:06:40.517Z</time>
      </trkpt>
      <trkpt lat="48.83103" lon="2.2926">
        <ele>62.41732</ele>
        <time>2026-07-19T10:06:43.518Z</time>
      </trkpt>
      <trkpt lat="48.83103" lon="2.29256">
        <ele>62.38743</ele>
        <time>2026-07-19T10:06:46.517Z</time>
      </trkpt>
      <trkpt lat="48.83104" lon="2.29252">
        <ele>62.34769</ele>
        <time>2026-07-19T10:06:49.517Z</time>
      </trkpt>
      <trkpt lat="48.83106" lon="2.29249">
        <ele>62.30298</ele>
        <time>2026-07-19T10:06:52.517Z</time>
      </trkpt>
      <trkpt lat="48.83107" lon="2.29245">
        <ele>62.18912</ele>
        <time>2026-07-19T10:06:56.518Z</time>
      </trkpt>
      <trkpt lat="48.83109" lon="2.29243">
        <ele>59.46693</ele>
        <time>2026-07-19T10:07:19.518Z</time>
      </trkpt>
      <trkpt lat="48.83111" lon="2.2924">
        <ele>59.27902</ele>
        <time>2026-07-19T10:07:22.519Z</time>
      </trkpt>
      <trkpt lat="48.83113" lon="2.29238">
        <ele>59.14027</ele>
        <time>2026-07-19T10:07:24.519Z</time>
      </trkpt>
      <trkpt lat="48.83115" lon="2.29234">
        <ele>58.93976</ele>
        <time>2026-07-19T10:07:27.518Z</time>
      </trkpt>
      <trkpt lat="48.83116" lon="2.29231">
        <ele>58.8092</ele>
        <time>2026-07-19T10:07:29.519Z</time>
      </trkpt>
      <trkpt lat="48.83117" lon="2.29228">
        <ele>58.67526</ele>
        <time>2026-07-19T10:07:31.519Z</time>
      </trkpt>
      <trkpt lat="48.8312" lon="2.29224">
        <ele>58.46324</ele>
        <time>2026-07-19T10:07:34.519Z</time>
      </trkpt>
      <trkpt lat="48.83121" lon="2.29222">
        <ele>58.32476</ele>
        <time>2026-07-19T10:07:36.519Z</time>
      </trkpt>
      <trkpt lat="48.83123" lon="2.29218">
        <ele>58.20159</ele>
        <time>2026-07-19T10:07:38.519Z</time>
      </trkpt>
      <trkpt lat="48.83125" lon="2.29216">
        <ele>58.08849</ele>
        <time>2026-07-19T10:07:40.519Z</time>
      </trkpt>
      <trkpt lat="48.83126" lon="2.29212">
        <ele>57.97391</ele>
        <time>2026-07-19T10:07:42.519Z</time>
      </trkpt>
      <trkpt lat="48.83128" lon="2.29208">
        <ele>57.73485</ele>
        <time>2026-07-19T10:07:45.519Z</time>
      </trkpt>
      <trkpt lat="48.83129" lon="2.29204">
        <ele>57.43577</ele>
        <time>2026-07-19T10:07:48.519Z</time>
      </trkpt>
      <trkpt lat="48.8313" lon="2.29199">
        <ele>57.13407</ele>
        <time>2026-07-19T10:07:51.519Z</time>
      </trkpt>
      <trkpt lat="48.83132" lon="2.29195">
        <ele>56.9227</ele>
        <time>2026-07-19T10:07:54.519Z</time>
      </trkpt>
      <trkpt lat="48.83133" lon="2.29192">
        <ele>56.7955</ele>
        <time>2026-07-19T10:07:56.519Z</time>
      </trkpt>
      <trkpt lat="48.83133" lon="2.29188">
        <ele>56.686</ele>
        <time>2026-07-19T10:07:58.518Z</time>
      </trkpt>
      <trkpt lat="48.83134" lon="2.29183">
        <ele>56.57622</ele>
        <time>2026-07-19T10:08:01.519Z</time>
      </trkpt>
      <trkpt lat="48.83135" lon="2.29178">
        <ele>56.4837</ele>
        <time>2026-07-19T10:08:04.519Z</time>
      </trkpt>
      <trkpt lat="48.83136" lon="2.29174">
        <ele>56.40946</ele>
        <time>2026-07-19T10:08:07.519Z</time>
      </trkpt>
      <trkpt lat="48.83138" lon="2.2917">
        <ele>56.32748</ele>
        <time>2026-07-19T10:08:10.519Z</time>
      </trkpt>
      <trkpt lat="48.83139" lon="2.29167">
        <ele>56.2797</ele>
        <time>2026-07-19T10:08:12.519Z</time>
      </trkpt>
      <trkpt lat="48.8314" lon="2.29162">
        <ele>56.2276</ele>
        <time>2026-07-19T10:08:15.519Z</time>
      </trkpt>
      <trkpt lat="48.83141" lon="2.29159">
        <ele>56.21058</ele>
        <time>2026-07-19T10:08:18.520Z</time>
      </trkpt>
      <trkpt lat="48.83142" lon="2.29154">
        <ele>56.19864</ele>
        <time>2026-07-19T10:08:21.519Z</time>
      </trkpt>
      <trkpt lat="48.83143" lon="2.29149">
        <ele>56.195</ele>
        <time>2026-07-19T10:08:24.520Z</time>
      </trkpt>
      <trkpt lat="48.83145" lon="2.29146">
        <ele>56.1931</ele>
        <time>2026-07-19T10:08:26.520Z</time>
      </trkpt>
      <trkpt lat="48.83147" lon="2.29143">
        <ele>56.18013</ele>
        <time>2026-07-19T10:08:29.520Z</time>
      </trkpt>
      <trkpt lat="48.83149" lon="2.29141">
        <ele>56.16236</ele>
        <time>2026-07-19T10:08:31.519Z</time>
      </trkpt>
      <trkpt lat="48.8315" lon="2.29138">
        <ele>56.14223</ele>
        <time>2026-07-19T10:08:33.520Z</time>
      </trkpt>
      <trkpt lat="48.83152" lon="2.29134">
        <ele>56.1003</ele>
        <time>2026-07-19T10:08:36.520Z</time>
      </trkpt>
      <trkpt lat="48.83153" lon="2.29131">
        <ele>56.0583</ele>
        <time>2026-07-19T10:08:38.520Z</time>
      </trkpt>
      <trkpt lat="48.83155" lon="2.29127">
        <ele>55.95265</ele>
        <time>2026-07-19T10:08:41.520Z</time>
      </trkpt>
      <trkpt lat="48.83157" lon="2.29123">
        <ele>55.80297</ele>
        <time>2026-07-19T10:08:44.519Z</time>
      </trkpt>
      <trkpt lat="48.83158" lon="2.2912">
        <ele>55.68142</ele>
        <time>2026-07-19T10:08:46.520Z</time>
      </trkpt>
      <trkpt lat="48.83159" lon="2.29117">
        <ele>55.56493</ele>
        <time>2026-07-19T10:08:48.520Z</time>
      </trkpt>
      <trkpt lat="48.8316" lon="2.29114">
        <ele>55.44587</ele>
        <time>2026-07-19T10:08:50.520Z</time>
      </trkpt>
      <trkpt lat="48.83161" lon="2.2911">
        <ele>55.2657</ele>
        <time>2026-07-19T10:08:53.520Z</time>
      </trkpt>
      <trkpt lat="48.83163" lon="2.29106">
        <ele>55.06605</ele>
        <time>2026-07-19T10:08:56.520Z</time>
      </trkpt>
      <trkpt lat="48.83164" lon="2.29102">
        <ele>54.83715</ele>
        <time>2026-07-19T10:08:59.521Z</time>
      </trkpt>
      <trkpt lat="48.83166" lon="2.29098">
        <ele>54.59464</ele>
        <time>2026-07-19T10:09:02.520Z</time>
      </trkpt>
      <trkpt lat="48.83168" lon="2.29094">
        <ele>54.29726</ele>
        <time>2026-07-19T10:09:05.521Z</time>
      </trkpt>
      <trkpt lat="48.83169" lon="2.29091">
        <ele>54.00278</ele>
        <time>2026-07-19T10:09:08.521Z</time>
      </trkpt>
      <trkpt lat="48.83171" lon="2.29087">
        <ele>53.74517</ele>
        <time>2026-07-19T10:09:11.521Z</time>
      </trkpt>
      <trkpt lat="48.83173" lon="2.29084">
        <ele>53.57589</ele>
        <time>2026-07-19T10:09:13.521Z</time>
      </trkpt>
      <trkpt lat="48.83174" lon="2.29081">
        <ele>53.42513</ele>
        <time>2026-07-19T10:09:15.521Z</time>
      </trkpt>
      <trkpt lat="48.83176" lon="2.29078">
        <ele>53.16999</ele>
        <time>2026-07-19T10:09:18.521Z</time>
      </trkpt>
      <trkpt lat="48.83178" lon="2.29075">
        <ele>52.98016</ele>
        <time>2026-07-19T10:09:20.521Z</time>
      </trkpt>
      <trkpt lat="48.83179" lon="2.29071">
        <ele>52.70765</ele>
        <time>2026-07-19T10:09:23.521Z</time>
      </trkpt>
      <trkpt lat="48.83181" lon="2.29068">
        <ele>52.56817</ele>
        <time>2026-07-19T10:09:25.521Z</time>
      </trkpt>
      <trkpt lat="48.83182" lon="2.29065">
        <ele>52.45838</ele>
        <time>2026-07-19T10:09:27.521Z</time>
      </trkpt>
      <trkpt lat="48.83183" lon="2.29061">
        <ele>52.36304</ele>
        <time>2026-07-19T10:09:29.521Z</time>
      </trkpt>
      <trkpt lat="48.83184" lon="2.29057">
        <ele>52.27957</ele>
        <time>2026-07-19T10:09:31.521Z</time>
      </trkpt>
      <trkpt lat="48.83186" lon="2.29054">
        <ele>52.13933</ele>
        <time>2026-07-19T10:09:34.521Z</time>
      </trkpt>
      <trkpt lat="48.83188" lon="2.29051">
        <ele>52.04869</ele>
        <time>2026-07-19T10:09:36.521Z</time>
      </trkpt>
      <trkpt lat="48.83189" lon="2.29048">
        <ele>51.96619</ele>
        <time>2026-07-19T10:09:38.521Z</time>
      </trkpt>
      <trkpt lat="48.83191" lon="2.29044">
        <ele>51.83821</ele>
        <time>2026-07-19T10:09:41.522Z</time>
      </trkpt>
      <trkpt lat="48.83192" lon="2.29039">
        <ele>51.68268</ele>
        <time>2026-07-19T10:09:44.521Z</time>
      </trkpt>
      <trkpt lat="48.83193" lon="2.29035">
        <ele>51.50681</ele>
        <time>2026-07-19T10:09:47.522Z</time>
      </trkpt>
      <trkpt lat="48.83195" lon="2.29032">
        <ele>51.28615</ele>
        <time>2026-07-19T10:09:50.522Z</time>
      </trkpt>
      <trkpt lat="48.83196" lon="2.29029">
        <ele>51.11753</ele>
        <time>2026-07-19T10:09:52.522Z</time>
      </trkpt>
      <trkpt lat="48.83198" lon="2.29025">
        <ele>50.868</ele>
        <time>2026-07-19T10:09:55.522Z</time>
      </trkpt>
      <trkpt lat="48.832" lon="2.29022">
        <ele>50.62741</ele>
        <time>2026-07-19T10:09:58.521Z</time>
      </trkpt>
      <trkpt lat="48.83201" lon="2.29018">
        <ele>50.41327</ele>
        <time>2026-07-19T10:10:01.522Z</time>
      </trkpt>
      <trkpt lat="48.83202" lon="2.29015">
        <ele>50.27169</ele>
        <time>2026-07-19T10:10:03.522Z</time>
      </trkpt>
      <trkpt lat="48.83204" lon="2.29012">
        <ele>50.06073</ele>
        <time>2026-07-19T10:10:06.521Z</time>
      </trkpt>
      <trkpt lat="48.83205" lon="2.29008">
        <ele>49.915</ele>
        <time>2026-07-19T10:10:08.522Z</time>
      </trkpt>
      <trkpt lat="48.83206" lon="2.29005">
        <ele>49.76336</ele>
        <time>2026-07-19T10:10:10.522Z</time>
      </trkpt>
      <trkpt lat="48.83208" lon="2.29002">
        <ele>49.48857</ele>
        <time>2026-07-19T10:10:13.522Z</time>
      </trkpt>
      <trkpt lat="48.83209" lon="2.28998">
        <ele>49.16168</ele>
        <time>2026-07-19T10:10:16.523Z</time>
      </trkpt>
      <trkpt lat="48.83211" lon="2.28996">
        <ele>48.88105</ele>
        <time>2026-07-19T10:10:19.522Z</time>
      </trkpt>
      <trkpt lat="48.83214" lon="2.28993">
        <ele>48.64187</ele>
        <time>2026-07-19T10:10:22.523Z</time>
      </trkpt>
      <trkpt lat="48.83216" lon="2.28991">
        <ele>48.48499</ele>
        <time>2026-07-19T10:10:24.522Z</time>
      </trkpt>
      <trkpt lat="48.83217" lon="2.28986">
        <ele>48.28121</ele>
        <time>2026-07-19T10:10:27.522Z</time>
      </trkpt>
      <trkpt lat="48.83219" lon="2.28983">
        <ele>48.06906</ele>
        <time>2026-07-19T10:10:30.523Z</time>
      </trkpt>
      <trkpt lat="48.83221" lon="2.2898">
        <ele>47.88541</ele>
        <time>2026-07-19T10:10:33.523Z</time>
      </trkpt>
      <trkpt lat="48.83223" lon="2.28975">
        <ele>47.69284</ele>
        <time>2026-07-19T10:10:36.523Z</time>
      </trkpt>
      <trkpt lat="48.83224" lon="2.28972">
        <ele>47.5155</ele>
        <time>2026-07-19T10:10:39.523Z</time>
      </trkpt>
      <trkpt lat="48.83226" lon="2.28969">
        <ele>47.38313</ele>
        <time>2026-07-19T10:10:42.522Z</time>
      </trkpt>
      <trkpt lat="48.83227" lon="2.28965">
        <ele>47.30512</ele>
        <time>2026-07-19T10:10:45.522Z</time>
      </trkpt>
      <trkpt lat="48.83229" lon="2.28961">
        <ele>47.26875</ele>
        <time>2026-07-19T10:10:47.522Z</time>
      </trkpt>
      <trkpt lat="48.8323" lon="2.28958">
        <ele>47.21753</ele>
        <time>2026-07-19T10:10:50.523Z</time>
      </trkpt>
      <trkpt lat="48.83231" lon="2.28955">
        <ele>47.12801</ele>
        <time>2026-07-19T10:10:53.523Z</time>
      </trkpt>
      <trkpt lat="48.83233" lon="2.28951">
        <ele>47.0742</ele>
        <time>2026-07-19T10:10:55.523Z</time>
      </trkpt>
      <trkpt lat="48.83234" lon="2.28947">
        <ele>47.00282</ele>
        <time>2026-07-19T10:10:58.523Z</time>
      </trkpt>
      <trkpt lat="48.83235" lon="2.28944">
        <ele>46.96895</ele>
        <time>2026-07-19T10:11:00.522Z</time>
      </trkpt>
      <trkpt lat="48.83237" lon="2.2894">
        <ele>46.92363</ele>
        <time>2026-07-19T10:11:03.523Z</time>
      </trkpt>
      <trkpt lat="48.83238" lon="2.28937">
        <ele>46.85464</ele>
        <time>2026-07-19T10:11:07.523Z</time>
      </trkpt>
      <trkpt lat="48.83241" lon="2.28933">
        <ele>46.7893</ele>
        <time>2026-07-19T10:11:10.523Z</time>
      </trkpt>
      <trkpt lat="48.83242" lon="2.28929">
        <ele>46.64966</ele>
        <time>2026-07-19T10:11:14.523Z</time>
      </trkpt>
      <trkpt lat="48.83245" lon="2.28927">
        <ele>46.46032</ele>
        <time>2026-07-19T10:11:17.523Z</time>
      </trkpt>
      <trkpt lat="48.83247" lon="2.28924">
        <ele>46.20874</ele>
        <time>2026-07-19T10:11:20.523Z</time>
      </trkpt>
      <trkpt lat="48.83249" lon="2.28921">
        <ele>45.92671</ele>
        <time>2026-07-19T10:11:23.523Z</time>
      </trkpt>
      <trkpt lat="48.83251" lon="2.28918">
        <ele>45.56809</ele>
        <time>2026-07-19T10:11:27.523Z</time>
      </trkpt>
      <trkpt lat="48.83252" lon="2.28915">
        <ele>45.26118</ele>
        <time>2026-07-19T10:11:30.524Z</time>
      </trkpt>
      <trkpt lat="48.83253" lon="2.28912">
        <ele>44.87639</ele>
        <time>2026-07-19T10:11:33.524Z</time>
      </trkpt>
      <trkpt lat="48.83253" lon="2.28908">
        <ele>44.436</ele>
        <time>2026-07-19T10:11:36.524Z</time>
      </trkpt>
      <trkpt lat="48.83254" lon="2.28904">
        <ele>43.97234</ele>
        <time>2026-07-19T10:11:39.523Z</time>
      </trkpt>
      <trkpt lat="48.83256" lon="2.289">
        <ele>43.26208</ele>
        <time>2026-07-19T10:11:43.524Z</time>
      </trkpt>
      <trkpt lat="48.83258" lon="2.28897">
        <ele>42.7737</ele>
        <time>2026-07-19T10:11:46.524Z</time>
      </trkpt>
      <trkpt lat="48.83259" lon="2.28893">
        <ele>42.44072</ele>
        <time>2026-07-19T10:11:49.524Z</time>
      </trkpt>
      <trkpt lat="48.8326" lon="2.2889">
        <ele>42.1692</ele>
        <time>2026-07-19T10:11:52.524Z</time>
      </trkpt>
      <trkpt lat="48.83261" lon="2.28887">
        <ele>41.98818</ele>
        <time>2026-07-19T10:11:54.524Z</time>
      </trkpt>
      <trkpt lat="48.83263" lon="2.28884">
        <ele>41.80364</ele>
        <time>2026-07-19T10:11:56.524Z</time>
      </trkpt>
      <trkpt lat="48.83264" lon="2.28881">
        <ele>41.63484</ele>
        <time>2026-07-19T10:11:58.525Z</time>
      </trkpt>
      <trkpt lat="48.83265" lon="2.28876">
        <ele>41.43997</ele>
        <time>2026-07-19T10:12:01.524Z</time>
      </trkpt>
      <trkpt lat="48.83265" lon="2.28872">
        <ele>41.27288</ele>
        <time>2026-07-19T10:12:04.525Z</time>
      </trkpt>
      <trkpt lat="48.83265" lon="2.28869">
        <ele>41.19973</ele>
        <time>2026-07-19T10:12:06.525Z</time>
      </trkpt>
      <trkpt lat="48.83265" lon="2.28864">
        <ele>41.14162</ele>
        <time>2026-07-19T10:12:09.525Z</time>
      </trkpt>
      <trkpt lat="48.83268" lon="2.28861">
        <ele>41.05763</ele>
        <time>2026-07-19T10:12:12.525Z</time>
      </trkpt>
      <trkpt lat="48.8327" lon="2.2886">
        <ele>40.9808</ele>
        <time>2026-07-19T10:12:14.525Z</time>
      </trkpt>
      <trkpt lat="48.83272" lon="2.28859">
        <ele>40.83874</ele>
        <time>2026-07-19T10:12:17.524Z</time>
      </trkpt>
      <trkpt lat="48.83274" lon="2.28856">
        <ele>40.20788</ele>
        <time>2026-07-19T10:12:26.524Z</time>
      </trkpt>
      <trkpt lat="48.83276" lon="2.28853">
        <ele>39.30511</ele>
        <time>2026-07-19T10:12:43.525Z</time>
      </trkpt>
      <trkpt lat="48.83278" lon="2.28851">
        <ele>39.24233</ele>
        <time>2026-07-19T10:12:46.525Z</time>
      </trkpt>
      <trkpt lat="48.83279" lon="2.28847">
        <ele>39.17619</ele>
        <time>2026-07-19T10:12:49.525Z</time>
      </trkpt>
      <trkpt lat="48.83281" lon="2.28843">
        <ele>39.09269</ele>
        <time>2026-07-19T10:12:52.525Z</time>
      </trkpt>
      <trkpt lat="48.83283" lon="2.28839">
        <ele>38.97375</ele>
        <time>2026-07-19T10:12:55.525Z</time>
      </trkpt>
      <trkpt lat="48.83284" lon="2.28835">
        <ele>38.85065</ele>
        <time>2026-07-19T10:12:58.526Z</time>
      </trkpt>
      <trkpt lat="48.83286" lon="2.28831">
        <ele>38.67126</ele>
        <time>2026-07-19T10:13:02.525Z</time>
      </trkpt>
      <trkpt lat="48.83288" lon="2.28828">
        <ele>38.49869</ele>
        <time>2026-07-19T10:13:05.526Z</time>
      </trkpt>
      <trkpt lat="48.83289" lon="2.28824">
        <ele>38.32899</ele>
        <time>2026-07-19T10:13:08.526Z</time>
      </trkpt>
      <trkpt lat="48.8329" lon="2.28821">
        <ele>38.25924</ele>
        <time>2026-07-19T10:13:10.526Z</time>
      </trkpt>
      <trkpt lat="48.83291" lon="2.28816">
        <ele>38.16799</ele>
        <time>2026-07-19T10:13:13.526Z</time>
      </trkpt>
      <trkpt lat="48.83292" lon="2.28813">
        <ele>38.11492</ele>
        <time>2026-07-19T10:13:15.526Z</time>
      </trkpt>
      <trkpt lat="48.83294" lon="2.28809">
        <ele>38.0695</ele>
        <time>2026-07-19T10:13:18.525Z</time>
      </trkpt>
      <trkpt lat="48.83296" lon="2.28805">
        <ele>38.0451</ele>
        <time>2026-07-19T10:13:21.526Z</time>
      </trkpt>
      <trkpt lat="48.83297" lon="2.28801">
        <ele>38.03464</ele>
        <time>2026-07-19T10:13:24.526Z</time>
      </trkpt>
      <trkpt lat="48.83299" lon="2.28798">
        <ele>38.02505</ele>
        <time>2026-07-19T10:13:26.526Z</time>
      </trkpt>
      <trkpt lat="48.83301" lon="2.28795">
        <ele>38.02593</ele>
        <time>2026-07-19T10:13:28.526Z</time>
      </trkpt>
      <trkpt lat="48.83303" lon="2.28792">
        <ele>38.02974</ele>
        <time>2026-07-19T10:13:30.527Z</time>
      </trkpt>
      <trkpt lat="48.83305" lon="2.28789">
        <ele>38.03551</ele>
        <time>2026-07-19T10:13:33.526Z</time>
      </trkpt>
      <trkpt lat="48.83306" lon="2.28786">
        <ele>38.02822</ele>
        <time>2026-07-19T10:13:36.526Z</time>
      </trkpt>
      <trkpt lat="48.83308" lon="2.28782">
        <ele>38.0191</ele>
        <time>2026-07-19T10:13:39.527Z</time>
      </trkpt>
      <trkpt lat="48.8331" lon="2.28778">
        <ele>38.01673</ele>
        <time>2026-07-19T10:13:41.527Z</time>
      </trkpt>
      <trkpt lat="48.83312" lon="2.28775">
        <ele>38.01128</ele>
        <time>2026-07-19T10:13:44.529Z</time>
      </trkpt>
      <trkpt lat="48.83313" lon="2.2877">
        <ele>37.99879</ele>
        <time>2026-07-19T10:13:47.527Z</time>
      </trkpt>
      <trkpt lat="48.83314" lon="2.28767">
        <ele>37.98905</ele>
        <time>2026-07-19T10:13:49.526Z</time>
      </trkpt>
      <trkpt lat="48.83315" lon="2.28764">
        <ele>37.98029</ele>
        <time>2026-07-19T10:13:51.527Z</time>
      </trkpt>
      <trkpt lat="48.83317" lon="2.28759">
        <ele>37.96676</ele>
        <time>2026-07-19T10:13:54.527Z</time>
      </trkpt>
      <trkpt lat="48.83318" lon="2.28756">
        <ele>37.95901</ele>
        <time>2026-07-19T10:13:56.526Z</time>
      </trkpt>
      <trkpt lat="48.83319" lon="2.28753">
        <ele>37.9515</ele>
        <time>2026-07-19T10:13:58.527Z</time>
      </trkpt>
      <trkpt lat="48.8332" lon="2.2875">
        <ele>37.94404</ele>
        <time>2026-07-19T10:14:00.528Z</time>
      </trkpt>
      <trkpt lat="48.83321" lon="2.28746">
        <ele>37.93325</ele>
        <time>2026-07-19T10:14:03.528Z</time>
      </trkpt>
      <trkpt lat="48.83322" lon="2.28742">
        <ele>37.92067</ele>
        <time>2026-07-19T10:14:06.527Z</time>
      </trkpt>
      <trkpt lat="48.83323" lon="2.28738">
        <ele>37.90152</ele>
        <time>2026-07-19T10:14:10.528Z</time>
      </trkpt>
      <trkpt lat="48.83323" lon="2.28733">
        <ele>37.87515</ele>
        <time>2026-07-19T10:14:14.527Z</time>
      </trkpt>
      <trkpt lat="48.83324" lon="2.2873">
        <ele>37.85956</ele>
        <time>2026-07-19T10:14:16.527Z</time>
      </trkpt>
      <trkpt lat="48.83325" lon="2.28726">
        <ele>37.84411</ele>
        <time>2026-07-19T10:14:18.528Z</time>
      </trkpt>
      <trkpt lat="48.83327" lon="2.28724">
        <ele>37.82847</ele>
        <time>2026-07-19T10:14:20.527Z</time>
      </trkpt>
      <trkpt lat="48.83328" lon="2.28721">
        <ele>37.80479</ele>
        <time>2026-07-19T10:14:23.528Z</time>
      </trkpt>
      <trkpt lat="48.8333" lon="2.28716">
        <ele>37.7878</ele>
        <time>2026-07-19T10:14:26.528Z</time>
      </trkpt>
      <trkpt lat="48.83332" lon="2.28711">
        <ele>37.77539</ele>
        <time>2026-07-19T10:14:29.527Z</time>
      </trkpt>
      <trkpt lat="48.83333" lon="2.28706">
        <ele>37.77008</ele>
        <time>2026-07-19T10:14:32.528Z</time>
      </trkpt>
      <trkpt lat="48.83334" lon="2.28702">
        <ele>37.77051</ele>
        <time>2026-07-19T10:14:34.527Z</time>
      </trkpt>
      <trkpt lat="48.83335" lon="2.28699">
        <ele>37.77023</ele>
        <time>2026-07-19T10:14:36.527Z</time>
      </trkpt>
      <trkpt lat="48.83337" lon="2.28696">
        <ele>37.7705</ele>
        <time>2026-07-19T10:14:39.528Z</time>
      </trkpt>
      <trkpt lat="48.83339" lon="2.28692">
        <ele>37.77029</ele>
        <time>2026-07-19T10:14:41.528Z</time>
      </trkpt>
      <trkpt lat="48.83341" lon="2.2869">
        <ele>37.76921</ele>
        <time>2026-07-19T10:14:43.528Z</time>
      </trkpt>
      <trkpt lat="48.83342" lon="2.28687">
        <ele>37.77022</ele>
        <time>2026-07-19T10:14:45.528Z</time>
      </trkpt>
      <trkpt lat="48.83343" lon="2.28683">
        <ele>37.77098</ele>
        <time>2026-07-19T10:14:48.528Z</time>
      </trkpt>
      <trkpt lat="48.83344" lon="2.2868">
        <ele>37.76977</ele>
        <time>2026-07-19T10:14:50.528Z</time>
      </trkpt>
      <trkpt lat="48.83345" lon="2.28677">
        <ele>37.7669</ele>
        <time>2026-07-19T10:14:52.529Z</time>
      </trkpt>
      <trkpt lat="48.83346" lon="2.28673">
        <ele>37.76226</ele>
        <time>2026-07-19T10:14:54.528Z</time>
      </trkpt>
      <trkpt lat="48.83348" lon="2.2867">
        <ele>37.75322</ele>
        <time>2026-07-19T10:14:56.528Z</time>
      </trkpt>
      <trkpt lat="48.83349" lon="2.28667">
        <ele>37.74018</ele>
        <time>2026-07-19T10:14:58.528Z</time>
      </trkpt>
      <trkpt lat="48.83351" lon="2.28665">
        <ele>37.71927</ele>
        <time>2026-07-19T10:15:00.529Z</time>
      </trkpt>
      <trkpt lat="48.83353" lon="2.28661">
        <ele>37.69103</ele>
        <time>2026-07-19T10:15:03.528Z</time>
      </trkpt>
      <trkpt lat="48.83356" lon="2.28659">
        <ele>37.65387</ele>
        <time>2026-07-19T10:15:06.528Z</time>
      </trkpt>
      <trkpt lat="48.83359" lon="2.28656">
        <ele>37.58436</ele>
        <time>2026-07-19T10:15:09.529Z</time>
      </trkpt>
      <trkpt lat="48.8336" lon="2.28652">
        <ele>37.46002</ele>
        <time>2026-07-19T10:15:12.529Z</time>
      </trkpt>
      <trkpt lat="48.83361" lon="2.28649">
        <ele>37.34673</ele>
        <time>2026-07-19T10:15:14.528Z</time>
      </trkpt>
      <trkpt lat="48.83362" lon="2.28645">
        <ele>37.16666</ele>
        <time>2026-07-19T10:15:17.529Z</time>
      </trkpt>
      <trkpt lat="48.83363" lon="2.28641">
        <ele>37.0429</ele>
        <time>2026-07-19T10:15:19.529Z</time>
      </trkpt>
      <trkpt lat="48.83365" lon="2.28638">
        <ele>36.92703</ele>
        <time>2026-07-19T10:15:21.529Z</time>
      </trkpt>
      <trkpt lat="48.83367" lon="2.28635">
        <ele>36.82705</ele>
        <time>2026-07-19T10:15:23.529Z</time>
      </trkpt>
      <trkpt lat="48.83369" lon="2.28633">
        <ele>36.74553</ele>
        <time>2026-07-19T10:15:25.529Z</time>
      </trkpt>
      <trkpt lat="48.83371" lon="2.28628">
        <ele>36.65848</ele>
        <time>2026-07-19T10:15:28.529Z</time>
      </trkpt>
      <trkpt lat="48.83372" lon="2.28625">
        <ele>36.63464</ele>
        <time>2026-07-19T10:15:30.529Z</time>
      </trkpt>
      <trkpt lat="48.83373" lon="2.28621">
        <ele>36.62087</ele>
        <time>2026-07-19T10:15:32.529Z</time>
      </trkpt>
      <trkpt lat="48.83374" lon="2.28618">
        <ele>36.60869</ele>
        <time>2026-07-19T10:15:34.529Z</time>
      </trkpt>
      <trkpt lat="48.83375" lon="2.28614">
        <ele>36.5814</ele>
        <time>2026-07-19T10:15:37.529Z</time>
      </trkpt>
      <trkpt lat="48.83376" lon="2.28609">
        <ele>36.55919</ele>
        <time>2026-07-19T10:15:40.529Z</time>
      </trkpt>
      <trkpt lat="48.83378" lon="2.28606">
        <ele>36.54244</ele>
        <time>2026-07-19T10:15:42.529Z</time>
      </trkpt>
      <trkpt lat="48.83379" lon="2.28602">
        <ele>36.51829</ele>
        <time>2026-07-19T10:15:44.529Z</time>
      </trkpt>
      <trkpt lat="48.8338" lon="2.28598">
        <ele>36.48543</ele>
        <time>2026-07-19T10:15:47.530Z</time>
      </trkpt>
      <trkpt lat="48.83381" lon="2.28594">
        <ele>36.46157</ele>
        <time>2026-07-19T10:15:50.530Z</time>
      </trkpt>
      <trkpt lat="48.83382" lon="2.28589">
        <ele>36.44314</ele>
        <time>2026-07-19T10:15:53.530Z</time>
      </trkpt>
      <trkpt lat="48.83383" lon="2.28584">
        <ele>36.42525</ele>
        <time>2026-07-19T10:15:56.530Z</time>
      </trkpt>
      <trkpt lat="48.83384" lon="2.28581">
        <ele>36.41667</ele>
        <time>2026-07-19T10:15:58.530Z</time>
      </trkpt>
      <trkpt lat="48.83386" lon="2.28577">
        <ele>36.39836</ele>
        <time>2026-07-19T10:16:01.529Z</time>
      </trkpt>
      <trkpt lat="48.83388" lon="2.28574">
        <ele>36.37464</ele>
        <time>2026-07-19T10:16:04.530Z</time>
      </trkpt>
      <trkpt lat="48.8339" lon="2.28571">
        <ele>36.35783</ele>
        <time>2026-07-19T10:16:06.531Z</time>
      </trkpt>
      <trkpt lat="48.83392" lon="2.28568">
        <ele>36.34294</ele>
        <time>2026-07-19T10:16:08.530Z</time>
      </trkpt>
      <trkpt lat="48.83393" lon="2.28564">
        <ele>36.32235</ele>
        <time>2026-07-19T10:16:11.530Z</time>
      </trkpt>
      <trkpt lat="48.83395" lon="2.28559">
        <ele>36.31167</ele>
        <time>2026-07-19T10:16:14.531Z</time>
      </trkpt>
      <trkpt lat="48.83397" lon="2.28555">
        <ele>36.30151</ele>
        <time>2026-07-19T10:16:17.530Z</time>
      </trkpt>
      <trkpt lat="48.83398" lon="2.28552">
        <ele>36.29252</ele>
        <time>2026-07-19T10:16:19.530Z</time>
      </trkpt>
      <trkpt lat="48.83399" lon="2.28548">
        <ele>36.2842</ele>
        <time>2026-07-19T10:16:21.531Z</time>
      </trkpt>
      <trkpt lat="48.83401" lon="2.28544">
        <ele>36.26597</ele>
        <time>2026-07-19T10:16:24.530Z</time>
      </trkpt>
      <trkpt lat="48.83403" lon="2.28541">
        <ele>36.24993</ele>
        <time>2026-07-19T10:16:27.531Z</time>
      </trkpt>
      <trkpt lat="48.83405" lon="2.28538">
        <ele>36.22567</ele>
        <time>2026-07-19T10:16:30.530Z</time>
      </trkpt>
      <trkpt lat="48.83407" lon="2.28534">
        <ele>36.17809</ele>
        <time>2026-07-19T10:16:33.531Z</time>
      </trkpt>
      <trkpt lat="48.83408" lon="2.2853">
        <ele>36.14474</ele>
        <time>2026-07-19T10:16:35.530Z</time>
      </trkpt>
      <trkpt lat="48.83409" lon="2.28527">
        <ele>36.12253</ele>
        <time>2026-07-19T10:16:37.531Z</time>
      </trkpt>
      <trkpt lat="48.83411" lon="2.28523">
        <ele>36.09237</ele>
        <time>2026-07-19T10:16:40.531Z</time>
      </trkpt>
      <trkpt lat="48.83412" lon="2.28518">
        <ele>36.06615</ele>
        <time>2026-07-19T10:16:44.531Z</time>
      </trkpt>
      <trkpt lat="48.83413" lon="2.28515">
        <ele>36.05317</ele>
        <time>2026-07-19T10:16:47.530Z</time>
      </trkpt>
      <trkpt lat="48.83414" lon="2.28511">
        <ele>36.04189</ele>
        <time>2026-07-19T10:16:50.531Z</time>
      </trkpt>
      <trkpt lat="48.83415" lon="2.28508">
        <ele>36.03635</ele>
        <time>2026-07-19T10:16:52.530Z</time>
      </trkpt>
      <trkpt lat="48.83416" lon="2.28505">
        <ele>36.03236</ele>
        <time>2026-07-19T10:16:54.531Z</time>
      </trkpt>
      <trkpt lat="48.83417" lon="2.28502">
        <ele>36.02731</ele>
        <time>2026-07-19T10:16:56.531Z</time>
      </trkpt>
      <trkpt lat="48.83418" lon="2.28498">
        <ele>36.01902</ele>
        <time>2026-07-19T10:16:58.531Z</time>
      </trkpt>
      <trkpt lat="48.83419" lon="2.28493">
        <ele>35.99728</ele>
        <time>2026-07-19T10:17:01.531Z</time>
      </trkpt>
      <trkpt lat="48.8342" lon="2.2849">
        <ele>35.98074</ele>
        <time>2026-07-19T10:17:03.531Z</time>
      </trkpt>
      <trkpt lat="48.83421" lon="2.28486">
        <ele>35.95505</ele>
        <time>2026-07-19T10:17:06.531Z</time>
      </trkpt>
      <trkpt lat="48.83423" lon="2.28482">
        <ele>35.93274</ele>
        <time>2026-07-19T10:17:09.531Z</time>
      </trkpt>
      <trkpt lat="48.83424" lon="2.28478">
        <ele>35.90507</ele>
        <time>2026-07-19T10:17:12.531Z</time>
      </trkpt>
      <trkpt lat="48.83426" lon="2.28475">
        <ele>35.88214</ele>
        <time>2026-07-19T10:17:14.531Z</time>
      </trkpt>
      <trkpt lat="48.83427" lon="2.2847">
        <ele>35.84797</ele>
        <time>2026-07-19T10:17:17.532Z</time>
      </trkpt>
      <trkpt lat="48.83428" lon="2.28466">
        <ele>35.80897</ele>
        <time>2026-07-19T10:17:20.532Z</time>
      </trkpt>
      <trkpt lat="48.8343" lon="2.28463">
        <ele>35.74224</ele>
        <time>2026-07-19T10:17:24.531Z</time>
      </trkpt>
      <trkpt lat="48.83432" lon="2.2846">
        <ele>35.707</ele>
        <time>2026-07-19T10:17:26.531Z</time>
      </trkpt>
      <trkpt lat="48.83433" lon="2.28457">
        <ele>35.66328</ele>
        <time>2026-07-19T10:17:29.531Z</time>
      </trkpt>
      <trkpt lat="48.83435" lon="2.28452">
        <ele>35.63359</ele>
        <time>2026-07-19T10:17:32.531Z</time>
      </trkpt>
      <trkpt lat="48.83436" lon="2.28448">
        <ele>35.60625</ele>
        <time>2026-07-19T10:17:35.532Z</time>
      </trkpt>
      <trkpt lat="48.83437" lon="2.28444">
        <ele>35.58327</ele>
        <time>2026-07-19T10:17:38.532Z</time>
      </trkpt>
      <trkpt lat="48.83438" lon="2.28439">
        <ele>35.57306</ele>
        <time>2026-07-19T10:17:41.532Z</time>
      </trkpt>
      <trkpt lat="48.83439" lon="2.28435">
        <ele>35.56818</ele>
        <time>2026-07-19T10:17:44.533Z</time>
      </trkpt>
      <trkpt lat="48.8344" lon="2.2843">
        <ele>35.55625</ele>
        <time>2026-07-19T10:17:47.532Z</time>
      </trkpt>
      <trkpt lat="48.83442" lon="2.28426">
        <ele>35.53991</ele>
        <time>2026-07-19T10:17:50.532Z</time>
      </trkpt>
      <trkpt lat="48.83444" lon="2.28423">
        <ele>35.51952</ele>
        <time>2026-07-19T10:17:52.532Z</time>
      </trkpt>
      <trkpt lat="48.83445" lon="2.28418">
        <ele>35.47511</ele>
        <time>2026-07-19T10:17:55.532Z</time>
      </trkpt>
      <trkpt lat="48.83446" lon="2.28414">
        <ele>35.43657</ele>
        <time>2026-07-19T10:17:58.533Z</time>
      </trkpt>
      <trkpt lat="48.83448" lon="2.28411">
        <ele>35.39282</ele>
        <time>2026-07-19T10:18:01.532Z</time>
      </trkpt>
      <trkpt lat="48.83452" lon="2.28408">
        <ele>35.34078</ele>
        <time>2026-07-19T10:18:04.532Z</time>
      </trkpt>
      <trkpt lat="48.83454" lon="2.28407">
        <ele>35.30365</ele>
        <time>2026-07-19T10:18:06.532Z</time>
      </trkpt>
      <trkpt lat="48.83457" lon="2.28405">
        <ele>35.26706</ele>
        <time>2026-07-19T10:18:09.533Z</time>
      </trkpt>
      <trkpt lat="48.83459" lon="2.28402">
        <ele>35.2219</ele>
        <time>2026-07-19T10:18:12.533Z</time>
      </trkpt>
      <trkpt lat="48.8346" lon="2.28398">
        <ele>35.17436</ele>
        <time>2026-07-19T10:18:14.533Z</time>
      </trkpt>
      <trkpt lat="48.83461" lon="2.28394">
        <ele>35.04158</ele>
        <time>2026-07-19T10:18:17.533Z</time>
      </trkpt>
      <trkpt lat="48.83462" lon="2.28391">
        <ele>34.79357</ele>
        <time>2026-07-19T10:18:20.533Z</time>
      </trkpt>
      <trkpt lat="48.83464" lon="2.28387">
        <ele>34.43153</ele>
        <time>2026-07-19T10:18:23.533Z</time>
      </trkpt>
      <trkpt lat="48.83465" lon="2.28384">
        <ele>34.12506</ele>
        <time>2026-07-19T10:18:25.533Z</time>
      </trkpt>
      <trkpt lat="48.83466" lon="2.28379">
        <ele>33.65622</ele>
        <time>2026-07-19T10:18:28.534Z</time>
      </trkpt>
      <trkpt lat="48.83468" lon="2.28375">
        <ele>33.22793</ele>
        <time>2026-07-19T10:18:31.533Z</time>
      </trkpt>
      <trkpt lat="48.83469" lon="2.28372">
        <ele>32.95266</ele>
        <time>2026-07-19T10:18:33.533Z</time>
      </trkpt>
      <trkpt lat="48.83471" lon="2.28368">
        <ele>32.69276</ele>
        <time>2026-07-19T10:18:35.533Z</time>
      </trkpt>
      <trkpt lat="48.83472" lon="2.28364">
        <ele>32.51242</ele>
        <time>2026-07-19T10:18:37.533Z</time>
      </trkpt>
      <trkpt lat="48.83473" lon="2.28359">
        <ele>32.38022</ele>
        <time>2026-07-19T10:18:40.533Z</time>
      </trkpt>
      <trkpt lat="48.83475" lon="2.28356">
        <ele>32.28679</ele>
        <time>2026-07-19T10:18:43.533Z</time>
      </trkpt>
      <trkpt lat="48.83476" lon="2.28352">
        <ele>32.23543</ele>
        <time>2026-07-19T10:18:46.533Z</time>
      </trkpt>
      <trkpt lat="48.83477" lon="2.28349">
        <ele>32.19465</ele>
        <time>2026-07-19T10:18:48.534Z</time>
      </trkpt>
      <trkpt lat="48.83478" lon="2.28345">
        <ele>32.1544</ele>
        <time>2026-07-19T10:18:50.533Z</time>
      </trkpt>
      <trkpt lat="48.8348" lon="2.28342">
        <ele>32.11651</ele>
        <time>2026-07-19T10:18:52.533Z</time>
      </trkpt>
      <trkpt lat="48.83481" lon="2.2834">
        <ele>32.08192</ele>
        <time>2026-07-19T10:18:54.534Z</time>
      </trkpt>
      <trkpt lat="48.83482" lon="2.28336">
        <ele>32.06181</ele>
        <time>2026-07-19T10:18:56.534Z</time>
      </trkpt>
      <trkpt lat="48.83483" lon="2.28332">
        <ele>32.03208</ele>
        <time>2026-07-19T10:18:59.534Z</time>
      </trkpt>
      <trkpt lat="48.83484" lon="2.28327">
        <ele>32.02787</ele>
        <time>2026-07-19T10:19:02.534Z</time>
      </trkpt>
      <trkpt lat="48.83483" lon="2.28323">
        <ele>32.03189</ele>
        <time>2026-07-19T10:19:05.533Z</time>
      </trkpt>
      <trkpt lat="48.83484" lon="2.2832">
        <ele>32.03744</ele>
        <time>2026-07-19T10:19:08.536Z</time>
      </trkpt>
      <trkpt lat="48.83485" lon="2.28316">
        <ele>32.0376</ele>
        <time>2026-07-19T10:19:10.534Z</time>
      </trkpt>
      <trkpt lat="48.83486" lon="2.28312">
        <ele>32.04126</ele>
        <time>2026-07-19T10:19:13.534Z</time>
      </trkpt>
      <trkpt lat="48.83488" lon="2.28309">
        <ele>32.03217</ele>
        <time>2026-07-19T10:19:16.534Z</time>
      </trkpt>
      <trkpt lat="48.83491" lon="2.28307">
        <ele>32.00326</ele>
        <time>2026-07-19T10:19:19.534Z</time>
      </trkpt>
      <trkpt lat="48.83493" lon="2.28303">
        <ele>31.96946</ele>
        <time>2026-07-19T10:19:22.534Z</time>
      </trkpt>
      <trkpt lat="48.83494" lon="2.28299">
        <ele>31.94974</ele>
        <time>2026-07-19T10:19:24.534Z</time>
      </trkpt>
      <trkpt lat="48.83494" lon="2.28294">
        <ele>31.9197</ele>
        <time>2026-07-19T10:19:27.535Z</time>
      </trkpt>
      <trkpt lat="48.83496" lon="2.2829">
        <ele>31.9018</ele>
        <time>2026-07-19T10:19:29.534Z</time>
      </trkpt>
      <trkpt lat="48.83496" lon="2.28287">
        <ele>31.88693</ele>
        <time>2026-07-19T10:19:31.534Z</time>
      </trkpt>
      <trkpt lat="48.83498" lon="2.28282">
        <ele>31.88235</ele>
        <time>2026-07-19T10:19:33.535Z</time>
      </trkpt>
      <trkpt lat="48.83499" lon="2.28279">
        <ele>31.88335</ele>
        <time>2026-07-19T10:19:35.535Z</time>
      </trkpt>
      <trkpt lat="48.835" lon="2.28276">
        <ele>31.88621</ele>
        <time>2026-07-19T10:19:37.535Z</time>
      </trkpt>
      <trkpt lat="48.83501" lon="2.28273">
        <ele>31.88774</ele>
        <time>2026-07-19T10:19:39.535Z</time>
      </trkpt>
      <trkpt lat="48.83503" lon="2.28269">
        <ele>31.89046</ele>
        <time>2026-07-19T10:19:42.534Z</time>
      </trkpt>
      <trkpt lat="48.83504" lon="2.28265">
        <ele>31.89329</ele>
        <time>2026-07-19T10:19:44.536Z</time>
      </trkpt>
      <trkpt lat="48.83505" lon="2.28261">
        <ele>31.89544</ele>
        <time>2026-07-19T10:19:46.535Z</time>
      </trkpt>
      <trkpt lat="48.83505" lon="2.28257">
        <ele>31.90173</ele>
        <time>2026-07-19T10:19:48.535Z</time>
      </trkpt>
      <trkpt lat="48.83506" lon="2.28252">
        <ele>31.91739</ele>
        <time>2026-07-19T10:19:51.534Z</time>
      </trkpt>
      <trkpt lat="48.83507" lon="2.28248">
        <ele>31.93394</ele>
        <time>2026-07-19T10:19:53.535Z</time>
      </trkpt>
      <trkpt lat="48.83508" lon="2.28244">
        <ele>31.94851</ele>
        <time>2026-07-19T10:19:55.535Z</time>
      </trkpt>
      <trkpt lat="48.83509" lon="2.2824">
        <ele>31.96967</ele>
        <time>2026-07-19T10:19:58.535Z</time>
      </trkpt>
      <trkpt lat="48.83511" lon="2.28237">
        <ele>31.99071</ele>
        <time>2026-07-19T10:20:01.536Z</time>
      </trkpt>
      <trkpt lat="48.83512" lon="2.28234">
        <ele>32.00362</ele>
        <time>2026-07-19T10:20:03.535Z</time>
      </trkpt>
      <trkpt lat="48.83514" lon="2.28231">
        <ele>32.01756</ele>
        <time>2026-07-19T10:20:05.536Z</time>
      </trkpt>
      <trkpt lat="48.83515" lon="2.28227">
        <ele>32.0331</ele>
        <time>2026-07-19T10:20:07.536Z</time>
      </trkpt>
      <trkpt lat="48.83516" lon="2.28224">
        <ele>32.061</ele>
        <time>2026-07-19T10:20:16.535Z</time>
      </trkpt>
      <trkpt lat="48.83517" lon="2.2822">
        <ele>32.06788</ele>
        <time>2026-07-19T10:20:19.535Z</time>
      </trkpt>
      <trkpt lat="48.83519" lon="2.28216">
        <ele>32.07382</ele>
        <time>2026-07-19T10:20:22.535Z</time>
      </trkpt>
      <trkpt lat="48.83521" lon="2.28213">
        <ele>32.07316</ele>
        <time>2026-07-19T10:20:25.536Z</time>
      </trkpt>
      <trkpt lat="48.83523" lon="2.28209">
        <ele>32.06863</ele>
        <time>2026-07-19T10:20:28.536Z</time>
      </trkpt>
      <trkpt lat="48.83524" lon="2.28206">
        <ele>32.06462</ele>
        <time>2026-07-19T10:20:30.536Z</time>
      </trkpt>
      <trkpt lat="48.83525" lon="2.28202">
        <ele>32.0573</ele>
        <time>2026-07-19T10:20:33.535Z</time>
      </trkpt>
      <trkpt lat="48.83525" lon="2.28198">
        <ele>32.05375</ele>
        <time>2026-07-19T10:20:35.536Z</time>
      </trkpt>
      <trkpt lat="48.83526" lon="2.28195">
        <ele>32.05036</ele>
        <time>2026-07-19T10:20:37.535Z</time>
      </trkpt>
      <trkpt lat="48.83527" lon="2.28191">
        <ele>32.04517</ele>
        <time>2026-07-19T10:20:40.536Z</time>
      </trkpt>
      <trkpt lat="48.83528" lon="2.28186">
        <ele>32.0386</ele>
        <time>2026-07-19T10:20:43.536Z</time>
      </trkpt>
      <trkpt lat="48.83529" lon="2.28183">
        <ele>32.03424</ele>
        <time>2026-07-19T10:20:45.536Z</time>
      </trkpt>
      <trkpt lat="48.83529" lon="2.28179">
        <ele>32.02523</ele>
        <time>2026-07-19T10:20:49.536Z</time>
      </trkpt>
      <trkpt lat="48.8353" lon="2.28174">
        <ele>32.00962</ele>
        <time>2026-07-19T10:20:55.536Z</time>
      </trkpt>
      <trkpt lat="48.83531" lon="2.2817">
        <ele>32.00427</ele>
        <time>2026-07-19T10:20:57.537Z</time>
      </trkpt>
      <trkpt lat="48.83533" lon="2.28166">
        <ele>31.9995</ele>
        <time>2026-07-19T10:20:59.536Z</time>
      </trkpt>
      <trkpt lat="48.83534" lon="2.28161">
        <ele>31.99564</ele>
        <time>2026-07-19T10:21:01.536Z</time>
      </trkpt>
      <trkpt lat="48.83535" lon="2.28156">
        <ele>31.99226</ele>
        <time>2026-07-19T10:21:04.536Z</time>
      </trkpt>
      <trkpt lat="48.83537" lon="2.28153">
        <ele>31.99082</ele>
        <time>2026-07-19T10:21:06.537Z</time>
      </trkpt>
      <trkpt lat="48.83537" lon="2.28149">
        <ele>31.99023</ele>
        <time>2026-07-19T10:21:08.537Z</time>
      </trkpt>
      <trkpt lat="48.83538" lon="2.28145">
        <ele>31.98592</ele>
        <time>2026-07-19T10:21:11.537Z</time>
      </trkpt>
      <trkpt lat="48.83539" lon="2.28141">
        <ele>31.97947</ele>
        <time>2026-07-19T10:21:14.537Z</time>
      </trkpt>
      <trkpt lat="48.8354" lon="2.28137">
        <ele>31.97492</ele>
        <time>2026-07-19T10:21:17.537Z</time>
      </trkpt>
      <trkpt lat="48.83542" lon="2.28134">
        <ele>31.97152</ele>
        <time>2026-07-19T10:21:20.538Z</time>
      </trkpt>
      <trkpt lat="48.83543" lon="2.28131">
        <ele>31.96814</ele>
        <time>2026-07-19T10:21:22.537Z</time>
      </trkpt>
      <trkpt lat="48.83545" lon="2.28126">
        <ele>31.96311</ele>
        <time>2026-07-19T10:21:25.537Z</time>
      </trkpt>
      <trkpt lat="48.83546" lon="2.28123">
        <ele>31.9601</ele>
        <time>2026-07-19T10:21:27.536Z</time>
      </trkpt>
      <trkpt lat="48.83547" lon="2.28118">
        <ele>31.9564</ele>
        <time>2026-07-19T10:21:30.537Z</time>
      </trkpt>
      <trkpt lat="48.83548" lon="2.28113">
        <ele>31.95502</ele>
        <time>2026-07-19T10:21:33.537Z</time>
      </trkpt>
      <trkpt lat="48.83548" lon="2.28109">
        <ele>31.9547</ele>
        <time>2026-07-19T10:21:35.538Z</time>
      </trkpt>
      <trkpt lat="48.83549" lon="2.28106">
        <ele>31.95548</ele>
        <time>2026-07-19T10:21:37.537Z</time>
      </trkpt>
      <trkpt lat="48.83551" lon="2.28101">
        <ele>31.95506</ele>
        <time>2026-07-19T10:21:40.537Z</time>
      </trkpt>
      <trkpt lat="48.83553" lon="2.28097">
        <ele>31.95232</ele>
        <time>2026-07-19T10:21:43.537Z</time>
      </trkpt>
      <trkpt lat="48.83554" lon="2.28092">
        <ele>31.94855</ele>
        <time>2026-07-19T10:21:46.538Z</time>
      </trkpt>
      <trkpt lat="48.83555" lon="2.28089">
        <ele>31.94716</ele>
        <time>2026-07-19T10:21:48.538Z</time>
      </trkpt>
      <trkpt lat="48.83556" lon="2.28085">
        <ele>31.94519</ele>
        <time>2026-07-19T10:21:51.538Z</time>
      </trkpt>
      <trkpt lat="48.83558" lon="2.28081">
        <ele>31.94263</ele>
        <time>2026-07-19T10:21:54.538Z</time>
      </trkpt>
      <trkpt lat="48.83559" lon="2.28078">
        <ele>31.94081</ele>
        <time>2026-07-19T10:21:57.537Z</time>
      </trkpt>
      <trkpt lat="48.83561" lon="2.28073">
        <ele>31.93949</ele>
        <time>2026-07-19T10:22:00.538Z</time>
      </trkpt>
      <trkpt lat="48.83562" lon="2.2807">
        <ele>31.93844</ele>
        <time>2026-07-19T10:22:02.537Z</time>
      </trkpt>
      <trkpt lat="48.83563" lon="2.28067">
        <ele>31.93726</ele>
        <time>2026-07-19T10:22:04.538Z</time>
      </trkpt>
      <trkpt lat="48.83563" lon="2.28064">
        <ele>31.936</ele>
        <time>2026-07-19T10:22:06.538Z</time>
      </trkpt>
      <trkpt lat="48.83564" lon="2.28059">
        <ele>31.93437</ele>
        <time>2026-07-19T10:22:09.538Z</time>
      </trkpt>
      <trkpt lat="48.83566" lon="2.28054">
        <ele>31.93359</ele>
        <time>2026-07-19T10:22:12.538Z</time>
      </trkpt>
      <trkpt lat="48.83566" lon="2.28051">
        <ele>31.93402</ele>
        <time>2026-07-19T10:22:14.538Z</time>
      </trkpt>
      <trkpt lat="48.83567" lon="2.28047">
        <ele>31.93445</ele>
        <time>2026-07-19T10:22:16.538Z</time>
      </trkpt>
      <trkpt lat="48.83568" lon="2.28044">
        <ele>31.93504</ele>
        <time>2026-07-19T10:22:18.538Z</time>
      </trkpt>
      <trkpt lat="48.83569" lon="2.28041">
        <ele>31.93568</ele>
        <time>2026-07-19T10:22:20.538Z</time>
      </trkpt>
      <trkpt lat="48.83571" lon="2.28036">
        <ele>31.93707</ele>
        <time>2026-07-19T10:22:23.538Z</time>
      </trkpt>
      <trkpt lat="48.83572" lon="2.28031">
        <ele>31.94079</ele>
        <time>2026-07-19T10:22:26.538Z</time>
      </trkpt>
      <trkpt lat="48.83573" lon="2.28027">
        <ele>31.94604</ele>
        <time>2026-07-19T10:22:28.539Z</time>
      </trkpt>
      <trkpt lat="48.83574" lon="2.28024">
        <ele>31.95348</ele>
        <time>2026-07-19T10:22:30.539Z</time>
      </trkpt>
      <trkpt lat="48.83575" lon="2.28019">
        <ele>31.96803</ele>
        <time>2026-07-19T10:22:33.539Z</time>
      </trkpt>
      <trkpt lat="48.83576" lon="2.28015">
        <ele>31.98128</ele>
        <time>2026-07-19T10:22:35.539Z</time>
      </trkpt>
      <trkpt lat="48.83576" lon="2.28012">
        <ele>32.00743</ele>
        <time>2026-07-19T10:22:37.539Z</time>
      </trkpt>
      <trkpt lat="48.83577" lon="2.28008">
        <ele>32.06859</ele>
        <time>2026-07-19T10:22:40.539Z</time>
      </trkpt>
      <trkpt lat="48.83578" lon="2.28005">
        <ele>32.11521</ele>
        <time>2026-07-19T10:22:42.538Z</time>
      </trkpt>
      <trkpt lat="48.83579" lon="2.28">
        <ele>32.19629</ele>
        <time>2026-07-19T10:22:45.539Z</time>
      </trkpt>
      <trkpt lat="48.8358" lon="2.27997">
        <ele>32.2466</ele>
        <time>2026-07-19T10:22:47.539Z</time>
      </trkpt>
      <trkpt lat="48.83582" lon="2.27993">
        <ele>32.30857</ele>
        <time>2026-07-19T10:22:50.539Z</time>
      </trkpt>
      <trkpt lat="48.83583" lon="2.27989">
        <ele>32.3438</ele>
        <time>2026-07-19T10:22:52.539Z</time>
      </trkpt>
      <trkpt lat="48.83584" lon="2.27986">
        <ele>32.37417</ele>
        <time>2026-07-19T10:22:54.539Z</time>
      </trkpt>
      <trkpt lat="48.83586" lon="2.27982">
        <ele>32.42884</ele>
        <time>2026-07-19T10:22:57.539Z</time>
      </trkpt>
      <trkpt lat="48.83587" lon="2.27979">
        <ele>32.47954</ele>
        <time>2026-07-19T10:22:59.540Z</time>
      </trkpt>
      <trkpt lat="48.83589" lon="2.27974">
        <ele>32.56746</ele>
        <time>2026-07-19T10:23:02.539Z</time>
      </trkpt>
      <trkpt lat="48.8359" lon="2.2797">
        <ele>32.62712</ele>
        <time>2026-07-19T10:23:05.540Z</time>
      </trkpt>
      <trkpt lat="48.83591" lon="2.27966">
        <ele>32.63961</ele>
        <time>2026-07-19T10:23:07.540Z</time>
      </trkpt>
      <trkpt lat="48.83592" lon="2.27963">
        <ele>32.64015</ele>
        <time>2026-07-19T10:23:10.540Z</time>
      </trkpt>
      <trkpt lat="48.83593" lon="2.27959">
        <ele>32.64585</ele>
        <time>2026-07-19T10:23:13.540Z</time>
      </trkpt>
      <trkpt lat="48.83595" lon="2.27954">
        <ele>32.64497</ele>
        <time>2026-07-19T10:23:16.539Z</time>
      </trkpt>
      <trkpt lat="48.83596" lon="2.2795">
        <ele>32.6556</ele>
        <time>2026-07-19T10:23:18.540Z</time>
      </trkpt>
      <trkpt lat="48.83598" lon="2.27947">
        <ele>32.69169</ele>
        <time>2026-07-19T10:23:21.539Z</time>
      </trkpt>
      <trkpt lat="48.83599" lon="2.27943">
        <ele>32.74553</ele>
        <time>2026-07-19T10:23:24.540Z</time>
      </trkpt>
      <trkpt lat="48.83601" lon="2.2794">
        <ele>32.76063</ele>
        <time>2026-07-19T10:23:27.539Z</time>
      </trkpt>
      <trkpt lat="48.83602" lon="2.27936">
        <ele>32.7581</ele>
        <time>2026-07-19T10:23:29.540Z</time>
      </trkpt>
      <trkpt lat="48.83603" lon="2.27933">
        <ele>32.75237</ele>
        <time>2026-07-19T10:23:31.540Z</time>
      </trkpt>
      <trkpt lat="48.83604" lon="2.27929">
        <ele>32.75046</ele>
        <time>2026-07-19T10:23:33.540Z</time>
      </trkpt>
      <trkpt lat="48.83605" lon="2.27925">
        <ele>32.75201</ele>
        <time>2026-07-19T10:23:35.540Z</time>
      </trkpt>
      <trkpt lat="48.83605" lon="2.27921">
        <ele>32.74588</ele>
        <time>2026-07-19T10:23:38.540Z</time>
      </trkpt>
      <trkpt lat="48.83606" lon="2.27918">
        <ele>32.73917</ele>
        <time>2026-07-19T10:23:41.540Z</time>
      </trkpt>
      <trkpt lat="48.83607" lon="2.27914">
        <ele>32.73248</ele>
        <time>2026-07-19T10:23:44.540Z</time>
      </trkpt>
      <trkpt lat="48.83607" lon="2.2791">
        <ele>32.7248</ele>
        <time>2026-07-19T10:23:47.540Z</time>
      </trkpt>
      <trkpt lat="48.83608" lon="2.27906">
        <ele>32.71866</ele>
        <time>2026-07-19T10:23:50.540Z</time>
      </trkpt>
      <trkpt lat="48.8361" lon="2.27903">
        <ele>32.71352</ele>
        <time>2026-07-19T10:23:52.540Z</time>
      </trkpt>
      <trkpt lat="48.83611" lon="2.279">
        <ele>32.70804</ele>
        <time>2026-07-19T10:23:55.540Z</time>
      </trkpt>
      <trkpt lat="48.83612" lon="2.27896">
        <ele>32.70076</ele>
        <time>2026-07-19T10:23:58.541Z</time>
      </trkpt>
      <trkpt lat="48.83612" lon="2.27893">
        <ele>32.69311</ele>
        <time>2026-07-19T10:24:00.541Z</time>
      </trkpt>
      <trkpt lat="48.83613" lon="2.27889">
        <ele>32.68542</ele>
        <time>2026-07-19T10:24:02.540Z</time>
      </trkpt>
      <trkpt lat="48.83613" lon="2.27885">
        <ele>32.67539</ele>
        <time>2026-07-19T10:24:04.541Z</time>
      </trkpt>
      <trkpt lat="48.83615" lon="2.2788">
        <ele>32.65913</ele>
        <time>2026-07-19T10:24:07.541Z</time>
      </trkpt>
      <trkpt lat="48.83615" lon="2.27876">
        <ele>32.64813</ele>
        <time>2026-07-19T10:24:09.540Z</time>
      </trkpt>
      <trkpt lat="48.83615" lon="2.27872">
        <ele>32.64022</ele>
        <time>2026-07-19T10:24:11.541Z</time>
      </trkpt>
      <trkpt lat="48.83616" lon="2.27868">
        <ele>32.63031</ele>
        <time>2026-07-19T10:24:14.541Z</time>
      </trkpt>
      <trkpt lat="48.83618" lon="2.27863">
        <ele>32.6205</ele>
        <time>2026-07-19T10:24:17.542Z</time>
      </trkpt>
      <trkpt lat="48.83619" lon="2.27859">
        <ele>32.61556</ele>
        <time>2026-07-19T10:24:20.540Z</time>
      </trkpt>
      <trkpt lat="48.83621" lon="2.27855">
        <ele>32.61465</ele>
        <time>2026-07-19T10:24:23.541Z</time>
      </trkpt>
      <trkpt lat="48.83623" lon="2.27852">
        <ele>32.61242</ele>
        <time>2026-07-19T10:24:27.541Z</time>
      </trkpt>
      <trkpt lat="48.83625" lon="2.27851">
        <ele>32.6058</ele>
        <time>2026-07-19T10:24:31.541Z</time>
      </trkpt>
      <trkpt lat="48.83627" lon="2.27852">
        <ele>32.59275</ele>
        <time>2026-07-19T10:24:35.541Z</time>
      </trkpt>
      <trkpt lat="48.8363" lon="2.27851">
        <ele>32.59055</ele>
        <time>2026-07-19T10:24:36.541Z</time>
      </trkpt>
      <trkpt lat="48.83628" lon="2.27848">
        <ele>32.48892</ele>
        <time>2026-07-19T10:24:44.541Z</time>
      </trkpt>
      <trkpt lat="48.83628" lon="2.27845">
        <ele>32.16219</ele>
        <time>2026-07-19T10:24:51.541Z</time>
      </trkpt>
      <trkpt lat="48.83628" lon="2.2784">
        <ele>30.01677</ele>
        <time>2026-07-19T10:25:14.542Z</time>
      </trkpt>
      <trkpt lat="48.83628" lon="2.27835">
        <ele>29.69875</ele>
        <time>2026-07-19T10:25:17.542Z</time>
      </trkpt>
      <trkpt lat="48.83629" lon="2.27831">
        <ele>29.4284</ele>
        <time>2026-07-19T10:25:20.542Z</time>
      </trkpt>
      <trkpt lat="48.8363" lon="2.27827">
        <ele>29.20435</ele>
        <time>2026-07-19T10:25:23.542Z</time>
      </trkpt>
      <trkpt lat="48.8363" lon="2.27822">
        <ele>29.01247</ele>
        <time>2026-07-19T10:25:26.542Z</time>
      </trkpt>
      <trkpt lat="48.83631" lon="2.27818">
        <ele>28.83505</ele>
        <time>2026-07-19T10:25:29.542Z</time>
      </trkpt>
      <trkpt lat="48.83631" lon="2.27815">
        <ele>28.74206</ele>
        <time>2026-07-19T10:25:31.542Z</time>
      </trkpt>
      <trkpt lat="48.83632" lon="2.2781">
        <ele>28.62184</ele>
        <time>2026-07-19T10:25:34.542Z</time>
      </trkpt>
      <trkpt lat="48.83634" lon="2.27812">
        <ele>28.46962</ele>
        <time>2026-07-19T10:25:41.542Z</time>
      </trkpt>
      <trkpt lat="48.83636" lon="2.27815">
        <ele>28.43455</ele>
        <time>2026-07-19T10:25:44.542Z</time>
      </trkpt>
      <trkpt lat="48.83638" lon="2.27817">
        <ele>28.40413</ele>
        <time>2026-07-19T10:25:47.543Z</time>
      </trkpt>
      <trkpt lat="48.83641" lon="2.2782">
        <ele>28.38824</ele>
        <time>2026-07-19T10:25:50.543Z</time>
      </trkpt>
      <trkpt lat="48.83643" lon="2.27822">
        <ele>28.38104</ele>
        <time>2026-07-19T10:25:53.542Z</time>
      </trkpt>
      <trkpt lat="48.83645" lon="2.27824">
        <ele>28.36434</ele>
        <time>2026-07-19T10:25:55.542Z</time>
      </trkpt>
      <trkpt lat="48.83647" lon="2.27825">
        <ele>28.33091</ele>
        <time>2026-07-19T10:25:57.543Z</time>
      </trkpt>
      <trkpt lat="48.83649" lon="2.27827">
        <ele>28.26386</ele>
        <time>2026-07-19T10:26:01.543Z</time>
      </trkpt>
      <trkpt lat="48.83653" lon="2.27827">
        <ele>28.2199</ele>
        <time>2026-07-19T10:26:04.543Z</time>
      </trkpt>
      <trkpt lat="48.83656" lon="2.27827">
        <ele>28.19726</ele>
        <time>2026-07-19T10:26:06.543Z</time>
      </trkpt>
      <trkpt lat="48.83658" lon="2.27827">
        <ele>28.17808</ele>
        <time>2026-07-19T10:26:08.543Z</time>
      </trkpt>
      <trkpt lat="48.83661" lon="2.27827">
        <ele>28.16511</ele>
        <time>2026-07-19T10:26:10.543Z</time>
      </trkpt>
      <trkpt lat="48.83663" lon="2.27824">
        <ele>28.1316</ele>
        <time>2026-07-19T10:26:14.543Z</time>
      </trkpt>
      <trkpt lat="48.83666" lon="2.27825">
        <ele>28.10951</ele>
        <time>2026-07-19T10:26:16.543Z</time>
      </trkpt>
      <trkpt lat="48.83668" lon="2.27826">
        <ele>28.08951</ele>
        <time>2026-07-19T10:26:18.543Z</time>
      </trkpt>
      <trkpt lat="48.83668" lon="2.27833">
        <ele>28.07134</ele>
        <time>2026-07-19T10:26:20.543Z</time>
      </trkpt>
      <trkpt lat="48.83669" lon="2.27836">
        <ele>28.05024</ele>
        <time>2026-07-19T10:26:22.543Z</time>
      </trkpt>
      <trkpt lat="48.83672" lon="2.27837">
        <ele>28.05509</ele>
        <time>2026-07-19T10:26:24.543Z</time>
      </trkpt>
      <trkpt lat="48.83675" lon="2.27835">
        <ele>28.06981</ele>
        <time>2026-07-19T10:26:26.543Z</time>
      </trkpt>
      <trkpt lat="48.83678" lon="2.27833">
        <ele>28.08105</ele>
        <time>2026-07-19T10:26:28.544Z</time>
      </trkpt>
      <trkpt lat="48.83682" lon="2.27832">
        <ele>28.10131</ele>
        <time>2026-07-19T10:26:30.543Z</time>
      </trkpt>
      <trkpt lat="48.83684" lon="2.2783">
        <ele>28.13194</ele>
        <time>2026-07-19T10:26:32.543Z</time>
      </trkpt>
      <trkpt lat="48.83687" lon="2.27829">
        <ele>28.20556</ele>
        <time>2026-07-19T10:26:35.543Z</time>
      </trkpt>
      <trkpt lat="48.83689" lon="2.27826">
        <ele>28.2746</ele>
        <time>2026-07-19T10:26:38.543Z</time>
      </trkpt>
      <trkpt lat="48.8369" lon="2.27823">
        <ele>28.36919</ele>
        <time>2026-07-19T10:26:42.543Z</time>
      </trkpt>
      <trkpt lat="48.83691" lon="2.27819">
        <ele>28.4412</ele>
        <time>2026-07-19T10:26:45.544Z</time>
      </trkpt>
      <trkpt lat="48.83692" lon="2.27816">
        <ele>28.50104</ele>
        <time>2026-07-19T10:26:47.543Z</time>
      </trkpt>
      <trkpt lat="48.83692" lon="2.27812">
        <ele>28.5643</ele>
        <time>2026-07-19T10:26:49.544Z</time>
      </trkpt>
      <trkpt lat="48.83693" lon="2.27807">
        <ele>28.66186</ele>
        <time>2026-07-19T10:26:52.544Z</time>
      </trkpt>
      <trkpt lat="48.83694" lon="2.27803">
        <ele>28.73168</ele>
        <time>2026-07-19T10:26:54.544Z</time>
      </trkpt>
      <trkpt lat="48.83695" lon="2.278">
        <ele>28.8145</ele>
        <time>2026-07-19T10:26:56.544Z</time>
      </trkpt>
      <trkpt lat="48.83696" lon="2.27796">
        <ele>28.91567</ele>
        <time>2026-07-19T10:26:58.544Z</time>
      </trkpt>
      <trkpt lat="48.83696" lon="2.27791">
        <ele>29.1222</ele>
        <time>2026-07-19T10:27:01.543Z</time>
      </trkpt>
      <trkpt lat="48.83697" lon="2.27787">
        <ele>29.40649</ele>
        <time>2026-07-19T10:27:04.544Z</time>
      </trkpt>
      <trkpt lat="48.83698" lon="2.27784">
        <ele>29.62757</ele>
        <time>2026-07-19T10:27:06.544Z</time>
      </trkpt>
      <trkpt lat="48.83699" lon="2.27781">
        <ele>29.86417</ele>
        <time>2026-07-19T10:27:08.544Z</time>
      </trkpt>
      <trkpt lat="48.837" lon="2.27776">
        <ele>30.1816</ele>
        <time>2026-07-19T10:27:11.544Z</time>
      </trkpt>
      <trkpt lat="48.83701" lon="2.27771">
        <ele>30.47271</ele>
        <time>2026-07-19T10:27:14.544Z</time>
      </trkpt>
      <trkpt lat="48.83702" lon="2.27767">
        <ele>30.74308</ele>
        <time>2026-07-19T10:27:17.544Z</time>
      </trkpt>
      <trkpt lat="48.83704" lon="2.27762">
        <ele>31.02872</ele>
        <time>2026-07-19T10:27:20.544Z</time>
      </trkpt>
      <trkpt lat="48.83705" lon="2.27758">
        <ele>31.20636</ele>
        <time>2026-07-19T10:27:22.544Z</time>
      </trkpt>
      <trkpt lat="48.83706" lon="2.27754">
        <ele>31.41689</ele>
        <time>2026-07-19T10:27:25.544Z</time>
      </trkpt>
      <trkpt lat="48.83707" lon="2.2775">
        <ele>31.53661</ele>
        <time>2026-07-19T10:27:28.544Z</time>
      </trkpt>
      <trkpt lat="48.83708" lon="2.27746">
        <ele>31.60724</ele>
        <time>2026-07-19T10:27:31.544Z</time>
      </trkpt>
      <trkpt lat="48.83708" lon="2.27741">
        <ele>31.66765</ele>
        <time>2026-07-19T10:27:34.545Z</time>
      </trkpt>
      <trkpt lat="48.83709" lon="2.27738">
        <ele>31.70883</ele>
        <time>2026-07-19T10:27:36.544Z</time>
      </trkpt>
      <trkpt lat="48.83709" lon="2.27732">
        <ele>31.78058</ele>
        <time>2026-07-19T10:27:39.545Z</time>
      </trkpt>
      <trkpt lat="48.8371" lon="2.27728">
        <ele>31.85485</ele>
        <time>2026-07-19T10:27:42.545Z</time>
      </trkpt>
      <trkpt lat="48.83711" lon="2.27724">
        <ele>31.90557</ele>
        <time>2026-07-19T10:27:45.544Z</time>
      </trkpt>
      <trkpt lat="48.83711" lon="2.2772">
        <ele>31.93339</ele>
        <time>2026-07-19T10:27:48.545Z</time>
      </trkpt>
      <trkpt lat="48.83713" lon="2.27717">
        <ele>31.94201</ele>
        <time>2026-07-19T10:27:51.545Z</time>
      </trkpt>
      <trkpt lat="48.83715" lon="2.27716">
        <ele>31.94835</ele>
        <time>2026-07-19T10:27:54.545Z</time>
      </trkpt>
      <trkpt lat="48.83717" lon="2.27718">
        <ele>31.95172</ele>
        <time>2026-07-19T10:27:57.545Z</time>
      </trkpt>
      <trkpt lat="48.8372" lon="2.27719">
        <ele>31.94555</ele>
        <time>2026-07-19T10:28:00.545Z</time>
      </trkpt>
      <trkpt lat="48.83723" lon="2.27721">
        <ele>31.94885</ele>
        <time>2026-07-19T10:28:03.545Z</time>
      </trkpt>
      <trkpt lat="48.83725" lon="2.27723">
        <ele>31.95236</ele>
        <time>2026-07-19T10:28:07.545Z</time>
      </trkpt>
      <trkpt lat="48.83727" lon="2.27725">
        <ele>31.95309</ele>
        <time>2026-07-19T10:28:10.545Z</time>
      </trkpt>
      <trkpt lat="48.8373" lon="2.27727">
        <ele>31.9528</ele>
        <time>2026-07-19T10:28:13.545Z</time>
      </trkpt>
      <trkpt lat="48.83732" lon="2.27729">
        <ele>31.95736</ele>
        <time>2026-07-19T10:28:16.545Z</time>
      </trkpt>
      <trkpt lat="48.83735" lon="2.27732">
        <ele>31.96384</ele>
        <time>2026-07-19T10:28:21.546Z</time>
      </trkpt>
      <trkpt lat="48.83738" lon="2.27733">
        <ele>31.96994</ele>
        <time>2026-07-19T10:28:24.545Z</time>
      </trkpt>
      <trkpt lat="48.8374" lon="2.27735">
        <ele>31.9747</ele>
        <time>2026-07-19T10:28:27.545Z</time>
      </trkpt>
      <trkpt lat="48.83743" lon="2.27737">
        <ele>31.97621</ele>
        <time>2026-07-19T10:28:30.546Z</time>
      </trkpt>
      <trkpt lat="48.83745" lon="2.27739">
        <ele>31.97395</ele>
        <time>2026-07-19T10:28:32.546Z</time>
      </trkpt>
      <trkpt lat="48.83748" lon="2.27742">
        <ele>31.97453</ele>
        <time>2026-07-19T10:28:35.546Z</time>
      </trkpt>
      <trkpt lat="48.83749" lon="2.27744">
        <ele>31.97645</ele>
        <time>2026-07-19T10:28:37.546Z</time>
      </trkpt>
      <trkpt lat="48.83751" lon="2.27746">
        <ele>31.98113</ele>
        <time>2026-07-19T10:28:39.546Z</time>
      </trkpt>
      <trkpt lat="48.83754" lon="2.27747">
        <ele>31.98631</ele>
        <time>2026-07-19T10:28:42.546Z</time>
      </trkpt>
      <trkpt lat="48.83757" lon="2.27748">
        <ele>31.98993</ele>
        <time>2026-07-19T10:28:45.546Z</time>
      </trkpt>
      <trkpt lat="48.8376" lon="2.2775">
        <ele>32.03496</ele>
        <time>2026-07-19T10:28:49.546Z</time>
      </trkpt>
      <trkpt lat="48.83763" lon="2.27749">
        <ele>32.07327</ele>
        <time>2026-07-19T10:28:53.546Z</time>
      </trkpt>
      <trkpt lat="48.83766" lon="2.27748">
        <ele>32.07633</ele>
        <time>2026-07-19T10:28:55.546Z</time>
      </trkpt>
      <trkpt lat="48.83768" lon="2.27746">
        <ele>32.0736</ele>
        <time>2026-07-19T10:28:57.546Z</time>
      </trkpt>
      <trkpt lat="48.8377" lon="2.27742">
        <ele>32.05818</ele>
        <time>2026-07-19T10:29:00.546Z</time>
      </trkpt>
      <trkpt lat="48.83772" lon="2.2774">
        <ele>32.04148</ele>
        <time>2026-07-19T10:29:02.546Z</time>
      </trkpt>
      <trkpt lat="48.83775" lon="2.27738">
        <ele>32.03201</ele>
        <time>2026-07-19T10:29:04.546Z</time>
      </trkpt>
      <trkpt lat="48.83778" lon="2.27735">
        <ele>32.02322</ele>
        <time>2026-07-19T10:29:07.546Z</time>
      </trkpt>
      <trkpt lat="48.83781" lon="2.27733">
        <ele>32.02004</ele>
        <time>2026-07-19T10:29:10.546Z</time>
      </trkpt>
      <trkpt lat="48.83783" lon="2.27732">
        <ele>32.02026</ele>
        <time>2026-07-19T10:29:12.546Z</time>
      </trkpt>
      <trkpt lat="48.83786" lon="2.2773">
        <ele>32.02063</ele>
        <time>2026-07-19T10:29:15.546Z</time>
      </trkpt>
      <trkpt lat="48.83789" lon="2.27727">
        <ele>32.02151</ele>
        <time>2026-07-19T10:29:18.547Z</time>
      </trkpt>
      <trkpt lat="48.83792" lon="2.27725">
        <ele>32.01974</ele>
        <time>2026-07-19T10:29:21.546Z</time>
      </trkpt>
      <trkpt lat="48.83794" lon="2.27724">
        <ele>32.01208</ele>
        <time>2026-07-19T10:29:25.547Z</time>
      </trkpt>
      <trkpt lat="48.83797" lon="2.27721">
        <ele>31.99956</ele>
        <time>2026-07-19T10:29:28.546Z</time>
      </trkpt>
      <trkpt lat="48.83799" lon="2.2772">
        <ele>31.98522</ele>
        <time>2026-07-19T10:29:31.546Z</time>
      </trkpt>
      <trkpt lat="48.838" lon="2.27717">
        <ele>31.96371</ele>
        <time>2026-07-19T10:29:34.546Z</time>
      </trkpt>
      <trkpt lat="48.83802" lon="2.27715">
        <ele>31.94055</ele>
        <time>2026-07-19T10:29:37.547Z</time>
      </trkpt>
      <trkpt lat="48.83804" lon="2.27712">
        <ele>31.92169</ele>
        <time>2026-07-19T10:29:40.547Z</time>
      </trkpt>
      <trkpt lat="48.83807" lon="2.2771">
        <ele>31.90481</ele>
        <time>2026-07-19T10:29:43.547Z</time>
      </trkpt>
      <trkpt lat="48.83809" lon="2.27708">
        <ele>31.88544</ele>
        <time>2026-07-19T10:29:46.547Z</time>
      </trkpt>
      <trkpt lat="48.83811" lon="2.27706">
        <ele>31.82013</ele>
        <time>2026-07-19T10:30:00.547Z</time>
      </trkpt>
      <trkpt lat="48.83813" lon="2.27704">
        <ele>31.79622</ele>
        <time>2026-07-19T10:30:06.547Z</time>
      </trkpt>
      <trkpt lat="48.83816" lon="2.27704">
        <ele>31.78443</ele>
        <time>2026-07-19T10:30:09.547Z</time>
      </trkpt>
      <trkpt lat="48.83819" lon="2.27703">
        <ele>31.77312</ele>
        <time>2026-07-19T10:30:12.548Z</time>
      </trkpt>
      <trkpt lat="48.83822" lon="2.27701">
        <ele>31.75956</ele>
        <time>2026-07-19T10:30:15.548Z</time>
      </trkpt>
      <trkpt lat="48.83825" lon="2.27699">
        <ele>31.74514</ele>
        <time>2026-07-19T10:30:18.547Z</time>
      </trkpt>
      <trkpt lat="48.83828" lon="2.27698">
        <ele>31.7219</ele>
        <time>2026-07-19T10:30:21.548Z</time>
      </trkpt>
      <trkpt lat="48.83832" lon="2.27697">
        <ele>31.68787</ele>
        <time>2026-07-19T10:30:24.548Z</time>
      </trkpt>
      <trkpt lat="48.83834" lon="2.27696">
        <ele>31.66084</ele>
        <time>2026-07-19T10:30:26.548Z</time>
      </trkpt>
      <trkpt lat="48.83836" lon="2.27695">
        <ele>31.6313</ele>
        <time>2026-07-19T10:30:28.548Z</time>
      </trkpt>
      <trkpt lat="48.83839" lon="2.27695">
        <ele>31.59546</ele>
        <time>2026-07-19T10:30:30.547Z</time>
      </trkpt>
      <trkpt lat="48.83841" lon="2.27695">
        <ele>31.4861</ele>
        <time>2026-07-19T10:30:34.549Z</time>
      </trkpt>
      <trkpt lat="48.83844" lon="2.27694">
        <ele>31.00885</ele>
        <time>2026-07-19T10:30:45.548Z</time>
      </trkpt>
      <trkpt lat="48.83846" lon="2.27693">
        <ele>30.78818</ele>
        <time>2026-07-19T10:30:49.548Z</time>
      </trkpt>
      <trkpt lat="48.83847" lon="2.27689">
        <ele>30.40806</ele>
        <time>2026-07-19T10:30:57.548Z</time>
      </trkpt>
      <trkpt lat="48.83847" lon="2.27686">
        <ele>30.27651</ele>
        <time>2026-07-19T10:31:05.549Z</time>
      </trkpt>
      <trkpt lat="48.83847" lon="2.27682">
        <ele>30.22006</ele>
        <time>2026-07-19T10:31:08.549Z</time>
      </trkpt>
      <trkpt lat="48.83847" lon="2.27678">
        <ele>30.16472</ele>
        <time>2026-07-19T10:31:11.549Z</time>
      </trkpt>
      <trkpt lat="48.8385" lon="2.27677">
        <ele>30.06615</ele>
        <time>2026-07-19T10:31:15.548Z</time>
      </trkpt>
      <trkpt lat="48.83853" lon="2.27678">
        <ele>30.00767</ele>
        <time>2026-07-19T10:31:18.549Z</time>
      </trkpt>
      <trkpt lat="48.83856" lon="2.27679">
        <ele>29.97977</ele>
        <time>2026-07-19T10:31:20.549Z</time>
      </trkpt>
      <trkpt lat="48.83858" lon="2.2768">
        <ele>29.95334</ele>
        <time>2026-07-19T10:31:22.549Z</time>
      </trkpt>
      <trkpt lat="48.83861" lon="2.2768">
        <ele>29.92074</ele>
        <time>2026-07-19T10:31:25.549Z</time>
      </trkpt>
      <trkpt lat="48.83864" lon="2.2768">
        <ele>29.89853</ele>
        <time>2026-07-19T10:31:27.549Z</time>
      </trkpt>
      <trkpt lat="48.83867" lon="2.27679">
        <ele>29.88162</ele>
        <time>2026-07-19T10:31:29.549Z</time>
      </trkpt>
      <trkpt lat="48.83869" lon="2.27678">
        <ele>29.87397</ele>
        <time>2026-07-19T10:31:31.549Z</time>
      </trkpt>
      <trkpt lat="48.83872" lon="2.27676">
        <ele>29.86104</ele>
        <time>2026-07-19T10:31:34.549Z</time>
      </trkpt>
      <trkpt lat="48.83875" lon="2.27674">
        <ele>29.85942</ele>
        <time>2026-07-19T10:31:37.549Z</time>
      </trkpt>
      <trkpt lat="48.83877" lon="2.27674">
        <ele>29.86093</ele>
        <time>2026-07-19T10:31:39.549Z</time>
      </trkpt>
      <trkpt lat="48.8388" lon="2.27673">
        <ele>29.86</ele>
        <time>2026-07-19T10:31:41.551Z</time>
      </trkpt>
      <trkpt lat="48.83882" lon="2.27673">
        <ele>29.86448</ele>
        <time>2026-07-19T10:31:44.550Z</time>
      </trkpt>
      <trkpt lat="48.83885" lon="2.2767">
        <ele>29.87401</ele>
        <time>2026-07-19T10:31:47.549Z</time>
      </trkpt>
      <trkpt lat="48.83887" lon="2.27668">
        <ele>29.88311</ele>
        <time>2026-07-19T10:31:49.549Z</time>
      </trkpt>
      <trkpt lat="48.83889" lon="2.27667">
        <ele>29.8896</ele>
        <time>2026-07-19T10:31:51.550Z</time>
      </trkpt>
      <trkpt lat="48.83891" lon="2.27665">
        <ele>29.89292</ele>
        <time>2026-07-19T10:31:53.550Z</time>
      </trkpt>
      <trkpt lat="48.83894" lon="2.27663">
        <ele>29.89635</ele>
        <time>2026-07-19T10:31:56.550Z</time>
      </trkpt>
      <trkpt lat="48.83896" lon="2.27661">
        <ele>29.90018</ele>
        <time>2026-07-19T10:31:59.549Z</time>
      </trkpt>
      <trkpt lat="48.83898" lon="2.27659">
        <ele>29.90331</ele>
        <time>2026-07-19T10:32:01.550Z</time>
      </trkpt>
      <trkpt lat="48.83901" lon="2.27657">
        <ele>29.90702</ele>
        <time>2026-07-19T10:32:04.550Z</time>
      </trkpt>
      <trkpt lat="48.83904" lon="2.27655">
        <ele>29.9101</ele>
        <time>2026-07-19T10:32:07.550Z</time>
      </trkpt>
      <trkpt lat="48.83906" lon="2.27654">
        <ele>29.91198</ele>
        <time>2026-07-19T10:32:09.550Z</time>
      </trkpt>
      <trkpt lat="48.83909" lon="2.27654">
        <ele>29.91317</ele>
        <time>2026-07-19T10:32:11.550Z</time>
      </trkpt>
      <trkpt lat="48.83911" lon="2.27653">
        <ele>29.91334</ele>
        <time>2026-07-19T10:32:13.549Z</time>
      </trkpt>
      <trkpt lat="48.83913" lon="2.27651">
        <ele>29.91311</ele>
        <time>2026-07-19T10:32:15.550Z</time>
      </trkpt>
      <trkpt lat="48.83915" lon="2.2765">
        <ele>29.91317</ele>
        <time>2026-07-19T10:32:17.550Z</time>
      </trkpt>
      <trkpt lat="48.83918" lon="2.27648">
        <ele>29.91418</ele>
        <time>2026-07-19T10:32:20.550Z</time>
      </trkpt>
      <trkpt lat="48.83921" lon="2.27647">
        <ele>29.91445</ele>
        <time>2026-07-19T10:32:23.550Z</time>
      </trkpt>
      <trkpt lat="48.83923" lon="2.27646">
        <ele>29.91415</ele>
        <time>2026-07-19T10:32:25.551Z</time>
      </trkpt>
      <trkpt lat="48.83925" lon="2.27644">
        <ele>29.91373</ele>
        <time>2026-07-19T10:32:28.550Z</time>
      </trkpt>
      <trkpt lat="48.83928" lon="2.27643">
        <ele>29.91331</ele>
        <time>2026-07-19T10:32:31.551Z</time>
      </trkpt>
      <trkpt lat="48.83932" lon="2.27641">
        <ele>29.91297</ele>
        <time>2026-07-19T10:32:34.550Z</time>
      </trkpt>
      <trkpt lat="48.83934" lon="2.27639">
        <ele>29.91312</ele>
        <time>2026-07-19T10:32:37.552Z</time>
      </trkpt>
      <trkpt lat="48.83937" lon="2.27637">
        <ele>29.91382</ele>
        <time>2026-07-19T10:32:40.551Z</time>
      </trkpt>
      <trkpt lat="48.8394" lon="2.27636">
        <ele>29.915</ele>
        <time>2026-07-19T10:32:43.551Z</time>
      </trkpt>
      <trkpt lat="48.83942" lon="2.27635">
        <ele>29.9229</ele>
        <time>2026-07-19T10:32:46.550Z</time>
      </trkpt>
      <trkpt lat="48.83945" lon="2.27633">
        <ele>29.97199</ele>
        <time>2026-07-19T10:32:57.550Z</time>
      </trkpt>
      <trkpt lat="48.83948" lon="2.27632">
        <ele>29.98058</ele>
        <time>2026-07-19T10:32:59.550Z</time>
      </trkpt>
      <trkpt lat="48.8395" lon="2.2763">
        <ele>29.99316</ele>
        <time>2026-07-19T10:33:01.551Z</time>
      </trkpt>
      <trkpt lat="48.83953" lon="2.27629">
        <ele>30.00806</ele>
        <time>2026-07-19T10:33:03.550Z</time>
      </trkpt>
      <trkpt lat="48.83955" lon="2.27627">
        <ele>30.02556</ele>
        <time>2026-07-19T10:33:05.551Z</time>
      </trkpt>
      <trkpt lat="48.83957" lon="2.27626">
        <ele>30.04596</ele>
        <time>2026-07-19T10:33:07.551Z</time>
      </trkpt>
      <trkpt lat="48.8396" lon="2.27624">
        <ele>30.06963</ele>
        <time>2026-07-19T10:33:10.551Z</time>
      </trkpt>
      <trkpt lat="48.83963" lon="2.27623">
        <ele>30.08249</ele>
        <time>2026-07-19T10:33:13.552Z</time>
      </trkpt>
      <trkpt lat="48.83965" lon="2.27621">
        <ele>30.08587</ele>
        <time>2026-07-19T10:33:16.551Z</time>
      </trkpt>
      <trkpt lat="48.83968" lon="2.27619">
        <ele>30.0826</ele>
        <time>2026-07-19T10:33:19.551Z</time>
      </trkpt>
      <trkpt lat="48.8397" lon="2.27618">
        <ele>30.079</ele>
        <time>2026-07-19T10:33:22.551Z</time>
      </trkpt>
      <trkpt lat="48.83973" lon="2.27616">
        <ele>30.08722</ele>
        <time>2026-07-19T10:33:25.551Z</time>
      </trkpt>
      <trkpt lat="48.83976" lon="2.27614">
        <ele>30.09621</ele>
        <time>2026-07-19T10:33:28.551Z</time>
      </trkpt>
      <trkpt lat="48.83978" lon="2.27612">
        <ele>30.10215</ele>
        <time>2026-07-19T10:33:31.552Z</time>
      </trkpt>
      <trkpt lat="48.83979" lon="2.27607">
        <ele>30.11544</ele>
        <time>2026-07-19T10:33:35.552Z</time>
      </trkpt>
      <trkpt lat="48.83979" lon="2.27603">
        <ele>30.14184</ele>
        <time>2026-07-19T10:33:37.552Z</time>
      </trkpt>
      <trkpt lat="48.8398" lon="2.27599">
        <ele>30.21202</ele>
        <time>2026-07-19T10:33:39.552Z</time>
      </trkpt>
      <trkpt lat="48.83982" lon="2.27595">
        <ele>30.38678</ele>
        <time>2026-07-19T10:33:42.552Z</time>
      </trkpt>
      <trkpt lat="48.83983" lon="2.27591">
        <ele>30.55878</ele>
        <time>2026-07-19T10:33:44.552Z</time>
      </trkpt>
      <trkpt lat="48.83982" lon="2.27588">
        <ele>30.91448</ele>
        <time>2026-07-19T10:33:48.552Z</time>
      </trkpt>
      <trkpt lat="48.8398" lon="2.27586">
        <ele>31.04685</ele>
        <time>2026-07-19T10:33:50.552Z</time>
      </trkpt>
      <trkpt lat="48.83977" lon="2.27585">
        <ele>31.21195</ele>
        <time>2026-07-19T10:33:53.552Z</time>
      </trkpt>
      <trkpt lat="48.83975" lon="2.27583">
        <ele>31.34221</ele>
        <time>2026-07-19T10:33:56.552Z</time>
      </trkpt>
      <trkpt lat="48.83978" lon="2.27585">
        <ele>31.66239</ele>
        <time>2026-07-19T10:34:08.552Z</time>
      </trkpt>
      <trkpt lat="48.83981" lon="2.27587">
        <ele>31.67203</ele>
        <time>2026-07-19T10:34:10.553Z</time>
      </trkpt>
      <trkpt lat="48.83983" lon="2.27589">
        <ele>31.68005</ele>
        <time>2026-07-19T10:34:13.552Z</time>
      </trkpt>
      <trkpt lat="48.83986" lon="2.27587">
        <ele>31.69651</ele>
        <time>2026-07-19T10:34:17.553Z</time>
      </trkpt>
      <trkpt lat="48.83987" lon="2.27585">
        <ele>31.70547</ele>
        <time>2026-07-19T10:34:19.553Z</time>
      </trkpt>
      <trkpt lat="48.83989" lon="2.27581">
        <ele>31.72436</ele>
        <time>2026-07-19T10:34:22.552Z</time>
      </trkpt>
      <trkpt lat="48.83991" lon="2.27579">
        <ele>31.75308</ele>
        <time>2026-07-19T10:34:25.553Z</time>
      </trkpt>
      <trkpt lat="48.83991" lon="2.27575">
        <ele>31.86473</ele>
        <time>2026-07-19T10:34:31.553Z</time>
      </trkpt>
      <trkpt lat="48.83994" lon="2.27578">
        <ele>32.00364</ele>
        <time>2026-07-19T10:34:49.553Z</time>
      </trkpt>
      <trkpt lat="48.83996" lon="2.27579">
        <ele>31.99689</ele>
        <time>2026-07-19T10:34:51.554Z</time>
      </trkpt>
      <trkpt lat="48.83999" lon="2.27579">
        <ele>31.98275</ele>
        <time>2026-07-19T10:34:54.553Z</time>
      </trkpt>
      <trkpt lat="48.84001" lon="2.27577">
        <ele>31.95883</ele>
        <time>2026-07-19T10:34:58.554Z</time>
      </trkpt>
      <trkpt lat="48.83998" lon="2.27576">
        <ele>31.73693</ele>
        <time>2026-07-19T10:36:08.555Z</time>
      </trkpt>
      <trkpt lat="48.83995" lon="2.27576">
        <ele>31.73231</ele>
        <time>2026-07-19T10:36:11.555Z</time>
      </trkpt>
      <trkpt lat="48.83992" lon="2.27575">
        <ele>31.72879</ele>
        <time>2026-07-19T10:36:13.555Z</time>
      </trkpt>
      <trkpt lat="48.8399" lon="2.27578">
        <ele>31.69342</ele>
        <time>2026-07-19T10:36:26.555Z</time>
      </trkpt>
      <trkpt lat="48.83988" lon="2.27581">
        <ele>31.3706</ele>
        <time>2026-07-19T10:38:02.558Z</time>
      </trkpt>
      <trkpt lat="48.83986" lon="2.27583">
        <ele>31.35082</ele>
        <time>2026-07-19T10:38:06.558Z</time>
      </trkpt>
      <trkpt lat="48.83984" lon="2.27585">
        <ele>33.38466</ele>
        <time>2026-07-19T10:47:57.571Z</time>
      </trkpt>
      <trkpt lat="48.83986" lon="2.27581">
        <ele>33.37031</ele>
        <time>2026-07-19T10:52:03.576Z</time>
      </trkpt>
      <trkpt lat="48.83988" lon="2.27577">
        <ele>33.37003</ele>
        <time>2026-07-19T10:52:06.576Z</time>
      </trkpt>
      <trkpt lat="48.8399" lon="2.27575">
        <ele>33.14951</ele>
        <time>2026-07-19T11:02:46.589Z</time>
      </trkpt>
      <trkpt lat="48.83988" lon="2.27579">
        <ele>33.08154</ele>
        <time>2026-07-19T11:03:06.591Z</time>
      </trkpt>
      <trkpt lat="48.83986" lon="2.27582">
        <ele>33.03993</ele>
        <time>2026-07-19T11:03:22.591Z</time>
      </trkpt>
      <trkpt lat="48.83987" lon="2.27578">
        <ele>33.02597</ele>
        <time>2026-07-19T11:03:34.590Z</time>
      </trkpt>
      <trkpt lat="48.83988" lon="2.27575">
        <ele>33.01826</ele>
        <time>2026-07-19T11:03:38.591Z</time>
      </trkpt>
      <trkpt lat="48.83988" lon="2.2758">
        <ele>32.74937</ele>
        <time>2026-07-19T11:05:13.593Z</time>
      </trkpt>
      <trkpt lat="48.83987" lon="2.27583">
        <ele>32.69033</ele>
        <time>2026-07-19T11:05:21.593Z</time>
      </trkpt>
      <trkpt lat="48.83986" lon="2.27586">
        <ele>32.65574</ele>
        <time>2026-07-19T11:05:25.593Z</time>
      </trkpt>
      <trkpt lat="48.83987" lon="2.27583">
        <ele>32.49669</ele>
        <time>2026-07-19T11:05:39.593Z</time>
      </trkpt>
      <trkpt lat="48.83988" lon="2.27579">
        <ele>32.33654</ele>
        <time>2026-07-19T11:05:51.594Z</time>
      </trkpt>
      <trkpt lat="48.83989" lon="2.27577">
        <ele>33.84654</ele>
        <time>2026-07-19T11:10:12.599Z</time>
      </trkpt>
      <trkpt lat="48.83988" lon="2.27575">
        <ele>32.52328</ele>
        <time>2026-07-19T11:20:53.613Z</time>
      </trkpt>
      <trkpt lat="48.8399" lon="2.27572">
        <ele>34.44217</ele>
        <time>2026-07-19T11:23:07.616Z</time>
      </trkpt>
      <trkpt lat="48.83991" lon="2.27575">
        <ele>34.84318</ele>
        <time>2026-07-19T11:24:11.616Z</time>
      </trkpt>
      <trkpt lat="48.83991" lon="2.2758">
        <ele>34.84801</ele>
        <time>2026-07-19T11:24:13.618Z</time>
      </trkpt>
      <trkpt lat="48.83988" lon="2.27583">
        <ele>34.85129</ele>
        <time>2026-07-19T11:24:15.617Z</time>
      </trkpt>
      <trkpt lat="48.83986" lon="2.27586">
        <ele>34.85609</ele>
        <time>2026-07-19T11:24:18.617Z</time>
      </trkpt>
      <trkpt lat="48.83986" lon="2.27583">
        <ele>33.62939</ele>
        <time>2026-07-19T11:24:49.619Z</time>
      </trkpt>
      <trkpt lat="48.83986" lon="2.2758">
        <ele>33.46953</ele>
        <time>2026-07-19T11:24:53.618Z</time>
      </trkpt>
      <trkpt lat="48.83988" lon="2.2758">
        <ele>34.46171</ele>
        <time>2026-07-19T11:27:36.621Z</time>
      </trkpt>
      <trkpt lat="48.83991" lon="2.27582">
        <ele>34.53555</ele>
        <time>2026-07-19T11:27:41.621Z</time>
      </trkpt>
      <trkpt lat="48.83993" lon="2.27584">
        <ele>34.55816</ele>
        <time>2026-07-19T11:27:44.621Z</time>
      </trkpt>
      <trkpt lat="48.83995" lon="2.27586">
        <ele>34.56489</ele>
        <time>2026-07-19T11:27:48.622Z</time>
      </trkpt>
      <trkpt lat="48.83997" lon="2.27583">
        <ele>34.55325</ele>
        <time>2026-07-19T11:27:52.622Z</time>
      </trkpt>
      <trkpt lat="48.83999" lon="2.2758">
        <ele>34.5425</ele>
        <time>2026-07-19T11:27:55.622Z</time>
      </trkpt>
      <trkpt lat="48.84" lon="2.27577">
        <ele>34.52792</ele>
        <time>2026-07-19T11:27:58.622Z</time>
      </trkpt>
      <trkpt lat="48.84001" lon="2.27573">
        <ele>34.51046</ele>
        <time>2026-07-19T11:28:01.622Z</time>
      </trkpt>
      <trkpt lat="48.84003" lon="2.2757">
        <ele>34.49282</ele>
        <time>2026-07-19T11:28:04.621Z</time>
      </trkpt>
      <trkpt lat="48.84004" lon="2.27567">
        <ele>34.47372</ele>
        <time>2026-07-19T11:28:07.621Z</time>
      </trkpt>
      <trkpt lat="48.84006" lon="2.27563">
        <ele>34.4479</ele>
        <time>2026-07-19T11:28:11.622Z</time>
      </trkpt>
      <trkpt lat="48.84007" lon="2.27559">
        <ele>34.42754</ele>
        <time>2026-07-19T11:28:14.622Z</time>
      </trkpt>
      <trkpt lat="48.84008" lon="2.27556">
        <ele>34.40133</ele>
        <time>2026-07-19T11:28:17.622Z</time>
      </trkpt>
      <trkpt lat="48.84009" lon="2.27552">
        <ele>34.36694</ele>
        <time>2026-07-19T11:28:20.622Z</time>
      </trkpt>
      <trkpt lat="48.84011" lon="2.2755">
        <ele>34.2916</ele>
        <time>2026-07-19T11:28:24.622Z</time>
      </trkpt>
      <trkpt lat="48.84013" lon="2.27547">
        <ele>34.19648</ele>
        <time>2026-07-19T11:28:27.622Z</time>
      </trkpt>
      <trkpt lat="48.84014" lon="2.27543">
        <ele>34.10591</ele>
        <time>2026-07-19T11:28:30.622Z</time>
      </trkpt>
      <trkpt lat="48.84016" lon="2.2754">
        <ele>34.05476</ele>
        <time>2026-07-19T11:28:33.622Z</time>
      </trkpt>
      <trkpt lat="48.84017" lon="2.27536">
        <ele>33.9961</ele>
        <time>2026-07-19T11:28:36.623Z</time>
      </trkpt>
      <trkpt lat="48.84018" lon="2.27532">
        <ele>33.92403</ele>
        <time>2026-07-19T11:28:39.622Z</time>
      </trkpt>
      <trkpt lat="48.84019" lon="2.27527">
        <ele>33.82458</ele>
        <time>2026-07-19T11:28:42.623Z</time>
      </trkpt>
      <trkpt lat="48.84021" lon="2.27524">
        <ele>33.70766</ele>
        <time>2026-07-19T11:28:45.623Z</time>
      </trkpt>
      <trkpt lat="48.84022" lon="2.27521">
        <ele>33.52796</ele>
        <time>2026-07-19T11:28:49.623Z</time>
      </trkpt>
      <trkpt lat="48.84023" lon="2.27518">
        <ele>33.37664</ele>
        <time>2026-07-19T11:28:52.624Z</time>
      </trkpt>
      <trkpt lat="48.84025" lon="2.27515">
        <ele>33.23295</ele>
        <time>2026-07-19T11:28:55.623Z</time>
      </trkpt>
      <trkpt lat="48.84026" lon="2.27512">
        <ele>33.07103</ele>
        <time>2026-07-19T11:28:58.622Z</time>
      </trkpt>
      <trkpt lat="48.84027" lon="2.27508">
        <ele>32.89227</ele>
        <time>2026-07-19T11:29:02.623Z</time>
      </trkpt>
      <trkpt lat="48.84028" lon="2.27505">
        <ele>32.77256</ele>
        <time>2026-07-19T11:29:05.623Z</time>
      </trkpt>
      <trkpt lat="48.8403" lon="2.27502">
        <ele>32.62655</ele>
        <time>2026-07-19T11:29:09.623Z</time>
      </trkpt>
      <trkpt lat="48.84032" lon="2.27498">
        <ele>32.5299</ele>
        <time>2026-07-19T11:29:12.623Z</time>
      </trkpt>
      <trkpt lat="48.84034" lon="2.27495">
        <ele>32.43348</ele>
        <time>2026-07-19T11:29:15.623Z</time>
      </trkpt>
      <trkpt lat="48.84035" lon="2.27492">
        <ele>32.34817</ele>
        <time>2026-07-19T11:29:18.623Z</time>
      </trkpt>
      <trkpt lat="48.84037" lon="2.27488">
        <ele>32.28138</ele>
        <time>2026-07-19T11:29:21.623Z</time>
      </trkpt>
      <trkpt lat="48.84038" lon="2.27484">
        <ele>32.23415</ele>
        <time>2026-07-19T11:29:24.624Z</time>
      </trkpt>
      <trkpt lat="48.84039" lon="2.27481">
        <ele>32.19553</ele>
        <time>2026-07-19T11:29:27.624Z</time>
      </trkpt>
      <trkpt lat="48.8404" lon="2.27477">
        <ele>32.16388</ele>
        <time>2026-07-19T11:29:30.624Z</time>
      </trkpt>
      <trkpt lat="48.84041" lon="2.27473">
        <ele>32.14345</ele>
        <time>2026-07-19T11:29:33.624Z</time>
      </trkpt>
      <trkpt lat="48.84042" lon="2.2747">
        <ele>32.12193</ele>
        <time>2026-07-19T11:29:37.624Z</time>
      </trkpt>
      <trkpt lat="48.84044" lon="2.27465">
        <ele>32.09112</ele>
        <time>2026-07-19T11:29:41.624Z</time>
      </trkpt>
      <trkpt lat="48.84045" lon="2.27461">
        <ele>32.0655</ele>
        <time>2026-07-19T11:29:44.624Z</time>
      </trkpt>
      <trkpt lat="48.84046" lon="2.27458">
        <ele>32.05169</ele>
        <time>2026-07-19T11:29:46.624Z</time>
      </trkpt>
      <trkpt lat="48.84047" lon="2.27455">
        <ele>32.02729</ele>
        <time>2026-07-19T11:29:49.625Z</time>
      </trkpt>
      <trkpt lat="48.84048" lon="2.27451">
        <ele>32.00219</ele>
        <time>2026-07-19T11:29:52.624Z</time>
      </trkpt>
      <trkpt lat="48.8405" lon="2.27446">
        <ele>31.97176</ele>
        <time>2026-07-19T11:29:56.624Z</time>
      </trkpt>
      <trkpt lat="48.84051" lon="2.27443">
        <ele>31.93692</ele>
        <time>2026-07-19T11:30:00.626Z</time>
      </trkpt>
      <trkpt lat="48.84052" lon="2.27439">
        <ele>31.90996</ele>
        <time>2026-07-19T11:30:04.625Z</time>
      </trkpt>
      <trkpt lat="48.84055" lon="2.27438">
        <ele>31.89985</ele>
        <time>2026-07-19T11:30:08.624Z</time>
      </trkpt>
      <trkpt lat="48.84057" lon="2.27436">
        <ele>31.88555</ele>
        <time>2026-07-19T11:30:16.625Z</time>
      </trkpt>
      <trkpt lat="48.84059" lon="2.27438">
        <ele>31.87752</ele>
        <time>2026-07-19T11:30:24.625Z</time>
      </trkpt>
      <trkpt lat="48.84059" lon="2.27434">
        <ele>34.69721</ele>
        <time>2026-07-19T11:33:00.628Z</time>
      </trkpt>
      <trkpt lat="48.8406" lon="2.2743">
        <ele>34.6976</ele>
        <time>2026-07-19T11:33:03.628Z</time>
      </trkpt>
      <trkpt lat="48.84061" lon="2.27426">
        <ele>34.6947</ele>
        <time>2026-07-19T11:33:06.628Z</time>
      </trkpt>
      <trkpt lat="48.84062" lon="2.27423">
        <ele>34.69325</ele>
        <time>2026-07-19T11:33:09.628Z</time>
      </trkpt>
      <trkpt lat="48.84064" lon="2.27419">
        <ele>34.68983</ele>
        <time>2026-07-19T11:33:12.628Z</time>
      </trkpt>
      <trkpt lat="48.84065" lon="2.27415">
        <ele>34.68514</ele>
        <time>2026-07-19T11:33:15.628Z</time>
      </trkpt>
      <trkpt lat="48.84067" lon="2.27411">
        <ele>34.67997</ele>
        <time>2026-07-19T11:33:18.629Z</time>
      </trkpt>
      <trkpt lat="48.84068" lon="2.27408">
        <ele>34.67412</ele>
        <time>2026-07-19T11:33:21.628Z</time>
      </trkpt>
      <trkpt lat="48.84069" lon="2.27404">
        <ele>34.6656</ele>
        <time>2026-07-19T11:33:24.628Z</time>
      </trkpt>
      <trkpt lat="48.8407" lon="2.27401">
        <ele>34.65578</ele>
        <time>2026-07-19T11:33:27.629Z</time>
      </trkpt>
      <trkpt lat="48.84072" lon="2.27398">
        <ele>34.64931</ele>
        <time>2026-07-19T11:33:29.629Z</time>
      </trkpt>
      <trkpt lat="48.84073" lon="2.27394">
        <ele>34.64288</ele>
        <time>2026-07-19T11:33:32.629Z</time>
      </trkpt>
      <trkpt lat="48.84074" lon="2.2739">
        <ele>34.63581</ele>
        <time>2026-07-19T11:33:35.629Z</time>
      </trkpt>
      <trkpt lat="48.84076" lon="2.27386">
        <ele>34.62452</ele>
        <time>2026-07-19T11:33:38.629Z</time>
      </trkpt>
      <trkpt lat="48.84077" lon="2.27383">
        <ele>34.61048</ele>
        <time>2026-07-19T11:33:40.629Z</time>
      </trkpt>
      <trkpt lat="48.84078" lon="2.2738">
        <ele>34.58621</ele>
        <time>2026-07-19T11:33:42.629Z</time>
      </trkpt>
      <trkpt lat="48.84079" lon="2.27376">
        <ele>34.5413</ele>
        <time>2026-07-19T11:33:45.629Z</time>
      </trkpt>
      <trkpt lat="48.84081" lon="2.27372">
        <ele>34.4935</ele>
        <time>2026-07-19T11:33:48.629Z</time>
      </trkpt>
      <trkpt lat="48.84082" lon="2.27369">
        <ele>34.45848</ele>
        <time>2026-07-19T11:33:50.630Z</time>
      </trkpt>
      <trkpt lat="48.84083" lon="2.27365">
        <ele>34.40675</ele>
        <time>2026-07-19T11:33:53.629Z</time>
      </trkpt>
      <trkpt lat="48.84084" lon="2.27362">
        <ele>34.35512</ele>
        <time>2026-07-19T11:33:56.629Z</time>
      </trkpt>
      <trkpt lat="48.84086" lon="2.27358">
        <ele>34.30529</ele>
        <time>2026-07-19T11:33:59.630Z</time>
      </trkpt>
      <trkpt lat="48.84088" lon="2.27355">
        <ele>34.26214</ele>
        <time>2026-07-19T11:34:02.629Z</time>
      </trkpt>
      <trkpt lat="48.84089" lon="2.2735">
        <ele>34.20939</ele>
        <time>2026-07-19T11:34:05.630Z</time>
      </trkpt>
      <trkpt lat="48.8409" lon="2.27346">
        <ele>34.15822</ele>
        <time>2026-07-19T11:34:08.630Z</time>
      </trkpt>
      <trkpt lat="48.84092" lon="2.27343">
        <ele>34.09981</ele>
        <time>2026-07-19T11:34:11.630Z</time>
      </trkpt>
      <trkpt lat="48.84094" lon="2.2734">
        <ele>34.06994</ele>
        <time>2026-07-19T11:34:13.629Z</time>
      </trkpt>
      <trkpt lat="48.84095" lon="2.27336">
        <ele>34.02727</ele>
        <time>2026-07-19T11:34:16.630Z</time>
      </trkpt>
      <trkpt lat="48.84097" lon="2.27332">
        <ele>33.98622</ele>
        <time>2026-07-19T11:34:19.630Z</time>
      </trkpt>
      <trkpt lat="48.84098" lon="2.27329">
        <ele>33.95358</ele>
        <time>2026-07-19T11:34:22.630Z</time>
      </trkpt>
      <trkpt lat="48.841" lon="2.27325">
        <ele>33.92375</ele>
        <time>2026-07-19T11:34:26.630Z</time>
      </trkpt>
      <trkpt lat="48.84101" lon="2.27322">
        <ele>33.90515</ele>
        <time>2026-07-19T11:34:29.629Z</time>
      </trkpt>
      <trkpt lat="48.84103" lon="2.27318">
        <ele>33.87852</ele>
        <time>2026-07-19T11:34:32.630Z</time>
      </trkpt>
      <trkpt lat="48.84105" lon="2.27315">
        <ele>33.85785</ele>
        <time>2026-07-19T11:34:35.630Z</time>
      </trkpt>
      <trkpt lat="48.84106" lon="2.2731">
        <ele>33.84449</ele>
        <time>2026-07-19T11:34:38.630Z</time>
      </trkpt>
      <trkpt lat="48.84107" lon="2.27306">
        <ele>33.82884</ele>
        <time>2026-07-19T11:34:41.630Z</time>
      </trkpt>
      <trkpt lat="48.84108" lon="2.27303">
        <ele>33.80422</ele>
        <time>2026-07-19T11:34:44.630Z</time>
      </trkpt>
      <trkpt lat="48.8411" lon="2.27299">
        <ele>33.77161</ele>
        <time>2026-07-19T11:34:48.630Z</time>
      </trkpt>
      <trkpt lat="48.84111" lon="2.27296">
        <ele>33.75583</ele>
        <time>2026-07-19T11:34:50.630Z</time>
      </trkpt>
      <trkpt lat="48.84113" lon="2.27292">
        <ele>33.72699</ele>
        <time>2026-07-19T11:34:53.631Z</time>
      </trkpt>
      <trkpt lat="48.84115" lon="2.27289">
        <ele>33.6815</ele>
        <time>2026-07-19T11:34:56.631Z</time>
      </trkpt>
      <trkpt lat="48.84116" lon="2.27285">
        <ele>33.62583</ele>
        <time>2026-07-19T11:34:59.630Z</time>
      </trkpt>
      <trkpt lat="48.84119" lon="2.27282">
        <ele>33.58836</ele>
        <time>2026-07-19T11:35:02.630Z</time>
      </trkpt>
      <trkpt lat="48.8412" lon="2.27278">
        <ele>33.55917</ele>
        <time>2026-07-19T11:35:05.630Z</time>
      </trkpt>
      <trkpt lat="48.84121" lon="2.27274">
        <ele>33.52939</ele>
        <time>2026-07-19T11:35:08.631Z</time>
      </trkpt>
      <trkpt lat="48.84119" lon="2.27272">
        <ele>33.48966</ele>
        <time>2026-07-19T11:35:12.630Z</time>
      </trkpt>
      <trkpt lat="48.84117" lon="2.2727">
        <ele>33.44151</ele>
        <time>2026-07-19T11:35:15.632Z</time>
      </trkpt>
      <trkpt lat="48.84115" lon="2.27268">
        <ele>33.36873</ele>
        <time>2026-07-19T11:35:19.631Z</time>
      </trkpt>
      <trkpt lat="48.84112" lon="2.27266">
        <ele>33.31562</ele>
        <time>2026-07-19T11:35:22.631Z</time>
      </trkpt>
      <trkpt lat="48.8411" lon="2.27264">
        <ele>33.25762</ele>
        <time>2026-07-19T11:35:25.632Z</time>
      </trkpt>
      <trkpt lat="48.84107" lon="2.27261">
        <ele>33.19174</ele>
        <time>2026-07-19T11:35:29.631Z</time>
      </trkpt>
      <trkpt lat="48.84105" lon="2.27259">
        <ele>33.15989</ele>
        <time>2026-07-19T11:35:31.631Z</time>
      </trkpt>
      <trkpt lat="48.84102" lon="2.27257">
        <ele>33.13346</ele>
        <time>2026-07-19T11:35:33.631Z</time>
      </trkpt>
      <trkpt lat="48.841" lon="2.27256">
        <ele>33.10783</ele>
        <time>2026-07-19T11:35:36.632Z</time>
      </trkpt>
      <trkpt lat="48.84097" lon="2.27254">
        <ele>33.08655</ele>
        <time>2026-07-19T11:35:39.631Z</time>
      </trkpt>
      <trkpt lat="48.84095" lon="2.27251">
        <ele>33.05851</ele>
        <time>2026-07-19T11:35:42.632Z</time>
      </trkpt>
      <trkpt lat="48.84093" lon="2.27249">
        <ele>33.03305</ele>
        <time>2026-07-19T11:35:45.632Z</time>
      </trkpt>
      <trkpt lat="48.8409" lon="2.27247">
        <ele>33.00325</ele>
        <time>2026-07-19T11:35:48.631Z</time>
      </trkpt>
      <trkpt lat="48.84087" lon="2.27244">
        <ele>32.97553</ele>
        <time>2026-07-19T11:35:51.632Z</time>
      </trkpt>
      <trkpt lat="48.84085" lon="2.27242">
        <ele>32.94607</ele>
        <time>2026-07-19T11:35:56.176Z</time>
      </trkpt>
      <trkpt lat="48.84083" lon="2.27239">
        <ele>32.92407</ele>
        <time>2026-07-19T11:35:57.632Z</time>
      </trkpt>
      <trkpt lat="48.84081" lon="2.27237">
        <ele>32.88538</ele>
        <time>2026-07-19T11:36:01.632Z</time>
      </trkpt>
      <trkpt lat="48.84079" lon="2.27235">
        <ele>32.83348</ele>
        <time>2026-07-19T11:36:05.632Z</time>
      </trkpt>
      <trkpt lat="48.84081" lon="2.27233">
        <ele>32.5096</ele>
        <time>2026-07-19T11:36:31.633Z</time>
      </trkpt>
      <trkpt lat="48.84083" lon="2.2723">
        <ele>32.49819</ele>
        <time>2026-07-19T11:36:35.633Z</time>
      </trkpt>
      <trkpt lat="48.84085" lon="2.27227">
        <ele>32.47886</ele>
        <time>2026-07-19T11:36:39.633Z</time>
      </trkpt>
      <trkpt lat="48.84086" lon="2.27224">
        <ele>32.46624</ele>
        <time>2026-07-19T11:36:41.633Z</time>
      </trkpt>
      <trkpt lat="48.84088" lon="2.27221">
        <ele>32.44701</ele>
        <time>2026-07-19T11:36:44.633Z</time>
      </trkpt>
      <trkpt lat="48.84089" lon="2.27217">
        <ele>32.42882</ele>
        <time>2026-07-19T11:36:47.632Z</time>
      </trkpt>
      <trkpt lat="48.84089" lon="2.27214">
        <ele>32.41876</ele>
        <time>2026-07-19T11:36:50.633Z</time>
      </trkpt>
      <trkpt lat="48.8409" lon="2.27209">
        <ele>32.41379</ele>
        <time>2026-07-19T11:36:53.633Z</time>
      </trkpt>
      <trkpt lat="48.84092" lon="2.27205">
        <ele>32.41639</ele>
        <time>2026-07-19T11:36:56.633Z</time>
      </trkpt>
      <trkpt lat="48.84095" lon="2.27204">
        <ele>32.41885</ele>
        <time>2026-07-19T11:37:00.633Z</time>
      </trkpt>
      <trkpt lat="48.84097" lon="2.27205">
        <ele>32.4182</ele>
        <time>2026-07-19T11:37:02.633Z</time>
      </trkpt>
      <trkpt lat="48.84099" lon="2.27208">
        <ele>32.41589</ele>
        <time>2026-07-19T11:37:04.634Z</time>
      </trkpt>
      <trkpt lat="48.84101" lon="2.2721">
        <ele>32.41238</ele>
        <time>2026-07-19T11:37:06.634Z</time>
      </trkpt>
      <trkpt lat="48.84104" lon="2.27211">
        <ele>32.41071</ele>
        <time>2026-07-19T11:37:08.633Z</time>
      </trkpt>
      <trkpt lat="48.84106" lon="2.27213">
        <ele>32.40643</ele>
        <time>2026-07-19T11:37:11.634Z</time>
      </trkpt>
      <trkpt lat="48.84108" lon="2.27216">
        <ele>32.40079</ele>
        <time>2026-07-19T11:37:14.634Z</time>
      </trkpt>
      <trkpt lat="48.8411" lon="2.27219">
        <ele>32.40334</ele>
        <time>2026-07-19T11:37:16.634Z</time>
      </trkpt>
      <trkpt lat="48.84114" lon="2.27221">
        <ele>32.41017</ele>
        <time>2026-07-19T11:37:19.633Z</time>
      </trkpt>
      <trkpt lat="48.84116" lon="2.27223">
        <ele>32.41601</ele>
        <time>2026-07-19T11:37:22.633Z</time>
      </trkpt>
      <trkpt lat="48.84119" lon="2.27225">
        <ele>32.42247</ele>
        <time>2026-07-19T11:37:25.633Z</time>
      </trkpt>
      <trkpt lat="48.84122" lon="2.27227">
        <ele>32.4312</ele>
        <time>2026-07-19T11:37:28.633Z</time>
      </trkpt>
      <trkpt lat="48.84124" lon="2.27229">
        <ele>32.44282</ele>
        <time>2026-07-19T11:37:30.634Z</time>
      </trkpt>
      <trkpt lat="48.84126" lon="2.27231">
        <ele>32.45738</ele>
        <time>2026-07-19T11:37:32.634Z</time>
      </trkpt>
      <trkpt lat="48.84128" lon="2.27233">
        <ele>32.48205</ele>
        <time>2026-07-19T11:37:35.634Z</time>
      </trkpt>
      <trkpt lat="48.84131" lon="2.27236">
        <ele>32.50965</ele>
        <time>2026-07-19T11:37:38.634Z</time>
      </trkpt>
      <trkpt lat="48.84134" lon="2.27237">
        <ele>32.54188</ele>
        <time>2026-07-19T11:37:41.634Z</time>
      </trkpt>
      <trkpt lat="48.84134" lon="2.27241">
        <ele>32.60042</ele>
        <time>2026-07-19T11:37:46.634Z</time>
      </trkpt>
      <trkpt lat="48.84133" lon="2.27245">
        <ele>32.63836</ele>
        <time>2026-07-19T11:37:49.634Z</time>
      </trkpt>
      <trkpt lat="48.84131" lon="2.27248">
        <ele>32.71423</ele>
        <time>2026-07-19T11:37:56.634Z</time>
      </trkpt>
      <trkpt lat="48.8413" lon="2.27252">
        <ele>32.77046</ele>
        <time>2026-07-19T11:38:01.634Z</time>
      </trkpt>
      <trkpt lat="48.84129" lon="2.27256">
        <ele>32.81732</ele>
        <time>2026-07-19T11:38:05.634Z</time>
      </trkpt>
      <trkpt lat="48.84128" lon="2.2726">
        <ele>32.86013</ele>
        <time>2026-07-19T11:38:08.634Z</time>
      </trkpt>
      <trkpt lat="48.84126" lon="2.27263">
        <ele>32.89048</ele>
        <time>2026-07-19T11:38:10.635Z</time>
      </trkpt>
      <trkpt lat="48.84125" lon="2.27267">
        <ele>32.94245</ele>
        <time>2026-07-19T11:38:13.634Z</time>
      </trkpt>
      <trkpt lat="48.84123" lon="2.2727">
        <ele>33.00474</ele>
        <time>2026-07-19T11:38:16.634Z</time>
      </trkpt>
      <trkpt lat="48.84122" lon="2.27274">
        <ele>33.06363</ele>
        <time>2026-07-19T11:38:18.634Z</time>
      </trkpt>
      <trkpt lat="48.8412" lon="2.27278">
        <ele>33.15517</ele>
        <time>2026-07-19T11:38:21.635Z</time>
      </trkpt>
      <trkpt lat="48.84119" lon="2.27282">
        <ele>33.24683</ele>
        <time>2026-07-19T11:38:24.634Z</time>
      </trkpt>
      <trkpt lat="48.84117" lon="2.27286">
        <ele>33.30821</ele>
        <time>2026-07-19T11:38:28.032Z</time>
      </trkpt>
      <trkpt lat="48.84116" lon="2.2729">
        <ele>33.35803</ele>
        <time>2026-07-19T11:38:30.634Z</time>
      </trkpt>
      <trkpt lat="48.84114" lon="2.27294">
        <ele>33.42078</ele>
        <time>2026-07-19T11:38:33.635Z</time>
      </trkpt>
      <trkpt lat="48.84112" lon="2.27297">
        <ele>33.49373</ele>
        <time>2026-07-19T11:38:36.635Z</time>
      </trkpt>
      <trkpt lat="48.84111" lon="2.27301">
        <ele>33.55753</ele>
        <time>2026-07-19T11:38:39.635Z</time>
      </trkpt>
      <trkpt lat="48.8411" lon="2.27306">
        <ele>33.59907</ele>
        <time>2026-07-19T11:38:42.635Z</time>
      </trkpt>
      <trkpt lat="48.84108" lon="2.27309">
        <ele>33.63099</ele>
        <time>2026-07-19T11:38:45.635Z</time>
      </trkpt>
      <trkpt lat="48.84106" lon="2.27313">
        <ele>33.65284</ele>
        <time>2026-07-19T11:38:48.635Z</time>
      </trkpt>
      <trkpt lat="48.84105" lon="2.27316">
        <ele>33.66699</ele>
        <time>2026-07-19T11:38:50.636Z</time>
      </trkpt>
      <trkpt lat="48.84103" lon="2.2732">
        <ele>33.68609</ele>
        <time>2026-07-19T11:38:53.635Z</time>
      </trkpt>
      <trkpt lat="48.84102" lon="2.27323">
        <ele>33.71309</ele>
        <time>2026-07-19T11:38:55.635Z</time>
      </trkpt>
      <trkpt lat="48.84101" lon="2.27327">
        <ele>33.7558</ele>
        <time>2026-07-19T11:38:58.635Z</time>
      </trkpt>
      <trkpt lat="48.84099" lon="2.2733">
        <ele>33.78961</ele>
        <time>2026-07-19T11:39:01.636Z</time>
      </trkpt>
      <trkpt lat="48.84097" lon="2.27334">
        <ele>33.81476</ele>
        <time>2026-07-19T11:39:04.635Z</time>
      </trkpt>
      <trkpt lat="48.84095" lon="2.27338">
        <ele>33.83302</ele>
        <time>2026-07-19T11:39:07.636Z</time>
      </trkpt>
      <trkpt lat="48.84094" lon="2.27342">
        <ele>33.83607</ele>
        <time>2026-07-19T11:39:10.636Z</time>
      </trkpt>
      <trkpt lat="48.84093" lon="2.27345">
        <ele>33.83631</ele>
        <time>2026-07-19T11:39:13.636Z</time>
      </trkpt>
      <trkpt lat="48.84092" lon="2.27348">
        <ele>33.83343</ele>
        <time>2026-07-19T11:39:15.637Z</time>
      </trkpt>
      <trkpt lat="48.8409" lon="2.27352">
        <ele>33.82805</ele>
        <time>2026-07-19T11:39:18.636Z</time>
      </trkpt>
      <trkpt lat="48.84088" lon="2.27356">
        <ele>33.82491</ele>
        <time>2026-07-19T11:39:21.636Z</time>
      </trkpt>
      <trkpt lat="48.84086" lon="2.2736">
        <ele>33.82498</ele>
        <time>2026-07-19T11:39:24.636Z</time>
      </trkpt>
      <trkpt lat="48.84085" lon="2.27364">
        <ele>33.82682</ele>
        <time>2026-07-19T11:39:26.635Z</time>
      </trkpt>
      <trkpt lat="48.84083" lon="2.27367">
        <ele>33.8411</ele>
        <time>2026-07-19T11:39:29.636Z</time>
      </trkpt>
      <trkpt lat="48.84082" lon="2.27371">
        <ele>33.8547</ele>
        <time>2026-07-19T11:39:31.637Z</time>
      </trkpt>
      <trkpt lat="48.84081" lon="2.27375">
        <ele>33.86698</ele>
        <time>2026-07-19T11:39:33.636Z</time>
      </trkpt>
      <trkpt lat="48.8408" lon="2.27378">
        <ele>33.88399</ele>
        <time>2026-07-19T11:39:35.636Z</time>
      </trkpt>
      <trkpt lat="48.84078" lon="2.27382">
        <ele>33.92672</ele>
        <time>2026-07-19T11:39:38.636Z</time>
      </trkpt>
      <trkpt lat="48.84077" lon="2.27385">
        <ele>33.95406</ele>
        <time>2026-07-19T11:39:40.636Z</time>
      </trkpt>
      <trkpt lat="48.84076" lon="2.27388">
        <ele>33.98128</ele>
        <time>2026-07-19T11:39:42.636Z</time>
      </trkpt>
      <trkpt lat="48.84074" lon="2.27392">
        <ele>34.01981</ele>
        <time>2026-07-19T11:39:45.636Z</time>
      </trkpt>
      <trkpt lat="48.84073" lon="2.27395">
        <ele>34.04873</ele>
        <time>2026-07-19T11:39:47.637Z</time>
      </trkpt>
      <trkpt lat="48.84072" lon="2.27399">
        <ele>34.07583</ele>
        <time>2026-07-19T11:39:49.636Z</time>
      </trkpt>
      <trkpt lat="48.8407" lon="2.27402">
        <ele>34.09302</ele>
        <time>2026-07-19T11:39:52.637Z</time>
      </trkpt>
      <trkpt lat="48.84068" lon="2.27406">
        <ele>34.10005</ele>
        <time>2026-07-19T11:39:55.636Z</time>
      </trkpt>
      <trkpt lat="48.84067" lon="2.27411">
        <ele>34.09993</ele>
        <time>2026-07-19T11:39:58.636Z</time>
      </trkpt>
      <trkpt lat="48.84065" lon="2.27416">
        <ele>34.10946</ele>
        <time>2026-07-19T11:40:02.637Z</time>
      </trkpt>
      <trkpt lat="48.84063" lon="2.2742">
        <ele>34.11249</ele>
        <time>2026-07-19T11:40:04.638Z</time>
      </trkpt>
      <trkpt lat="48.84062" lon="2.27425">
        <ele>34.10913</ele>
        <time>2026-07-19T11:40:07.637Z</time>
      </trkpt>
      <trkpt lat="48.84061" lon="2.27428">
        <ele>34.10608</ele>
        <time>2026-07-19T11:40:09.636Z</time>
      </trkpt>
      <trkpt lat="48.8406" lon="2.27432">
        <ele>34.10222</ele>
        <time>2026-07-19T11:40:12.636Z</time>
      </trkpt>
      <trkpt lat="48.84059" lon="2.27437">
        <ele>34.1004</ele>
        <time>2026-07-19T11:40:15.637Z</time>
      </trkpt>
      <trkpt lat="48.8406" lon="2.2744">
        <ele>34.10372</ele>
        <time>2026-07-19T11:40:18.637Z</time>
      </trkpt>
      <trkpt lat="48.84062" lon="2.27443">
        <ele>34.11436</ele>
        <time>2026-07-19T11:40:20.636Z</time>
      </trkpt>
      <trkpt lat="48.84066" lon="2.27444">
        <ele>34.13203</ele>
        <time>2026-07-19T11:40:22.638Z</time>
      </trkpt>
      <trkpt lat="48.84068" lon="2.27446">
        <ele>34.16166</ele>
        <time>2026-07-19T11:40:24.637Z</time>
      </trkpt>
      <trkpt lat="48.8407" lon="2.27448">
        <ele>34.22208</ele>
        <time>2026-07-19T11:40:27.637Z</time>
      </trkpt>
      <trkpt lat="48.84072" lon="2.27446">
        <ele>34.27222</ele>
        <time>2026-07-19T11:40:30.637Z</time>
      </trkpt>
      <trkpt lat="48.84074" lon="2.27442">
        <ele>34.33124</ele>
        <time>2026-07-19T11:40:33.638Z</time>
      </trkpt>
      <trkpt lat="48.84075" lon="2.27439">
        <ele>34.38932</ele>
        <time>2026-07-19T11:40:37.637Z</time>
      </trkpt>
      <trkpt lat="48.84076" lon="2.27435">
        <ele>34.41094</ele>
        <time>2026-07-19T11:40:40.638Z</time>
      </trkpt>
      <trkpt lat="48.84076" lon="2.27431">
        <ele>34.40483</ele>
        <time>2026-07-19T11:40:43.638Z</time>
      </trkpt>
      <trkpt lat="48.84078" lon="2.27428">
        <ele>34.37554</ele>
        <time>2026-07-19T11:40:47.637Z</time>
      </trkpt>
      <trkpt lat="48.8408" lon="2.27425">
        <ele>34.34228</ele>
        <time>2026-07-19T11:40:51.638Z</time>
      </trkpt>
      <trkpt lat="48.84081" lon="2.27422">
        <ele>34.30918</ele>
        <time>2026-07-19T11:40:54.638Z</time>
      </trkpt>
      <trkpt lat="48.84084" lon="2.27418">
        <ele>34.27591</ele>
        <time>2026-07-19T11:40:57.637Z</time>
      </trkpt>
      <trkpt lat="48.84085" lon="2.27414">
        <ele>34.23598</ele>
        <time>2026-07-19T11:40:59.638Z</time>
      </trkpt>
      <trkpt lat="48.84087" lon="2.27411">
        <ele>34.15698</ele>
        <time>2026-07-19T11:41:02.637Z</time>
      </trkpt>
      <trkpt lat="48.84088" lon="2.27406">
        <ele>34.10289</ele>
        <time>2026-07-19T11:41:05.638Z</time>
      </trkpt>
      <trkpt lat="48.8409" lon="2.27402">
        <ele>34.01487</ele>
        <time>2026-07-19T11:41:08.638Z</time>
      </trkpt>
      <trkpt lat="48.84091" lon="2.27399">
        <ele>33.92451</ele>
        <time>2026-07-19T11:41:11.639Z</time>
      </trkpt>
      <trkpt lat="48.84091" lon="2.27395">
        <ele>33.8674</ele>
        <time>2026-07-19T11:41:13.638Z</time>
      </trkpt>
      <trkpt lat="48.84092" lon="2.27391">
        <ele>33.73895</ele>
        <time>2026-07-19T11:41:17.638Z</time>
      </trkpt>
      <trkpt lat="48.84093" lon="2.27387">
        <ele>33.6122</ele>
        <time>2026-07-19T11:41:20.639Z</time>
      </trkpt>
      <trkpt lat="48.84094" lon="2.27384">
        <ele>33.45839</ele>
        <time>2026-07-19T11:41:23.639Z</time>
      </trkpt>
      <trkpt lat="48.84095" lon="2.2738">
        <ele>33.29325</ele>
        <time>2026-07-19T11:41:26.639Z</time>
      </trkpt>
      <trkpt lat="48.84098" lon="2.27376">
        <ele>33.15278</ele>
        <time>2026-07-19T11:41:29.639Z</time>
      </trkpt>
      <trkpt lat="48.841" lon="2.27373">
        <ele>33.07218</ele>
        <time>2026-07-19T11:41:31.638Z</time>
      </trkpt>
      <trkpt lat="48.84101" lon="2.27369">
        <ele>32.93621</ele>
        <time>2026-07-19T11:41:34.638Z</time>
      </trkpt>
      <trkpt lat="48.84103" lon="2.27365">
        <ele>32.81204</ele>
        <time>2026-07-19T11:41:37.639Z</time>
      </trkpt>
      <trkpt lat="48.84104" lon="2.27361">
        <ele>32.67654</ele>
        <time>2026-07-19T11:41:41.639Z</time>
      </trkpt>
      <trkpt lat="48.84105" lon="2.27358">
        <ele>32.59588</ele>
        <time>2026-07-19T11:41:43.640Z</time>
      </trkpt>
      <trkpt lat="48.84106" lon="2.27354">
        <ele>32.51479</ele>
        <time>2026-07-19T11:41:45.640Z</time>
      </trkpt>
      <trkpt lat="48.84108" lon="2.27351">
        <ele>32.43221</ele>
        <time>2026-07-19T11:41:47.639Z</time>
      </trkpt>
      <trkpt lat="48.84109" lon="2.27347">
        <ele>32.31094</ele>
        <time>2026-07-19T11:41:50.639Z</time>
      </trkpt>
      <trkpt lat="48.8411" lon="2.27344">
        <ele>32.22662</ele>
        <time>2026-07-19T11:41:52.639Z</time>
      </trkpt>
      <trkpt lat="48.84113" lon="2.2734">
        <ele>32.09318</ele>
        <time>2026-07-19T11:41:55.640Z</time>
      </trkpt>
      <trkpt lat="48.84114" lon="2.27336">
        <ele>31.97194</ele>
        <time>2026-07-19T11:41:58.639Z</time>
      </trkpt>
      <trkpt lat="48.84116" lon="2.27333">
        <ele>31.83493</ele>
        <time>2026-07-19T11:42:02.639Z</time>
      </trkpt>
      <trkpt lat="48.84118" lon="2.2733">
        <ele>31.74214</ele>
        <time>2026-07-19T11:42:05.640Z</time>
      </trkpt>
      <trkpt lat="48.84119" lon="2.27325">
        <ele>31.64674</ele>
        <time>2026-07-19T11:42:08.640Z</time>
      </trkpt>
      <trkpt lat="48.8412" lon="2.27321">
        <ele>31.53319</ele>
        <time>2026-07-19T11:42:11.639Z</time>
      </trkpt>
      <trkpt lat="48.84122" lon="2.27317">
        <ele>31.40434</ele>
        <time>2026-07-19T11:42:14.640Z</time>
      </trkpt>
      <trkpt lat="48.84124" lon="2.27313">
        <ele>31.35643</ele>
        <time>2026-07-19T11:42:17.640Z</time>
      </trkpt>
      <trkpt lat="48.84126" lon="2.27309">
        <ele>31.36144</ele>
        <time>2026-07-19T11:42:20.640Z</time>
      </trkpt>
      <trkpt lat="48.84127" lon="2.27305">
        <ele>31.36598</ele>
        <time>2026-07-19T11:42:22.640Z</time>
      </trkpt>
      <trkpt lat="48.84128" lon="2.27302">
        <ele>31.3753</ele>
        <time>2026-07-19T11:42:25.640Z</time>
      </trkpt>
      <trkpt lat="48.84129" lon="2.27297">
        <ele>31.38092</ele>
        <time>2026-07-19T11:42:28.640Z</time>
      </trkpt>
      <trkpt lat="48.84131" lon="2.27294">
        <ele>31.39462</ele>
        <time>2026-07-19T11:42:30.640Z</time>
      </trkpt>
      <trkpt lat="48.84132" lon="2.27292">
        <ele>31.41186</ele>
        <time>2026-07-19T11:42:32.640Z</time>
      </trkpt>
      <trkpt lat="48.84134" lon="2.27289">
        <ele>31.43574</ele>
        <time>2026-07-19T11:42:34.639Z</time>
      </trkpt>
      <trkpt lat="48.84135" lon="2.27285">
        <ele>31.47756</ele>
        <time>2026-07-19T11:42:37.640Z</time>
      </trkpt>
      <trkpt lat="48.84137" lon="2.27281">
        <ele>31.55576</ele>
        <time>2026-07-19T11:42:40.640Z</time>
      </trkpt>
      <trkpt lat="48.84139" lon="2.27278">
        <ele>31.66752</ele>
        <time>2026-07-19T11:42:43.640Z</time>
      </trkpt>
      <trkpt lat="48.84142" lon="2.27274">
        <ele>31.83452</ele>
        <time>2026-07-19T11:42:46.640Z</time>
      </trkpt>
      <trkpt lat="48.84143" lon="2.27271">
        <ele>31.93479</ele>
        <time>2026-07-19T11:42:48.640Z</time>
      </trkpt>
      <trkpt lat="48.84146" lon="2.27269">
        <ele>32.06179</ele>
        <time>2026-07-19T11:42:51.640Z</time>
      </trkpt>
      <trkpt lat="48.84148" lon="2.27268">
        <ele>32.11463</ele>
        <time>2026-07-19T11:42:53.640Z</time>
      </trkpt>
      <trkpt lat="48.8415" lon="2.27269">
        <ele>32.11053</ele>
        <time>2026-07-19T11:42:56.641Z</time>
      </trkpt>
      <trkpt lat="48.84152" lon="2.27272">
        <ele>32.07418</ele>
        <time>2026-07-19T11:42:59.641Z</time>
      </trkpt>
      <trkpt lat="48.84155" lon="2.27271">
        <ele>32.03977</ele>
        <time>2026-07-19T11:43:02.641Z</time>
      </trkpt>
      <trkpt lat="48.84156" lon="2.27274">
        <ele>32.00816</ele>
        <time>2026-07-19T11:43:04.641Z</time>
      </trkpt>
      <trkpt lat="48.84157" lon="2.27277">
        <ele>31.98973</ele>
        <time>2026-07-19T11:43:06.640Z</time>
      </trkpt>
      <trkpt lat="48.8416" lon="2.27279">
        <ele>31.96002</ele>
        <time>2026-07-19T11:43:08.640Z</time>
      </trkpt>
      <trkpt lat="48.84163" lon="2.27281">
        <ele>31.9461</ele>
        <time>2026-07-19T11:43:10.641Z</time>
      </trkpt>
      <trkpt lat="48.84166" lon="2.27283">
        <ele>31.94397</ele>
        <time>2026-07-19T11:43:13.641Z</time>
      </trkpt>
      <trkpt lat="48.84169" lon="2.27286">
        <ele>31.92984</ele>
        <time>2026-07-19T11:43:16.640Z</time>
      </trkpt>
      <trkpt lat="48.84171" lon="2.27289">
        <ele>31.91012</ele>
        <time>2026-07-19T11:43:19.640Z</time>
      </trkpt>
      <trkpt lat="48.84173" lon="2.27291">
        <ele>31.87954</ele>
        <time>2026-07-19T11:43:23.641Z</time>
      </trkpt>
      <trkpt lat="48.84175" lon="2.27293">
        <ele>31.87525</ele>
        <time>2026-07-19T11:43:25.641Z</time>
      </trkpt>
      <trkpt lat="48.84178" lon="2.27295">
        <ele>31.86679</ele>
        <time>2026-07-19T11:43:28.641Z</time>
      </trkpt>
      <trkpt lat="48.8418" lon="2.27297">
        <ele>31.86143</ele>
        <time>2026-07-19T11:43:31.641Z</time>
      </trkpt>
      <trkpt lat="48.84182" lon="2.27299">
        <ele>31.85855</ele>
        <time>2026-07-19T11:43:34.641Z</time>
      </trkpt>
      <trkpt lat="48.84185" lon="2.273">
        <ele>31.86246</ele>
        <time>2026-07-19T11:43:36.642Z</time>
      </trkpt>
      <trkpt lat="48.84188" lon="2.27302">
        <ele>31.86587</ele>
        <time>2026-07-19T11:43:38.641Z</time>
      </trkpt>
      <trkpt lat="48.8419" lon="2.27305">
        <ele>31.8774</ele>
        <time>2026-07-19T11:43:44.380Z</time>
      </trkpt>
      <trkpt lat="48.84193" lon="2.27308">
        <ele>31.90028</ele>
        <time>2026-07-19T11:43:46.642Z</time>
      </trkpt>
      <trkpt lat="48.84195" lon="2.2731">
        <ele>31.92368</ele>
        <time>2026-07-19T11:43:48.641Z</time>
      </trkpt>
      <trkpt lat="48.84198" lon="2.27312">
        <ele>31.94565</ele>
        <time>2026-07-19T11:43:50.642Z</time>
      </trkpt>
      <trkpt lat="48.842" lon="2.27313">
        <ele>31.96889</ele>
        <time>2026-07-19T11:43:52.642Z</time>
      </trkpt>
      <trkpt lat="48.84203" lon="2.27315">
        <ele>32.0085</ele>
        <time>2026-07-19T11:43:56.880Z</time>
      </trkpt>
      <trkpt lat="48.84205" lon="2.27317">
        <ele>32.05364</ele>
        <time>2026-07-19T11:43:58.642Z</time>
      </trkpt>
      <trkpt lat="48.84208" lon="2.27319">
        <ele>32.08906</ele>
        <time>2026-07-19T11:44:01.642Z</time>
      </trkpt>
      <trkpt lat="48.8421" lon="2.27321">
        <ele>32.10925</ele>
        <time>2026-07-19T11:44:03.642Z</time>
      </trkpt>
      <trkpt lat="48.8421" lon="2.27326">
        <ele>32.10897</ele>
        <time>2026-07-19T11:44:06.642Z</time>
      </trkpt>
      <trkpt lat="48.84211" lon="2.27329">
        <ele>32.09519</ele>
        <time>2026-07-19T11:44:08.642Z</time>
      </trkpt>
      <trkpt lat="48.84213" lon="2.27333">
        <ele>32.06835</ele>
        <time>2026-07-19T11:44:10.642Z</time>
      </trkpt>
      <trkpt lat="48.84215" lon="2.27336">
        <ele>32.01163</ele>
        <time>2026-07-19T11:44:13.642Z</time>
      </trkpt>
      <trkpt lat="48.84217" lon="2.27339">
        <ele>31.9739</ele>
        <time>2026-07-19T11:44:18.642Z</time>
      </trkpt>
      <trkpt lat="48.84219" lon="2.27341">
        <ele>31.96356</ele>
        <time>2026-07-19T11:44:21.643Z</time>
      </trkpt>
      <trkpt lat="48.84221" lon="2.27343">
        <ele>31.96427</ele>
        <time>2026-07-19T11:44:23.642Z</time>
      </trkpt>
      <trkpt lat="48.84224" lon="2.27346">
        <ele>31.96564</ele>
        <time>2026-07-19T11:44:26.642Z</time>
      </trkpt>
      <trkpt lat="48.84226" lon="2.27347">
        <ele>31.96452</ele>
        <time>2026-07-19T11:44:28.642Z</time>
      </trkpt>
      <trkpt lat="48.84228" lon="2.2735">
        <ele>31.96807</ele>
        <time>2026-07-19T11:44:31.643Z</time>
      </trkpt>
      <trkpt lat="48.84231" lon="2.27351">
        <ele>31.98089</ele>
        <time>2026-07-19T11:44:37.643Z</time>
      </trkpt>
      <trkpt lat="48.84233" lon="2.27354">
        <ele>31.97648</ele>
        <time>2026-07-19T11:44:41.643Z</time>
      </trkpt>
      <trkpt lat="48.84235" lon="2.27355">
        <ele>31.97534</ele>
        <time>2026-07-19T11:44:42.642Z</time>
      </trkpt>
      <trkpt lat="48.84238" lon="2.27356">
        <ele>31.9755</ele>
        <time>2026-07-19T11:44:44.643Z</time>
      </trkpt>
      <trkpt lat="48.8424" lon="2.27358">
        <ele>31.97723</ele>
        <time>2026-07-19T11:44:46.643Z</time>
      </trkpt>
      <trkpt lat="48.84242" lon="2.27361">
        <ele>31.97799</ele>
        <time>2026-07-19T11:44:48.643Z</time>
      </trkpt>
      <trkpt lat="48.84245" lon="2.27363">
        <ele>31.97964</ele>
        <time>2026-07-19T11:44:50.642Z</time>
      </trkpt>
      <trkpt lat="48.84247" lon="2.27365">
        <ele>31.98041</ele>
        <time>2026-07-19T11:44:52.643Z</time>
      </trkpt>
      <trkpt lat="48.84248" lon="2.27368">
        <ele>31.97708</ele>
        <time>2026-07-19T11:44:55.643Z</time>
      </trkpt>
      <trkpt lat="48.8425" lon="2.2737">
        <ele>31.97524</ele>
        <time>2026-07-19T11:44:58.643Z</time>
      </trkpt>
      <trkpt lat="48.84253" lon="2.27373">
        <ele>31.97541</ele>
        <time>2026-07-19T11:45:00.643Z</time>
      </trkpt>
      <trkpt lat="48.84256" lon="2.27374">
        <ele>31.97695</ele>
        <time>2026-07-19T11:45:02.644Z</time>
      </trkpt>
      <trkpt lat="48.84258" lon="2.27378">
        <ele>31.98339</ele>
        <time>2026-07-19T11:45:05.644Z</time>
      </trkpt>
      <trkpt lat="48.8426" lon="2.2738">
        <ele>31.99092</ele>
        <time>2026-07-19T11:45:07.644Z</time>
      </trkpt>
      <trkpt lat="48.84263" lon="2.27382">
        <ele>32.00142</ele>
        <time>2026-07-19T11:45:10.644Z</time>
      </trkpt>
      <trkpt lat="48.84266" lon="2.27383">
        <ele>32.00968</ele>
        <time>2026-07-19T11:45:13.644Z</time>
      </trkpt>
      <trkpt lat="48.84268" lon="2.27385">
        <ele>32.01569</ele>
        <time>2026-07-19T11:45:15.644Z</time>
      </trkpt>
      <trkpt lat="48.84269" lon="2.27389">
        <ele>32.02589</ele>
        <time>2026-07-19T11:45:18.644Z</time>
      </trkpt>
      <trkpt lat="48.84272" lon="2.27392">
        <ele>32.04205</ele>
        <time>2026-07-19T11:45:21.644Z</time>
      </trkpt>
      <trkpt lat="48.84274" lon="2.27395">
        <ele>32.05501</ele>
        <time>2026-07-19T11:45:23.643Z</time>
      </trkpt>
      <trkpt lat="48.84276" lon="2.27396">
        <ele>32.06866</ele>
        <time>2026-07-19T11:45:25.644Z</time>
      </trkpt>
      <trkpt lat="48.84279" lon="2.27396">
        <ele>32.07853</ele>
        <time>2026-07-19T11:45:27.644Z</time>
      </trkpt>
      <trkpt lat="48.84281" lon="2.27397">
        <ele>32.08911</ele>
        <time>2026-07-19T11:45:30.644Z</time>
      </trkpt>
      <trkpt lat="48.84283" lon="2.27399">
        <ele>32.09379</ele>
        <time>2026-07-19T11:45:32.644Z</time>
      </trkpt>
      <trkpt lat="48.84286" lon="2.27401">
        <ele>32.09622</ele>
        <time>2026-07-19T11:45:35.644Z</time>
      </trkpt>
      <trkpt lat="48.84289" lon="2.27403">
        <ele>32.10037</ele>
        <time>2026-07-19T11:45:38.644Z</time>
      </trkpt>
      <trkpt lat="48.84292" lon="2.27404">
        <ele>32.10814</ele>
        <time>2026-07-19T11:45:40.644Z</time>
      </trkpt>
      <trkpt lat="48.84295" lon="2.27406">
        <ele>32.11991</ele>
        <time>2026-07-19T11:45:43.644Z</time>
      </trkpt>
      <trkpt lat="48.84297" lon="2.27409">
        <ele>32.12456</ele>
        <time>2026-07-19T11:45:45.644Z</time>
      </trkpt>
      <trkpt lat="48.84299" lon="2.27412">
        <ele>32.12977</ele>
        <time>2026-07-19T11:45:47.644Z</time>
      </trkpt>
      <trkpt lat="48.84302" lon="2.27414">
        <ele>32.14352</ele>
        <time>2026-07-19T11:45:50.644Z</time>
      </trkpt>
      <trkpt lat="48.84304" lon="2.27416">
        <ele>32.17129</ele>
        <time>2026-07-19T11:45:53.645Z</time>
      </trkpt>
      <trkpt lat="48.84306" lon="2.27419">
        <ele>32.2068</ele>
        <time>2026-07-19T11:45:56.644Z</time>
      </trkpt>
      <trkpt lat="48.84308" lon="2.27422">
        <ele>32.26254</ele>
        <time>2026-07-19T11:45:59.645Z</time>
      </trkpt>
      <trkpt lat="48.84311" lon="2.27422">
        <ele>32.32274</ele>
        <time>2026-07-19T11:46:01.646Z</time>
      </trkpt>
      <trkpt lat="48.84314" lon="2.27425">
        <ele>32.48167</ele>
        <time>2026-07-19T11:46:04.644Z</time>
      </trkpt>
      <trkpt lat="48.84316" lon="2.27426">
        <ele>32.63618</ele>
        <time>2026-07-19T11:46:06.644Z</time>
      </trkpt>
      <trkpt lat="48.84318" lon="2.27428">
        <ele>32.80622</ele>
        <time>2026-07-19T11:46:08.644Z</time>
      </trkpt>
      <trkpt lat="48.8432" lon="2.27432">
        <ele>33.04628</ele>
        <time>2026-07-19T11:46:11.645Z</time>
      </trkpt>
      <trkpt lat="48.84322" lon="2.27434">
        <ele>33.17485</ele>
        <time>2026-07-19T11:46:13.645Z</time>
      </trkpt>
      <trkpt lat="48.84324" lon="2.27435">
        <ele>33.3193</ele>
        <time>2026-07-19T11:46:16.645Z</time>
      </trkpt>
      <trkpt lat="48.84327" lon="2.27438">
        <ele>33.43488</ele>
        <time>2026-07-19T11:46:19.645Z</time>
      </trkpt>
      <trkpt lat="48.84329" lon="2.27441">
        <ele>33.47273</ele>
        <time>2026-07-19T11:46:21.645Z</time>
      </trkpt>
      <trkpt lat="48.84332" lon="2.27443">
        <ele>33.49388</ele>
        <time>2026-07-19T11:46:24.645Z</time>
      </trkpt>
      <trkpt lat="48.84335" lon="2.27444">
        <ele>33.5059</ele>
        <time>2026-07-19T11:46:30.645Z</time>
      </trkpt>
      <trkpt lat="48.84337" lon="2.27447">
        <ele>33.51223</ele>
        <time>2026-07-19T11:46:32.646Z</time>
      </trkpt>
      <trkpt lat="48.84339" lon="2.2745">
        <ele>33.51399</ele>
        <time>2026-07-19T11:46:34.646Z</time>
      </trkpt>
      <trkpt lat="48.84342" lon="2.27452">
        <ele>33.53193</ele>
        <time>2026-07-19T11:46:37.645Z</time>
      </trkpt>
      <trkpt lat="48.84345" lon="2.27454">
        <ele>33.54443</ele>
        <time>2026-07-19T11:46:40.646Z</time>
      </trkpt>
      <trkpt lat="48.84347" lon="2.27455">
        <ele>33.55487</ele>
        <time>2026-07-19T11:46:44.645Z</time>
      </trkpt>
      <trkpt lat="48.8435" lon="2.27454">
        <ele>33.56405</ele>
        <time>2026-07-19T11:46:46.645Z</time>
      </trkpt>
      <trkpt lat="48.84352" lon="2.27453">
        <ele>33.58503</ele>
        <time>2026-07-19T11:46:48.645Z</time>
      </trkpt>
      <trkpt lat="48.84354" lon="2.2745">
        <ele>33.61923</ele>
        <time>2026-07-19T11:46:50.646Z</time>
      </trkpt>
      <trkpt lat="48.84356" lon="2.27448">
        <ele>33.66274</ele>
        <time>2026-07-19T11:46:52.645Z</time>
      </trkpt>
      <trkpt lat="48.84359" lon="2.27448">
        <ele>33.71849</ele>
        <time>2026-07-19T11:46:55.645Z</time>
      </trkpt>
      <trkpt lat="48.84362" lon="2.2745">
        <ele>33.76054</ele>
        <time>2026-07-19T11:46:57.646Z</time>
      </trkpt>
      <trkpt lat="48.84364" lon="2.27452">
        <ele>33.83025</ele>
        <time>2026-07-19T11:47:00.646Z</time>
      </trkpt>
      <trkpt lat="48.84366" lon="2.27454">
        <ele>33.85854</ele>
        <time>2026-07-19T11:47:02.646Z</time>
      </trkpt>
      <trkpt lat="48.84369" lon="2.27456">
        <ele>33.89436</ele>
        <time>2026-07-19T11:47:05.646Z</time>
      </trkpt>
      <trkpt lat="48.84371" lon="2.27459">
        <ele>33.9261</ele>
        <time>2026-07-19T11:47:08.646Z</time>
      </trkpt>
      <trkpt lat="48.84374" lon="2.27461">
        <ele>33.9406</ele>
        <time>2026-07-19T11:47:10.647Z</time>
      </trkpt>
      <trkpt lat="48.84376" lon="2.27462">
        <ele>33.95141</ele>
        <time>2026-07-19T11:47:12.646Z</time>
      </trkpt>
      <trkpt lat="48.84379" lon="2.27464">
        <ele>33.95072</ele>
        <time>2026-07-19T11:47:15.646Z</time>
      </trkpt>
      <trkpt lat="48.84381" lon="2.27467">
        <ele>33.93968</ele>
        <time>2026-07-19T11:47:18.646Z</time>
      </trkpt>
      <trkpt lat="48.84384" lon="2.27469">
        <ele>33.93367</ele>
        <time>2026-07-19T11:47:21.646Z</time>
      </trkpt>
      <trkpt lat="48.84386" lon="2.27472">
        <ele>33.92628</ele>
        <time>2026-07-19T11:47:24.647Z</time>
      </trkpt>
      <trkpt lat="48.84388" lon="2.27476">
        <ele>33.91269</ele>
        <time>2026-07-19T11:47:27.646Z</time>
      </trkpt>
      <trkpt lat="48.84391" lon="2.27478">
        <ele>33.90268</ele>
        <time>2026-07-19T11:47:29.647Z</time>
      </trkpt>
      <trkpt lat="48.84393" lon="2.2748">
        <ele>33.89429</ele>
        <time>2026-07-19T11:47:31.646Z</time>
      </trkpt>
      <trkpt lat="48.84396" lon="2.27481">
        <ele>33.87284</ele>
        <time>2026-07-19T11:47:34.646Z</time>
      </trkpt>
      <trkpt lat="48.84398" lon="2.27483">
        <ele>33.85352</ele>
        <time>2026-07-19T11:47:36.646Z</time>
      </trkpt>
      <trkpt lat="48.844" lon="2.27485">
        <ele>33.81665</ele>
        <time>2026-07-19T11:47:39.647Z</time>
      </trkpt>
      <trkpt lat="48.84402" lon="2.27489">
        <ele>33.78242</ele>
        <time>2026-07-19T11:47:42.646Z</time>
      </trkpt>
      <trkpt lat="48.84404" lon="2.2749">
        <ele>33.75521</ele>
        <time>2026-07-19T11:47:44.646Z</time>
      </trkpt>
      <trkpt lat="48.84407" lon="2.27492">
        <ele>33.7261</ele>
        <time>2026-07-19T11:47:46.647Z</time>
      </trkpt>
      <trkpt lat="48.84409" lon="2.27495">
        <ele>33.69916</ele>
        <time>2026-07-19T11:47:48.647Z</time>
      </trkpt>
      <trkpt lat="48.84411" lon="2.27497">
        <ele>33.68118</ele>
        <time>2026-07-19T11:47:50.647Z</time>
      </trkpt>
      <trkpt lat="48.84413" lon="2.275">
        <ele>33.67039</ele>
        <time>2026-07-19T11:47:53.647Z</time>
      </trkpt>
      <trkpt lat="48.84416" lon="2.27502">
        <ele>33.66559</ele>
        <time>2026-07-19T11:47:55.647Z</time>
      </trkpt>
      <trkpt lat="48.84418" lon="2.27502">
        <ele>33.66115</ele>
        <time>2026-07-19T11:47:57.648Z</time>
      </trkpt>
      <trkpt lat="48.8442" lon="2.27505">
        <ele>33.65421</ele>
        <time>2026-07-19T11:48:00.647Z</time>
      </trkpt>
      <trkpt lat="48.84423" lon="2.27507">
        <ele>33.64742</ele>
        <time>2026-07-19T11:48:03.648Z</time>
      </trkpt>
      <trkpt lat="48.84425" lon="2.27509">
        <ele>33.64064</ele>
        <time>2026-07-19T11:48:05.647Z</time>
      </trkpt>
      <trkpt lat="48.84428" lon="2.27511">
        <ele>33.63262</ele>
        <time>2026-07-19T11:48:08.647Z</time>
      </trkpt>
      <trkpt lat="48.8443" lon="2.27512">
        <ele>33.6267</ele>
        <time>2026-07-19T11:48:10.647Z</time>
      </trkpt>
      <trkpt lat="48.84432" lon="2.27515">
        <ele>33.6149</ele>
        <time>2026-07-19T11:48:13.648Z</time>
      </trkpt>
      <trkpt lat="48.84434" lon="2.27518">
        <ele>33.60647</ele>
        <time>2026-07-19T11:48:15.647Z</time>
      </trkpt>
      <trkpt lat="48.84437" lon="2.2752">
        <ele>33.59933</ele>
        <time>2026-07-19T11:48:17.647Z</time>
      </trkpt>
      <trkpt lat="48.84439" lon="2.27521">
        <ele>33.59247</ele>
        <time>2026-07-19T11:48:19.647Z</time>
      </trkpt>
      <trkpt lat="48.84441" lon="2.27524">
        <ele>33.58489</ele>
        <time>2026-07-19T11:48:22.648Z</time>
      </trkpt>
      <trkpt lat="48.84443" lon="2.27528">
        <ele>33.58263</ele>
        <time>2026-07-19T11:48:25.647Z</time>
      </trkpt>
      <trkpt lat="48.84446" lon="2.27529">
        <ele>33.58173</ele>
        <time>2026-07-19T11:48:28.648Z</time>
      </trkpt>
      <trkpt lat="48.84449" lon="2.2753">
        <ele>33.58021</ele>
        <time>2026-07-19T11:48:30.648Z</time>
      </trkpt>
      <trkpt lat="48.8445" lon="2.27533">
        <ele>33.5751</ele>
        <time>2026-07-19T11:48:33.648Z</time>
      </trkpt>
      <trkpt lat="48.84452" lon="2.27536">
        <ele>33.56441</ele>
        <time>2026-07-19T11:48:36.648Z</time>
      </trkpt>
      <trkpt lat="48.84455" lon="2.27537">
        <ele>33.5553</ele>
        <time>2026-07-19T11:48:38.648Z</time>
      </trkpt>
      <trkpt lat="48.84457" lon="2.27539">
        <ele>33.54721</ele>
        <time>2026-07-19T11:48:40.648Z</time>
      </trkpt>
      <trkpt lat="48.84459" lon="2.27541">
        <ele>33.53864</ele>
        <time>2026-07-19T11:48:42.648Z</time>
      </trkpt>
      <trkpt lat="48.84461" lon="2.27543">
        <ele>33.52797</ele>
        <time>2026-07-19T11:48:45.648Z</time>
      </trkpt>
      <trkpt lat="48.84464" lon="2.27546">
        <ele>33.52315</ele>
        <time>2026-07-19T11:48:48.649Z</time>
      </trkpt>
      <trkpt lat="48.84466" lon="2.27548">
        <ele>33.51942</ele>
        <time>2026-07-19T11:48:50.648Z</time>
      </trkpt>
      <trkpt lat="48.84468" lon="2.2755">
        <ele>33.51777</ele>
        <time>2026-07-19T11:48:53.648Z</time>
      </trkpt>
      <trkpt lat="48.84471" lon="2.27552">
        <ele>33.52081</ele>
        <time>2026-07-19T11:48:56.649Z</time>
      </trkpt>
      <trkpt lat="48.84474" lon="2.27555">
        <ele>33.52458</ele>
        <time>2026-07-19T11:48:59.648Z</time>
      </trkpt>
      <trkpt lat="48.84477" lon="2.27557">
        <ele>33.52738</ele>
        <time>2026-07-19T11:49:01.648Z</time>
      </trkpt>
      <trkpt lat="48.84479" lon="2.2756">
        <ele>33.53331</ele>
        <time>2026-07-19T11:49:04.648Z</time>
      </trkpt>
      <trkpt lat="48.84482" lon="2.27562">
        <ele>33.54322</ele>
        <time>2026-07-19T11:49:07.650Z</time>
      </trkpt>
      <trkpt lat="48.84484" lon="2.27563">
        <ele>33.55147</ele>
        <time>2026-07-19T11:49:09.649Z</time>
      </trkpt>
      <trkpt lat="48.84486" lon="2.27566">
        <ele>33.57261</ele>
        <time>2026-07-19T11:49:12.648Z</time>
      </trkpt>
      <trkpt lat="48.84489" lon="2.27567">
        <ele>33.59073</ele>
        <time>2026-07-19T11:49:14.649Z</time>
      </trkpt>
      <trkpt lat="48.84491" lon="2.2757">
        <ele>33.60681</ele>
        <time>2026-07-19T11:49:16.648Z</time>
      </trkpt>
      <trkpt lat="48.84494" lon="2.27572">
        <ele>33.62113</ele>
        <time>2026-07-19T11:49:19.648Z</time>
      </trkpt>
      <trkpt lat="48.84496" lon="2.27574">
        <ele>33.62606</ele>
        <time>2026-07-19T11:49:21.651Z</time>
      </trkpt>
      <trkpt lat="48.84499" lon="2.27576">
        <ele>33.6328</ele>
        <time>2026-07-19T11:49:25.649Z</time>
      </trkpt>
      <trkpt lat="48.84502" lon="2.27578">
        <ele>33.6269</ele>
        <time>2026-07-19T11:49:28.649Z</time>
      </trkpt>
      <trkpt lat="48.84504" lon="2.2758">
        <ele>33.62344</ele>
        <time>2026-07-19T11:49:30.649Z</time>
      </trkpt>
      <trkpt lat="48.84506" lon="2.27583">
        <ele>33.61508</ele>
        <time>2026-07-19T11:49:33.649Z</time>
      </trkpt>
      <trkpt lat="48.84508" lon="2.27585">
        <ele>33.60868</ele>
        <time>2026-07-19T11:49:35.649Z</time>
      </trkpt>
      <trkpt lat="48.8451" lon="2.27587">
        <ele>33.6047</ele>
        <time>2026-07-19T11:49:37.649Z</time>
      </trkpt>
      <trkpt lat="48.84512" lon="2.27589">
        <ele>33.60079</ele>
        <time>2026-07-19T11:49:39.649Z</time>
      </trkpt>
      <trkpt lat="48.84514" lon="2.27591">
        <ele>33.59861</ele>
        <time>2026-07-19T11:49:41.649Z</time>
      </trkpt>
      <trkpt lat="48.84517" lon="2.27592">
        <ele>33.59225</ele>
        <time>2026-07-19T11:49:44.650Z</time>
      </trkpt>
      <trkpt lat="48.84519" lon="2.27594">
        <ele>33.58371</ele>
        <time>2026-07-19T11:49:46.649Z</time>
      </trkpt>
      <trkpt lat="48.8452" lon="2.27597">
        <ele>33.56769</ele>
        <time>2026-07-19T11:49:48.649Z</time>
      </trkpt>
      <trkpt lat="48.84523" lon="2.27599">
        <ele>33.51959</ele>
        <time>2026-07-19T11:49:51.649Z</time>
      </trkpt>
      <trkpt lat="48.84526" lon="2.27601">
        <ele>33.45546</ele>
        <time>2026-07-19T11:49:54.649Z</time>
      </trkpt>
      <trkpt lat="48.84528" lon="2.27603">
        <ele>33.37917</ele>
        <time>2026-07-19T11:49:57.650Z</time>
      </trkpt>
      <trkpt lat="48.84531" lon="2.27606">
        <ele>33.2758</ele>
        <time>2026-07-19T11:50:00.649Z</time>
      </trkpt>
      <trkpt lat="48.84533" lon="2.27609">
        <ele>33.16248</ele>
        <time>2026-07-19T11:50:03.649Z</time>
      </trkpt>
      <trkpt lat="48.84536" lon="2.27611">
        <ele>33.07002</ele>
        <time>2026-07-19T11:50:06.650Z</time>
      </trkpt>
      <trkpt lat="48.84538" lon="2.27613">
        <ele>33.01521</ele>
        <time>2026-07-19T11:50:09.650Z</time>
      </trkpt>
      <trkpt lat="48.84541" lon="2.27616">
        <ele>32.96184</ele>
        <time>2026-07-19T11:50:12.650Z</time>
      </trkpt>
      <trkpt lat="48.84544" lon="2.27619">
        <ele>32.9487</ele>
        <time>2026-07-19T11:50:15.651Z</time>
      </trkpt>
      <trkpt lat="48.84546" lon="2.27621">
        <ele>32.95372</ele>
        <time>2026-07-19T11:50:18.650Z</time>
      </trkpt>
      <trkpt lat="48.84549" lon="2.27622">
        <ele>32.95619</ele>
        <time>2026-07-19T11:50:20.650Z</time>
      </trkpt>
      <trkpt lat="48.84552" lon="2.27623">
        <ele>32.96448</ele>
        <time>2026-07-19T11:50:22.650Z</time>
      </trkpt>
      <trkpt lat="48.84554" lon="2.27625">
        <ele>32.97862</ele>
        <time>2026-07-19T11:50:24.651Z</time>
      </trkpt>
      <trkpt lat="48.84556" lon="2.27627">
        <ele>32.99153</ele>
        <time>2026-07-19T11:50:26.650Z</time>
      </trkpt>
      <trkpt lat="48.84557" lon="2.2763">
        <ele>33.01175</ele>
        <time>2026-07-19T11:50:29.650Z</time>
      </trkpt>
      <trkpt lat="48.84559" lon="2.27633">
        <ele>33.02961</ele>
        <time>2026-07-19T11:50:31.651Z</time>
      </trkpt>
      <trkpt lat="48.84561" lon="2.27634">
        <ele>33.05875</ele>
        <time>2026-07-19T11:50:34.651Z</time>
      </trkpt>
      <trkpt lat="48.84564" lon="2.27637">
        <ele>33.07493</ele>
        <time>2026-07-19T11:50:37.650Z</time>
      </trkpt>
      <trkpt lat="48.84567" lon="2.27639">
        <ele>33.10007</ele>
        <time>2026-07-19T11:50:40.651Z</time>
      </trkpt>
      <trkpt lat="48.84569" lon="2.27641">
        <ele>33.11534</ele>
        <time>2026-07-19T11:50:42.651Z</time>
      </trkpt>
      <trkpt lat="48.84572" lon="2.27643">
        <ele>33.13633</ele>
        <time>2026-07-19T11:50:46.652Z</time>
      </trkpt>
      <trkpt lat="48.84575" lon="2.27644">
        <ele>33.14262</ele>
        <time>2026-07-19T11:50:49.650Z</time>
      </trkpt>
      <trkpt lat="48.84578" lon="2.27647">
        <ele>33.14793</ele>
        <time>2026-07-19T11:50:52.651Z</time>
      </trkpt>
      <trkpt lat="48.8458" lon="2.27649">
        <ele>33.1537</ele>
        <time>2026-07-19T11:50:55.651Z</time>
      </trkpt>
      <trkpt lat="48.84582" lon="2.27652">
        <ele>33.1596</ele>
        <time>2026-07-19T11:50:57.651Z</time>
      </trkpt>
      <trkpt lat="48.84584" lon="2.27655">
        <ele>33.17279</ele>
        <time>2026-07-19T11:51:00.651Z</time>
      </trkpt>
      <trkpt lat="48.84586" lon="2.27657">
        <ele>33.19113</ele>
        <time>2026-07-19T11:51:03.651Z</time>
      </trkpt>
      <trkpt lat="48.8459" lon="2.27659">
        <ele>33.24565</ele>
        <time>2026-07-19T11:51:06.651Z</time>
      </trkpt>
      <trkpt lat="48.84592" lon="2.27661">
        <ele>33.32288</ele>
        <time>2026-07-19T11:51:09.651Z</time>
      </trkpt>
      <trkpt lat="48.84595" lon="2.27663">
        <ele>33.41989</ele>
        <time>2026-07-19T11:51:12.651Z</time>
      </trkpt>
      <trkpt lat="48.84597" lon="2.27666">
        <ele>33.53189</ele>
        <time>2026-07-19T11:51:15.651Z</time>
      </trkpt>
      <trkpt lat="48.84599" lon="2.27668">
        <ele>33.60082</ele>
        <time>2026-07-19T11:51:17.651Z</time>
      </trkpt>
      <trkpt lat="48.84601" lon="2.27672">
        <ele>33.75589</ele>
        <time>2026-07-19T11:51:21.652Z</time>
      </trkpt>
      <trkpt lat="48.84603" lon="2.27674">
        <ele>33.88541</ele>
        <time>2026-07-19T11:51:24.652Z</time>
      </trkpt>
      <trkpt lat="48.84606" lon="2.27676">
        <ele>34.03368</ele>
        <time>2026-07-19T11:51:29.651Z</time>
      </trkpt>
      <trkpt lat="48.84608" lon="2.27673">
        <ele>34.11773</ele>
        <time>2026-07-19T11:51:36.653Z</time>
      </trkpt>
      <trkpt lat="48.84609" lon="2.27669">
        <ele>34.12096</ele>
        <time>2026-07-19T11:51:38.652Z</time>
      </trkpt>
      <trkpt lat="48.84611" lon="2.27666">
        <ele>34.12035</ele>
        <time>2026-07-19T11:51:40.652Z</time>
      </trkpt>
      <trkpt lat="48.84613" lon="2.27663">
        <ele>34.12597</ele>
        <time>2026-07-19T11:51:42.651Z</time>
      </trkpt>
      <trkpt lat="48.84614" lon="2.27659">
        <ele>34.14463</ele>
        <time>2026-07-19T11:51:44.652Z</time>
      </trkpt>
      <trkpt lat="48.84615" lon="2.27656">
        <ele>34.17187</ele>
        <time>2026-07-19T11:51:46.651Z</time>
      </trkpt>
      <trkpt lat="48.84617" lon="2.27654">
        <ele>34.23269</ele>
        <time>2026-07-19T11:51:49.652Z</time>
      </trkpt>
      <trkpt lat="48.84619" lon="2.27651">
        <ele>34.31978</ele>
        <time>2026-07-19T11:51:54.652Z</time>
      </trkpt>
      <trkpt lat="48.84621" lon="2.27648">
        <ele>34.37932</ele>
        <time>2026-07-19T11:51:58.652Z</time>
      </trkpt>
      <trkpt lat="48.84622" lon="2.27644">
        <ele>34.41726</ele>
        <time>2026-07-19T11:52:02.652Z</time>
      </trkpt>
      <trkpt lat="48.84623" lon="2.2764">
        <ele>34.42301</ele>
        <time>2026-07-19T11:52:04.652Z</time>
      </trkpt>
      <trkpt lat="48.84625" lon="2.27638">
        <ele>34.43662</ele>
        <time>2026-07-19T11:52:07.652Z</time>
      </trkpt>
      <trkpt lat="48.84626" lon="2.27635">
        <ele>34.44722</ele>
        <time>2026-07-19T11:52:10.653Z</time>
      </trkpt>
      <trkpt lat="48.84627" lon="2.2763">
        <ele>34.46179</ele>
        <time>2026-07-19T11:52:13.653Z</time>
      </trkpt>
      <trkpt lat="48.84629" lon="2.27627">
        <ele>34.48529</ele>
        <time>2026-07-19T11:52:16.652Z</time>
      </trkpt>
      <trkpt lat="48.84631" lon="2.27623">
        <ele>34.49843</ele>
        <time>2026-07-19T11:52:19.652Z</time>
      </trkpt>
      <trkpt lat="48.84631" lon="2.27619">
        <ele>34.50084</ele>
        <time>2026-07-19T11:52:22.653Z</time>
      </trkpt>
      <trkpt lat="48.84633" lon="2.27615">
        <ele>34.51303</ele>
        <time>2026-07-19T11:52:25.653Z</time>
      </trkpt>
      <trkpt lat="48.84635" lon="2.27612">
        <ele>34.53153</ele>
        <time>2026-07-19T11:52:28.653Z</time>
      </trkpt>
      <trkpt lat="48.84636" lon="2.27609">
        <ele>34.55494</ele>
        <time>2026-07-19T11:52:31.653Z</time>
      </trkpt>
      <trkpt lat="48.84637" lon="2.27605">
        <ele>34.57863</ele>
        <time>2026-07-19T11:52:34.653Z</time>
      </trkpt>
      <trkpt lat="48.84639" lon="2.27601">
        <ele>34.60488</ele>
        <time>2026-07-19T11:52:38.653Z</time>
      </trkpt>
      <trkpt lat="48.84641" lon="2.27599">
        <ele>34.6455</ele>
        <time>2026-07-19T11:52:41.653Z</time>
      </trkpt>
      <trkpt lat="48.84643" lon="2.27598">
        <ele>34.73474</ele>
        <time>2026-07-19T11:52:45.654Z</time>
      </trkpt>
      <trkpt lat="48.84643" lon="2.27593">
        <ele>35.23934</ele>
        <time>2026-07-19T11:53:01.653Z</time>
      </trkpt>
      <trkpt lat="48.84645" lon="2.27589">
        <ele>35.32689</ele>
        <time>2026-07-19T11:53:03.654Z</time>
      </trkpt>
      <trkpt lat="48.84646" lon="2.27585">
        <ele>35.40555</ele>
        <time>2026-07-19T11:53:06.654Z</time>
      </trkpt>
      <trkpt lat="48.84648" lon="2.27582">
        <ele>35.50699</ele>
        <time>2026-07-19T11:53:10.654Z</time>
      </trkpt>
      <trkpt lat="48.8465" lon="2.27579">
        <ele>35.55935</ele>
        <time>2026-07-19T11:53:12.654Z</time>
      </trkpt>
      <trkpt lat="48.84651" lon="2.27575">
        <ele>35.62891</ele>
        <time>2026-07-19T11:53:15.654Z</time>
      </trkpt>
      <trkpt lat="48.84653" lon="2.27572">
        <ele>35.7298</ele>
        <time>2026-07-19T11:53:19.654Z</time>
      </trkpt>
      <trkpt lat="48.84654" lon="2.27569">
        <ele>35.78424</ele>
        <time>2026-07-19T11:53:22.655Z</time>
      </trkpt>
      <trkpt lat="48.84656" lon="2.27567">
        <ele>35.9482</ele>
        <time>2026-07-19T11:53:28.654Z</time>
      </trkpt>
      <trkpt lat="48.84657" lon="2.27563">
        <ele>36.04081</ele>
        <time>2026-07-19T11:53:31.654Z</time>
      </trkpt>
      <trkpt lat="48.84658" lon="2.27559">
        <ele>36.21108</ele>
        <time>2026-07-19T11:53:35.654Z</time>
      </trkpt>
      <trkpt lat="48.84659" lon="2.27555">
        <ele>37.65827</ele>
        <time>2026-07-19T11:54:39.656Z</time>
      </trkpt>
      <trkpt lat="48.8466" lon="2.27551">
        <ele>37.65878</ele>
        <time>2026-07-19T11:54:43.656Z</time>
      </trkpt>
      <trkpt lat="48.84662" lon="2.27548">
        <ele>37.65741</ele>
        <time>2026-07-19T11:54:46.656Z</time>
      </trkpt>
      <trkpt lat="48.84664" lon="2.27545">
        <ele>37.65067</ele>
        <time>2026-07-19T11:54:49.656Z</time>
      </trkpt>
      <trkpt lat="48.84665" lon="2.27541">
        <ele>37.63816</ele>
        <time>2026-07-19T11:54:52.656Z</time>
      </trkpt>
      <trkpt lat="48.84667" lon="2.27538">
        <ele>37.61286</ele>
        <time>2026-07-19T11:54:55.656Z</time>
      </trkpt>
      <trkpt lat="48.84669" lon="2.27534">
        <ele>37.56743</ele>
        <time>2026-07-19T11:54:58.657Z</time>
      </trkpt>
      <trkpt lat="48.8467" lon="2.27531">
        <ele>37.49649</ele>
        <time>2026-07-19T11:55:01.657Z</time>
      </trkpt>
      <trkpt lat="48.84671" lon="2.27527">
        <ele>37.4134</ele>
        <time>2026-07-19T11:55:03.657Z</time>
      </trkpt>
      <trkpt lat="48.84673" lon="2.27522">
        <ele>37.25134</ele>
        <time>2026-07-19T11:55:06.657Z</time>
      </trkpt>
      <trkpt lat="48.84674" lon="2.27518">
        <ele>37.05892</ele>
        <time>2026-07-19T11:55:09.656Z</time>
      </trkpt>
      <trkpt lat="48.84676" lon="2.27515">
        <ele>36.82608</ele>
        <time>2026-07-19T11:55:12.657Z</time>
      </trkpt>
      <trkpt lat="48.84678" lon="2.27512">
        <ele>36.64353</ele>
        <time>2026-07-19T11:55:14.657Z</time>
      </trkpt>
      <trkpt lat="48.8468" lon="2.27509">
        <ele>36.32619</ele>
        <time>2026-07-19T11:55:17.657Z</time>
      </trkpt>
      <trkpt lat="48.84681" lon="2.27505">
        <ele>36.11211</ele>
        <time>2026-07-19T11:55:20.303Z</time>
      </trkpt>
      <trkpt lat="48.84683" lon="2.27501">
        <ele>35.78825</ele>
        <time>2026-07-19T11:55:22.971Z</time>
      </trkpt>
      <trkpt lat="48.84684" lon="2.27497">
        <ele>35.48696</ele>
        <time>2026-07-19T11:55:25.657Z</time>
      </trkpt>
      <trkpt lat="48.84686" lon="2.27492">
        <ele>35.27111</ele>
        <time>2026-07-19T11:55:28.657Z</time>
      </trkpt>
      <trkpt lat="48.84686" lon="2.27489">
        <ele>35.2458</ele>
        <time>2026-07-19T11:55:30.657Z</time>
      </trkpt>
      <trkpt lat="48.84688" lon="2.27485">
        <ele>35.2638</ele>
        <time>2026-07-19T11:55:33.657Z</time>
      </trkpt>
      <trkpt lat="48.84689" lon="2.27481">
        <ele>35.31392</ele>
        <time>2026-07-19T11:55:36.657Z</time>
      </trkpt>
      <trkpt lat="48.84691" lon="2.27479">
        <ele>35.475</ele>
        <time>2026-07-19T11:55:42.657Z</time>
      </trkpt>
      <trkpt lat="48.84691" lon="2.27475">
        <ele>35.5233</ele>
        <time>2026-07-19T11:55:44.657Z</time>
      </trkpt>
      <trkpt lat="48.84693" lon="2.27472">
        <ele>35.59748</ele>
        <time>2026-07-19T11:55:47.657Z</time>
      </trkpt>
      <trkpt lat="48.84695" lon="2.27468">
        <ele>35.67733</ele>
        <time>2026-07-19T11:55:50.657Z</time>
      </trkpt>
      <trkpt lat="48.84696" lon="2.27465">
        <ele>35.73397</ele>
        <time>2026-07-19T11:55:53.657Z</time>
      </trkpt>
      <trkpt lat="48.84698" lon="2.27463">
        <ele>35.76804</ele>
        <time>2026-07-19T11:55:56.657Z</time>
      </trkpt>
      <trkpt lat="48.84699" lon="2.27459">
        <ele>35.79271</ele>
        <time>2026-07-19T11:55:59.658Z</time>
      </trkpt>
      <trkpt lat="48.84701" lon="2.27455">
        <ele>35.80928</ele>
        <time>2026-07-19T11:56:02.657Z</time>
      </trkpt>
      <trkpt lat="48.84702" lon="2.27452">
        <ele>35.81015</ele>
        <time>2026-07-19T11:56:05.657Z</time>
      </trkpt>
      <trkpt lat="48.84704" lon="2.27449">
        <ele>35.80224</ele>
        <time>2026-07-19T11:56:19.658Z</time>
      </trkpt>
      <trkpt lat="48.84705" lon="2.27446">
        <ele>35.76298</ele>
        <time>2026-07-19T11:56:30.658Z</time>
      </trkpt>
      <trkpt lat="48.84706" lon="2.27442">
        <ele>35.72145</ele>
        <time>2026-07-19T11:56:35.659Z</time>
      </trkpt>
      <trkpt lat="48.84708" lon="2.27438">
        <ele>35.69456</ele>
        <time>2026-07-19T11:56:37.658Z</time>
      </trkpt>
      <trkpt lat="48.84709" lon="2.27432">
        <ele>35.66386</ele>
        <time>2026-07-19T11:56:39.659Z</time>
      </trkpt>
      <trkpt lat="48.8471" lon="2.27428">
        <ele>35.63016</ele>
        <time>2026-07-19T11:56:41.659Z</time>
      </trkpt>
      <trkpt lat="48.84712" lon="2.27425">
        <ele>35.61202</ele>
        <time>2026-07-19T11:56:43.658Z</time>
      </trkpt>
      <trkpt lat="48.84713" lon="2.27422">
        <ele>35.58152</ele>
        <time>2026-07-19T11:56:45.658Z</time>
      </trkpt>
      <trkpt lat="48.84714" lon="2.27418">
        <ele>35.55065</ele>
        <time>2026-07-19T11:56:48.658Z</time>
      </trkpt>
      <trkpt lat="48.84715" lon="2.27414">
        <ele>35.51466</ele>
        <time>2026-07-19T11:56:51.658Z</time>
      </trkpt>
      <trkpt lat="48.84716" lon="2.27411">
        <ele>35.4738</ele>
        <time>2026-07-19T11:56:54.659Z</time>
      </trkpt>
      <trkpt lat="48.84716" lon="2.27407">
        <ele>35.44224</ele>
        <time>2026-07-19T11:56:57.659Z</time>
      </trkpt>
      <trkpt lat="48.84717" lon="2.27404">
        <ele>35.40976</ele>
        <time>2026-07-19T11:57:00.659Z</time>
      </trkpt>
      <trkpt lat="48.84718" lon="2.27401">
        <ele>35.37979</ele>
        <time>2026-07-19T11:57:03.659Z</time>
      </trkpt>
      <trkpt lat="48.8472" lon="2.27398">
        <ele>35.34585</ele>
        <time>2026-07-19T11:57:07.659Z</time>
      </trkpt>
      <trkpt lat="48.8472" lon="2.27394">
        <ele>35.33188</ele>
        <time>2026-07-19T11:57:10.659Z</time>
      </trkpt>
      <trkpt lat="48.84721" lon="2.27391">
        <ele>35.31174</ele>
        <time>2026-07-19T11:57:13.659Z</time>
      </trkpt>
      <trkpt lat="48.84719" lon="2.27388">
        <ele>35.30134</ele>
        <time>2026-07-19T11:57:15.660Z</time>
      </trkpt>
      <trkpt lat="48.84722" lon="2.27385">
        <ele>35.29638</ele>
        <time>2026-07-19T11:57:16.659Z</time>
      </trkpt>
      <trkpt lat="48.84722" lon="2.27379">
        <ele>35.28433</ele>
        <time>2026-07-19T11:57:18.659Z</time>
      </trkpt>
      <trkpt lat="48.84722" lon="2.27373">
        <ele>35.27275</ele>
        <time>2026-07-19T11:57:20.659Z</time>
      </trkpt>
      <trkpt lat="48.8472" lon="2.27369">
        <ele>35.26242</ele>
        <time>2026-07-19T11:57:22.659Z</time>
      </trkpt>
      <trkpt lat="48.84719" lon="2.27363">
        <ele>35.23268</ele>
        <time>2026-07-19T11:57:27.659Z</time>
      </trkpt>
      <trkpt lat="48.8472" lon="2.2736">
        <ele>35.2234</ele>
        <time>2026-07-19T11:57:29.659Z</time>
      </trkpt>
      <trkpt lat="48.84721" lon="2.27356">
        <ele>35.21372</ele>
        <time>2026-07-19T11:57:32.660Z</time>
      </trkpt>
      <trkpt lat="48.84722" lon="2.27352">
        <ele>35.19461</ele>
        <time>2026-07-19T11:57:36.659Z</time>
      </trkpt>
      <trkpt lat="48.84721" lon="2.27348">
        <ele>35.17898</ele>
        <time>2026-07-19T11:57:40.659Z</time>
      </trkpt>
      <trkpt lat="48.8472" lon="2.27343">
        <ele>35.16573</ele>
        <time>2026-07-19T11:57:43.660Z</time>
      </trkpt>
      <trkpt lat="48.84721" lon="2.27339">
        <ele>35.15759</ele>
        <time>2026-07-19T11:57:45.660Z</time>
      </trkpt>
      <trkpt lat="48.84721" lon="2.27335">
        <ele>35.15219</ele>
        <time>2026-07-19T11:57:48.660Z</time>
      </trkpt>
      <trkpt lat="48.8472" lon="2.27332">
        <ele>35.14772</ele>
        <time>2026-07-19T11:57:51.660Z</time>
      </trkpt>
      <trkpt lat="48.84717" lon="2.2733">
        <ele>35.13798</ele>
        <time>2026-07-19T11:57:55.660Z</time>
      </trkpt>
      <trkpt lat="48.84715" lon="2.27328">
        <ele>35.12192</ele>
        <time>2026-07-19T11:57:59.660Z</time>
      </trkpt>
      <trkpt lat="48.84712" lon="2.27326">
        <ele>35.11247</ele>
        <time>2026-07-19T11:58:02.661Z</time>
      </trkpt>
      <trkpt lat="48.84709" lon="2.27325">
        <ele>35.1062</ele>
        <time>2026-07-19T11:58:04.660Z</time>
      </trkpt>
      <trkpt lat="48.84707" lon="2.27323">
        <ele>35.09996</ele>
        <time>2026-07-19T11:58:06.660Z</time>
      </trkpt>
      <trkpt lat="48.84705" lon="2.2732">
        <ele>35.08758</ele>
        <time>2026-07-19T11:58:09.661Z</time>
      </trkpt>
      <trkpt lat="48.84703" lon="2.27318">
        <ele>35.07706</ele>
        <time>2026-07-19T11:58:12.660Z</time>
      </trkpt>
      <trkpt lat="48.84701" lon="2.27316">
        <ele>35.0701</ele>
        <time>2026-07-19T11:58:14.660Z</time>
      </trkpt>
      <trkpt lat="48.84699" lon="2.27314">
        <ele>35.06519</ele>
        <time>2026-07-19T11:58:16.660Z</time>
      </trkpt>
      <trkpt lat="48.84696" lon="2.2731">
        <ele>35.05718</ele>
        <time>2026-07-19T11:58:19.661Z</time>
      </trkpt>
      <trkpt lat="48.84695" lon="2.27307">
        <ele>35.05026</ele>
        <time>2026-07-19T11:58:21.660Z</time>
      </trkpt>
      <trkpt lat="48.84691" lon="2.27305">
        <ele>35.03912</ele>
        <time>2026-07-19T11:58:24.661Z</time>
      </trkpt>
      <trkpt lat="48.84688" lon="2.27303">
        <ele>35.02792</ele>
        <time>2026-07-19T11:58:27.660Z</time>
      </trkpt>
      <trkpt lat="48.84687" lon="2.273">
        <ele>35.02032</ele>
        <time>2026-07-19T11:58:29.660Z</time>
      </trkpt>
      <trkpt lat="48.84685" lon="2.27298">
        <ele>35.01764</ele>
        <time>2026-07-19T11:58:31.661Z</time>
      </trkpt>
      <trkpt lat="48.84681" lon="2.27298">
        <ele>35.022</ele>
        <time>2026-07-19T11:58:33.660Z</time>
      </trkpt>
      <trkpt lat="48.84679" lon="2.27296">
        <ele>35.02826</ele>
        <time>2026-07-19T11:58:35.660Z</time>
      </trkpt>
      <trkpt lat="48.84677" lon="2.27294">
        <ele>35.0327</ele>
        <time>2026-07-19T11:58:38.176Z</time>
      </trkpt>
      <trkpt lat="48.84675" lon="2.27292">
        <ele>35.03827</ele>
        <time>2026-07-19T11:58:40.886Z</time>
      </trkpt>
      <trkpt lat="48.84673" lon="2.2729">
        <ele>35.04091</ele>
        <time>2026-07-19T11:58:42.661Z</time>
      </trkpt>
      <trkpt lat="48.8467" lon="2.27289">
        <ele>35.04208</ele>
        <time>2026-07-19T11:58:44.661Z</time>
      </trkpt>
      <trkpt lat="48.84668" lon="2.27286">
        <ele>35.04312</ele>
        <time>2026-07-19T11:58:47.661Z</time>
      </trkpt>
      <trkpt lat="48.84666" lon="2.27284">
        <ele>35.04311</ele>
        <time>2026-07-19T11:58:49.661Z</time>
      </trkpt>
      <trkpt lat="48.84664" lon="2.27281">
        <ele>35.04285</ele>
        <time>2026-07-19T11:58:53.661Z</time>
      </trkpt>
      <trkpt lat="48.84661" lon="2.2728">
        <ele>35.04241</ele>
        <time>2026-07-19T11:58:55.661Z</time>
      </trkpt>
      <trkpt lat="48.84659" lon="2.27277">
        <ele>35.04269</ele>
        <time>2026-07-19T11:58:58.661Z</time>
      </trkpt>
      <trkpt lat="48.84655" lon="2.27275">
        <ele>35.04273</ele>
        <time>2026-07-19T11:59:00.662Z</time>
      </trkpt>
      <trkpt lat="48.84654" lon="2.27273">
        <ele>35.04277</ele>
        <time>2026-07-19T11:59:02.662Z</time>
      </trkpt>
      <trkpt lat="48.84651" lon="2.2727">
        <ele>35.04346</ele>
        <time>2026-07-19T11:59:05.661Z</time>
      </trkpt>
      <trkpt lat="48.84649" lon="2.27268">
        <ele>35.04372</ele>
        <time>2026-07-19T11:59:08.662Z</time>
      </trkpt>
      <trkpt lat="48.84649" lon="2.27264">
        <ele>35.04369</ele>
        <time>2026-07-19T11:59:11.662Z</time>
      </trkpt>
      <trkpt lat="48.84647" lon="2.27261">
        <ele>35.04331</ele>
        <time>2026-07-19T11:59:14.661Z</time>
      </trkpt>
      <trkpt lat="48.84645" lon="2.27258">
        <ele>35.04318</ele>
        <time>2026-07-19T11:59:16.661Z</time>
      </trkpt>
      <trkpt lat="48.84644" lon="2.27255">
        <ele>35.04244</ele>
        <time>2026-07-19T11:59:19.661Z</time>
      </trkpt>
      <trkpt lat="48.84642" lon="2.27251">
        <ele>35.04097</ele>
        <time>2026-07-19T11:59:22.661Z</time>
      </trkpt>
      <trkpt lat="48.84639" lon="2.2725">
        <ele>35.03932</ele>
        <time>2026-07-19T11:59:25.662Z</time>
      </trkpt>
      <trkpt lat="48.84636" lon="2.27247">
        <ele>35.03786</ele>
        <time>2026-07-19T11:59:28.662Z</time>
      </trkpt>
      <trkpt lat="48.84634" lon="2.27243">
        <ele>35.03777</ele>
        <time>2026-07-19T11:59:30.661Z</time>
      </trkpt>
      <trkpt lat="48.84632" lon="2.27241">
        <ele>35.03794</ele>
        <time>2026-07-19T11:59:32.661Z</time>
      </trkpt>
      <trkpt lat="48.84629" lon="2.27239">
        <ele>35.03841</ele>
        <time>2026-07-19T11:59:34.662Z</time>
      </trkpt>
      <trkpt lat="48.84627" lon="2.27238">
        <ele>35.03881</ele>
        <time>2026-07-19T11:59:37.662Z</time>
      </trkpt>
      <trkpt lat="48.84625" lon="2.27235">
        <ele>35.0383</ele>
        <time>2026-07-19T11:59:39.662Z</time>
      </trkpt>
      <trkpt lat="48.84622" lon="2.27233">
        <ele>35.03824</ele>
        <time>2026-07-19T11:59:41.662Z</time>
      </trkpt>
      <trkpt lat="48.8462" lon="2.27231">
        <ele>35.03803</ele>
        <time>2026-07-19T11:59:43.662Z</time>
      </trkpt>
      <trkpt lat="48.84618" lon="2.27229">
        <ele>35.03822</ele>
        <time>2026-07-19T11:59:46.662Z</time>
      </trkpt>
      <trkpt lat="48.84616" lon="2.27225">
        <ele>35.03761</ele>
        <time>2026-07-19T11:59:49.662Z</time>
      </trkpt>
      <trkpt lat="48.84614" lon="2.27222">
        <ele>35.03668</ele>
        <time>2026-07-19T11:59:52.662Z</time>
      </trkpt>
      <trkpt lat="48.84612" lon="2.2722">
        <ele>35.03494</ele>
        <time>2026-07-19T11:59:55.662Z</time>
      </trkpt>
      <trkpt lat="48.84609" lon="2.27218">
        <ele>35.03252</ele>
        <time>2026-07-19T11:59:58.662Z</time>
      </trkpt>
      <trkpt lat="48.84607" lon="2.27214">
        <ele>35.02969</ele>
        <time>2026-07-19T12:00:01.662Z</time>
      </trkpt>
      <trkpt lat="48.84606" lon="2.27211">
        <ele>35.02495</ele>
        <time>2026-07-19T12:00:04.662Z</time>
      </trkpt>
      <trkpt lat="48.84604" lon="2.27209">
        <ele>35.0105</ele>
        <time>2026-07-19T12:00:07.662Z</time>
      </trkpt>
      <trkpt lat="48.84601" lon="2.27206">
        <ele>34.98502</ele>
        <time>2026-07-19T12:00:10.662Z</time>
      </trkpt>
      <trkpt lat="48.846" lon="2.27202">
        <ele>34.94953</ele>
        <time>2026-07-19T12:00:13.662Z</time>
      </trkpt>
      <trkpt lat="48.84597" lon="2.272">
        <ele>34.89886</ele>
        <time>2026-07-19T12:00:16.662Z</time>
      </trkpt>
      <trkpt lat="48.84595" lon="2.27198">
        <ele>34.86173</ele>
        <time>2026-07-19T12:00:18.663Z</time>
      </trkpt>
      <trkpt lat="48.84592" lon="2.27196">
        <ele>34.8143</ele>
        <time>2026-07-19T12:00:20.662Z</time>
      </trkpt>
      <trkpt lat="48.84589" lon="2.27194">
        <ele>34.77227</ele>
        <time>2026-07-19T12:00:22.662Z</time>
      </trkpt>
      <trkpt lat="48.84586" lon="2.27192">
        <ele>34.71354</ele>
        <time>2026-07-19T12:00:25.662Z</time>
      </trkpt>
      <trkpt lat="48.84583" lon="2.2719">
        <ele>34.64316</ele>
        <time>2026-07-19T12:00:28.662Z</time>
      </trkpt>
      <trkpt lat="48.84581" lon="2.27188">
        <ele>34.56907</ele>
        <time>2026-07-19T12:00:31.663Z</time>
      </trkpt>
      <trkpt lat="48.84579" lon="2.27186">
        <ele>34.52095</ele>
        <time>2026-07-19T12:00:33.662Z</time>
      </trkpt>
      <trkpt lat="48.84575" lon="2.27183">
        <ele>34.45909</ele>
        <time>2026-07-19T12:00:36.663Z</time>
      </trkpt>
      <trkpt lat="48.84572" lon="2.27181">
        <ele>34.40275</ele>
        <time>2026-07-19T12:00:39.663Z</time>
      </trkpt>
      <trkpt lat="48.8457" lon="2.27178">
        <ele>34.37843</ele>
        <time>2026-07-19T12:00:41.662Z</time>
      </trkpt>
      <trkpt lat="48.84568" lon="2.27176">
        <ele>34.35674</ele>
        <time>2026-07-19T12:00:43.663Z</time>
      </trkpt>
      <trkpt lat="48.84565" lon="2.27175">
        <ele>34.34721</ele>
        <time>2026-07-19T12:00:45.663Z</time>
      </trkpt>
      <trkpt lat="48.84563" lon="2.27173">
        <ele>34.34107</ele>
        <time>2026-07-19T12:00:49.663Z</time>
      </trkpt>
      <trkpt lat="48.8456" lon="2.2717">
        <ele>34.33462</ele>
        <time>2026-07-19T12:00:52.663Z</time>
      </trkpt>
      <trkpt lat="48.84558" lon="2.27168">
        <ele>34.3302</ele>
        <time>2026-07-19T12:00:54.664Z</time>
      </trkpt>
      <trkpt lat="48.84556" lon="2.27166">
        <ele>34.32541</ele>
        <time>2026-07-19T12:00:57.664Z</time>
      </trkpt>
      <trkpt lat="48.84554" lon="2.27163">
        <ele>34.32193</ele>
        <time>2026-07-19T12:00:59.663Z</time>
      </trkpt>
      <trkpt lat="48.84551" lon="2.27162">
        <ele>34.31669</ele>
        <time>2026-07-19T12:01:01.664Z</time>
      </trkpt>
      <trkpt lat="48.84549" lon="2.27159">
        <ele>34.31102</ele>
        <time>2026-07-19T12:01:04.663Z</time>
      </trkpt>
      <trkpt lat="48.84546" lon="2.27157">
        <ele>34.30574</ele>
        <time>2026-07-19T12:01:07.664Z</time>
      </trkpt>
      <trkpt lat="48.84544" lon="2.27155">
        <ele>34.28163</ele>
        <time>2026-07-19T12:01:12.664Z</time>
      </trkpt>
      <trkpt lat="48.84541" lon="2.27153">
        <ele>34.26994</ele>
        <time>2026-07-19T12:01:14.664Z</time>
      </trkpt>
      <trkpt lat="48.84539" lon="2.27151">
        <ele>34.26456</ele>
        <time>2026-07-19T12:01:16.663Z</time>
      </trkpt>
      <trkpt lat="48.84537" lon="2.27148">
        <ele>34.26051</ele>
        <time>2026-07-19T12:01:18.664Z</time>
      </trkpt>
      <trkpt lat="48.84535" lon="2.27146">
        <ele>34.25528</ele>
        <time>2026-07-19T12:01:21.664Z</time>
      </trkpt>
      <trkpt lat="48.84532" lon="2.27144">
        <ele>34.24748</ele>
        <time>2026-07-19T12:01:24.663Z</time>
      </trkpt>
      <trkpt lat="48.8453" lon="2.27141">
        <ele>34.23736</ele>
        <time>2026-07-19T12:01:27.664Z</time>
      </trkpt>
      <trkpt lat="48.84528" lon="2.27138">
        <ele>34.22588</ele>
        <time>2026-07-19T12:01:30.664Z</time>
      </trkpt>
      <trkpt lat="48.84525" lon="2.27135">
        <ele>34.22172</ele>
        <time>2026-07-19T12:01:32.664Z</time>
      </trkpt>
      <trkpt lat="48.84522" lon="2.27133">
        <ele>34.22147</ele>
        <time>2026-07-19T12:01:34.664Z</time>
      </trkpt>
      <trkpt lat="48.84519" lon="2.27132">
        <ele>34.22386</ele>
        <time>2026-07-19T12:01:37.664Z</time>
      </trkpt>
      <trkpt lat="48.84517" lon="2.27131">
        <ele>34.22648</ele>
        <time>2026-07-19T12:01:40.664Z</time>
      </trkpt>
      <trkpt lat="48.84514" lon="2.27129">
        <ele>34.22774</ele>
        <time>2026-07-19T12:01:43.664Z</time>
      </trkpt>
      <trkpt lat="48.84512" lon="2.27126">
        <ele>34.2267</ele>
        <time>2026-07-19T12:01:45.664Z</time>
      </trkpt>
      <trkpt lat="48.8451" lon="2.27123">
        <ele>34.22335</ele>
        <time>2026-07-19T12:01:48.664Z</time>
      </trkpt>
      <trkpt lat="48.84508" lon="2.2712">
        <ele>34.22074</ele>
        <time>2026-07-19T12:01:50.664Z</time>
      </trkpt>
      <trkpt lat="48.84506" lon="2.27118">
        <ele>34.21923</ele>
        <time>2026-07-19T12:01:53.664Z</time>
      </trkpt>
      <trkpt lat="48.84504" lon="2.27115">
        <ele>34.22222</ele>
        <time>2026-07-19T12:01:56.664Z</time>
      </trkpt>
      <trkpt lat="48.84501" lon="2.27112">
        <ele>34.22851</ele>
        <time>2026-07-19T12:02:00.664Z</time>
      </trkpt>
      <trkpt lat="48.84499" lon="2.2711">
        <ele>34.23168</ele>
        <time>2026-07-19T12:02:02.664Z</time>
      </trkpt>
      <trkpt lat="48.84497" lon="2.27108">
        <ele>34.23482</ele>
        <time>2026-07-19T12:02:04.664Z</time>
      </trkpt>
      <trkpt lat="48.84495" lon="2.27108">
        <ele>34.23798</ele>
        <time>2026-07-19T12:02:07.665Z</time>
      </trkpt>
      <trkpt lat="48.84493" lon="2.27106">
        <ele>34.24118</ele>
        <time>2026-07-19T12:02:09.665Z</time>
      </trkpt>
      <trkpt lat="48.8449" lon="2.27103">
        <ele>34.24484</ele>
        <time>2026-07-19T12:02:11.665Z</time>
      </trkpt>
      <trkpt lat="48.84488" lon="2.27101">
        <ele>34.25023</ele>
        <time>2026-07-19T12:02:14.664Z</time>
      </trkpt>
      <trkpt lat="48.84487" lon="2.27098">
        <ele>34.25462</ele>
        <time>2026-07-19T12:02:16.665Z</time>
      </trkpt>
      <trkpt lat="48.84484" lon="2.27097">
        <ele>34.26021</ele>
        <time>2026-07-19T12:02:18.664Z</time>
      </trkpt>
      <trkpt lat="48.84481" lon="2.27097">
        <ele>34.26552</ele>
        <time>2026-07-19T12:02:20.665Z</time>
      </trkpt>
      <trkpt lat="48.84479" lon="2.27095">
        <ele>34.26992</ele>
        <time>2026-07-19T12:02:22.664Z</time>
      </trkpt>
      <trkpt lat="48.84477" lon="2.27094">
        <ele>34.27483</ele>
        <time>2026-07-19T12:02:24.665Z</time>
      </trkpt>
      <trkpt lat="48.84474" lon="2.27093">
        <ele>34.28219</ele>
        <time>2026-07-19T12:02:27.665Z</time>
      </trkpt>
      <trkpt lat="48.84472" lon="2.27091">
        <ele>34.28804</ele>
        <time>2026-07-19T12:02:30.665Z</time>
      </trkpt>
      <trkpt lat="48.8447" lon="2.27088">
        <ele>34.29122</ele>
        <time>2026-07-19T12:02:32.665Z</time>
      </trkpt>
      <trkpt lat="48.84467" lon="2.27087">
        <ele>34.29447</ele>
        <time>2026-07-19T12:02:34.665Z</time>
      </trkpt>
      <trkpt lat="48.84465" lon="2.27084">
        <ele>34.29872</ele>
        <time>2026-07-19T12:02:36.665Z</time>
      </trkpt>
      <trkpt lat="48.84462" lon="2.27082">
        <ele>34.30489</ele>
        <time>2026-07-19T12:02:38.665Z</time>
      </trkpt>
      <trkpt lat="48.8446" lon="2.27079">
        <ele>34.31414</ele>
        <time>2026-07-19T12:02:41.665Z</time>
      </trkpt>
      <trkpt lat="48.84457" lon="2.27075">
        <ele>34.32608</ele>
        <time>2026-07-19T12:02:44.666Z</time>
      </trkpt>
      <trkpt lat="48.84454" lon="2.27072">
        <ele>34.34055</ele>
        <time>2026-07-19T12:02:47.665Z</time>
      </trkpt>
      <trkpt lat="48.84452" lon="2.27069">
        <ele>34.35769</ele>
        <time>2026-07-19T12:02:50.665Z</time>
      </trkpt>
      <trkpt lat="48.8445" lon="2.27069">
        <ele>34.37606</ele>
        <time>2026-07-19T12:02:52.665Z</time>
      </trkpt>
      <trkpt lat="48.84448" lon="2.27066">
        <ele>34.40255</ele>
        <time>2026-07-19T12:02:54.666Z</time>
      </trkpt>
      <trkpt lat="48.84446" lon="2.27062">
        <ele>34.45868</ele>
        <time>2026-07-19T12:02:57.665Z</time>
      </trkpt>
      <trkpt lat="48.84444" lon="2.27059">
        <ele>34.55571</ele>
        <time>2026-07-19T12:03:01.666Z</time>
      </trkpt>
      <trkpt lat="48.84442" lon="2.27056">
        <ele>34.61098</ele>
        <time>2026-07-19T12:03:03.665Z</time>
      </trkpt>
      <trkpt lat="48.8444" lon="2.27054">
        <ele>34.66701</ele>
        <time>2026-07-19T12:03:05.665Z</time>
      </trkpt>
      <trkpt lat="48.84437" lon="2.27051">
        <ele>34.74483</ele>
        <time>2026-07-19T12:03:08.666Z</time>
      </trkpt>
      <trkpt lat="48.84436" lon="2.27047">
        <ele>34.8091</ele>
        <time>2026-07-19T12:03:11.666Z</time>
      </trkpt>
      <trkpt lat="48.84434" lon="2.27045">
        <ele>34.84147</ele>
        <time>2026-07-19T12:03:13.666Z</time>
      </trkpt>
      <trkpt lat="48.84431" lon="2.27043">
        <ele>34.88172</ele>
        <time>2026-07-19T12:03:16.665Z</time>
      </trkpt>
      <trkpt lat="48.84429" lon="2.27039">
        <ele>34.90694</ele>
        <time>2026-07-19T12:03:19.666Z</time>
      </trkpt>
      <trkpt lat="48.84427" lon="2.27036">
        <ele>34.9219</ele>
        <time>2026-07-19T12:03:22.665Z</time>
      </trkpt>
      <trkpt lat="48.84424" lon="2.27032">
        <ele>34.92189</ele>
        <time>2026-07-19T12:03:24.666Z</time>
      </trkpt>
      <trkpt lat="48.84422" lon="2.2703">
        <ele>34.9193</ele>
        <time>2026-07-19T12:03:26.666Z</time>
      </trkpt>
      <trkpt lat="48.84419" lon="2.27028">
        <ele>34.91217</ele>
        <time>2026-07-19T12:03:29.666Z</time>
      </trkpt>
      <trkpt lat="48.84416" lon="2.27025">
        <ele>34.91009</ele>
        <time>2026-07-19T12:03:33.666Z</time>
      </trkpt>
      <trkpt lat="48.84413" lon="2.27024">
        <ele>34.90486</ele>
        <time>2026-07-19T12:03:35.666Z</time>
      </trkpt>
      <trkpt lat="48.84411" lon="2.27022">
        <ele>34.89796</ele>
        <time>2026-07-19T12:03:37.667Z</time>
      </trkpt>
      <trkpt lat="48.8441" lon="2.27019">
        <ele>34.88916</ele>
        <time>2026-07-19T12:03:39.666Z</time>
      </trkpt>
      <trkpt lat="48.84408" lon="2.27016">
        <ele>34.87784</ele>
        <time>2026-07-19T12:03:42.666Z</time>
      </trkpt>
      <trkpt lat="48.84406" lon="2.27013">
        <ele>34.86775</ele>
        <time>2026-07-19T12:03:45.666Z</time>
      </trkpt>
      <trkpt lat="48.84403" lon="2.2701">
        <ele>34.84316</ele>
        <time>2026-07-19T12:03:48.667Z</time>
      </trkpt>
      <trkpt lat="48.84401" lon="2.27007">
        <ele>34.79801</ele>
        <time>2026-07-19T12:03:51.666Z</time>
      </trkpt>
      <trkpt lat="48.84399" lon="2.27004">
        <ele>34.68662</ele>
        <time>2026-07-19T12:03:54.667Z</time>
      </trkpt>
      <trkpt lat="48.84396" lon="2.27002">
        <ele>34.5231</ele>
        <time>2026-07-19T12:03:57.666Z</time>
      </trkpt>
      <trkpt lat="48.84394" lon="2.27001">
        <ele>34.33993</ele>
        <time>2026-07-19T12:04:00.666Z</time>
      </trkpt>
      <trkpt lat="48.84393" lon="2.26998">
        <ele>34.09974</ele>
        <time>2026-07-19T12:04:04.667Z</time>
      </trkpt>
      <trkpt lat="48.8439" lon="2.26995">
        <ele>33.91829</ele>
        <time>2026-07-19T12:04:07.666Z</time>
      </trkpt>
      <trkpt lat="48.84388" lon="2.26992">
        <ele>33.77191</ele>
        <time>2026-07-19T12:04:10.667Z</time>
      </trkpt>
      <trkpt lat="48.84386" lon="2.26989">
        <ele>33.68768</ele>
        <time>2026-07-19T12:04:12.667Z</time>
      </trkpt>
      <trkpt lat="48.84383" lon="2.26988">
        <ele>33.61966</ele>
        <time>2026-07-19T12:04:14.666Z</time>
      </trkpt>
      <trkpt lat="48.8438" lon="2.26985">
        <ele>33.53557</ele>
        <time>2026-07-19T12:04:17.666Z</time>
      </trkpt>
      <trkpt lat="48.84377" lon="2.26984">
        <ele>33.48788</ele>
        <time>2026-07-19T12:04:19.667Z</time>
      </trkpt>
      <trkpt lat="48.84375" lon="2.26982">
        <ele>33.44259</ele>
        <time>2026-07-19T12:04:21.667Z</time>
      </trkpt>
      <trkpt lat="48.84372" lon="2.26981">
        <ele>33.39902</ele>
        <time>2026-07-19T12:04:23.667Z</time>
      </trkpt>
      <trkpt lat="48.8437" lon="2.26979">
        <ele>33.34937</ele>
        <time>2026-07-19T12:04:26.667Z</time>
      </trkpt>
      <trkpt lat="48.84367" lon="2.26978">
        <ele>33.31748</ele>
        <time>2026-07-19T12:04:28.667Z</time>
      </trkpt>
      <trkpt lat="48.84365" lon="2.26978">
        <ele>33.28326</ele>
        <time>2026-07-19T12:04:30.667Z</time>
      </trkpt>
      <trkpt lat="48.84362" lon="2.26977">
        <ele>33.24425</ele>
        <time>2026-07-19T12:04:33.668Z</time>
      </trkpt>
      <trkpt lat="48.84361" lon="2.26973">
        <ele>33.1907</ele>
        <time>2026-07-19T12:04:37.667Z</time>
      </trkpt>
      <trkpt lat="48.84359" lon="2.26969">
        <ele>33.16039</ele>
        <time>2026-07-19T12:04:40.667Z</time>
      </trkpt>
      <trkpt lat="48.84357" lon="2.26966">
        <ele>33.1441</ele>
        <time>2026-07-19T12:04:42.668Z</time>
      </trkpt>
      <trkpt lat="48.84355" lon="2.26963">
        <ele>33.13487</ele>
        <time>2026-07-19T12:04:44.667Z</time>
      </trkpt>
      <trkpt lat="48.84353" lon="2.26959">
        <ele>33.12678</ele>
        <time>2026-07-19T12:04:47.667Z</time>
      </trkpt>
      <trkpt lat="48.84351" lon="2.26957">
        <ele>33.11873</ele>
        <time>2026-07-19T12:04:49.668Z</time>
      </trkpt>
      <trkpt lat="48.84347" lon="2.26955">
        <ele>33.10883</ele>
        <time>2026-07-19T12:04:52.668Z</time>
      </trkpt>
      <trkpt lat="48.84345" lon="2.26952">
        <ele>33.08495</ele>
        <time>2026-07-19T12:04:56.667Z</time>
      </trkpt>
      <trkpt lat="48.84343" lon="2.2695">
        <ele>33.0722</ele>
        <time>2026-07-19T12:04:58.668Z</time>
      </trkpt>
      <trkpt lat="48.84341" lon="2.26947">
        <ele>33.06359</ele>
        <time>2026-07-19T12:05:00.668Z</time>
      </trkpt>
      <trkpt lat="48.84339" lon="2.26943">
        <ele>33.05244</ele>
        <time>2026-07-19T12:05:03.667Z</time>
      </trkpt>
      <trkpt lat="48.84336" lon="2.2694">
        <ele>33.0441</ele>
        <time>2026-07-19T12:05:06.668Z</time>
      </trkpt>
      <trkpt lat="48.84334" lon="2.26938">
        <ele>33.04098</ele>
        <time>2026-07-19T12:05:08.668Z</time>
      </trkpt>
      <trkpt lat="48.84331" lon="2.26938">
        <ele>33.03558</ele>
        <time>2026-07-19T12:05:11.668Z</time>
      </trkpt>
      <trkpt lat="48.84328" lon="2.26937">
        <ele>33.03516</ele>
        <time>2026-07-19T12:05:14.668Z</time>
      </trkpt>
      <trkpt lat="48.84326" lon="2.26934">
        <ele>33.0387</ele>
        <time>2026-07-19T12:05:16.668Z</time>
      </trkpt>
      <trkpt lat="48.84324" lon="2.26931">
        <ele>33.04708</ele>
        <time>2026-07-19T12:05:18.668Z</time>
      </trkpt>
      <trkpt lat="48.84322" lon="2.26929">
        <ele>33.0539</ele>
        <time>2026-07-19T12:05:21.668Z</time>
      </trkpt>
      <trkpt lat="48.84319" lon="2.26927">
        <ele>33.06185</ele>
        <time>2026-07-19T12:05:24.668Z</time>
      </trkpt>
      <trkpt lat="48.84317" lon="2.26925">
        <ele>33.06913</ele>
        <time>2026-07-19T12:05:27.668Z</time>
      </trkpt>
      <trkpt lat="48.84315" lon="2.26923">
        <ele>33.07429</ele>
        <time>2026-07-19T12:05:30.668Z</time>
      </trkpt>
      <trkpt lat="48.84313" lon="2.26921">
        <ele>33.07506</ele>
        <time>2026-07-19T12:05:33.669Z</time>
      </trkpt>
      <trkpt lat="48.84311" lon="2.26918">
        <ele>33.07658</ele>
        <time>2026-07-19T12:05:37.669Z</time>
      </trkpt>
      <trkpt lat="48.84309" lon="2.26915">
        <ele>33.07653</ele>
        <time>2026-07-19T12:05:43.960Z</time>
      </trkpt>
      <trkpt lat="48.84307" lon="2.26912">
        <ele>33.07589</ele>
        <time>2026-07-19T12:05:44.668Z</time>
      </trkpt>
      <trkpt lat="48.84305" lon="2.2691">
        <ele>33.07507</ele>
        <time>2026-07-19T12:05:46.669Z</time>
      </trkpt>
      <trkpt lat="48.84304" lon="2.26907">
        <ele>33.07416</ele>
        <time>2026-07-19T12:05:49.668Z</time>
      </trkpt>
      <trkpt lat="48.84305" lon="2.26904">
        <ele>33.07144</ele>
        <time>2026-07-19T12:05:56.668Z</time>
      </trkpt>
      <trkpt lat="48.84307" lon="2.26902">
        <ele>33.06746</ele>
        <time>2026-07-19T12:06:00.669Z</time>
      </trkpt>
      <trkpt lat="48.84309" lon="2.26898">
        <ele>33.06383</ele>
        <time>2026-07-19T12:06:03.669Z</time>
      </trkpt>
      <trkpt lat="48.8431" lon="2.26893">
        <ele>33.06028</ele>
        <time>2026-07-19T12:06:06.669Z</time>
      </trkpt>
      <trkpt lat="48.84311" lon="2.2689">
        <ele>33.05608</ele>
        <time>2026-07-19T12:06:08.669Z</time>
      </trkpt>
      <trkpt lat="48.84312" lon="2.26886">
        <ele>33.05532</ele>
        <time>2026-07-19T12:06:10.669Z</time>
      </trkpt>
      <trkpt lat="48.84314" lon="2.26882">
        <ele>33.05232</ele>
        <time>2026-07-19T12:06:13.669Z</time>
      </trkpt>
      <trkpt lat="48.84315" lon="2.26879">
        <ele>33.04788</ele>
        <time>2026-07-19T12:06:16.669Z</time>
      </trkpt>
      <trkpt lat="48.84318" lon="2.26879">
        <ele>33.03963</ele>
        <time>2026-07-19T12:06:21.670Z</time>
      </trkpt>
      <trkpt lat="48.8432" lon="2.2688">
        <ele>33.03373</ele>
        <time>2026-07-19T12:06:23.669Z</time>
      </trkpt>
      <trkpt lat="48.84323" lon="2.2688">
        <ele>33.02251</ele>
        <time>2026-07-19T12:06:25.669Z</time>
      </trkpt>
      <trkpt lat="48.84326" lon="2.26881">
        <ele>32.98739</ele>
        <time>2026-07-19T12:06:28.669Z</time>
      </trkpt>
      <trkpt lat="48.84328" lon="2.26883">
        <ele>32.95124</ele>
        <time>2026-07-19T12:06:30.669Z</time>
      </trkpt>
      <trkpt lat="48.8433" lon="2.26886">
        <ele>32.8764</ele>
        <time>2026-07-19T12:06:33.670Z</time>
      </trkpt>
      <trkpt lat="48.84332" lon="2.26887">
        <ele>32.82511</ele>
        <time>2026-07-19T12:06:35.669Z</time>
      </trkpt>
      <trkpt lat="48.84336" lon="2.26888">
        <ele>32.74898</ele>
        <time>2026-07-19T12:06:38.669Z</time>
      </trkpt>
      <trkpt lat="48.84339" lon="2.2689">
        <ele>32.66855</ele>
        <time>2026-07-19T12:06:41.670Z</time>
      </trkpt>
      <trkpt lat="48.84341" lon="2.26892">
        <ele>32.61238</ele>
        <time>2026-07-19T12:06:43.669Z</time>
      </trkpt>
      <trkpt lat="48.84343" lon="2.26894">
        <ele>32.53853</ele>
        <time>2026-07-19T12:06:46.670Z</time>
      </trkpt>
      <trkpt lat="48.84345" lon="2.26895">
        <ele>32.46665</ele>
        <time>2026-07-19T12:06:49.670Z</time>
      </trkpt>
      <trkpt lat="48.84348" lon="2.26895">
        <ele>32.39796</ele>
        <time>2026-07-19T12:06:51.670Z</time>
      </trkpt>
      <trkpt lat="48.84351" lon="2.26896">
        <ele>32.18665</ele>
        <time>2026-07-19T12:06:55.670Z</time>
      </trkpt>
      <trkpt lat="48.84354" lon="2.26896">
        <ele>32.0002</ele>
        <time>2026-07-19T12:06:58.670Z</time>
      </trkpt>
      <trkpt lat="48.84356" lon="2.26896">
        <ele>31.82453</ele>
        <time>2026-07-19T12:07:01.670Z</time>
      </trkpt>
      <trkpt lat="48.84358" lon="2.26896">
        <ele>31.55549</ele>
        <time>2026-07-19T12:07:05.670Z</time>
      </trkpt>
      <trkpt lat="48.84361" lon="2.26896">
        <ele>31.35021</ele>
        <time>2026-07-19T12:07:08.670Z</time>
      </trkpt>
      <trkpt lat="48.84364" lon="2.26896">
        <ele>31.16741</ele>
        <time>2026-07-19T12:07:12.810Z</time>
      </trkpt>
      <trkpt lat="48.84367" lon="2.26896">
        <ele>31.05393</ele>
        <time>2026-07-19T12:07:13.871Z</time>
      </trkpt>
      <trkpt lat="48.84369" lon="2.26895">
        <ele>30.83436</ele>
        <time>2026-07-19T12:07:16.876Z</time>
      </trkpt>
      <trkpt lat="48.84372" lon="2.26894">
        <ele>30.60316</ele>
        <time>2026-07-19T12:07:19.670Z</time>
      </trkpt>
      <trkpt lat="48.84375" lon="2.26893">
        <ele>30.38801</ele>
        <time>2026-07-19T12:07:22.671Z</time>
      </trkpt>
      <trkpt lat="48.84377" lon="2.26893">
        <ele>30.26744</ele>
        <time>2026-07-19T12:07:24.670Z</time>
      </trkpt>
      <trkpt lat="48.8438" lon="2.26892">
        <ele>30.0965</ele>
        <time>2026-07-19T12:07:27.670Z</time>
      </trkpt>
      <trkpt lat="48.84382" lon="2.2689">
        <ele>29.94392</ele>
        <time>2026-07-19T12:07:30.670Z</time>
      </trkpt>
      <trkpt lat="48.84384" lon="2.26888">
        <ele>29.78524</ele>
        <time>2026-07-19T12:07:33.671Z</time>
      </trkpt>
      <trkpt lat="48.84386" lon="2.26885">
        <ele>29.58077</ele>
        <time>2026-07-19T12:07:37.671Z</time>
      </trkpt>
      <trkpt lat="48.84388" lon="2.26882">
        <ele>29.46026</ele>
        <time>2026-07-19T12:07:40.670Z</time>
      </trkpt>
      <trkpt lat="48.84389" lon="2.26878">
        <ele>29.32803</ele>
        <time>2026-07-19T12:07:43.671Z</time>
      </trkpt>
      <trkpt lat="48.8439" lon="2.26874">
        <ele>29.19461</ele>
        <time>2026-07-19T12:07:46.671Z</time>
      </trkpt>
      <trkpt lat="48.8439" lon="2.2687">
        <ele>29.07835</ele>
        <time>2026-07-19T12:07:49.671Z</time>
      </trkpt>
      <trkpt lat="48.8439" lon="2.26866">
        <ele>28.95131</ele>
        <time>2026-07-19T12:07:53.671Z</time>
      </trkpt>
      <trkpt lat="48.8439" lon="2.26861">
        <ele>28.85075</ele>
        <time>2026-07-19T12:07:57.672Z</time>
      </trkpt>
      <trkpt lat="48.8439" lon="2.26857">
        <ele>28.81791</ele>
        <time>2026-07-19T12:07:59.672Z</time>
      </trkpt>
      <trkpt lat="48.84389" lon="2.26853">
        <ele>28.77522</ele>
        <time>2026-07-19T12:08:02.671Z</time>
      </trkpt>
      <trkpt lat="48.84389" lon="2.26849">
        <ele>28.75934</ele>
        <time>2026-07-19T12:08:04.671Z</time>
      </trkpt>
      <trkpt lat="48.84389" lon="2.26846">
        <ele>28.74921</ele>
        <time>2026-07-19T12:08:06.671Z</time>
      </trkpt>
      <trkpt lat="48.84389" lon="2.26842">
        <ele>28.73948</ele>
        <time>2026-07-19T12:08:08.671Z</time>
      </trkpt>
      <trkpt lat="48.84389" lon="2.26837">
        <ele>28.73411</ele>
        <time>2026-07-19T12:08:11.671Z</time>
      </trkpt>
      <trkpt lat="48.84389" lon="2.26833">
        <ele>28.7406</ele>
        <time>2026-07-19T12:08:13.672Z</time>
      </trkpt>
      <trkpt lat="48.84389" lon="2.26828">
        <ele>28.76465</ele>
        <time>2026-07-19T12:08:16.671Z</time>
      </trkpt>
      <trkpt lat="48.84389" lon="2.26824">
        <ele>28.81155</ele>
        <time>2026-07-19T12:08:20.672Z</time>
      </trkpt>
      <trkpt lat="48.84388" lon="2.2682">
        <ele>28.87343</ele>
        <time>2026-07-19T12:08:25.672Z</time>
      </trkpt>
      <trkpt lat="48.84388" lon="2.26815">
        <ele>28.96065</ele>
        <time>2026-07-19T12:08:30.671Z</time>
      </trkpt>
      <trkpt lat="48.84389" lon="2.26812">
        <ele>29.02569</ele>
        <time>2026-07-19T12:08:33.671Z</time>
      </trkpt>
      <trkpt lat="48.8439" lon="2.26808">
        <ele>29.0685</ele>
        <time>2026-07-19T12:08:35.672Z</time>
      </trkpt>
      <trkpt lat="48.84392" lon="2.26805">
        <ele>29.11966</ele>
        <time>2026-07-19T12:08:38.672Z</time>
      </trkpt>
      <trkpt lat="48.84394" lon="2.26803">
        <ele>29.14481</ele>
        <time>2026-07-19T12:08:41.672Z</time>
      </trkpt>
      <trkpt lat="48.84396" lon="2.26801">
        <ele>29.17349</ele>
        <time>2026-07-19T12:08:44.672Z</time>
      </trkpt>
      <trkpt lat="48.84399" lon="2.268">
        <ele>29.22168</ele>
        <time>2026-07-19T12:08:48.672Z</time>
      </trkpt>
      <trkpt lat="48.84401" lon="2.26797">
        <ele>29.26404</ele>
        <time>2026-07-19T12:08:51.673Z</time>
      </trkpt>
      <trkpt lat="48.84403" lon="2.26796">
        <ele>29.29614</ele>
        <time>2026-07-19T12:08:53.672Z</time>
      </trkpt>
      <trkpt lat="48.84406" lon="2.26796">
        <ele>29.32766</ele>
        <time>2026-07-19T12:08:55.672Z</time>
      </trkpt>
      <trkpt lat="48.84408" lon="2.26795">
        <ele>29.36684</ele>
        <time>2026-07-19T12:08:57.672Z</time>
      </trkpt>
      <trkpt lat="48.84411" lon="2.26795">
        <ele>29.44158</ele>
        <time>2026-07-19T12:09:00.673Z</time>
      </trkpt>
      <trkpt lat="48.84414" lon="2.26795">
        <ele>29.50508</ele>
        <time>2026-07-19T12:09:02.672Z</time>
      </trkpt>
      <trkpt lat="48.84416" lon="2.26796">
        <ele>29.58059</ele>
        <time>2026-07-19T12:09:04.673Z</time>
      </trkpt>
      <trkpt lat="48.84419" lon="2.26798">
        <ele>29.70396</ele>
        <time>2026-07-19T12:09:07.673Z</time>
      </trkpt>
      <trkpt lat="48.84421" lon="2.26799">
        <ele>29.8243</ele>
        <time>2026-07-19T12:09:10.673Z</time>
      </trkpt>
      <trkpt lat="48.84424" lon="2.268">
        <ele>29.91913</ele>
        <time>2026-07-19T12:09:13.672Z</time>
      </trkpt>
      <trkpt lat="48.84427" lon="2.26802">
        <ele>30.00551</ele>
        <time>2026-07-19T12:09:16.673Z</time>
      </trkpt>
      <trkpt lat="48.84429" lon="2.26804">
        <ele>30.06819</ele>
        <time>2026-07-19T12:09:18.673Z</time>
      </trkpt>
      <trkpt lat="48.84431" lon="2.26807">
        <ele>30.17429</ele>
        <time>2026-07-19T12:09:21.673Z</time>
      </trkpt>
      <trkpt lat="48.84433" lon="2.26809">
        <ele>30.24073</ele>
        <time>2026-07-19T12:09:23.673Z</time>
      </trkpt>
      <trkpt lat="48.84436" lon="2.2681">
        <ele>30.33164</ele>
        <time>2026-07-19T12:09:26.673Z</time>
      </trkpt>
      <trkpt lat="48.84438" lon="2.26812">
        <ele>30.40499</ele>
        <time>2026-07-19T12:09:29.673Z</time>
      </trkpt>
      <trkpt lat="48.8444" lon="2.26814">
        <ele>30.46416</ele>
        <time>2026-07-19T12:09:32.673Z</time>
      </trkpt>
      <trkpt lat="48.84442" lon="2.26817">
        <ele>30.49384</ele>
        <time>2026-07-19T12:09:34.673Z</time>
      </trkpt>
      <trkpt lat="48.84444" lon="2.2682">
        <ele>30.53008</ele>
        <time>2026-07-19T12:09:36.673Z</time>
      </trkpt>
      <trkpt lat="48.84446" lon="2.26823">
        <ele>30.5939</ele>
        <time>2026-07-19T12:09:39.673Z</time>
      </trkpt>
      <trkpt lat="48.84449" lon="2.26826">
        <ele>30.68129</ele>
        <time>2026-07-19T12:09:42.674Z</time>
      </trkpt>
      <trkpt lat="48.84452" lon="2.26828">
        <ele>30.79801</ele>
        <time>2026-07-19T12:09:45.673Z</time>
      </trkpt>
      <trkpt lat="48.84454" lon="2.26831">
        <ele>30.93713</ele>
        <time>2026-07-19T12:09:48.674Z</time>
      </trkpt>
      <trkpt lat="48.84456" lon="2.26834">
        <ele>31.08944</ele>
        <time>2026-07-19T12:09:50.673Z</time>
      </trkpt>
      <trkpt lat="48.84458" lon="2.26836">
        <ele>31.35542</ele>
        <time>2026-07-19T12:09:52.674Z</time>
      </trkpt>
      <trkpt lat="48.84461" lon="2.26838">
        <ele>32.00192</ele>
        <time>2026-07-19T12:09:55.673Z</time>
      </trkpt>
      <trkpt lat="48.84464" lon="2.26839">
        <ele>32.71615</ele>
        <time>2026-07-19T12:09:58.674Z</time>
      </trkpt>
      <trkpt lat="48.84466" lon="2.26843">
        <ele>33.2899</ele>
        <time>2026-07-19T12:10:01.674Z</time>
      </trkpt>
      <trkpt lat="48.84469" lon="2.26845">
        <ele>33.76185</ele>
        <time>2026-07-19T12:10:04.674Z</time>
      </trkpt>
      <trkpt lat="48.84472" lon="2.26848">
        <ele>34.26698</ele>
        <time>2026-07-19T12:10:07.674Z</time>
      </trkpt>
      <trkpt lat="48.84474" lon="2.2685">
        <ele>34.62686</ele>
        <time>2026-07-19T12:10:09.674Z</time>
      </trkpt>
      <trkpt lat="48.84476" lon="2.26852">
        <ele>35.05036</ele>
        <time>2026-07-19T12:10:12.674Z</time>
      </trkpt>
      <trkpt lat="48.84479" lon="2.26854">
        <ele>35.49691</ele>
        <time>2026-07-19T12:10:15.674Z</time>
      </trkpt>
      <trkpt lat="48.84482" lon="2.26856">
        <ele>35.95714</ele>
        <time>2026-07-19T12:10:18.674Z</time>
      </trkpt>
      <trkpt lat="48.84485" lon="2.26857">
        <ele>36.35913</ele>
        <time>2026-07-19T12:10:21.674Z</time>
      </trkpt>
      <trkpt lat="48.84488" lon="2.26858">
        <ele>36.61708</ele>
        <time>2026-07-19T12:10:24.675Z</time>
      </trkpt>
      <trkpt lat="48.8449" lon="2.26859">
        <ele>36.74901</ele>
        <time>2026-07-19T12:10:26.675Z</time>
      </trkpt>
      <trkpt lat="48.84493" lon="2.2686">
        <ele>36.89229</ele>
        <time>2026-07-19T12:10:30.674Z</time>
      </trkpt>
      <trkpt lat="48.84496" lon="2.2686">
        <ele>36.9526</ele>
        <time>2026-07-19T12:10:32.675Z</time>
      </trkpt>
      <trkpt lat="48.84498" lon="2.26862">
        <ele>37.11882</ele>
        <time>2026-07-19T12:10:36.675Z</time>
      </trkpt>
      <trkpt lat="48.84501" lon="2.26864">
        <ele>37.23417</ele>
        <time>2026-07-19T12:10:39.674Z</time>
      </trkpt>
      <trkpt lat="48.84504" lon="2.26866">
        <ele>37.31649</ele>
        <time>2026-07-19T12:10:41.675Z</time>
      </trkpt>
      <trkpt lat="48.84506" lon="2.26868">
        <ele>37.40387</ele>
        <time>2026-07-19T12:10:43.675Z</time>
      </trkpt>
      <trkpt lat="48.84508" lon="2.26871">
        <ele>37.52738</ele>
        <time>2026-07-19T12:10:46.674Z</time>
      </trkpt>
      <trkpt lat="48.8451" lon="2.26875">
        <ele>37.62786</ele>
        <time>2026-07-19T12:10:49.675Z</time>
      </trkpt>
      <trkpt lat="48.84511" lon="2.26879">
        <ele>37.72687</ele>
        <time>2026-07-19T12:10:52.674Z</time>
      </trkpt>
      <trkpt lat="48.84512" lon="2.26883">
        <ele>37.78178</ele>
        <time>2026-07-19T12:10:54.675Z</time>
      </trkpt>
      <trkpt lat="48.84513" lon="2.26886">
        <ele>37.82167</ele>
        <time>2026-07-19T12:10:56.675Z</time>
      </trkpt>
      <trkpt lat="48.84513" lon="2.2689">
        <ele>37.84095</ele>
        <time>2026-07-19T12:10:58.674Z</time>
      </trkpt>
      <trkpt lat="48.84514" lon="2.26893">
        <ele>37.82408</ele>
        <time>2026-07-19T12:11:00.675Z</time>
      </trkpt>
      <trkpt lat="48.84516" lon="2.26895">
        <ele>37.76848</ele>
        <time>2026-07-19T12:11:03.675Z</time>
      </trkpt>
      <trkpt lat="48.84518" lon="2.26898">
        <ele>37.69514</ele>
        <time>2026-07-19T12:11:06.675Z</time>
      </trkpt>
      <trkpt lat="48.8452" lon="2.269">
        <ele>37.57463</ele>
        <time>2026-07-19T12:11:13.675Z</time>
      </trkpt>
      <trkpt lat="48.84522" lon="2.269">
        <ele>37.22453</ele>
        <time>2026-07-19T12:11:24.676Z</time>
      </trkpt>
      <trkpt lat="48.84526" lon="2.26901">
        <ele>37.10534</ele>
        <time>2026-07-19T12:11:29.676Z</time>
      </trkpt>
      <trkpt lat="48.84529" lon="2.26901">
        <ele>37.08129</ele>
        <time>2026-07-19T12:11:30.675Z</time>
      </trkpt>
      <trkpt lat="48.84532" lon="2.26902">
        <ele>37.03466</ele>
        <time>2026-07-19T12:11:32.676Z</time>
      </trkpt>
      <trkpt lat="48.84535" lon="2.26904">
        <ele>37.02048</ele>
        <time>2026-07-19T12:11:35.675Z</time>
      </trkpt>
      <trkpt lat="48.84537" lon="2.26905">
        <ele>37.02455</ele>
        <time>2026-07-19T12:11:37.675Z</time>
      </trkpt>
      <trkpt lat="48.8454" lon="2.26906">
        <ele>37.04916</ele>
        <time>2026-07-19T12:11:40.676Z</time>
      </trkpt>
      <trkpt lat="48.84544" lon="2.26905">
        <ele>37.06143</ele>
        <time>2026-07-19T12:11:42.676Z</time>
      </trkpt>
      <trkpt lat="48.84546" lon="2.26905">
        <ele>37.07019</ele>
        <time>2026-07-19T12:11:44.676Z</time>
      </trkpt>
      <trkpt lat="48.84549" lon="2.26905">
        <ele>37.0771</ele>
        <time>2026-07-19T12:11:47.676Z</time>
      </trkpt>
      <trkpt lat="48.84552" lon="2.26905">
        <ele>37.1053</ele>
        <time>2026-07-19T12:11:51.676Z</time>
      </trkpt>
      <trkpt lat="48.84554" lon="2.26902">
        <ele>37.12183</ele>
        <time>2026-07-19T12:11:53.676Z</time>
      </trkpt>
      <trkpt lat="48.84557" lon="2.269">
        <ele>37.14587</ele>
        <time>2026-07-19T12:11:56.676Z</time>
      </trkpt>
      <trkpt lat="48.84559" lon="2.26898">
        <ele>37.21021</ele>
        <time>2026-07-19T12:12:00.676Z</time>
      </trkpt>
      <trkpt lat="48.84562" lon="2.26898">
        <ele>37.25987</ele>
        <time>2026-07-19T12:12:03.676Z</time>
      </trkpt>
      <trkpt lat="48.84565" lon="2.26896">
        <ele>37.37392</ele>
        <time>2026-07-19T12:12:08.676Z</time>
      </trkpt>
      <trkpt lat="48.84567" lon="2.26895">
        <ele>37.46054</ele>
        <time>2026-07-19T12:12:11.676Z</time>
      </trkpt>
      <trkpt lat="48.84571" lon="2.26891">
        <ele>37.61594</ele>
        <time>2026-07-19T12:12:16.677Z</time>
      </trkpt>
      <trkpt lat="48.84574" lon="2.26888">
        <ele>37.64095</ele>
        <time>2026-07-19T12:12:18.677Z</time>
      </trkpt>
      <trkpt lat="48.84576" lon="2.26887">
        <ele>37.64598</ele>
        <time>2026-07-19T12:12:21.676Z</time>
      </trkpt>
      <trkpt lat="48.8458" lon="2.26884">
        <ele>37.65107</ele>
        <time>2026-07-19T12:12:24.677Z</time>
      </trkpt>
      <trkpt lat="48.84579" lon="2.26879">
        <ele>37.65204</ele>
        <time>2026-07-19T12:12:27.677Z</time>
      </trkpt>
      <trkpt lat="48.84579" lon="2.26876">
        <ele>37.62855</ele>
        <time>2026-07-19T12:12:30.677Z</time>
      </trkpt>
      <trkpt lat="48.84577" lon="2.26873">
        <ele>37.53591</ele>
        <time>2026-07-19T12:12:38.677Z</time>
      </trkpt>
      <trkpt lat="48.84574" lon="2.2687">
        <ele>37.4554</ele>
        <time>2026-07-19T12:12:41.677Z</time>
      </trkpt>
      <trkpt lat="48.84573" lon="2.26867">
        <ele>37.35029</ele>
        <time>2026-07-19T12:12:44.677Z</time>
      </trkpt>
      <trkpt lat="48.84571" lon="2.26863">
        <ele>37.22568</ele>
        <time>2026-07-19T12:12:47.677Z</time>
      </trkpt>
      <trkpt lat="48.84569" lon="2.26859">
        <ele>37.09952</ele>
        <time>2026-07-19T12:12:49.678Z</time>
      </trkpt>
      <trkpt lat="48.84567" lon="2.26856">
        <ele>36.82844</ele>
        <time>2026-07-19T12:12:52.678Z</time>
      </trkpt>
      <trkpt lat="48.84565" lon="2.26852">
        <ele>36.60894</ele>
        <time>2026-07-19T12:12:54.677Z</time>
      </trkpt>
      <trkpt lat="48.84565" lon="2.26847">
        <ele>36.42123</ele>
        <time>2026-07-19T12:12:56.678Z</time>
      </trkpt>
      <trkpt lat="48.84563" lon="2.26841">
        <ele>36.09397</ele>
        <time>2026-07-19T12:12:59.678Z</time>
      </trkpt>
      <trkpt lat="48.84561" lon="2.26836">
        <ele>35.9204</ele>
        <time>2026-07-19T12:13:01.678Z</time>
      </trkpt>
      <trkpt lat="48.84559" lon="2.26834">
        <ele>35.82844</ele>
        <time>2026-07-19T12:13:03.679Z</time>
      </trkpt>
      <trkpt lat="48.84557" lon="2.26831">
        <ele>35.74457</ele>
        <time>2026-07-19T12:13:05.678Z</time>
      </trkpt>
      <trkpt lat="48.84556" lon="2.26828">
        <ele>35.67496</ele>
        <time>2026-07-19T12:13:07.678Z</time>
      </trkpt>
      <trkpt lat="48.84556" lon="2.26824">
        <ele>35.62646</ele>
        <time>2026-07-19T12:13:09.677Z</time>
      </trkpt>
      <trkpt lat="48.84555" lon="2.2682">
        <ele>35.57219</ele>
        <time>2026-07-19T12:13:12.678Z</time>
      </trkpt>
      <trkpt lat="48.84554" lon="2.26816">
        <ele>35.56132</ele>
        <time>2026-07-19T12:13:14.677Z</time>
      </trkpt>
      <trkpt lat="48.84553" lon="2.26812">
        <ele>35.59217</ele>
        <time>2026-07-19T12:13:17.678Z</time>
      </trkpt>
      <trkpt lat="48.84554" lon="2.26806">
        <ele>35.65699</ele>
        <time>2026-07-19T12:13:20.678Z</time>
      </trkpt>
      <trkpt lat="48.84554" lon="2.26802">
        <ele>35.68588</ele>
        <time>2026-07-19T12:13:22.678Z</time>
      </trkpt>
      <trkpt lat="48.84553" lon="2.26799">
        <ele>35.7065</ele>
        <time>2026-07-19T12:13:24.678Z</time>
      </trkpt>
      <trkpt lat="48.84552" lon="2.26795">
        <ele>35.73957</ele>
        <time>2026-07-19T12:13:27.678Z</time>
      </trkpt>
      <trkpt lat="48.8455" lon="2.26792">
        <ele>35.78625</ele>
        <time>2026-07-19T12:13:31.679Z</time>
      </trkpt>
      <trkpt lat="48.84548" lon="2.2679">
        <ele>35.8034</ele>
        <time>2026-07-19T12:13:34.678Z</time>
      </trkpt>
      <trkpt lat="48.84547" lon="2.26785">
        <ele>35.8064</ele>
        <time>2026-07-19T12:13:37.678Z</time>
      </trkpt>
      <trkpt lat="48.84546" lon="2.26781">
        <ele>35.81158</ele>
        <time>2026-07-19T12:13:39.678Z</time>
      </trkpt>
      <trkpt lat="48.84545" lon="2.26777">
        <ele>35.82208</ele>
        <time>2026-07-19T12:13:41.679Z</time>
      </trkpt>
      <trkpt lat="48.84544" lon="2.26773">
        <ele>35.85599</ele>
        <time>2026-07-19T12:13:44.678Z</time>
      </trkpt>
      <trkpt lat="48.84543" lon="2.26769">
        <ele>35.89568</ele>
        <time>2026-07-19T12:13:47.678Z</time>
      </trkpt>
      <trkpt lat="48.84543" lon="2.26766">
        <ele>35.93347</ele>
        <time>2026-07-19T12:13:49.678Z</time>
      </trkpt>
      <trkpt lat="48.84543" lon="2.26762">
        <ele>36.00749</ele>
        <time>2026-07-19T12:13:51.679Z</time>
      </trkpt>
      <trkpt lat="48.84545" lon="2.26761">
        <ele>36.33181</ele>
        <time>2026-07-19T12:13:55.678Z</time>
      </trkpt>
      <trkpt lat="48.84548" lon="2.26759">
        <ele>37.1078</ele>
        <time>2026-07-19T12:14:02.679Z</time>
      </trkpt>
      <trkpt lat="48.84551" lon="2.26758">
        <ele>37.30307</ele>
        <time>2026-07-19T12:14:04.679Z</time>
      </trkpt>
      <trkpt lat="48.84553" lon="2.26757">
        <ele>37.43182</ele>
        <time>2026-07-19T12:14:06.679Z</time>
      </trkpt>
      <trkpt lat="48.84555" lon="2.26755">
        <ele>37.5042</ele>
        <time>2026-07-19T12:14:08.679Z</time>
      </trkpt>
      <trkpt lat="48.84557" lon="2.26753">
        <ele>37.54923</ele>
        <time>2026-07-19T12:14:10.679Z</time>
      </trkpt>
      <trkpt lat="48.84559" lon="2.26749">
        <ele>37.55714</ele>
        <time>2026-07-19T12:14:13.679Z</time>
      </trkpt>
      <trkpt lat="48.84561" lon="2.26746">
        <ele>37.48981</ele>
        <time>2026-07-19T12:14:16.679Z</time>
      </trkpt>
      <trkpt lat="48.84563" lon="2.26743">
        <ele>37.4461</ele>
        <time>2026-07-19T12:14:18.680Z</time>
      </trkpt>
      <trkpt lat="48.84564" lon="2.2674">
        <ele>37.40791</ele>
        <time>2026-07-19T12:14:21.679Z</time>
      </trkpt>
      <trkpt lat="48.84566" lon="2.26736">
        <ele>37.38852</ele>
        <time>2026-07-19T12:14:24.679Z</time>
      </trkpt>
      <trkpt lat="48.84568" lon="2.26732">
        <ele>37.37284</ele>
        <time>2026-07-19T12:14:26.679Z</time>
      </trkpt>
      <trkpt lat="48.84569" lon="2.26728">
        <ele>37.33407</ele>
        <time>2026-07-19T12:14:29.679Z</time>
      </trkpt>
      <trkpt lat="48.8457" lon="2.26722">
        <ele>37.31449</ele>
        <time>2026-07-19T12:14:32.679Z</time>
      </trkpt>
      <trkpt lat="48.84569" lon="2.26719">
        <ele>37.26902</ele>
        <time>2026-07-19T12:14:36.679Z</time>
      </trkpt>
      <trkpt lat="48.84566" lon="2.26716">
        <ele>37.2433</ele>
        <time>2026-07-19T12:14:39.679Z</time>
      </trkpt>
      <trkpt lat="48.84564" lon="2.26713">
        <ele>37.22848</ele>
        <time>2026-07-19T12:14:42.679Z</time>
      </trkpt>
      <trkpt lat="48.84562" lon="2.2671">
        <ele>37.22223</ele>
        <time>2026-07-19T12:14:44.680Z</time>
      </trkpt>
      <trkpt lat="48.8456" lon="2.26708">
        <ele>37.21991</ele>
        <time>2026-07-19T12:14:46.680Z</time>
      </trkpt>
      <trkpt lat="48.84558" lon="2.26707">
        <ele>37.21903</ele>
        <time>2026-07-19T12:14:48.679Z</time>
      </trkpt>
      <trkpt lat="48.84556" lon="2.26705">
        <ele>37.22029</ele>
        <time>2026-07-19T12:14:50.680Z</time>
      </trkpt>
      <trkpt lat="48.84553" lon="2.26704">
        <ele>37.22941</ele>
        <time>2026-07-19T12:14:52.680Z</time>
      </trkpt>
      <trkpt lat="48.84551" lon="2.26703">
        <ele>37.25227</ele>
        <time>2026-07-19T12:14:54.679Z</time>
      </trkpt>
      <trkpt lat="48.84548" lon="2.26701">
        <ele>37.28141</ele>
        <time>2026-07-19T12:14:57.680Z</time>
      </trkpt>
      <trkpt lat="48.84547" lon="2.26697">
        <ele>37.28418</ele>
        <time>2026-07-19T12:15:00.679Z</time>
      </trkpt>
      <trkpt lat="48.84545" lon="2.26695">
        <ele>37.27124</ele>
        <time>2026-07-19T12:15:02.681Z</time>
      </trkpt>
      <trkpt lat="48.84543" lon="2.26691">
        <ele>37.24951</ele>
        <time>2026-07-19T12:15:05.680Z</time>
      </trkpt>
      <trkpt lat="48.84541" lon="2.26687">
        <ele>37.23484</ele>
        <time>2026-07-19T12:15:08.680Z</time>
      </trkpt>
      <trkpt lat="48.84539" lon="2.26683">
        <ele>37.22292</ele>
        <time>2026-07-19T12:15:10.680Z</time>
      </trkpt>
      <trkpt lat="48.84538" lon="2.26679">
        <ele>37.21415</ele>
        <time>2026-07-19T12:15:12.680Z</time>
      </trkpt>
      <trkpt lat="48.84538" lon="2.26675">
        <ele>37.20694</ele>
        <time>2026-07-19T12:15:14.680Z</time>
      </trkpt>
      <trkpt lat="48.84537" lon="2.26672">
        <ele>37.19811</ele>
        <time>2026-07-19T12:15:16.680Z</time>
      </trkpt>
      <trkpt lat="48.84536" lon="2.26668">
        <ele>37.18991</ele>
        <time>2026-07-19T12:15:18.680Z</time>
      </trkpt>
      <trkpt lat="48.84534" lon="2.26665">
        <ele>37.18788</ele>
        <time>2026-07-19T12:15:21.681Z</time>
      </trkpt>
      <trkpt lat="48.84533" lon="2.26661">
        <ele>37.18462</ele>
        <time>2026-07-19T12:15:23.680Z</time>
      </trkpt>
      <trkpt lat="48.84531" lon="2.26659">
        <ele>37.1838</ele>
        <time>2026-07-19T12:15:25.681Z</time>
      </trkpt>
      <trkpt lat="48.8453" lon="2.26656">
        <ele>37.18417</ele>
        <time>2026-07-19T12:15:28.680Z</time>
      </trkpt>
      <trkpt lat="48.84531" lon="2.26652">
        <ele>37.18236</ele>
        <time>2026-07-19T12:15:31.681Z</time>
      </trkpt>
      <trkpt lat="48.8453" lon="2.26647">
        <ele>37.18295</ele>
        <time>2026-07-19T12:15:35.681Z</time>
      </trkpt>
      <trkpt lat="48.84529" lon="2.26644">
        <ele>37.18376</ele>
        <time>2026-07-19T12:15:37.681Z</time>
      </trkpt>
      <trkpt lat="48.84528" lon="2.26641">
        <ele>37.18529</ele>
        <time>2026-07-19T12:15:39.681Z</time>
      </trkpt>
      <trkpt lat="48.84526" lon="2.26638">
        <ele>37.1891</ele>
        <time>2026-07-19T12:15:41.681Z</time>
      </trkpt>
      <trkpt lat="48.84525" lon="2.26634">
        <ele>37.20084</ele>
        <time>2026-07-19T12:15:43.681Z</time>
      </trkpt>
      <trkpt lat="48.84523" lon="2.2663">
        <ele>37.23831</ele>
        <time>2026-07-19T12:15:46.681Z</time>
      </trkpt>
      <trkpt lat="48.84522" lon="2.26626">
        <ele>37.29269</ele>
        <time>2026-07-19T12:15:49.681Z</time>
      </trkpt>
      <trkpt lat="48.84522" lon="2.26622">
        <ele>37.35908</ele>
        <time>2026-07-19T12:15:52.681Z</time>
      </trkpt>
      <trkpt lat="48.84522" lon="2.26618">
        <ele>37.42954</ele>
        <time>2026-07-19T12:15:55.682Z</time>
      </trkpt>
      <trkpt lat="48.84522" lon="2.26614">
        <ele>37.49185</ele>
        <time>2026-07-19T12:15:58.682Z</time>
      </trkpt>
      <trkpt lat="48.84523" lon="2.2661">
        <ele>37.54691</ele>
        <time>2026-07-19T12:16:01.681Z</time>
      </trkpt>
      <trkpt lat="48.84522" lon="2.26606">
        <ele>37.57635</ele>
        <time>2026-07-19T12:16:03.681Z</time>
      </trkpt>
      <trkpt lat="48.84521" lon="2.26603">
        <ele>37.58497</ele>
        <time>2026-07-19T12:16:04.681Z</time>
      </trkpt>
      <trkpt lat="48.84522" lon="2.26599">
        <ele>37.59496</ele>
        <time>2026-07-19T12:16:07.682Z</time>
      </trkpt>
      <trkpt lat="48.84521" lon="2.26595">
        <ele>37.59653</ele>
        <time>2026-07-19T12:16:11.682Z</time>
      </trkpt>
      <trkpt lat="48.8452" lon="2.2659">
        <ele>37.59667</ele>
        <time>2026-07-19T12:16:14.682Z</time>
      </trkpt>
      <trkpt lat="48.8452" lon="2.26585">
        <ele>37.58754</ele>
        <time>2026-07-19T12:16:18.682Z</time>
      </trkpt>
      <trkpt lat="48.84519" lon="2.26581">
        <ele>37.58496</ele>
        <time>2026-07-19T12:16:21.682Z</time>
      </trkpt>
      <trkpt lat="48.84518" lon="2.26577">
        <ele>37.59977</ele>
        <time>2026-07-19T12:16:23.682Z</time>
      </trkpt>
      <trkpt lat="48.84519" lon="2.26574">
        <ele>37.62225</ele>
        <time>2026-07-19T12:16:25.681Z</time>
      </trkpt>
      <trkpt lat="48.84519" lon="2.2657">
        <ele>37.66079</ele>
        <time>2026-07-19T12:16:27.682Z</time>
      </trkpt>
      <trkpt lat="48.84519" lon="2.26564">
        <ele>37.70603</ele>
        <time>2026-07-19T12:16:29.682Z</time>
      </trkpt>
      <trkpt lat="48.84521" lon="2.26557">
        <ele>37.76504</ele>
        <time>2026-07-19T12:16:32.682Z</time>
      </trkpt>
      <trkpt lat="48.84521" lon="2.26552">
        <ele>37.81497</ele>
        <time>2026-07-19T12:16:34.682Z</time>
      </trkpt>
      <trkpt lat="48.8452" lon="2.26548">
        <ele>37.85287</ele>
        <time>2026-07-19T12:16:37.682Z</time>
      </trkpt>
      <trkpt lat="48.84522" lon="2.26545">
        <ele>37.87773</ele>
        <time>2026-07-19T12:16:39.682Z</time>
      </trkpt>
      <trkpt lat="48.84522" lon="2.26537">
        <ele>37.91919</ele>
        <time>2026-07-19T12:16:41.682Z</time>
      </trkpt>
      <trkpt lat="48.84522" lon="2.26533">
        <ele>37.96264</ele>
        <time>2026-07-19T12:16:42.682Z</time>
      </trkpt>
      <trkpt lat="48.84522" lon="2.26529">
        <ele>38.09337</ele>
        <time>2026-07-19T12:16:44.682Z</time>
      </trkpt>
      <trkpt lat="48.84523" lon="2.26525">
        <ele>38.28129</ele>
        <time>2026-07-19T12:16:46.682Z</time>
      </trkpt>
      <trkpt lat="48.84523" lon="2.2652">
        <ele>38.55924</ele>
        <time>2026-07-19T12:16:48.682Z</time>
      </trkpt>
      <trkpt lat="48.84523" lon="2.26517">
        <ele>39.34763</ele>
        <time>2026-07-19T12:16:51.682Z</time>
      </trkpt>
      <trkpt lat="48.84521" lon="2.26513">
        <ele>40.74126</ele>
        <time>2026-07-19T12:16:54.683Z</time>
      </trkpt>
      <trkpt lat="48.84521" lon="2.26508">
        <ele>42.43225</ele>
        <time>2026-07-19T12:16:57.683Z</time>
      </trkpt>
      <trkpt lat="48.84522" lon="2.26505">
        <ele>43.00136</ele>
        <time>2026-07-19T12:16:58.682Z</time>
      </trkpt>
      <trkpt lat="48.84522" lon="2.26499">
        <ele>44.34911</ele>
        <time>2026-07-19T12:17:01.682Z</time>
      </trkpt>
      <trkpt lat="48.84522" lon="2.26496">
        <ele>44.91084</ele>
        <time>2026-07-19T12:17:04.682Z</time>
      </trkpt>
      <trkpt lat="48.84524" lon="2.26493">
        <ele>45.12474</ele>
        <time>2026-07-19T12:17:09.682Z</time>
      </trkpt>
      <trkpt lat="48.84524" lon="2.2649">
        <ele>44.86053</ele>
        <time>2026-07-19T12:17:15.683Z</time>
      </trkpt>
      <trkpt lat="48.84525" lon="2.26485">
        <ele>44.6174</ele>
        <time>2026-07-19T12:17:18.682Z</time>
      </trkpt>
      <trkpt lat="48.84524" lon="2.26481">
        <ele>44.42227</ele>
        <time>2026-07-19T12:17:20.683Z</time>
      </trkpt>
      <trkpt lat="48.84524" lon="2.26475">
        <ele>44.19809</ele>
        <time>2026-07-19T12:17:22.683Z</time>
      </trkpt>
      <trkpt lat="48.84524" lon="2.2647">
        <ele>43.97181</ele>
        <time>2026-07-19T12:17:24.684Z</time>
      </trkpt>
      <trkpt lat="48.84524" lon="2.26465">
        <ele>43.75129</ele>
        <time>2026-07-19T12:17:26.683Z</time>
      </trkpt>
      <trkpt lat="48.84524" lon="2.26462">
        <ele>43.49886</ele>
        <time>2026-07-19T12:17:28.683Z</time>
      </trkpt>
      <trkpt lat="48.84524" lon="2.26458">
        <ele>43.21099</ele>
        <time>2026-07-19T12:17:30.683Z</time>
      </trkpt>
      <trkpt lat="48.84525" lon="2.26453">
        <ele>42.73559</ele>
        <time>2026-07-19T12:17:33.684Z</time>
      </trkpt>
      <trkpt lat="48.84525" lon="2.26448">
        <ele>42.24614</ele>
        <time>2026-07-19T12:17:36.684Z</time>
      </trkpt>
      <trkpt lat="48.84526" lon="2.26443">
        <ele>41.76713</ele>
        <time>2026-07-19T12:17:39.683Z</time>
      </trkpt>
      <trkpt lat="48.84526" lon="2.26439">
        <ele>41.29134</ele>
        <time>2026-07-19T12:17:42.683Z</time>
      </trkpt>
      <trkpt lat="48.84526" lon="2.26435">
        <ele>40.87014</ele>
        <time>2026-07-19T12:17:45.684Z</time>
      </trkpt>
      <trkpt lat="48.84526" lon="2.26431">
        <ele>40.63463</ele>
        <time>2026-07-19T12:17:47.684Z</time>
      </trkpt>
      <trkpt lat="48.84526" lon="2.26426">
        <ele>40.31827</ele>
        <time>2026-07-19T12:17:50.683Z</time>
      </trkpt>
      <trkpt lat="48.84526" lon="2.26421">
        <ele>39.95633</ele>
        <time>2026-07-19T12:17:54.684Z</time>
      </trkpt>
      <trkpt lat="48.84526" lon="2.26417">
        <ele>39.76954</ele>
        <time>2026-07-19T12:17:58.684Z</time>
      </trkpt>
      <trkpt lat="48.84526" lon="2.26413">
        <ele>39.71829</ele>
        <time>2026-07-19T12:18:00.684Z</time>
      </trkpt>
      <trkpt lat="48.84526" lon="2.26408">
        <ele>39.61584</ele>
        <time>2026-07-19T12:18:03.683Z</time>
      </trkpt>
      <trkpt lat="48.84526" lon="2.26403">
        <ele>39.46564</ele>
        <time>2026-07-19T12:18:06.683Z</time>
      </trkpt>
      <trkpt lat="48.84526" lon="2.26398">
        <ele>39.28624</ele>
        <time>2026-07-19T12:18:09.684Z</time>
      </trkpt>
      <trkpt lat="48.84528" lon="2.26395">
        <ele>39.14506</ele>
        <time>2026-07-19T12:18:11.684Z</time>
      </trkpt>
      <trkpt lat="48.84529" lon="2.26391">
        <ele>38.91095</ele>
        <time>2026-07-19T12:18:14.685Z</time>
      </trkpt>
      <trkpt lat="48.8453" lon="2.26387">
        <ele>38.72887</ele>
        <time>2026-07-19T12:18:16.684Z</time>
      </trkpt>
      <trkpt lat="48.84529" lon="2.26383">
        <ele>38.53268</ele>
        <time>2026-07-19T12:18:18.684Z</time>
      </trkpt>
      <trkpt lat="48.84529" lon="2.26378">
        <ele>38.26163</ele>
        <time>2026-07-19T12:18:21.685Z</time>
      </trkpt>
      <trkpt lat="48.84529" lon="2.26373">
        <ele>37.98699</ele>
        <time>2026-07-19T12:18:24.685Z</time>
      </trkpt>
      <trkpt lat="48.84529" lon="2.26369">
        <ele>37.81561</ele>
        <time>2026-07-19T12:18:26.684Z</time>
      </trkpt>
      <trkpt lat="48.84529" lon="2.26365">
        <ele>37.67598</ele>
        <time>2026-07-19T12:18:28.684Z</time>
      </trkpt>
      <trkpt lat="48.84529" lon="2.26361">
        <ele>37.47178</ele>
        <time>2026-07-19T12:18:31.684Z</time>
      </trkpt>
      <trkpt lat="48.84529" lon="2.26356">
        <ele>37.30114</ele>
        <time>2026-07-19T12:18:34.685Z</time>
      </trkpt>
      <trkpt lat="48.84529" lon="2.26353">
        <ele>37.20527</ele>
        <time>2026-07-19T12:18:36.684Z</time>
      </trkpt>
      <trkpt lat="48.84529" lon="2.26348">
        <ele>37.08779</ele>
        <time>2026-07-19T12:18:39.684Z</time>
      </trkpt>
      <trkpt lat="48.84528" lon="2.26342">
        <ele>37.0255</ele>
        <time>2026-07-19T12:18:41.684Z</time>
      </trkpt>
      <trkpt lat="48.84528" lon="2.26339">
        <ele>37.00889</ele>
        <time>2026-07-19T12:18:43.684Z</time>
      </trkpt>
      <trkpt lat="48.84529" lon="2.26334">
        <ele>36.98784</ele>
        <time>2026-07-19T12:18:46.685Z</time>
      </trkpt>
      <trkpt lat="48.84529" lon="2.26329">
        <ele>36.97628</ele>
        <time>2026-07-19T12:18:49.685Z</time>
      </trkpt>
      <trkpt lat="48.84529" lon="2.26326">
        <ele>36.95908</ele>
        <time>2026-07-19T12:18:51.685Z</time>
      </trkpt>
      <trkpt lat="48.84529" lon="2.26321">
        <ele>36.91797</ele>
        <time>2026-07-19T12:18:54.685Z</time>
      </trkpt>
      <trkpt lat="48.8453" lon="2.26316">
        <ele>36.86082</ele>
        <time>2026-07-19T12:18:57.685Z</time>
      </trkpt>
      <trkpt lat="48.8453" lon="2.26312">
        <ele>36.81991</ele>
        <time>2026-07-19T12:19:00.685Z</time>
      </trkpt>
      <trkpt lat="48.8453" lon="2.26307">
        <ele>36.79871</ele>
        <time>2026-07-19T12:19:03.685Z</time>
      </trkpt>
      <trkpt lat="48.8453" lon="2.26303">
        <ele>36.79126</ele>
        <time>2026-07-19T12:19:06.686Z</time>
      </trkpt>
      <trkpt lat="48.8453" lon="2.26298">
        <ele>36.78475</ele>
        <time>2026-07-19T12:19:09.685Z</time>
      </trkpt>
      <trkpt lat="48.8453" lon="2.26294">
        <ele>36.78507</ele>
        <time>2026-07-19T12:19:12.685Z</time>
      </trkpt>
      <trkpt lat="48.8453" lon="2.2629">
        <ele>36.77708</ele>
        <time>2026-07-19T12:19:15.685Z</time>
      </trkpt>
      <trkpt lat="48.8453" lon="2.26285">
        <ele>36.75766</ele>
        <time>2026-07-19T12:19:18.686Z</time>
      </trkpt>
      <trkpt lat="48.8453" lon="2.2628">
        <ele>36.73973</ele>
        <time>2026-07-19T12:19:21.685Z</time>
      </trkpt>
      <trkpt lat="48.84529" lon="2.26277">
        <ele>36.73425</ele>
        <time>2026-07-19T12:19:23.685Z</time>
      </trkpt>
      <trkpt lat="48.84529" lon="2.26272">
        <ele>36.73118</ele>
        <time>2026-07-19T12:19:26.685Z</time>
      </trkpt>
      <trkpt lat="48.84529" lon="2.26267">
        <ele>36.72964</ele>
        <time>2026-07-19T12:19:29.686Z</time>
      </trkpt>
      <trkpt lat="48.8453" lon="2.26263">
        <ele>36.73004</ele>
        <time>2026-07-19T12:19:32.685Z</time>
      </trkpt>
      <trkpt lat="48.8453" lon="2.26257">
        <ele>36.73257</ele>
        <time>2026-07-19T12:19:35.685Z</time>
      </trkpt>
      <trkpt lat="48.8453" lon="2.26253">
        <ele>36.73353</ele>
        <time>2026-07-19T12:19:37.686Z</time>
      </trkpt>
      <trkpt lat="48.8453" lon="2.2625">
        <ele>36.7281</ele>
        <time>2026-07-19T12:19:40.685Z</time>
      </trkpt>
      <trkpt lat="48.8453" lon="2.26245">
        <ele>36.722</ele>
        <time>2026-07-19T12:19:43.686Z</time>
      </trkpt>
      <trkpt lat="48.8453" lon="2.26241">
        <ele>36.71753</ele>
        <time>2026-07-19T12:19:45.686Z</time>
      </trkpt>
      <trkpt lat="48.84531" lon="2.26237">
        <ele>36.71309</ele>
        <time>2026-07-19T12:19:47.686Z</time>
      </trkpt>
      <trkpt lat="48.8453" lon="2.26232">
        <ele>36.7041</ele>
        <time>2026-07-19T12:19:50.687Z</time>
      </trkpt>
      <trkpt lat="48.8453" lon="2.26228">
        <ele>36.69902</ele>
        <time>2026-07-19T12:19:52.686Z</time>
      </trkpt>
      <trkpt lat="48.8453" lon="2.26225">
        <ele>36.69155</ele>
        <time>2026-07-19T12:19:54.686Z</time>
      </trkpt>
      <trkpt lat="48.84531" lon="2.26221">
        <ele>36.67789</ele>
        <time>2026-07-19T12:19:57.686Z</time>
      </trkpt>
      <trkpt lat="48.84531" lon="2.26217">
        <ele>36.65</ele>
        <time>2026-07-19T12:20:00.686Z</time>
      </trkpt>
      <trkpt lat="48.84531" lon="2.26214">
        <ele>36.60067</ele>
        <time>2026-07-19T12:20:03.686Z</time>
      </trkpt>
      <trkpt lat="48.84532" lon="2.2621">
        <ele>36.53476</ele>
        <time>2026-07-19T12:20:06.687Z</time>
      </trkpt>
      <trkpt lat="48.84532" lon="2.26205">
        <ele>36.45537</ele>
        <time>2026-07-19T12:20:09.686Z</time>
      </trkpt>
      <trkpt lat="48.84532" lon="2.26201">
        <ele>36.35219</ele>
        <time>2026-07-19T12:20:12.687Z</time>
      </trkpt>
      <trkpt lat="48.84532" lon="2.26196">
        <ele>36.2425</ele>
        <time>2026-07-19T12:20:15.687Z</time>
      </trkpt>
      <trkpt lat="48.84533" lon="2.26192">
        <ele>36.1338</ele>
        <time>2026-07-19T12:20:18.687Z</time>
      </trkpt>
      <trkpt lat="48.84532" lon="2.26188">
        <ele>36.06968</ele>
        <time>2026-07-19T12:20:21.686Z</time>
      </trkpt>
      <trkpt lat="48.84532" lon="2.26184">
        <ele>36.0521</ele>
        <time>2026-07-19T12:20:24.687Z</time>
      </trkpt>
      <trkpt lat="48.84533" lon="2.2618">
        <ele>36.02983</ele>
        <time>2026-07-19T12:20:27.686Z</time>
      </trkpt>
      <trkpt lat="48.84533" lon="2.26175">
        <ele>36.00562</ele>
        <time>2026-07-19T12:20:30.687Z</time>
      </trkpt>
      <trkpt lat="48.84534" lon="2.26172">
        <ele>35.98785</ele>
        <time>2026-07-19T12:20:32.687Z</time>
      </trkpt>
      <trkpt lat="48.84534" lon="2.26167">
        <ele>35.95872</ele>
        <time>2026-07-19T12:20:35.688Z</time>
      </trkpt>
      <trkpt lat="48.84534" lon="2.26163">
        <ele>35.93196</ele>
        <time>2026-07-19T12:20:37.687Z</time>
      </trkpt>
      <trkpt lat="48.84534" lon="2.26159">
        <ele>35.90097</ele>
        <time>2026-07-19T12:20:39.687Z</time>
      </trkpt>
      <trkpt lat="48.84534" lon="2.26155">
        <ele>35.87675</ele>
        <time>2026-07-19T12:20:41.688Z</time>
      </trkpt>
      <trkpt lat="48.84533" lon="2.26152">
        <ele>35.85708</ele>
        <time>2026-07-19T12:20:43.688Z</time>
      </trkpt>
      <trkpt lat="48.84533" lon="2.26147">
        <ele>35.8309</ele>
        <time>2026-07-19T12:20:47.687Z</time>
      </trkpt>
      <trkpt lat="48.84533" lon="2.26142">
        <ele>35.82127</ele>
        <time>2026-07-19T12:20:51.688Z</time>
      </trkpt>
      <trkpt lat="48.84533" lon="2.26139">
        <ele>35.8166</ele>
        <time>2026-07-19T12:20:53.688Z</time>
      </trkpt>
      <trkpt lat="48.84534" lon="2.26135">
        <ele>35.81148</ele>
        <time>2026-07-19T12:20:55.687Z</time>
      </trkpt>
      <trkpt lat="48.84534" lon="2.26131">
        <ele>35.80514</ele>
        <time>2026-07-19T12:20:57.688Z</time>
      </trkpt>
      <trkpt lat="48.84534" lon="2.26127">
        <ele>35.80146</ele>
        <time>2026-07-19T12:20:59.687Z</time>
      </trkpt>
      <trkpt lat="48.84534" lon="2.26123">
        <ele>35.79506</ele>
        <time>2026-07-19T12:21:01.687Z</time>
      </trkpt>
      <trkpt lat="48.84533" lon="2.26118">
        <ele>35.78394</ele>
        <time>2026-07-19T12:21:03.688Z</time>
      </trkpt>
      <trkpt lat="48.84533" lon="2.26113">
        <ele>35.76847</ele>
        <time>2026-07-19T12:21:06.688Z</time>
      </trkpt>
      <trkpt lat="48.84534" lon="2.26109">
        <ele>35.7597</ele>
        <time>2026-07-19T12:21:09.688Z</time>
      </trkpt>
      <trkpt lat="48.84534" lon="2.26105">
        <ele>35.75925</ele>
        <time>2026-07-19T12:21:11.688Z</time>
      </trkpt>
      <trkpt lat="48.84534" lon="2.26101">
        <ele>35.75994</ele>
        <time>2026-07-19T12:21:14.688Z</time>
      </trkpt>
      <trkpt lat="48.84534" lon="2.26096">
        <ele>35.76307</ele>
        <time>2026-07-19T12:21:17.688Z</time>
      </trkpt>
      <trkpt lat="48.84535" lon="2.26092">
        <ele>35.76742</ele>
        <time>2026-07-19T12:21:20.688Z</time>
      </trkpt>
      <trkpt lat="48.84535" lon="2.26088">
        <ele>35.77257</ele>
        <time>2026-07-19T12:21:23.688Z</time>
      </trkpt>
      <trkpt lat="48.84534" lon="2.26083">
        <ele>35.77994</ele>
        <time>2026-07-19T12:21:26.688Z</time>
      </trkpt>
      <trkpt lat="48.84534" lon="2.26078">
        <ele>35.7899</ele>
        <time>2026-07-19T12:21:29.689Z</time>
      </trkpt>
      <trkpt lat="48.84534" lon="2.26074">
        <ele>35.80047</ele>
        <time>2026-07-19T12:21:32.688Z</time>
      </trkpt>
      <trkpt lat="48.84535" lon="2.26069">
        <ele>35.80676</ele>
        <time>2026-07-19T12:21:35.688Z</time>
      </trkpt>
      <trkpt lat="48.84536" lon="2.26065">
        <ele>35.81107</ele>
        <time>2026-07-19T12:21:38.688Z</time>
      </trkpt>
      <trkpt lat="48.84536" lon="2.2606">
        <ele>35.8128</ele>
        <time>2026-07-19T12:21:40.689Z</time>
      </trkpt>
      <trkpt lat="48.84536" lon="2.26057">
        <ele>35.81524</ele>
        <time>2026-07-19T12:21:42.688Z</time>
      </trkpt>
      <trkpt lat="48.84536" lon="2.26052">
        <ele>35.82425</ele>
        <time>2026-07-19T12:21:44.688Z</time>
      </trkpt>
      <trkpt lat="48.84537" lon="2.26048">
        <ele>35.84379</ele>
        <time>2026-07-19T12:21:46.689Z</time>
      </trkpt>
      <trkpt lat="48.84537" lon="2.26044">
        <ele>35.87004</ele>
        <time>2026-07-19T12:21:48.688Z</time>
      </trkpt>
      <trkpt lat="48.84536" lon="2.26039">
        <ele>35.925</ele>
        <time>2026-07-19T12:21:51.689Z</time>
      </trkpt>
      <trkpt lat="48.84536" lon="2.26036">
        <ele>35.96055</ele>
        <time>2026-07-19T12:21:53.689Z</time>
      </trkpt>
      <trkpt lat="48.84536" lon="2.26033">
        <ele>35.99142</ele>
        <time>2026-07-19T12:21:55.689Z</time>
      </trkpt>
      <trkpt lat="48.84536" lon="2.26029">
        <ele>36.01671</ele>
        <time>2026-07-19T12:21:57.689Z</time>
      </trkpt>
      <trkpt lat="48.84536" lon="2.26024">
        <ele>36.05387</ele>
        <time>2026-07-19T12:22:00.689Z</time>
      </trkpt>
      <trkpt lat="48.84536" lon="2.2602">
        <ele>36.09127</ele>
        <time>2026-07-19T12:22:03.689Z</time>
      </trkpt>
      <trkpt lat="48.84536" lon="2.26016">
        <ele>36.12753</ele>
        <time>2026-07-19T12:22:06.689Z</time>
      </trkpt>
      <trkpt lat="48.84537" lon="2.26011">
        <ele>36.16076</ele>
        <time>2026-07-19T12:22:09.690Z</time>
      </trkpt>
      <trkpt lat="48.84537" lon="2.26007">
        <ele>36.17407</ele>
        <time>2026-07-19T12:22:11.689Z</time>
      </trkpt>
      <trkpt lat="48.84537" lon="2.26004">
        <ele>36.17795</ele>
        <time>2026-07-19T12:22:13.689Z</time>
      </trkpt>
      <trkpt lat="48.84537" lon="2.26">
        <ele>36.18438</ele>
        <time>2026-07-19T12:22:15.690Z</time>
      </trkpt>
      <trkpt lat="48.84538" lon="2.25996">
        <ele>36.19589</ele>
        <time>2026-07-19T12:22:18.689Z</time>
      </trkpt>
      <trkpt lat="48.84537" lon="2.25992">
        <ele>36.20441</ele>
        <time>2026-07-19T12:22:21.690Z</time>
      </trkpt>
      <trkpt lat="48.84535" lon="2.25991">
        <ele>41.5665</ele>
        <time>2026-07-19T12:23:54.692Z</time>
      </trkpt>
      <trkpt lat="48.84535" lon="2.25987">
        <ele>41.47885</ele>
        <time>2026-07-19T12:24:36.692Z</time>
      </trkpt>
      <trkpt lat="48.84535" lon="2.25983">
        <ele>41.465</ele>
        <time>2026-07-19T12:24:40.692Z</time>
      </trkpt>
      <trkpt lat="48.84536" lon="2.25979">
        <ele>41.44994</ele>
        <time>2026-07-19T12:24:43.692Z</time>
      </trkpt>
      <trkpt lat="48.84537" lon="2.25975">
        <ele>41.42669</ele>
        <time>2026-07-19T12:24:46.692Z</time>
      </trkpt>
      <trkpt lat="48.84537" lon="2.25972">
        <ele>41.3594</ele>
        <time>2026-07-19T12:24:52.692Z</time>
      </trkpt>
      <trkpt lat="48.84537" lon="2.25967">
        <ele>41.10524</ele>
        <time>2026-07-19T12:25:02.693Z</time>
      </trkpt>
      <trkpt lat="48.84537" lon="2.25963">
        <ele>40.99067</ele>
        <time>2026-07-19T12:25:05.693Z</time>
      </trkpt>
      <trkpt lat="48.84536" lon="2.25959">
        <ele>40.83021</ele>
        <time>2026-07-19T12:25:08.692Z</time>
      </trkpt>
      <trkpt lat="48.84536" lon="2.25954">
        <ele>40.64131</ele>
        <time>2026-07-19T12:25:11.693Z</time>
      </trkpt>
      <trkpt lat="48.84537" lon="2.2595">
        <ele>40.41354</ele>
        <time>2026-07-19T12:25:14.693Z</time>
      </trkpt>
      <trkpt lat="48.84536" lon="2.25946">
        <ele>40.19218</ele>
        <time>2026-07-19T12:25:17.693Z</time>
      </trkpt>
      <trkpt lat="48.84537" lon="2.25941">
        <ele>39.97747</ele>
        <time>2026-07-19T12:25:20.693Z</time>
      </trkpt>
      <trkpt lat="48.84537" lon="2.25937">
        <ele>39.77899</ele>
        <time>2026-07-19T12:25:23.693Z</time>
      </trkpt>
      <trkpt lat="48.84538" lon="2.25933">
        <ele>39.63156</ele>
        <time>2026-07-19T12:25:26.694Z</time>
      </trkpt>
      <trkpt lat="48.84538" lon="2.2593">
        <ele>39.54297</ele>
        <time>2026-07-19T12:25:29.693Z</time>
      </trkpt>
      <trkpt lat="48.84537" lon="2.25926">
        <ele>39.47505</ele>
        <time>2026-07-19T12:25:32.694Z</time>
      </trkpt>
      <trkpt lat="48.84537" lon="2.25922">
        <ele>39.47618</ele>
        <time>2026-07-19T12:25:35.694Z</time>
      </trkpt>
      <trkpt lat="48.84537" lon="2.25919">
        <ele>39.48342</ele>
        <time>2026-07-19T12:25:37.693Z</time>
      </trkpt>
      <trkpt lat="48.84538" lon="2.25914">
        <ele>39.50347</ele>
        <time>2026-07-19T12:25:40.693Z</time>
      </trkpt>
      <trkpt lat="48.84538" lon="2.25911">
        <ele>39.50701</ele>
        <time>2026-07-19T12:25:42.694Z</time>
      </trkpt>
      <trkpt lat="48.84538" lon="2.25906">
        <ele>39.50752</ele>
        <time>2026-07-19T12:25:45.694Z</time>
      </trkpt>
      <trkpt lat="48.84539" lon="2.25902">
        <ele>39.49015</ele>
        <time>2026-07-19T12:25:48.693Z</time>
      </trkpt>
      <trkpt lat="48.84541" lon="2.259">
        <ele>39.45026</ele>
        <time>2026-07-19T12:25:55.693Z</time>
      </trkpt>
      <trkpt lat="48.84543" lon="2.25897">
        <ele>39.42214</ele>
        <time>2026-07-19T12:25:59.693Z</time>
      </trkpt>
      <trkpt lat="48.84543" lon="2.25893">
        <ele>39.39344</ele>
        <time>2026-07-19T12:26:02.693Z</time>
      </trkpt>
      <trkpt lat="48.84544" lon="2.25889">
        <ele>39.38099</ele>
        <time>2026-07-19T12:26:04.693Z</time>
      </trkpt>
      <trkpt lat="48.84544" lon="2.25885">
        <ele>39.37689</ele>
        <time>2026-07-19T12:26:06.694Z</time>
      </trkpt>
      <trkpt lat="48.84545" lon="2.25882">
        <ele>39.36963</ele>
        <time>2026-07-19T12:26:08.694Z</time>
      </trkpt>
      <trkpt lat="48.84546" lon="2.25877">
        <ele>39.34096</ele>
        <time>2026-07-19T12:26:11.694Z</time>
      </trkpt>
      <trkpt lat="48.84546" lon="2.25872">
        <ele>39.30328</ele>
        <time>2026-07-19T12:26:14.695Z</time>
      </trkpt>
      <trkpt lat="48.84546" lon="2.25868">
        <ele>39.27921</ele>
        <time>2026-07-19T12:26:16.694Z</time>
      </trkpt>
      <trkpt lat="48.84546" lon="2.25865">
        <ele>39.25477</ele>
        <time>2026-07-19T12:26:18.694Z</time>
      </trkpt>
      <trkpt lat="48.84546" lon="2.25861">
        <ele>39.23248</ele>
        <time>2026-07-19T12:26:20.694Z</time>
      </trkpt>
      <trkpt lat="48.84545" lon="2.25856">
        <ele>39.19989</ele>
        <time>2026-07-19T12:26:23.695Z</time>
      </trkpt>
      <trkpt lat="48.84545" lon="2.25853">
        <ele>39.17333</ele>
        <time>2026-07-19T12:26:27.696Z</time>
      </trkpt>
      <trkpt lat="48.84545" lon="2.25849">
        <ele>39.08102</ele>
        <time>2026-07-19T12:26:56.695Z</time>
      </trkpt>
      <trkpt lat="48.84545" lon="2.25845">
        <ele>39.04792</ele>
        <time>2026-07-19T12:26:59.696Z</time>
      </trkpt>
      <trkpt lat="48.84544" lon="2.25842">
        <ele>39.01903</ele>
        <time>2026-07-19T12:27:02.695Z</time>
      </trkpt>
      <trkpt lat="48.84544" lon="2.25838">
        <ele>38.99528</ele>
        <time>2026-07-19T12:27:04.695Z</time>
      </trkpt>
      <trkpt lat="48.84543" lon="2.25833">
        <ele>38.94629</ele>
        <time>2026-07-19T12:27:08.695Z</time>
      </trkpt>
      <trkpt lat="48.84542" lon="2.25828">
        <ele>38.93259</ele>
        <time>2026-07-19T12:27:10.696Z</time>
      </trkpt>
      <trkpt lat="48.84541" lon="2.25824">
        <ele>38.91963</ele>
        <time>2026-07-19T12:27:12.695Z</time>
      </trkpt>
      <trkpt lat="48.8454" lon="2.2582">
        <ele>38.91024</ele>
        <time>2026-07-19T12:27:15.696Z</time>
      </trkpt>
      <trkpt lat="48.84541" lon="2.25816">
        <ele>38.90484</ele>
        <time>2026-07-19T12:27:17.696Z</time>
      </trkpt>
      <trkpt lat="48.84541" lon="2.25811">
        <ele>38.8959</ele>
        <time>2026-07-19T12:27:19.695Z</time>
      </trkpt>
      <trkpt lat="48.8454" lon="2.25806">
        <ele>38.88363</ele>
        <time>2026-07-19T12:27:21.696Z</time>
      </trkpt>
      <trkpt lat="48.84541" lon="2.25802">
        <ele>38.87106</ele>
        <time>2026-07-19T12:27:23.695Z</time>
      </trkpt>
      <trkpt lat="48.84541" lon="2.25798">
        <ele>38.85376</ele>
        <time>2026-07-19T12:27:26.695Z</time>
      </trkpt>
      <trkpt lat="48.84541" lon="2.25794">
        <ele>38.83673</ele>
        <time>2026-07-19T12:27:29.695Z</time>
      </trkpt>
      <trkpt lat="48.84542" lon="2.25789">
        <ele>38.80801</ele>
        <time>2026-07-19T12:27:33.695Z</time>
      </trkpt>
      <trkpt lat="48.84543" lon="2.25786">
        <ele>38.78099</ele>
        <time>2026-07-19T12:27:36.696Z</time>
      </trkpt>
      <trkpt lat="48.84544" lon="2.25782">
        <ele>38.75347</ele>
        <time>2026-07-19T12:27:39.696Z</time>
      </trkpt>
      <trkpt lat="48.84545" lon="2.25778">
        <ele>38.71916</ele>
        <time>2026-07-19T12:27:45.697Z</time>
      </trkpt>
      <trkpt lat="48.84545" lon="2.25774">
        <ele>38.67715</ele>
        <time>2026-07-19T12:27:52.696Z</time>
      </trkpt>
      <trkpt lat="48.84546" lon="2.2577">
        <ele>38.66833</ele>
        <time>2026-07-19T12:27:54.696Z</time>
      </trkpt>
      <trkpt lat="48.84547" lon="2.25766">
        <ele>38.661</ele>
        <time>2026-07-19T12:27:56.696Z</time>
      </trkpt>
      <trkpt lat="48.84548" lon="2.25762">
        <ele>38.65699</ele>
        <time>2026-07-19T12:27:58.697Z</time>
      </trkpt>
      <trkpt lat="48.84549" lon="2.25757">
        <ele>38.65216</ele>
        <time>2026-07-19T12:28:01.696Z</time>
      </trkpt>
      <trkpt lat="48.8455" lon="2.25753">
        <ele>38.65058</ele>
        <time>2026-07-19T12:28:04.696Z</time>
      </trkpt>
      <trkpt lat="48.84551" lon="2.25748">
        <ele>38.65188</ele>
        <time>2026-07-19T12:28:07.697Z</time>
      </trkpt>
      <trkpt lat="48.84553" lon="2.25743">
        <ele>38.65345</ele>
        <time>2026-07-19T12:28:10.697Z</time>
      </trkpt>
      <trkpt lat="48.84553" lon="2.25738">
        <ele>38.65443</ele>
        <time>2026-07-19T12:28:13.696Z</time>
      </trkpt>
      <trkpt lat="48.84552" lon="2.25735">
        <ele>38.65336</ele>
        <time>2026-07-19T12:28:15.697Z</time>
      </trkpt>
      <trkpt lat="48.84551" lon="2.25731">
        <ele>38.65132</ele>
        <time>2026-07-19T12:28:18.697Z</time>
      </trkpt>
      <trkpt lat="48.84551" lon="2.25727">
        <ele>38.64753</ele>
        <time>2026-07-19T12:28:21.697Z</time>
      </trkpt>
      <trkpt lat="48.84552" lon="2.25722">
        <ele>38.64238</ele>
        <time>2026-07-19T12:28:24.697Z</time>
      </trkpt>
      <trkpt lat="48.84552" lon="2.25718">
        <ele>38.638</ele>
        <time>2026-07-19T12:28:26.697Z</time>
      </trkpt>
      <trkpt lat="48.84552" lon="2.25714">
        <ele>38.62751</ele>
        <time>2026-07-19T12:28:29.697Z</time>
      </trkpt>
      <trkpt lat="48.84552" lon="2.2571">
        <ele>38.61463</ele>
        <time>2026-07-19T12:28:31.697Z</time>
      </trkpt>
      <trkpt lat="48.84552" lon="2.25705">
        <ele>38.58718</ele>
        <time>2026-07-19T12:28:34.697Z</time>
      </trkpt>
      <trkpt lat="48.84552" lon="2.257">
        <ele>38.55254</ele>
        <time>2026-07-19T12:28:37.697Z</time>
      </trkpt>
      <trkpt lat="48.84553" lon="2.25696">
        <ele>38.52728</ele>
        <time>2026-07-19T12:28:39.697Z</time>
      </trkpt>
      <trkpt lat="48.84553" lon="2.25692">
        <ele>38.48518</ele>
        <time>2026-07-19T12:28:42.697Z</time>
      </trkpt>
      <trkpt lat="48.84553" lon="2.25686">
        <ele>38.45065</ele>
        <time>2026-07-19T12:28:45.697Z</time>
      </trkpt>
      <trkpt lat="48.84553" lon="2.25682">
        <ele>38.42675</ele>
        <time>2026-07-19T12:28:48.697Z</time>
      </trkpt>
      <trkpt lat="48.84553" lon="2.25678">
        <ele>38.41227</ele>
        <time>2026-07-19T12:28:50.697Z</time>
      </trkpt>
      <trkpt lat="48.84553" lon="2.25672">
        <ele>38.39768</ele>
        <time>2026-07-19T12:28:53.697Z</time>
      </trkpt>
      <trkpt lat="48.84553" lon="2.25669">
        <ele>38.39025</ele>
        <time>2026-07-19T12:28:55.698Z</time>
      </trkpt>
      <trkpt lat="48.84553" lon="2.25665">
        <ele>38.38247</ele>
        <time>2026-07-19T12:28:57.698Z</time>
      </trkpt>
      <trkpt lat="48.84553" lon="2.25661">
        <ele>38.37516</ele>
        <time>2026-07-19T12:28:59.697Z</time>
      </trkpt>
      <trkpt lat="48.84553" lon="2.25657">
        <ele>38.37065</ele>
        <time>2026-07-19T12:29:01.698Z</time>
      </trkpt>
      <trkpt lat="48.84553" lon="2.25652">
        <ele>38.3653</ele>
        <time>2026-07-19T12:29:04.697Z</time>
      </trkpt>
      <trkpt lat="48.84554" lon="2.25649">
        <ele>38.36285</ele>
        <time>2026-07-19T12:29:06.698Z</time>
      </trkpt>
      <trkpt lat="48.84554" lon="2.25645">
        <ele>38.36036</ele>
        <time>2026-07-19T12:29:08.698Z</time>
      </trkpt>
      <trkpt lat="48.84554" lon="2.25641">
        <ele>38.35634</ele>
        <time>2026-07-19T12:29:10.697Z</time>
      </trkpt>
      <trkpt lat="48.84555" lon="2.25637">
        <ele>38.35234</ele>
        <time>2026-07-19T12:29:12.699Z</time>
      </trkpt>
      <trkpt lat="48.84555" lon="2.25634">
        <ele>38.34809</ele>
        <time>2026-07-19T12:29:14.698Z</time>
      </trkpt>
      <trkpt lat="48.84555" lon="2.25628">
        <ele>38.34036</ele>
        <time>2026-07-19T12:29:17.698Z</time>
      </trkpt>
      <trkpt lat="48.84555" lon="2.25625">
        <ele>38.33522</ele>
        <time>2026-07-19T12:29:19.698Z</time>
      </trkpt>
      <trkpt lat="48.84554" lon="2.25621">
        <ele>38.33047</ele>
        <time>2026-07-19T12:29:21.698Z</time>
      </trkpt>
      <trkpt lat="48.84554" lon="2.25617">
        <ele>38.32545</ele>
        <time>2026-07-19T12:29:23.698Z</time>
      </trkpt>
      <trkpt lat="48.84554" lon="2.25614">
        <ele>38.32149</ele>
        <time>2026-07-19T12:29:25.699Z</time>
      </trkpt>
      <trkpt lat="48.84553" lon="2.2561">
        <ele>38.31666</ele>
        <time>2026-07-19T12:29:28.698Z</time>
      </trkpt>
      <trkpt lat="48.84552" lon="2.25605">
        <ele>38.315</ele>
        <time>2026-07-19T12:29:31.698Z</time>
      </trkpt>
      <trkpt lat="48.84553" lon="2.25602">
        <ele>37.95456</ele>
        <time>2026-07-19T12:30:07.699Z</time>
      </trkpt>
      <trkpt lat="48.84553" lon="2.25598">
        <ele>37.9002</ele>
        <time>2026-07-19T12:30:10.699Z</time>
      </trkpt>
      <trkpt lat="48.84553" lon="2.25594">
        <ele>37.87112</ele>
        <time>2026-07-19T12:30:12.699Z</time>
      </trkpt>
      <trkpt lat="48.84553" lon="2.25589">
        <ele>37.82418</ele>
        <time>2026-07-19T12:30:15.699Z</time>
      </trkpt>
      <trkpt lat="48.84553" lon="2.25584">
        <ele>37.77657</ele>
        <time>2026-07-19T12:30:18.700Z</time>
      </trkpt>
      <trkpt lat="48.84552" lon="2.2558">
        <ele>37.72632</ele>
        <time>2026-07-19T12:30:21.699Z</time>
      </trkpt>
      <trkpt lat="48.8455" lon="2.25576">
        <ele>37.67003</ele>
        <time>2026-07-19T12:30:24.700Z</time>
      </trkpt>
      <trkpt lat="48.8455" lon="2.25572">
        <ele>37.61629</ele>
        <time>2026-07-19T12:30:27.699Z</time>
      </trkpt>
      <trkpt lat="48.84549" lon="2.25568">
        <ele>37.59255</ele>
        <time>2026-07-19T12:30:29.921Z</time>
      </trkpt>
      <trkpt lat="48.84549" lon="2.25564">
        <ele>37.55406</ele>
        <time>2026-07-19T12:30:32.699Z</time>
      </trkpt>
      <trkpt lat="48.84549" lon="2.25559">
        <ele>37.51465</ele>
        <time>2026-07-19T12:30:35.700Z</time>
      </trkpt>
      <trkpt lat="48.84549" lon="2.25554">
        <ele>37.4873</ele>
        <time>2026-07-19T12:30:38.700Z</time>
      </trkpt>
      <trkpt lat="48.8455" lon="2.2555">
        <ele>37.45454</ele>
        <time>2026-07-19T12:30:41.699Z</time>
      </trkpt>
      <trkpt lat="48.8455" lon="2.25545">
        <ele>37.41354</ele>
        <time>2026-07-19T12:30:44.700Z</time>
      </trkpt>
      <trkpt lat="48.84549" lon="2.2554">
        <ele>37.37616</ele>
        <time>2026-07-19T12:30:47.699Z</time>
      </trkpt>
      <trkpt lat="48.8455" lon="2.25537">
        <ele>37.34788</ele>
        <time>2026-07-19T12:30:49.699Z</time>
      </trkpt>
      <trkpt lat="48.8455" lon="2.25532">
        <ele>37.30375</ele>
        <time>2026-07-19T12:30:52.700Z</time>
      </trkpt>
      <trkpt lat="48.8455" lon="2.25527">
        <ele>37.26369</ele>
        <time>2026-07-19T12:30:55.699Z</time>
      </trkpt>
      <trkpt lat="48.8455" lon="2.25523">
        <ele>37.23825</ele>
        <time>2026-07-19T12:30:57.700Z</time>
      </trkpt>
      <trkpt lat="48.8455" lon="2.2552">
        <ele>37.21223</ele>
        <time>2026-07-19T12:30:59.700Z</time>
      </trkpt>
      <trkpt lat="48.84551" lon="2.25515">
        <ele>37.17102</ele>
        <time>2026-07-19T12:31:02.700Z</time>
      </trkpt>
      <trkpt lat="48.84551" lon="2.25509">
        <ele>37.131</ele>
        <time>2026-07-19T12:31:05.700Z</time>
      </trkpt>
      <trkpt lat="48.84551" lon="2.25505">
        <ele>37.09176</ele>
        <time>2026-07-19T12:31:08.700Z</time>
      </trkpt>
      <trkpt lat="48.84551" lon="2.255">
        <ele>37.05202</ele>
        <time>2026-07-19T12:31:11.700Z</time>
      </trkpt>
      <trkpt lat="48.84551" lon="2.25494">
        <ele>37.01194</ele>
        <time>2026-07-19T12:31:15.700Z</time>
      </trkpt>
      <trkpt lat="48.84551" lon="2.2549">
        <ele>36.97966</ele>
        <time>2026-07-19T12:31:17.701Z</time>
      </trkpt>
      <trkpt lat="48.84551" lon="2.25487">
        <ele>36.9529</ele>
        <time>2026-07-19T12:31:19.701Z</time>
      </trkpt>
      <trkpt lat="48.84552" lon="2.25482">
        <ele>36.91564</ele>
        <time>2026-07-19T12:31:22.700Z</time>
      </trkpt>
      <trkpt lat="48.84551" lon="2.25478">
        <ele>36.89204</ele>
        <time>2026-07-19T12:31:24.701Z</time>
      </trkpt>
      <trkpt lat="48.84551" lon="2.25473">
        <ele>36.86452</ele>
        <time>2026-07-19T12:31:27.701Z</time>
      </trkpt>
      <trkpt lat="48.84551" lon="2.25469">
        <ele>36.85706</ele>
        <time>2026-07-19T12:31:29.701Z</time>
      </trkpt>
      <trkpt lat="48.84551" lon="2.25466">
        <ele>36.87337</ele>
        <time>2026-07-19T12:31:32.701Z</time>
      </trkpt>
      <trkpt lat="48.84551" lon="2.25462">
        <ele>36.89014</ele>
        <time>2026-07-19T12:31:34.700Z</time>
      </trkpt>
      <trkpt lat="48.84551" lon="2.25457">
        <ele>36.91782</ele>
        <time>2026-07-19T12:31:37.700Z</time>
      </trkpt>
      <trkpt lat="48.84552" lon="2.25452">
        <ele>36.9466</ele>
        <time>2026-07-19T12:31:40.701Z</time>
      </trkpt>
      <trkpt lat="48.84552" lon="2.25448">
        <ele>36.96043</ele>
        <time>2026-07-19T12:31:42.701Z</time>
      </trkpt>
      <trkpt lat="48.84553" lon="2.25444">
        <ele>36.97294</ele>
        <time>2026-07-19T12:31:45.701Z</time>
      </trkpt>
      <trkpt lat="48.84551" lon="2.25441">
        <ele>36.97945</ele>
        <time>2026-07-19T12:31:47.701Z</time>
      </trkpt>
      <trkpt lat="48.84551" lon="2.25438">
        <ele>36.9894</ele>
        <time>2026-07-19T12:31:49.700Z</time>
      </trkpt>
      <trkpt lat="48.84552" lon="2.25434">
        <ele>37.0071</ele>
        <time>2026-07-19T12:31:51.701Z</time>
      </trkpt>
      <trkpt lat="48.84552" lon="2.2543">
        <ele>37.03917</ele>
        <time>2026-07-19T12:31:53.701Z</time>
      </trkpt>
      <trkpt lat="48.84552" lon="2.25426">
        <ele>37.08394</ele>
        <time>2026-07-19T12:31:55.701Z</time>
      </trkpt>
      <trkpt lat="48.84553" lon="2.25423">
        <ele>37.18133</ele>
        <time>2026-07-19T12:31:58.702Z</time>
      </trkpt>
      <trkpt lat="48.84553" lon="2.25418">
        <ele>37.30706</ele>
        <time>2026-07-19T12:32:01.701Z</time>
      </trkpt>
      <trkpt lat="48.84553" lon="2.25413">
        <ele>37.42147</ele>
        <time>2026-07-19T12:32:04.701Z</time>
      </trkpt>
      <trkpt lat="48.84553" lon="2.25409">
        <ele>37.48406</ele>
        <time>2026-07-19T12:32:06.702Z</time>
      </trkpt>
      <trkpt lat="48.84553" lon="2.25406">
        <ele>37.53591</ele>
        <time>2026-07-19T12:32:08.701Z</time>
      </trkpt>
      <trkpt lat="48.84553" lon="2.25401">
        <ele>37.58394</ele>
        <time>2026-07-19T12:32:11.702Z</time>
      </trkpt>
      <trkpt lat="48.84552" lon="2.25396">
        <ele>37.60723</ele>
        <time>2026-07-19T12:32:14.701Z</time>
      </trkpt>
      <trkpt lat="48.84553" lon="2.25393">
        <ele>37.62418</ele>
        <time>2026-07-19T12:32:16.702Z</time>
      </trkpt>
      <trkpt lat="48.84554" lon="2.25388">
        <ele>37.6504</ele>
        <time>2026-07-19T12:32:19.701Z</time>
      </trkpt>
      <trkpt lat="48.84554" lon="2.25384">
        <ele>37.66497</ele>
        <time>2026-07-19T12:32:22.702Z</time>
      </trkpt>
      <trkpt lat="48.84554" lon="2.25379">
        <ele>37.66898</ele>
        <time>2026-07-19T12:32:25.702Z</time>
      </trkpt>
      <trkpt lat="48.84554" lon="2.25375">
        <ele>37.67402</ele>
        <time>2026-07-19T12:32:28.702Z</time>
      </trkpt>
      <trkpt lat="48.84554" lon="2.2537">
        <ele>37.69068</ele>
        <time>2026-07-19T12:32:31.702Z</time>
      </trkpt>
      <trkpt lat="48.84554" lon="2.25367">
        <ele>37.70275</ele>
        <time>2026-07-19T12:32:33.702Z</time>
      </trkpt>
      <trkpt lat="48.84554" lon="2.25362">
        <ele>37.73187</ele>
        <time>2026-07-19T12:32:36.701Z</time>
      </trkpt>
      <trkpt lat="48.84555" lon="2.25358">
        <ele>37.81355</ele>
        <time>2026-07-19T12:32:40.702Z</time>
      </trkpt>
      <trkpt lat="48.84555" lon="2.25354">
        <ele>37.8926</ele>
        <time>2026-07-19T12:32:43.702Z</time>
      </trkpt>
      <trkpt lat="48.84556" lon="2.2535">
        <ele>37.94527</ele>
        <time>2026-07-19T12:32:45.702Z</time>
      </trkpt>
      <trkpt lat="48.84557" lon="2.25347">
        <ele>37.97989</ele>
        <time>2026-07-19T12:32:47.702Z</time>
      </trkpt>
      <trkpt lat="48.84557" lon="2.25342">
        <ele>38.01118</ele>
        <time>2026-07-19T12:32:50.702Z</time>
      </trkpt>
      <trkpt lat="48.84556" lon="2.25337">
        <ele>38.03789</ele>
        <time>2026-07-19T12:32:53.702Z</time>
      </trkpt>
      <trkpt lat="48.84556" lon="2.25333">
        <ele>38.06082</ele>
        <time>2026-07-19T12:32:55.702Z</time>
      </trkpt>
      <trkpt lat="48.84555" lon="2.25329">
        <ele>38.07179</ele>
        <time>2026-07-19T12:32:57.702Z</time>
      </trkpt>
      <trkpt lat="48.84555" lon="2.25326">
        <ele>38.07557</ele>
        <time>2026-07-19T12:32:59.702Z</time>
      </trkpt>
      <trkpt lat="48.84555" lon="2.25321">
        <ele>38.07962</ele>
        <time>2026-07-19T12:33:02.702Z</time>
      </trkpt>
      <trkpt lat="48.84556" lon="2.25317">
        <ele>38.08706</ele>
        <time>2026-07-19T12:33:05.703Z</time>
      </trkpt>
      <trkpt lat="48.84556" lon="2.25313">
        <ele>38.09317</ele>
        <time>2026-07-19T12:33:07.702Z</time>
      </trkpt>
      <trkpt lat="48.84555" lon="2.25309">
        <ele>38.09887</ele>
        <time>2026-07-19T12:33:10.702Z</time>
      </trkpt>
      <trkpt lat="48.84556" lon="2.25305">
        <ele>38.10686</ele>
        <time>2026-07-19T12:33:13.703Z</time>
      </trkpt>
      <trkpt lat="48.84556" lon="2.25301">
        <ele>38.11461</ele>
        <time>2026-07-19T12:33:15.703Z</time>
      </trkpt>
      <trkpt lat="48.84557" lon="2.25297">
        <ele>38.1277</ele>
        <time>2026-07-19T12:33:18.703Z</time>
      </trkpt>
      <trkpt lat="48.84556" lon="2.25294">
        <ele>38.13153</ele>
        <time>2026-07-19T12:33:20.703Z</time>
      </trkpt>
      <trkpt lat="48.84558" lon="2.25291">
        <ele>38.1223</ele>
        <time>2026-07-19T12:33:25.702Z</time>
      </trkpt>
      <trkpt lat="48.84561" lon="2.25292">
        <ele>38.11082</ele>
        <time>2026-07-19T12:33:27.703Z</time>
      </trkpt>
      <trkpt lat="48.84563" lon="2.25292">
        <ele>38.09374</ele>
        <time>2026-07-19T12:33:29.703Z</time>
      </trkpt>
      <trkpt lat="48.84566" lon="2.25293">
        <ele>38.06878</ele>
        <time>2026-07-19T12:33:32.702Z</time>
      </trkpt>
      <trkpt lat="48.84569" lon="2.25294">
        <ele>38.05413</ele>
        <time>2026-07-19T12:33:35.703Z</time>
      </trkpt>
      <trkpt lat="48.84572" lon="2.25295">
        <ele>38.04616</ele>
        <time>2026-07-19T12:33:38.703Z</time>
      </trkpt>
      <trkpt lat="48.84575" lon="2.25296">
        <ele>38.04043</ele>
        <time>2026-07-19T12:33:41.703Z</time>
      </trkpt>
      <trkpt lat="48.84577" lon="2.25296">
        <ele>38.03751</ele>
        <time>2026-07-19T12:33:44.703Z</time>
      </trkpt>
      <trkpt lat="48.8458" lon="2.25295">
        <ele>38.03784</ele>
        <time>2026-07-19T12:33:46.703Z</time>
      </trkpt>
      <trkpt lat="48.84583" lon="2.25294">
        <ele>38.03774</ele>
        <time>2026-07-19T12:33:48.704Z</time>
      </trkpt>
      <trkpt lat="48.84585" lon="2.25293">
        <ele>38.03693</ele>
        <time>2026-07-19T12:33:50.703Z</time>
      </trkpt>
      <trkpt lat="48.84588" lon="2.25291">
        <ele>38.03636</ele>
        <time>2026-07-19T12:33:52.703Z</time>
      </trkpt>
      <trkpt lat="48.84589" lon="2.25287">
        <ele>38.03465</ele>
        <time>2026-07-19T12:33:55.703Z</time>
      </trkpt>
      <trkpt lat="48.84588" lon="2.25284">
        <ele>38.03199</ele>
        <time>2026-07-19T12:33:57.703Z</time>
      </trkpt>
      <trkpt lat="48.84587" lon="2.25281">
        <ele>38.02572</ele>
        <time>2026-07-19T12:33:59.703Z</time>
      </trkpt>
      <trkpt lat="48.84587" lon="2.25277">
        <ele>38.01598</ele>
        <time>2026-07-19T12:34:01.703Z</time>
      </trkpt>
      <trkpt lat="48.84587" lon="2.25273">
        <ele>37.99504</ele>
        <time>2026-07-19T12:34:04.703Z</time>
      </trkpt>
      <trkpt lat="48.84588" lon="2.2527">
        <ele>37.95962</ele>
        <time>2026-07-19T12:34:07.704Z</time>
      </trkpt>
      <trkpt lat="48.84591" lon="2.25271">
        <ele>37.86741</ele>
        <time>2026-07-19T12:34:11.704Z</time>
      </trkpt>
      <trkpt lat="48.84594" lon="2.25272">
        <ele>37.80632</ele>
        <time>2026-07-19T12:34:14.704Z</time>
      </trkpt>
      <trkpt lat="48.84597" lon="2.25273">
        <ele>37.76443</ele>
        <time>2026-07-19T12:34:16.704Z</time>
      </trkpt>
      <trkpt lat="48.846" lon="2.25274">
        <ele>37.71358</ele>
        <time>2026-07-19T12:34:19.705Z</time>
      </trkpt>
      <trkpt lat="48.84599" lon="2.25277">
        <ele>37.33059</ele>
        <time>2026-07-19T12:34:35.704Z</time>
      </trkpt>
      <trkpt lat="48.84597" lon="2.25281">
        <ele>37.28348</ele>
        <time>2026-07-19T12:34:37.704Z</time>
      </trkpt>
      <trkpt lat="48.84595" lon="2.25278">
        <ele>37.20599</ele>
        <time>2026-07-19T12:34:50.704Z</time>
      </trkpt>
      <trkpt lat="48.84597" lon="2.25279">
        <ele>37.22062</ele>
        <time>2026-07-19T12:35:43.706Z</time>
      </trkpt>
      <trkpt lat="48.84599" lon="2.25279">
        <ele>36.38896</ele>
        <time>2026-07-19T12:36:51.707Z</time>
      </trkpt>
      <trkpt lat="48.84597" lon="2.25276">
        <ele>36.30025</ele>
        <time>2026-07-19T12:37:10.708Z</time>
      </trkpt>
      <trkpt lat="48.84594" lon="2.25274">
        <ele>36.28907</ele>
        <time>2026-07-19T12:37:15.708Z</time>
      </trkpt>
      <trkpt lat="48.84592" lon="2.25274">
        <ele>36.27576</ele>
        <time>2026-07-19T12:37:17.708Z</time>
      </trkpt>
      <trkpt lat="48.84589" lon="2.25274">
        <ele>36.25886</ele>
        <time>2026-07-19T12:37:19.707Z</time>
      </trkpt>
      <trkpt lat="48.84587" lon="2.25273">
        <ele>36.24163</ele>
        <time>2026-07-19T12:37:22.708Z</time>
      </trkpt>
      <trkpt lat="48.84584" lon="2.25273">
        <ele>35.91143</ele>
        <time>2026-07-19T12:37:48.709Z</time>
      </trkpt>
      <trkpt lat="48.84582" lon="2.25275">
        <ele>36.15118</ele>
        <time>2026-07-19T12:39:09.710Z</time>
      </trkpt>
      <trkpt lat="48.84582" lon="2.25271">
        <ele>36.38479</ele>
        <time>2026-07-19T12:40:04.711Z</time>
      </trkpt>
      <trkpt lat="48.84583" lon="2.25275">
        <ele>36.39925</ele>
        <time>2026-07-19T12:40:15.712Z</time>
      </trkpt>
      <trkpt lat="48.84585" lon="2.25277">
        <ele>36.40033</ele>
        <time>2026-07-19T12:40:29.711Z</time>
      </trkpt>
      <trkpt lat="48.84586" lon="2.2528">
        <ele>36.39022</ele>
        <time>2026-07-19T12:40:34.712Z</time>
      </trkpt>
      <trkpt lat="48.84587" lon="2.25285">
        <ele>36.36845</ele>
        <time>2026-07-19T12:40:37.711Z</time>
      </trkpt>
      <trkpt lat="48.84588" lon="2.25289">
        <ele>36.35014</ele>
        <time>2026-07-19T12:40:40.712Z</time>
      </trkpt>
      <trkpt lat="48.84589" lon="2.25292">
        <ele>36.33905</ele>
        <time>2026-07-19T12:40:43.712Z</time>
      </trkpt>
      <trkpt lat="48.8459" lon="2.25295">
        <ele>36.33284</ele>
        <time>2026-07-19T12:40:46.712Z</time>
      </trkpt>
      <trkpt lat="48.84592" lon="2.25292">
        <ele>36.31595</ele>
        <time>2026-07-19T12:40:50.712Z</time>
      </trkpt>
      <trkpt lat="48.84593" lon="2.25295">
        <ele>36.20153</ele>
        <time>2026-07-19T12:41:01.712Z</time>
      </trkpt>
      <trkpt lat="48.84595" lon="2.25299">
        <ele>36.13778</ele>
        <time>2026-07-19T12:41:04.713Z</time>
      </trkpt>
      <trkpt lat="48.84596" lon="2.25302">
        <ele>36.02739</ele>
        <time>2026-07-19T12:41:08.712Z</time>
      </trkpt>
      <trkpt lat="48.84598" lon="2.25305">
        <ele>35.93326</ele>
        <time>2026-07-19T12:41:11.712Z</time>
      </trkpt>
      <trkpt lat="48.846" lon="2.25306">
        <ele>35.89627</ele>
        <time>2026-07-19T12:41:13.713Z</time>
      </trkpt>
      <trkpt lat="48.84602" lon="2.25307">
        <ele>35.84947</ele>
        <time>2026-07-19T12:41:16.713Z</time>
      </trkpt>
      <trkpt lat="48.84606" lon="2.25307">
        <ele>35.76812</ele>
        <time>2026-07-19T12:41:20.713Z</time>
      </trkpt>
      <trkpt lat="48.84608" lon="2.25307">
        <ele>35.71055</ele>
        <time>2026-07-19T12:41:23.713Z</time>
      </trkpt>
      <trkpt lat="48.8461" lon="2.25309">
        <ele>35.61129</ele>
        <time>2026-07-19T12:41:29.712Z</time>
      </trkpt>
      <trkpt lat="48.84612" lon="2.25312">
        <ele>35.42625</ele>
        <time>2026-07-19T12:41:46.713Z</time>
      </trkpt>
      <trkpt lat="48.84611" lon="2.25316">
        <ele>35.3681</ele>
        <time>2026-07-19T12:41:51.714Z</time>
      </trkpt>
      <trkpt lat="48.84615" lon="2.25315">
        <ele>35.04402</ele>
        <time>2026-07-19T12:42:08.880Z</time>
      </trkpt>
      <trkpt lat="48.84618" lon="2.25314">
        <ele>35.00937</ele>
        <time>2026-07-19T12:42:10.714Z</time>
      </trkpt>
      <trkpt lat="48.84621" lon="2.25314">
        <ele>34.95081</ele>
        <time>2026-07-19T12:42:14.714Z</time>
      </trkpt>
      <trkpt lat="48.84623" lon="2.25315">
        <ele>34.92881</ele>
        <time>2026-07-19T12:42:20.714Z</time>
      </trkpt>
      <trkpt lat="48.84645" lon="2.2532">
        <ele>34.93781</ele>
        <time>2026-07-19T12:42:39.714Z</time>
      </trkpt>
      <trkpt lat="48.84648" lon="2.25317">
        <ele>34.94341</ele>
        <time>2026-07-19T12:42:40.715Z</time>
      </trkpt>
      <trkpt lat="48.84646" lon="2.25316">
        <ele>34.94237</ele>
        <time>2026-07-19T12:42:41.714Z</time>
      </trkpt>
      <trkpt lat="48.84648" lon="2.25317">
        <ele>34.80319</ele>
        <time>2026-07-19T12:42:56.715Z</time>
      </trkpt>
      <trkpt lat="48.84628" lon="2.25327">
        <ele>34.78958</ele>
        <time>2026-07-19T12:43:31.715Z</time>
      </trkpt>
      <trkpt lat="48.84625" lon="2.25327">
        <ele>34.79962</ele>
        <time>2026-07-19T12:43:34.715Z</time>
      </trkpt>
      <trkpt lat="48.84622" lon="2.25327">
        <ele>34.85805</ele>
        <time>2026-07-19T12:43:41.716Z</time>
      </trkpt>
      <trkpt lat="48.84564" lon="2.2532">
        <ele>34.87537</ele>
        <time>2026-07-19T12:44:38.717Z</time>
      </trkpt>
      <trkpt lat="48.84564" lon="2.25324">
        <ele>35.88188</ele>
        <time>2026-07-19T12:44:52.717Z</time>
      </trkpt>
      <trkpt lat="48.84555" lon="2.25395">
        <ele>38.45778</ele>
        <time>2026-07-19T12:45:54.718Z</time>
      </trkpt>
      <trkpt lat="48.84559" lon="2.25393">
        <ele>38.45239</ele>
        <time>2026-07-19T12:45:56.718Z</time>
      </trkpt>
      <trkpt lat="48.84563" lon="2.25391">
        <ele>38.34642</ele>
        <time>2026-07-19T12:45:57.718Z</time>
      </trkpt>
      <trkpt lat="48.84565" lon="2.25388">
        <ele>35.26938</ele>
        <time>2026-07-19T12:46:18.719Z</time>
      </trkpt>
      <trkpt lat="48.84568" lon="2.25385">
        <ele>35.01681</ele>
        <time>2026-07-19T12:46:22.720Z</time>
      </trkpt>
      <trkpt lat="48.84595" lon="2.25405">
        <ele>35.07399</ele>
        <time>2026-07-19T12:46:44.720Z</time>
      </trkpt>
      <trkpt lat="48.84598" lon="2.25405">
        <ele>35.25244</ele>
        <time>2026-07-19T12:46:46.719Z</time>
      </trkpt>
      <trkpt lat="48.84599" lon="2.25403">
        <ele>35.52461</ele>
        <time>2026-07-19T12:46:50.719Z</time>
      </trkpt>
      <trkpt lat="48.84599" lon="2.25399">
        <ele>35.72908</ele>
        <time>2026-07-19T12:46:53.720Z</time>
      </trkpt>
      <trkpt lat="48.84606" lon="2.25407">
        <ele>36.04251</ele>
        <time>2026-07-19T12:47:17.720Z</time>
      </trkpt>
      <trkpt lat="48.84608" lon="2.25408">
        <ele>36.19641</ele>
        <time>2026-07-19T12:47:29.721Z</time>
      </trkpt>
      <trkpt lat="48.84612" lon="2.25406">
        <ele>36.22677</ele>
        <time>2026-07-19T12:47:31.721Z</time>
      </trkpt>
      <trkpt lat="48.84615" lon="2.25403">
        <ele>36.25552</ele>
        <time>2026-07-19T12:47:33.721Z</time>
      </trkpt>
      <trkpt lat="48.84617" lon="2.25403">
        <ele>36.30232</ele>
        <time>2026-07-19T12:47:36.720Z</time>
      </trkpt>
      <trkpt lat="48.8463" lon="2.25395">
        <ele>36.40243</ele>
        <time>2026-07-19T12:48:05.721Z</time>
      </trkpt>
      <trkpt lat="48.84635" lon="2.25393">
        <ele>36.43577</ele>
        <time>2026-07-19T12:48:06.721Z</time>
      </trkpt>
      <trkpt lat="48.84633" lon="2.25391">
        <ele>36.56378</ele>
        <time>2026-07-19T12:48:10.721Z</time>
      </trkpt>
      <trkpt lat="48.84632" lon="2.25388">
        <ele>37.78454</ele>
        <time>2026-07-19T12:48:32.721Z</time>
      </trkpt>
      <trkpt lat="48.84633" lon="2.25385">
        <ele>37.87636</ele>
        <time>2026-07-19T12:48:36.722Z</time>
      </trkpt>
      <trkpt lat="48.84635" lon="2.25383">
        <ele>37.87912</ele>
        <time>2026-07-19T12:48:43.722Z</time>
      </trkpt>
      <trkpt lat="48.84635" lon="2.25379">
        <ele>37.90909</ele>
        <time>2026-07-19T12:48:52.723Z</time>
      </trkpt>
      <trkpt lat="48.84636" lon="2.25375">
        <ele>37.91235</ele>
        <time>2026-07-19T12:48:54.722Z</time>
      </trkpt>
      <trkpt lat="48.84635" lon="2.25371">
        <ele>37.90992</ele>
        <time>2026-07-19T12:48:56.722Z</time>
      </trkpt>
      <trkpt lat="48.84637" lon="2.25368">
        <ele>37.90893</ele>
        <time>2026-07-19T12:48:59.722Z</time>
      </trkpt>
      <trkpt lat="48.84638" lon="2.25365">
        <ele>37.91209</ele>
        <time>2026-07-19T12:49:03.723Z</time>
      </trkpt>
      <trkpt lat="48.8464" lon="2.25361">
        <ele>37.91087</ele>
        <time>2026-07-19T12:49:07.722Z</time>
      </trkpt>
      <trkpt lat="48.84638" lon="2.25359">
        <ele>37.91284</ele>
        <time>2026-07-19T12:49:09.724Z</time>
      </trkpt>
      <trkpt lat="48.84636" lon="2.25355">
        <ele>37.91707</ele>
        <time>2026-07-19T12:49:11.723Z</time>
      </trkpt>
      <trkpt lat="48.84632" lon="2.25348">
        <ele>37.92053</ele>
        <time>2026-07-19T12:49:13.723Z</time>
      </trkpt>
      <trkpt lat="48.84631" lon="2.25343">
        <ele>37.92117</ele>
        <time>2026-07-19T12:49:14.723Z</time>
      </trkpt>
      <trkpt lat="48.84634" lon="2.2534">
        <ele>37.91536</ele>
        <time>2026-07-19T12:49:16.723Z</time>
      </trkpt>
      <trkpt lat="48.84635" lon="2.25336">
        <ele>37.92289</ele>
        <time>2026-07-19T12:49:22.722Z</time>
      </trkpt>
      <trkpt lat="48.84636" lon="2.25332">
        <ele>37.9335</ele>
        <time>2026-07-19T12:49:23.723Z</time>
      </trkpt>
      <trkpt lat="48.84638" lon="2.25329">
        <ele>37.98687</ele>
        <time>2026-07-19T12:49:25.723Z</time>
      </trkpt>
      <trkpt lat="48.84638" lon="2.25325">
        <ele>38.28104</ele>
        <time>2026-07-19T12:49:40.723Z</time>
      </trkpt>
      <trkpt lat="48.84637" lon="2.25322">
        <ele>38.31019</ele>
        <time>2026-07-19T12:49:43.723Z</time>
      </trkpt>
      <trkpt lat="48.84637" lon="2.25318">
        <ele>38.3254</ele>
        <time>2026-07-19T12:49:47.723Z</time>
      </trkpt>
      <trkpt lat="48.84637" lon="2.25313">
        <ele>38.32051</ele>
        <time>2026-07-19T12:49:51.723Z</time>
      </trkpt>
      <trkpt lat="48.84637" lon="2.25309">
        <ele>38.30451</ele>
        <time>2026-07-19T12:49:55.724Z</time>
      </trkpt>
      <trkpt lat="48.84638" lon="2.25306">
        <ele>38.28262</ele>
        <time>2026-07-19T12:49:59.723Z</time>
      </trkpt>
      <trkpt lat="48.8464" lon="2.25302">
        <ele>38.25509</ele>
        <time>2026-07-19T12:50:03.723Z</time>
      </trkpt>
      <trkpt lat="48.84641" lon="2.25298">
        <ele>38.2216</ele>
        <time>2026-07-19T12:50:08.723Z</time>
      </trkpt>
      <trkpt lat="48.84641" lon="2.25294">
        <ele>38.21008</ele>
        <time>2026-07-19T12:50:14.723Z</time>
      </trkpt>
      <trkpt lat="48.84642" lon="2.25291">
        <ele>38.20765</ele>
        <time>2026-07-19T12:50:17.724Z</time>
      </trkpt>
      <trkpt lat="48.84642" lon="2.25287">
        <ele>38.20612</ele>
        <time>2026-07-19T12:50:20.724Z</time>
      </trkpt>
      <trkpt lat="48.84642" lon="2.25283">
        <ele>38.19996</ele>
        <time>2026-07-19T12:50:23.724Z</time>
      </trkpt>
      <trkpt lat="48.84642" lon="2.25278">
        <ele>38.18889</ele>
        <time>2026-07-19T12:50:26.724Z</time>
      </trkpt>
      <trkpt lat="48.84642" lon="2.25274">
        <ele>38.1818</ele>
        <time>2026-07-19T12:50:28.724Z</time>
      </trkpt>
      <trkpt lat="48.84642" lon="2.25269">
        <ele>38.16865</ele>
        <time>2026-07-19T12:50:31.724Z</time>
      </trkpt>
      <trkpt lat="48.84642" lon="2.25265">
        <ele>38.14809</ele>
        <time>2026-07-19T12:50:34.724Z</time>
      </trkpt>
      <trkpt lat="48.84642" lon="2.2526">
        <ele>38.12921</ele>
        <time>2026-07-19T12:50:37.724Z</time>
      </trkpt>
      <trkpt lat="48.84643" lon="2.25257">
        <ele>38.11838</ele>
        <time>2026-07-19T12:50:39.725Z</time>
      </trkpt>
      <trkpt lat="48.84643" lon="2.25253">
        <ele>38.10698</ele>
        <time>2026-07-19T12:50:41.725Z</time>
      </trkpt>
      <trkpt lat="48.84642" lon="2.25249">
        <ele>38.0859</ele>
        <time>2026-07-19T12:50:44.724Z</time>
      </trkpt>
      <trkpt lat="48.84642" lon="2.25245">
        <ele>38.07133</ele>
        <time>2026-07-19T12:50:47.724Z</time>
      </trkpt>
      <trkpt lat="48.84642" lon="2.2524">
        <ele>38.06968</ele>
        <time>2026-07-19T12:50:50.724Z</time>
      </trkpt>
      <trkpt lat="48.84642" lon="2.25236">
        <ele>38.07273</ele>
        <time>2026-07-19T12:50:52.725Z</time>
      </trkpt>
      <trkpt lat="48.84642" lon="2.25231">
        <ele>38.08438</ele>
        <time>2026-07-19T12:50:55.724Z</time>
      </trkpt>
      <trkpt lat="48.84643" lon="2.25227">
        <ele>38.09766</ele>
        <time>2026-07-19T12:50:57.725Z</time>
      </trkpt>
      <trkpt lat="48.84643" lon="2.25223">
        <ele>38.11046</ele>
        <time>2026-07-19T12:50:59.725Z</time>
      </trkpt>
      <trkpt lat="48.84642" lon="2.25219">
        <ele>38.1391</ele>
        <time>2026-07-19T12:51:02.725Z</time>
      </trkpt>
      <trkpt lat="48.84643" lon="2.25214">
        <ele>38.16723</ele>
        <time>2026-07-19T12:51:05.725Z</time>
      </trkpt>
      <trkpt lat="48.84643" lon="2.25211">
        <ele>38.18812</ele>
        <time>2026-07-19T12:51:09.725Z</time>
      </trkpt>
      <trkpt lat="48.84644" lon="2.25206">
        <ele>38.19846</ele>
        <time>2026-07-19T12:51:12.725Z</time>
      </trkpt>
      <trkpt lat="48.84644" lon="2.25202">
        <ele>38.20676</ele>
        <time>2026-07-19T12:51:14.725Z</time>
      </trkpt>
      <trkpt lat="48.84644" lon="2.25197">
        <ele>38.21696</ele>
        <time>2026-07-19T12:51:17.726Z</time>
      </trkpt>
      <trkpt lat="48.84645" lon="2.25192">
        <ele>38.22668</ele>
        <time>2026-07-19T12:51:20.725Z</time>
      </trkpt>
      <trkpt lat="48.84645" lon="2.25188">
        <ele>38.2424</ele>
        <time>2026-07-19T12:51:23.726Z</time>
      </trkpt>
      <trkpt lat="48.84646" lon="2.25184">
        <ele>38.25802</ele>
        <time>2026-07-19T12:51:25.725Z</time>
      </trkpt>
      <trkpt lat="48.84645" lon="2.2518">
        <ele>38.28898</ele>
        <time>2026-07-19T12:51:27.725Z</time>
      </trkpt>
      <trkpt lat="48.84644" lon="2.25176">
        <ele>38.3741</ele>
        <time>2026-07-19T12:51:30.725Z</time>
      </trkpt>
      <trkpt lat="48.84644" lon="2.25172">
        <ele>38.48961</ele>
        <time>2026-07-19T12:51:33.725Z</time>
      </trkpt>
      <trkpt lat="48.84645" lon="2.25168">
        <ele>38.60945</ele>
        <time>2026-07-19T12:51:37.725Z</time>
      </trkpt>
      <trkpt lat="48.84644" lon="2.25164">
        <ele>38.65129</ele>
        <time>2026-07-19T12:51:40.726Z</time>
      </trkpt>
      <trkpt lat="48.84644" lon="2.25159">
        <ele>38.67909</ele>
        <time>2026-07-19T12:51:43.726Z</time>
      </trkpt>
      <trkpt lat="48.84645" lon="2.25155">
        <ele>38.6898</ele>
        <time>2026-07-19T12:51:45.726Z</time>
      </trkpt>
      <trkpt lat="48.84645" lon="2.25151">
        <ele>38.69922</ele>
        <time>2026-07-19T12:51:48.726Z</time>
      </trkpt>
      <trkpt lat="48.84647" lon="2.25148">
        <ele>38.70353</ele>
        <time>2026-07-19T12:51:51.725Z</time>
      </trkpt>
      <trkpt lat="48.8465" lon="2.25147">
        <ele>38.70766</ele>
        <time>2026-07-19T12:51:55.725Z</time>
      </trkpt>
      <trkpt lat="48.84653" lon="2.25147">
        <ele>38.70663</ele>
        <time>2026-07-19T12:51:58.726Z</time>
      </trkpt>
      <trkpt lat="48.84655" lon="2.25148">
        <ele>38.70805</ele>
        <time>2026-07-19T12:52:00.726Z</time>
      </trkpt>
      <trkpt lat="48.84658" lon="2.25147">
        <ele>38.71608</ele>
        <time>2026-07-19T12:52:04.726Z</time>
      </trkpt>
      <trkpt lat="48.84661" lon="2.25148">
        <ele>38.72066</ele>
        <time>2026-07-19T12:52:07.726Z</time>
      </trkpt>
      <trkpt lat="48.84664" lon="2.25149">
        <ele>38.72081</ele>
        <time>2026-07-19T12:52:10.726Z</time>
      </trkpt>
      <trkpt lat="48.84667" lon="2.25149">
        <ele>38.72312</ele>
        <time>2026-07-19T12:52:13.727Z</time>
      </trkpt>
      <trkpt lat="48.8467" lon="2.25148">
        <ele>38.72276</ele>
        <time>2026-07-19T12:52:17.726Z</time>
      </trkpt>
      <trkpt lat="48.84673" lon="2.25148">
        <ele>38.72219</ele>
        <time>2026-07-19T12:52:19.726Z</time>
      </trkpt>
      <trkpt lat="48.84675" lon="2.25148">
        <ele>38.72372</ele>
        <time>2026-07-19T12:52:22.726Z</time>
      </trkpt>
      <trkpt lat="48.84677" lon="2.2515">
        <ele>38.72593</ele>
        <time>2026-07-19T12:52:24.727Z</time>
      </trkpt>
      <trkpt lat="48.8468" lon="2.2515">
        <ele>38.72654</ele>
        <time>2026-07-19T12:52:27.727Z</time>
      </trkpt>
      <trkpt lat="48.84683" lon="2.2515">
        <ele>38.72871</ele>
        <time>2026-07-19T12:52:29.727Z</time>
      </trkpt>
      <trkpt lat="48.84686" lon="2.2515">
        <ele>38.73762</ele>
        <time>2026-07-19T12:52:32.726Z</time>
      </trkpt>
      <trkpt lat="48.84689" lon="2.2515">
        <ele>38.74885</ele>
        <time>2026-07-19T12:52:35.727Z</time>
      </trkpt>
      <trkpt lat="48.84692" lon="2.25151">
        <ele>38.76589</ele>
        <time>2026-07-19T12:52:39.727Z</time>
      </trkpt>
      <trkpt lat="48.84694" lon="2.25152">
        <ele>38.77827</ele>
        <time>2026-07-19T12:52:42.727Z</time>
      </trkpt>
      <trkpt lat="48.84697" lon="2.25151">
        <ele>38.78841</ele>
        <time>2026-07-19T12:52:46.727Z</time>
      </trkpt>
      <trkpt lat="48.847" lon="2.25153">
        <ele>38.79208</ele>
        <time>2026-07-19T12:52:49.727Z</time>
      </trkpt>
      <trkpt lat="48.84702" lon="2.25152">
        <ele>38.79194</ele>
        <time>2026-07-19T12:52:53.727Z</time>
      </trkpt>
      <trkpt lat="48.84706" lon="2.25152">
        <ele>38.79512</ele>
        <time>2026-07-19T12:52:56.727Z</time>
      </trkpt>
      <trkpt lat="48.84708" lon="2.25151">
        <ele>38.80085</ele>
        <time>2026-07-19T12:52:58.727Z</time>
      </trkpt>
      <trkpt lat="48.84711" lon="2.25152">
        <ele>38.8114</ele>
        <time>2026-07-19T12:53:00.728Z</time>
      </trkpt>
      <trkpt lat="48.84713" lon="2.25151">
        <ele>38.8298</ele>
        <time>2026-07-19T12:53:02.727Z</time>
      </trkpt>
      <trkpt lat="48.84716" lon="2.25154">
        <ele>38.84364</ele>
        <time>2026-07-19T12:53:04.728Z</time>
      </trkpt>
      <trkpt lat="48.84718" lon="2.25157">
        <ele>38.86841</ele>
        <time>2026-07-19T12:53:07.728Z</time>
      </trkpt>
      <trkpt lat="48.84718" lon="2.25161">
        <ele>38.8929</ele>
        <time>2026-07-19T12:53:09.727Z</time>
      </trkpt>
      <trkpt lat="48.84718" lon="2.25166">
        <ele>38.92726</ele>
        <time>2026-07-19T12:53:12.728Z</time>
      </trkpt>
      <trkpt lat="48.84719" lon="2.25169">
        <ele>38.9536</ele>
        <time>2026-07-19T12:53:15.728Z</time>
      </trkpt>
      <trkpt lat="48.84721" lon="2.25173">
        <ele>38.97989</ele>
        <time>2026-07-19T12:53:18.728Z</time>
      </trkpt>
      <trkpt lat="48.84724" lon="2.25175">
        <ele>39.00615</ele>
        <time>2026-07-19T12:53:21.728Z</time>
      </trkpt>
      <trkpt lat="48.84726" lon="2.25178">
        <ele>39.02945</ele>
        <time>2026-07-19T12:53:24.728Z</time>
      </trkpt>
      <trkpt lat="48.84726" lon="2.25181">
        <ele>39.05063</ele>
        <time>2026-07-19T12:53:26.728Z</time>
      </trkpt>
      <trkpt lat="48.84726" lon="2.25185">
        <ele>39.07972</ele>
        <time>2026-07-19T12:53:28.728Z</time>
      </trkpt>
      <trkpt lat="48.84726" lon="2.25188">
        <ele>39.11532</ele>
        <time>2026-07-19T12:53:30.728Z</time>
      </trkpt>
      <trkpt lat="48.84725" lon="2.25192">
        <ele>39.14639</ele>
        <time>2026-07-19T12:53:32.728Z</time>
      </trkpt>
      <trkpt lat="48.84725" lon="2.25196">
        <ele>39.18418</ele>
        <time>2026-07-19T12:53:35.728Z</time>
      </trkpt>
      <trkpt lat="48.84724" lon="2.252">
        <ele>39.20462</ele>
        <time>2026-07-19T12:53:38.728Z</time>
      </trkpt>
      <trkpt lat="48.84725" lon="2.25204">
        <ele>39.21511</ele>
        <time>2026-07-19T12:53:41.728Z</time>
      </trkpt>
      <trkpt lat="48.84725" lon="2.25208">
        <ele>39.22057</ele>
        <time>2026-07-19T12:53:45.728Z</time>
      </trkpt>
      <trkpt lat="48.84729" lon="2.25207">
        <ele>39.19281</ele>
        <time>2026-07-19T12:54:02.728Z</time>
      </trkpt>
      <trkpt lat="48.84731" lon="2.25209">
        <ele>39.18654</ele>
        <time>2026-07-19T12:54:06.728Z</time>
      </trkpt>
      <trkpt lat="48.84733" lon="2.25207">
        <ele>39.1866</ele>
        <time>2026-07-19T12:54:10.729Z</time>
      </trkpt>
      <trkpt lat="48.84737" lon="2.25206">
        <ele>39.1903</ele>
        <time>2026-07-19T12:54:12.729Z</time>
      </trkpt>
      <trkpt lat="48.84739" lon="2.25207">
        <ele>39.19435</ele>
        <time>2026-07-19T12:54:14.729Z</time>
      </trkpt>
      <trkpt lat="48.84741" lon="2.25209">
        <ele>39.19613</ele>
        <time>2026-07-19T12:54:16.729Z</time>
      </trkpt>
      <trkpt lat="48.84743" lon="2.25214">
        <ele>39.19815</ele>
        <time>2026-07-19T12:54:19.729Z</time>
      </trkpt>
      <trkpt lat="48.84745" lon="2.25217">
        <ele>39.19616</ele>
        <time>2026-07-19T12:54:22.728Z</time>
      </trkpt>
      <trkpt lat="48.84748" lon="2.25219">
        <ele>39.19247</ele>
        <time>2026-07-19T12:54:26.728Z</time>
      </trkpt>
      <trkpt lat="48.8475" lon="2.25221">
        <ele>39.19051</ele>
        <time>2026-07-19T12:54:31.729Z</time>
      </trkpt>
      <trkpt lat="48.84753" lon="2.25222">
        <ele>39.18932</ele>
        <time>2026-07-19T12:54:35.729Z</time>
      </trkpt>
      <trkpt lat="48.84755" lon="2.25222">
        <ele>39.1899</ele>
        <time>2026-07-19T12:54:37.729Z</time>
      </trkpt>
      <trkpt lat="48.84758" lon="2.25223">
        <ele>39.19613</ele>
        <time>2026-07-19T12:54:39.729Z</time>
      </trkpt>
      <trkpt lat="48.84761" lon="2.25224">
        <ele>39.22399</ele>
        <time>2026-07-19T12:54:41.729Z</time>
      </trkpt>
      <trkpt lat="48.84763" lon="2.25225">
        <ele>39.32975</ele>
        <time>2026-07-19T12:54:44.729Z</time>
      </trkpt>
      <trkpt lat="48.84767" lon="2.25227">
        <ele>39.51493</ele>
        <time>2026-07-19T12:54:47.729Z</time>
      </trkpt>
      <trkpt lat="48.84769" lon="2.25229">
        <ele>39.66249</ele>
        <time>2026-07-19T12:54:49.729Z</time>
      </trkpt>
      <trkpt lat="48.84771" lon="2.2523">
        <ele>39.96275</ele>
        <time>2026-07-19T12:54:53.729Z</time>
      </trkpt>
      <trkpt lat="48.84774" lon="2.25232">
        <ele>40.09875</ele>
        <time>2026-07-19T12:54:55.729Z</time>
      </trkpt>
      <trkpt lat="48.84776" lon="2.25232">
        <ele>40.21686</ele>
        <time>2026-07-19T12:54:57.729Z</time>
      </trkpt>
      <trkpt lat="48.84779" lon="2.25232">
        <ele>40.49975</ele>
        <time>2026-07-19T12:55:01.729Z</time>
      </trkpt>
      <trkpt lat="48.84781" lon="2.25234">
        <ele>40.71861</ele>
        <time>2026-07-19T12:55:04.729Z</time>
      </trkpt>
      <trkpt lat="48.84783" lon="2.25234">
        <ele>40.9718</ele>
        <time>2026-07-19T12:55:11.730Z</time>
      </trkpt>
      <trkpt lat="48.84785" lon="2.25236">
        <ele>41.01464</ele>
        <time>2026-07-19T12:55:13.730Z</time>
      </trkpt>
      <trkpt lat="48.84786" lon="2.25241">
        <ele>41.05214</ele>
        <time>2026-07-19T12:55:16.730Z</time>
      </trkpt>
      <trkpt lat="48.84787" lon="2.25245">
        <ele>41.08383</ele>
        <time>2026-07-19T12:55:19.729Z</time>
      </trkpt>
      <trkpt lat="48.84788" lon="2.25248">
        <ele>41.10875</ele>
        <time>2026-07-19T12:55:22.730Z</time>
      </trkpt>
      <trkpt lat="48.84789" lon="2.25251">
        <ele>41.11037</ele>
        <time>2026-07-19T12:55:24.730Z</time>
      </trkpt>
      <trkpt lat="48.84788" lon="2.25255">
        <ele>41.10227</ele>
        <time>2026-07-19T12:55:27.730Z</time>
      </trkpt>
      <trkpt lat="48.84788" lon="2.2526">
        <ele>41.09686</ele>
        <time>2026-07-19T12:55:30.730Z</time>
      </trkpt>
      <trkpt lat="48.84788" lon="2.25263">
        <ele>41.09122</ele>
        <time>2026-07-19T12:55:32.730Z</time>
      </trkpt>
      <trkpt lat="48.84788" lon="2.25268">
        <ele>41.06331</ele>
        <time>2026-07-19T12:55:36.731Z</time>
      </trkpt>
      <trkpt lat="48.84788" lon="2.25272">
        <ele>41.05074</ele>
        <time>2026-07-19T12:55:38.730Z</time>
      </trkpt>
      <trkpt lat="48.84787" lon="2.25275">
        <ele>41.04234</ele>
        <time>2026-07-19T12:55:40.730Z</time>
      </trkpt>
      <trkpt lat="48.84787" lon="2.2528">
        <ele>41.0382</ele>
        <time>2026-07-19T12:55:42.730Z</time>
      </trkpt>
      <trkpt lat="48.84787" lon="2.25284">
        <ele>41.02697</ele>
        <time>2026-07-19T12:55:45.731Z</time>
      </trkpt>
      <trkpt lat="48.84788" lon="2.25289">
        <ele>40.99859</ele>
        <time>2026-07-19T12:55:48.731Z</time>
      </trkpt>
      <trkpt lat="48.84788" lon="2.25294">
        <ele>40.96784</ele>
        <time>2026-07-19T12:55:51.730Z</time>
      </trkpt>
      <trkpt lat="48.84788" lon="2.25298">
        <ele>40.9537</ele>
        <time>2026-07-19T12:55:53.731Z</time>
      </trkpt>
      <trkpt lat="48.84788" lon="2.25303">
        <ele>40.93376</ele>
        <time>2026-07-19T12:55:56.730Z</time>
      </trkpt>
      <trkpt lat="48.84788" lon="2.25306">
        <ele>40.92987</ele>
        <time>2026-07-19T12:55:58.731Z</time>
      </trkpt>
      <trkpt lat="48.84789" lon="2.25309">
        <ele>40.95678</ele>
        <time>2026-07-19T12:56:23.731Z</time>
      </trkpt>
      <trkpt lat="48.84789" lon="2.25313">
        <ele>40.98128</ele>
        <time>2026-07-19T12:56:25.731Z</time>
      </trkpt>
      <trkpt lat="48.84789" lon="2.25318">
        <ele>41.02981</ele>
        <time>2026-07-19T12:56:28.731Z</time>
      </trkpt>
      <trkpt lat="48.84788" lon="2.25321">
        <ele>41.07092</ele>
        <time>2026-07-19T12:56:30.731Z</time>
      </trkpt>
      <trkpt lat="48.84789" lon="2.25325">
        <ele>41.11904</ele>
        <time>2026-07-19T12:56:32.732Z</time>
      </trkpt>
      <trkpt lat="48.84788" lon="2.25329">
        <ele>41.19054</ele>
        <time>2026-07-19T12:56:35.731Z</time>
      </trkpt>
      <trkpt lat="48.84789" lon="2.25333">
        <ele>41.2715</ele>
        <time>2026-07-19T12:56:38.731Z</time>
      </trkpt>
      <trkpt lat="48.84789" lon="2.25338">
        <ele>41.34186</ele>
        <time>2026-07-19T12:56:40.731Z</time>
      </trkpt>
      <trkpt lat="48.84789" lon="2.25342">
        <ele>41.47377</ele>
        <time>2026-07-19T12:56:43.731Z</time>
      </trkpt>
      <trkpt lat="48.84789" lon="2.25347">
        <ele>41.60974</ele>
        <time>2026-07-19T12:56:46.732Z</time>
      </trkpt>
      <trkpt lat="48.84789" lon="2.25351">
        <ele>41.69672</ele>
        <time>2026-07-19T12:56:48.732Z</time>
      </trkpt>
      <trkpt lat="48.84789" lon="2.25356">
        <ele>41.82899</ele>
        <time>2026-07-19T12:56:51.731Z</time>
      </trkpt>
      <trkpt lat="48.84788" lon="2.2536">
        <ele>41.90175</ele>
        <time>2026-07-19T12:56:53.732Z</time>
      </trkpt>
      <trkpt lat="48.84788" lon="2.25363">
        <ele>41.94897</ele>
        <time>2026-07-19T12:56:55.732Z</time>
      </trkpt>
      <trkpt lat="48.84788" lon="2.25367">
        <ele>41.98383</ele>
        <time>2026-07-19T12:56:58.732Z</time>
      </trkpt>
      <trkpt lat="48.84789" lon="2.25372">
        <ele>41.99405</ele>
        <time>2026-07-19T12:57:00.732Z</time>
      </trkpt>
      <trkpt lat="48.84788" lon="2.25375">
        <ele>42.01</ele>
        <time>2026-07-19T12:57:03.732Z</time>
      </trkpt>
      <trkpt lat="48.84788" lon="2.25379">
        <ele>42.01438</ele>
        <time>2026-07-19T12:57:05.731Z</time>
      </trkpt>
      <trkpt lat="48.84788" lon="2.25384">
        <ele>42.00761</ele>
        <time>2026-07-19T12:57:08.732Z</time>
      </trkpt>
      <trkpt lat="48.84788" lon="2.25389">
        <ele>42.00672</ele>
        <time>2026-07-19T12:57:11.732Z</time>
      </trkpt>
      <trkpt lat="48.84789" lon="2.25393">
        <ele>41.99912</ele>
        <time>2026-07-19T12:57:13.732Z</time>
      </trkpt>
      <trkpt lat="48.84788" lon="2.25397">
        <ele>41.98632</ele>
        <time>2026-07-19T12:57:15.732Z</time>
      </trkpt>
      <trkpt lat="48.84788" lon="2.254">
        <ele>41.97256</ele>
        <time>2026-07-19T12:57:17.732Z</time>
      </trkpt>
      <trkpt lat="48.84789" lon="2.25404">
        <ele>41.96188</ele>
        <time>2026-07-19T12:57:19.732Z</time>
      </trkpt>
      <trkpt lat="48.84788" lon="2.25407">
        <ele>41.95847</ele>
        <time>2026-07-19T12:57:21.732Z</time>
      </trkpt>
      <trkpt lat="48.84787" lon="2.25411">
        <ele>41.95669</ele>
        <time>2026-07-19T12:57:23.732Z</time>
      </trkpt>
      <trkpt lat="48.84788" lon="2.25415">
        <ele>41.9584</ele>
        <time>2026-07-19T12:57:26.732Z</time>
      </trkpt>
      <trkpt lat="48.84788" lon="2.25419">
        <ele>41.96503</ele>
        <time>2026-07-19T12:57:28.733Z</time>
      </trkpt>
      <trkpt lat="48.84787" lon="2.25422">
        <ele>41.97269</ele>
        <time>2026-07-19T12:57:30.732Z</time>
      </trkpt>
      <trkpt lat="48.84784" lon="2.25424">
        <ele>41.98913</ele>
        <time>2026-07-19T12:57:33.733Z</time>
      </trkpt>
      <trkpt lat="48.84782" lon="2.25427">
        <ele>42.01053</ele>
        <time>2026-07-19T12:57:36.732Z</time>
      </trkpt>
      <trkpt lat="48.84782" lon="2.25431">
        <ele>42.02922</ele>
        <time>2026-07-19T12:57:39.732Z</time>
      </trkpt>
      <trkpt lat="48.84781" lon="2.25435">
        <ele>42.04662</ele>
        <time>2026-07-19T12:57:42.733Z</time>
      </trkpt>
      <trkpt lat="48.84781" lon="2.25439">
        <ele>42.05771</ele>
        <time>2026-07-19T12:57:44.733Z</time>
      </trkpt>
      <trkpt lat="48.8478" lon="2.25443">
        <ele>42.0637</ele>
        <time>2026-07-19T12:57:46.733Z</time>
      </trkpt>
      <trkpt lat="48.8478" lon="2.25446">
        <ele>42.06626</ele>
        <time>2026-07-19T12:57:48.732Z</time>
      </trkpt>
      <trkpt lat="48.8478" lon="2.25451">
        <ele>42.06569</ele>
        <time>2026-07-19T12:57:51.732Z</time>
      </trkpt>
      <trkpt lat="48.84779" lon="2.25455">
        <ele>42.06378</ele>
        <time>2026-07-19T12:57:53.733Z</time>
      </trkpt>
      <trkpt lat="48.84779" lon="2.25459">
        <ele>42.06302</ele>
        <time>2026-07-19T12:57:55.733Z</time>
      </trkpt>
      <trkpt lat="48.84778" lon="2.25463">
        <ele>42.06794</ele>
        <time>2026-07-19T12:57:58.733Z</time>
      </trkpt>
      <trkpt lat="48.84778" lon="2.25468">
        <ele>42.0709</ele>
        <time>2026-07-19T12:58:00.733Z</time>
      </trkpt>
      <trkpt lat="48.84778" lon="2.25471">
        <ele>42.07163</ele>
        <time>2026-07-19T12:58:02.733Z</time>
      </trkpt>
      <trkpt lat="48.84778" lon="2.25475">
        <ele>42.07237</ele>
        <time>2026-07-19T12:58:04.733Z</time>
      </trkpt>
      <trkpt lat="48.84779" lon="2.2548">
        <ele>42.07158</ele>
        <time>2026-07-19T12:58:07.733Z</time>
      </trkpt>
      <trkpt lat="48.84779" lon="2.25485">
        <ele>42.07264</ele>
        <time>2026-07-19T12:58:10.733Z</time>
      </trkpt>
      <trkpt lat="48.8478" lon="2.25488">
        <ele>42.07599</ele>
        <time>2026-07-19T12:58:13.733Z</time>
      </trkpt>
      <trkpt lat="48.8478" lon="2.25492">
        <ele>42.07877</ele>
        <time>2026-07-19T12:58:15.733Z</time>
      </trkpt>
      <trkpt lat="48.8478" lon="2.25496">
        <ele>42.08291</ele>
        <time>2026-07-19T12:58:17.734Z</time>
      </trkpt>
      <trkpt lat="48.8478" lon="2.255">
        <ele>42.08779</ele>
        <time>2026-07-19T12:58:20.733Z</time>
      </trkpt>
      <trkpt lat="48.84779" lon="2.25505">
        <ele>42.09078</ele>
        <time>2026-07-19T12:58:22.733Z</time>
      </trkpt>
      <trkpt lat="48.8478" lon="2.25508">
        <ele>42.09484</ele>
        <time>2026-07-19T12:58:24.733Z</time>
      </trkpt>
      <trkpt lat="48.84779" lon="2.25512">
        <ele>42.09517</ele>
        <time>2026-07-19T12:58:27.734Z</time>
      </trkpt>
      <trkpt lat="48.84779" lon="2.25516">
        <ele>42.09489</ele>
        <time>2026-07-19T12:58:29.733Z</time>
      </trkpt>
      <trkpt lat="48.84778" lon="2.2552">
        <ele>42.09389</ele>
        <time>2026-07-19T12:58:34.734Z</time>
      </trkpt>
      <trkpt lat="48.84778" lon="2.25525">
        <ele>42.091</ele>
        <time>2026-07-19T12:58:36.734Z</time>
      </trkpt>
      <trkpt lat="48.84778" lon="2.25529">
        <ele>42.08777</ele>
        <time>2026-07-19T12:58:38.734Z</time>
      </trkpt>
      <trkpt lat="48.84779" lon="2.25532">
        <ele>42.0833</ele>
        <time>2026-07-19T12:58:40.734Z</time>
      </trkpt>
      <trkpt lat="48.84779" lon="2.25537">
        <ele>42.07562</ele>
        <time>2026-07-19T12:58:43.734Z</time>
      </trkpt>
      <trkpt lat="48.84779" lon="2.25541">
        <ele>42.07187</ele>
        <time>2026-07-19T12:58:46.734Z</time>
      </trkpt>
      <trkpt lat="48.84778" lon="2.25545">
        <ele>42.06749</ele>
        <time>2026-07-19T12:58:48.734Z</time>
      </trkpt>
      <trkpt lat="48.84779" lon="2.2555">
        <ele>42.06315</ele>
        <time>2026-07-19T12:58:50.735Z</time>
      </trkpt>
      <trkpt lat="48.8478" lon="2.25555">
        <ele>42.04646</ele>
        <time>2026-07-19T12:58:54.735Z</time>
      </trkpt>
      <trkpt lat="48.8478" lon="2.2556">
        <ele>42.0361</ele>
        <time>2026-07-19T12:58:56.734Z</time>
      </trkpt>
      <trkpt lat="48.8478" lon="2.25565">
        <ele>42.02031</ele>
        <time>2026-07-19T12:58:59.734Z</time>
      </trkpt>
      <trkpt lat="48.8478" lon="2.25569">
        <ele>42.01441</ele>
        <time>2026-07-19T12:59:01.734Z</time>
      </trkpt>
      <trkpt lat="48.8478" lon="2.25574">
        <ele>42.0078</ele>
        <time>2026-07-19T12:59:04.735Z</time>
      </trkpt>
      <trkpt lat="48.84779" lon="2.25579">
        <ele>42.0013</ele>
        <time>2026-07-19T12:59:07.735Z</time>
      </trkpt>
      <trkpt lat="48.84779" lon="2.25583">
        <ele>41.99479</ele>
        <time>2026-07-19T12:59:09.734Z</time>
      </trkpt>
      <trkpt lat="48.84778" lon="2.25588">
        <ele>41.98905</ele>
        <time>2026-07-19T12:59:11.735Z</time>
      </trkpt>
      <trkpt lat="48.84778" lon="2.25591">
        <ele>41.9853</ele>
        <time>2026-07-19T12:59:13.735Z</time>
      </trkpt>
      <trkpt lat="48.84779" lon="2.25595">
        <ele>41.98622</ele>
        <time>2026-07-19T12:59:16.735Z</time>
      </trkpt>
      <trkpt lat="48.84778" lon="2.256">
        <ele>41.98692</ele>
        <time>2026-07-19T12:59:19.735Z</time>
      </trkpt>
      <trkpt lat="48.84779" lon="2.25604">
        <ele>41.98626</ele>
        <time>2026-07-19T12:59:21.735Z</time>
      </trkpt>
      <trkpt lat="48.84779" lon="2.25608">
        <ele>41.98283</ele>
        <time>2026-07-19T12:59:24.734Z</time>
      </trkpt>
      <trkpt lat="48.84778" lon="2.25613">
        <ele>41.97671</ele>
        <time>2026-07-19T12:59:27.734Z</time>
      </trkpt>
      <trkpt lat="48.84777" lon="2.25616">
        <ele>41.97465</ele>
        <time>2026-07-19T12:59:29.735Z</time>
      </trkpt>
      <trkpt lat="48.84777" lon="2.25622">
        <ele>41.9772</ele>
        <time>2026-07-19T12:59:32.735Z</time>
      </trkpt>
      <trkpt lat="48.84775" lon="2.25625">
        <ele>41.9843</ele>
        <time>2026-07-19T12:59:35.735Z</time>
      </trkpt>
      <trkpt lat="48.84774" lon="2.2563">
        <ele>41.98966</ele>
        <time>2026-07-19T12:59:38.735Z</time>
      </trkpt>
      <trkpt lat="48.84774" lon="2.25634">
        <ele>41.99078</ele>
        <time>2026-07-19T12:59:40.735Z</time>
      </trkpt>
      <trkpt lat="48.84772" lon="2.25636">
        <ele>41.99054</ele>
        <time>2026-07-19T12:59:42.735Z</time>
      </trkpt>
      <trkpt lat="48.84771" lon="2.2564">
        <ele>41.99122</ele>
        <time>2026-07-19T12:59:44.735Z</time>
      </trkpt>
      <trkpt lat="48.84768" lon="2.25643">
        <ele>41.99246</ele>
        <time>2026-07-19T12:59:47.735Z</time>
      </trkpt>
      <trkpt lat="48.84767" lon="2.25646">
        <ele>41.9921</ele>
        <time>2026-07-19T12:59:49.735Z</time>
      </trkpt>
      <trkpt lat="48.84765" lon="2.2565">
        <ele>41.99021</ele>
        <time>2026-07-19T12:59:52.736Z</time>
      </trkpt>
      <trkpt lat="48.84763" lon="2.25653">
        <ele>41.98881</ele>
        <time>2026-07-19T12:59:54.736Z</time>
      </trkpt>
      <trkpt lat="48.84761" lon="2.25655">
        <ele>41.9877</ele>
        <time>2026-07-19T12:59:56.735Z</time>
      </trkpt>
      <trkpt lat="48.84758" lon="2.25656">
        <ele>41.98469</ele>
        <time>2026-07-19T12:59:59.735Z</time>
      </trkpt>
      <trkpt lat="48.84756" lon="2.25657">
        <ele>41.9827</ele>
        <time>2026-07-19T13:00:01.735Z</time>
      </trkpt>
      <trkpt lat="48.84753" lon="2.25659">
        <ele>41.97786</ele>
        <time>2026-07-19T13:00:04.736Z</time>
      </trkpt>
      <trkpt lat="48.8475" lon="2.25661">
        <ele>41.96924</ele>
        <time>2026-07-19T13:00:07.736Z</time>
      </trkpt>
      <trkpt lat="48.84747" lon="2.25662">
        <ele>41.94235</ele>
        <time>2026-07-19T13:00:10.736Z</time>
      </trkpt>
      <trkpt lat="48.84745" lon="2.25664">
        <ele>41.87013</ele>
        <time>2026-07-19T13:00:13.736Z</time>
      </trkpt>
      <trkpt lat="48.84745" lon="2.25668">
        <ele>41.73713</ele>
        <time>2026-07-19T13:00:16.736Z</time>
      </trkpt>
      <trkpt lat="48.84745" lon="2.25672">
        <ele>41.63749</ele>
        <time>2026-07-19T13:00:18.736Z</time>
      </trkpt>
      <trkpt lat="48.84747" lon="2.25675">
        <ele>41.50387</ele>
        <time>2026-07-19T13:00:21.736Z</time>
      </trkpt>
      <trkpt lat="48.84749" lon="2.25677">
        <ele>41.42755</ele>
        <time>2026-07-19T13:00:23.736Z</time>
      </trkpt>
      <trkpt lat="48.84752" lon="2.2568">
        <ele>41.29324</ele>
        <time>2026-07-19T13:00:26.736Z</time>
      </trkpt>
      <trkpt lat="48.84754" lon="2.25682">
        <ele>41.21029</ele>
        <time>2026-07-19T13:00:28.736Z</time>
      </trkpt>
      <trkpt lat="48.84757" lon="2.25684">
        <ele>41.15955</ele>
        <time>2026-07-19T13:00:31.736Z</time>
      </trkpt>
      <trkpt lat="48.84759" lon="2.25686">
        <ele>41.14057</ele>
        <time>2026-07-19T13:00:33.736Z</time>
      </trkpt>
      <trkpt lat="48.84761" lon="2.25689">
        <ele>41.12352</ele>
        <time>2026-07-19T13:00:36.737Z</time>
      </trkpt>
      <trkpt lat="48.84764" lon="2.25692">
        <ele>41.10348</ele>
        <time>2026-07-19T13:00:38.736Z</time>
      </trkpt>
      <trkpt lat="48.84766" lon="2.25696">
        <ele>41.11727</ele>
        <time>2026-07-19T13:00:40.736Z</time>
      </trkpt>
      <trkpt lat="48.84768" lon="2.25697">
        <ele>41.15071</ele>
        <time>2026-07-19T13:00:43.736Z</time>
      </trkpt>
      <trkpt lat="48.8477" lon="2.257">
        <ele>41.18883</ele>
        <time>2026-07-19T13:00:46.736Z</time>
      </trkpt>
      <trkpt lat="48.84773" lon="2.25702">
        <ele>41.25104</ele>
        <time>2026-07-19T13:00:49.737Z</time>
      </trkpt>
      <trkpt lat="48.84775" lon="2.25703">
        <ele>41.31615</ele>
        <time>2026-07-19T13:00:51.736Z</time>
      </trkpt>
      <trkpt lat="48.84778" lon="2.25702">
        <ele>41.38413</ele>
        <time>2026-07-19T13:00:53.737Z</time>
      </trkpt>
      <trkpt lat="48.84781" lon="2.25701">
        <ele>41.47921</ele>
        <time>2026-07-19T13:00:56.736Z</time>
      </trkpt>
      <trkpt lat="48.84783" lon="2.257">
        <ele>41.5691</ele>
        <time>2026-07-19T13:00:59.736Z</time>
      </trkpt>
      <trkpt lat="48.84786" lon="2.257">
        <ele>41.66702</ele>
        <time>2026-07-19T13:01:02.737Z</time>
      </trkpt>
      <trkpt lat="48.84788" lon="2.25698">
        <ele>41.74885</ele>
        <time>2026-07-19T13:01:05.737Z</time>
      </trkpt>
      <trkpt lat="48.8479" lon="2.25701">
        <ele>42.03867</ele>
        <time>2026-07-19T13:01:45.738Z</time>
      </trkpt>
      <trkpt lat="48.84793" lon="2.25701">
        <ele>42.06847</ele>
        <time>2026-07-19T13:01:48.738Z</time>
      </trkpt>
      <trkpt lat="48.84796" lon="2.25702">
        <ele>42.08486</ele>
        <time>2026-07-19T13:01:50.738Z</time>
      </trkpt>
      <trkpt lat="48.84798" lon="2.25702">
        <ele>42.09815</ele>
        <time>2026-07-19T13:01:52.738Z</time>
      </trkpt>
      <trkpt lat="48.84801" lon="2.25702">
        <ele>42.10933</ele>
        <time>2026-07-19T13:01:54.738Z</time>
      </trkpt>
      <trkpt lat="48.84804" lon="2.25703">
        <ele>42.12568</ele>
        <time>2026-07-19T13:01:57.738Z</time>
      </trkpt>
      <trkpt lat="48.84806" lon="2.25703">
        <ele>42.15162</ele>
        <time>2026-07-19T13:02:01.738Z</time>
      </trkpt>
      <trkpt lat="48.8481" lon="2.25704">
        <ele>42.18074</ele>
        <time>2026-07-19T13:02:04.738Z</time>
      </trkpt>
      <trkpt lat="48.84813" lon="2.25704">
        <ele>42.20929</ele>
        <time>2026-07-19T13:02:06.738Z</time>
      </trkpt>
      <trkpt lat="48.84816" lon="2.25704">
        <ele>42.23308</ele>
        <time>2026-07-19T13:02:08.738Z</time>
      </trkpt>
      <trkpt lat="48.84819" lon="2.25704">
        <ele>42.25923</ele>
        <time>2026-07-19T13:02:11.738Z</time>
      </trkpt>
      <trkpt lat="48.84822" lon="2.25704">
        <ele>42.27649</ele>
        <time>2026-07-19T13:02:14.738Z</time>
      </trkpt>
      <trkpt lat="48.84824" lon="2.25704">
        <ele>42.28589</ele>
        <time>2026-07-19T13:02:16.738Z</time>
      </trkpt>
      <trkpt lat="48.84828" lon="2.25704">
        <ele>42.30117</ele>
        <time>2026-07-19T13:02:19.739Z</time>
      </trkpt>
      <trkpt lat="48.8483" lon="2.25704">
        <ele>42.31051</ele>
        <time>2026-07-19T13:02:21.738Z</time>
      </trkpt>
      <trkpt lat="48.84833" lon="2.25703">
        <ele>42.32865</ele>
        <time>2026-07-19T13:02:24.738Z</time>
      </trkpt>
      <trkpt lat="48.84831" lon="2.25702">
        <ele>42.38487</ele>
        <time>2026-07-19T13:02:32.739Z</time>
      </trkpt>
      <trkpt lat="48.8483" lon="2.25698">
        <ele>42.39971</ele>
        <time>2026-07-19T13:02:35.738Z</time>
      </trkpt>
      <trkpt lat="48.84829" lon="2.25693">
        <ele>42.4105</ele>
        <time>2026-07-19T13:02:38.738Z</time>
      </trkpt>
      <trkpt lat="48.84829" lon="2.25688">
        <ele>42.41708</ele>
        <time>2026-07-19T13:02:41.739Z</time>
      </trkpt>
      <trkpt lat="48.84829" lon="2.25684">
        <ele>42.42261</ele>
        <time>2026-07-19T13:02:44.739Z</time>
      </trkpt>
      <trkpt lat="48.8483" lon="2.2568">
        <ele>42.42618</ele>
        <time>2026-07-19T13:02:47.739Z</time>
      </trkpt>
      <trkpt lat="48.84832" lon="2.25676">
        <ele>42.42736</ele>
        <time>2026-07-19T13:02:50.739Z</time>
      </trkpt>
      <trkpt lat="48.84833" lon="2.25671">
        <ele>42.42662</ele>
        <time>2026-07-19T13:02:53.739Z</time>
      </trkpt>
      <trkpt lat="48.84834" lon="2.25667">
        <ele>42.42525</ele>
        <time>2026-07-19T13:02:56.740Z</time>
      </trkpt>
      <trkpt lat="48.84834" lon="2.25663">
        <ele>42.42403</ele>
        <time>2026-07-19T13:02:59.739Z</time>
      </trkpt>
      <trkpt lat="48.84835" lon="2.25659">
        <ele>42.42224</ele>
        <time>2026-07-19T13:03:01.739Z</time>
      </trkpt>
      <trkpt lat="48.84835" lon="2.25655">
        <ele>42.42053</ele>
        <time>2026-07-19T13:03:03.739Z</time>
      </trkpt>
      <trkpt lat="48.84834" lon="2.2565">
        <ele>42.41903</ele>
        <time>2026-07-19T13:03:05.740Z</time>
      </trkpt>
      <trkpt lat="48.84834" lon="2.25646">
        <ele>42.41683</ele>
        <time>2026-07-19T13:03:08.739Z</time>
      </trkpt>
      <trkpt lat="48.84834" lon="2.25642">
        <ele>42.41556</ele>
        <time>2026-07-19T13:03:10.740Z</time>
      </trkpt>
      <trkpt lat="48.84834" lon="2.25638">
        <ele>42.41419</ele>
        <time>2026-07-19T13:03:12.739Z</time>
      </trkpt>
      <trkpt lat="48.84834" lon="2.25635">
        <ele>42.41352</ele>
        <time>2026-07-19T13:03:14.740Z</time>
      </trkpt>
      <trkpt lat="48.84834" lon="2.25631">
        <ele>42.41366</ele>
        <time>2026-07-19T13:03:16.740Z</time>
      </trkpt>
      <trkpt lat="48.84834" lon="2.25627">
        <ele>42.41415</ele>
        <time>2026-07-19T13:03:18.740Z</time>
      </trkpt>
      <trkpt lat="48.84834" lon="2.25622">
        <ele>42.4152</ele>
        <time>2026-07-19T13:03:22.740Z</time>
      </trkpt>
      <trkpt lat="48.84834" lon="2.25617">
        <ele>42.41549</ele>
        <time>2026-07-19T13:03:25.740Z</time>
      </trkpt>
      <trkpt lat="48.84834" lon="2.25613">
        <ele>42.41627</ele>
        <time>2026-07-19T13:03:28.739Z</time>
      </trkpt>
      <trkpt lat="48.84833" lon="2.25609">
        <ele>42.41757</ele>
        <time>2026-07-19T13:03:31.740Z</time>
      </trkpt>
      <trkpt lat="48.84833" lon="2.25604">
        <ele>42.41849</ele>
        <time>2026-07-19T13:03:34.739Z</time>
      </trkpt>
      <trkpt lat="48.84833" lon="2.25599">
        <ele>42.41904</ele>
        <time>2026-07-19T13:03:37.740Z</time>
      </trkpt>
      <trkpt lat="48.84833" lon="2.25595">
        <ele>42.41897</ele>
        <time>2026-07-19T13:03:39.740Z</time>
      </trkpt>
      <trkpt lat="48.84833" lon="2.2559">
        <ele>42.41905</ele>
        <time>2026-07-19T13:03:42.740Z</time>
      </trkpt>
      <trkpt lat="48.84833" lon="2.25586">
        <ele>42.41913</ele>
        <time>2026-07-19T13:03:46.740Z</time>
      </trkpt>
      <trkpt lat="48.84834" lon="2.25582">
        <ele>42.4192</ele>
        <time>2026-07-19T13:03:49.740Z</time>
      </trkpt>
      <trkpt lat="48.84834" lon="2.25577">
        <ele>42.41962</ele>
        <time>2026-07-19T13:03:52.740Z</time>
      </trkpt>
      <trkpt lat="48.84835" lon="2.25572">
        <ele>42.41992</ele>
        <time>2026-07-19T13:03:55.740Z</time>
      </trkpt>
      <trkpt lat="48.84835" lon="2.25569">
        <ele>42.41996</ele>
        <time>2026-07-19T13:03:57.740Z</time>
      </trkpt>
      <trkpt lat="48.84836" lon="2.25564">
        <ele>42.42008</ele>
        <time>2026-07-19T13:04:00.740Z</time>
      </trkpt>
      <trkpt lat="48.84837" lon="2.25561">
        <ele>42.42006</ele>
        <time>2026-07-19T13:04:03.741Z</time>
      </trkpt>
      <trkpt lat="48.84838" lon="2.25556">
        <ele>42.42016</ele>
        <time>2026-07-19T13:04:06.740Z</time>
      </trkpt>
      <trkpt lat="48.84839" lon="2.25553">
        <ele>42.41993</ele>
        <time>2026-07-19T13:04:09.741Z</time>
      </trkpt>
      <trkpt lat="48.8484" lon="2.25548">
        <ele>42.4194</ele>
        <time>2026-07-19T13:04:12.741Z</time>
      </trkpt>
      <trkpt lat="48.84841" lon="2.25545">
        <ele>42.41901</ele>
        <time>2026-07-19T13:04:14.740Z</time>
      </trkpt>
      <trkpt lat="48.84842" lon="2.25541">
        <ele>42.41831</ele>
        <time>2026-07-19T13:04:17.742Z</time>
      </trkpt>
      <trkpt lat="48.84844" lon="2.25537">
        <ele>42.41716</ele>
        <time>2026-07-19T13:04:20.740Z</time>
      </trkpt>
      <trkpt lat="48.84844" lon="2.25533">
        <ele>42.41582</ele>
        <time>2026-07-19T13:04:22.741Z</time>
      </trkpt>
      <trkpt lat="48.84846" lon="2.2553">
        <ele>42.41442</ele>
        <time>2026-07-19T13:04:25.741Z</time>
      </trkpt>
      <trkpt lat="48.84847" lon="2.25526">
        <ele>42.41316</ele>
        <time>2026-07-19T13:04:29.741Z</time>
      </trkpt>
      <trkpt lat="48.84848" lon="2.25522">
        <ele>42.41284</ele>
        <time>2026-07-19T13:04:32.741Z</time>
      </trkpt>
      <trkpt lat="48.8485" lon="2.25519">
        <ele>42.412</ele>
        <time>2026-07-19T13:04:35.741Z</time>
      </trkpt>
      <trkpt lat="48.84851" lon="2.25514">
        <ele>42.41156</ele>
        <time>2026-07-19T13:04:38.742Z</time>
      </trkpt>
      <trkpt lat="48.84853" lon="2.2551">
        <ele>42.41119</ele>
        <time>2026-07-19T13:04:41.741Z</time>
      </trkpt>
      <trkpt lat="48.84854" lon="2.25506">
        <ele>42.4111</ele>
        <time>2026-07-19T13:04:44.741Z</time>
      </trkpt>
      <trkpt lat="48.84856" lon="2.25501">
        <ele>42.41114</ele>
        <time>2026-07-19T13:04:47.741Z</time>
      </trkpt>
      <trkpt lat="48.84856" lon="2.25498">
        <ele>42.4113</ele>
        <time>2026-07-19T13:04:49.742Z</time>
      </trkpt>
      <trkpt lat="48.84857" lon="2.25494">
        <ele>42.41159</ele>
        <time>2026-07-19T13:04:52.742Z</time>
      </trkpt>
      <trkpt lat="48.84859" lon="2.2549">
        <ele>42.41203</ele>
        <time>2026-07-19T13:04:54.741Z</time>
      </trkpt>
      <trkpt lat="48.8486" lon="2.25487">
        <ele>42.41294</ele>
        <time>2026-07-19T13:04:56.741Z</time>
      </trkpt>
      <trkpt lat="48.8486" lon="2.25481">
        <ele>42.41449</ele>
        <time>2026-07-19T13:04:59.741Z</time>
      </trkpt>
      <trkpt lat="48.84861" lon="2.25477">
        <ele>42.4164</ele>
        <time>2026-07-19T13:05:01.742Z</time>
      </trkpt>
      <trkpt lat="48.84862" lon="2.25474">
        <ele>42.41783</ele>
        <time>2026-07-19T13:05:03.742Z</time>
      </trkpt>
      <trkpt lat="48.84863" lon="2.2547">
        <ele>42.42002</ele>
        <time>2026-07-19T13:05:05.741Z</time>
      </trkpt>
      <trkpt lat="48.84865" lon="2.25466">
        <ele>42.42587</ele>
        <time>2026-07-19T13:05:08.741Z</time>
      </trkpt>
      <trkpt lat="48.84867" lon="2.25461">
        <ele>42.43823</ele>
        <time>2026-07-19T13:05:11.743Z</time>
      </trkpt>
      <trkpt lat="48.84868" lon="2.25457">
        <ele>42.45844</ele>
        <time>2026-07-19T13:05:14.742Z</time>
      </trkpt>
      <trkpt lat="48.84869" lon="2.25454">
        <ele>42.48086</ele>
        <time>2026-07-19T13:05:16.742Z</time>
      </trkpt>
      <trkpt lat="48.8487" lon="2.2545">
        <ele>42.51403</ele>
        <time>2026-07-19T13:05:18.742Z</time>
      </trkpt>
      <trkpt lat="48.84871" lon="2.25447">
        <ele>42.60579</ele>
        <time>2026-07-19T13:05:21.743Z</time>
      </trkpt>
      <trkpt lat="48.84872" lon="2.25443">
        <ele>42.77867</ele>
        <time>2026-07-19T13:05:25.742Z</time>
      </trkpt>
      <trkpt lat="48.84873" lon="2.25438">
        <ele>42.95642</ele>
        <time>2026-07-19T13:05:28.742Z</time>
      </trkpt>
      <trkpt lat="48.84874" lon="2.25434">
        <ele>43.17545</ele>
        <time>2026-07-19T13:05:31.742Z</time>
      </trkpt>
      <trkpt lat="48.84876" lon="2.2543">
        <ele>43.44022</ele>
        <time>2026-07-19T13:05:34.743Z</time>
      </trkpt>
      <trkpt lat="48.84878" lon="2.25426">
        <ele>43.71995</ele>
        <time>2026-07-19T13:05:37.743Z</time>
      </trkpt>
      <trkpt lat="48.84879" lon="2.25421">
        <ele>43.98869</ele>
        <time>2026-07-19T13:05:40.743Z</time>
      </trkpt>
      <trkpt lat="48.8488" lon="2.25417">
        <ele>44.17029</ele>
        <time>2026-07-19T13:05:42.743Z</time>
      </trkpt>
      <trkpt lat="48.84882" lon="2.25414">
        <ele>44.42784</ele>
        <time>2026-07-19T13:05:45.743Z</time>
      </trkpt>
      <trkpt lat="48.84884" lon="2.2541">
        <ele>44.62505</ele>
        <time>2026-07-19T13:05:48.743Z</time>
      </trkpt>
      <trkpt lat="48.84885" lon="2.25406">
        <ele>44.75421</ele>
        <time>2026-07-19T13:05:50.743Z</time>
      </trkpt>
      <trkpt lat="48.84887" lon="2.25404">
        <ele>44.91199</ele>
        <time>2026-07-19T13:05:53.743Z</time>
      </trkpt>
      <trkpt lat="48.84888" lon="2.25401">
        <ele>45.01163</ele>
        <time>2026-07-19T13:05:55.743Z</time>
      </trkpt>
      <trkpt lat="48.8489" lon="2.25398">
        <ele>45.14334</ele>
        <time>2026-07-19T13:05:58.743Z</time>
      </trkpt>
      <trkpt lat="48.84892" lon="2.25395">
        <ele>45.22668</ele>
        <time>2026-07-19T13:06:00.743Z</time>
      </trkpt>
      <trkpt lat="48.84894" lon="2.25392">
        <ele>45.35326</ele>
        <time>2026-07-19T13:06:03.744Z</time>
      </trkpt>
      <trkpt lat="48.84896" lon="2.25389">
        <ele>45.45555</ele>
        <time>2026-07-19T13:06:05.743Z</time>
      </trkpt>
      <trkpt lat="48.84898" lon="2.25385">
        <ele>45.6183</ele>
        <time>2026-07-19T13:06:08.744Z</time>
      </trkpt>
      <trkpt lat="48.84901" lon="2.25385">
        <ele>45.73357</ele>
        <time>2026-07-19T13:06:10.743Z</time>
      </trkpt>
      <trkpt lat="48.84903" lon="2.25383">
        <ele>45.85272</ele>
        <time>2026-07-19T13:06:12.743Z</time>
      </trkpt>
      <trkpt lat="48.84905" lon="2.25381">
        <ele>45.96221</ele>
        <time>2026-07-19T13:06:14.743Z</time>
      </trkpt>
      <trkpt lat="48.84907" lon="2.25378">
        <ele>46.13479</ele>
        <time>2026-07-19T13:06:17.744Z</time>
      </trkpt>
      <trkpt lat="48.84909" lon="2.25375">
        <ele>46.31252</ele>
        <time>2026-07-19T13:06:20.743Z</time>
      </trkpt>
      <trkpt lat="48.84911" lon="2.25371">
        <ele>46.50194</ele>
        <time>2026-07-19T13:06:23.743Z</time>
      </trkpt>
      <trkpt lat="48.84913" lon="2.25368">
        <ele>46.68318</ele>
        <time>2026-07-19T13:06:26.744Z</time>
      </trkpt>
      <trkpt lat="48.84914" lon="2.25364">
        <ele>46.79886</ele>
        <time>2026-07-19T13:06:28.743Z</time>
      </trkpt>
      <trkpt lat="48.84917" lon="2.25362">
        <ele>46.97629</ele>
        <time>2026-07-19T13:06:31.744Z</time>
      </trkpt>
      <trkpt lat="48.84919" lon="2.25359">
        <ele>47.17431</ele>
        <time>2026-07-19T13:06:34.743Z</time>
      </trkpt>
      <trkpt lat="48.84921" lon="2.25356">
        <ele>47.40256</ele>
        <time>2026-07-19T13:06:37.744Z</time>
      </trkpt>
      <trkpt lat="48.84923" lon="2.25353">
        <ele>47.6401</ele>
        <time>2026-07-19T13:06:40.744Z</time>
      </trkpt>
      <trkpt lat="48.84925" lon="2.25351">
        <ele>47.79569</ele>
        <time>2026-07-19T13:06:42.744Z</time>
      </trkpt>
      <trkpt lat="48.84928" lon="2.25348">
        <ele>48.02861</ele>
        <time>2026-07-19T13:06:45.744Z</time>
      </trkpt>
      <trkpt lat="48.8493" lon="2.25345">
        <ele>48.21229</ele>
        <time>2026-07-19T13:06:48.745Z</time>
      </trkpt>
      <trkpt lat="48.84933" lon="2.25343">
        <ele>48.34623</ele>
        <time>2026-07-19T13:06:51.744Z</time>
      </trkpt>
      <trkpt lat="48.84935" lon="2.2534">
        <ele>48.47234</ele>
        <time>2026-07-19T13:06:54.744Z</time>
      </trkpt>
      <trkpt lat="48.84937" lon="2.25338">
        <ele>48.56143</ele>
        <time>2026-07-19T13:06:56.744Z</time>
      </trkpt>
      <trkpt lat="48.8494" lon="2.25336">
        <ele>48.69552</ele>
        <time>2026-07-19T13:06:59.745Z</time>
      </trkpt>
      <trkpt lat="48.84942" lon="2.25333">
        <ele>48.77929</ele>
        <time>2026-07-19T13:07:01.744Z</time>
      </trkpt>
      <trkpt lat="48.84944" lon="2.25332">
        <ele>48.84277</ele>
        <time>2026-07-19T13:07:03.744Z</time>
      </trkpt>
      <trkpt lat="48.84947" lon="2.2533">
        <ele>48.94005</ele>
        <time>2026-07-19T13:07:06.744Z</time>
      </trkpt>
      <trkpt lat="48.84949" lon="2.2533">
        <ele>48.98377</ele>
        <time>2026-07-19T13:07:08.744Z</time>
      </trkpt>
      <trkpt lat="48.84952" lon="2.25328">
        <ele>49.01181</ele>
        <time>2026-07-19T13:07:10.744Z</time>
      </trkpt>
      <trkpt lat="48.84954" lon="2.25326">
        <ele>49.03658</ele>
        <time>2026-07-19T13:07:12.744Z</time>
      </trkpt>
      <trkpt lat="48.84957" lon="2.25324">
        <ele>49.05331</ele>
        <time>2026-07-19T13:07:15.745Z</time>
      </trkpt>
      <trkpt lat="48.8496" lon="2.25322">
        <ele>49.06906</ele>
        <time>2026-07-19T13:07:18.744Z</time>
      </trkpt>
      <trkpt lat="48.84963" lon="2.2532">
        <ele>49.08802</ele>
        <time>2026-07-19T13:07:21.745Z</time>
      </trkpt>
      <trkpt lat="48.84966" lon="2.25318">
        <ele>49.10423</ele>
        <time>2026-07-19T13:07:24.745Z</time>
      </trkpt>
      <trkpt lat="48.84968" lon="2.25318">
        <ele>49.11403</ele>
        <time>2026-07-19T13:07:28.744Z</time>
      </trkpt>
      <trkpt lat="48.84971" lon="2.25316">
        <ele>49.11855</ele>
        <time>2026-07-19T13:07:31.745Z</time>
      </trkpt>
      <trkpt lat="48.84974" lon="2.25314">
        <ele>49.1197</ele>
        <time>2026-07-19T13:07:34.746Z</time>
      </trkpt>
      <trkpt lat="48.84977" lon="2.25312">
        <ele>49.12332</ele>
        <time>2026-07-19T13:07:37.745Z</time>
      </trkpt>
      <trkpt lat="48.84979" lon="2.25311">
        <ele>49.12761</ele>
        <time>2026-07-19T13:07:39.745Z</time>
      </trkpt>
      <trkpt lat="48.84982" lon="2.25309">
        <ele>49.13407</ele>
        <time>2026-07-19T13:07:41.745Z</time>
      </trkpt>
      <trkpt lat="48.84984" lon="2.25308">
        <ele>49.14467</ele>
        <time>2026-07-19T13:07:43.745Z</time>
      </trkpt>
      <trkpt lat="48.84987" lon="2.25307">
        <ele>49.15775</ele>
        <time>2026-07-19T13:07:46.745Z</time>
      </trkpt>
      <trkpt lat="48.84989" lon="2.25306">
        <ele>49.16509</ele>
        <time>2026-07-19T13:07:48.745Z</time>
      </trkpt>
      <trkpt lat="48.84993" lon="2.25304">
        <ele>49.17691</ele>
        <time>2026-07-19T13:07:51.746Z</time>
      </trkpt>
      <trkpt lat="48.84996" lon="2.25303">
        <ele>49.18379</ele>
        <time>2026-07-19T13:07:54.745Z</time>
      </trkpt>
      <trkpt lat="48.84999" lon="2.25304">
        <ele>49.19142</ele>
        <time>2026-07-19T13:07:56.745Z</time>
      </trkpt>
      <trkpt lat="48.85001" lon="2.25305">
        <ele>49.19484</ele>
        <time>2026-07-19T13:07:58.746Z</time>
      </trkpt>
      <trkpt lat="48.85003" lon="2.25305">
        <ele>49.199</ele>
        <time>2026-07-19T13:08:00.745Z</time>
      </trkpt>
      <trkpt lat="48.85006" lon="2.25305">
        <ele>49.20305</ele>
        <time>2026-07-19T13:08:02.745Z</time>
      </trkpt>
      <trkpt lat="48.85009" lon="2.25305">
        <ele>49.21434</ele>
        <time>2026-07-19T13:08:04.746Z</time>
      </trkpt>
      <trkpt lat="48.85011" lon="2.25304">
        <ele>49.23239</ele>
        <time>2026-07-19T13:08:06.746Z</time>
      </trkpt>
      <trkpt lat="48.85014" lon="2.25304">
        <ele>49.26642</ele>
        <time>2026-07-19T13:08:09.746Z</time>
      </trkpt>
      <trkpt lat="48.85016" lon="2.25305">
        <ele>49.29768</ele>
        <time>2026-07-19T13:08:13.746Z</time>
      </trkpt>
      <trkpt lat="48.85019" lon="2.25303">
        <ele>49.31548</ele>
        <time>2026-07-19T13:08:16.746Z</time>
      </trkpt>
      <trkpt lat="48.85021" lon="2.25302">
        <ele>49.33764</ele>
        <time>2026-07-19T13:08:19.746Z</time>
      </trkpt>
      <trkpt lat="48.85025" lon="2.25301">
        <ele>49.35632</ele>
        <time>2026-07-19T13:08:22.746Z</time>
      </trkpt>
      <trkpt lat="48.85027" lon="2.253">
        <ele>49.37267</ele>
        <time>2026-07-19T13:08:25.746Z</time>
      </trkpt>
      <trkpt lat="48.8503" lon="2.25299">
        <ele>49.39029</ele>
        <time>2026-07-19T13:08:29.746Z</time>
      </trkpt>
      <trkpt lat="48.85033" lon="2.25298">
        <ele>49.39755</ele>
        <time>2026-07-19T13:08:31.746Z</time>
      </trkpt>
      <trkpt lat="48.85036" lon="2.25298">
        <ele>49.4209</ele>
        <time>2026-07-19T13:08:35.747Z</time>
      </trkpt>
      <trkpt lat="48.85038" lon="2.253">
        <ele>49.44306</ele>
        <time>2026-07-19T13:08:38.746Z</time>
      </trkpt>
      <trkpt lat="48.85042" lon="2.25301">
        <ele>49.47446</ele>
        <time>2026-07-19T13:08:41.746Z</time>
      </trkpt>
      <trkpt lat="48.85044" lon="2.25301">
        <ele>49.49656</ele>
        <time>2026-07-19T13:08:43.746Z</time>
      </trkpt>
      <trkpt lat="48.85047" lon="2.25302">
        <ele>49.51919</ele>
        <time>2026-07-19T13:08:45.746Z</time>
      </trkpt>
      <trkpt lat="48.8505" lon="2.25302">
        <ele>49.56753</ele>
        <time>2026-07-19T13:08:48.746Z</time>
      </trkpt>
      <trkpt lat="48.85052" lon="2.25303">
        <ele>49.62366</ele>
        <time>2026-07-19T13:08:51.746Z</time>
      </trkpt>
      <trkpt lat="48.85055" lon="2.25304">
        <ele>49.66832</ele>
        <time>2026-07-19T13:08:54.746Z</time>
      </trkpt>
      <trkpt lat="48.85057" lon="2.25305">
        <ele>49.70664</ele>
        <time>2026-07-19T13:08:57.747Z</time>
      </trkpt>
      <trkpt lat="48.8506" lon="2.25308">
        <ele>49.76437</ele>
        <time>2026-07-19T13:09:00.747Z</time>
      </trkpt>
      <trkpt lat="48.85063" lon="2.25308">
        <ele>49.85523</ele>
        <time>2026-07-19T13:09:03.747Z</time>
      </trkpt>
      <trkpt lat="48.85066" lon="2.25308">
        <ele>49.97731</ele>
        <time>2026-07-19T13:09:06.747Z</time>
      </trkpt>
      <trkpt lat="48.85069" lon="2.2531">
        <ele>50.12846</ele>
        <time>2026-07-19T13:09:09.747Z</time>
      </trkpt>
      <trkpt lat="48.85072" lon="2.25312">
        <ele>50.31145</ele>
        <time>2026-07-19T13:09:12.747Z</time>
      </trkpt>
      <trkpt lat="48.85074" lon="2.25312">
        <ele>50.46155</ele>
        <time>2026-07-19T13:09:14.747Z</time>
      </trkpt>
      <trkpt lat="48.85077" lon="2.25315">
        <ele>50.67452</ele>
        <time>2026-07-19T13:09:17.747Z</time>
      </trkpt>
      <trkpt lat="48.85079" lon="2.25316">
        <ele>50.809</ele>
        <time>2026-07-19T13:09:19.747Z</time>
      </trkpt>
      <trkpt lat="48.85081" lon="2.25318">
        <ele>50.96559</ele>
        <time>2026-07-19T13:09:21.747Z</time>
      </trkpt>
      <trkpt lat="48.85083" lon="2.2532">
        <ele>51.12834</ele>
        <time>2026-07-19T13:09:23.747Z</time>
      </trkpt>
      <trkpt lat="48.85085" lon="2.25322">
        <ele>51.4312</ele>
        <time>2026-07-19T13:09:26.747Z</time>
      </trkpt>
      <trkpt lat="48.85088" lon="2.25323">
        <ele>51.75454</ele>
        <time>2026-07-19T13:09:29.748Z</time>
      </trkpt>
      <trkpt lat="48.85091" lon="2.25323">
        <ele>51.94711</ele>
        <time>2026-07-19T13:09:31.747Z</time>
      </trkpt>
      <trkpt lat="48.85094" lon="2.25325">
        <ele>52.15403</ele>
        <time>2026-07-19T13:09:34.747Z</time>
      </trkpt>
      <trkpt lat="48.85097" lon="2.25327">
        <ele>52.2729</ele>
        <time>2026-07-19T13:09:36.748Z</time>
      </trkpt>
      <trkpt lat="48.851" lon="2.25328">
        <ele>52.47549</ele>
        <time>2026-07-19T13:09:39.748Z</time>
      </trkpt>
      <trkpt lat="48.85102" lon="2.2533">
        <ele>52.62642</ele>
        <time>2026-07-19T13:09:42.747Z</time>
      </trkpt>
      <trkpt lat="48.85104" lon="2.25333">
        <ele>52.77368</ele>
        <time>2026-07-19T13:09:45.748Z</time>
      </trkpt>
      <trkpt lat="48.85106" lon="2.25335">
        <ele>52.899</ele>
        <time>2026-07-19T13:09:49.747Z</time>
      </trkpt>
      <trkpt lat="48.85108" lon="2.25337">
        <ele>52.97635</ele>
        <time>2026-07-19T13:09:55.748Z</time>
      </trkpt>
      <trkpt lat="48.85111" lon="2.25339">
        <ele>53.03151</ele>
        <time>2026-07-19T13:09:57.748Z</time>
      </trkpt>
      <trkpt lat="48.85115" lon="2.25341">
        <ele>53.10577</ele>
        <time>2026-07-19T13:09:59.749Z</time>
      </trkpt>
      <trkpt lat="48.85117" lon="2.25343">
        <ele>53.17917</ele>
        <time>2026-07-19T13:10:01.748Z</time>
      </trkpt>
      <trkpt lat="48.85119" lon="2.25344">
        <ele>53.24704</ele>
        <time>2026-07-19T13:10:03.748Z</time>
      </trkpt>
      <trkpt lat="48.85121" lon="2.25346">
        <ele>53.31863</ele>
        <time>2026-07-19T13:10:06.748Z</time>
      </trkpt>
      <trkpt lat="48.85123" lon="2.25348">
        <ele>53.36471</ele>
        <time>2026-07-19T13:10:09.748Z</time>
      </trkpt>
      <trkpt lat="48.85127" lon="2.2535">
        <ele>53.41447</ele>
        <time>2026-07-19T13:10:12.748Z</time>
      </trkpt>
      <trkpt lat="48.85129" lon="2.25351">
        <ele>53.4378</ele>
        <time>2026-07-19T13:10:13.749Z</time>
      </trkpt>
      <trkpt lat="48.85131" lon="2.25353">
        <ele>53.50294</ele>
        <time>2026-07-19T13:10:15.748Z</time>
      </trkpt>
      <trkpt lat="48.85134" lon="2.25353">
        <ele>53.59484</ele>
        <time>2026-07-19T13:10:18.748Z</time>
      </trkpt>
      <trkpt lat="48.85136" lon="2.25354">
        <ele>53.69609</ele>
        <time>2026-07-19T13:10:21.748Z</time>
      </trkpt>
      <trkpt lat="48.85139" lon="2.25357">
        <ele>53.76731</ele>
        <time>2026-07-19T13:10:23.748Z</time>
      </trkpt>
      <trkpt lat="48.8514" lon="2.2536">
        <ele>53.85935</ele>
        <time>2026-07-19T13:10:26.748Z</time>
      </trkpt>
      <trkpt lat="48.85142" lon="2.25362">
        <ele>53.92816</ele>
        <time>2026-07-19T13:10:28.749Z</time>
      </trkpt>
      <trkpt lat="48.85144" lon="2.25363">
        <ele>54.015</ele>
        <time>2026-07-19T13:10:31.748Z</time>
      </trkpt>
      <trkpt lat="48.85147" lon="2.25365">
        <ele>54.09492</ele>
        <time>2026-07-19T13:10:34.748Z</time>
      </trkpt>
      <trkpt lat="48.85149" lon="2.25366">
        <ele>54.15912</ele>
        <time>2026-07-19T13:10:37.748Z</time>
      </trkpt>
      <trkpt lat="48.85152" lon="2.25369">
        <ele>54.19344</ele>
        <time>2026-07-19T13:10:40.749Z</time>
      </trkpt>
      <trkpt lat="48.85154" lon="2.2537">
        <ele>54.27861</ele>
        <time>2026-07-19T13:10:49.750Z</time>
      </trkpt>
      <trkpt lat="48.85156" lon="2.25373">
        <ele>54.36153</ele>
        <time>2026-07-19T13:10:54.749Z</time>
      </trkpt>
      <trkpt lat="48.85158" lon="2.25376">
        <ele>54.36288</ele>
        <time>2026-07-19T13:10:58.749Z</time>
      </trkpt>
      <trkpt lat="48.85159" lon="2.25379">
        <ele>54.35288</ele>
        <time>2026-07-19T13:11:03.750Z</time>
      </trkpt>
      <trkpt lat="48.85161" lon="2.25382">
        <ele>54.32828</ele>
        <time>2026-07-19T13:11:06.749Z</time>
      </trkpt>
      <trkpt lat="48.85163" lon="2.25385">
        <ele>54.23876</ele>
        <time>2026-07-19T13:11:09.751Z</time>
      </trkpt>
      <trkpt lat="48.85165" lon="2.25388">
        <ele>54.10976</ele>
        <time>2026-07-19T13:11:11.750Z</time>
      </trkpt>
      <trkpt lat="48.85167" lon="2.2539">
        <ele>53.92678</ele>
        <time>2026-07-19T13:11:13.750Z</time>
      </trkpt>
      <trkpt lat="48.85171" lon="2.25393">
        <ele>53.68514</ele>
        <time>2026-07-19T13:11:15.750Z</time>
      </trkpt>
      <trkpt lat="48.85174" lon="2.25395">
        <ele>53.54135</ele>
        <time>2026-07-19T13:11:16.750Z</time>
      </trkpt>
      <trkpt lat="48.85177" lon="2.25397">
        <ele>53.40905</ele>
        <time>2026-07-19T13:11:17.750Z</time>
      </trkpt>
      <trkpt lat="48.8518" lon="2.25399">
        <ele>53.14633</ele>
        <time>2026-07-19T13:11:19.750Z</time>
      </trkpt>
      <trkpt lat="48.85183" lon="2.25401">
        <ele>52.89395</ele>
        <time>2026-07-19T13:11:21.750Z</time>
      </trkpt>
      <trkpt lat="48.85187" lon="2.25404">
        <ele>52.69627</ele>
        <time>2026-07-19T13:11:23.750Z</time>
      </trkpt>
      <trkpt lat="48.8519" lon="2.25405">
        <ele>52.49696</ele>
        <time>2026-07-19T13:11:26.750Z</time>
      </trkpt>
      <trkpt lat="48.85192" lon="2.25407">
        <ele>52.4664</ele>
        <time>2026-07-19T13:11:29.750Z</time>
      </trkpt>
      <trkpt lat="48.85195" lon="2.25409">
        <ele>52.50191</ele>
        <time>2026-07-19T13:11:31.752Z</time>
      </trkpt>
      <trkpt lat="48.85196" lon="2.25412">
        <ele>52.56892</ele>
        <time>2026-07-19T13:11:34.750Z</time>
      </trkpt>
      <trkpt lat="48.85198" lon="2.25415">
        <ele>52.57148</ele>
        <time>2026-07-19T13:11:36.750Z</time>
      </trkpt>
      <trkpt lat="48.852" lon="2.25417">
        <ele>52.59242</ele>
        <time>2026-07-19T13:11:39.750Z</time>
      </trkpt>
      <trkpt lat="48.85202" lon="2.25419">
        <ele>52.61246</ele>
        <time>2026-07-19T13:11:41.750Z</time>
      </trkpt>
      <trkpt lat="48.85204" lon="2.25419">
        <ele>52.63086</ele>
        <time>2026-07-19T13:11:43.750Z</time>
      </trkpt>
      <trkpt lat="48.85207" lon="2.25421">
        <ele>52.64836</ele>
        <time>2026-07-19T13:11:46.751Z</time>
      </trkpt>
      <trkpt lat="48.85209" lon="2.25424">
        <ele>52.65593</ele>
        <time>2026-07-19T13:11:48.751Z</time>
      </trkpt>
      <trkpt lat="48.85212" lon="2.25427">
        <ele>52.67254</ele>
        <time>2026-07-19T13:11:50.750Z</time>
      </trkpt>
      <trkpt lat="48.85214" lon="2.25427">
        <ele>52.70201</ele>
        <time>2026-07-19T13:11:53.751Z</time>
      </trkpt>
      <trkpt lat="48.85217" lon="2.25429">
        <ele>52.7445</ele>
        <time>2026-07-19T13:11:57.751Z</time>
      </trkpt>
      <trkpt lat="48.85219" lon="2.25431">
        <ele>52.77198</ele>
        <time>2026-07-19T13:11:59.750Z</time>
      </trkpt>
      <trkpt lat="48.85222" lon="2.25432">
        <ele>52.79147</ele>
        <time>2026-07-19T13:12:01.751Z</time>
      </trkpt>
      <trkpt lat="48.85224" lon="2.25432">
        <ele>52.81079</ele>
        <time>2026-07-19T13:12:03.751Z</time>
      </trkpt>
      <trkpt lat="48.85227" lon="2.25434">
        <ele>52.81654</ele>
        <time>2026-07-19T13:12:05.751Z</time>
      </trkpt>
      <trkpt lat="48.8523" lon="2.25435">
        <ele>52.81344</ele>
        <time>2026-07-19T13:12:07.751Z</time>
      </trkpt>
      <trkpt lat="48.85232" lon="2.25435">
        <ele>52.80745</ele>
        <time>2026-07-19T13:12:10.751Z</time>
      </trkpt>
      <trkpt lat="48.85236" lon="2.25435">
        <ele>52.81126</ele>
        <time>2026-07-19T13:12:13.751Z</time>
      </trkpt>
      <trkpt lat="48.85238" lon="2.25435">
        <ele>52.81058</ele>
        <time>2026-07-19T13:12:15.751Z</time>
      </trkpt>
      <trkpt lat="48.85242" lon="2.25435">
        <ele>52.81909</ele>
        <time>2026-07-19T13:12:18.751Z</time>
      </trkpt>
      <trkpt lat="48.85245" lon="2.25434">
        <ele>52.83026</ele>
        <time>2026-07-19T13:12:20.751Z</time>
      </trkpt>
      <trkpt lat="48.85248" lon="2.25433">
        <ele>52.85963</ele>
        <time>2026-07-19T13:12:22.751Z</time>
      </trkpt>
      <trkpt lat="48.8525" lon="2.25431">
        <ele>52.91322</ele>
        <time>2026-07-19T13:12:24.751Z</time>
      </trkpt>
      <trkpt lat="48.85253" lon="2.2543">
        <ele>52.99368</ele>
        <time>2026-07-19T13:12:26.751Z</time>
      </trkpt>
      <trkpt lat="48.85256" lon="2.25429">
        <ele>53.12942</ele>
        <time>2026-07-19T13:12:28.752Z</time>
      </trkpt>
      <trkpt lat="48.85259" lon="2.25428">
        <ele>53.45284</ele>
        <time>2026-07-19T13:12:31.751Z</time>
      </trkpt>
      <trkpt lat="48.85262" lon="2.25425">
        <ele>53.94704</ele>
        <time>2026-07-19T13:12:34.751Z</time>
      </trkpt>
      <trkpt lat="48.85265" lon="2.25425">
        <ele>54.493</ele>
        <time>2026-07-19T13:12:37.751Z</time>
      </trkpt>
      <trkpt lat="48.85268" lon="2.25423">
        <ele>55.01871</ele>
        <time>2026-07-19T13:12:40.752Z</time>
      </trkpt>
      <trkpt lat="48.85269" lon="2.2542">
        <ele>55.53804</ele>
        <time>2026-07-19T13:12:44.751Z</time>
      </trkpt>
      <trkpt lat="48.85272" lon="2.25418">
        <ele>55.81549</ele>
        <time>2026-07-19T13:12:47.751Z</time>
      </trkpt>
      <trkpt lat="48.85274" lon="2.25415">
        <ele>55.94799</ele>
        <time>2026-07-19T13:12:49.752Z</time>
      </trkpt>
      <trkpt lat="48.85277" lon="2.25413">
        <ele>56.08956</ele>
        <time>2026-07-19T13:12:52.752Z</time>
      </trkpt>
      <trkpt lat="48.85279" lon="2.25412">
        <ele>56.15148</ele>
        <time>2026-07-19T13:12:54.752Z</time>
      </trkpt>
      <trkpt lat="48.85281" lon="2.2541">
        <ele>56.20926</ele>
        <time>2026-07-19T13:12:56.752Z</time>
      </trkpt>
      <trkpt lat="48.85283" lon="2.25408">
        <ele>56.27655</ele>
        <time>2026-07-19T13:12:58.752Z</time>
      </trkpt>
      <trkpt lat="48.85285" lon="2.25404">
        <ele>56.36448</ele>
        <time>2026-07-19T13:13:01.752Z</time>
      </trkpt>
      <trkpt lat="48.85288" lon="2.25402">
        <ele>56.55217</ele>
        <time>2026-07-19T13:13:05.752Z</time>
      </trkpt>
      <trkpt lat="48.85291" lon="2.25401">
        <ele>56.65108</ele>
        <time>2026-07-19T13:13:07.752Z</time>
      </trkpt>
      <trkpt lat="48.85293" lon="2.25399">
        <ele>56.76799</ele>
        <time>2026-07-19T13:13:09.752Z</time>
      </trkpt>
      <trkpt lat="48.85296" lon="2.25397">
        <ele>56.89999</ele>
        <time>2026-07-19T13:13:12.752Z</time>
      </trkpt>
      <trkpt lat="48.85299" lon="2.25395">
        <ele>56.94672</ele>
        <time>2026-07-19T13:13:14.752Z</time>
      </trkpt>
      <trkpt lat="48.85301" lon="2.25394">
        <ele>57.01209</ele>
        <time>2026-07-19T13:13:17.752Z</time>
      </trkpt>
      <trkpt lat="48.85303" lon="2.25392">
        <ele>57.11913</ele>
        <time>2026-07-19T13:13:20.752Z</time>
      </trkpt>
      <trkpt lat="48.85306" lon="2.2539">
        <ele>57.19362</ele>
        <time>2026-07-19T13:13:23.752Z</time>
      </trkpt>
      <trkpt lat="48.85309" lon="2.25387">
        <ele>57.21936</ele>
        <time>2026-07-19T13:13:26.752Z</time>
      </trkpt>
      <trkpt lat="48.85311" lon="2.25385">
        <ele>57.21359</ele>
        <time>2026-07-19T13:13:28.752Z</time>
      </trkpt>
      <trkpt lat="48.85313" lon="2.25384">
        <ele>57.19639</ele>
        <time>2026-07-19T13:13:30.753Z</time>
      </trkpt>
      <trkpt lat="48.85316" lon="2.25384">
        <ele>57.14589</ele>
        <time>2026-07-19T13:13:33.752Z</time>
      </trkpt>
      <trkpt lat="48.85318" lon="2.25383">
        <ele>57.09699</ele>
        <time>2026-07-19T13:13:35.753Z</time>
      </trkpt>
      <trkpt lat="48.85321" lon="2.25381">
        <ele>56.96369</ele>
        <time>2026-07-19T13:13:38.752Z</time>
      </trkpt>
      <trkpt lat="48.85323" lon="2.2538">
        <ele>56.73007</ele>
        <time>2026-07-19T13:13:41.754Z</time>
      </trkpt>
      <trkpt lat="48.85326" lon="2.25379">
        <ele>56.51211</ele>
        <time>2026-07-19T13:13:43.753Z</time>
      </trkpt>
      <trkpt lat="48.85329" lon="2.25378">
        <ele>56.27701</ele>
        <time>2026-07-19T13:13:45.753Z</time>
      </trkpt>
      <trkpt lat="48.85331" lon="2.25375">
        <ele>55.93916</ele>
        <time>2026-07-19T13:13:48.752Z</time>
      </trkpt>
      <trkpt lat="48.85333" lon="2.25374">
        <ele>55.78299</ele>
        <time>2026-07-19T13:13:50.753Z</time>
      </trkpt>
      <trkpt lat="48.85336" lon="2.25373">
        <ele>55.66362</ele>
        <time>2026-07-19T13:13:52.753Z</time>
      </trkpt>
      <trkpt lat="48.85339" lon="2.25371">
        <ele>55.57494</ele>
        <time>2026-07-19T13:13:55.754Z</time>
      </trkpt>
      <trkpt lat="48.85342" lon="2.25369">
        <ele>55.57392</ele>
        <time>2026-07-19T13:13:57.754Z</time>
      </trkpt>
      <trkpt lat="48.85345" lon="2.25367">
        <ele>55.62005</ele>
        <time>2026-07-19T13:14:00.754Z</time>
      </trkpt>
      <trkpt lat="48.85347" lon="2.25366">
        <ele>55.62693</ele>
        <time>2026-07-19T13:14:03.753Z</time>
      </trkpt>
      <trkpt lat="48.85349" lon="2.25365">
        <ele>55.61016</ele>
        <time>2026-07-19T13:14:06.753Z</time>
      </trkpt>
      <trkpt lat="48.85352" lon="2.25364">
        <ele>55.51602</ele>
        <time>2026-07-19T13:14:10.753Z</time>
      </trkpt>
      <trkpt lat="48.85355" lon="2.25363">
        <ele>55.43169</ele>
        <time>2026-07-19T13:14:13.753Z</time>
      </trkpt>
      <trkpt lat="48.85358" lon="2.25363">
        <ele>55.35261</ele>
        <time>2026-07-19T13:14:16.753Z</time>
      </trkpt>
      <trkpt lat="48.8536" lon="2.25361">
        <ele>55.28841</ele>
        <time>2026-07-19T13:14:19.754Z</time>
      </trkpt>
      <trkpt lat="48.85363" lon="2.25359">
        <ele>55.22277</ele>
        <time>2026-07-19T13:14:22.754Z</time>
      </trkpt>
      <trkpt lat="48.85366" lon="2.25359">
        <ele>55.16166</ele>
        <time>2026-07-19T13:14:25.754Z</time>
      </trkpt>
      <trkpt lat="48.85369" lon="2.25358">
        <ele>55.07838</ele>
        <time>2026-07-19T13:14:29.754Z</time>
      </trkpt>
      <trkpt lat="48.8537" lon="2.25354">
        <ele>55.00692</ele>
        <time>2026-07-19T13:14:32.754Z</time>
      </trkpt>
      <trkpt lat="48.85369" lon="2.25351">
        <ele>54.95871</ele>
        <time>2026-07-19T13:14:34.754Z</time>
      </trkpt>
      <trkpt lat="48.85368" lon="2.25348">
        <ele>54.88418</ele>
        <time>2026-07-19T13:14:36.754Z</time>
      </trkpt>
      <trkpt lat="48.85366" lon="2.25343">
        <ele>54.72619</ele>
        <time>2026-07-19T13:14:39.754Z</time>
      </trkpt>
      <trkpt lat="48.85365" lon="2.2534">
        <ele>54.60338</ele>
        <time>2026-07-19T13:14:41.753Z</time>
      </trkpt>
      <trkpt lat="48.85365" lon="2.25336">
        <ele>54.40631</ele>
        <time>2026-07-19T13:14:44.754Z</time>
      </trkpt>
      <trkpt lat="48.85365" lon="2.25332">
        <ele>54.20821</ele>
        <time>2026-07-19T13:14:47.754Z</time>
      </trkpt>
      <trkpt lat="48.85365" lon="2.25328">
        <ele>54.02101</ele>
        <time>2026-07-19T13:14:50.754Z</time>
      </trkpt>
      <trkpt lat="48.85364" lon="2.25324">
        <ele>53.81861</ele>
        <time>2026-07-19T13:14:53.754Z</time>
      </trkpt>
      <trkpt lat="48.85363" lon="2.25321">
        <ele>53.57604</ele>
        <time>2026-07-19T13:14:56.754Z</time>
      </trkpt>
      <trkpt lat="48.85363" lon="2.25316">
        <ele>53.35963</ele>
        <time>2026-07-19T13:14:59.755Z</time>
      </trkpt>
      <trkpt lat="48.85364" lon="2.25311">
        <ele>53.1922</ele>
        <time>2026-07-19T13:15:02.754Z</time>
      </trkpt>
      <trkpt lat="48.85365" lon="2.25308">
        <ele>53.14411</ele>
        <time>2026-07-19T13:15:04.754Z</time>
      </trkpt>
      <trkpt lat="48.85366" lon="2.25305">
        <ele>53.11112</ele>
        <time>2026-07-19T13:15:06.755Z</time>
      </trkpt>
      <trkpt lat="48.85368" lon="2.25301">
        <ele>53.03329</ele>
        <time>2026-07-19T13:15:09.755Z</time>
      </trkpt>
      <trkpt lat="48.85371" lon="2.253">
        <ele>50.81827</ele>
        <time>2026-07-19T13:17:45.758Z</time>
      </trkpt>
      <trkpt lat="48.85374" lon="2.253">
        <ele>50.79362</ele>
        <time>2026-07-19T13:17:49.758Z</time>
      </trkpt>
      <trkpt lat="48.85377" lon="2.253">
        <ele>50.76842</ele>
        <time>2026-07-19T13:17:52.758Z</time>
      </trkpt>
      <trkpt lat="48.8538" lon="2.25299">
        <ele>50.74309</ele>
        <time>2026-07-19T13:17:55.758Z</time>
      </trkpt>
      <trkpt lat="48.85382" lon="2.253">
        <ele>50.71182</ele>
        <time>2026-07-19T13:17:58.758Z</time>
      </trkpt>
      <trkpt lat="48.85385" lon="2.25301">
        <ele>50.65926</ele>
        <time>2026-07-19T13:18:02.758Z</time>
      </trkpt>
      <trkpt lat="48.85387" lon="2.25303">
        <ele>50.60208</ele>
        <time>2026-07-19T13:18:05.758Z</time>
      </trkpt>
      <trkpt lat="48.85389" lon="2.25306">
        <ele>50.52886</ele>
        <time>2026-07-19T13:18:09.758Z</time>
      </trkpt>
      <trkpt lat="48.85392" lon="2.25309">
        <ele>50.39204</ele>
        <time>2026-07-19T13:18:15.758Z</time>
      </trkpt>
      <trkpt lat="48.85394" lon="2.25311">
        <ele>50.33046</ele>
        <time>2026-07-19T13:18:18.758Z</time>
      </trkpt>
      <trkpt lat="48.85397" lon="2.25313">
        <ele>50.27562</ele>
        <time>2026-07-19T13:18:21.759Z</time>
      </trkpt>
      <trkpt lat="48.85399" lon="2.25316">
        <ele>50.22088</ele>
        <time>2026-07-19T13:18:24.759Z</time>
      </trkpt>
      <trkpt lat="48.85401" lon="2.25319">
        <ele>50.17362</ele>
        <time>2026-07-19T13:18:27.759Z</time>
      </trkpt>
      <trkpt lat="48.85403" lon="2.25321">
        <ele>50.14823</ele>
        <time>2026-07-19T13:18:29.758Z</time>
      </trkpt>
      <trkpt lat="48.85405" lon="2.25323">
        <ele>50.11751</ele>
        <time>2026-07-19T13:18:32.759Z</time>
      </trkpt>
      <trkpt lat="48.85408" lon="2.25325">
        <ele>50.09727</ele>
        <time>2026-07-19T13:18:35.758Z</time>
      </trkpt>
      <trkpt lat="48.85411" lon="2.25327">
        <ele>50.08046</ele>
        <time>2026-07-19T13:18:38.759Z</time>
      </trkpt>
      <trkpt lat="48.85414" lon="2.25328">
        <ele>50.07269</ele>
        <time>2026-07-19T13:18:41.759Z</time>
      </trkpt>
      <trkpt lat="48.85416" lon="2.25329">
        <ele>50.06764</ele>
        <time>2026-07-19T13:18:44.759Z</time>
      </trkpt>
      <trkpt lat="48.85419" lon="2.2533">
        <ele>50.06209</ele>
        <time>2026-07-19T13:18:47.759Z</time>
      </trkpt>
      <trkpt lat="48.85422" lon="2.25331">
        <ele>50.05659</ele>
        <time>2026-07-19T13:18:50.758Z</time>
      </trkpt>
      <trkpt lat="48.85425" lon="2.25333">
        <ele>50.04951</ele>
        <time>2026-07-19T13:18:53.758Z</time>
      </trkpt>
      <trkpt lat="48.85427" lon="2.25335">
        <ele>50.04462</ele>
        <time>2026-07-19T13:18:56.760Z</time>
      </trkpt>
      <trkpt lat="48.8543" lon="2.25336">
        <ele>50.04018</ele>
        <time>2026-07-19T13:18:59.759Z</time>
      </trkpt>
      <trkpt lat="48.85432" lon="2.25339">
        <ele>50.03529</ele>
        <time>2026-07-19T13:19:02.759Z</time>
      </trkpt>
      <trkpt lat="48.85435" lon="2.25343">
        <ele>50.03019</ele>
        <time>2026-07-19T13:19:05.759Z</time>
      </trkpt>
      <trkpt lat="48.85436" lon="2.25347">
        <ele>50.02638</ele>
        <time>2026-07-19T13:19:08.760Z</time>
      </trkpt>
      <trkpt lat="48.85438" lon="2.2535">
        <ele>50.02117</ele>
        <time>2026-07-19T13:19:11.759Z</time>
      </trkpt>
      <trkpt lat="48.8544" lon="2.25353">
        <ele>50.01668</ele>
        <time>2026-07-19T13:19:14.759Z</time>
      </trkpt>
      <trkpt lat="48.85442" lon="2.25357">
        <ele>50.01252</ele>
        <time>2026-07-19T13:19:17.759Z</time>
      </trkpt>
      <trkpt lat="48.85445" lon="2.2536">
        <ele>50.00718</ele>
        <time>2026-07-19T13:19:20.760Z</time>
      </trkpt>
      <trkpt lat="48.85447" lon="2.25362">
        <ele>50.00533</ele>
        <time>2026-07-19T13:19:22.760Z</time>
      </trkpt>
      <trkpt lat="48.85449" lon="2.25363">
        <ele>50.00406</ele>
        <time>2026-07-19T13:19:24.760Z</time>
      </trkpt>
      <trkpt lat="48.85451" lon="2.25366">
        <ele>50.00016</ele>
        <time>2026-07-19T13:19:27.759Z</time>
      </trkpt>
      <trkpt lat="48.85454" lon="2.25369">
        <ele>49.99789</ele>
        <time>2026-07-19T13:19:30.760Z</time>
      </trkpt>
      <trkpt lat="48.85456" lon="2.25372">
        <ele>49.99519</ele>
        <time>2026-07-19T13:19:33.760Z</time>
      </trkpt>
      <trkpt lat="48.85458" lon="2.25375">
        <ele>49.99194</ele>
        <time>2026-07-19T13:19:36.760Z</time>
      </trkpt>
      <trkpt lat="48.85461" lon="2.25377">
        <ele>49.98622</ele>
        <time>2026-07-19T13:19:39.759Z</time>
      </trkpt>
      <trkpt lat="48.85463" lon="2.2538">
        <ele>49.9827</ele>
        <time>2026-07-19T13:19:41.760Z</time>
      </trkpt>
      <trkpt lat="48.85465" lon="2.25382">
        <ele>49.97989</ele>
        <time>2026-07-19T13:19:43.760Z</time>
      </trkpt>
      <trkpt lat="48.85467" lon="2.25385">
        <ele>49.97878</ele>
        <time>2026-07-19T13:19:46.761Z</time>
      </trkpt>
      <trkpt lat="48.85469" lon="2.25389">
        <ele>49.97819</ele>
        <time>2026-07-19T13:19:49.760Z</time>
      </trkpt>
      <trkpt lat="48.85471" lon="2.25393">
        <ele>49.97705</ele>
        <time>2026-07-19T13:19:52.760Z</time>
      </trkpt>
      <trkpt lat="48.85472" lon="2.25396">
        <ele>49.97622</ele>
        <time>2026-07-19T13:19:54.760Z</time>
      </trkpt>
      <trkpt lat="48.85474" lon="2.25399">
        <ele>49.97662</ele>
        <time>2026-07-19T13:19:57.760Z</time>
      </trkpt>
      <trkpt lat="48.85476" lon="2.25401">
        <ele>49.97715</ele>
        <time>2026-07-19T13:20:00.760Z</time>
      </trkpt>
      <trkpt lat="48.85478" lon="2.25404">
        <ele>49.977</ele>
        <time>2026-07-19T13:20:03.760Z</time>
      </trkpt>
      <trkpt lat="48.85481" lon="2.25407">
        <ele>49.97584</ele>
        <time>2026-07-19T13:20:06.761Z</time>
      </trkpt>
      <trkpt lat="48.85482" lon="2.2541">
        <ele>49.97464</ele>
        <time>2026-07-19T13:20:09.760Z</time>
      </trkpt>
      <trkpt lat="48.85484" lon="2.25413">
        <ele>49.97394</ele>
        <time>2026-07-19T13:20:12.761Z</time>
      </trkpt>
      <trkpt lat="48.85486" lon="2.25417">
        <ele>49.97296</ele>
        <time>2026-07-19T13:20:15.761Z</time>
      </trkpt>
      <trkpt lat="48.85487" lon="2.2542">
        <ele>49.9726</ele>
        <time>2026-07-19T13:20:17.760Z</time>
      </trkpt>
      <trkpt lat="48.85489" lon="2.25423">
        <ele>49.9724</ele>
        <time>2026-07-19T13:20:20.761Z</time>
      </trkpt>
      <trkpt lat="48.8549" lon="2.25428">
        <ele>49.97245</ele>
        <time>2026-07-19T13:20:22.761Z</time>
      </trkpt>
      <trkpt lat="48.85492" lon="2.25429">
        <ele>49.97199</ele>
        <time>2026-07-19T13:20:24.761Z</time>
      </trkpt>
      <trkpt lat="48.85494" lon="2.25432">
        <ele>49.97156</ele>
        <time>2026-07-19T13:20:26.761Z</time>
      </trkpt>
      <trkpt lat="48.85496" lon="2.25434">
        <ele>49.97153</ele>
        <time>2026-07-19T13:20:28.761Z</time>
      </trkpt>
      <trkpt lat="48.85498" lon="2.25437">
        <ele>49.9718</ele>
        <time>2026-07-19T13:20:31.761Z</time>
      </trkpt>
      <trkpt lat="48.855" lon="2.2544">
        <ele>49.97253</ele>
        <time>2026-07-19T13:20:34.761Z</time>
      </trkpt>
      <trkpt lat="48.85502" lon="2.25443">
        <ele>49.97401</ele>
        <time>2026-07-19T13:20:37.761Z</time>
      </trkpt>
      <trkpt lat="48.85505" lon="2.25446">
        <ele>49.97478</ele>
        <time>2026-07-19T13:20:39.761Z</time>
      </trkpt>
      <trkpt lat="48.85506" lon="2.25448">
        <ele>49.97683</ele>
        <time>2026-07-19T13:20:41.761Z</time>
      </trkpt>
      <trkpt lat="48.85509" lon="2.25451">
        <ele>49.99528</ele>
        <time>2026-07-19T13:20:44.761Z</time>
      </trkpt>
      <trkpt lat="48.85511" lon="2.25455">
        <ele>50.04015</ele>
        <time>2026-07-19T13:20:48.761Z</time>
      </trkpt>
      <trkpt lat="48.85512" lon="2.2546">
        <ele>50.1156</ele>
        <time>2026-07-19T13:20:51.761Z</time>
      </trkpt>
      <trkpt lat="48.85514" lon="2.25464">
        <ele>50.20882</ele>
        <time>2026-07-19T13:20:54.761Z</time>
      </trkpt>
      <trkpt lat="48.85515" lon="2.25467">
        <ele>50.27847</ele>
        <time>2026-07-19T13:20:56.762Z</time>
      </trkpt>
      <trkpt lat="48.85517" lon="2.25471">
        <ele>50.37039</ele>
        <time>2026-07-19T13:20:59.761Z</time>
      </trkpt>
      <trkpt lat="48.85519" lon="2.25473">
        <ele>50.42557</ele>
        <time>2026-07-19T13:21:01.761Z</time>
      </trkpt>
      <trkpt lat="48.8552" lon="2.25476">
        <ele>50.4837</ele>
        <time>2026-07-19T13:21:03.761Z</time>
      </trkpt>
      <trkpt lat="48.85522" lon="2.2548">
        <ele>50.55701</ele>
        <time>2026-07-19T13:21:06.762Z</time>
      </trkpt>
      <trkpt lat="48.85523" lon="2.25483">
        <ele>50.6093</ele>
        <time>2026-07-19T13:21:09.761Z</time>
      </trkpt>
      <trkpt lat="48.85524" lon="2.25487">
        <ele>50.64355</ele>
        <time>2026-07-19T13:21:12.761Z</time>
      </trkpt>
      <trkpt lat="48.85526" lon="2.2549">
        <ele>50.66867</ele>
        <time>2026-07-19T13:21:14.762Z</time>
      </trkpt>
      <trkpt lat="48.85528" lon="2.25492">
        <ele>50.68933</ele>
        <time>2026-07-19T13:21:16.762Z</time>
      </trkpt>
      <trkpt lat="48.8553" lon="2.25494">
        <ele>50.70562</ele>
        <time>2026-07-19T13:21:18.761Z</time>
      </trkpt>
      <trkpt lat="48.85531" lon="2.25498">
        <ele>50.73242</ele>
        <time>2026-07-19T13:21:21.762Z</time>
      </trkpt>
      <trkpt lat="48.85532" lon="2.25501">
        <ele>50.74733</ele>
        <time>2026-07-19T13:21:23.762Z</time>
      </trkpt>
      <trkpt lat="48.85534" lon="2.25504">
        <ele>50.76329</ele>
        <time>2026-07-19T13:21:25.762Z</time>
      </trkpt>
      <trkpt lat="48.85536" lon="2.25507">
        <ele>50.78702</ele>
        <time>2026-07-19T13:21:28.762Z</time>
      </trkpt>
      <trkpt lat="48.85538" lon="2.25509">
        <ele>50.80477</ele>
        <time>2026-07-19T13:21:30.763Z</time>
      </trkpt>
      <trkpt lat="48.8554" lon="2.25512">
        <ele>50.86492</ele>
        <time>2026-07-19T13:21:33.762Z</time>
      </trkpt>
      <trkpt lat="48.85542" lon="2.25515">
        <ele>50.99643</ele>
        <time>2026-07-19T13:21:36.763Z</time>
      </trkpt>
      <trkpt lat="48.85544" lon="2.25519">
        <ele>51.10233</ele>
        <time>2026-07-19T13:21:38.763Z</time>
      </trkpt>
      <trkpt lat="48.85546" lon="2.25522">
        <ele>51.20359</ele>
        <time>2026-07-19T13:21:40.763Z</time>
      </trkpt>
      <trkpt lat="48.85547" lon="2.25524">
        <ele>51.28959</ele>
        <time>2026-07-19T13:21:42.763Z</time>
      </trkpt>
      <trkpt lat="48.8555" lon="2.25527">
        <ele>51.36812</ele>
        <time>2026-07-19T13:21:45.762Z</time>
      </trkpt>
      <trkpt lat="48.85551" lon="2.25531">
        <ele>51.45066</ele>
        <time>2026-07-19T13:21:48.762Z</time>
      </trkpt>
      <trkpt lat="48.85554" lon="2.25532">
        <ele>51.5615</ele>
        <time>2026-07-19T13:21:51.762Z</time>
      </trkpt>
      <trkpt lat="48.85557" lon="2.2553">
        <ele>51.64613</ele>
        <time>2026-07-19T13:21:53.762Z</time>
      </trkpt>
      <trkpt lat="48.85558" lon="2.25534">
        <ele>51.73152</ele>
        <time>2026-07-19T13:21:59.763Z</time>
      </trkpt>
      <trkpt lat="48.85558" lon="2.25538">
        <ele>51.75884</ele>
        <time>2026-07-19T13:22:02.762Z</time>
      </trkpt>
      <trkpt lat="48.85555" lon="2.2554">
        <ele>51.77692</ele>
        <time>2026-07-19T13:22:04.763Z</time>
      </trkpt>
      <trkpt lat="48.85553" lon="2.25543">
        <ele>51.79007</ele>
        <time>2026-07-19T13:22:06.763Z</time>
      </trkpt>
      <trkpt lat="48.85553" lon="2.25547">
        <ele>51.80046</ele>
        <time>2026-07-19T13:22:08.763Z</time>
      </trkpt>
      <trkpt lat="48.85553" lon="2.2555">
        <ele>51.80595</ele>
        <time>2026-07-19T13:22:11.763Z</time>
      </trkpt>
      <trkpt lat="48.85552" lon="2.25555">
        <ele>51.79759</ele>
        <time>2026-07-19T13:22:14.763Z</time>
      </trkpt>
      <trkpt lat="48.85552" lon="2.25559">
        <ele>51.79248</ele>
        <time>2026-07-19T13:22:17.763Z</time>
      </trkpt>
      <trkpt lat="48.85551" lon="2.25563">
        <ele>51.78886</ele>
        <time>2026-07-19T13:22:19.762Z</time>
      </trkpt>
      <trkpt lat="48.85551" lon="2.25567">
        <ele>51.78711</ele>
        <time>2026-07-19T13:22:22.763Z</time>
      </trkpt>
      <trkpt lat="48.85552" lon="2.2557">
        <ele>51.77969</ele>
        <time>2026-07-19T13:22:26.763Z</time>
      </trkpt>
      <trkpt lat="48.85553" lon="2.25575">
        <ele>51.77621</ele>
        <time>2026-07-19T13:22:31.763Z</time>
      </trkpt>
      <trkpt lat="48.85555" lon="2.25574">
        <ele>51.46958</ele>
        <time>2026-07-19T13:23:19.764Z</time>
      </trkpt>
      <trkpt lat="48.85559" lon="2.25576">
        <ele>51.50247</ele>
        <time>2026-07-19T13:23:22.764Z</time>
      </trkpt>
      <trkpt lat="48.85561" lon="2.25578">
        <ele>51.55056</ele>
        <time>2026-07-19T13:23:24.764Z</time>
      </trkpt>
      <trkpt lat="48.85564" lon="2.25579">
        <ele>51.65211</ele>
        <time>2026-07-19T13:23:27.765Z</time>
      </trkpt>
      <trkpt lat="48.85566" lon="2.25581">
        <ele>51.79621</ele>
        <time>2026-07-19T13:23:31.765Z</time>
      </trkpt>
      <trkpt lat="48.85569" lon="2.25583">
        <ele>51.92622</ele>
        <time>2026-07-19T13:23:35.765Z</time>
      </trkpt>
      <trkpt lat="48.85571" lon="2.25583">
        <ele>51.98782</ele>
        <time>2026-07-19T13:23:38.765Z</time>
      </trkpt>
      <trkpt lat="48.85573" lon="2.25585">
        <ele>52.00968</ele>
        <time>2026-07-19T13:23:40.764Z</time>
      </trkpt>
      <trkpt lat="48.85576" lon="2.25587">
        <ele>52.04079</ele>
        <time>2026-07-19T13:23:43.764Z</time>
      </trkpt>
      <trkpt lat="48.85578" lon="2.25587">
        <ele>52.05399</ele>
        <time>2026-07-19T13:23:46.765Z</time>
      </trkpt>
      <trkpt lat="48.85581" lon="2.2559">
        <ele>52.07415</ele>
        <time>2026-07-19T13:23:49.765Z</time>
      </trkpt>
      <trkpt lat="48.85584" lon="2.25592">
        <ele>52.09072</ele>
        <time>2026-07-19T13:23:52.764Z</time>
      </trkpt>
      <trkpt lat="48.85586" lon="2.25594">
        <ele>52.10972</ele>
        <time>2026-07-19T13:23:55.765Z</time>
      </trkpt>
      <trkpt lat="48.85588" lon="2.25595">
        <ele>52.12822</ele>
        <time>2026-07-19T13:23:58.765Z</time>
      </trkpt>
      <trkpt lat="48.85591" lon="2.25596">
        <ele>52.14591</ele>
        <time>2026-07-19T13:24:01.765Z</time>
      </trkpt>
      <trkpt lat="48.85594" lon="2.25598">
        <ele>52.1556</ele>
        <time>2026-07-19T13:24:04.766Z</time>
      </trkpt>
      <trkpt lat="48.85596" lon="2.25599">
        <ele>52.17061</ele>
        <time>2026-07-19T13:24:07.765Z</time>
      </trkpt>
      <trkpt lat="48.85599" lon="2.256">
        <ele>52.17911</ele>
        <time>2026-07-19T13:24:09.765Z</time>
      </trkpt>
      <trkpt lat="48.85601" lon="2.25602">
        <ele>52.18658</ele>
        <time>2026-07-19T13:24:11.765Z</time>
      </trkpt>
      <trkpt lat="48.85604" lon="2.25604">
        <ele>52.19003</ele>
        <time>2026-07-19T13:24:13.766Z</time>
      </trkpt>
      <trkpt lat="48.85606" lon="2.25606">
        <ele>52.19404</ele>
        <time>2026-07-19T13:24:16.765Z</time>
      </trkpt>
      <trkpt lat="48.85609" lon="2.25608">
        <ele>52.19184</ele>
        <time>2026-07-19T13:24:19.766Z</time>
      </trkpt>
      <trkpt lat="48.85612" lon="2.25609">
        <ele>52.1742</ele>
        <time>2026-07-19T13:24:22.766Z</time>
      </trkpt>
      <trkpt lat="48.85614" lon="2.2561">
        <ele>52.15488</ele>
        <time>2026-07-19T13:24:24.766Z</time>
      </trkpt>
      <trkpt lat="48.85616" lon="2.25612">
        <ele>52.12139</ele>
        <time>2026-07-19T13:24:26.766Z</time>
      </trkpt>
      <trkpt lat="48.85619" lon="2.25614">
        <ele>52.08159</ele>
        <time>2026-07-19T13:24:29.766Z</time>
      </trkpt>
      <trkpt lat="48.85621" lon="2.25616">
        <ele>52.05961</ele>
        <time>2026-07-19T13:24:31.766Z</time>
      </trkpt>
      <trkpt lat="48.85624" lon="2.25618">
        <ele>52.04167</ele>
        <time>2026-07-19T13:24:34.765Z</time>
      </trkpt>
      <trkpt lat="48.85626" lon="2.2562">
        <ele>52.02677</ele>
        <time>2026-07-19T13:24:37.766Z</time>
      </trkpt>
      <trkpt lat="48.85629" lon="2.25623">
        <ele>52.01451</ele>
        <time>2026-07-19T13:24:40.765Z</time>
      </trkpt>
      <trkpt lat="48.85631" lon="2.25623">
        <ele>52.00756</ele>
        <time>2026-07-19T13:24:42.766Z</time>
      </trkpt>
      <trkpt lat="48.85634" lon="2.25624">
        <ele>51.99467</ele>
        <time>2026-07-19T13:24:45.766Z</time>
      </trkpt>
      <trkpt lat="48.85636" lon="2.25625">
        <ele>51.9843</ele>
        <time>2026-07-19T13:24:47.767Z</time>
      </trkpt>
      <trkpt lat="48.85639" lon="2.25625">
        <ele>51.97376</ele>
        <time>2026-07-19T13:24:49.766Z</time>
      </trkpt>
      <trkpt lat="48.85642" lon="2.25627">
        <ele>51.96756</ele>
        <time>2026-07-19T13:24:52.766Z</time>
      </trkpt>
      <trkpt lat="48.85644" lon="2.25629">
        <ele>51.96569</ele>
        <time>2026-07-19T13:24:54.766Z</time>
      </trkpt>
      <trkpt lat="48.85647" lon="2.2563">
        <ele>51.96265</ele>
        <time>2026-07-19T13:24:57.767Z</time>
      </trkpt>
      <trkpt lat="48.8565" lon="2.25632">
        <ele>51.96387</ele>
        <time>2026-07-19T13:25:00.766Z</time>
      </trkpt>
      <trkpt lat="48.85652" lon="2.25633">
        <ele>51.96547</ele>
        <time>2026-07-19T13:25:03.767Z</time>
      </trkpt>
      <trkpt lat="48.85655" lon="2.25634">
        <ele>51.95477</ele>
        <time>2026-07-19T13:25:07.767Z</time>
      </trkpt>
      <trkpt lat="48.85659" lon="2.25635">
        <ele>51.94102</ele>
        <time>2026-07-19T13:25:10.766Z</time>
      </trkpt>
      <trkpt lat="48.85662" lon="2.25636">
        <ele>51.9197</ele>
        <time>2026-07-19T13:25:13.766Z</time>
      </trkpt>
      <trkpt lat="48.85665" lon="2.25636">
        <ele>51.90449</ele>
        <time>2026-07-19T13:25:15.767Z</time>
      </trkpt>
      <trkpt lat="48.85667" lon="2.25637">
        <ele>51.89108</ele>
        <time>2026-07-19T13:25:17.766Z</time>
      </trkpt>
      <trkpt lat="48.8567" lon="2.25637">
        <ele>51.8814</ele>
        <time>2026-07-19T13:25:19.766Z</time>
      </trkpt>
      <trkpt lat="48.85673" lon="2.25638">
        <ele>51.865</ele>
        <time>2026-07-19T13:25:22.767Z</time>
      </trkpt>
      <trkpt lat="48.85675" lon="2.25639">
        <ele>51.86048</ele>
        <time>2026-07-19T13:25:24.767Z</time>
      </trkpt>
      <trkpt lat="48.85678" lon="2.25639">
        <ele>51.8583</ele>
        <time>2026-07-19T13:25:27.767Z</time>
      </trkpt>
      <trkpt lat="48.85681" lon="2.25641">
        <ele>51.85214</ele>
        <time>2026-07-19T13:25:30.767Z</time>
      </trkpt>
      <trkpt lat="48.85684" lon="2.25641">
        <ele>51.84314</ele>
        <time>2026-07-19T13:25:32.767Z</time>
      </trkpt>
      <trkpt lat="48.85686" lon="2.2564">
        <ele>51.83589</ele>
        <time>2026-07-19T13:25:34.767Z</time>
      </trkpt>
      <trkpt lat="48.85689" lon="2.25641">
        <ele>51.82527</ele>
        <time>2026-07-19T13:25:37.767Z</time>
      </trkpt>
      <trkpt lat="48.85692" lon="2.25641">
        <ele>51.81676</ele>
        <time>2026-07-19T13:25:39.767Z</time>
      </trkpt>
      <trkpt lat="48.85694" lon="2.25642">
        <ele>51.80805</ele>
        <time>2026-07-19T13:25:41.767Z</time>
      </trkpt>
      <trkpt lat="48.85696" lon="2.25641">
        <ele>51.79986</ele>
        <time>2026-07-19T13:25:43.767Z</time>
      </trkpt>
      <trkpt lat="48.85699" lon="2.2564">
        <ele>51.79623</ele>
        <time>2026-07-19T13:25:45.768Z</time>
      </trkpt>
      <trkpt lat="48.85702" lon="2.25641">
        <ele>51.80114</ele>
        <time>2026-07-19T13:25:48.768Z</time>
      </trkpt>
      <trkpt lat="48.85705" lon="2.25642">
        <ele>51.81203</ele>
        <time>2026-07-19T13:25:50.767Z</time>
      </trkpt>
      <trkpt lat="48.85708" lon="2.25641">
        <ele>51.82464</ele>
        <time>2026-07-19T13:25:52.768Z</time>
      </trkpt>
      <trkpt lat="48.85711" lon="2.25642">
        <ele>51.8433</ele>
        <time>2026-07-19T13:25:55.767Z</time>
      </trkpt>
      <trkpt lat="48.85713" lon="2.25643">
        <ele>51.85544</ele>
        <time>2026-07-19T13:25:57.767Z</time>
      </trkpt>
      <trkpt lat="48.85716" lon="2.25643">
        <ele>51.86588</ele>
        <time>2026-07-19T13:25:59.768Z</time>
      </trkpt>
      <trkpt lat="48.85718" lon="2.25642">
        <ele>51.87495</ele>
        <time>2026-07-19T13:26:03.767Z</time>
      </trkpt>
      <trkpt lat="48.85721" lon="2.25641">
        <ele>51.86901</ele>
        <time>2026-07-19T13:26:05.768Z</time>
      </trkpt>
      <trkpt lat="48.85723" lon="2.25642">
        <ele>51.86174</ele>
        <time>2026-07-19T13:26:07.768Z</time>
      </trkpt>
      <trkpt lat="48.85726" lon="2.25641">
        <ele>51.85006</ele>
        <time>2026-07-19T13:26:10.767Z</time>
      </trkpt>
      <trkpt lat="48.85729" lon="2.25641">
        <ele>51.83998</ele>
        <time>2026-07-19T13:26:12.768Z</time>
      </trkpt>
      <trkpt lat="48.85732" lon="2.2564">
        <ele>51.82707</ele>
        <time>2026-07-19T13:26:14.767Z</time>
      </trkpt>
      <trkpt lat="48.85735" lon="2.25639">
        <ele>51.80574</ele>
        <time>2026-07-19T13:26:17.768Z</time>
      </trkpt>
      <trkpt lat="48.85737" lon="2.25639">
        <ele>51.7998</ele>
        <time>2026-07-19T13:26:19.768Z</time>
      </trkpt>
      <trkpt lat="48.8574" lon="2.25639">
        <ele>51.80144</ele>
        <time>2026-07-19T13:26:23.768Z</time>
      </trkpt>
      <trkpt lat="48.85742" lon="2.25639">
        <ele>51.80367</ele>
        <time>2026-07-19T13:26:25.768Z</time>
      </trkpt>
      <trkpt lat="48.85745" lon="2.25638">
        <ele>51.80565</ele>
        <time>2026-07-19T13:26:27.768Z</time>
      </trkpt>
      <trkpt lat="48.85748" lon="2.25639">
        <ele>51.80413</ele>
        <time>2026-07-19T13:26:29.769Z</time>
      </trkpt>
      <trkpt lat="48.8575" lon="2.2564">
        <ele>51.80138</ele>
        <time>2026-07-19T13:26:31.768Z</time>
      </trkpt>
      <trkpt lat="48.85753" lon="2.25641">
        <ele>51.79919</ele>
        <time>2026-07-19T13:26:33.768Z</time>
      </trkpt>
      <trkpt lat="48.85756" lon="2.25642">
        <ele>51.79357</ele>
        <time>2026-07-19T13:26:38.769Z</time>
      </trkpt>
      <trkpt lat="48.85759" lon="2.25643">
        <ele>51.79045</ele>
        <time>2026-07-19T13:26:41.769Z</time>
      </trkpt>
      <trkpt lat="48.85761" lon="2.25643">
        <ele>51.78689</ele>
        <time>2026-07-19T13:26:43.768Z</time>
      </trkpt>
      <trkpt lat="48.85764" lon="2.25643">
        <ele>51.78224</ele>
        <time>2026-07-19T13:26:45.769Z</time>
      </trkpt>
      <trkpt lat="48.85767" lon="2.25644">
        <ele>51.77662</ele>
        <time>2026-07-19T13:26:47.769Z</time>
      </trkpt>
      <trkpt lat="48.8577" lon="2.25647">
        <ele>51.76867</ele>
        <time>2026-07-19T13:26:50.768Z</time>
      </trkpt>
      <trkpt lat="48.85772" lon="2.25648">
        <ele>51.76331</ele>
        <time>2026-07-19T13:26:52.769Z</time>
      </trkpt>
      <trkpt lat="48.85775" lon="2.2565">
        <ele>51.75931</ele>
        <time>2026-07-19T13:26:55.769Z</time>
      </trkpt>
      <trkpt lat="48.85778" lon="2.25651">
        <ele>51.75802</ele>
        <time>2026-07-19T13:26:57.769Z</time>
      </trkpt>
      <trkpt lat="48.8578" lon="2.25653">
        <ele>51.75629</ele>
        <time>2026-07-19T13:27:00.769Z</time>
      </trkpt>
      <trkpt lat="48.85782" lon="2.25654">
        <ele>51.75505</ele>
        <time>2026-07-19T13:27:02.769Z</time>
      </trkpt>
      <trkpt lat="48.85785" lon="2.25655">
        <ele>51.75278</ele>
        <time>2026-07-19T13:27:04.769Z</time>
      </trkpt>
      <trkpt lat="48.85788" lon="2.25656">
        <ele>51.75103</ele>
        <time>2026-07-19T13:27:07.769Z</time>
      </trkpt>
      <trkpt lat="48.8579" lon="2.25658">
        <ele>51.74928</ele>
        <time>2026-07-19T13:27:09.769Z</time>
      </trkpt>
      <trkpt lat="48.85791" lon="2.25661">
        <ele>51.747</ele>
        <time>2026-07-19T13:27:12.769Z</time>
      </trkpt>
      <trkpt lat="48.85793" lon="2.25664">
        <ele>51.74708</ele>
        <time>2026-07-19T13:27:14.770Z</time>
      </trkpt>
      <trkpt lat="48.85796" lon="2.25667">
        <ele>51.74741</ele>
        <time>2026-07-19T13:27:17.769Z</time>
      </trkpt>
      <trkpt lat="48.85798" lon="2.25669">
        <ele>51.74784</ele>
        <time>2026-07-19T13:27:19.769Z</time>
      </trkpt>
      <trkpt lat="48.858" lon="2.2567">
        <ele>51.74834</ele>
        <time>2026-07-19T13:27:21.769Z</time>
      </trkpt>
      <trkpt lat="48.85802" lon="2.25673">
        <ele>51.74969</ele>
        <time>2026-07-19T13:27:24.770Z</time>
      </trkpt>
      <trkpt lat="48.85804" lon="2.25675">
        <ele>51.75022</ele>
        <time>2026-07-19T13:27:26.769Z</time>
      </trkpt>
      <trkpt lat="48.85807" lon="2.25678">
        <ele>51.75219</ele>
        <time>2026-07-19T13:27:30.769Z</time>
      </trkpt>
      <trkpt lat="48.85809" lon="2.25679">
        <ele>51.75374</ele>
        <time>2026-07-19T13:27:32.769Z</time>
      </trkpt>
      <trkpt lat="48.85811" lon="2.25682">
        <ele>51.75542</ele>
        <time>2026-07-19T13:27:34.770Z</time>
      </trkpt>
      <trkpt lat="48.85813" lon="2.25685">
        <ele>51.76002</ele>
        <time>2026-07-19T13:27:37.769Z</time>
      </trkpt>
      <trkpt lat="48.85815" lon="2.25686">
        <ele>51.76781</ele>
        <time>2026-07-19T13:27:39.770Z</time>
      </trkpt>
      <trkpt lat="48.85818" lon="2.25689">
        <ele>51.78063</ele>
        <time>2026-07-19T13:27:42.770Z</time>
      </trkpt>
      <trkpt lat="48.85821" lon="2.25691">
        <ele>51.792</ele>
        <time>2026-07-19T13:27:45.770Z</time>
      </trkpt>
      <trkpt lat="48.85823" lon="2.25695">
        <ele>51.79892</ele>
        <time>2026-07-19T13:27:48.770Z</time>
      </trkpt>
      <trkpt lat="48.85824" lon="2.25699">
        <ele>51.77926</ele>
        <time>2026-07-19T13:27:55.769Z</time>
      </trkpt>
      <trkpt lat="48.85824" lon="2.25703">
        <ele>51.76518</ele>
        <time>2026-07-19T13:27:57.771Z</time>
      </trkpt>
      <trkpt lat="48.85825" lon="2.25706">
        <ele>51.69048</ele>
        <time>2026-07-19T13:28:02.770Z</time>
      </trkpt>
      <trkpt lat="48.85827" lon="2.2571">
        <ele>51.64782</ele>
        <time>2026-07-19T13:28:04.771Z</time>
      </trkpt>
      <trkpt lat="48.85829" lon="2.25712">
        <ele>51.61201</ele>
        <time>2026-07-19T13:28:06.770Z</time>
      </trkpt>
      <trkpt lat="48.8583" lon="2.25716">
        <ele>51.58529</ele>
        <time>2026-07-19T13:28:08.770Z</time>
      </trkpt>
      <trkpt lat="48.85832" lon="2.25719">
        <ele>51.56557</ele>
        <time>2026-07-19T13:28:10.771Z</time>
      </trkpt>
      <trkpt lat="48.85833" lon="2.25723">
        <ele>51.54087</ele>
        <time>2026-07-19T13:28:13.770Z</time>
      </trkpt>
      <trkpt lat="48.85834" lon="2.25727">
        <ele>51.52529</ele>
        <time>2026-07-19T13:28:16.771Z</time>
      </trkpt>
      <trkpt lat="48.85835" lon="2.25731">
        <ele>51.52062</ele>
        <time>2026-07-19T13:28:19.770Z</time>
      </trkpt>
      <trkpt lat="48.85837" lon="2.25735">
        <ele>51.52169</ele>
        <time>2026-07-19T13:28:22.770Z</time>
      </trkpt>
      <trkpt lat="48.85837" lon="2.25739">
        <ele>51.51774</ele>
        <time>2026-07-19T13:28:25.770Z</time>
      </trkpt>
      <trkpt lat="48.85838" lon="2.25743">
        <ele>51.50905</ele>
        <time>2026-07-19T13:28:33.770Z</time>
      </trkpt>
      <trkpt lat="48.85838" lon="2.25747">
        <ele>51.5064</ele>
        <time>2026-07-19T13:28:36.771Z</time>
      </trkpt>
      <trkpt lat="48.85839" lon="2.25751">
        <ele>51.50572</ele>
        <time>2026-07-19T13:28:38.770Z</time>
      </trkpt>
      <trkpt lat="48.85839" lon="2.25756">
        <ele>51.50339</ele>
        <time>2026-07-19T13:28:41.771Z</time>
      </trkpt>
      <trkpt lat="48.85839" lon="2.25761">
        <ele>51.50336</ele>
        <time>2026-07-19T13:28:44.771Z</time>
      </trkpt>
      <trkpt lat="48.85839" lon="2.25765">
        <ele>51.50168</ele>
        <time>2026-07-19T13:28:47.771Z</time>
      </trkpt>
      <trkpt lat="48.85839" lon="2.2577">
        <ele>51.50033</ele>
        <time>2026-07-19T13:28:50.771Z</time>
      </trkpt>
      <trkpt lat="48.85839" lon="2.25773">
        <ele>51.49882</ele>
        <time>2026-07-19T13:28:52.771Z</time>
      </trkpt>
      <trkpt lat="48.85838" lon="2.25778">
        <ele>51.49531</ele>
        <time>2026-07-19T13:28:55.771Z</time>
      </trkpt>
      <trkpt lat="48.85838" lon="2.25782">
        <ele>51.48789</ele>
        <time>2026-07-19T13:28:58.771Z</time>
      </trkpt>
      <trkpt lat="48.85838" lon="2.25787">
        <ele>51.47509</ele>
        <time>2026-07-19T13:29:01.772Z</time>
      </trkpt>
      <trkpt lat="48.85838" lon="2.25791">
        <ele>51.45629</ele>
        <time>2026-07-19T13:29:04.772Z</time>
      </trkpt>
      <trkpt lat="48.85837" lon="2.25796">
        <ele>51.43088</ele>
        <time>2026-07-19T13:29:07.772Z</time>
      </trkpt>
      <trkpt lat="48.85837" lon="2.25799">
        <ele>51.40924</ele>
        <time>2026-07-19T13:29:09.771Z</time>
      </trkpt>
      <trkpt lat="48.85836" lon="2.25804">
        <ele>51.36189</ele>
        <time>2026-07-19T13:29:12.771Z</time>
      </trkpt>
      <trkpt lat="48.85835" lon="2.25808">
        <ele>51.30351</ele>
        <time>2026-07-19T13:29:15.772Z</time>
      </trkpt>
      <trkpt lat="48.85835" lon="2.25813">
        <ele>51.2313</ele>
        <time>2026-07-19T13:29:19.771Z</time>
      </trkpt>
      <trkpt lat="48.85834" lon="2.25816">
        <ele>51.19986</ele>
        <time>2026-07-19T13:29:21.772Z</time>
      </trkpt>
      <trkpt lat="48.85833" lon="2.2582">
        <ele>51.15969</ele>
        <time>2026-07-19T13:29:24.772Z</time>
      </trkpt>
      <trkpt lat="48.85832" lon="2.25825">
        <ele>51.13071</ele>
        <time>2026-07-19T13:29:27.772Z</time>
      </trkpt>
      <trkpt lat="48.85832" lon="2.25828">
        <ele>51.11408</ele>
        <time>2026-07-19T13:29:29.771Z</time>
      </trkpt>
      <trkpt lat="48.85831" lon="2.25833">
        <ele>51.10032</ele>
        <time>2026-07-19T13:29:32.771Z</time>
      </trkpt>
      <trkpt lat="48.85831" lon="2.25837">
        <ele>51.09262</ele>
        <time>2026-07-19T13:29:35.772Z</time>
      </trkpt>
      <trkpt lat="48.8583" lon="2.25841">
        <ele>51.09426</ele>
        <time>2026-07-19T13:29:39.772Z</time>
      </trkpt>
      <trkpt lat="48.8583" lon="2.25844">
        <ele>51.10138</ele>
        <time>2026-07-19T13:29:42.772Z</time>
      </trkpt>
      <trkpt lat="48.8583" lon="2.25849">
        <ele>51.1108</ele>
        <time>2026-07-19T13:29:46.772Z</time>
      </trkpt>
      <trkpt lat="48.8583" lon="2.25853">
        <ele>51.11859</ele>
        <time>2026-07-19T13:29:49.772Z</time>
      </trkpt>
      <trkpt lat="48.8583" lon="2.25857">
        <ele>51.13096</ele>
        <time>2026-07-19T13:29:52.772Z</time>
      </trkpt>
      <trkpt lat="48.8583" lon="2.25861">
        <ele>51.13986</ele>
        <time>2026-07-19T13:29:55.772Z</time>
      </trkpt>
      <trkpt lat="48.8583" lon="2.25865">
        <ele>51.1435</ele>
        <time>2026-07-19T13:29:57.772Z</time>
      </trkpt>
      <trkpt lat="48.8583" lon="2.2587">
        <ele>51.14621</ele>
        <time>2026-07-19T13:30:00.773Z</time>
      </trkpt>
      <trkpt lat="48.8583" lon="2.25873">
        <ele>51.14634</ele>
        <time>2026-07-19T13:30:03.772Z</time>
      </trkpt>
      <trkpt lat="48.8583" lon="2.25878">
        <ele>51.14453</ele>
        <time>2026-07-19T13:30:06.772Z</time>
      </trkpt>
      <trkpt lat="48.85831" lon="2.25882">
        <ele>51.1405</ele>
        <time>2026-07-19T13:30:10.772Z</time>
      </trkpt>
      <trkpt lat="48.85831" lon="2.25886">
        <ele>51.13924</ele>
        <time>2026-07-19T13:30:13.772Z</time>
      </trkpt>
      <trkpt lat="48.85831" lon="2.2589">
        <ele>51.13557</ele>
        <time>2026-07-19T13:30:16.773Z</time>
      </trkpt>
      <trkpt lat="48.8583" lon="2.25895">
        <ele>51.13008</ele>
        <time>2026-07-19T13:30:19.772Z</time>
      </trkpt>
      <trkpt lat="48.85831" lon="2.25898">
        <ele>51.12534</ele>
        <time>2026-07-19T13:30:22.772Z</time>
      </trkpt>
      <trkpt lat="48.85834" lon="2.25898">
        <ele>51.11695</ele>
        <time>2026-07-19T13:30:25.772Z</time>
      </trkpt>
      <trkpt lat="48.85837" lon="2.259">
        <ele>51.10778</ele>
        <time>2026-07-19T13:30:28.773Z</time>
      </trkpt>
      <trkpt lat="48.8584" lon="2.259">
        <ele>51.09707</ele>
        <time>2026-07-19T13:30:31.773Z</time>
      </trkpt>
      <trkpt lat="48.85842" lon="2.259">
        <ele>51.09097</ele>
        <time>2026-07-19T13:30:34.773Z</time>
      </trkpt>
      <trkpt lat="48.85845" lon="2.25901">
        <ele>51.08769</ele>
        <time>2026-07-19T13:30:37.773Z</time>
      </trkpt>
      <trkpt lat="48.85848" lon="2.25901">
        <ele>51.08318</ele>
        <time>2026-07-19T13:30:40.773Z</time>
      </trkpt>
      <trkpt lat="48.8585" lon="2.25901">
        <ele>51.07482</ele>
        <time>2026-07-19T13:30:43.773Z</time>
      </trkpt>
      <trkpt lat="48.85853" lon="2.25901">
        <ele>51.05929</ele>
        <time>2026-07-19T13:30:47.773Z</time>
      </trkpt>
      <trkpt lat="48.85856" lon="2.25901">
        <ele>51.05533</ele>
        <time>2026-07-19T13:30:49.773Z</time>
      </trkpt>
      <trkpt lat="48.85858" lon="2.25901">
        <ele>51.05209</ele>
        <time>2026-07-19T13:30:51.774Z</time>
      </trkpt>
      <trkpt lat="48.85862" lon="2.25902">
        <ele>51.05194</ele>
        <time>2026-07-19T13:30:54.773Z</time>
      </trkpt>
      <trkpt lat="48.85864" lon="2.25902">
        <ele>51.05245</ele>
        <time>2026-07-19T13:30:56.774Z</time>
      </trkpt>
      <trkpt lat="48.85867" lon="2.25902">
        <ele>51.05319</ele>
        <time>2026-07-19T13:30:59.773Z</time>
      </trkpt>
      <trkpt lat="48.85869" lon="2.25903">
        <ele>51.05311</ele>
        <time>2026-07-19T13:31:02.773Z</time>
      </trkpt>
      <trkpt lat="48.85872" lon="2.25904">
        <ele>51.05278</ele>
        <time>2026-07-19T13:31:05.773Z</time>
      </trkpt>
      <trkpt lat="48.85876" lon="2.25903">
        <ele>51.05155</ele>
        <time>2026-07-19T13:31:08.774Z</time>
      </trkpt>
      <trkpt lat="48.85878" lon="2.25902">
        <ele>51.04915</ele>
        <time>2026-07-19T13:31:10.774Z</time>
      </trkpt>
      <trkpt lat="48.8588" lon="2.25903">
        <ele>51.04731</ele>
        <time>2026-07-19T13:31:12.773Z</time>
      </trkpt>
      <trkpt lat="48.85883" lon="2.25904">
        <ele>51.04505</ele>
        <time>2026-07-19T13:31:15.773Z</time>
      </trkpt>
      <trkpt lat="48.85886" lon="2.25905">
        <ele>51.04399</ele>
        <time>2026-07-19T13:31:18.774Z</time>
      </trkpt>
      <trkpt lat="48.85889" lon="2.25907">
        <ele>51.04407</ele>
        <time>2026-07-19T13:31:21.774Z</time>
      </trkpt>
      <trkpt lat="48.85892" lon="2.25908">
        <ele>51.04536</ele>
        <time>2026-07-19T13:31:24.775Z</time>
      </trkpt>
      <trkpt lat="48.85895" lon="2.25908">
        <ele>51.05018</ele>
        <time>2026-07-19T13:31:27.774Z</time>
      </trkpt>
      <trkpt lat="48.85897" lon="2.25909">
        <ele>51.05349</ele>
        <time>2026-07-19T13:31:31.774Z</time>
      </trkpt>
      <trkpt lat="48.859" lon="2.25909">
        <ele>51.05559</ele>
        <time>2026-07-19T13:31:34.774Z</time>
      </trkpt>
      <trkpt lat="48.85903" lon="2.25907">
        <ele>51.05859</ele>
        <time>2026-07-19T13:31:38.775Z</time>
      </trkpt>
      <trkpt lat="48.85906" lon="2.25905">
        <ele>51.06162</ele>
        <time>2026-07-19T13:31:42.776Z</time>
      </trkpt>
      <trkpt lat="48.85908" lon="2.25906">
        <ele>51.06565</ele>
        <time>2026-07-19T13:31:46.774Z</time>
      </trkpt>
      <trkpt lat="48.85912" lon="2.25907">
        <ele>51.06723</ele>
        <time>2026-07-19T13:31:49.775Z</time>
      </trkpt>
      <trkpt lat="48.85914" lon="2.25908">
        <ele>51.064</ele>
        <time>2026-07-19T13:31:51.774Z</time>
      </trkpt>
      <trkpt lat="48.85917" lon="2.25909">
        <ele>51.05807</ele>
        <time>2026-07-19T13:31:54.775Z</time>
      </trkpt>
      <trkpt lat="48.85919" lon="2.25911">
        <ele>51.05515</ele>
        <time>2026-07-19T13:31:57.775Z</time>
      </trkpt>
      <trkpt lat="48.85923" lon="2.25912">
        <ele>51.05255</ele>
        <time>2026-07-19T13:32:00.775Z</time>
      </trkpt>
      <trkpt lat="48.85925" lon="2.25912">
        <ele>51.05126</ele>
        <time>2026-07-19T13:32:02.775Z</time>
      </trkpt>
      <trkpt lat="48.85928" lon="2.25913">
        <ele>51.04992</ele>
        <time>2026-07-19T13:32:04.775Z</time>
      </trkpt>
      <trkpt lat="48.85931" lon="2.25914">
        <ele>51.04669</ele>
        <time>2026-07-19T13:32:06.775Z</time>
      </trkpt>
      <trkpt lat="48.85933" lon="2.25915">
        <ele>51.043</ele>
        <time>2026-07-19T13:32:08.775Z</time>
      </trkpt>
      <trkpt lat="48.85935" lon="2.25918">
        <ele>51.03945</ele>
        <time>2026-07-19T13:32:10.774Z</time>
      </trkpt>
      <trkpt lat="48.85937" lon="2.25921">
        <ele>51.0373</ele>
        <time>2026-07-19T13:32:13.775Z</time>
      </trkpt>
      <trkpt lat="48.85938" lon="2.25923">
        <ele>51.0404</ele>
        <time>2026-07-19T13:32:16.775Z</time>
      </trkpt>
      <trkpt lat="48.85941" lon="2.25926">
        <ele>51.04532</ele>
        <time>2026-07-19T13:32:19.775Z</time>
      </trkpt>
      <trkpt lat="48.85945" lon="2.25927">
        <ele>51.05061</ele>
        <time>2026-07-19T13:32:22.776Z</time>
      </trkpt>
      <trkpt lat="48.85948" lon="2.25926">
        <ele>51.05677</ele>
        <time>2026-07-19T13:32:25.775Z</time>
      </trkpt>
      <trkpt lat="48.8595" lon="2.25927">
        <ele>51.06041</ele>
        <time>2026-07-19T13:32:27.776Z</time>
      </trkpt>
      <trkpt lat="48.85953" lon="2.25927">
        <ele>51.06469</ele>
        <time>2026-07-19T13:32:29.775Z</time>
      </trkpt>
      <trkpt lat="48.85955" lon="2.25928">
        <ele>51.07699</ele>
        <time>2026-07-19T13:32:32.776Z</time>
      </trkpt>
      <trkpt lat="48.85957" lon="2.2593">
        <ele>51.09522</ele>
        <time>2026-07-19T13:32:35.776Z</time>
      </trkpt>
      <trkpt lat="48.85959" lon="2.25932">
        <ele>51.10026</ele>
        <time>2026-07-19T13:32:37.776Z</time>
      </trkpt>
      <trkpt lat="48.85961" lon="2.25934">
        <ele>51.10172</ele>
        <time>2026-07-19T13:32:40.775Z</time>
      </trkpt>
      <trkpt lat="48.85963" lon="2.25936">
        <ele>51.10425</ele>
        <time>2026-07-19T13:32:42.775Z</time>
      </trkpt>
      <trkpt lat="48.85966" lon="2.25938">
        <ele>51.10525</ele>
        <time>2026-07-19T13:32:44.775Z</time>
      </trkpt>
      <trkpt lat="48.85968" lon="2.25939">
        <ele>51.11035</ele>
        <time>2026-07-19T13:32:46.775Z</time>
      </trkpt>
      <trkpt lat="48.85971" lon="2.25941">
        <ele>51.15233</ele>
        <time>2026-07-19T13:32:51.776Z</time>
      </trkpt>
      <trkpt lat="48.85973" lon="2.25943">
        <ele>51.16364</ele>
        <time>2026-07-19T13:32:53.776Z</time>
      </trkpt>
      <trkpt lat="48.85975" lon="2.25948">
        <ele>51.16759</ele>
        <time>2026-07-19T13:32:56.776Z</time>
      </trkpt>
      <trkpt lat="48.85977" lon="2.2595">
        <ele>51.17142</ele>
        <time>2026-07-19T13:32:59.776Z</time>
      </trkpt>
      <trkpt lat="48.85979" lon="2.25954">
        <ele>51.17739</ele>
        <time>2026-07-19T13:33:02.776Z</time>
      </trkpt>
      <trkpt lat="48.8598" lon="2.25958">
        <ele>51.1767</ele>
        <time>2026-07-19T13:33:05.776Z</time>
      </trkpt>
      <trkpt lat="48.85982" lon="2.25962">
        <ele>51.17297</ele>
        <time>2026-07-19T13:33:08.776Z</time>
      </trkpt>
      <trkpt lat="48.85984" lon="2.25963">
        <ele>51.16907</ele>
        <time>2026-07-19T13:33:10.776Z</time>
      </trkpt>
      <trkpt lat="48.85987" lon="2.25964">
        <ele>51.16063</ele>
        <time>2026-07-19T13:33:13.776Z</time>
      </trkpt>
      <trkpt lat="48.8599" lon="2.25966">
        <ele>51.15055</ele>
        <time>2026-07-19T13:33:16.776Z</time>
      </trkpt>
      <trkpt lat="48.85993" lon="2.25967">
        <ele>51.14559</ele>
        <time>2026-07-19T13:33:19.776Z</time>
      </trkpt>
      <trkpt lat="48.85995" lon="2.25968">
        <ele>51.14029</ele>
        <time>2026-07-19T13:33:22.777Z</time>
      </trkpt>
      <trkpt lat="48.85997" lon="2.2597">
        <ele>51.13644</ele>
        <time>2026-07-19T13:33:25.777Z</time>
      </trkpt>
      <trkpt lat="48.86" lon="2.25972">
        <ele>51.13517</ele>
        <time>2026-07-19T13:33:28.776Z</time>
      </trkpt>
      <trkpt lat="48.86002" lon="2.25974">
        <ele>51.13213</ele>
        <time>2026-07-19T13:33:30.777Z</time>
      </trkpt>
      <trkpt lat="48.86005" lon="2.25974">
        <ele>51.12675</ele>
        <time>2026-07-19T13:33:32.776Z</time>
      </trkpt>
      <trkpt lat="48.86008" lon="2.25975">
        <ele>51.11452</ele>
        <time>2026-07-19T13:33:35.776Z</time>
      </trkpt>
      <trkpt lat="48.8601" lon="2.25975">
        <ele>51.10513</ele>
        <time>2026-07-19T13:33:37.776Z</time>
      </trkpt>
      <trkpt lat="48.86013" lon="2.25973">
        <ele>51.09436</ele>
        <time>2026-07-19T13:33:40.777Z</time>
      </trkpt>
      <trkpt lat="48.86015" lon="2.25972">
        <ele>51.08424</ele>
        <time>2026-07-19T13:33:43.777Z</time>
      </trkpt>
      <trkpt lat="48.86018" lon="2.2597">
        <ele>51.06761</ele>
        <time>2026-07-19T13:33:47.777Z</time>
      </trkpt>
      <trkpt lat="48.8602" lon="2.25971">
        <ele>51.06468</ele>
        <time>2026-07-19T13:33:50.776Z</time>
      </trkpt>
      <trkpt lat="48.86022" lon="2.25971">
        <ele>51.0702</ele>
        <time>2026-07-19T13:33:55.777Z</time>
      </trkpt>
      <trkpt lat="48.86025" lon="2.25969">
        <ele>51.06721</ele>
        <time>2026-07-19T13:34:01.777Z</time>
      </trkpt>
      <trkpt lat="48.86028" lon="2.25969">
        <ele>51.06426</ele>
        <time>2026-07-19T13:34:03.777Z</time>
      </trkpt>
      <trkpt lat="48.86031" lon="2.25969">
        <ele>51.0581</ele>
        <time>2026-07-19T13:34:06.777Z</time>
      </trkpt>
      <trkpt lat="48.86034" lon="2.25969">
        <ele>51.02621</ele>
        <time>2026-07-19T13:34:13.777Z</time>
      </trkpt>
      <trkpt lat="48.86036" lon="2.25969">
        <ele>50.96495</ele>
        <time>2026-07-19T13:34:19.777Z</time>
      </trkpt>
      <trkpt lat="48.86039" lon="2.25971">
        <ele>50.77448</ele>
        <time>2026-07-19T13:34:25.777Z</time>
      </trkpt>
      <trkpt lat="48.86042" lon="2.25972">
        <ele>50.47987</ele>
        <time>2026-07-19T13:34:30.778Z</time>
      </trkpt>
      <trkpt lat="48.86045" lon="2.25973">
        <ele>50.14072</ele>
        <time>2026-07-19T13:34:34.778Z</time>
      </trkpt>
      <trkpt lat="48.86049" lon="2.25973">
        <ele>49.89922</ele>
        <time>2026-07-19T13:34:36.778Z</time>
      </trkpt>
      <trkpt lat="48.86053" lon="2.25975">
        <ele>49.57762</ele>
        <time>2026-07-19T13:34:38.778Z</time>
      </trkpt>
      <trkpt lat="48.86057" lon="2.25976">
        <ele>49.19231</ele>
        <time>2026-07-19T13:34:40.778Z</time>
      </trkpt>
      <trkpt lat="48.86061" lon="2.25977">
        <ele>48.7783</ele>
        <time>2026-07-19T13:34:42.778Z</time>
      </trkpt>
      <trkpt lat="48.86063" lon="2.25977">
        <ele>48.30055</ele>
        <time>2026-07-19T13:34:44.778Z</time>
      </trkpt>
      <trkpt lat="48.86066" lon="2.2598">
        <ele>47.59894</ele>
        <time>2026-07-19T13:34:47.778Z</time>
      </trkpt>
      <trkpt lat="48.86068" lon="2.25982">
        <ele>47.02818</ele>
        <time>2026-07-19T13:34:50.779Z</time>
      </trkpt>
      <trkpt lat="48.86071" lon="2.25982">
        <ele>46.78206</ele>
        <time>2026-07-19T13:34:52.778Z</time>
      </trkpt>
      <trkpt lat="48.86074" lon="2.25984">
        <ele>46.61492</ele>
        <time>2026-07-19T13:34:54.779Z</time>
      </trkpt>
      <trkpt lat="48.86076" lon="2.25985">
        <ele>46.47457</ele>
        <time>2026-07-19T13:34:56.778Z</time>
      </trkpt>
      <trkpt lat="48.8608" lon="2.25987">
        <ele>46.35388</ele>
        <time>2026-07-19T13:34:59.778Z</time>
      </trkpt>
      <trkpt lat="48.86082" lon="2.25988">
        <ele>46.341</ele>
        <time>2026-07-19T13:35:01.779Z</time>
      </trkpt>
      <trkpt lat="48.86085" lon="2.2599">
        <ele>46.34685</ele>
        <time>2026-07-19T13:35:03.779Z</time>
      </trkpt>
      <trkpt lat="48.86087" lon="2.25991">
        <ele>46.35874</ele>
        <time>2026-07-19T13:35:06.778Z</time>
      </trkpt>
      <trkpt lat="48.8609" lon="2.25993">
        <ele>46.37589</ele>
        <time>2026-07-19T13:35:08.779Z</time>
      </trkpt>
      <trkpt lat="48.86092" lon="2.25994">
        <ele>46.39584</ele>
        <time>2026-07-19T13:35:10.778Z</time>
      </trkpt>
      <trkpt lat="48.86095" lon="2.25997">
        <ele>46.41422</ele>
        <time>2026-07-19T13:35:14.779Z</time>
      </trkpt>
      <trkpt lat="48.86098" lon="2.25998">
        <ele>46.42111</ele>
        <time>2026-07-19T13:35:16.779Z</time>
      </trkpt>
      <trkpt lat="48.861" lon="2.25998">
        <ele>46.41301</ele>
        <time>2026-07-19T13:35:18.779Z</time>
      </trkpt>
      <trkpt lat="48.86102" lon="2.26">
        <ele>46.37327</ele>
        <time>2026-07-19T13:35:21.779Z</time>
      </trkpt>
      <trkpt lat="48.86107" lon="2.26001">
        <ele>46.31658</ele>
        <time>2026-07-19T13:35:24.779Z</time>
      </trkpt>
      <trkpt lat="48.86109" lon="2.26003">
        <ele>46.30053</ele>
        <time>2026-07-19T13:35:27.779Z</time>
      </trkpt>
      <trkpt lat="48.86112" lon="2.26006">
        <ele>46.301</ele>
        <time>2026-07-19T13:35:30.779Z</time>
      </trkpt>
      <trkpt lat="48.86114" lon="2.26008">
        <ele>46.2833</ele>
        <time>2026-07-19T13:35:33.779Z</time>
      </trkpt>
      <trkpt lat="48.86116" lon="2.2601">
        <ele>46.27009</ele>
        <time>2026-07-19T13:35:35.779Z</time>
      </trkpt>
      <trkpt lat="48.86118" lon="2.26012">
        <ele>46.25526</ele>
        <time>2026-07-19T13:35:37.779Z</time>
      </trkpt>
      <trkpt lat="48.86122" lon="2.26014">
        <ele>46.23563</ele>
        <time>2026-07-19T13:35:40.780Z</time>
      </trkpt>
      <trkpt lat="48.86125" lon="2.26017">
        <ele>46.21535</ele>
        <time>2026-07-19T13:35:43.779Z</time>
      </trkpt>
      <trkpt lat="48.86127" lon="2.26018">
        <ele>46.1937</ele>
        <time>2026-07-19T13:35:46.779Z</time>
      </trkpt>
      <trkpt lat="48.8613" lon="2.2602">
        <ele>46.17282</ele>
        <time>2026-07-19T13:35:49.779Z</time>
      </trkpt>
      <trkpt lat="48.86132" lon="2.26022">
        <ele>46.14545</ele>
        <time>2026-07-19T13:35:51.779Z</time>
      </trkpt>
      <trkpt lat="48.86133" lon="2.26025">
        <ele>46.05146</ele>
        <time>2026-07-19T13:35:55.779Z</time>
      </trkpt>
      <trkpt lat="48.86135" lon="2.26028">
        <ele>45.99862</ele>
        <time>2026-07-19T13:35:58.779Z</time>
      </trkpt>
      <trkpt lat="48.86138" lon="2.26029">
        <ele>45.98474</ele>
        <time>2026-07-19T13:36:01.779Z</time>
      </trkpt>
      <trkpt lat="48.8614" lon="2.26031">
        <ele>45.9752</ele>
        <time>2026-07-19T13:36:03.780Z</time>
      </trkpt>
      <trkpt lat="48.86143" lon="2.26034">
        <ele>45.96035</ele>
        <time>2026-07-19T13:36:06.779Z</time>
      </trkpt>
      <trkpt lat="48.86145" lon="2.26037">
        <ele>45.9178</ele>
        <time>2026-07-19T13:36:09.779Z</time>
      </trkpt>
      <trkpt lat="48.86147" lon="2.26039">
        <ele>45.88021</ele>
        <time>2026-07-19T13:36:11.779Z</time>
      </trkpt>
      <trkpt lat="48.86149" lon="2.26041">
        <ele>45.84771</ele>
        <time>2026-07-19T13:36:13.779Z</time>
      </trkpt>
      <trkpt lat="48.86151" lon="2.26043">
        <ele>45.82308</ele>
        <time>2026-07-19T13:36:15.780Z</time>
      </trkpt>
      <trkpt lat="48.86154" lon="2.26045">
        <ele>45.79575</ele>
        <time>2026-07-19T13:36:18.780Z</time>
      </trkpt>
      <trkpt lat="48.86156" lon="2.26046">
        <ele>45.7737</ele>
        <time>2026-07-19T13:36:21.780Z</time>
      </trkpt>
      <trkpt lat="48.86159" lon="2.26048">
        <ele>45.75993</ele>
        <time>2026-07-19T13:36:23.781Z</time>
      </trkpt>
      <trkpt lat="48.8616" lon="2.26051">
        <ele>45.73783</ele>
        <time>2026-07-19T13:36:26.780Z</time>
      </trkpt>
      <trkpt lat="48.86162" lon="2.26054">
        <ele>45.71457</ele>
        <time>2026-07-19T13:36:28.780Z</time>
      </trkpt>
      <trkpt lat="48.86165" lon="2.26057">
        <ele>45.69218</ele>
        <time>2026-07-19T13:36:30.780Z</time>
      </trkpt>
      <trkpt lat="48.86168" lon="2.26059">
        <ele>45.67168</ele>
        <time>2026-07-19T13:36:32.780Z</time>
      </trkpt>
      <trkpt lat="48.8617" lon="2.26062">
        <ele>45.65646</ele>
        <time>2026-07-19T13:36:34.780Z</time>
      </trkpt>
      <trkpt lat="48.86172" lon="2.26064">
        <ele>45.64821</ele>
        <time>2026-07-19T13:36:36.781Z</time>
      </trkpt>
      <trkpt lat="48.86173" lon="2.26068">
        <ele>45.64135</ele>
        <time>2026-07-19T13:36:39.780Z</time>
      </trkpt>
      <trkpt lat="48.86175" lon="2.2607">
        <ele>45.63318</ele>
        <time>2026-07-19T13:36:41.781Z</time>
      </trkpt>
      <trkpt lat="48.86177" lon="2.26073">
        <ele>45.62182</ele>
        <time>2026-07-19T13:36:43.781Z</time>
      </trkpt>
      <trkpt lat="48.86179" lon="2.26075">
        <ele>45.6049</ele>
        <time>2026-07-19T13:36:45.780Z</time>
      </trkpt>
      <trkpt lat="48.86182" lon="2.26076">
        <ele>45.58643</ele>
        <time>2026-07-19T13:36:47.780Z</time>
      </trkpt>
      <trkpt lat="48.86184" lon="2.26079">
        <ele>45.55344</ele>
        <time>2026-07-19T13:36:50.781Z</time>
      </trkpt>
      <trkpt lat="48.86187" lon="2.26082">
        <ele>45.52421</ele>
        <time>2026-07-19T13:36:53.780Z</time>
      </trkpt>
      <trkpt lat="48.8619" lon="2.26083">
        <ele>45.50448</ele>
        <time>2026-07-19T13:36:55.780Z</time>
      </trkpt>
      <trkpt lat="48.86194" lon="2.26084">
        <ele>45.47751</ele>
        <time>2026-07-19T13:36:57.781Z</time>
      </trkpt>
      <trkpt lat="48.86197" lon="2.26085">
        <ele>45.43683</ele>
        <time>2026-07-19T13:36:59.781Z</time>
      </trkpt>
      <trkpt lat="48.862" lon="2.26086">
        <ele>45.36556</ele>
        <time>2026-07-19T13:37:02.781Z</time>
      </trkpt>
      <trkpt lat="48.86202" lon="2.26087">
        <ele>45.30958</ele>
        <time>2026-07-19T13:37:04.781Z</time>
      </trkpt>
      <trkpt lat="48.86205" lon="2.26087">
        <ele>45.24367</ele>
        <time>2026-07-19T13:37:06.781Z</time>
      </trkpt>
      <trkpt lat="48.86207" lon="2.26087">
        <ele>45.18085</ele>
        <time>2026-07-19T13:37:08.781Z</time>
      </trkpt>
      <trkpt lat="48.86211" lon="2.26087">
        <ele>45.12106</ele>
        <time>2026-07-19T13:37:11.781Z</time>
      </trkpt>
      <trkpt lat="48.86213" lon="2.26088">
        <ele>45.08909</ele>
        <time>2026-07-19T13:37:14.780Z</time>
      </trkpt>
      <trkpt lat="48.86216" lon="2.26089">
        <ele>45.05136</ele>
        <time>2026-07-19T13:37:17.781Z</time>
      </trkpt>
      <trkpt lat="48.86218" lon="2.26089">
        <ele>45.02204</ele>
        <time>2026-07-19T13:37:19.781Z</time>
      </trkpt>
      <trkpt lat="48.86221" lon="2.2609">
        <ele>45.00027</ele>
        <time>2026-07-19T13:37:21.781Z</time>
      </trkpt>
      <trkpt lat="48.86223" lon="2.26091">
        <ele>44.96398</ele>
        <time>2026-07-19T13:37:23.781Z</time>
      </trkpt>
      <trkpt lat="48.86226" lon="2.26091">
        <ele>44.91423</ele>
        <time>2026-07-19T13:37:26.781Z</time>
      </trkpt>
      <trkpt lat="48.86228" lon="2.26091">
        <ele>44.89166</ele>
        <time>2026-07-19T13:37:28.781Z</time>
      </trkpt>
      <trkpt lat="48.86231" lon="2.26092">
        <ele>44.87366</ele>
        <time>2026-07-19T13:37:31.782Z</time>
      </trkpt>
      <trkpt lat="48.86235" lon="2.26092">
        <ele>44.87771</ele>
        <time>2026-07-19T13:37:33.781Z</time>
      </trkpt>
      <trkpt lat="48.86237" lon="2.26094">
        <ele>44.88352</ele>
        <time>2026-07-19T13:37:36.781Z</time>
      </trkpt>
      <trkpt lat="48.86239" lon="2.26095">
        <ele>44.87798</ele>
        <time>2026-07-19T13:37:39.782Z</time>
      </trkpt>
      <trkpt lat="48.86243" lon="2.26096">
        <ele>44.872</ele>
        <time>2026-07-19T13:37:42.781Z</time>
      </trkpt>
      <trkpt lat="48.86245" lon="2.26098">
        <ele>44.87071</ele>
        <time>2026-07-19T13:37:45.782Z</time>
      </trkpt>
      <trkpt lat="48.86247" lon="2.26099">
        <ele>44.87253</ele>
        <time>2026-07-19T13:37:47.782Z</time>
      </trkpt>
      <trkpt lat="48.86249" lon="2.26101">
        <ele>44.87316</ele>
        <time>2026-07-19T13:37:49.782Z</time>
      </trkpt>
      <trkpt lat="48.86253" lon="2.26102">
        <ele>44.88451</ele>
        <time>2026-07-19T13:37:52.781Z</time>
      </trkpt>
      <trkpt lat="48.86255" lon="2.26104">
        <ele>44.90147</ele>
        <time>2026-07-19T13:37:54.782Z</time>
      </trkpt>
      <trkpt lat="48.86258" lon="2.26106">
        <ele>44.92675</ele>
        <time>2026-07-19T13:37:56.782Z</time>
      </trkpt>
      <trkpt lat="48.86261" lon="2.26106">
        <ele>44.96894</ele>
        <time>2026-07-19T13:38:00.782Z</time>
      </trkpt>
      <trkpt lat="48.86263" lon="2.26109">
        <ele>44.97523</ele>
        <time>2026-07-19T13:38:03.782Z</time>
      </trkpt>
      <trkpt lat="48.86264" lon="2.26112">
        <ele>44.98059</ele>
        <time>2026-07-19T13:38:06.782Z</time>
      </trkpt>
      <trkpt lat="48.86266" lon="2.26115">
        <ele>44.84406</ele>
        <time>2026-07-19T13:38:20.782Z</time>
      </trkpt>
      <trkpt lat="48.86269" lon="2.26116">
        <ele>44.7961</ele>
        <time>2026-07-19T13:38:23.782Z</time>
      </trkpt>
      <trkpt lat="48.86271" lon="2.26119">
        <ele>44.75558</ele>
        <time>2026-07-19T13:38:26.783Z</time>
      </trkpt>
      <trkpt lat="48.86273" lon="2.26121">
        <ele>44.73558</ele>
        <time>2026-07-19T13:38:28.783Z</time>
      </trkpt>
      <trkpt lat="48.86275" lon="2.26124">
        <ele>44.71636</ele>
        <time>2026-07-19T13:38:31.783Z</time>
      </trkpt>
      <trkpt lat="48.86277" lon="2.26127">
        <ele>44.67832</ele>
        <time>2026-07-19T13:38:35.783Z</time>
      </trkpt>
      <trkpt lat="48.86279" lon="2.26131">
        <ele>44.66779</ele>
        <time>2026-07-19T13:38:38.783Z</time>
      </trkpt>
      <trkpt lat="48.86282" lon="2.26133">
        <ele>44.65673</ele>
        <time>2026-07-19T13:38:41.783Z</time>
      </trkpt>
      <trkpt lat="48.86285" lon="2.26136">
        <ele>44.65171</ele>
        <time>2026-07-19T13:38:43.783Z</time>
      </trkpt>
      <trkpt lat="48.86288" lon="2.26138">
        <ele>44.64588</ele>
        <time>2026-07-19T13:38:45.783Z</time>
      </trkpt>
      <trkpt lat="48.8629" lon="2.2614">
        <ele>44.63408</ele>
        <time>2026-07-19T13:38:48.783Z</time>
      </trkpt>
      <trkpt lat="48.86293" lon="2.26143">
        <ele>44.6225</ele>
        <time>2026-07-19T13:38:51.783Z</time>
      </trkpt>
      <trkpt lat="48.86294" lon="2.26147">
        <ele>44.61684</ele>
        <time>2026-07-19T13:38:53.783Z</time>
      </trkpt>
      <trkpt lat="48.86296" lon="2.2615">
        <ele>44.60761</ele>
        <time>2026-07-19T13:38:56.783Z</time>
      </trkpt>
      <trkpt lat="48.86298" lon="2.26152">
        <ele>44.58419</ele>
        <time>2026-07-19T13:38:59.783Z</time>
      </trkpt>
      <trkpt lat="48.863" lon="2.26155">
        <ele>44.47808</ele>
        <time>2026-07-19T13:39:10.783Z</time>
      </trkpt>
      <trkpt lat="48.86302" lon="2.26157">
        <ele>44.43885</ele>
        <time>2026-07-19T13:39:16.784Z</time>
      </trkpt>
      <trkpt lat="48.86304" lon="2.26158">
        <ele>44.4277</ele>
        <time>2026-07-19T13:40:05.784Z</time>
      </trkpt>
      <trkpt lat="48.86306" lon="2.26156">
        <ele>44.30847</ele>
        <time>2026-07-19T13:40:56.786Z</time>
      </trkpt>
      <trkpt lat="48.86308" lon="2.26158">
        <ele>44.68185</ele>
        <time>2026-07-19T13:43:28.789Z</time>
      </trkpt>
      <trkpt lat="48.8631" lon="2.2616">
        <ele>44.69246</ele>
        <time>2026-07-19T13:43:32.788Z</time>
      </trkpt>
      <trkpt lat="48.86312" lon="2.2616">
        <ele>44.6997</ele>
        <time>2026-07-19T13:43:35.789Z</time>
      </trkpt>
      <trkpt lat="48.86315" lon="2.26161">
        <ele>44.70481</ele>
        <time>2026-07-19T13:43:38.788Z</time>
      </trkpt>
      <trkpt lat="48.86318" lon="2.26161">
        <ele>44.71288</ele>
        <time>2026-07-19T13:43:40.789Z</time>
      </trkpt>
      <trkpt lat="48.86321" lon="2.26161">
        <ele>44.73414</ele>
        <time>2026-07-19T13:43:43.789Z</time>
      </trkpt>
      <trkpt lat="48.86324" lon="2.26161">
        <ele>44.75143</ele>
        <time>2026-07-19T13:43:46.789Z</time>
      </trkpt>
      <trkpt lat="48.86326" lon="2.2616">
        <ele>44.76487</ele>
        <time>2026-07-19T13:43:49.789Z</time>
      </trkpt>
      <trkpt lat="48.86329" lon="2.2616">
        <ele>44.77004</ele>
        <time>2026-07-19T13:43:51.789Z</time>
      </trkpt>
      <trkpt lat="48.86331" lon="2.26159">
        <ele>44.77578</ele>
        <time>2026-07-19T13:43:53.789Z</time>
      </trkpt>
      <trkpt lat="48.86333" lon="2.26159">
        <ele>44.7802</ele>
        <time>2026-07-19T13:43:55.790Z</time>
      </trkpt>
      <trkpt lat="48.86336" lon="2.26158">
        <ele>44.78361</ele>
        <time>2026-07-19T13:43:58.790Z</time>
      </trkpt>
      <trkpt lat="48.86338" lon="2.26157">
        <ele>44.78596</ele>
        <time>2026-07-19T13:44:01.790Z</time>
      </trkpt>
      <trkpt lat="48.86341" lon="2.26156">
        <ele>44.78492</ele>
        <time>2026-07-19T13:44:04.789Z</time>
      </trkpt>
      <trkpt lat="48.86344" lon="2.26155">
        <ele>44.78386</ele>
        <time>2026-07-19T13:44:08.789Z</time>
      </trkpt>
      <trkpt lat="48.86346" lon="2.26155">
        <ele>44.7818</ele>
        <time>2026-07-19T13:44:11.789Z</time>
      </trkpt>
      <trkpt lat="48.86349" lon="2.26155">
        <ele>44.77853</ele>
        <time>2026-07-19T13:44:14.790Z</time>
      </trkpt>
      <trkpt lat="48.86352" lon="2.26155">
        <ele>44.77424</ele>
        <time>2026-07-19T13:44:17.790Z</time>
      </trkpt>
      <trkpt lat="48.86355" lon="2.26155">
        <ele>44.7693</ele>
        <time>2026-07-19T13:44:20.790Z</time>
      </trkpt>
      <trkpt lat="48.86358" lon="2.26156">
        <ele>44.76603</ele>
        <time>2026-07-19T13:44:22.789Z</time>
      </trkpt>
      <trkpt lat="48.86361" lon="2.26158">
        <ele>44.76063</ele>
        <time>2026-07-19T13:44:25.790Z</time>
      </trkpt>
      <trkpt lat="48.86364" lon="2.26159">
        <ele>44.75755</ele>
        <time>2026-07-19T13:44:28.790Z</time>
      </trkpt>
      <trkpt lat="48.86367" lon="2.26161">
        <ele>44.75355</ele>
        <time>2026-07-19T13:44:32.790Z</time>
      </trkpt>
      <trkpt lat="48.86369" lon="2.26161">
        <ele>44.75166</ele>
        <time>2026-07-19T13:44:34.790Z</time>
      </trkpt>
      <trkpt lat="48.86372" lon="2.26162">
        <ele>44.74939</ele>
        <time>2026-07-19T13:44:37.790Z</time>
      </trkpt>
      <trkpt lat="48.86375" lon="2.26162">
        <ele>44.74826</ele>
        <time>2026-07-19T13:44:40.790Z</time>
      </trkpt>
      <trkpt lat="48.86378" lon="2.26162">
        <ele>44.74811</ele>
        <time>2026-07-19T13:44:42.790Z</time>
      </trkpt>
      <trkpt lat="48.8638" lon="2.26161">
        <ele>44.74783</ele>
        <time>2026-07-19T13:44:44.791Z</time>
      </trkpt>
      <trkpt lat="48.86384" lon="2.26161">
        <ele>44.74525</ele>
        <time>2026-07-19T13:44:47.791Z</time>
      </trkpt>
      <trkpt lat="48.86386" lon="2.26162">
        <ele>44.74094</ele>
        <time>2026-07-19T13:44:50.791Z</time>
      </trkpt>
      <trkpt lat="48.86389" lon="2.26164">
        <ele>44.72534</ele>
        <time>2026-07-19T13:44:55.790Z</time>
      </trkpt>
      <trkpt lat="48.86393" lon="2.26165">
        <ele>44.72093</ele>
        <time>2026-07-19T13:44:58.791Z</time>
      </trkpt>
      <trkpt lat="48.86395" lon="2.26166">
        <ele>44.72214</ele>
        <time>2026-07-19T13:45:00.790Z</time>
      </trkpt>
      <trkpt lat="48.86397" lon="2.26167">
        <ele>44.72334</ele>
        <time>2026-07-19T13:45:02.791Z</time>
      </trkpt>
      <trkpt lat="48.864" lon="2.26169">
        <ele>44.72479</ele>
        <time>2026-07-19T13:45:04.791Z</time>
      </trkpt>
      <trkpt lat="48.86402" lon="2.2617">
        <ele>44.72784</ele>
        <time>2026-07-19T13:45:06.791Z</time>
      </trkpt>
      <trkpt lat="48.86405" lon="2.26171">
        <ele>44.73689</ele>
        <time>2026-07-19T13:45:09.790Z</time>
      </trkpt>
      <trkpt lat="48.86407" lon="2.26172">
        <ele>44.75054</ele>
        <time>2026-07-19T13:45:13.791Z</time>
      </trkpt>
      <trkpt lat="48.86409" lon="2.26175">
        <ele>44.75501</ele>
        <time>2026-07-19T13:45:17.791Z</time>
      </trkpt>
      <trkpt lat="48.86412" lon="2.26177">
        <ele>44.75732</ele>
        <time>2026-07-19T13:45:19.791Z</time>
      </trkpt>
      <trkpt lat="48.86414" lon="2.26179">
        <ele>44.76088</ele>
        <time>2026-07-19T13:45:21.791Z</time>
      </trkpt>
      <trkpt lat="48.86417" lon="2.26182">
        <ele>44.76482</ele>
        <time>2026-07-19T13:45:24.791Z</time>
      </trkpt>
      <trkpt lat="48.86419" lon="2.26184">
        <ele>44.7664</ele>
        <time>2026-07-19T13:45:26.791Z</time>
      </trkpt>
      <trkpt lat="48.86421" lon="2.26186">
        <ele>44.76982</ele>
        <time>2026-07-19T13:45:28.791Z</time>
      </trkpt>
      <trkpt lat="48.86423" lon="2.26189">
        <ele>44.77601</ele>
        <time>2026-07-19T13:45:31.791Z</time>
      </trkpt>
      <trkpt lat="48.86425" lon="2.26191">
        <ele>44.77825</ele>
        <time>2026-07-19T13:45:33.791Z</time>
      </trkpt>
      <trkpt lat="48.86427" lon="2.26193">
        <ele>44.77961</ele>
        <time>2026-07-19T13:45:35.792Z</time>
      </trkpt>
      <trkpt lat="48.86429" lon="2.26196">
        <ele>44.78303</ele>
        <time>2026-07-19T13:45:37.792Z</time>
      </trkpt>
      <trkpt lat="48.86431" lon="2.26198">
        <ele>44.78797</ele>
        <time>2026-07-19T13:45:39.792Z</time>
      </trkpt>
      <trkpt lat="48.86433" lon="2.26201">
        <ele>44.79377</ele>
        <time>2026-07-19T13:45:41.792Z</time>
      </trkpt>
      <trkpt lat="48.86434" lon="2.26204">
        <ele>44.80552</ele>
        <time>2026-07-19T13:45:44.793Z</time>
      </trkpt>
      <trkpt lat="48.86436" lon="2.26207">
        <ele>44.82557</ele>
        <time>2026-07-19T13:45:47.791Z</time>
      </trkpt>
      <trkpt lat="48.86438" lon="2.2621">
        <ele>44.85162</ele>
        <time>2026-07-19T13:45:50.792Z</time>
      </trkpt>
      <trkpt lat="48.8644" lon="2.26213">
        <ele>44.87094</ele>
        <time>2026-07-19T13:45:52.791Z</time>
      </trkpt>
      <trkpt lat="48.86441" lon="2.26217">
        <ele>44.91218</ele>
        <time>2026-07-19T13:45:55.792Z</time>
      </trkpt>
      <trkpt lat="48.86442" lon="2.26222">
        <ele>44.97367</ele>
        <time>2026-07-19T13:45:58.792Z</time>
      </trkpt>
      <trkpt lat="48.86444" lon="2.26226">
        <ele>45.04424</ele>
        <time>2026-07-19T13:46:01.792Z</time>
      </trkpt>
      <trkpt lat="48.86446" lon="2.26228">
        <ele>45.09385</ele>
        <time>2026-07-19T13:46:03.792Z</time>
      </trkpt>
      <trkpt lat="48.86447" lon="2.26232">
        <ele>45.15429</ele>
        <time>2026-07-19T13:46:06.792Z</time>
      </trkpt>
      <trkpt lat="48.86448" lon="2.26236">
        <ele>45.19897</ele>
        <time>2026-07-19T13:46:09.792Z</time>
      </trkpt>
      <trkpt lat="48.86449" lon="2.2624">
        <ele>45.2344</ele>
        <time>2026-07-19T13:46:12.792Z</time>
      </trkpt>
      <trkpt lat="48.86451" lon="2.26244">
        <ele>45.29576</ele>
        <time>2026-07-19T13:46:16.793Z</time>
      </trkpt>
      <trkpt lat="48.86454" lon="2.26246">
        <ele>45.3558</ele>
        <time>2026-07-19T13:46:20.792Z</time>
      </trkpt>
      <trkpt lat="48.86457" lon="2.26247">
        <ele>45.41717</ele>
        <time>2026-07-19T13:46:23.792Z</time>
      </trkpt>
      <trkpt lat="48.86459" lon="2.26249">
        <ele>45.49077</ele>
        <time>2026-07-19T13:46:26.793Z</time>
      </trkpt>
      <trkpt lat="48.86461" lon="2.26251">
        <ele>45.58364</ele>
        <time>2026-07-19T13:46:29.792Z</time>
      </trkpt>
      <trkpt lat="48.86464" lon="2.26252">
        <ele>45.64306</ele>
        <time>2026-07-19T13:46:31.793Z</time>
      </trkpt>
      <trkpt lat="48.86466" lon="2.26255">
        <ele>45.73634</ele>
        <time>2026-07-19T13:46:34.793Z</time>
      </trkpt>
      <trkpt lat="48.86469" lon="2.26257">
        <ele>45.82099</ele>
        <time>2026-07-19T13:46:37.793Z</time>
      </trkpt>
      <trkpt lat="48.86471" lon="2.26258">
        <ele>45.87908</ele>
        <time>2026-07-19T13:46:40.793Z</time>
      </trkpt>
      <trkpt lat="48.86473" lon="2.2626">
        <ele>45.91785</ele>
        <time>2026-07-19T13:46:42.793Z</time>
      </trkpt>
      <trkpt lat="48.86476" lon="2.26262">
        <ele>45.95511</ele>
        <time>2026-07-19T13:46:44.793Z</time>
      </trkpt>
      <trkpt lat="48.86478" lon="2.26263">
        <ele>45.98038</ele>
        <time>2026-07-19T13:46:46.793Z</time>
      </trkpt>
      <trkpt lat="48.86482" lon="2.26264">
        <ele>45.98804</ele>
        <time>2026-07-19T13:46:49.793Z</time>
      </trkpt>
      <trkpt lat="48.86485" lon="2.26265">
        <ele>45.97095</ele>
        <time>2026-07-19T13:46:52.793Z</time>
      </trkpt>
      <trkpt lat="48.86488" lon="2.26267">
        <ele>45.95461</ele>
        <time>2026-07-19T13:46:54.793Z</time>
      </trkpt>
      <trkpt lat="48.8649" lon="2.26267">
        <ele>45.93611</ele>
        <time>2026-07-19T13:46:56.793Z</time>
      </trkpt>
      <trkpt lat="48.86492" lon="2.26267">
        <ele>45.90815</ele>
        <time>2026-07-19T13:46:58.793Z</time>
      </trkpt>
      <trkpt lat="48.86496" lon="2.26269">
        <ele>45.8663</ele>
        <time>2026-07-19T13:47:01.793Z</time>
      </trkpt>
      <trkpt lat="48.86498" lon="2.2627">
        <ele>45.84208</ele>
        <time>2026-07-19T13:47:03.794Z</time>
      </trkpt>
      <trkpt lat="48.86501" lon="2.2627">
        <ele>45.81998</ele>
        <time>2026-07-19T13:47:06.794Z</time>
      </trkpt>
      <trkpt lat="48.86503" lon="2.26273">
        <ele>45.81301</ele>
        <time>2026-07-19T13:47:09.793Z</time>
      </trkpt>
      <trkpt lat="48.86506" lon="2.26274">
        <ele>45.81512</ele>
        <time>2026-07-19T13:47:12.793Z</time>
      </trkpt>
      <trkpt lat="48.86509" lon="2.26274">
        <ele>45.81799</ele>
        <time>2026-07-19T13:47:15.794Z</time>
      </trkpt>
      <trkpt lat="48.86512" lon="2.26276">
        <ele>45.82778</ele>
        <time>2026-07-19T13:47:18.793Z</time>
      </trkpt>
      <trkpt lat="48.86515" lon="2.26276">
        <ele>45.83344</ele>
        <time>2026-07-19T13:47:20.794Z</time>
      </trkpt>
      <trkpt lat="48.86517" lon="2.26275">
        <ele>45.83952</ele>
        <time>2026-07-19T13:47:22.794Z</time>
      </trkpt>
      <trkpt lat="48.8652" lon="2.26275">
        <ele>45.83748</ele>
        <time>2026-07-19T13:47:25.794Z</time>
      </trkpt>
      <trkpt lat="48.86522" lon="2.26275">
        <ele>45.83617</ele>
        <time>2026-07-19T13:47:27.794Z</time>
      </trkpt>
      <trkpt lat="48.86525" lon="2.26275">
        <ele>45.83581</ele>
        <time>2026-07-19T13:47:29.794Z</time>
      </trkpt>
      <trkpt lat="48.86527" lon="2.26275">
        <ele>45.83361</ele>
        <time>2026-07-19T13:47:31.794Z</time>
      </trkpt>
      <trkpt lat="48.8653" lon="2.26275">
        <ele>45.83275</ele>
        <time>2026-07-19T13:47:34.794Z</time>
      </trkpt>
      <trkpt lat="48.86532" lon="2.26273">
        <ele>45.83248</ele>
        <time>2026-07-19T13:47:36.794Z</time>
      </trkpt>
      <trkpt lat="48.86536" lon="2.26273">
        <ele>45.83231</ele>
        <time>2026-07-19T13:47:38.794Z</time>
      </trkpt>
      <trkpt lat="48.86538" lon="2.26274">
        <ele>45.83268</ele>
        <time>2026-07-19T13:47:40.794Z</time>
      </trkpt>
      <trkpt lat="48.86542" lon="2.26273">
        <ele>45.83339</ele>
        <time>2026-07-19T13:47:43.794Z</time>
      </trkpt>
      <trkpt lat="48.86544" lon="2.26275">
        <ele>45.83428</ele>
        <time>2026-07-19T13:47:46.794Z</time>
      </trkpt>
      <trkpt lat="48.86547" lon="2.26275">
        <ele>45.83594</ele>
        <time>2026-07-19T13:47:49.795Z</time>
      </trkpt>
      <trkpt lat="48.86549" lon="2.26276">
        <ele>45.83787</ele>
        <time>2026-07-19T13:47:52.794Z</time>
      </trkpt>
      <trkpt lat="48.86552" lon="2.26277">
        <ele>45.83935</ele>
        <time>2026-07-19T13:47:55.795Z</time>
      </trkpt>
      <trkpt lat="48.86556" lon="2.26278">
        <ele>45.84134</ele>
        <time>2026-07-19T13:47:58.794Z</time>
      </trkpt>
      <trkpt lat="48.86559" lon="2.2628">
        <ele>45.84515</ele>
        <time>2026-07-19T13:48:01.795Z</time>
      </trkpt>
      <trkpt lat="48.86561" lon="2.26282">
        <ele>45.85096</ele>
        <time>2026-07-19T13:48:04.794Z</time>
      </trkpt>
      <trkpt lat="48.86563" lon="2.26285">
        <ele>45.85744</ele>
        <time>2026-07-19T13:48:07.795Z</time>
      </trkpt>
      <trkpt lat="48.86565" lon="2.26285">
        <ele>45.8687</ele>
        <time>2026-07-19T13:48:10.794Z</time>
      </trkpt>
      <trkpt lat="48.86568" lon="2.26286">
        <ele>45.87867</ele>
        <time>2026-07-19T13:48:12.795Z</time>
      </trkpt>
      <trkpt lat="48.8657" lon="2.26286">
        <ele>45.88586</ele>
        <time>2026-07-19T13:48:14.796Z</time>
      </trkpt>
      <trkpt lat="48.86574" lon="2.26288">
        <ele>45.89809</ele>
        <time>2026-07-19T13:48:17.795Z</time>
      </trkpt>
      <trkpt lat="48.86576" lon="2.2629">
        <ele>45.91568</ele>
        <time>2026-07-19T13:48:19.796Z</time>
      </trkpt>
      <trkpt lat="48.86579" lon="2.26292">
        <ele>45.98181</ele>
        <time>2026-07-19T13:48:22.795Z</time>
      </trkpt>
      <trkpt lat="48.86581" lon="2.26294">
        <ele>46.06013</ele>
        <time>2026-07-19T13:48:25.796Z</time>
      </trkpt>
      <trkpt lat="48.86584" lon="2.26295">
        <ele>46.13511</ele>
        <time>2026-07-19T13:48:28.795Z</time>
      </trkpt>
      <trkpt lat="48.86587" lon="2.26297">
        <ele>46.2101</ele>
        <time>2026-07-19T13:48:31.795Z</time>
      </trkpt>
      <trkpt lat="48.86589" lon="2.26298">
        <ele>46.25592</ele>
        <time>2026-07-19T13:48:33.795Z</time>
      </trkpt>
      <trkpt lat="48.86592" lon="2.26299">
        <ele>46.31663</ele>
        <time>2026-07-19T13:48:35.795Z</time>
      </trkpt>
      <trkpt lat="48.86595" lon="2.26301">
        <ele>46.38348</ele>
        <time>2026-07-19T13:48:37.796Z</time>
      </trkpt>
      <trkpt lat="48.86597" lon="2.26302">
        <ele>46.43369</ele>
        <time>2026-07-19T13:48:39.796Z</time>
      </trkpt>
      <trkpt lat="48.86599" lon="2.26306">
        <ele>46.5054</ele>
        <time>2026-07-19T13:48:42.796Z</time>
      </trkpt>
      <trkpt lat="48.86601" lon="2.26308">
        <ele>46.54869</ele>
        <time>2026-07-19T13:48:45.795Z</time>
      </trkpt>
      <trkpt lat="48.86603" lon="2.26311">
        <ele>46.56491</ele>
        <time>2026-07-19T13:48:48.796Z</time>
      </trkpt>
      <trkpt lat="48.86606" lon="2.26312">
        <ele>46.56633</ele>
        <time>2026-07-19T13:48:50.795Z</time>
      </trkpt>
      <trkpt lat="48.86608" lon="2.26314">
        <ele>46.5719</ele>
        <time>2026-07-19T13:48:52.796Z</time>
      </trkpt>
      <trkpt lat="48.8661" lon="2.26317">
        <ele>46.58021</ele>
        <time>2026-07-19T13:48:55.796Z</time>
      </trkpt>
      <trkpt lat="48.86613" lon="2.2632">
        <ele>46.58652</ele>
        <time>2026-07-19T13:48:58.796Z</time>
      </trkpt>
      <trkpt lat="48.86615" lon="2.26323">
        <ele>46.60033</ele>
        <time>2026-07-19T13:49:01.796Z</time>
      </trkpt>
      <trkpt lat="48.86618" lon="2.26327">
        <ele>46.62054</ele>
        <time>2026-07-19T13:49:04.795Z</time>
      </trkpt>
      <trkpt lat="48.8662" lon="2.2633">
        <ele>46.6362</ele>
        <time>2026-07-19T13:49:06.796Z</time>
      </trkpt>
      <trkpt lat="48.86622" lon="2.26332">
        <ele>46.66689</ele>
        <time>2026-07-19T13:49:09.797Z</time>
      </trkpt>
      <trkpt lat="48.86625" lon="2.26336">
        <ele>46.68938</ele>
        <time>2026-07-19T13:49:12.797Z</time>
      </trkpt>
      <trkpt lat="48.86627" lon="2.26338">
        <ele>46.69975</ele>
        <time>2026-07-19T13:49:14.797Z</time>
      </trkpt>
      <trkpt lat="48.8663" lon="2.26341">
        <ele>46.71163</ele>
        <time>2026-07-19T13:49:17.797Z</time>
      </trkpt>
      <trkpt lat="48.86631" lon="2.26344">
        <ele>46.72055</ele>
        <time>2026-07-19T13:49:19.796Z</time>
      </trkpt>
      <trkpt lat="48.86634" lon="2.26346">
        <ele>46.72461</ele>
        <time>2026-07-19T13:49:21.796Z</time>
      </trkpt>
      <trkpt lat="48.86636" lon="2.26348">
        <ele>46.72952</ele>
        <time>2026-07-19T13:49:23.797Z</time>
      </trkpt>
      <trkpt lat="48.86638" lon="2.26352">
        <ele>46.73835</ele>
        <time>2026-07-19T13:49:26.796Z</time>
      </trkpt>
      <trkpt lat="48.86639" lon="2.26355">
        <ele>46.74535</ele>
        <time>2026-07-19T13:49:28.797Z</time>
      </trkpt>
      <trkpt lat="48.86641" lon="2.26359">
        <ele>46.75169</ele>
        <time>2026-07-19T13:49:30.797Z</time>
      </trkpt>
      <trkpt lat="48.86643" lon="2.26362">
        <ele>46.75287</ele>
        <time>2026-07-19T13:49:32.797Z</time>
      </trkpt>
      <trkpt lat="48.86644" lon="2.26365">
        <ele>46.75615</ele>
        <time>2026-07-19T13:49:35.797Z</time>
      </trkpt>
      <trkpt lat="48.86646" lon="2.26367">
        <ele>46.76139</ele>
        <time>2026-07-19T13:49:37.797Z</time>
      </trkpt>
      <trkpt lat="48.86648" lon="2.26371">
        <ele>46.76983</ele>
        <time>2026-07-19T13:49:40.797Z</time>
      </trkpt>
      <trkpt lat="48.8665" lon="2.26375">
        <ele>46.77476</ele>
        <time>2026-07-19T13:49:43.797Z</time>
      </trkpt>
      <trkpt lat="48.86651" lon="2.26378">
        <ele>46.77829</ele>
        <time>2026-07-19T13:49:45.796Z</time>
      </trkpt>
      <trkpt lat="48.86653" lon="2.2638">
        <ele>46.7797</ele>
        <time>2026-07-19T13:49:47.797Z</time>
      </trkpt>
      <trkpt lat="48.86655" lon="2.26383">
        <ele>46.7797</ele>
        <time>2026-07-19T13:49:49.797Z</time>
      </trkpt>
      <trkpt lat="48.86657" lon="2.26385">
        <ele>46.77983</ele>
        <time>2026-07-19T13:49:51.797Z</time>
      </trkpt>
      <trkpt lat="48.86659" lon="2.26389">
        <ele>46.78353</ele>
        <time>2026-07-19T13:49:54.797Z</time>
      </trkpt>
      <trkpt lat="48.86662" lon="2.26392">
        <ele>46.79038</ele>
        <time>2026-07-19T13:49:56.797Z</time>
      </trkpt>
      <trkpt lat="48.86664" lon="2.26395">
        <ele>46.79651</ele>
        <time>2026-07-19T13:49:59.797Z</time>
      </trkpt>
      <trkpt lat="48.86665" lon="2.26398">
        <ele>46.79842</ele>
        <time>2026-07-19T13:50:02.797Z</time>
      </trkpt>
      <trkpt lat="48.86667" lon="2.26402">
        <ele>46.80338</ele>
        <time>2026-07-19T13:50:05.798Z</time>
      </trkpt>
      <trkpt lat="48.8667" lon="2.26404">
        <ele>46.80971</ele>
        <time>2026-07-19T13:50:07.797Z</time>
      </trkpt>
      <trkpt lat="48.86672" lon="2.26406">
        <ele>46.81704</ele>
        <time>2026-07-19T13:50:09.797Z</time>
      </trkpt>
      <trkpt lat="48.86674" lon="2.2641">
        <ele>46.82685</ele>
        <time>2026-07-19T13:50:12.797Z</time>
      </trkpt>
      <trkpt lat="48.86676" lon="2.26412">
        <ele>46.83091</ele>
        <time>2026-07-19T13:50:14.798Z</time>
      </trkpt>
      <trkpt lat="48.86678" lon="2.26414">
        <ele>46.83215</ele>
        <time>2026-07-19T13:50:16.797Z</time>
      </trkpt>
      <trkpt lat="48.86681" lon="2.26415">
        <ele>46.83374</ele>
        <time>2026-07-19T13:50:18.798Z</time>
      </trkpt>
      <trkpt lat="48.86683" lon="2.26419">
        <ele>46.83543</ele>
        <time>2026-07-19T13:50:21.798Z</time>
      </trkpt>
      <trkpt lat="48.86686" lon="2.26422">
        <ele>46.83485</ele>
        <time>2026-07-19T13:50:24.797Z</time>
      </trkpt>
      <trkpt lat="48.86688" lon="2.26426">
        <ele>46.83422</ele>
        <time>2026-07-19T13:50:27.798Z</time>
      </trkpt>
      <trkpt lat="48.8669" lon="2.26428">
        <ele>46.83381</ele>
        <time>2026-07-19T13:50:29.797Z</time>
      </trkpt>
      <trkpt lat="48.86693" lon="2.2643">
        <ele>46.82929</ele>
        <time>2026-07-19T13:50:32.798Z</time>
      </trkpt>
      <trkpt lat="48.86696" lon="2.26431">
        <ele>46.82547</ele>
        <time>2026-07-19T13:50:35.799Z</time>
      </trkpt>
      <trkpt lat="48.86698" lon="2.26433">
        <ele>46.82183</ele>
        <time>2026-07-19T13:50:38.798Z</time>
      </trkpt>
      <trkpt lat="48.867" lon="2.26435">
        <ele>46.81773</ele>
        <time>2026-07-19T13:50:40.798Z</time>
      </trkpt>
      <trkpt lat="48.86703" lon="2.26436">
        <ele>46.81285</ele>
        <time>2026-07-19T13:50:42.798Z</time>
      </trkpt>
      <trkpt lat="48.86706" lon="2.26438">
        <ele>46.80552</ele>
        <time>2026-07-19T13:50:45.798Z</time>
      </trkpt>
      <trkpt lat="48.86709" lon="2.26439">
        <ele>46.80264</ele>
        <time>2026-07-19T13:50:47.798Z</time>
      </trkpt>
      <trkpt lat="48.86711" lon="2.2644">
        <ele>46.79794</ele>
        <time>2026-07-19T13:50:50.798Z</time>
      </trkpt>
      <trkpt lat="48.86712" lon="2.26443">
        <ele>46.79406</ele>
        <time>2026-07-19T13:50:52.798Z</time>
      </trkpt>
      <trkpt lat="48.86715" lon="2.26446">
        <ele>46.78338</ele>
        <time>2026-07-19T13:50:55.798Z</time>
      </trkpt>
      <trkpt lat="48.86718" lon="2.26449">
        <ele>46.75536</ele>
        <time>2026-07-19T13:50:58.799Z</time>
      </trkpt>
      <trkpt lat="48.8672" lon="2.26452">
        <ele>46.70547</ele>
        <time>2026-07-19T13:51:01.798Z</time>
      </trkpt>
      <trkpt lat="48.86723" lon="2.26454">
        <ele>46.65981</ele>
        <time>2026-07-19T13:51:03.798Z</time>
      </trkpt>
      <trkpt lat="48.86725" lon="2.26456">
        <ele>46.61063</ele>
        <time>2026-07-19T13:51:05.798Z</time>
      </trkpt>
      <trkpt lat="48.86726" lon="2.26459">
        <ele>46.56167</ele>
        <time>2026-07-19T13:51:07.798Z</time>
      </trkpt>
      <trkpt lat="48.86727" lon="2.26463">
        <ele>46.50919</ele>
        <time>2026-07-19T13:51:10.798Z</time>
      </trkpt>
      <trkpt lat="48.8673" lon="2.26466">
        <ele>46.46777</ele>
        <time>2026-07-19T13:51:13.800Z</time>
      </trkpt>
      <trkpt lat="48.86732" lon="2.26468">
        <ele>46.43991</ele>
        <time>2026-07-19T13:51:16.799Z</time>
      </trkpt>
      <trkpt lat="48.86735" lon="2.26471">
        <ele>46.41534</ele>
        <time>2026-07-19T13:51:19.799Z</time>
      </trkpt>
      <trkpt lat="48.86737" lon="2.26474">
        <ele>46.39319</ele>
        <time>2026-07-19T13:51:22.799Z</time>
      </trkpt>
      <trkpt lat="48.86739" lon="2.26477">
        <ele>46.38331</ele>
        <time>2026-07-19T13:51:24.799Z</time>
      </trkpt>
      <trkpt lat="48.86741" lon="2.2648">
        <ele>46.36996</ele>
        <time>2026-07-19T13:51:27.799Z</time>
      </trkpt>
      <trkpt lat="48.86743" lon="2.26482">
        <ele>46.35853</ele>
        <time>2026-07-19T13:51:30.799Z</time>
      </trkpt>
      <trkpt lat="48.86746" lon="2.26484">
        <ele>46.3457</ele>
        <time>2026-07-19T13:51:33.799Z</time>
      </trkpt>
      <trkpt lat="48.86748" lon="2.26487">
        <ele>46.32428</ele>
        <time>2026-07-19T13:51:36.799Z</time>
      </trkpt>
      <trkpt lat="48.8675" lon="2.26491">
        <ele>46.31041</ele>
        <time>2026-07-19T13:51:38.799Z</time>
      </trkpt>
      <trkpt lat="48.86752" lon="2.26494">
        <ele>46.29867</ele>
        <time>2026-07-19T13:51:40.799Z</time>
      </trkpt>
      <trkpt lat="48.86754" lon="2.26497">
        <ele>46.28964</ele>
        <time>2026-07-19T13:51:43.801Z</time>
      </trkpt>
      <trkpt lat="48.86755" lon="2.26501">
        <ele>46.28082</ele>
        <time>2026-07-19T13:51:45.800Z</time>
      </trkpt>
      <trkpt lat="48.86757" lon="2.26504">
        <ele>46.25675</ele>
        <time>2026-07-19T13:51:48.800Z</time>
      </trkpt>
      <trkpt lat="48.86758" lon="2.26508">
        <ele>46.24272</ele>
        <time>2026-07-19T13:51:50.799Z</time>
      </trkpt>
      <trkpt lat="48.86759" lon="2.26511">
        <ele>46.22337</ele>
        <time>2026-07-19T13:51:52.799Z</time>
      </trkpt>
      <trkpt lat="48.8676" lon="2.26514">
        <ele>46.20655</ele>
        <time>2026-07-19T13:51:54.800Z</time>
      </trkpt>
      <trkpt lat="48.86761" lon="2.26517">
        <ele>46.16003</ele>
        <time>2026-07-19T13:51:59.800Z</time>
      </trkpt>
      <trkpt lat="48.86762" lon="2.26521">
        <ele>46.14017</ele>
        <time>2026-07-19T13:52:01.800Z</time>
      </trkpt>
      <trkpt lat="48.86764" lon="2.26524">
        <ele>46.12789</ele>
        <time>2026-07-19T13:52:04.800Z</time>
      </trkpt>
      <trkpt lat="48.86766" lon="2.26527">
        <ele>46.13445</ele>
        <time>2026-07-19T13:52:06.801Z</time>
      </trkpt>
      <trkpt lat="48.86768" lon="2.26531">
        <ele>46.14992</ele>
        <time>2026-07-19T13:52:09.800Z</time>
      </trkpt>
      <trkpt lat="48.86769" lon="2.26534">
        <ele>46.15885</ele>
        <time>2026-07-19T13:52:12.800Z</time>
      </trkpt>
      <trkpt lat="48.86771" lon="2.26537">
        <ele>46.16782</ele>
        <time>2026-07-19T13:52:15.800Z</time>
      </trkpt>
      <trkpt lat="48.86774" lon="2.2654">
        <ele>46.17749</ele>
        <time>2026-07-19T13:52:17.801Z</time>
      </trkpt>
      <trkpt lat="48.86776" lon="2.26542">
        <ele>46.19062</ele>
        <time>2026-07-19T13:52:19.800Z</time>
      </trkpt>
      <trkpt lat="48.8678" lon="2.26543">
        <ele>46.20509</ele>
        <time>2026-07-19T13:52:22.800Z</time>
      </trkpt>
      <trkpt lat="48.86783" lon="2.26545">
        <ele>46.21439</ele>
        <time>2026-07-19T13:52:25.800Z</time>
      </trkpt>
      <trkpt lat="48.86786" lon="2.26547">
        <ele>46.21681</ele>
        <time>2026-07-19T13:52:27.800Z</time>
      </trkpt>
      <trkpt lat="48.86788" lon="2.26548">
        <ele>46.21979</ele>
        <time>2026-07-19T13:52:30.800Z</time>
      </trkpt>
      <trkpt lat="48.86791" lon="2.26549">
        <ele>46.22494</ele>
        <time>2026-07-19T13:52:33.800Z</time>
      </trkpt>
      <trkpt lat="48.86793" lon="2.26551">
        <ele>46.24623</ele>
        <time>2026-07-19T13:52:37.801Z</time>
      </trkpt>
      <trkpt lat="48.86796" lon="2.26553">
        <ele>46.26066</ele>
        <time>2026-07-19T13:52:40.801Z</time>
      </trkpt>
      <trkpt lat="48.86797" lon="2.26556">
        <ele>46.27141</ele>
        <time>2026-07-19T13:52:43.800Z</time>
      </trkpt>
      <trkpt lat="48.86797" lon="2.26559">
        <ele>46.27775</ele>
        <time>2026-07-19T13:52:46.801Z</time>
      </trkpt>
      <trkpt lat="48.86797" lon="2.26563">
        <ele>46.28249</ele>
        <time>2026-07-19T13:52:50.801Z</time>
      </trkpt>
      <trkpt lat="48.86796" lon="2.26568">
        <ele>46.28391</ele>
        <time>2026-07-19T13:52:54.801Z</time>
      </trkpt>
      <trkpt lat="48.86796" lon="2.26573">
        <ele>46.28722</ele>
        <time>2026-07-19T13:52:57.800Z</time>
      </trkpt>
      <trkpt lat="48.86796" lon="2.26577">
        <ele>46.2885</ele>
        <time>2026-07-19T13:53:00.801Z</time>
      </trkpt>
      <trkpt lat="48.86796" lon="2.26581">
        <ele>46.2894</ele>
        <time>2026-07-19T13:53:03.801Z</time>
      </trkpt>
      <trkpt lat="48.86796" lon="2.26585">
        <ele>46.28944</ele>
        <time>2026-07-19T13:53:06.801Z</time>
      </trkpt>
      <trkpt lat="48.86795" lon="2.26589">
        <ele>46.28859</ele>
        <time>2026-07-19T13:53:10.801Z</time>
      </trkpt>
      <trkpt lat="48.86796" lon="2.26592">
        <ele>46.28874</ele>
        <time>2026-07-19T13:53:13.802Z</time>
      </trkpt>
      <trkpt lat="48.86796" lon="2.26596">
        <ele>46.28864</ele>
        <time>2026-07-19T13:53:15.801Z</time>
      </trkpt>
      <trkpt lat="48.86796" lon="2.266">
        <ele>46.28907</ele>
        <time>2026-07-19T13:53:18.801Z</time>
      </trkpt>
      <trkpt lat="48.86796" lon="2.26605">
        <ele>46.28907</ele>
        <time>2026-07-19T13:53:21.801Z</time>
      </trkpt>
      <trkpt lat="48.86795" lon="2.26609">
        <ele>46.28925</ele>
        <time>2026-07-19T13:53:24.801Z</time>
      </trkpt>
      <trkpt lat="48.86794" lon="2.26612">
        <ele>46.28945</ele>
        <time>2026-07-19T13:53:26.802Z</time>
      </trkpt>
      <trkpt lat="48.86793" lon="2.26616">
        <ele>46.2906</ele>
        <time>2026-07-19T13:53:29.801Z</time>
      </trkpt>
      <trkpt lat="48.86794" lon="2.26621">
        <ele>46.29326</ele>
        <time>2026-07-19T13:53:32.802Z</time>
      </trkpt>
      <trkpt lat="48.86794" lon="2.26625">
        <ele>46.2969</ele>
        <time>2026-07-19T13:53:35.801Z</time>
      </trkpt>
      <trkpt lat="48.86794" lon="2.26629">
        <ele>46.299</ele>
        <time>2026-07-19T13:53:37.802Z</time>
      </trkpt>
      <trkpt lat="48.86795" lon="2.26633">
        <ele>46.30042</ele>
        <time>2026-07-19T13:53:40.802Z</time>
      </trkpt>
      <trkpt lat="48.86796" lon="2.26637">
        <ele>46.30126</ele>
        <time>2026-07-19T13:53:42.802Z</time>
      </trkpt>
      <trkpt lat="48.86798" lon="2.26641">
        <ele>46.30298</ele>
        <time>2026-07-19T13:53:45.802Z</time>
      </trkpt>
      <trkpt lat="48.868" lon="2.26644">
        <ele>46.30587</ele>
        <time>2026-07-19T13:53:48.802Z</time>
      </trkpt>
      <trkpt lat="48.86802" lon="2.26648">
        <ele>46.30796</ele>
        <time>2026-07-19T13:53:51.801Z</time>
      </trkpt>
      <trkpt lat="48.86803" lon="2.26651">
        <ele>46.30756</ele>
        <time>2026-07-19T13:53:53.802Z</time>
      </trkpt>
      <trkpt lat="48.86804" lon="2.26655">
        <ele>46.30534</ele>
        <time>2026-07-19T13:53:55.802Z</time>
      </trkpt>
      <trkpt lat="48.86806" lon="2.26659">
        <ele>46.30282</ele>
        <time>2026-07-19T13:53:58.802Z</time>
      </trkpt>
      <trkpt lat="48.86807" lon="2.26662">
        <ele>46.30156</ele>
        <time>2026-07-19T13:54:00.803Z</time>
      </trkpt>
      <trkpt lat="48.86809" lon="2.26665">
        <ele>46.30165</ele>
        <time>2026-07-19T13:54:02.802Z</time>
      </trkpt>
      <trkpt lat="48.86811" lon="2.26667">
        <ele>46.3028</ele>
        <time>2026-07-19T13:54:04.802Z</time>
      </trkpt>
      <trkpt lat="48.86812" lon="2.26671">
        <ele>46.30609</ele>
        <time>2026-07-19T13:54:07.803Z</time>
      </trkpt>
      <trkpt lat="48.86813" lon="2.26676">
        <ele>46.30914</ele>
        <time>2026-07-19T13:54:09.802Z</time>
      </trkpt>
      <trkpt lat="48.86815" lon="2.26679">
        <ele>46.31359</ele>
        <time>2026-07-19T13:54:12.802Z</time>
      </trkpt>
      <trkpt lat="48.86817" lon="2.26682">
        <ele>46.31557</ele>
        <time>2026-07-19T13:54:15.803Z</time>
      </trkpt>
      <trkpt lat="48.86818" lon="2.26685">
        <ele>46.31737</ele>
        <time>2026-07-19T13:54:17.803Z</time>
      </trkpt>
      <trkpt lat="48.8682" lon="2.26687">
        <ele>46.31921</ele>
        <time>2026-07-19T13:54:19.803Z</time>
      </trkpt>
      <trkpt lat="48.86822" lon="2.26691">
        <ele>46.32356</ele>
        <time>2026-07-19T13:54:22.803Z</time>
      </trkpt>
      <trkpt lat="48.86823" lon="2.26695">
        <ele>46.33071</ele>
        <time>2026-07-19T13:54:24.803Z</time>
      </trkpt>
      <trkpt lat="48.86824" lon="2.26698">
        <ele>46.34009</ele>
        <time>2026-07-19T13:54:26.803Z</time>
      </trkpt>
      <trkpt lat="48.86826" lon="2.267">
        <ele>46.36262</ele>
        <time>2026-07-19T13:54:30.803Z</time>
      </trkpt>
      <trkpt lat="48.86828" lon="2.26704">
        <ele>46.40194</ele>
        <time>2026-07-19T13:54:33.803Z</time>
      </trkpt>
      <trkpt lat="48.86829" lon="2.26706">
        <ele>46.44731</ele>
        <time>2026-07-19T13:54:35.803Z</time>
      </trkpt>
      <trkpt lat="48.86831" lon="2.2671">
        <ele>46.50237</ele>
        <time>2026-07-19T13:54:37.803Z</time>
      </trkpt>
      <trkpt lat="48.86832" lon="2.26713">
        <ele>46.56054</ele>
        <time>2026-07-19T13:54:39.803Z</time>
      </trkpt>
      <trkpt lat="48.86834" lon="2.26717">
        <ele>46.64335</ele>
        <time>2026-07-19T13:54:42.804Z</time>
      </trkpt>
      <trkpt lat="48.86835" lon="2.2672">
        <ele>46.68955</ele>
        <time>2026-07-19T13:54:44.803Z</time>
      </trkpt>
      <trkpt lat="48.86836" lon="2.26723">
        <ele>46.73148</ele>
        <time>2026-07-19T13:54:46.803Z</time>
      </trkpt>
      <trkpt lat="48.86838" lon="2.26726">
        <ele>46.78092</ele>
        <time>2026-07-19T13:54:48.804Z</time>
      </trkpt>
      <trkpt lat="48.86839" lon="2.26729">
        <ele>46.83921</ele>
        <time>2026-07-19T13:54:50.803Z</time>
      </trkpt>
      <trkpt lat="48.86841" lon="2.26732">
        <ele>46.89293</ele>
        <time>2026-07-19T13:54:52.803Z</time>
      </trkpt>
      <trkpt lat="48.86843" lon="2.26735">
        <ele>46.94512</ele>
        <time>2026-07-19T13:54:55.803Z</time>
      </trkpt>
      <trkpt lat="48.86845" lon="2.26739">
        <ele>47.00751</ele>
        <time>2026-07-19T13:54:58.804Z</time>
      </trkpt>
      <trkpt lat="48.86846" lon="2.26742">
        <ele>47.03887</ele>
        <time>2026-07-19T13:55:00.804Z</time>
      </trkpt>
      <trkpt lat="48.86848" lon="2.26746">
        <ele>47.07023</ele>
        <time>2026-07-19T13:55:02.804Z</time>
      </trkpt>
      <trkpt lat="48.86849" lon="2.26749">
        <ele>47.11077</ele>
        <time>2026-07-19T13:55:05.804Z</time>
      </trkpt>
      <trkpt lat="48.8685" lon="2.26753">
        <ele>47.13136</ele>
        <time>2026-07-19T13:55:07.804Z</time>
      </trkpt>
      <trkpt lat="48.86851" lon="2.26757">
        <ele>47.1642</ele>
        <time>2026-07-19T13:55:10.804Z</time>
      </trkpt>
      <trkpt lat="48.86852" lon="2.26761">
        <ele>47.19396</ele>
        <time>2026-07-19T13:55:12.804Z</time>
      </trkpt>
      <trkpt lat="48.86854" lon="2.26763">
        <ele>47.21747</ele>
        <time>2026-07-19T13:55:14.805Z</time>
      </trkpt>
      <trkpt lat="48.86856" lon="2.26766">
        <ele>47.22061</ele>
        <time>2026-07-19T13:55:17.804Z</time>
      </trkpt>
      <trkpt lat="48.86857" lon="2.2677">
        <ele>47.22266</ele>
        <time>2026-07-19T13:55:19.804Z</time>
      </trkpt>
      <trkpt lat="48.86859" lon="2.26772">
        <ele>47.2236</ele>
        <time>2026-07-19T13:55:21.804Z</time>
      </trkpt>
      <trkpt lat="48.8686" lon="2.26775">
        <ele>47.22577</ele>
        <time>2026-07-19T13:55:24.804Z</time>
      </trkpt>
      <trkpt lat="48.86862" lon="2.26779">
        <ele>47.2275</ele>
        <time>2026-07-19T13:55:26.804Z</time>
      </trkpt>
      <trkpt lat="48.86864" lon="2.26783">
        <ele>47.23612</ele>
        <time>2026-07-19T13:55:28.804Z</time>
      </trkpt>
      <trkpt lat="48.86866" lon="2.26786">
        <ele>47.261</ele>
        <time>2026-07-19T13:55:31.804Z</time>
      </trkpt>
      <trkpt lat="48.86867" lon="2.26791">
        <ele>47.29555</ele>
        <time>2026-07-19T13:55:34.804Z</time>
      </trkpt>
      <trkpt lat="48.86868" lon="2.26794">
        <ele>47.32908</ele>
        <time>2026-07-19T13:55:37.804Z</time>
      </trkpt>
      <trkpt lat="48.8687" lon="2.26797">
        <ele>47.3524</ele>
        <time>2026-07-19T13:55:39.804Z</time>
      </trkpt>
      <trkpt lat="48.86872" lon="2.26801">
        <ele>47.38352</ele>
        <time>2026-07-19T13:55:42.805Z</time>
      </trkpt>
      <trkpt lat="48.86874" lon="2.26803">
        <ele>47.43825</ele>
        <time>2026-07-19T13:55:45.804Z</time>
      </trkpt>
      <trkpt lat="48.86877" lon="2.26806">
        <ele>47.48091</ele>
        <time>2026-07-19T13:55:47.804Z</time>
      </trkpt>
      <trkpt lat="48.86878" lon="2.26809">
        <ele>47.5346</ele>
        <time>2026-07-19T13:55:49.804Z</time>
      </trkpt>
      <trkpt lat="48.8688" lon="2.26813">
        <ele>47.61681</ele>
        <time>2026-07-19T13:55:52.805Z</time>
      </trkpt>
      <trkpt lat="48.86881" lon="2.26816">
        <ele>47.70765</ele>
        <time>2026-07-19T13:55:55.804Z</time>
      </trkpt>
      <trkpt lat="48.86884" lon="2.26819">
        <ele>47.8038</ele>
        <time>2026-07-19T13:55:58.804Z</time>
      </trkpt>
      <trkpt lat="48.86885" lon="2.26823">
        <ele>47.91663</ele>
        <time>2026-07-19T13:56:01.805Z</time>
      </trkpt>
      <trkpt lat="48.86887" lon="2.26826">
        <ele>48.07859</ele>
        <time>2026-07-19T13:56:04.804Z</time>
      </trkpt>
      <trkpt lat="48.86889" lon="2.26829">
        <ele>48.27917</ele>
        <time>2026-07-19T13:56:07.805Z</time>
      </trkpt>
      <trkpt lat="48.86891" lon="2.26833">
        <ele>48.41144</ele>
        <time>2026-07-19T13:56:09.805Z</time>
      </trkpt>
      <trkpt lat="48.86893" lon="2.26837">
        <ele>48.55698</ele>
        <time>2026-07-19T13:56:12.805Z</time>
      </trkpt>
      <trkpt lat="48.86894" lon="2.26839">
        <ele>48.62412</ele>
        <time>2026-07-19T13:56:14.805Z</time>
      </trkpt>
      <trkpt lat="48.86895" lon="2.26843">
        <ele>48.64418</ele>
        <time>2026-07-19T13:56:16.806Z</time>
      </trkpt>
      <trkpt lat="48.86896" lon="2.26846">
        <ele>48.64618</ele>
        <time>2026-07-19T13:56:18.805Z</time>
      </trkpt>
      <trkpt lat="48.86897" lon="2.2685">
        <ele>48.6405</ele>
        <time>2026-07-19T13:56:20.805Z</time>
      </trkpt>
      <trkpt lat="48.86898" lon="2.26853">
        <ele>48.61605</ele>
        <time>2026-07-19T13:56:23.805Z</time>
      </trkpt>
      <trkpt lat="48.86899" lon="2.26856">
        <ele>48.59472</ele>
        <time>2026-07-19T13:56:26.805Z</time>
      </trkpt>
      <trkpt lat="48.86901" lon="2.26856">
        <ele>48.51713</ele>
        <time>2026-07-19T13:56:53.806Z</time>
      </trkpt>
      <trkpt lat="48.869" lon="2.26853">
        <ele>48.55916</ele>
        <time>2026-07-19T13:57:05.806Z</time>
      </trkpt>
      <trkpt lat="48.86902" lon="2.26856">
        <ele>48.57224</ele>
        <time>2026-07-19T13:57:08.806Z</time>
      </trkpt>
      <trkpt lat="48.86904" lon="2.26859">
        <ele>48.57937</ele>
        <time>2026-07-19T13:57:10.806Z</time>
      </trkpt>
      <trkpt lat="48.86905" lon="2.26862">
        <ele>48.59081</ele>
        <time>2026-07-19T13:57:12.806Z</time>
      </trkpt>
      <trkpt lat="48.86907" lon="2.26865">
        <ele>48.60548</ele>
        <time>2026-07-19T13:57:14.806Z</time>
      </trkpt>
      <trkpt lat="48.86908" lon="2.2687">
        <ele>48.61543</ele>
        <time>2026-07-19T13:57:16.806Z</time>
      </trkpt>
      <trkpt lat="48.86907" lon="2.26874">
        <ele>48.61938</ele>
        <time>2026-07-19T13:57:19.806Z</time>
      </trkpt>
      <trkpt lat="48.86908" lon="2.26878">
        <ele>48.6174</ele>
        <time>2026-07-19T13:57:21.807Z</time>
      </trkpt>
      <trkpt lat="48.86909" lon="2.26883">
        <ele>48.6119</ele>
        <time>2026-07-19T13:57:24.806Z</time>
      </trkpt>
      <trkpt lat="48.86909" lon="2.26887">
        <ele>48.60246</ele>
        <time>2026-07-19T13:57:27.806Z</time>
      </trkpt>
      <trkpt lat="48.8691" lon="2.26891">
        <ele>48.58707</ele>
        <time>2026-07-19T13:57:30.807Z</time>
      </trkpt>
      <trkpt lat="48.86909" lon="2.26896">
        <ele>48.55164</ele>
        <time>2026-07-19T13:57:33.807Z</time>
      </trkpt>
      <trkpt lat="48.86908" lon="2.26901">
        <ele>48.50989</ele>
        <time>2026-07-19T13:57:37.807Z</time>
      </trkpt>
      <trkpt lat="48.86908" lon="2.26898">
        <ele>46.03402</ele>
        <time>2026-07-19T13:58:46.808Z</time>
      </trkpt>
      <trkpt lat="48.86908" lon="2.26894">
        <ele>46.02276</ele>
        <time>2026-07-19T13:58:48.808Z</time>
      </trkpt>
      <trkpt lat="48.8691" lon="2.26891">
        <ele>46.01249</ele>
        <time>2026-07-19T13:58:51.809Z</time>
      </trkpt>
      <trkpt lat="48.8691" lon="2.26887">
        <ele>46.00452</ele>
        <time>2026-07-19T13:58:54.808Z</time>
      </trkpt>
      <trkpt lat="48.86909" lon="2.26884">
        <ele>45.98948</ele>
        <time>2026-07-19T13:58:59.809Z</time>
      </trkpt>
      <trkpt lat="48.86911" lon="2.26883">
        <ele>45.97661</ele>
        <time>2026-07-19T13:59:10.809Z</time>
      </trkpt>
      <trkpt lat="48.86914" lon="2.26885">
        <ele>45.97116</ele>
        <time>2026-07-19T13:59:14.809Z</time>
      </trkpt>
      <trkpt lat="48.86916" lon="2.26887">
        <ele>45.96733</ele>
        <time>2026-07-19T13:59:16.808Z</time>
      </trkpt>
      <trkpt lat="48.86917" lon="2.2689">
        <ele>45.96381</ele>
        <time>2026-07-19T13:59:18.808Z</time>
      </trkpt>
      <trkpt lat="48.86919" lon="2.26893">
        <ele>45.95835</ele>
        <time>2026-07-19T13:59:20.809Z</time>
      </trkpt>
      <trkpt lat="48.8692" lon="2.26896">
        <ele>45.95256</ele>
        <time>2026-07-19T13:59:22.809Z</time>
      </trkpt>
      <trkpt lat="48.86923" lon="2.26899">
        <ele>45.94084</ele>
        <time>2026-07-19T13:59:25.809Z</time>
      </trkpt>
      <trkpt lat="48.86925" lon="2.26902">
        <ele>45.92653</ele>
        <time>2026-07-19T13:59:28.810Z</time>
      </trkpt>
      <trkpt lat="48.86927" lon="2.26905">
        <ele>45.91308</ele>
        <time>2026-07-19T13:59:31.809Z</time>
      </trkpt>
      <trkpt lat="48.86929" lon="2.26908">
        <ele>45.90307</ele>
        <time>2026-07-19T13:59:33.810Z</time>
      </trkpt>
      <trkpt lat="48.86931" lon="2.26911">
        <ele>45.8837</ele>
        <time>2026-07-19T13:59:36.810Z</time>
      </trkpt>
      <trkpt lat="48.86933" lon="2.26915">
        <ele>45.86573</ele>
        <time>2026-07-19T13:59:39.810Z</time>
      </trkpt>
      <trkpt lat="48.86934" lon="2.26918">
        <ele>45.85693</ele>
        <time>2026-07-19T13:59:41.809Z</time>
      </trkpt>
      <trkpt lat="48.86934" lon="2.26921">
        <ele>45.84867</ele>
        <time>2026-07-19T13:59:43.810Z</time>
      </trkpt>
      <trkpt lat="48.86934" lon="2.26926">
        <ele>45.84789</ele>
        <time>2026-07-19T13:59:45.809Z</time>
      </trkpt>
      <trkpt lat="48.86936" lon="2.2693">
        <ele>45.84833</ele>
        <time>2026-07-19T13:59:48.810Z</time>
      </trkpt>
      <trkpt lat="48.86937" lon="2.26934">
        <ele>45.84752</ele>
        <time>2026-07-19T13:59:52.810Z</time>
      </trkpt>
      <trkpt lat="48.86939" lon="2.26938">
        <ele>45.84958</ele>
        <time>2026-07-19T13:59:55.809Z</time>
      </trkpt>
      <trkpt lat="48.86941" lon="2.26942">
        <ele>45.85444</ele>
        <time>2026-07-19T13:59:58.810Z</time>
      </trkpt>
      <trkpt lat="48.86943" lon="2.26945">
        <ele>45.85637</ele>
        <time>2026-07-19T14:00:01.809Z</time>
      </trkpt>
      <trkpt lat="48.86944" lon="2.26949">
        <ele>45.85727</ele>
        <time>2026-07-19T14:00:04.810Z</time>
      </trkpt>
      <trkpt lat="48.86946" lon="2.26953">
        <ele>45.85872</ele>
        <time>2026-07-19T14:00:08.020Z</time>
      </trkpt>
      <trkpt lat="48.86947" lon="2.26958">
        <ele>45.86159</ele>
        <time>2026-07-19T14:00:10.810Z</time>
      </trkpt>
      <trkpt lat="48.86948" lon="2.26962">
        <ele>45.86363</ele>
        <time>2026-07-19T14:00:13.810Z</time>
      </trkpt>
      <trkpt lat="48.8695" lon="2.26967">
        <ele>45.86612</ele>
        <time>2026-07-19T14:00:16.810Z</time>
      </trkpt>
      <trkpt lat="48.86951" lon="2.2697">
        <ele>45.86843</ele>
        <time>2026-07-19T14:00:19.810Z</time>
      </trkpt>
      <trkpt lat="48.86952" lon="2.26974">
        <ele>45.86877</ele>
        <time>2026-07-19T14:00:22.810Z</time>
      </trkpt>
      <trkpt lat="48.86954" lon="2.26978">
        <ele>45.87068</ele>
        <time>2026-07-19T14:00:25.810Z</time>
      </trkpt>
      <trkpt lat="48.86955" lon="2.26981">
        <ele>45.8716</ele>
        <time>2026-07-19T14:00:27.811Z</time>
      </trkpt>
      <trkpt lat="48.86956" lon="2.26984">
        <ele>45.87229</ele>
        <time>2026-07-19T14:00:29.813Z</time>
      </trkpt>
      <trkpt lat="48.86958" lon="2.26988">
        <ele>45.87224</ele>
        <time>2026-07-19T14:00:32.811Z</time>
      </trkpt>
      <trkpt lat="48.86961" lon="2.26991">
        <ele>45.87202</ele>
        <time>2026-07-19T14:00:35.810Z</time>
      </trkpt>
      <trkpt lat="48.86962" lon="2.26994">
        <ele>45.87247</ele>
        <time>2026-07-19T14:00:37.810Z</time>
      </trkpt>
      <trkpt lat="48.86964" lon="2.26997">
        <ele>45.87363</ele>
        <time>2026-07-19T14:00:39.811Z</time>
      </trkpt>
      <trkpt lat="48.86965" lon="2.27">
        <ele>45.87644</ele>
        <time>2026-07-19T14:00:41.811Z</time>
      </trkpt>
      <trkpt lat="48.86967" lon="2.27004">
        <ele>45.88297</ele>
        <time>2026-07-19T14:00:44.811Z</time>
      </trkpt>
      <trkpt lat="48.86969" lon="2.27006">
        <ele>45.88649</ele>
        <time>2026-07-19T14:00:46.811Z</time>
      </trkpt>
      <trkpt lat="48.86972" lon="2.2701">
        <ele>45.89088</ele>
        <time>2026-07-19T14:00:49.811Z</time>
      </trkpt>
      <trkpt lat="48.86973" lon="2.27014">
        <ele>45.8948</ele>
        <time>2026-07-19T14:00:51.811Z</time>
      </trkpt>
      <trkpt lat="48.86974" lon="2.27017">
        <ele>45.89853</ele>
        <time>2026-07-19T14:00:53.811Z</time>
      </trkpt>
      <trkpt lat="48.86976" lon="2.27021">
        <ele>45.90573</ele>
        <time>2026-07-19T14:00:56.812Z</time>
      </trkpt>
      <trkpt lat="48.86978" lon="2.27024">
        <ele>45.91488</ele>
        <time>2026-07-19T14:00:59.811Z</time>
      </trkpt>
      <trkpt lat="48.8698" lon="2.27028">
        <ele>45.92568</ele>
        <time>2026-07-19T14:01:02.812Z</time>
      </trkpt>
      <trkpt lat="48.86982" lon="2.2703">
        <ele>45.93314</ele>
        <time>2026-07-19T14:01:04.812Z</time>
      </trkpt>
      <trkpt lat="48.86984" lon="2.27034">
        <ele>45.9398</ele>
        <time>2026-07-19T14:01:07.811Z</time>
      </trkpt>
      <trkpt lat="48.86985" lon="2.27038">
        <ele>45.9444</ele>
        <time>2026-07-19T14:01:10.812Z</time>
      </trkpt>
      <trkpt lat="48.86988" lon="2.27042">
        <ele>45.94729</ele>
        <time>2026-07-19T14:01:13.811Z</time>
      </trkpt>
      <trkpt lat="48.8699" lon="2.27045">
        <ele>45.94936</ele>
        <time>2026-07-19T14:01:16.812Z</time>
      </trkpt>
      <trkpt lat="48.86992" lon="2.27047">
        <ele>45.9503</ele>
        <time>2026-07-19T14:01:19.811Z</time>
      </trkpt>
      <trkpt lat="48.86993" lon="2.27049">
        <ele>45.95168</ele>
        <time>2026-07-19T14:01:21.811Z</time>
      </trkpt>
      <trkpt lat="48.86996" lon="2.27052">
        <ele>45.9535</ele>
        <time>2026-07-19T14:01:24.812Z</time>
      </trkpt>
      <trkpt lat="48.86998" lon="2.27057">
        <ele>45.95248</ele>
        <time>2026-07-19T14:01:27.812Z</time>
      </trkpt>
      <trkpt lat="48.86999" lon="2.27061">
        <ele>45.95267</ele>
        <time>2026-07-19T14:01:29.813Z</time>
      </trkpt>
      <trkpt lat="48.87001" lon="2.27065">
        <ele>45.95276</ele>
        <time>2026-07-19T14:01:31.812Z</time>
      </trkpt>
      <trkpt lat="48.87003" lon="2.27069">
        <ele>45.95239</ele>
        <time>2026-07-19T14:01:34.813Z</time>
      </trkpt>
      <trkpt lat="48.87004" lon="2.27073">
        <ele>45.95079</ele>
        <time>2026-07-19T14:01:37.812Z</time>
      </trkpt>
      <trkpt lat="48.87006" lon="2.27077">
        <ele>45.94867</ele>
        <time>2026-07-19T14:01:40.813Z</time>
      </trkpt>
      <trkpt lat="48.87007" lon="2.27081">
        <ele>45.94583</ele>
        <time>2026-07-19T14:01:43.812Z</time>
      </trkpt>
      <trkpt lat="48.87009" lon="2.27084">
        <ele>45.94312</ele>
        <time>2026-07-19T14:01:45.812Z</time>
      </trkpt>
      <trkpt lat="48.87011" lon="2.27087">
        <ele>45.93666</ele>
        <time>2026-07-19T14:01:48.812Z</time>
      </trkpt>
      <trkpt lat="48.87013" lon="2.2709">
        <ele>45.92769</ele>
        <time>2026-07-19T14:01:51.813Z</time>
      </trkpt>
      <trkpt lat="48.87015" lon="2.27093">
        <ele>45.92276</ele>
        <time>2026-07-19T14:01:53.812Z</time>
      </trkpt>
      <trkpt lat="48.87017" lon="2.27096">
        <ele>45.91488</ele>
        <time>2026-07-19T14:01:56.812Z</time>
      </trkpt>
      <trkpt lat="48.87019" lon="2.271">
        <ele>45.90543</ele>
        <time>2026-07-19T14:01:59.813Z</time>
      </trkpt>
      <trkpt lat="48.87021" lon="2.27104">
        <ele>45.8977</ele>
        <time>2026-07-19T14:02:02.813Z</time>
      </trkpt>
      <trkpt lat="48.87022" lon="2.27107">
        <ele>45.89151</ele>
        <time>2026-07-19T14:02:05.813Z</time>
      </trkpt>
      <trkpt lat="48.87023" lon="2.27111">
        <ele>45.88645</ele>
        <time>2026-07-19T14:02:08.813Z</time>
      </trkpt>
      <trkpt lat="48.87023" lon="2.27115">
        <ele>45.88399</ele>
        <time>2026-07-19T14:02:11.813Z</time>
      </trkpt>
      <trkpt lat="48.87024" lon="2.27119">
        <ele>45.88207</ele>
        <time>2026-07-19T14:02:14.813Z</time>
      </trkpt>
      <trkpt lat="48.87026" lon="2.27123">
        <ele>45.88061</ele>
        <time>2026-07-19T14:02:17.813Z</time>
      </trkpt>
      <trkpt lat="48.87028" lon="2.27128">
        <ele>45.87848</ele>
        <time>2026-07-19T14:02:20.812Z</time>
      </trkpt>
      <trkpt lat="48.87029" lon="2.27131">
        <ele>45.87574</ele>
        <time>2026-07-19T14:02:23.813Z</time>
      </trkpt>
      <trkpt lat="48.87032" lon="2.27134">
        <ele>45.87127</ele>
        <time>2026-07-19T14:02:26.814Z</time>
      </trkpt>
      <trkpt lat="48.87034" lon="2.27136">
        <ele>45.86754</ele>
        <time>2026-07-19T14:02:28.813Z</time>
      </trkpt>
      <trkpt lat="48.87036" lon="2.27137">
        <ele>45.86421</ele>
        <time>2026-07-19T14:02:30.813Z</time>
      </trkpt>
      <trkpt lat="48.87038" lon="2.27139">
        <ele>45.86024</ele>
        <time>2026-07-19T14:02:32.814Z</time>
      </trkpt>
      <trkpt lat="48.87041" lon="2.27142">
        <ele>45.85761</ele>
        <time>2026-07-19T14:02:35.815Z</time>
      </trkpt>
      <trkpt lat="48.87044" lon="2.27144">
        <ele>45.85955</ele>
        <time>2026-07-19T14:02:38.813Z</time>
      </trkpt>
      <trkpt lat="48.87046" lon="2.27147">
        <ele>45.86117</ele>
        <time>2026-07-19T14:02:41.813Z</time>
      </trkpt>
      <trkpt lat="48.87048" lon="2.27149">
        <ele>45.86148</ele>
        <time>2026-07-19T14:02:43.814Z</time>
      </trkpt>
      <trkpt lat="48.87051" lon="2.27152">
        <ele>45.86077</ele>
        <time>2026-07-19T14:02:45.814Z</time>
      </trkpt>
      <trkpt lat="48.87052" lon="2.27154">
        <ele>45.85887</ele>
        <time>2026-07-19T14:02:48.813Z</time>
      </trkpt>
      <trkpt lat="48.87055" lon="2.27158">
        <ele>45.85725</ele>
        <time>2026-07-19T14:02:50.814Z</time>
      </trkpt>
      <trkpt lat="48.87058" lon="2.2716">
        <ele>45.85571</ele>
        <time>2026-07-19T14:02:52.814Z</time>
      </trkpt>
      <trkpt lat="48.8706" lon="2.27162">
        <ele>45.85458</ele>
        <time>2026-07-19T14:02:54.814Z</time>
      </trkpt>
      <trkpt lat="48.87062" lon="2.27165">
        <ele>45.85238</ele>
        <time>2026-07-19T14:02:57.815Z</time>
      </trkpt>
      <trkpt lat="48.87065" lon="2.27169">
        <ele>45.85091</ele>
        <time>2026-07-19T14:03:00.814Z</time>
      </trkpt>
      <trkpt lat="48.87068" lon="2.2717">
        <ele>45.85004</ele>
        <time>2026-07-19T14:03:02.814Z</time>
      </trkpt>
      <trkpt lat="48.8707" lon="2.27172">
        <ele>45.84947</ele>
        <time>2026-07-19T14:03:04.815Z</time>
      </trkpt>
      <trkpt lat="48.87071" lon="2.27175">
        <ele>45.84899</ele>
        <time>2026-07-19T14:03:06.815Z</time>
      </trkpt>
      <trkpt lat="48.87073" lon="2.27177">
        <ele>45.84952</ele>
        <time>2026-07-19T14:03:08.813Z</time>
      </trkpt>
      <trkpt lat="48.87076" lon="2.27178">
        <ele>45.85086</ele>
        <time>2026-07-19T14:03:10.814Z</time>
      </trkpt>
      <trkpt lat="48.87078" lon="2.27178">
        <ele>45.85314</ele>
        <time>2026-07-19T14:03:12.814Z</time>
      </trkpt>
      <trkpt lat="48.87081" lon="2.27179">
        <ele>45.85722</ele>
        <time>2026-07-19T14:03:14.814Z</time>
      </trkpt>
      <trkpt lat="48.87085" lon="2.27181">
        <ele>45.87511</ele>
        <time>2026-07-19T14:03:17.814Z</time>
      </trkpt>
      <trkpt lat="48.87087" lon="2.27183">
        <ele>45.8922</ele>
        <time>2026-07-19T14:03:19.814Z</time>
      </trkpt>
      <trkpt lat="48.87089" lon="2.27185">
        <ele>45.91672</ele>
        <time>2026-07-19T14:03:22.814Z</time>
      </trkpt>
      <trkpt lat="48.87092" lon="2.27188">
        <ele>45.93337</ele>
        <time>2026-07-19T14:03:25.814Z</time>
      </trkpt>
      <trkpt lat="48.87094" lon="2.2719">
        <ele>45.94126</ele>
        <time>2026-07-19T14:03:27.814Z</time>
      </trkpt>
      <trkpt lat="48.87096" lon="2.27192">
        <ele>45.96228</ele>
        <time>2026-07-19T14:03:30.815Z</time>
      </trkpt>
      <trkpt lat="48.87098" lon="2.27196">
        <ele>45.99188</ele>
        <time>2026-07-19T14:03:33.815Z</time>
      </trkpt>
      <trkpt lat="48.871" lon="2.27198">
        <ele>46.01095</ele>
        <time>2026-07-19T14:03:35.815Z</time>
      </trkpt>
      <trkpt lat="48.87102" lon="2.27201">
        <ele>46.02343</ele>
        <time>2026-07-19T14:03:37.815Z</time>
      </trkpt>
      <trkpt lat="48.87103" lon="2.27204">
        <ele>46.02852</ele>
        <time>2026-07-19T14:03:39.814Z</time>
      </trkpt>
      <trkpt lat="48.87105" lon="2.27207">
        <ele>46.02817</ele>
        <time>2026-07-19T14:03:41.815Z</time>
      </trkpt>
      <trkpt lat="48.87106" lon="2.2721">
        <ele>46.02293</ele>
        <time>2026-07-19T14:03:43.816Z</time>
      </trkpt>
      <trkpt lat="48.87107" lon="2.27214">
        <ele>46.01799</ele>
        <time>2026-07-19T14:03:46.815Z</time>
      </trkpt>
      <trkpt lat="48.87107" lon="2.27218">
        <ele>46.01998</ele>
        <time>2026-07-19T14:03:48.815Z</time>
      </trkpt>
      <trkpt lat="48.87107" lon="2.27222">
        <ele>46.01975</ele>
        <time>2026-07-19T14:03:51.815Z</time>
      </trkpt>
      <trkpt lat="48.87107" lon="2.27226">
        <ele>46.01891</ele>
        <time>2026-07-19T14:03:53.815Z</time>
      </trkpt>
      <trkpt lat="48.87107" lon="2.27229">
        <ele>46.0149</ele>
        <time>2026-07-19T14:03:55.815Z</time>
      </trkpt>
      <trkpt lat="48.87108" lon="2.27233">
        <ele>46.01087</ele>
        <time>2026-07-19T14:03:58.815Z</time>
      </trkpt>
      <trkpt lat="48.87109" lon="2.27237">
        <ele>46.00782</ele>
        <time>2026-07-19T14:04:02.815Z</time>
      </trkpt>
      <trkpt lat="48.87109" lon="2.27241">
        <ele>46.00665</ele>
        <time>2026-07-19T14:04:05.815Z</time>
      </trkpt>
      <trkpt lat="48.87109" lon="2.27245">
        <ele>46.0067</ele>
        <time>2026-07-19T14:04:07.815Z</time>
      </trkpt>
      <trkpt lat="48.87109" lon="2.27249">
        <ele>46.00759</ele>
        <time>2026-07-19T14:04:09.815Z</time>
      </trkpt>
      <trkpt lat="48.8711" lon="2.27253">
        <ele>46.00799</ele>
        <time>2026-07-19T14:04:11.816Z</time>
      </trkpt>
      <trkpt lat="48.87111" lon="2.27256">
        <ele>46.00896</ele>
        <time>2026-07-19T14:04:13.816Z</time>
      </trkpt>
      <trkpt lat="48.8711" lon="2.27261">
        <ele>46.01014</ele>
        <time>2026-07-19T14:04:16.816Z</time>
      </trkpt>
      <trkpt lat="48.8711" lon="2.27265">
        <ele>46.01001</ele>
        <time>2026-07-19T14:04:18.816Z</time>
      </trkpt>
      <trkpt lat="48.87111" lon="2.27269">
        <ele>46.00926</ele>
        <time>2026-07-19T14:04:21.815Z</time>
      </trkpt>
      <trkpt lat="48.87112" lon="2.27272">
        <ele>46.00785</ele>
        <time>2026-07-19T14:04:23.815Z</time>
      </trkpt>
      <trkpt lat="48.87113" lon="2.27276">
        <ele>46.00608</ele>
        <time>2026-07-19T14:04:25.816Z</time>
      </trkpt>
      <trkpt lat="48.87113" lon="2.2728">
        <ele>46.0021</ele>
        <time>2026-07-19T14:04:28.816Z</time>
      </trkpt>
      <trkpt lat="48.87114" lon="2.27284">
        <ele>45.99603</ele>
        <time>2026-07-19T14:04:30.815Z</time>
      </trkpt>
      <trkpt lat="48.87115" lon="2.27288">
        <ele>45.98515</ele>
        <time>2026-07-19T14:04:32.816Z</time>
      </trkpt>
      <trkpt lat="48.87116" lon="2.27292">
        <ele>45.97854</ele>
        <time>2026-07-19T14:04:34.816Z</time>
      </trkpt>
      <trkpt lat="48.87117" lon="2.27296">
        <ele>45.9744</ele>
        <time>2026-07-19T14:04:37.815Z</time>
      </trkpt>
      <trkpt lat="48.87118" lon="2.273">
        <ele>45.9703</ele>
        <time>2026-07-19T14:04:39.815Z</time>
      </trkpt>
      <trkpt lat="48.87118" lon="2.27304">
        <ele>45.9658</ele>
        <time>2026-07-19T14:04:41.816Z</time>
      </trkpt>
      <trkpt lat="48.87118" lon="2.27308">
        <ele>45.966</ele>
        <time>2026-07-19T14:04:44.815Z</time>
      </trkpt>
      <trkpt lat="48.87118" lon="2.27312">
        <ele>45.96763</ele>
        <time>2026-07-19T14:04:46.816Z</time>
      </trkpt>
      <trkpt lat="48.87119" lon="2.27316">
        <ele>45.96785</ele>
        <time>2026-07-19T14:04:48.816Z</time>
      </trkpt>
      <trkpt lat="48.8712" lon="2.2732">
        <ele>45.96728</ele>
        <time>2026-07-19T14:04:50.816Z</time>
      </trkpt>
      <trkpt lat="48.87121" lon="2.27325">
        <ele>45.96728</ele>
        <time>2026-07-19T14:04:54.817Z</time>
      </trkpt>
      <trkpt lat="48.87122" lon="2.27328">
        <ele>45.96679</ele>
        <time>2026-07-19T14:04:56.817Z</time>
      </trkpt>
      <trkpt lat="48.87122" lon="2.27332">
        <ele>45.97017</ele>
        <time>2026-07-19T14:04:59.816Z</time>
      </trkpt>
      <trkpt lat="48.87123" lon="2.27335">
        <ele>45.97514</ele>
        <time>2026-07-19T14:05:01.816Z</time>
      </trkpt>
      <trkpt lat="48.87123" lon="2.2734">
        <ele>45.98241</ele>
        <time>2026-07-19T14:05:03.816Z</time>
      </trkpt>
      <trkpt lat="48.87124" lon="2.27343">
        <ele>45.99021</ele>
        <time>2026-07-19T14:05:05.816Z</time>
      </trkpt>
      <trkpt lat="48.87126" lon="2.27346">
        <ele>46.01313</ele>
        <time>2026-07-19T14:05:08.817Z</time>
      </trkpt>
      <trkpt lat="48.87126" lon="2.2735">
        <ele>46.04084</ele>
        <time>2026-07-19T14:05:10.817Z</time>
      </trkpt>
      <trkpt lat="48.87126" lon="2.27354">
        <ele>46.08607</ele>
        <time>2026-07-19T14:05:12.818Z</time>
      </trkpt>
      <trkpt lat="48.87126" lon="2.27359">
        <ele>46.21611</ele>
        <time>2026-07-19T14:05:15.817Z</time>
      </trkpt>
      <trkpt lat="48.87127" lon="2.27363">
        <ele>46.45616</ele>
        <time>2026-07-19T14:05:18.817Z</time>
      </trkpt>
      <trkpt lat="48.87127" lon="2.27367">
        <ele>46.71567</ele>
        <time>2026-07-19T14:05:21.817Z</time>
      </trkpt>
      <trkpt lat="48.87127" lon="2.27371">
        <ele>46.9312</ele>
        <time>2026-07-19T14:05:24.816Z</time>
      </trkpt>
      <trkpt lat="48.87127" lon="2.27374">
        <ele>47.07561</ele>
        <time>2026-07-19T14:05:26.817Z</time>
      </trkpt>
      <trkpt lat="48.87127" lon="2.27378">
        <ele>47.26631</ele>
        <time>2026-07-19T14:05:29.817Z</time>
      </trkpt>
      <trkpt lat="48.87127" lon="2.27383">
        <ele>47.46035</ele>
        <time>2026-07-19T14:05:32.817Z</time>
      </trkpt>
      <trkpt lat="48.87126" lon="2.27387">
        <ele>47.58737</ele>
        <time>2026-07-19T14:05:34.817Z</time>
      </trkpt>
      <trkpt lat="48.87125" lon="2.2739">
        <ele>47.72428</ele>
        <time>2026-07-19T14:05:36.818Z</time>
      </trkpt>
      <trkpt lat="48.87123" lon="2.27394">
        <ele>47.90326</ele>
        <time>2026-07-19T14:05:39.817Z</time>
      </trkpt>
      <trkpt lat="48.87122" lon="2.27399">
        <ele>48.04951</ele>
        <time>2026-07-19T14:05:42.818Z</time>
      </trkpt>
      <trkpt lat="48.87123" lon="2.27402">
        <ele>48.18795</ele>
        <time>2026-07-19T14:05:47.817Z</time>
      </trkpt>
      <trkpt lat="48.87125" lon="2.27407">
        <ele>48.19743</ele>
        <time>2026-07-19T14:05:49.818Z</time>
      </trkpt>
      <trkpt lat="48.87126" lon="2.27411">
        <ele>48.1686</ele>
        <time>2026-07-19T14:05:52.817Z</time>
      </trkpt>
      <trkpt lat="48.87126" lon="2.27414">
        <ele>48.02736</ele>
        <time>2026-07-19T14:06:00.817Z</time>
      </trkpt>
      <trkpt lat="48.87125" lon="2.27418">
        <ele>47.95471</ele>
        <time>2026-07-19T14:06:05.818Z</time>
      </trkpt>
      <trkpt lat="48.87124" lon="2.27421">
        <ele>47.84996</ele>
        <time>2026-07-19T14:06:10.818Z</time>
      </trkpt>
      <trkpt lat="48.8712" lon="2.27426">
        <ele>47.61331</ele>
        <time>2026-07-19T14:06:15.818Z</time>
      </trkpt>
      <trkpt lat="48.87119" lon="2.27429">
        <ele>47.54107</ele>
        <time>2026-07-19T14:06:16.818Z</time>
      </trkpt>
      <trkpt lat="48.87117" lon="2.27432">
        <ele>47.46288</ele>
        <time>2026-07-19T14:06:17.818Z</time>
      </trkpt>
      <trkpt lat="48.87115" lon="2.27435">
        <ele>46.87583</ele>
        <time>2026-07-19T14:06:22.818Z</time>
      </trkpt>
      <trkpt lat="48.87113" lon="2.27439">
        <ele>46.71436</ele>
        <time>2026-07-19T14:06:23.818Z</time>
      </trkpt>
      <trkpt lat="48.87111" lon="2.27441">
        <ele>46.53039</ele>
        <time>2026-07-19T14:06:24.818Z</time>
      </trkpt>
      <trkpt lat="48.87108" lon="2.27447">
        <ele>46.13118</ele>
        <time>2026-07-19T14:06:26.819Z</time>
      </trkpt>
      <trkpt lat="48.87108" lon="2.27451">
        <ele>45.94555</ele>
        <time>2026-07-19T14:06:27.819Z</time>
      </trkpt>
      <trkpt lat="48.87107" lon="2.27454">
        <ele>45.78039</ele>
        <time>2026-07-19T14:06:28.819Z</time>
      </trkpt>
      <trkpt lat="48.87104" lon="2.27459">
        <ele>45.50993</ele>
        <time>2026-07-19T14:06:30.818Z</time>
      </trkpt>
      <trkpt lat="48.87104" lon="2.27463">
        <ele>45.29562</ele>
        <time>2026-07-19T14:06:32.818Z</time>
      </trkpt>
      <trkpt lat="48.87102" lon="2.27468">
        <ele>45.12858</ele>
        <time>2026-07-19T14:06:35.818Z</time>
      </trkpt>
      <trkpt lat="48.87101" lon="2.27472">
        <ele>44.95107</ele>
        <time>2026-07-19T14:06:38.819Z</time>
      </trkpt>
      <trkpt lat="48.87101" lon="2.27476">
        <ele>44.87087</ele>
        <time>2026-07-19T14:06:40.818Z</time>
      </trkpt>
      <trkpt lat="48.871" lon="2.2748">
        <ele>44.85196</ele>
        <time>2026-07-19T14:06:42.819Z</time>
      </trkpt>
      <trkpt lat="48.87098" lon="2.27485">
        <ele>44.85615</ele>
        <time>2026-07-19T14:06:44.818Z</time>
      </trkpt>
      <trkpt lat="48.87097" lon="2.27488">
        <ele>44.87443</ele>
        <time>2026-07-19T14:06:46.818Z</time>
      </trkpt>
      <trkpt lat="48.87096" lon="2.27492">
        <ele>44.90622</ele>
        <time>2026-07-19T14:06:48.819Z</time>
      </trkpt>
      <trkpt lat="48.87095" lon="2.27496">
        <ele>44.94978</ele>
        <time>2026-07-19T14:06:50.819Z</time>
      </trkpt>
      <trkpt lat="48.87094" lon="2.275">
        <ele>45.02716</ele>
        <time>2026-07-19T14:06:53.820Z</time>
      </trkpt>
      <trkpt lat="48.87093" lon="2.27504">
        <ele>45.08517</ele>
        <time>2026-07-19T14:06:55.819Z</time>
      </trkpt>
      <trkpt lat="48.87092" lon="2.27509">
        <ele>45.14865</ele>
        <time>2026-07-19T14:06:57.819Z</time>
      </trkpt>
      <trkpt lat="48.87092" lon="2.27513">
        <ele>45.24163</ele>
        <time>2026-07-19T14:07:00.819Z</time>
      </trkpt>
      <trkpt lat="48.87093" lon="2.27516">
        <ele>45.31133</ele>
        <time>2026-07-19T14:07:04.819Z</time>
      </trkpt>
      <trkpt lat="48.87094" lon="2.2752">
        <ele>45.32918</ele>
        <time>2026-07-19T14:07:07.819Z</time>
      </trkpt>
      <trkpt lat="48.87095" lon="2.27524">
        <ele>45.33851</ele>
        <time>2026-07-19T14:07:11.820Z</time>
      </trkpt>
      <trkpt lat="48.87096" lon="2.27527">
        <ele>45.34001</ele>
        <time>2026-07-19T14:07:14.820Z</time>
      </trkpt>
      <trkpt lat="48.87097" lon="2.27532">
        <ele>45.33666</ele>
        <time>2026-07-19T14:07:17.820Z</time>
      </trkpt>
      <trkpt lat="48.87098" lon="2.27536">
        <ele>45.33721</ele>
        <time>2026-07-19T14:07:19.819Z</time>
      </trkpt>
      <trkpt lat="48.871" lon="2.2754">
        <ele>45.33599</ele>
        <time>2026-07-19T14:07:22.820Z</time>
      </trkpt>
      <trkpt lat="48.87101" lon="2.27543">
        <ele>45.33514</ele>
        <time>2026-07-19T14:07:25.821Z</time>
      </trkpt>
      <trkpt lat="48.87102" lon="2.27547">
        <ele>45.33801</ele>
        <time>2026-07-19T14:07:27.820Z</time>
      </trkpt>
      <trkpt lat="48.87104" lon="2.27551">
        <ele>45.34019</ele>
        <time>2026-07-19T14:07:30.820Z</time>
      </trkpt>
      <trkpt lat="48.87105" lon="2.27556">
        <ele>45.33934</ele>
        <time>2026-07-19T14:07:33.820Z</time>
      </trkpt>
      <trkpt lat="48.87106" lon="2.27559">
        <ele>45.34022</ele>
        <time>2026-07-19T14:07:35.820Z</time>
      </trkpt>
      <trkpt lat="48.87107" lon="2.27563">
        <ele>45.33975</ele>
        <time>2026-07-19T14:07:38.820Z</time>
      </trkpt>
      <trkpt lat="48.87108" lon="2.27567">
        <ele>45.33866</ele>
        <time>2026-07-19T14:07:41.820Z</time>
      </trkpt>
      <trkpt lat="48.8711" lon="2.27572">
        <ele>45.33933</ele>
        <time>2026-07-19T14:07:45.821Z</time>
      </trkpt>
      <trkpt lat="48.87111" lon="2.27575">
        <ele>45.33932</ele>
        <time>2026-07-19T14:07:48.820Z</time>
      </trkpt>
      <trkpt lat="48.87111" lon="2.27579">
        <ele>45.33891</ele>
        <time>2026-07-19T14:07:50.820Z</time>
      </trkpt>
      <trkpt lat="48.87112" lon="2.27582">
        <ele>45.33901</ele>
        <time>2026-07-19T14:07:52.821Z</time>
      </trkpt>
      <trkpt lat="48.87111" lon="2.27586">
        <ele>45.33365</ele>
        <time>2026-07-19T14:08:00.820Z</time>
      </trkpt>
      <trkpt lat="48.87112" lon="2.27589">
        <ele>45.33134</ele>
        <time>2026-07-19T14:08:03.821Z</time>
      </trkpt>
      <trkpt lat="48.87113" lon="2.27593">
        <ele>45.3288</ele>
        <time>2026-07-19T14:08:06.821Z</time>
      </trkpt>
      <trkpt lat="48.87115" lon="2.27597">
        <ele>45.32646</ele>
        <time>2026-07-19T14:08:09.821Z</time>
      </trkpt>
      <trkpt lat="48.87116" lon="2.276">
        <ele>45.32526</ele>
        <time>2026-07-19T14:08:12.820Z</time>
      </trkpt>
      <trkpt lat="48.87118" lon="2.27603">
        <ele>45.32375</ele>
        <time>2026-07-19T14:08:15.821Z</time>
      </trkpt>
      <trkpt lat="48.8712" lon="2.27606">
        <ele>45.32164</ele>
        <time>2026-07-19T14:08:18.821Z</time>
      </trkpt>
      <trkpt lat="48.87121" lon="2.27611">
        <ele>45.32089</ele>
        <time>2026-07-19T14:08:21.821Z</time>
      </trkpt>
      <trkpt lat="48.87123" lon="2.27615">
        <ele>45.32029</ele>
        <time>2026-07-19T14:08:24.821Z</time>
      </trkpt>
      <trkpt lat="48.87124" lon="2.2762">
        <ele>45.31874</ele>
        <time>2026-07-19T14:08:27.820Z</time>
      </trkpt>
      <trkpt lat="48.87126" lon="2.27624">
        <ele>45.3184</ele>
        <time>2026-07-19T14:08:30.820Z</time>
      </trkpt>
      <trkpt lat="48.87126" lon="2.27628">
        <ele>45.31865</ele>
        <time>2026-07-19T14:08:33.822Z</time>
      </trkpt>
      <trkpt lat="48.87125" lon="2.27632">
        <ele>45.31909</ele>
        <time>2026-07-19T14:08:36.821Z</time>
      </trkpt>
      <trkpt lat="48.87125" lon="2.27636">
        <ele>45.31954</ele>
        <time>2026-07-19T14:08:39.821Z</time>
      </trkpt>
    </trkseg>
  </trk>
</gpx>